<?xml version="1.0" encoding="UTF-8" standalone="no" ?>
<gpx xmlns="http://www.topografix.com/GPX/1/1" xmlns:xsi="http://www.w3.org/2001/XMLSchema-instance" xsi:schemaLocation="http://www.topografix.com/GPX/1/1 http://www.topografix.com/GPX/1/1/gpx.xsd" version="1.1" creator="VisuGPX - https://www.visugpx.com">
  <metadata>
    <name>La polaire Dourdan 45k 26/11/2017</name>
    <desc><![CDATA[La polaire Dourdan 45k 26/11/2017]]></desc>
  </metadata>
  <trk>
    <name><![CDATA[2017-11-26 08:40]]></name>
    <desc><![CDATA[Total: 48.5km]]></desc>
    <trkseg>
      <trkpt lat="48.53453" lon="2.00048">
        <ele>109.27</ele>
        <time>2017-11-26T07:46:53Z</time>
      </trkpt>
      <trkpt lat="48.53455" lon="2.00035">
        <ele>108.85</ele>
        <time>2017-11-26T07:46:55Z</time>
      </trkpt>
      <trkpt lat="48.53455" lon="2.00019">
        <ele>109.04</ele>
        <time>2017-11-26T07:46:57Z</time>
      </trkpt>
      <trkpt lat="48.53458" lon="2.0001">
        <ele>109.96</ele>
        <time>2017-11-26T07:46:59Z</time>
      </trkpt>
      <trkpt lat="48.53458" lon="1.99993">
        <ele>110.47</ele>
        <time>2017-11-26T07:47:01Z</time>
      </trkpt>
      <trkpt lat="48.53458" lon="1.99978">
        <ele>110.44</ele>
        <time>2017-11-26T07:47:03Z</time>
      </trkpt>
      <trkpt lat="48.53457" lon="1.99958">
        <ele>110.4</ele>
        <time>2017-11-26T07:47:05Z</time>
      </trkpt>
      <trkpt lat="48.53461" lon="1.99944">
        <ele>110.68</ele>
        <time>2017-11-26T07:47:07Z</time>
      </trkpt>
      <trkpt lat="48.5346" lon="1.99931">
        <ele>110.67</ele>
        <time>2017-11-26T07:47:09Z</time>
      </trkpt>
      <trkpt lat="48.53461" lon="1.99915">
        <ele>110.76</ele>
        <time>2017-11-26T07:47:11Z</time>
      </trkpt>
      <trkpt lat="48.53465" lon="1.99906">
        <ele>111.02</ele>
        <time>2017-11-26T07:47:13Z</time>
      </trkpt>
      <trkpt lat="48.53458" lon="1.99893">
        <ele>110.49</ele>
        <time>2017-11-26T07:47:15Z</time>
      </trkpt>
      <trkpt lat="48.5346" lon="1.99877">
        <ele>110.67</ele>
        <time>2017-11-26T07:47:17Z</time>
      </trkpt>
      <trkpt lat="48.53461" lon="1.99862">
        <ele>110.7</ele>
        <time>2017-11-26T07:47:19Z</time>
      </trkpt>
      <trkpt lat="48.53461" lon="1.99846">
        <ele>110.75</ele>
        <time>2017-11-26T07:47:21Z</time>
      </trkpt>
      <trkpt lat="48.53463" lon="1.99831">
        <ele>110.87</ele>
        <time>2017-11-26T07:47:23Z</time>
      </trkpt>
      <trkpt lat="48.53464" lon="1.99815">
        <ele>110.98</ele>
        <time>2017-11-26T07:47:25Z</time>
      </trkpt>
      <trkpt lat="48.53463" lon="1.998">
        <ele>110.93</ele>
        <time>2017-11-26T07:47:27Z</time>
      </trkpt>
      <trkpt lat="48.53466" lon="1.99789">
        <ele>111.12</ele>
        <time>2017-11-26T07:47:29Z</time>
      </trkpt>
      <trkpt lat="48.53466" lon="1.99776">
        <ele>111.13</ele>
        <time>2017-11-26T07:47:31Z</time>
      </trkpt>
      <trkpt lat="48.53467" lon="1.9976">
        <ele>111.24</ele>
        <time>2017-11-26T07:47:33Z</time>
      </trkpt>
      <trkpt lat="48.53468" lon="1.9975">
        <ele>111.31</ele>
        <time>2017-11-26T07:47:35Z</time>
      </trkpt>
      <trkpt lat="48.53469" lon="1.99732">
        <ele>111.36</ele>
        <time>2017-11-26T07:47:37Z</time>
      </trkpt>
      <trkpt lat="48.53469" lon="1.99719">
        <ele>111.29</ele>
        <time>2017-11-26T07:47:39Z</time>
      </trkpt>
      <trkpt lat="48.53467" lon="1.99708">
        <ele>111.1</ele>
        <time>2017-11-26T07:47:41Z</time>
      </trkpt>
      <trkpt lat="48.5347" lon="1.99501">
        <ele>111.28</ele>
        <time>2017-11-26T07:48:12Z</time>
      </trkpt>
      <trkpt lat="48.53473" lon="1.9948">
        <ele>111.52</ele>
        <time>2017-11-26T07:48:15Z</time>
      </trkpt>
      <trkpt lat="48.53473" lon="1.99468">
        <ele>111.6</ele>
        <time>2017-11-26T07:48:17Z</time>
      </trkpt>
      <trkpt lat="48.53471" lon="1.99456">
        <ele>111.66</ele>
        <time>2017-11-26T07:48:19Z</time>
      </trkpt>
      <trkpt lat="48.53472" lon="1.99444">
        <ele>111.76</ele>
        <time>2017-11-26T07:48:21Z</time>
      </trkpt>
      <trkpt lat="48.5347" lon="1.99436">
        <ele>111.77</ele>
        <time>2017-11-26T07:48:23Z</time>
      </trkpt>
      <trkpt lat="48.53465" lon="1.99431">
        <ele>111.64</ele>
        <time>2017-11-26T07:48:25Z</time>
      </trkpt>
      <trkpt lat="48.53459" lon="1.99429">
        <ele>111.44</ele>
        <time>2017-11-26T07:48:27Z</time>
      </trkpt>
      <trkpt lat="48.5345" lon="1.9943">
        <ele>111.12</ele>
        <time>2017-11-26T07:48:31Z</time>
      </trkpt>
      <trkpt lat="48.53444" lon="1.99428">
        <ele>110.94</ele>
        <time>2017-11-26T07:48:33Z</time>
      </trkpt>
      <trkpt lat="48.53438" lon="1.99428">
        <ele>110.73</ele>
        <time>2017-11-26T07:48:35Z</time>
      </trkpt>
      <trkpt lat="48.53436" lon="1.99421">
        <ele>110.69</ele>
        <time>2017-11-26T07:48:37Z</time>
      </trkpt>
      <trkpt lat="48.53434" lon="1.99415">
        <ele>110.6</ele>
        <time>2017-11-26T07:48:49Z</time>
      </trkpt>
      <trkpt lat="48.5343" lon="1.99417">
        <ele>110.46</ele>
        <time>2017-11-26T07:49:03Z</time>
      </trkpt>
      <trkpt lat="48.53427" lon="1.99427">
        <ele>110.37</ele>
        <time>2017-11-26T07:49:09Z</time>
      </trkpt>
      <trkpt lat="48.53426" lon="1.99436">
        <ele>110.3</ele>
        <time>2017-11-26T07:49:13Z</time>
      </trkpt>
      <trkpt lat="48.53428" lon="1.99444">
        <ele>110.38</ele>
        <time>2017-11-26T07:49:19Z</time>
      </trkpt>
      <trkpt lat="48.53424" lon="1.99442">
        <ele>110.23</ele>
        <time>2017-11-26T07:49:33Z</time>
      </trkpt>
      <trkpt lat="48.53419" lon="1.99441">
        <ele>110.07</ele>
        <time>2017-11-26T07:50:20Z</time>
      </trkpt>
      <trkpt lat="48.53414" lon="1.99439">
        <ele>109.91</ele>
        <time>2017-11-26T07:50:34Z</time>
      </trkpt>
      <trkpt lat="48.53418" lon="1.99432">
        <ele>110.04</ele>
        <time>2017-11-26T07:51:42Z</time>
      </trkpt>
      <trkpt lat="48.53421" lon="1.99426">
        <ele>110.16</ele>
        <time>2017-11-26T07:51:48Z</time>
      </trkpt>
      <trkpt lat="48.53425" lon="1.9942">
        <ele>110.28</ele>
        <time>2017-11-26T07:53:16Z</time>
      </trkpt>
      <trkpt lat="48.53424" lon="1.99429">
        <ele>110.24</ele>
        <time>2017-11-26T07:54:22Z</time>
      </trkpt>
      <trkpt lat="48.53424" lon="1.99436">
        <ele>110.24</ele>
        <time>2017-11-26T07:54:26Z</time>
      </trkpt>
      <trkpt lat="48.53426" lon="1.9943">
        <ele>110.32</ele>
        <time>2017-11-26T07:54:42Z</time>
      </trkpt>
      <trkpt lat="48.53424" lon="1.99422">
        <ele>110.27</ele>
        <time>2017-11-26T07:54:52Z</time>
      </trkpt>
      <trkpt lat="48.53426" lon="1.9943">
        <ele>110.3</ele>
        <time>2017-11-26T07:56:00Z</time>
      </trkpt>
      <trkpt lat="48.53425" lon="1.99423">
        <ele>110.28</ele>
        <time>2017-11-26T07:58:20Z</time>
      </trkpt>
      <trkpt lat="48.53427" lon="1.99431">
        <ele>110.34</ele>
        <time>2017-11-26T07:58:40Z</time>
      </trkpt>
      <trkpt lat="48.53434" lon="1.99434">
        <ele>110.58</ele>
        <time>2017-11-26T07:58:44Z</time>
      </trkpt>
      <trkpt lat="48.53439" lon="1.99434">
        <ele>110.75</ele>
        <time>2017-11-26T07:58:46Z</time>
      </trkpt>
      <trkpt lat="48.53448" lon="1.99434">
        <ele>111.04</ele>
        <time>2017-11-26T07:58:48Z</time>
      </trkpt>
      <trkpt lat="48.53456" lon="1.99434">
        <ele>111.31</ele>
        <time>2017-11-26T07:58:50Z</time>
      </trkpt>
      <trkpt lat="48.53463" lon="1.99435">
        <ele>111.56</ele>
        <time>2017-11-26T07:58:52Z</time>
      </trkpt>
      <trkpt lat="48.53469" lon="1.99441">
        <ele>111.71</ele>
        <time>2017-11-26T07:58:54Z</time>
      </trkpt>
      <trkpt lat="48.5347" lon="1.99451">
        <ele>111.66</ele>
        <time>2017-11-26T07:58:56Z</time>
      </trkpt>
      <trkpt lat="48.53465" lon="1.99459">
        <ele>111.45</ele>
        <time>2017-11-26T07:58:58Z</time>
      </trkpt>
      <trkpt lat="48.53459" lon="1.99465">
        <ele>111.22</ele>
        <time>2017-11-26T07:59:00Z</time>
      </trkpt>
      <trkpt lat="48.53453" lon="1.99474">
        <ele>111.02</ele>
        <time>2017-11-26T07:59:02Z</time>
      </trkpt>
      <trkpt lat="48.53451" lon="1.99484">
        <ele>110.89</ele>
        <time>2017-11-26T07:59:04Z</time>
      </trkpt>
      <trkpt lat="48.53452" lon="1.99495">
        <ele>110.87</ele>
        <time>2017-11-26T07:59:06Z</time>
      </trkpt>
      <trkpt lat="48.53455" lon="1.99504">
        <ele>110.89</ele>
        <time>2017-11-26T07:59:08Z</time>
      </trkpt>
      <trkpt lat="48.53459" lon="1.99511">
        <ele>110.94</ele>
        <time>2017-11-26T07:59:10Z</time>
      </trkpt>
      <trkpt lat="48.53463" lon="1.99515">
        <ele>111.04</ele>
        <time>2017-11-26T07:59:24Z</time>
      </trkpt>
      <trkpt lat="48.53465" lon="1.99522">
        <ele>111.05</ele>
        <time>2017-11-26T07:59:32Z</time>
      </trkpt>
      <trkpt lat="48.53443" lon="2.00146">
        <ele>106.2</ele>
        <time>2017-11-26T08:03:32Z</time>
      </trkpt>
      <trkpt lat="48.5344" lon="2.00152">
        <ele>104.81</ele>
        <time>2017-11-26T08:03:34Z</time>
      </trkpt>
      <trkpt lat="48.53434" lon="2.00158">
        <ele>103.01</ele>
        <time>2017-11-26T08:03:38Z</time>
      </trkpt>
      <trkpt lat="48.53425" lon="2.00164">
        <ele>100.96</ele>
        <time>2017-11-26T08:03:42Z</time>
      </trkpt>
      <trkpt lat="48.53419" lon="2.00163">
        <ele>99.43</ele>
        <time>2017-11-26T08:03:44Z</time>
      </trkpt>
      <trkpt lat="48.53403" lon="2.0016">
        <ele>98.64</ele>
        <time>2017-11-26T08:03:46Z</time>
      </trkpt>
      <trkpt lat="48.53394" lon="2.00161">
        <ele>98.33</ele>
        <time>2017-11-26T08:03:48Z</time>
      </trkpt>
      <trkpt lat="48.53383" lon="2.0016">
        <ele>98.3</ele>
        <time>2017-11-26T08:03:50Z</time>
      </trkpt>
      <trkpt lat="48.53374" lon="2.00158">
        <ele>98.48</ele>
        <time>2017-11-26T08:03:52Z</time>
      </trkpt>
      <trkpt lat="48.53367" lon="2.00157">
        <ele>98.59</ele>
        <time>2017-11-26T08:03:54Z</time>
      </trkpt>
      <trkpt lat="48.53359" lon="2.00156">
        <ele>98.79</ele>
        <time>2017-11-26T08:03:56Z</time>
      </trkpt>
      <trkpt lat="48.53351" lon="2.00154">
        <ele>98.84</ele>
        <time>2017-11-26T08:03:58Z</time>
      </trkpt>
      <trkpt lat="48.53342" lon="2.00154">
        <ele>98.89</ele>
        <time>2017-11-26T08:04:00Z</time>
      </trkpt>
      <trkpt lat="48.53333" lon="2.00153">
        <ele>99.03</ele>
        <time>2017-11-26T08:04:02Z</time>
      </trkpt>
      <trkpt lat="48.53325" lon="2.00156">
        <ele>99.17</ele>
        <time>2017-11-26T08:04:04Z</time>
      </trkpt>
      <trkpt lat="48.53316" lon="2.00161">
        <ele>99.32</ele>
        <time>2017-11-26T08:04:06Z</time>
      </trkpt>
      <trkpt lat="48.53307" lon="2.00162">
        <ele>100.06</ele>
        <time>2017-11-26T08:04:08Z</time>
      </trkpt>
      <trkpt lat="48.53297" lon="2.00162">
        <ele>100.05</ele>
        <time>2017-11-26T08:04:10Z</time>
      </trkpt>
      <trkpt lat="48.53287" lon="2.00157">
        <ele>100.42</ele>
        <time>2017-11-26T08:04:12Z</time>
      </trkpt>
      <trkpt lat="48.53273" lon="2.00155">
        <ele>99.92</ele>
        <time>2017-11-26T08:04:14Z</time>
      </trkpt>
      <trkpt lat="48.53267" lon="2.00154">
        <ele>99.03</ele>
        <time>2017-11-26T08:04:16Z</time>
      </trkpt>
      <trkpt lat="48.5326" lon="2.00152">
        <ele>98.3</ele>
        <time>2017-11-26T08:04:18Z</time>
      </trkpt>
      <trkpt lat="48.53258" lon="2.00157">
        <ele>97.19</ele>
        <time>2017-11-26T08:04:20Z</time>
      </trkpt>
      <trkpt lat="48.53256" lon="2.00168">
        <ele>95.72</ele>
        <time>2017-11-26T08:04:24Z</time>
      </trkpt>
      <trkpt lat="48.53257" lon="2.00177">
        <ele>95.08</ele>
        <time>2017-11-26T08:04:26Z</time>
      </trkpt>
      <trkpt lat="48.53259" lon="2.00189">
        <ele>94.13</ele>
        <time>2017-11-26T08:04:28Z</time>
      </trkpt>
      <trkpt lat="48.53259" lon="2.002">
        <ele>93.32</ele>
        <time>2017-11-26T08:04:30Z</time>
      </trkpt>
      <trkpt lat="48.53258" lon="2.0021">
        <ele>92.73</ele>
        <time>2017-11-26T08:04:32Z</time>
      </trkpt>
      <trkpt lat="48.53259" lon="2.00226">
        <ele>91.81</ele>
        <time>2017-11-26T08:04:34Z</time>
      </trkpt>
      <trkpt lat="48.5326" lon="2.00237">
        <ele>91.27</ele>
        <time>2017-11-26T08:04:36Z</time>
      </trkpt>
      <trkpt lat="48.53258" lon="2.00246">
        <ele>90.89</ele>
        <time>2017-11-26T08:04:38Z</time>
      </trkpt>
      <trkpt lat="48.53257" lon="2.0026">
        <ele>90.75</ele>
        <time>2017-11-26T08:04:40Z</time>
      </trkpt>
      <trkpt lat="48.53255" lon="2.00275">
        <ele>90.82</ele>
        <time>2017-11-26T08:04:42Z</time>
      </trkpt>
      <trkpt lat="48.53254" lon="2.00287">
        <ele>90.75</ele>
        <time>2017-11-26T08:04:44Z</time>
      </trkpt>
      <trkpt lat="48.53253" lon="2.003">
        <ele>90.7</ele>
        <time>2017-11-26T08:04:46Z</time>
      </trkpt>
      <trkpt lat="48.53251" lon="2.00308">
        <ele>90.77</ele>
        <time>2017-11-26T08:04:48Z</time>
      </trkpt>
      <trkpt lat="48.53248" lon="2.00318">
        <ele>90.44</ele>
        <time>2017-11-26T08:04:50Z</time>
      </trkpt>
      <trkpt lat="48.53247" lon="2.0033">
        <ele>89.89</ele>
        <time>2017-11-26T08:04:52Z</time>
      </trkpt>
      <trkpt lat="48.53245" lon="2.00346">
        <ele>88.72</ele>
        <time>2017-11-26T08:04:54Z</time>
      </trkpt>
      <trkpt lat="48.53242" lon="2.00364">
        <ele>87.36</ele>
        <time>2017-11-26T08:04:56Z</time>
      </trkpt>
      <trkpt lat="48.53238" lon="2.00374">
        <ele>86.9</ele>
        <time>2017-11-26T08:04:58Z</time>
      </trkpt>
      <trkpt lat="48.53234" lon="2.00388">
        <ele>86.44</ele>
        <time>2017-11-26T08:05:00Z</time>
      </trkpt>
      <trkpt lat="48.53229" lon="2.00394">
        <ele>86.25</ele>
        <time>2017-11-26T08:05:02Z</time>
      </trkpt>
      <trkpt lat="48.53225" lon="2.00405">
        <ele>86.08</ele>
        <time>2017-11-26T08:05:04Z</time>
      </trkpt>
      <trkpt lat="48.53221" lon="2.00431">
        <ele>85.94</ele>
        <time>2017-11-26T08:05:06Z</time>
      </trkpt>
      <trkpt lat="48.53219" lon="2.00449">
        <ele>85.99</ele>
        <time>2017-11-26T08:05:08Z</time>
      </trkpt>
      <trkpt lat="48.53221" lon="2.00481">
        <ele>86.9</ele>
        <time>2017-11-26T08:05:10Z</time>
      </trkpt>
      <trkpt lat="48.53217" lon="2.00496">
        <ele>86.61</ele>
        <time>2017-11-26T08:05:12Z</time>
      </trkpt>
      <trkpt lat="48.53214" lon="2.00514">
        <ele>86.4</ele>
        <time>2017-11-26T08:05:14Z</time>
      </trkpt>
      <trkpt lat="48.53211" lon="2.00525">
        <ele>86.16</ele>
        <time>2017-11-26T08:05:16Z</time>
      </trkpt>
      <trkpt lat="48.53206" lon="2.00541">
        <ele>85.86</ele>
        <time>2017-11-26T08:05:18Z</time>
      </trkpt>
      <trkpt lat="48.53202" lon="2.00553">
        <ele>85.51</ele>
        <time>2017-11-26T08:05:20Z</time>
      </trkpt>
      <trkpt lat="48.53198" lon="2.00571">
        <ele>85.23</ele>
        <time>2017-11-26T08:05:22Z</time>
      </trkpt>
      <trkpt lat="48.53193" lon="2.0059">
        <ele>85.13</ele>
        <time>2017-11-26T08:05:24Z</time>
      </trkpt>
      <trkpt lat="48.53186" lon="2.00605">
        <ele>85.12</ele>
        <time>2017-11-26T08:05:26Z</time>
      </trkpt>
      <trkpt lat="48.53178" lon="2.00619">
        <ele>84.81</ele>
        <time>2017-11-26T08:05:28Z</time>
      </trkpt>
      <trkpt lat="48.53172" lon="2.00632">
        <ele>84.41</ele>
        <time>2017-11-26T08:05:30Z</time>
      </trkpt>
      <trkpt lat="48.53167" lon="2.00643">
        <ele>84.31</ele>
        <time>2017-11-26T08:05:32Z</time>
      </trkpt>
      <trkpt lat="48.53158" lon="2.00658">
        <ele>85.55</ele>
        <time>2017-11-26T08:05:34Z</time>
      </trkpt>
      <trkpt lat="48.53154" lon="2.00667">
        <ele>86.44</ele>
        <time>2017-11-26T08:05:36Z</time>
      </trkpt>
      <trkpt lat="48.53151" lon="2.00673">
        <ele>86.56</ele>
        <time>2017-11-26T08:05:38Z</time>
      </trkpt>
      <trkpt lat="48.53146" lon="2.00683">
        <ele>86.75</ele>
        <time>2017-11-26T08:05:40Z</time>
      </trkpt>
      <trkpt lat="48.5314" lon="2.00688">
        <ele>86.97</ele>
        <time>2017-11-26T08:05:44Z</time>
      </trkpt>
      <trkpt lat="48.53135" lon="2.00691">
        <ele>86.46</ele>
        <time>2017-11-26T08:05:46Z</time>
      </trkpt>
      <trkpt lat="48.53131" lon="2.00695">
        <ele>85.96</ele>
        <time>2017-11-26T08:05:48Z</time>
      </trkpt>
      <trkpt lat="48.53127" lon="2.00699">
        <ele>86.03</ele>
        <time>2017-11-26T08:05:50Z</time>
      </trkpt>
      <trkpt lat="48.53122" lon="2.00708">
        <ele>86.99</ele>
        <time>2017-11-26T08:05:54Z</time>
      </trkpt>
      <trkpt lat="48.53122" lon="2.00716">
        <ele>88.28</ele>
        <time>2017-11-26T08:05:56Z</time>
      </trkpt>
      <trkpt lat="48.53119" lon="2.00721">
        <ele>89.09</ele>
        <time>2017-11-26T08:05:58Z</time>
      </trkpt>
      <trkpt lat="48.53112" lon="2.00731">
        <ele>91.51</ele>
        <time>2017-11-26T08:06:02Z</time>
      </trkpt>
      <trkpt lat="48.53104" lon="2.00732">
        <ele>91.69</ele>
        <time>2017-11-26T08:06:04Z</time>
      </trkpt>
      <trkpt lat="48.53097" lon="2.00731">
        <ele>91.16</ele>
        <time>2017-11-26T08:06:06Z</time>
      </trkpt>
      <trkpt lat="48.53084" lon="2.00743">
        <ele>94.08</ele>
        <time>2017-11-26T08:06:10Z</time>
      </trkpt>
      <trkpt lat="48.53077" lon="2.00745">
        <ele>94.65</ele>
        <time>2017-11-26T08:06:12Z</time>
      </trkpt>
      <trkpt lat="48.53067" lon="2.00757">
        <ele>96.4</ele>
        <time>2017-11-26T08:06:14Z</time>
      </trkpt>
      <trkpt lat="48.53057" lon="2.00766">
        <ele>96.12</ele>
        <time>2017-11-26T08:06:16Z</time>
      </trkpt>
      <trkpt lat="48.53052" lon="2.00776">
        <ele>95.76</ele>
        <time>2017-11-26T08:06:18Z</time>
      </trkpt>
      <trkpt lat="48.53049" lon="2.00783">
        <ele>96.15</ele>
        <time>2017-11-26T08:06:22Z</time>
      </trkpt>
      <trkpt lat="48.53044" lon="2.00784">
        <ele>96.01</ele>
        <time>2017-11-26T08:06:24Z</time>
      </trkpt>
      <trkpt lat="48.53039" lon="2.00787">
        <ele>96.25</ele>
        <time>2017-11-26T08:06:26Z</time>
      </trkpt>
      <trkpt lat="48.53032" lon="2.00785">
        <ele>95.5</ele>
        <time>2017-11-26T08:06:30Z</time>
      </trkpt>
      <trkpt lat="48.53027" lon="2.00784">
        <ele>95.12</ele>
        <time>2017-11-26T08:06:34Z</time>
      </trkpt>
      <trkpt lat="48.53022" lon="2.00778">
        <ele>94.61</ele>
        <time>2017-11-26T08:06:38Z</time>
      </trkpt>
      <trkpt lat="48.53014" lon="2.00776">
        <ele>95.36</ele>
        <time>2017-11-26T08:06:42Z</time>
      </trkpt>
      <trkpt lat="48.53009" lon="2.0078">
        <ele>96.29</ele>
        <time>2017-11-26T08:06:46Z</time>
      </trkpt>
      <trkpt lat="48.53006" lon="2.00786">
        <ele>97.1</ele>
        <time>2017-11-26T08:06:50Z</time>
      </trkpt>
      <trkpt lat="48.53007" lon="2.00794">
        <ele>97.84</ele>
        <time>2017-11-26T08:06:52Z</time>
      </trkpt>
      <trkpt lat="48.53006" lon="2.00803">
        <ele>98.76</ele>
        <time>2017-11-26T08:06:54Z</time>
      </trkpt>
      <trkpt lat="48.53001" lon="2.00813">
        <ele>99.29</ele>
        <time>2017-11-26T08:06:56Z</time>
      </trkpt>
      <trkpt lat="48.52997" lon="2.00825">
        <ele>98.7</ele>
        <time>2017-11-26T08:06:58Z</time>
      </trkpt>
      <trkpt lat="48.5299" lon="2.00837">
        <ele>96.78</ele>
        <time>2017-11-26T08:07:00Z</time>
      </trkpt>
      <trkpt lat="48.52983" lon="2.0085">
        <ele>95.09</ele>
        <time>2017-11-26T08:07:02Z</time>
      </trkpt>
      <trkpt lat="48.52974" lon="2.00858">
        <ele>93.26</ele>
        <time>2017-11-26T08:07:04Z</time>
      </trkpt>
      <trkpt lat="48.52968" lon="2.00871">
        <ele>93.18</ele>
        <time>2017-11-26T08:07:06Z</time>
      </trkpt>
      <trkpt lat="48.52965" lon="2.00887">
        <ele>93.66</ele>
        <time>2017-11-26T08:07:08Z</time>
      </trkpt>
      <trkpt lat="48.52955" lon="2.00899">
        <ele>93.74</ele>
        <time>2017-11-26T08:07:10Z</time>
      </trkpt>
      <trkpt lat="48.5295" lon="2.00912">
        <ele>94.05</ele>
        <time>2017-11-26T08:07:12Z</time>
      </trkpt>
      <trkpt lat="48.52948" lon="2.00924">
        <ele>94.63</ele>
        <time>2017-11-26T08:07:14Z</time>
      </trkpt>
      <trkpt lat="48.52935" lon="2.00924">
        <ele>95.23</ele>
        <time>2017-11-26T08:07:16Z</time>
      </trkpt>
      <trkpt lat="48.52928" lon="2.00924">
        <ele>95.68</ele>
        <time>2017-11-26T08:07:18Z</time>
      </trkpt>
      <trkpt lat="48.52923" lon="2.00914">
        <ele>95.48</ele>
        <time>2017-11-26T08:07:20Z</time>
      </trkpt>
      <trkpt lat="48.52916" lon="2.00906">
        <ele>95.59</ele>
        <time>2017-11-26T08:07:22Z</time>
      </trkpt>
      <trkpt lat="48.5291" lon="2.0089">
        <ele>95.24</ele>
        <time>2017-11-26T08:07:24Z</time>
      </trkpt>
      <trkpt lat="48.52902" lon="2.00881">
        <ele>95.52</ele>
        <time>2017-11-26T08:07:26Z</time>
      </trkpt>
      <trkpt lat="48.52898" lon="2.00871">
        <ele>95.68</ele>
        <time>2017-11-26T08:07:28Z</time>
      </trkpt>
      <trkpt lat="48.52893" lon="2.00861">
        <ele>95.86</ele>
        <time>2017-11-26T08:07:30Z</time>
      </trkpt>
      <trkpt lat="48.52887" lon="2.0085">
        <ele>96</ele>
        <time>2017-11-26T08:07:32Z</time>
      </trkpt>
      <trkpt lat="48.52878" lon="2.00837">
        <ele>96</ele>
        <time>2017-11-26T08:07:34Z</time>
      </trkpt>
      <trkpt lat="48.5287" lon="2.00824">
        <ele>95.03</ele>
        <time>2017-11-26T08:07:36Z</time>
      </trkpt>
      <trkpt lat="48.52861" lon="2.00814">
        <ele>93.85</ele>
        <time>2017-11-26T08:07:38Z</time>
      </trkpt>
      <trkpt lat="48.52849" lon="2.00804">
        <ele>92.05</ele>
        <time>2017-11-26T08:07:40Z</time>
      </trkpt>
      <trkpt lat="48.5284" lon="2.00797">
        <ele>91.5</ele>
        <time>2017-11-26T08:07:42Z</time>
      </trkpt>
      <trkpt lat="48.52832" lon="2.00788">
        <ele>91.7</ele>
        <time>2017-11-26T08:07:44Z</time>
      </trkpt>
      <trkpt lat="48.52792" lon="2.00662">
        <ele>99.82</ele>
        <time>2017-11-26T08:08:14Z</time>
      </trkpt>
      <trkpt lat="48.52803" lon="2.00644">
        <ele>98.53</ele>
        <time>2017-11-26T08:08:18Z</time>
      </trkpt>
      <trkpt lat="48.52809" lon="2.00632">
        <ele>97.18</ele>
        <time>2017-11-26T08:08:20Z</time>
      </trkpt>
      <trkpt lat="48.52814" lon="2.00623">
        <ele>96.12</ele>
        <time>2017-11-26T08:08:22Z</time>
      </trkpt>
      <trkpt lat="48.52825" lon="2.00604">
        <ele>94.34</ele>
        <time>2017-11-26T08:08:26Z</time>
      </trkpt>
      <trkpt lat="48.52832" lon="2.00591">
        <ele>93.4</ele>
        <time>2017-11-26T08:08:28Z</time>
      </trkpt>
      <trkpt lat="48.52836" lon="2.00581">
        <ele>93.36</ele>
        <time>2017-11-26T08:08:30Z</time>
      </trkpt>
      <trkpt lat="48.52835" lon="2.00569">
        <ele>93.58</ele>
        <time>2017-11-26T08:08:32Z</time>
      </trkpt>
      <trkpt lat="48.5283" lon="2.00559">
        <ele>93.98</ele>
        <time>2017-11-26T08:08:34Z</time>
      </trkpt>
      <trkpt lat="48.52823" lon="2.00555">
        <ele>94.35</ele>
        <time>2017-11-26T08:08:35Z</time>
      </trkpt>
      <trkpt lat="48.52809" lon="2.00543">
        <ele>94.42</ele>
        <time>2017-11-26T08:08:40Z</time>
      </trkpt>
      <trkpt lat="48.52803" lon="2.00537">
        <ele>94.55</ele>
        <time>2017-11-26T08:08:42Z</time>
      </trkpt>
      <trkpt lat="48.52796" lon="2.00532">
        <ele>94.84</ele>
        <time>2017-11-26T08:08:44Z</time>
      </trkpt>
      <trkpt lat="48.5279" lon="2.00528">
        <ele>95.17</ele>
        <time>2017-11-26T08:08:46Z</time>
      </trkpt>
      <trkpt lat="48.52778" lon="2.00517">
        <ele>97.48</ele>
        <time>2017-11-26T08:08:50Z</time>
      </trkpt>
      <trkpt lat="48.52772" lon="2.00512">
        <ele>98.36</ele>
        <time>2017-11-26T08:08:52Z</time>
      </trkpt>
      <trkpt lat="48.52766" lon="2.00507">
        <ele>99.1</ele>
        <time>2017-11-26T08:08:54Z</time>
      </trkpt>
      <trkpt lat="48.5276" lon="2.00501">
        <ele>99.83</ele>
        <time>2017-11-26T08:08:56Z</time>
      </trkpt>
      <trkpt lat="48.52755" lon="2.00496">
        <ele>100.16</ele>
        <time>2017-11-26T08:08:58Z</time>
      </trkpt>
      <trkpt lat="48.52745" lon="2.00484">
        <ele>100.82</ele>
        <time>2017-11-26T08:09:02Z</time>
      </trkpt>
      <trkpt lat="48.52739" lon="2.0048">
        <ele>101.39</ele>
        <time>2017-11-26T08:09:04Z</time>
      </trkpt>
      <trkpt lat="48.52734" lon="2.00477">
        <ele>102.13</ele>
        <time>2017-11-26T08:09:06Z</time>
      </trkpt>
      <trkpt lat="48.52728" lon="2.00474">
        <ele>103.02</ele>
        <time>2017-11-26T08:09:08Z</time>
      </trkpt>
      <trkpt lat="48.52723" lon="2.0047">
        <ele>103.99</ele>
        <time>2017-11-26T08:09:10Z</time>
      </trkpt>
      <trkpt lat="48.52716" lon="2.00464">
        <ele>103.86</ele>
        <time>2017-11-26T08:09:14Z</time>
      </trkpt>
      <trkpt lat="48.52708" lon="2.00458">
        <ele>103.26</ele>
        <time>2017-11-26T08:09:18Z</time>
      </trkpt>
      <trkpt lat="48.52704" lon="2.00455">
        <ele>102.84</ele>
        <time>2017-11-26T08:09:20Z</time>
      </trkpt>
      <trkpt lat="48.52699" lon="2.00452">
        <ele>102.39</ele>
        <time>2017-11-26T08:09:22Z</time>
      </trkpt>
      <trkpt lat="48.5269" lon="2.00445">
        <ele>101.82</ele>
        <time>2017-11-26T08:09:26Z</time>
      </trkpt>
      <trkpt lat="48.52686" lon="2.00441">
        <ele>101.93</ele>
        <time>2017-11-26T08:09:28Z</time>
      </trkpt>
      <trkpt lat="48.52679" lon="2.00435">
        <ele>102.35</ele>
        <time>2017-11-26T08:09:32Z</time>
      </trkpt>
      <trkpt lat="48.52667" lon="2.00427">
        <ele>102.86</ele>
        <time>2017-11-26T08:09:38Z</time>
      </trkpt>
      <trkpt lat="48.52663" lon="2.00424">
        <ele>102.85</ele>
        <time>2017-11-26T08:09:40Z</time>
      </trkpt>
      <trkpt lat="48.52659" lon="2.00421">
        <ele>102.76</ele>
        <time>2017-11-26T08:09:42Z</time>
      </trkpt>
      <trkpt lat="48.52655" lon="2.00418">
        <ele>102.67</ele>
        <time>2017-11-26T08:09:44Z</time>
      </trkpt>
      <trkpt lat="48.52642" lon="2.00418">
        <ele>101.29</ele>
        <time>2017-11-26T08:09:50Z</time>
      </trkpt>
      <trkpt lat="48.52635" lon="2.00412">
        <ele>101.73</ele>
        <time>2017-11-26T08:09:54Z</time>
      </trkpt>
      <trkpt lat="48.52628" lon="2.00405">
        <ele>102.87</ele>
        <time>2017-11-26T08:09:58Z</time>
      </trkpt>
      <trkpt lat="48.5262" lon="2.00397">
        <ele>103.97</ele>
        <time>2017-11-26T08:10:02Z</time>
      </trkpt>
      <trkpt lat="48.52613" lon="2.0039">
        <ele>104.88</ele>
        <time>2017-11-26T08:10:06Z</time>
      </trkpt>
      <trkpt lat="48.52605" lon="2.00382">
        <ele>105.88</ele>
        <time>2017-11-26T08:10:10Z</time>
      </trkpt>
      <trkpt lat="48.52596" lon="2.00374">
        <ele>106.91</ele>
        <time>2017-11-26T08:10:14Z</time>
      </trkpt>
      <trkpt lat="48.52591" lon="2.0037">
        <ele>107.32</ele>
        <time>2017-11-26T08:10:16Z</time>
      </trkpt>
      <trkpt lat="48.52587" lon="2.00366">
        <ele>107.68</ele>
        <time>2017-11-26T08:10:18Z</time>
      </trkpt>
      <trkpt lat="48.52583" lon="2.00362">
        <ele>107.93</ele>
        <time>2017-11-26T08:10:20Z</time>
      </trkpt>
      <trkpt lat="48.52578" lon="2.00359">
        <ele>107.71</ele>
        <time>2017-11-26T08:10:22Z</time>
      </trkpt>
      <trkpt lat="48.52568" lon="2.00353">
        <ele>107.22</ele>
        <time>2017-11-26T08:10:26Z</time>
      </trkpt>
      <trkpt lat="48.52564" lon="2.00349">
        <ele>107.02</ele>
        <time>2017-11-26T08:10:28Z</time>
      </trkpt>
      <trkpt lat="48.52559" lon="2.00345">
        <ele>106.81</ele>
        <time>2017-11-26T08:10:30Z</time>
      </trkpt>
      <trkpt lat="48.52554" lon="2.00342">
        <ele>106.69</ele>
        <time>2017-11-26T08:10:32Z</time>
      </trkpt>
      <trkpt lat="48.5255" lon="2.00338">
        <ele>106.74</ele>
        <time>2017-11-26T08:10:34Z</time>
      </trkpt>
      <trkpt lat="48.52542" lon="2.00333">
        <ele>106.52</ele>
        <time>2017-11-26T08:10:38Z</time>
      </trkpt>
      <trkpt lat="48.52535" lon="2.00341">
        <ele>106.59</ele>
        <time>2017-11-26T08:10:42Z</time>
      </trkpt>
      <trkpt lat="48.52531" lon="2.00347">
        <ele>106.91</ele>
        <time>2017-11-26T08:10:44Z</time>
      </trkpt>
      <trkpt lat="48.52528" lon="2.00353">
        <ele>107.38</ele>
        <time>2017-11-26T08:10:46Z</time>
      </trkpt>
      <trkpt lat="48.52525" lon="2.00359">
        <ele>107.75</ele>
        <time>2017-11-26T08:10:47Z</time>
      </trkpt>
      <trkpt lat="48.52522" lon="2.00365">
        <ele>107.82</ele>
        <time>2017-11-26T08:10:50Z</time>
      </trkpt>
      <trkpt lat="48.52519" lon="2.0037">
        <ele>107.99</ele>
        <time>2017-11-26T08:10:52Z</time>
      </trkpt>
      <trkpt lat="48.52516" lon="2.00376">
        <ele>108.43</ele>
        <time>2017-11-26T08:10:54Z</time>
      </trkpt>
      <trkpt lat="48.52513" lon="2.00382">
        <ele>109.16</ele>
        <time>2017-11-26T08:10:56Z</time>
      </trkpt>
      <trkpt lat="48.5251" lon="2.00388">
        <ele>110.18</ele>
        <time>2017-11-26T08:10:58Z</time>
      </trkpt>
      <trkpt lat="48.52506" lon="2.00394">
        <ele>111.75</ele>
        <time>2017-11-26T08:10:59Z</time>
      </trkpt>
      <trkpt lat="48.52503" lon="2.00401">
        <ele>113.26</ele>
        <time>2017-11-26T08:11:02Z</time>
      </trkpt>
      <trkpt lat="48.525" lon="2.00407">
        <ele>114.58</ele>
        <time>2017-11-26T08:11:04Z</time>
      </trkpt>
      <trkpt lat="48.52496" lon="2.00412">
        <ele>115.6</ele>
        <time>2017-11-26T08:11:06Z</time>
      </trkpt>
      <trkpt lat="48.52492" lon="2.00415">
        <ele>116.4</ele>
        <time>2017-11-26T08:11:08Z</time>
      </trkpt>
      <trkpt lat="48.52479" lon="2.00408">
        <ele>116.19</ele>
        <time>2017-11-26T08:11:14Z</time>
      </trkpt>
      <trkpt lat="48.52476" lon="2.00403">
        <ele>115.84</ele>
        <time>2017-11-26T08:11:16Z</time>
      </trkpt>
      <trkpt lat="48.52473" lon="2.00398">
        <ele>115.32</ele>
        <time>2017-11-26T08:11:18Z</time>
      </trkpt>
      <trkpt lat="48.52468" lon="2.00387">
        <ele>113.89</ele>
        <time>2017-11-26T08:11:22Z</time>
      </trkpt>
      <trkpt lat="48.52463" lon="2.00377">
        <ele>113.03</ele>
        <time>2017-11-26T08:11:26Z</time>
      </trkpt>
      <trkpt lat="48.52457" lon="2.00368">
        <ele>112.09</ele>
        <time>2017-11-26T08:11:30Z</time>
      </trkpt>
      <trkpt lat="48.52454" lon="2.00363">
        <ele>111.47</ele>
        <time>2017-11-26T08:11:32Z</time>
      </trkpt>
      <trkpt lat="48.52451" lon="2.00356">
        <ele>111.1</ele>
        <time>2017-11-26T08:11:34Z</time>
      </trkpt>
      <trkpt lat="48.5245" lon="2.00339">
        <ele>110.72</ele>
        <time>2017-11-26T08:11:38Z</time>
      </trkpt>
      <trkpt lat="48.52451" lon="2.00331">
        <ele>110.54</ele>
        <time>2017-11-26T08:11:40Z</time>
      </trkpt>
      <trkpt lat="48.52451" lon="2.00322">
        <ele>110.5</ele>
        <time>2017-11-26T08:11:42Z</time>
      </trkpt>
      <trkpt lat="48.52451" lon="2.00312">
        <ele>110.55</ele>
        <time>2017-11-26T08:11:44Z</time>
      </trkpt>
      <trkpt lat="48.52448" lon="2.003">
        <ele>110.79</ele>
        <time>2017-11-26T08:11:46Z</time>
      </trkpt>
      <trkpt lat="48.52436" lon="2.00281">
        <ele>110.68</ele>
        <time>2017-11-26T08:11:50Z</time>
      </trkpt>
      <trkpt lat="48.5243" lon="2.00275">
        <ele>110.39</ele>
        <time>2017-11-26T08:11:52Z</time>
      </trkpt>
      <trkpt lat="48.52422" lon="2.00273">
        <ele>110.04</ele>
        <time>2017-11-26T08:11:54Z</time>
      </trkpt>
      <trkpt lat="48.52414" lon="2.00276">
        <ele>110.3</ele>
        <time>2017-11-26T08:11:56Z</time>
      </trkpt>
      <trkpt lat="48.52407" lon="2.00281">
        <ele>111.31</ele>
        <time>2017-11-26T08:11:58Z</time>
      </trkpt>
      <trkpt lat="48.52397" lon="2.00303">
        <ele>111.92</ele>
        <time>2017-11-26T08:12:02Z</time>
      </trkpt>
      <trkpt lat="48.52395" lon="2.00315">
        <ele>111.82</ele>
        <time>2017-11-26T08:12:04Z</time>
      </trkpt>
      <trkpt lat="48.52396" lon="2.00329">
        <ele>111.41</ele>
        <time>2017-11-26T08:12:06Z</time>
      </trkpt>
      <trkpt lat="48.52397" lon="2.00341">
        <ele>111.04</ele>
        <time>2017-11-26T08:12:08Z</time>
      </trkpt>
      <trkpt lat="48.52396" lon="2.00351">
        <ele>110.92</ele>
        <time>2017-11-26T08:12:10Z</time>
      </trkpt>
      <trkpt lat="48.52385" lon="2.00354">
        <ele>111.96</ele>
        <time>2017-11-26T08:12:14Z</time>
      </trkpt>
      <trkpt lat="48.52381" lon="2.00354">
        <ele>112.82</ele>
        <time>2017-11-26T08:12:16Z</time>
      </trkpt>
      <trkpt lat="48.52374" lon="2.00354">
        <ele>113.97</ele>
        <time>2017-11-26T08:12:20Z</time>
      </trkpt>
      <trkpt lat="48.52367" lon="2.0035">
        <ele>115.66</ele>
        <time>2017-11-26T08:12:23Z</time>
      </trkpt>
      <trkpt lat="48.52362" lon="2.00347">
        <ele>116.85</ele>
        <time>2017-11-26T08:12:26Z</time>
      </trkpt>
      <trkpt lat="48.52357" lon="2.00344">
        <ele>117.74</ele>
        <time>2017-11-26T08:12:28Z</time>
      </trkpt>
      <trkpt lat="48.5235" lon="2.00341">
        <ele>118.75</ele>
        <time>2017-11-26T08:12:30Z</time>
      </trkpt>
      <trkpt lat="48.52345" lon="2.00338">
        <ele>119.79</ele>
        <time>2017-11-26T08:12:32Z</time>
      </trkpt>
      <trkpt lat="48.52338" lon="2.00335">
        <ele>121.22</ele>
        <time>2017-11-26T08:12:34Z</time>
      </trkpt>
      <trkpt lat="48.52329" lon="2.0033">
        <ele>122.96</ele>
        <time>2017-11-26T08:12:35Z</time>
      </trkpt>
      <trkpt lat="48.52323" lon="2.00327">
        <ele>124.06</ele>
        <time>2017-11-26T08:12:38Z</time>
      </trkpt>
      <trkpt lat="48.52317" lon="2.00324">
        <ele>124.99</ele>
        <time>2017-11-26T08:12:40Z</time>
      </trkpt>
      <trkpt lat="48.52312" lon="2.00322">
        <ele>125.69</ele>
        <time>2017-11-26T08:12:42Z</time>
      </trkpt>
      <trkpt lat="48.52307" lon="2.00321">
        <ele>126.26</ele>
        <time>2017-11-26T08:12:44Z</time>
      </trkpt>
      <trkpt lat="48.52157" lon="2.00264">
        <ele>109.91</ele>
        <time>2017-11-26T08:13:18Z</time>
      </trkpt>
      <trkpt lat="48.52135" lon="2.00256">
        <ele>107.87</ele>
        <time>2017-11-26T08:13:21Z</time>
      </trkpt>
      <trkpt lat="48.52121" lon="2.00249">
        <ele>107.36</ele>
        <time>2017-11-26T08:13:23Z</time>
      </trkpt>
      <trkpt lat="48.52111" lon="2.00239">
        <ele>107</ele>
        <time>2017-11-26T08:13:25Z</time>
      </trkpt>
      <trkpt lat="48.52098" lon="2.00234">
        <ele>107.47</ele>
        <time>2017-11-26T08:13:27Z</time>
      </trkpt>
      <trkpt lat="48.52087" lon="2.00226">
        <ele>107.88</ele>
        <time>2017-11-26T08:13:29Z</time>
      </trkpt>
      <trkpt lat="48.52075" lon="2.00219">
        <ele>108.49</ele>
        <time>2017-11-26T08:13:31Z</time>
      </trkpt>
      <trkpt lat="48.52065" lon="2.00212">
        <ele>108.85</ele>
        <time>2017-11-26T08:13:33Z</time>
      </trkpt>
      <trkpt lat="48.52055" lon="2.00206">
        <ele>108.71</ele>
        <time>2017-11-26T08:13:35Z</time>
      </trkpt>
      <trkpt lat="48.52046" lon="2.00202">
        <ele>107.02</ele>
        <time>2017-11-26T08:13:37Z</time>
      </trkpt>
      <trkpt lat="48.52037" lon="2.00204">
        <ele>105.84</ele>
        <time>2017-11-26T08:13:39Z</time>
      </trkpt>
      <trkpt lat="48.52031" lon="2.00213">
        <ele>105.27</ele>
        <time>2017-11-26T08:13:41Z</time>
      </trkpt>
      <trkpt lat="48.52028" lon="2.00218">
        <ele>104.95</ele>
        <time>2017-11-26T08:13:43Z</time>
      </trkpt>
      <trkpt lat="48.52024" lon="2.0023">
        <ele>104.46</ele>
        <time>2017-11-26T08:13:45Z</time>
      </trkpt>
      <trkpt lat="48.52017" lon="2.00243">
        <ele>103.95</ele>
        <time>2017-11-26T08:13:47Z</time>
      </trkpt>
      <trkpt lat="48.52009" lon="2.00253">
        <ele>104.21</ele>
        <time>2017-11-26T08:13:49Z</time>
      </trkpt>
      <trkpt lat="48.52004" lon="2.00263">
        <ele>104.99</ele>
        <time>2017-11-26T08:13:51Z</time>
      </trkpt>
      <trkpt lat="48.52" lon="2.00271">
        <ele>105.45</ele>
        <time>2017-11-26T08:13:53Z</time>
      </trkpt>
      <trkpt lat="48.51996" lon="2.00281">
        <ele>105.98</ele>
        <time>2017-11-26T08:13:55Z</time>
      </trkpt>
      <trkpt lat="48.51992" lon="2.00297">
        <ele>108.47</ele>
        <time>2017-11-26T08:13:57Z</time>
      </trkpt>
      <trkpt lat="48.51984" lon="2.00304">
        <ele>107.79</ele>
        <time>2017-11-26T08:14:01Z</time>
      </trkpt>
      <trkpt lat="48.51973" lon="2.00307">
        <ele>105.39</ele>
        <time>2017-11-26T08:14:03Z</time>
      </trkpt>
      <trkpt lat="48.51969" lon="2.00295">
        <ele>103.62</ele>
        <time>2017-11-26T08:14:05Z</time>
      </trkpt>
      <trkpt lat="48.51962" lon="2.00288">
        <ele>102.48</ele>
        <time>2017-11-26T08:14:07Z</time>
      </trkpt>
      <trkpt lat="48.51956" lon="2.00278">
        <ele>101.41</ele>
        <time>2017-11-26T08:14:09Z</time>
      </trkpt>
      <trkpt lat="48.51947" lon="2.00267">
        <ele>101.1</ele>
        <time>2017-11-26T08:14:11Z</time>
      </trkpt>
      <trkpt lat="48.51939" lon="2.00256">
        <ele>101.33</ele>
        <time>2017-11-26T08:14:13Z</time>
      </trkpt>
      <trkpt lat="48.51931" lon="2.00245">
        <ele>102.08</ele>
        <time>2017-11-26T08:14:15Z</time>
      </trkpt>
      <trkpt lat="48.51924" lon="2.00233">
        <ele>102.34</ele>
        <time>2017-11-26T08:14:17Z</time>
      </trkpt>
      <trkpt lat="48.51915" lon="2.0022">
        <ele>101.93</ele>
        <time>2017-11-26T08:14:19Z</time>
      </trkpt>
      <trkpt lat="48.51907" lon="2.00208">
        <ele>101.32</ele>
        <time>2017-11-26T08:14:21Z</time>
      </trkpt>
      <trkpt lat="48.51897" lon="2.00199">
        <ele>100.56</ele>
        <time>2017-11-26T08:14:23Z</time>
      </trkpt>
      <trkpt lat="48.5189" lon="2.00189">
        <ele>99.66</ele>
        <time>2017-11-26T08:14:25Z</time>
      </trkpt>
      <trkpt lat="48.51883" lon="2.00181">
        <ele>98.55</ele>
        <time>2017-11-26T08:14:27Z</time>
      </trkpt>
      <trkpt lat="48.51876" lon="2.0017">
        <ele>97.65</ele>
        <time>2017-11-26T08:14:29Z</time>
      </trkpt>
      <trkpt lat="48.51868" lon="2.0016">
        <ele>96.88</ele>
        <time>2017-11-26T08:14:31Z</time>
      </trkpt>
      <trkpt lat="48.51863" lon="2.00151">
        <ele>96.41</ele>
        <time>2017-11-26T08:14:33Z</time>
      </trkpt>
      <trkpt lat="48.51857" lon="2.0014">
        <ele>96.3</ele>
        <time>2017-11-26T08:14:35Z</time>
      </trkpt>
      <trkpt lat="48.51853" lon="2.0013">
        <ele>96.79</ele>
        <time>2017-11-26T08:14:37Z</time>
      </trkpt>
      <trkpt lat="48.51843" lon="2.00122">
        <ele>97.51</ele>
        <time>2017-11-26T08:14:39Z</time>
      </trkpt>
      <trkpt lat="48.51835" lon="2.00112">
        <ele>97.94</ele>
        <time>2017-11-26T08:14:41Z</time>
      </trkpt>
      <trkpt lat="48.51826" lon="2.00107">
        <ele>97.89</ele>
        <time>2017-11-26T08:14:43Z</time>
      </trkpt>
      <trkpt lat="48.51815" lon="2.00097">
        <ele>97.82</ele>
        <time>2017-11-26T08:14:45Z</time>
      </trkpt>
      <trkpt lat="48.51808" lon="2.00086">
        <ele>97.94</ele>
        <time>2017-11-26T08:14:47Z</time>
      </trkpt>
      <trkpt lat="48.51797" lon="2.00079">
        <ele>97.73</ele>
        <time>2017-11-26T08:14:49Z</time>
      </trkpt>
      <trkpt lat="48.51787" lon="2.00073">
        <ele>97.59</ele>
        <time>2017-11-26T08:14:51Z</time>
      </trkpt>
      <trkpt lat="48.5178" lon="2.00065">
        <ele>97.68</ele>
        <time>2017-11-26T08:14:53Z</time>
      </trkpt>
      <trkpt lat="48.51771" lon="2.0006">
        <ele>98.25</ele>
        <time>2017-11-26T08:14:55Z</time>
      </trkpt>
      <trkpt lat="48.51762" lon="2.00055">
        <ele>99.11</ele>
        <time>2017-11-26T08:14:57Z</time>
      </trkpt>
      <trkpt lat="48.51754" lon="2.00049">
        <ele>99.72</ele>
        <time>2017-11-26T08:14:59Z</time>
      </trkpt>
      <trkpt lat="48.51747" lon="2.00043">
        <ele>100.09</ele>
        <time>2017-11-26T08:15:01Z</time>
      </trkpt>
      <trkpt lat="48.51741" lon="2.00037">
        <ele>100.43</ele>
        <time>2017-11-26T08:15:03Z</time>
      </trkpt>
      <trkpt lat="48.51734" lon="2.00032">
        <ele>100.98</ele>
        <time>2017-11-26T08:15:05Z</time>
      </trkpt>
      <trkpt lat="48.51726" lon="2.00028">
        <ele>101.7</ele>
        <time>2017-11-26T08:15:07Z</time>
      </trkpt>
      <trkpt lat="48.51717" lon="2.00022">
        <ele>102.7</ele>
        <time>2017-11-26T08:15:09Z</time>
      </trkpt>
      <trkpt lat="48.51711" lon="2.00018">
        <ele>102.97</ele>
        <time>2017-11-26T08:15:11Z</time>
      </trkpt>
      <trkpt lat="48.51702" lon="2.00011">
        <ele>103.11</ele>
        <time>2017-11-26T08:15:13Z</time>
      </trkpt>
      <trkpt lat="48.51695" lon="2.00005">
        <ele>102.91</ele>
        <time>2017-11-26T08:15:15Z</time>
      </trkpt>
      <trkpt lat="48.51689" lon="2.00001">
        <ele>102.75</ele>
        <time>2017-11-26T08:15:17Z</time>
      </trkpt>
      <trkpt lat="48.51682" lon="1.99994">
        <ele>103.58</ele>
        <time>2017-11-26T08:15:19Z</time>
      </trkpt>
      <trkpt lat="48.51676" lon="1.9999">
        <ele>103.91</ele>
        <time>2017-11-26T08:15:21Z</time>
      </trkpt>
      <trkpt lat="48.5167" lon="1.99983">
        <ele>104.31</ele>
        <time>2017-11-26T08:15:23Z</time>
      </trkpt>
      <trkpt lat="48.51664" lon="1.99978">
        <ele>104.66</ele>
        <time>2017-11-26T08:15:25Z</time>
      </trkpt>
      <trkpt lat="48.51659" lon="1.99974">
        <ele>104.99</ele>
        <time>2017-11-26T08:15:27Z</time>
      </trkpt>
      <trkpt lat="48.51655" lon="1.9997">
        <ele>105.3</ele>
        <time>2017-11-26T08:15:29Z</time>
      </trkpt>
      <trkpt lat="48.51646" lon="1.99965">
        <ele>105.83</ele>
        <time>2017-11-26T08:15:31Z</time>
      </trkpt>
      <trkpt lat="48.51639" lon="1.99961">
        <ele>106.28</ele>
        <time>2017-11-26T08:15:33Z</time>
      </trkpt>
      <trkpt lat="48.51632" lon="1.99955">
        <ele>106.72</ele>
        <time>2017-11-26T08:15:35Z</time>
      </trkpt>
      <trkpt lat="48.51626" lon="1.99952">
        <ele>107.1</ele>
        <time>2017-11-26T08:15:37Z</time>
      </trkpt>
      <trkpt lat="48.5162" lon="1.99946">
        <ele>107.55</ele>
        <time>2017-11-26T08:15:39Z</time>
      </trkpt>
      <trkpt lat="48.51612" lon="1.99941">
        <ele>108.03</ele>
        <time>2017-11-26T08:15:41Z</time>
      </trkpt>
      <trkpt lat="48.51605" lon="1.99938">
        <ele>108.42</ele>
        <time>2017-11-26T08:15:43Z</time>
      </trkpt>
      <trkpt lat="48.516" lon="1.99933">
        <ele>108.81</ele>
        <time>2017-11-26T08:15:45Z</time>
      </trkpt>
      <trkpt lat="48.51594" lon="1.99929">
        <ele>109.21</ele>
        <time>2017-11-26T08:15:47Z</time>
      </trkpt>
      <trkpt lat="48.51586" lon="1.99924">
        <ele>109.69</ele>
        <time>2017-11-26T08:15:49Z</time>
      </trkpt>
      <trkpt lat="48.5158" lon="1.9992">
        <ele>110.37</ele>
        <time>2017-11-26T08:15:51Z</time>
      </trkpt>
      <trkpt lat="48.51574" lon="1.99915">
        <ele>111.22</ele>
        <time>2017-11-26T08:15:53Z</time>
      </trkpt>
      <trkpt lat="48.51567" lon="1.99912">
        <ele>112.17</ele>
        <time>2017-11-26T08:15:55Z</time>
      </trkpt>
      <trkpt lat="48.5156" lon="1.99907">
        <ele>113.11</ele>
        <time>2017-11-26T08:15:57Z</time>
      </trkpt>
      <trkpt lat="48.51554" lon="1.99903">
        <ele>113.87</ele>
        <time>2017-11-26T08:15:59Z</time>
      </trkpt>
      <trkpt lat="48.51548" lon="1.99898">
        <ele>114.74</ele>
        <time>2017-11-26T08:16:01Z</time>
      </trkpt>
      <trkpt lat="48.51541" lon="1.99893">
        <ele>115.6</ele>
        <time>2017-11-26T08:16:03Z</time>
      </trkpt>
      <trkpt lat="48.51535" lon="1.9989">
        <ele>116.42</ele>
        <time>2017-11-26T08:16:05Z</time>
      </trkpt>
      <trkpt lat="48.51528" lon="1.99899">
        <ele>117.03</ele>
        <time>2017-11-26T08:16:09Z</time>
      </trkpt>
      <trkpt lat="48.51525" lon="1.99905">
        <ele>117.25</ele>
        <time>2017-11-26T08:16:11Z</time>
      </trkpt>
      <trkpt lat="48.51522" lon="1.99912">
        <ele>117.46</ele>
        <time>2017-11-26T08:16:13Z</time>
      </trkpt>
      <trkpt lat="48.51519" lon="1.99921">
        <ele>117.5</ele>
        <time>2017-11-26T08:16:15Z</time>
      </trkpt>
      <trkpt lat="48.51516" lon="1.9993">
        <ele>117.3</ele>
        <time>2017-11-26T08:16:17Z</time>
      </trkpt>
      <trkpt lat="48.51513" lon="1.99938">
        <ele>117.07</ele>
        <time>2017-11-26T08:16:19Z</time>
      </trkpt>
      <trkpt lat="48.51509" lon="1.99948">
        <ele>116.81</ele>
        <time>2017-11-26T08:16:21Z</time>
      </trkpt>
      <trkpt lat="48.51504" lon="1.9996">
        <ele>116.47</ele>
        <time>2017-11-26T08:16:23Z</time>
      </trkpt>
      <trkpt lat="48.515" lon="1.99972">
        <ele>116.05</ele>
        <time>2017-11-26T08:16:25Z</time>
      </trkpt>
      <trkpt lat="48.51495" lon="1.99984">
        <ele>115.49</ele>
        <time>2017-11-26T08:16:27Z</time>
      </trkpt>
      <trkpt lat="48.51491" lon="1.99995">
        <ele>114.97</ele>
        <time>2017-11-26T08:16:29Z</time>
      </trkpt>
      <trkpt lat="48.51486" lon="2.00006">
        <ele>108.89</ele>
        <time>2017-11-26T08:16:31Z</time>
      </trkpt>
      <trkpt lat="48.51481" lon="2.00017">
        <ele>108.39</ele>
        <time>2017-11-26T08:16:33Z</time>
      </trkpt>
      <trkpt lat="48.51476" lon="2.00029">
        <ele>106.91</ele>
        <time>2017-11-26T08:16:35Z</time>
      </trkpt>
      <trkpt lat="48.51472" lon="2.00043">
        <ele>107.58</ele>
        <time>2017-11-26T08:16:37Z</time>
      </trkpt>
      <trkpt lat="48.51468" lon="2.00055">
        <ele>108.43</ele>
        <time>2017-11-26T08:16:39Z</time>
      </trkpt>
      <trkpt lat="48.51462" lon="2.00071">
        <ele>107.9</ele>
        <time>2017-11-26T08:16:41Z</time>
      </trkpt>
      <trkpt lat="48.51458" lon="2.00084">
        <ele>107</ele>
        <time>2017-11-26T08:16:43Z</time>
      </trkpt>
      <trkpt lat="48.5145" lon="2.00095">
        <ele>107</ele>
        <time>2017-11-26T08:16:45Z</time>
      </trkpt>
      <trkpt lat="48.51448" lon="2.00107">
        <ele>107</ele>
        <time>2017-11-26T08:16:47Z</time>
      </trkpt>
      <trkpt lat="48.51441" lon="2.00123">
        <ele>107.22</ele>
        <time>2017-11-26T08:16:49Z</time>
      </trkpt>
      <trkpt lat="48.51439" lon="2.00135">
        <ele>107.07</ele>
        <time>2017-11-26T08:16:51Z</time>
      </trkpt>
      <trkpt lat="48.51433" lon="2.00147">
        <ele>106.32</ele>
        <time>2017-11-26T08:16:53Z</time>
      </trkpt>
      <trkpt lat="48.51425" lon="2.00157">
        <ele>105.24</ele>
        <time>2017-11-26T08:16:55Z</time>
      </trkpt>
      <trkpt lat="48.51418" lon="2.00167">
        <ele>104.06</ele>
        <time>2017-11-26T08:16:57Z</time>
      </trkpt>
      <trkpt lat="48.51412" lon="2.00179">
        <ele>104.27</ele>
        <time>2017-11-26T08:16:59Z</time>
      </trkpt>
      <trkpt lat="48.51403" lon="2.0019">
        <ele>103.92</ele>
        <time>2017-11-26T08:17:01Z</time>
      </trkpt>
      <trkpt lat="48.51398" lon="2.00197">
        <ele>103.22</ele>
        <time>2017-11-26T08:17:03Z</time>
      </trkpt>
      <trkpt lat="48.51393" lon="2.00203">
        <ele>102.76</ele>
        <time>2017-11-26T08:17:05Z</time>
      </trkpt>
      <trkpt lat="48.51386" lon="2.00213">
        <ele>103.27</ele>
        <time>2017-11-26T08:17:07Z</time>
      </trkpt>
      <trkpt lat="48.5138" lon="2.0022">
        <ele>105.36</ele>
        <time>2017-11-26T08:17:09Z</time>
      </trkpt>
      <trkpt lat="48.51371" lon="2.00226">
        <ele>108.58</ele>
        <time>2017-11-26T08:17:11Z</time>
      </trkpt>
      <trkpt lat="48.51365" lon="2.00228">
        <ele>110.75</ele>
        <time>2017-11-26T08:17:13Z</time>
      </trkpt>
      <trkpt lat="48.51363" lon="2.00238">
        <ele>111.42</ele>
        <time>2017-11-26T08:17:15Z</time>
      </trkpt>
      <trkpt lat="48.51367" lon="2.00257">
        <ele>111.23</ele>
        <time>2017-11-26T08:17:19Z</time>
      </trkpt>
      <trkpt lat="48.51368" lon="2.00265">
        <ele>111.76</ele>
        <time>2017-11-26T08:17:21Z</time>
      </trkpt>
      <trkpt lat="48.51368" lon="2.00275">
        <ele>112.55</ele>
        <time>2017-11-26T08:17:23Z</time>
      </trkpt>
      <trkpt lat="48.51372" lon="2.0028">
        <ele>112.07</ele>
        <time>2017-11-26T08:17:25Z</time>
      </trkpt>
      <trkpt lat="48.51375" lon="2.00287">
        <ele>111.74</ele>
        <time>2017-11-26T08:17:27Z</time>
      </trkpt>
      <trkpt lat="48.51379" lon="2.00299">
        <ele>111.71</ele>
        <time>2017-11-26T08:17:29Z</time>
      </trkpt>
      <trkpt lat="48.5138" lon="2.00306">
        <ele>112.02</ele>
        <time>2017-11-26T08:17:31Z</time>
      </trkpt>
      <trkpt lat="48.51381" lon="2.00316">
        <ele>111.93</ele>
        <time>2017-11-26T08:17:35Z</time>
      </trkpt>
      <trkpt lat="48.51383" lon="2.00326">
        <ele>111.94</ele>
        <time>2017-11-26T08:17:37Z</time>
      </trkpt>
      <trkpt lat="48.51385" lon="2.00336">
        <ele>112.14</ele>
        <time>2017-11-26T08:17:39Z</time>
      </trkpt>
      <trkpt lat="48.51386" lon="2.00348">
        <ele>112.18</ele>
        <time>2017-11-26T08:17:41Z</time>
      </trkpt>
      <trkpt lat="48.51381" lon="2.00354">
        <ele>112.48</ele>
        <time>2017-11-26T08:17:43Z</time>
      </trkpt>
      <trkpt lat="48.51381" lon="2.00363">
        <ele>112.61</ele>
        <time>2017-11-26T08:17:47Z</time>
      </trkpt>
      <trkpt lat="48.51379" lon="2.00494">
        <ele>112.35</ele>
        <time>2017-11-26T08:18:18Z</time>
      </trkpt>
      <trkpt lat="48.51386" lon="2.00522">
        <ele>112.79</ele>
        <time>2017-11-26T08:18:21Z</time>
      </trkpt>
      <trkpt lat="48.51393" lon="2.00536">
        <ele>113.12</ele>
        <time>2017-11-26T08:18:23Z</time>
      </trkpt>
      <trkpt lat="48.514" lon="2.00563">
        <ele>113.4</ele>
        <time>2017-11-26T08:18:26Z</time>
      </trkpt>
      <trkpt lat="48.514" lon="2.0057">
        <ele>113.48</ele>
        <time>2017-11-26T08:18:29Z</time>
      </trkpt>
      <trkpt lat="48.51401" lon="2.0058">
        <ele>113.62</ele>
        <time>2017-11-26T08:18:31Z</time>
      </trkpt>
      <trkpt lat="48.51403" lon="2.00592">
        <ele>113.34</ele>
        <time>2017-11-26T08:18:33Z</time>
      </trkpt>
      <trkpt lat="48.51403" lon="2.00603">
        <ele>113.1</ele>
        <time>2017-11-26T08:18:35Z</time>
      </trkpt>
      <trkpt lat="48.51406" lon="2.00615">
        <ele>112.96</ele>
        <time>2017-11-26T08:18:37Z</time>
      </trkpt>
      <trkpt lat="48.51411" lon="2.00637">
        <ele>113.89</ele>
        <time>2017-11-26T08:18:40Z</time>
      </trkpt>
      <trkpt lat="48.51412" lon="2.00646">
        <ele>113.87</ele>
        <time>2017-11-26T08:18:42Z</time>
      </trkpt>
      <trkpt lat="48.51414" lon="2.00654">
        <ele>113.61</ele>
        <time>2017-11-26T08:18:44Z</time>
      </trkpt>
      <trkpt lat="48.51416" lon="2.00662">
        <ele>113.19</ele>
        <time>2017-11-26T08:18:46Z</time>
      </trkpt>
      <trkpt lat="48.51419" lon="2.00671">
        <ele>112.8</ele>
        <time>2017-11-26T08:18:48Z</time>
      </trkpt>
      <trkpt lat="48.51423" lon="2.00682">
        <ele>112.62</ele>
        <time>2017-11-26T08:18:49Z</time>
      </trkpt>
      <trkpt lat="48.51426" lon="2.00691">
        <ele>112.49</ele>
        <time>2017-11-26T08:18:52Z</time>
      </trkpt>
      <trkpt lat="48.5143" lon="2.007">
        <ele>112.53</ele>
        <time>2017-11-26T08:18:54Z</time>
      </trkpt>
      <trkpt lat="48.51433" lon="2.0071">
        <ele>112.69</ele>
        <time>2017-11-26T08:18:56Z</time>
      </trkpt>
      <trkpt lat="48.51437" lon="2.00719">
        <ele>112.85</ele>
        <time>2017-11-26T08:18:58Z</time>
      </trkpt>
      <trkpt lat="48.51441" lon="2.00728">
        <ele>112.95</ele>
        <time>2017-11-26T08:19:00Z</time>
      </trkpt>
      <trkpt lat="48.51446" lon="2.00741">
        <ele>113.2</ele>
        <time>2017-11-26T08:19:01Z</time>
      </trkpt>
      <trkpt lat="48.5145" lon="2.00752">
        <ele>113.95</ele>
        <time>2017-11-26T08:19:04Z</time>
      </trkpt>
      <trkpt lat="48.51453" lon="2.00762">
        <ele>114.79</ele>
        <time>2017-11-26T08:19:06Z</time>
      </trkpt>
      <trkpt lat="48.51454" lon="2.00772">
        <ele>115.5</ele>
        <time>2017-11-26T08:19:08Z</time>
      </trkpt>
      <trkpt lat="48.51457" lon="2.00782">
        <ele>115.63</ele>
        <time>2017-11-26T08:19:10Z</time>
      </trkpt>
      <trkpt lat="48.51459" lon="2.00792">
        <ele>115.17</ele>
        <time>2017-11-26T08:19:12Z</time>
      </trkpt>
      <trkpt lat="48.51462" lon="2.00805">
        <ele>114.43</ele>
        <time>2017-11-26T08:19:13Z</time>
      </trkpt>
      <trkpt lat="48.51463" lon="2.00816">
        <ele>114.05</ele>
        <time>2017-11-26T08:19:16Z</time>
      </trkpt>
      <trkpt lat="48.51463" lon="2.00826">
        <ele>113.84</ele>
        <time>2017-11-26T08:19:18Z</time>
      </trkpt>
      <trkpt lat="48.51462" lon="2.00834">
        <ele>113.83</ele>
        <time>2017-11-26T08:19:20Z</time>
      </trkpt>
      <trkpt lat="48.51461" lon="2.00842">
        <ele>113.94</ele>
        <time>2017-11-26T08:19:22Z</time>
      </trkpt>
      <trkpt lat="48.51459" lon="2.00849">
        <ele>114.25</ele>
        <time>2017-11-26T08:19:24Z</time>
      </trkpt>
      <trkpt lat="48.51461" lon="2.00861">
        <ele>113.69</ele>
        <time>2017-11-26T08:19:25Z</time>
      </trkpt>
      <trkpt lat="48.5146" lon="2.0087">
        <ele>112.89</ele>
        <time>2017-11-26T08:19:28Z</time>
      </trkpt>
      <trkpt lat="48.5146" lon="2.0088">
        <ele>111.94</ele>
        <time>2017-11-26T08:19:30Z</time>
      </trkpt>
      <trkpt lat="48.51459" lon="2.00888">
        <ele>111.27</ele>
        <time>2017-11-26T08:19:32Z</time>
      </trkpt>
      <trkpt lat="48.51458" lon="2.00897">
        <ele>111.4</ele>
        <time>2017-11-26T08:19:34Z</time>
      </trkpt>
      <trkpt lat="48.51457" lon="2.00906">
        <ele>111.57</ele>
        <time>2017-11-26T08:19:36Z</time>
      </trkpt>
      <trkpt lat="48.51457" lon="2.00916">
        <ele>111.29</ele>
        <time>2017-11-26T08:19:37Z</time>
      </trkpt>
      <trkpt lat="48.51456" lon="2.00924">
        <ele>111.54</ele>
        <time>2017-11-26T08:19:40Z</time>
      </trkpt>
      <trkpt lat="48.51455" lon="2.00932">
        <ele>111.89</ele>
        <time>2017-11-26T08:19:42Z</time>
      </trkpt>
      <trkpt lat="48.51453" lon="2.00939">
        <ele>112.43</ele>
        <time>2017-11-26T08:19:44Z</time>
      </trkpt>
      <trkpt lat="48.51451" lon="2.00951">
        <ele>112.69</ele>
        <time>2017-11-26T08:19:48Z</time>
      </trkpt>
      <trkpt lat="48.51451" lon="2.00961">
        <ele>112.02</ele>
        <time>2017-11-26T08:19:52Z</time>
      </trkpt>
      <trkpt lat="48.5144" lon="2.00967">
        <ele>112.65</ele>
        <time>2017-11-26T08:19:56Z</time>
      </trkpt>
      <trkpt lat="48.51433" lon="2.0097">
        <ele>112.58</ele>
        <time>2017-11-26T08:19:58Z</time>
      </trkpt>
      <trkpt lat="48.51426" lon="2.00974">
        <ele>112.71</ele>
        <time>2017-11-26T08:20:00Z</time>
      </trkpt>
      <trkpt lat="48.5142" lon="2.00979">
        <ele>113.08</ele>
        <time>2017-11-26T08:20:01Z</time>
      </trkpt>
      <trkpt lat="48.51416" lon="2.00981">
        <ele>113.31</ele>
        <time>2017-11-26T08:20:04Z</time>
      </trkpt>
      <trkpt lat="48.51408" lon="2.00986">
        <ele>113.33</ele>
        <time>2017-11-26T08:20:08Z</time>
      </trkpt>
      <trkpt lat="48.51403" lon="2.00988">
        <ele>113.29</ele>
        <time>2017-11-26T08:20:10Z</time>
      </trkpt>
      <trkpt lat="48.51398" lon="2.00993">
        <ele>113.25</ele>
        <time>2017-11-26T08:20:12Z</time>
      </trkpt>
      <trkpt lat="48.51392" lon="2.01001">
        <ele>113.25</ele>
        <time>2017-11-26T08:20:13Z</time>
      </trkpt>
      <trkpt lat="48.51387" lon="2.01008">
        <ele>114.04</ele>
        <time>2017-11-26T08:20:16Z</time>
      </trkpt>
      <trkpt lat="48.51383" lon="2.01014">
        <ele>115.24</ele>
        <time>2017-11-26T08:20:18Z</time>
      </trkpt>
      <trkpt lat="48.51379" lon="2.01021">
        <ele>116.21</ele>
        <time>2017-11-26T08:20:20Z</time>
      </trkpt>
      <trkpt lat="48.51376" lon="2.01029">
        <ele>116.93</ele>
        <time>2017-11-26T08:20:22Z</time>
      </trkpt>
      <trkpt lat="48.51373" lon="2.01037">
        <ele>117.09</ele>
        <time>2017-11-26T08:20:24Z</time>
      </trkpt>
      <trkpt lat="48.51368" lon="2.01044">
        <ele>117.22</ele>
        <time>2017-11-26T08:20:25Z</time>
      </trkpt>
      <trkpt lat="48.51364" lon="2.01049">
        <ele>117.18</ele>
        <time>2017-11-26T08:20:28Z</time>
      </trkpt>
      <trkpt lat="48.5136" lon="2.01055">
        <ele>117.1</ele>
        <time>2017-11-26T08:20:30Z</time>
      </trkpt>
      <trkpt lat="48.51356" lon="2.0106">
        <ele>117.69</ele>
        <time>2017-11-26T08:20:32Z</time>
      </trkpt>
      <trkpt lat="48.51353" lon="2.01067">
        <ele>118.43</ele>
        <time>2017-11-26T08:20:34Z</time>
      </trkpt>
      <trkpt lat="48.5135" lon="2.01074">
        <ele>119.16</ele>
        <time>2017-11-26T08:20:36Z</time>
      </trkpt>
      <trkpt lat="48.51346" lon="2.01085">
        <ele>120.14</ele>
        <time>2017-11-26T08:20:37Z</time>
      </trkpt>
      <trkpt lat="48.51342" lon="2.01091">
        <ele>120.44</ele>
        <time>2017-11-26T08:20:40Z</time>
      </trkpt>
      <trkpt lat="48.51336" lon="2.011">
        <ele>120.88</ele>
        <time>2017-11-26T08:20:44Z</time>
      </trkpt>
      <trkpt lat="48.51329" lon="2.01105">
        <ele>121.28</ele>
        <time>2017-11-26T08:20:48Z</time>
      </trkpt>
      <trkpt lat="48.51324" lon="2.01109">
        <ele>121.63</ele>
        <time>2017-11-26T08:20:49Z</time>
      </trkpt>
      <trkpt lat="48.51318" lon="2.01117">
        <ele>122.27</ele>
        <time>2017-11-26T08:20:54Z</time>
      </trkpt>
      <trkpt lat="48.51315" lon="2.01122">
        <ele>122.57</ele>
        <time>2017-11-26T08:20:56Z</time>
      </trkpt>
      <trkpt lat="48.51313" lon="2.01128">
        <ele>122.8</ele>
        <time>2017-11-26T08:20:58Z</time>
      </trkpt>
      <trkpt lat="48.5131" lon="2.01135">
        <ele>122.95</ele>
        <time>2017-11-26T08:21:00Z</time>
      </trkpt>
      <trkpt lat="48.51305" lon="2.0115">
        <ele>123.45</ele>
        <time>2017-11-26T08:21:04Z</time>
      </trkpt>
      <trkpt lat="48.513" lon="2.01163">
        <ele>123.94</ele>
        <time>2017-11-26T08:21:08Z</time>
      </trkpt>
      <trkpt lat="48.51297" lon="2.01169">
        <ele>124.22</ele>
        <time>2017-11-26T08:21:10Z</time>
      </trkpt>
      <trkpt lat="48.51294" lon="2.01176">
        <ele>124.75</ele>
        <time>2017-11-26T08:21:12Z</time>
      </trkpt>
      <trkpt lat="48.51291" lon="2.01186">
        <ele>125.32</ele>
        <time>2017-11-26T08:21:13Z</time>
      </trkpt>
      <trkpt lat="48.51287" lon="2.01191">
        <ele>125.45</ele>
        <time>2017-11-26T08:21:16Z</time>
      </trkpt>
      <trkpt lat="48.51284" lon="2.01195">
        <ele>125.43</ele>
        <time>2017-11-26T08:21:18Z</time>
      </trkpt>
      <trkpt lat="48.51277" lon="2.01199">
        <ele>125.32</ele>
        <time>2017-11-26T08:21:22Z</time>
      </trkpt>
      <trkpt lat="48.51271" lon="2.01205">
        <ele>126.2</ele>
        <time>2017-11-26T08:21:25Z</time>
      </trkpt>
      <trkpt lat="48.51268" lon="2.01215">
        <ele>127.01</ele>
        <time>2017-11-26T08:21:30Z</time>
      </trkpt>
      <trkpt lat="48.51266" lon="2.01226">
        <ele>128.05</ele>
        <time>2017-11-26T08:21:34Z</time>
      </trkpt>
      <trkpt lat="48.51264" lon="2.01236">
        <ele>129.19</ele>
        <time>2017-11-26T08:21:37Z</time>
      </trkpt>
      <trkpt lat="48.51261" lon="2.01244">
        <ele>130.51</ele>
        <time>2017-11-26T08:21:42Z</time>
      </trkpt>
      <trkpt lat="48.51257" lon="2.01253">
        <ele>131.88</ele>
        <time>2017-11-26T08:21:46Z</time>
      </trkpt>
      <trkpt lat="48.51254" lon="2.01266">
        <ele>132.98</ele>
        <time>2017-11-26T08:21:52Z</time>
      </trkpt>
      <trkpt lat="48.51253" lon="2.01275">
        <ele>133.52</ele>
        <time>2017-11-26T08:21:56Z</time>
      </trkpt>
      <trkpt lat="48.51251" lon="2.01283">
        <ele>134.31</ele>
        <time>2017-11-26T08:22:00Z</time>
      </trkpt>
      <trkpt lat="48.51246" lon="2.01288">
        <ele>134.19</ele>
        <time>2017-11-26T08:22:04Z</time>
      </trkpt>
      <trkpt lat="48.51241" lon="2.01295">
        <ele>133.74</ele>
        <time>2017-11-26T08:22:08Z</time>
      </trkpt>
      <trkpt lat="48.51235" lon="2.01304">
        <ele>132.82</ele>
        <time>2017-11-26T08:22:12Z</time>
      </trkpt>
      <trkpt lat="48.51234" lon="2.01314">
        <ele>132.59</ele>
        <time>2017-11-26T08:22:13Z</time>
      </trkpt>
      <trkpt lat="48.51231" lon="2.01321">
        <ele>132.29</ele>
        <time>2017-11-26T08:22:16Z</time>
      </trkpt>
      <trkpt lat="48.51226" lon="2.01355">
        <ele>130.86</ele>
        <time>2017-11-26T08:22:18Z</time>
      </trkpt>
      <trkpt lat="48.51222" lon="2.01367">
        <ele>130.63</ele>
        <time>2017-11-26T08:22:20Z</time>
      </trkpt>
      <trkpt lat="48.51217" lon="2.01373">
        <ele>131.97</ele>
        <time>2017-11-26T08:22:22Z</time>
      </trkpt>
      <trkpt lat="48.51212" lon="2.0138">
        <ele>133.19</ele>
        <time>2017-11-26T08:22:24Z</time>
      </trkpt>
      <trkpt lat="48.51208" lon="2.01387">
        <ele>134.35</ele>
        <time>2017-11-26T08:22:25Z</time>
      </trkpt>
      <trkpt lat="48.51203" lon="2.01393">
        <ele>135.44</ele>
        <time>2017-11-26T08:22:28Z</time>
      </trkpt>
      <trkpt lat="48.51198" lon="2.01397">
        <ele>136.49</ele>
        <time>2017-11-26T08:22:30Z</time>
      </trkpt>
      <trkpt lat="48.51194" lon="2.01401">
        <ele>137.54</ele>
        <time>2017-11-26T08:22:32Z</time>
      </trkpt>
      <trkpt lat="48.5119" lon="2.01406">
        <ele>138.95</ele>
        <time>2017-11-26T08:22:34Z</time>
      </trkpt>
      <trkpt lat="48.51186" lon="2.0141">
        <ele>140.26</ele>
        <time>2017-11-26T08:22:36Z</time>
      </trkpt>
      <trkpt lat="48.51182" lon="2.01416">
        <ele>141.65</ele>
        <time>2017-11-26T08:22:37Z</time>
      </trkpt>
      <trkpt lat="48.51177" lon="2.0142">
        <ele>142.67</ele>
        <time>2017-11-26T08:22:40Z</time>
      </trkpt>
      <trkpt lat="48.51173" lon="2.01423">
        <ele>143.57</ele>
        <time>2017-11-26T08:22:42Z</time>
      </trkpt>
      <trkpt lat="48.51167" lon="2.01431">
        <ele>144.95</ele>
        <time>2017-11-26T08:22:46Z</time>
      </trkpt>
      <trkpt lat="48.51166" lon="2.01438">
        <ele>145.26</ele>
        <time>2017-11-26T08:22:48Z</time>
      </trkpt>
      <trkpt lat="48.51121" lon="2.01595">
        <ele>147.77</ele>
        <time>2017-11-26T08:23:21Z</time>
      </trkpt>
      <trkpt lat="48.51116" lon="2.01602">
        <ele>147.49</ele>
        <time>2017-11-26T08:23:24Z</time>
      </trkpt>
      <trkpt lat="48.51112" lon="2.01607">
        <ele>147.24</ele>
        <time>2017-11-26T08:23:26Z</time>
      </trkpt>
      <trkpt lat="48.51109" lon="2.01616">
        <ele>145.93</ele>
        <time>2017-11-26T08:23:28Z</time>
      </trkpt>
      <trkpt lat="48.51105" lon="2.01627">
        <ele>144.04</ele>
        <time>2017-11-26T08:23:30Z</time>
      </trkpt>
      <trkpt lat="48.51099" lon="2.01633">
        <ele>142.46</ele>
        <time>2017-11-26T08:23:32Z</time>
      </trkpt>
      <trkpt lat="48.51092" lon="2.01638">
        <ele>141.14</ele>
        <time>2017-11-26T08:23:34Z</time>
      </trkpt>
      <trkpt lat="48.51085" lon="2.01642">
        <ele>139.9</ele>
        <time>2017-11-26T08:23:36Z</time>
      </trkpt>
      <trkpt lat="48.5108" lon="2.01645">
        <ele>139.06</ele>
        <time>2017-11-26T08:23:38Z</time>
      </trkpt>
      <trkpt lat="48.51072" lon="2.01649">
        <ele>137.72</ele>
        <time>2017-11-26T08:23:42Z</time>
      </trkpt>
      <trkpt lat="48.51067" lon="2.01649">
        <ele>137.09</ele>
        <time>2017-11-26T08:23:44Z</time>
      </trkpt>
      <trkpt lat="48.51059" lon="2.01646">
        <ele>136.89</ele>
        <time>2017-11-26T08:23:48Z</time>
      </trkpt>
      <trkpt lat="48.51053" lon="2.01642">
        <ele>137.37</ele>
        <time>2017-11-26T08:23:52Z</time>
      </trkpt>
      <trkpt lat="48.51045" lon="2.01638">
        <ele>138.21</ele>
        <time>2017-11-26T08:23:56Z</time>
      </trkpt>
      <trkpt lat="48.51039" lon="2.01632">
        <ele>139.03</ele>
        <time>2017-11-26T08:24:00Z</time>
      </trkpt>
      <trkpt lat="48.51031" lon="2.01632">
        <ele>139.03</ele>
        <time>2017-11-26T08:24:04Z</time>
      </trkpt>
      <trkpt lat="48.51026" lon="2.01625">
        <ele>139.93</ele>
        <time>2017-11-26T08:24:08Z</time>
      </trkpt>
      <trkpt lat="48.51019" lon="2.01617">
        <ele>140.95</ele>
        <time>2017-11-26T08:24:12Z</time>
      </trkpt>
      <trkpt lat="48.51015" lon="2.01612">
        <ele>141.46</ele>
        <time>2017-11-26T08:24:14Z</time>
      </trkpt>
      <trkpt lat="48.51012" lon="2.01606">
        <ele>141.68</ele>
        <time>2017-11-26T08:24:16Z</time>
      </trkpt>
      <trkpt lat="48.51009" lon="2.01601">
        <ele>141.77</ele>
        <time>2017-11-26T08:24:18Z</time>
      </trkpt>
      <trkpt lat="48.51006" lon="2.01596">
        <ele>141.88</ele>
        <time>2017-11-26T08:24:20Z</time>
      </trkpt>
      <trkpt lat="48.51001" lon="2.01585">
        <ele>141.99</ele>
        <time>2017-11-26T08:24:24Z</time>
      </trkpt>
      <trkpt lat="48.50999" lon="2.01576">
        <ele>143.01</ele>
        <time>2017-11-26T08:24:28Z</time>
      </trkpt>
      <trkpt lat="48.50999" lon="2.01568">
        <ele>144.15</ele>
        <time>2017-11-26T08:24:32Z</time>
      </trkpt>
      <trkpt lat="48.50997" lon="2.01561">
        <ele>144.87</ele>
        <time>2017-11-26T08:24:36Z</time>
      </trkpt>
      <trkpt lat="48.50992" lon="2.01556">
        <ele>144.73</ele>
        <time>2017-11-26T08:24:40Z</time>
      </trkpt>
      <trkpt lat="48.50987" lon="2.01548">
        <ele>145.18</ele>
        <time>2017-11-26T08:24:44Z</time>
      </trkpt>
      <trkpt lat="48.50983" lon="2.01536">
        <ele>146.74</ele>
        <time>2017-11-26T08:24:48Z</time>
      </trkpt>
      <trkpt lat="48.50981" lon="2.01529">
        <ele>147.79</ele>
        <time>2017-11-26T08:24:50Z</time>
      </trkpt>
      <trkpt lat="48.50978" lon="2.01518">
        <ele>148.08</ele>
        <time>2017-11-26T08:24:54Z</time>
      </trkpt>
      <trkpt lat="48.50974" lon="2.01509">
        <ele>148.05</ele>
        <time>2017-11-26T08:24:58Z</time>
      </trkpt>
      <trkpt lat="48.50973" lon="2.01501">
        <ele>148.02</ele>
        <time>2017-11-26T08:25:02Z</time>
      </trkpt>
      <trkpt lat="48.50971" lon="2.01494">
        <ele>147.75</ele>
        <time>2017-11-26T08:25:06Z</time>
      </trkpt>
      <trkpt lat="48.50969" lon="2.01487">
        <ele>147.58</ele>
        <time>2017-11-26T08:25:12Z</time>
      </trkpt>
      <trkpt lat="48.5097" lon="2.01479">
        <ele>147.34</ele>
        <time>2017-11-26T08:25:16Z</time>
      </trkpt>
      <trkpt lat="48.5097" lon="2.01471">
        <ele>147.23</ele>
        <time>2017-11-26T08:25:20Z</time>
      </trkpt>
      <trkpt lat="48.50969" lon="2.01463">
        <ele>147.95</ele>
        <time>2017-11-26T08:25:24Z</time>
      </trkpt>
      <trkpt lat="48.50967" lon="2.01453">
        <ele>148.87</ele>
        <time>2017-11-26T08:25:28Z</time>
      </trkpt>
      <trkpt lat="48.50964" lon="2.01445">
        <ele>149.78</ele>
        <time>2017-11-26T08:25:32Z</time>
      </trkpt>
      <trkpt lat="48.50962" lon="2.01437">
        <ele>150.55</ele>
        <time>2017-11-26T08:25:36Z</time>
      </trkpt>
      <trkpt lat="48.50958" lon="2.0143">
        <ele>151.32</ele>
        <time>2017-11-26T08:25:40Z</time>
      </trkpt>
      <trkpt lat="48.50954" lon="2.0142">
        <ele>152.14</ele>
        <time>2017-11-26T08:25:44Z</time>
      </trkpt>
      <trkpt lat="48.50951" lon="2.01411">
        <ele>152.85</ele>
        <time>2017-11-26T08:25:48Z</time>
      </trkpt>
      <trkpt lat="48.50946" lon="2.01403">
        <ele>153.43</ele>
        <time>2017-11-26T08:25:52Z</time>
      </trkpt>
      <trkpt lat="48.50943" lon="2.01396">
        <ele>153.82</ele>
        <time>2017-11-26T08:25:56Z</time>
      </trkpt>
      <trkpt lat="48.50939" lon="2.0139">
        <ele>154.34</ele>
        <time>2017-11-26T08:26:00Z</time>
      </trkpt>
      <trkpt lat="48.50934" lon="2.01388">
        <ele>154.83</ele>
        <time>2017-11-26T08:26:04Z</time>
      </trkpt>
      <trkpt lat="48.50931" lon="2.01379">
        <ele>155.91</ele>
        <time>2017-11-26T08:26:10Z</time>
      </trkpt>
      <trkpt lat="48.50928" lon="2.0137">
        <ele>156.83</ele>
        <time>2017-11-26T08:26:14Z</time>
      </trkpt>
      <trkpt lat="48.50923" lon="2.01359">
        <ele>157.88</ele>
        <time>2017-11-26T08:26:18Z</time>
      </trkpt>
      <trkpt lat="48.5092" lon="2.01349">
        <ele>158.76</ele>
        <time>2017-11-26T08:26:22Z</time>
      </trkpt>
      <trkpt lat="48.50918" lon="2.0134">
        <ele>159.5</ele>
        <time>2017-11-26T08:26:26Z</time>
      </trkpt>
      <trkpt lat="48.50914" lon="2.01331">
        <ele>160.48</ele>
        <time>2017-11-26T08:26:30Z</time>
      </trkpt>
      <trkpt lat="48.5091" lon="2.01323">
        <ele>161.4</ele>
        <time>2017-11-26T08:26:34Z</time>
      </trkpt>
      <trkpt lat="48.50906" lon="2.01314">
        <ele>162.26</ele>
        <time>2017-11-26T08:26:38Z</time>
      </trkpt>
      <trkpt lat="48.50904" lon="2.01308">
        <ele>162.78</ele>
        <time>2017-11-26T08:26:42Z</time>
      </trkpt>
      <trkpt lat="48.50898" lon="2.01303">
        <ele>163.25</ele>
        <time>2017-11-26T08:26:46Z</time>
      </trkpt>
      <trkpt lat="48.50892" lon="2.01299">
        <ele>163.67</ele>
        <time>2017-11-26T08:26:50Z</time>
      </trkpt>
      <trkpt lat="48.50884" lon="2.0129">
        <ele>163.93</ele>
        <time>2017-11-26T08:26:54Z</time>
      </trkpt>
      <trkpt lat="48.50879" lon="2.01284">
        <ele>163.92</ele>
        <time>2017-11-26T08:26:56Z</time>
      </trkpt>
      <trkpt lat="48.50874" lon="2.01278">
        <ele>164</ele>
        <time>2017-11-26T08:26:58Z</time>
      </trkpt>
      <trkpt lat="48.50869" lon="2.01272">
        <ele>164.15</ele>
        <time>2017-11-26T08:27:00Z</time>
      </trkpt>
      <trkpt lat="48.50865" lon="2.01266">
        <ele>164.38</ele>
        <time>2017-11-26T08:27:02Z</time>
      </trkpt>
      <trkpt lat="48.50861" lon="2.0126">
        <ele>164.64</ele>
        <time>2017-11-26T08:27:04Z</time>
      </trkpt>
      <trkpt lat="48.50857" lon="2.01254">
        <ele>164.56</ele>
        <time>2017-11-26T08:27:06Z</time>
      </trkpt>
      <trkpt lat="48.50853" lon="2.01249">
        <ele>164.45</ele>
        <time>2017-11-26T08:27:08Z</time>
      </trkpt>
      <trkpt lat="48.50849" lon="2.01243">
        <ele>164.56</ele>
        <time>2017-11-26T08:27:10Z</time>
      </trkpt>
      <trkpt lat="48.50843" lon="2.01233">
        <ele>165.09</ele>
        <time>2017-11-26T08:27:14Z</time>
      </trkpt>
      <trkpt lat="48.50839" lon="2.01229">
        <ele>165.41</ele>
        <time>2017-11-26T08:27:16Z</time>
      </trkpt>
      <trkpt lat="48.50835" lon="2.01225">
        <ele>165.75</ele>
        <time>2017-11-26T08:27:18Z</time>
      </trkpt>
      <trkpt lat="48.50831" lon="2.01221">
        <ele>165.86</ele>
        <time>2017-11-26T08:27:20Z</time>
      </trkpt>
      <trkpt lat="48.50828" lon="2.0121">
        <ele>166.02</ele>
        <time>2017-11-26T08:27:24Z</time>
      </trkpt>
      <trkpt lat="48.50827" lon="2.01203">
        <ele>166.28</ele>
        <time>2017-11-26T08:27:28Z</time>
      </trkpt>
      <trkpt lat="48.50823" lon="2.01198">
        <ele>165.6</ele>
        <time>2017-11-26T08:27:36Z</time>
      </trkpt>
      <trkpt lat="48.50821" lon="2.01192">
        <ele>165.33</ele>
        <time>2017-11-26T08:28:58Z</time>
      </trkpt>
      <trkpt lat="48.50816" lon="2.01189">
        <ele>164.59</ele>
        <time>2017-11-26T08:29:20Z</time>
      </trkpt>
      <trkpt lat="48.50814" lon="2.01183">
        <ele>164.59</ele>
        <time>2017-11-26T08:29:56Z</time>
      </trkpt>
      <trkpt lat="48.50811" lon="2.01174">
        <ele>164.84</ele>
        <time>2017-11-26T08:30:02Z</time>
      </trkpt>
      <trkpt lat="48.50809" lon="2.01162">
        <ele>165.09</ele>
        <time>2017-11-26T08:30:06Z</time>
      </trkpt>
      <trkpt lat="48.50808" lon="2.01155">
        <ele>164.77</ele>
        <time>2017-11-26T08:30:08Z</time>
      </trkpt>
      <trkpt lat="48.50807" lon="2.01148">
        <ele>164.42</ele>
        <time>2017-11-26T08:30:10Z</time>
      </trkpt>
      <trkpt lat="48.50805" lon="2.01134">
        <ele>164.17</ele>
        <time>2017-11-26T08:30:14Z</time>
      </trkpt>
      <trkpt lat="48.50804" lon="2.01127">
        <ele>164.44</ele>
        <time>2017-11-26T08:30:16Z</time>
      </trkpt>
      <trkpt lat="48.50804" lon="2.01119">
        <ele>164.74</ele>
        <time>2017-11-26T08:30:18Z</time>
      </trkpt>
      <trkpt lat="48.50804" lon="2.01111">
        <ele>165.06</ele>
        <time>2017-11-26T08:30:20Z</time>
      </trkpt>
      <trkpt lat="48.50802" lon="2.01103">
        <ele>164.59</ele>
        <time>2017-11-26T08:30:22Z</time>
      </trkpt>
      <trkpt lat="48.50801" lon="2.01094">
        <ele>164.15</ele>
        <time>2017-11-26T08:30:24Z</time>
      </trkpt>
      <trkpt lat="48.50799" lon="2.01086">
        <ele>163.86</ele>
        <time>2017-11-26T08:30:26Z</time>
      </trkpt>
      <trkpt lat="48.50797" lon="2.01078">
        <ele>163.97</ele>
        <time>2017-11-26T08:30:28Z</time>
      </trkpt>
      <trkpt lat="48.50795" lon="2.01068">
        <ele>164.15</ele>
        <time>2017-11-26T08:30:30Z</time>
      </trkpt>
      <trkpt lat="48.50794" lon="2.01059">
        <ele>164.25</ele>
        <time>2017-11-26T08:30:32Z</time>
      </trkpt>
      <trkpt lat="48.50793" lon="2.01051">
        <ele>164.25</ele>
        <time>2017-11-26T08:30:34Z</time>
      </trkpt>
      <trkpt lat="48.5079" lon="2.01044">
        <ele>164.23</ele>
        <time>2017-11-26T08:30:36Z</time>
      </trkpt>
      <trkpt lat="48.50787" lon="2.01037">
        <ele>164.12</ele>
        <time>2017-11-26T08:30:38Z</time>
      </trkpt>
      <trkpt lat="48.50787" lon="2.01029">
        <ele>163.73</ele>
        <time>2017-11-26T08:30:40Z</time>
      </trkpt>
      <trkpt lat="48.50788" lon="2.01018">
        <ele>163.64</ele>
        <time>2017-11-26T08:30:42Z</time>
      </trkpt>
      <trkpt lat="48.50788" lon="2.01008">
        <ele>163.65</ele>
        <time>2017-11-26T08:30:44Z</time>
      </trkpt>
      <trkpt lat="48.50786" lon="2.00999">
        <ele>163.73</ele>
        <time>2017-11-26T08:30:46Z</time>
      </trkpt>
      <trkpt lat="48.50784" lon="2.00991">
        <ele>163.86</ele>
        <time>2017-11-26T08:30:48Z</time>
      </trkpt>
      <trkpt lat="48.50778" lon="2.00988">
        <ele>164</ele>
        <time>2017-11-26T08:30:52Z</time>
      </trkpt>
      <trkpt lat="48.5077" lon="2.00995">
        <ele>163.9</ele>
        <time>2017-11-26T08:30:56Z</time>
      </trkpt>
      <trkpt lat="48.50767" lon="2.00999">
        <ele>163.98</ele>
        <time>2017-11-26T08:30:58Z</time>
      </trkpt>
      <trkpt lat="48.50763" lon="2.01004">
        <ele>164</ele>
        <time>2017-11-26T08:31:00Z</time>
      </trkpt>
      <trkpt lat="48.50758" lon="2.0101">
        <ele>164</ele>
        <time>2017-11-26T08:31:02Z</time>
      </trkpt>
      <trkpt lat="48.50753" lon="2.01016">
        <ele>164</ele>
        <time>2017-11-26T08:31:04Z</time>
      </trkpt>
      <trkpt lat="48.50749" lon="2.01022">
        <ele>163.83</ele>
        <time>2017-11-26T08:31:06Z</time>
      </trkpt>
      <trkpt lat="48.50745" lon="2.01026">
        <ele>162.89</ele>
        <time>2017-11-26T08:31:08Z</time>
      </trkpt>
      <trkpt lat="48.5074" lon="2.01032">
        <ele>162.07</ele>
        <time>2017-11-26T08:31:10Z</time>
      </trkpt>
      <trkpt lat="48.50737" lon="2.01038">
        <ele>161.73</ele>
        <time>2017-11-26T08:31:12Z</time>
      </trkpt>
      <trkpt lat="48.50734" lon="2.01046">
        <ele>161.59</ele>
        <time>2017-11-26T08:31:14Z</time>
      </trkpt>
      <trkpt lat="48.50731" lon="2.01055">
        <ele>161.46</ele>
        <time>2017-11-26T08:31:16Z</time>
      </trkpt>
      <trkpt lat="48.50726" lon="2.01063">
        <ele>161.04</ele>
        <time>2017-11-26T08:31:18Z</time>
      </trkpt>
      <trkpt lat="48.50721" lon="2.01071">
        <ele>160.25</ele>
        <time>2017-11-26T08:31:20Z</time>
      </trkpt>
      <trkpt lat="48.50716" lon="2.0108">
        <ele>158.91</ele>
        <time>2017-11-26T08:31:22Z</time>
      </trkpt>
      <trkpt lat="48.50701" lon="2.01104">
        <ele>154.88</ele>
        <time>2017-11-26T08:31:24Z</time>
      </trkpt>
      <trkpt lat="48.50698" lon="2.01114">
        <ele>153.92</ele>
        <time>2017-11-26T08:31:26Z</time>
      </trkpt>
      <trkpt lat="48.50693" lon="2.01126">
        <ele>152.07</ele>
        <time>2017-11-26T08:31:28Z</time>
      </trkpt>
      <trkpt lat="48.50688" lon="2.01135">
        <ele>150.39</ele>
        <time>2017-11-26T08:31:30Z</time>
      </trkpt>
      <trkpt lat="48.50682" lon="2.01145">
        <ele>149.65</ele>
        <time>2017-11-26T08:31:32Z</time>
      </trkpt>
      <trkpt lat="48.50677" lon="2.01154">
        <ele>150.03</ele>
        <time>2017-11-26T08:31:34Z</time>
      </trkpt>
      <trkpt lat="48.50671" lon="2.01163">
        <ele>150.71</ele>
        <time>2017-11-26T08:31:36Z</time>
      </trkpt>
      <trkpt lat="48.50665" lon="2.01172">
        <ele>151.46</ele>
        <time>2017-11-26T08:31:38Z</time>
      </trkpt>
      <trkpt lat="48.5066" lon="2.01182">
        <ele>151.92</ele>
        <time>2017-11-26T08:31:40Z</time>
      </trkpt>
      <trkpt lat="48.50655" lon="2.01191">
        <ele>152.07</ele>
        <time>2017-11-26T08:31:42Z</time>
      </trkpt>
      <trkpt lat="48.5065" lon="2.012">
        <ele>152.91</ele>
        <time>2017-11-26T08:31:44Z</time>
      </trkpt>
      <trkpt lat="48.50644" lon="2.0121">
        <ele>154.71</ele>
        <time>2017-11-26T08:31:46Z</time>
      </trkpt>
      <trkpt lat="48.50639" lon="2.0122">
        <ele>157.28</ele>
        <time>2017-11-26T08:31:48Z</time>
      </trkpt>
      <trkpt lat="48.50633" lon="2.0123">
        <ele>159.61</ele>
        <time>2017-11-26T08:31:50Z</time>
      </trkpt>
      <trkpt lat="48.50628" lon="2.01244">
        <ele>161.65</ele>
        <time>2017-11-26T08:31:52Z</time>
      </trkpt>
      <trkpt lat="48.50622" lon="2.01251">
        <ele>161.56</ele>
        <time>2017-11-26T08:31:54Z</time>
      </trkpt>
      <trkpt lat="48.50614" lon="2.01264">
        <ele>161.84</ele>
        <time>2017-11-26T08:31:56Z</time>
      </trkpt>
      <trkpt lat="48.50607" lon="2.01273">
        <ele>162.27</ele>
        <time>2017-11-26T08:31:58Z</time>
      </trkpt>
      <trkpt lat="48.50602" lon="2.01281">
        <ele>162.55</ele>
        <time>2017-11-26T08:32:00Z</time>
      </trkpt>
      <trkpt lat="48.50595" lon="2.01292">
        <ele>162.27</ele>
        <time>2017-11-26T08:32:02Z</time>
      </trkpt>
      <trkpt lat="48.50588" lon="2.01303">
        <ele>161.71</ele>
        <time>2017-11-26T08:32:04Z</time>
      </trkpt>
      <trkpt lat="48.50583" lon="2.01314">
        <ele>161.29</ele>
        <time>2017-11-26T08:32:06Z</time>
      </trkpt>
      <trkpt lat="48.50581" lon="2.01321">
        <ele>161.34</ele>
        <time>2017-11-26T08:32:08Z</time>
      </trkpt>
      <trkpt lat="48.50586" lon="2.01328">
        <ele>162.02</ele>
        <time>2017-11-26T08:32:12Z</time>
      </trkpt>
      <trkpt lat="48.50593" lon="2.01329">
        <ele>162.62</ele>
        <time>2017-11-26T08:32:14Z</time>
      </trkpt>
      <trkpt lat="48.50601" lon="2.01329">
        <ele>163.29</ele>
        <time>2017-11-26T08:32:16Z</time>
      </trkpt>
      <trkpt lat="48.50609" lon="2.01329">
        <ele>163.96</ele>
        <time>2017-11-26T08:32:18Z</time>
      </trkpt>
      <trkpt lat="48.50616" lon="2.01328">
        <ele>163.7</ele>
        <time>2017-11-26T08:32:20Z</time>
      </trkpt>
      <trkpt lat="48.50624" lon="2.01329">
        <ele>162.93</ele>
        <time>2017-11-26T08:32:22Z</time>
      </trkpt>
      <trkpt lat="48.50632" lon="2.0133">
        <ele>162.02</ele>
        <time>2017-11-26T08:32:24Z</time>
      </trkpt>
      <trkpt lat="48.5064" lon="2.01332">
        <ele>161.07</ele>
        <time>2017-11-26T08:32:26Z</time>
      </trkpt>
      <trkpt lat="48.50649" lon="2.01333">
        <ele>160.35</ele>
        <time>2017-11-26T08:32:28Z</time>
      </trkpt>
      <trkpt lat="48.5066" lon="2.01335">
        <ele>159.36</ele>
        <time>2017-11-26T08:32:30Z</time>
      </trkpt>
      <trkpt lat="48.50668" lon="2.01338">
        <ele>158.49</ele>
        <time>2017-11-26T08:32:32Z</time>
      </trkpt>
      <trkpt lat="48.50674" lon="2.01344">
        <ele>157.85</ele>
        <time>2017-11-26T08:32:34Z</time>
      </trkpt>
      <trkpt lat="48.50678" lon="2.01349">
        <ele>157.36</ele>
        <time>2017-11-26T08:32:36Z</time>
      </trkpt>
      <trkpt lat="48.50693" lon="2.01353">
        <ele>156.86</ele>
        <time>2017-11-26T08:32:38Z</time>
      </trkpt>
      <trkpt lat="48.50705" lon="2.01352">
        <ele>155.76</ele>
        <time>2017-11-26T08:32:40Z</time>
      </trkpt>
      <trkpt lat="48.50716" lon="2.01351">
        <ele>154.86</ele>
        <time>2017-11-26T08:32:42Z</time>
      </trkpt>
      <trkpt lat="48.50728" lon="2.01351">
        <ele>153.2</ele>
        <time>2017-11-26T08:32:44Z</time>
      </trkpt>
      <trkpt lat="48.50738" lon="2.01349">
        <ele>152.04</ele>
        <time>2017-11-26T08:32:46Z</time>
      </trkpt>
      <trkpt lat="48.50749" lon="2.01346">
        <ele>150.4</ele>
        <time>2017-11-26T08:32:48Z</time>
      </trkpt>
      <trkpt lat="48.50761" lon="2.01349">
        <ele>150.41</ele>
        <time>2017-11-26T08:32:50Z</time>
      </trkpt>
      <trkpt lat="48.50774" lon="2.01343">
        <ele>151.68</ele>
        <time>2017-11-26T08:32:52Z</time>
      </trkpt>
      <trkpt lat="48.50783" lon="2.01346">
        <ele>152.45</ele>
        <time>2017-11-26T08:32:54Z</time>
      </trkpt>
      <trkpt lat="48.5079" lon="2.0134">
        <ele>153.97</ele>
        <time>2017-11-26T08:32:56Z</time>
      </trkpt>
      <trkpt lat="48.50795" lon="2.01337">
        <ele>155.04</ele>
        <time>2017-11-26T08:32:58Z</time>
      </trkpt>
      <trkpt lat="48.508" lon="2.01339">
        <ele>155.51</ele>
        <time>2017-11-26T08:33:00Z</time>
      </trkpt>
      <trkpt lat="48.5081" lon="2.01346">
        <ele>155.96</ele>
        <time>2017-11-26T08:33:02Z</time>
      </trkpt>
      <trkpt lat="48.50814" lon="2.0134">
        <ele>156.84</ele>
        <time>2017-11-26T08:33:04Z</time>
      </trkpt>
      <trkpt lat="48.50819" lon="2.01338">
        <ele>157.49</ele>
        <time>2017-11-26T08:33:06Z</time>
      </trkpt>
      <trkpt lat="48.50823" lon="2.01345">
        <ele>157.02</ele>
        <time>2017-11-26T08:33:10Z</time>
      </trkpt>
      <trkpt lat="48.50827" lon="2.01354">
        <ele>156.29</ele>
        <time>2017-11-26T08:33:12Z</time>
      </trkpt>
      <trkpt lat="48.50832" lon="2.01359">
        <ele>156.12</ele>
        <time>2017-11-26T08:33:14Z</time>
      </trkpt>
      <trkpt lat="48.50839" lon="2.01362">
        <ele>156.31</ele>
        <time>2017-11-26T08:33:16Z</time>
      </trkpt>
      <trkpt lat="48.50849" lon="2.01378">
        <ele>155.9</ele>
        <time>2017-11-26T08:33:18Z</time>
      </trkpt>
      <trkpt lat="48.50853" lon="2.01383">
        <ele>155.84</ele>
        <time>2017-11-26T08:33:20Z</time>
      </trkpt>
      <trkpt lat="48.50859" lon="2.0139">
        <ele>155.79</ele>
        <time>2017-11-26T08:33:22Z</time>
      </trkpt>
      <trkpt lat="48.50864" lon="2.014">
        <ele>155.86</ele>
        <time>2017-11-26T08:33:24Z</time>
      </trkpt>
      <trkpt lat="48.50872" lon="2.01404">
        <ele>156.18</ele>
        <time>2017-11-26T08:33:26Z</time>
      </trkpt>
      <trkpt lat="48.50878" lon="2.01413">
        <ele>155.89</ele>
        <time>2017-11-26T08:33:28Z</time>
      </trkpt>
      <trkpt lat="48.50886" lon="2.01425">
        <ele>155.24</ele>
        <time>2017-11-26T08:33:30Z</time>
      </trkpt>
      <trkpt lat="48.50896" lon="2.01435">
        <ele>153.63</ele>
        <time>2017-11-26T08:33:32Z</time>
      </trkpt>
      <trkpt lat="48.50903" lon="2.01451">
        <ele>151.57</ele>
        <time>2017-11-26T08:33:34Z</time>
      </trkpt>
      <trkpt lat="48.50911" lon="2.01458">
        <ele>150.43</ele>
        <time>2017-11-26T08:33:36Z</time>
      </trkpt>
      <trkpt lat="48.50916" lon="2.01474">
        <ele>150</ele>
        <time>2017-11-26T08:33:38Z</time>
      </trkpt>
      <trkpt lat="48.50924" lon="2.01485">
        <ele>149.46</ele>
        <time>2017-11-26T08:33:40Z</time>
      </trkpt>
      <trkpt lat="48.50933" lon="2.01498">
        <ele>148.36</ele>
        <time>2017-11-26T08:33:42Z</time>
      </trkpt>
      <trkpt lat="48.50941" lon="2.01513">
        <ele>147.7</ele>
        <time>2017-11-26T08:33:44Z</time>
      </trkpt>
      <trkpt lat="48.50946" lon="2.01518">
        <ele>147.65</ele>
        <time>2017-11-26T08:33:45Z</time>
      </trkpt>
      <trkpt lat="48.50955" lon="2.01545">
        <ele>145.81</ele>
        <time>2017-11-26T08:33:48Z</time>
      </trkpt>
      <trkpt lat="48.50958" lon="2.01557">
        <ele>143.91</ele>
        <time>2017-11-26T08:33:50Z</time>
      </trkpt>
      <trkpt lat="48.5096" lon="2.01564">
        <ele>143.23</ele>
        <time>2017-11-26T08:33:56Z</time>
      </trkpt>
      <trkpt lat="48.50965" lon="2.01569">
        <ele>142.29</ele>
        <time>2017-11-26T08:34:00Z</time>
      </trkpt>
      <trkpt lat="48.5097" lon="2.01575">
        <ele>141.55</ele>
        <time>2017-11-26T08:34:08Z</time>
      </trkpt>
      <trkpt lat="48.50971" lon="2.01585">
        <ele>141.05</ele>
        <time>2017-11-26T08:34:09Z</time>
      </trkpt>
      <trkpt lat="48.5097" lon="2.01596">
        <ele>141.1</ele>
        <time>2017-11-26T08:34:14Z</time>
      </trkpt>
      <trkpt lat="48.50968" lon="2.01603">
        <ele>141.09</ele>
        <time>2017-11-26T08:34:16Z</time>
      </trkpt>
      <trkpt lat="48.50969" lon="2.01618">
        <ele>139.96</ele>
        <time>2017-11-26T08:34:18Z</time>
      </trkpt>
      <trkpt lat="48.50972" lon="2.0163">
        <ele>138.26</ele>
        <time>2017-11-26T08:34:20Z</time>
      </trkpt>
      <trkpt lat="48.50967" lon="2.01634">
        <ele>137.52</ele>
        <time>2017-11-26T08:34:21Z</time>
      </trkpt>
      <trkpt lat="48.5096" lon="2.01641">
        <ele>136.39</ele>
        <time>2017-11-26T08:34:24Z</time>
      </trkpt>
      <trkpt lat="48.50954" lon="2.01648">
        <ele>135.33</ele>
        <time>2017-11-26T08:34:26Z</time>
      </trkpt>
      <trkpt lat="48.50954" lon="2.01657">
        <ele>134.41</ele>
        <time>2017-11-26T08:34:28Z</time>
      </trkpt>
      <trkpt lat="48.50954" lon="2.01666">
        <ele>133.45</ele>
        <time>2017-11-26T08:34:30Z</time>
      </trkpt>
      <trkpt lat="48.50945" lon="2.01686">
        <ele>131.58</ele>
        <time>2017-11-26T08:34:33Z</time>
      </trkpt>
      <trkpt lat="48.50942" lon="2.01703">
        <ele>129.63</ele>
        <time>2017-11-26T08:34:36Z</time>
      </trkpt>
      <trkpt lat="48.50938" lon="2.01715">
        <ele>128.14</ele>
        <time>2017-11-26T08:34:38Z</time>
      </trkpt>
      <trkpt lat="48.50932" lon="2.01723">
        <ele>127.7</ele>
        <time>2017-11-26T08:34:40Z</time>
      </trkpt>
      <trkpt lat="48.50926" lon="2.01738">
        <ele>127.38</ele>
        <time>2017-11-26T08:34:42Z</time>
      </trkpt>
      <trkpt lat="48.5092" lon="2.01746">
        <ele>127.75</ele>
        <time>2017-11-26T08:34:44Z</time>
      </trkpt>
      <trkpt lat="48.50918" lon="2.01754">
        <ele>127.55</ele>
        <time>2017-11-26T08:34:45Z</time>
      </trkpt>
      <trkpt lat="48.50915" lon="2.01762">
        <ele>127.27</ele>
        <time>2017-11-26T08:34:48Z</time>
      </trkpt>
      <trkpt lat="48.5091" lon="2.0176">
        <ele>127.79</ele>
        <time>2017-11-26T08:34:52Z</time>
      </trkpt>
      <trkpt lat="48.50904" lon="2.01753">
        <ele>128.39</ele>
        <time>2017-11-26T08:34:56Z</time>
      </trkpt>
      <trkpt lat="48.50874" lon="2.01732">
        <ele>128.37</ele>
        <time>2017-11-26T08:35:10Z</time>
      </trkpt>
      <trkpt lat="48.50864" lon="2.01729">
        <ele>127.39</ele>
        <time>2017-11-26T08:35:13Z</time>
      </trkpt>
      <trkpt lat="48.50854" lon="2.01727">
        <ele>124.76</ele>
        <time>2017-11-26T08:35:15Z</time>
      </trkpt>
      <trkpt lat="48.50845" lon="2.01726">
        <ele>122.04</ele>
        <time>2017-11-26T08:35:17Z</time>
      </trkpt>
      <trkpt lat="48.50837" lon="2.01724">
        <ele>119.4</ele>
        <time>2017-11-26T08:35:19Z</time>
      </trkpt>
      <trkpt lat="48.50831" lon="2.01723">
        <ele>117.93</ele>
        <time>2017-11-26T08:35:23Z</time>
      </trkpt>
      <trkpt lat="48.50825" lon="2.01724">
        <ele>117.3</ele>
        <time>2017-11-26T08:35:27Z</time>
      </trkpt>
      <trkpt lat="48.50819" lon="2.01728">
        <ele>117.01</ele>
        <time>2017-11-26T08:35:31Z</time>
      </trkpt>
      <trkpt lat="48.50813" lon="2.0173">
        <ele>116.54</ele>
        <time>2017-11-26T08:35:35Z</time>
      </trkpt>
      <trkpt lat="48.50806" lon="2.01733">
        <ele>115.8</ele>
        <time>2017-11-26T08:35:39Z</time>
      </trkpt>
      <trkpt lat="48.50801" lon="2.01733">
        <ele>115.39</ele>
        <time>2017-11-26T08:35:41Z</time>
      </trkpt>
      <trkpt lat="48.50796" lon="2.01734">
        <ele>114.93</ele>
        <time>2017-11-26T08:35:43Z</time>
      </trkpt>
      <trkpt lat="48.5079" lon="2.01734">
        <ele>114.41</ele>
        <time>2017-11-26T08:35:45Z</time>
      </trkpt>
      <trkpt lat="48.50784" lon="2.01734">
        <ele>113.82</ele>
        <time>2017-11-26T08:35:47Z</time>
      </trkpt>
      <trkpt lat="48.50779" lon="2.01732">
        <ele>113.15</ele>
        <time>2017-11-26T08:35:49Z</time>
      </trkpt>
      <trkpt lat="48.50774" lon="2.0173">
        <ele>112.01</ele>
        <time>2017-11-26T08:35:51Z</time>
      </trkpt>
      <trkpt lat="48.50768" lon="2.0173">
        <ele>110.87</ele>
        <time>2017-11-26T08:35:53Z</time>
      </trkpt>
      <trkpt lat="48.50762" lon="2.01733">
        <ele>109.98</ele>
        <time>2017-11-26T08:35:55Z</time>
      </trkpt>
      <trkpt lat="48.50755" lon="2.01737">
        <ele>109.22</ele>
        <time>2017-11-26T08:35:57Z</time>
      </trkpt>
      <trkpt lat="48.50747" lon="2.0174">
        <ele>108.61</ele>
        <time>2017-11-26T08:35:59Z</time>
      </trkpt>
      <trkpt lat="48.50741" lon="2.01741">
        <ele>108.65</ele>
        <time>2017-11-26T08:36:01Z</time>
      </trkpt>
      <trkpt lat="48.50735" lon="2.0174">
        <ele>108.58</ele>
        <time>2017-11-26T08:36:03Z</time>
      </trkpt>
      <trkpt lat="48.50729" lon="2.01739">
        <ele>108.26</ele>
        <time>2017-11-26T08:36:05Z</time>
      </trkpt>
      <trkpt lat="48.50721" lon="2.01736">
        <ele>107.67</ele>
        <time>2017-11-26T08:36:07Z</time>
      </trkpt>
      <trkpt lat="48.50716" lon="2.01733">
        <ele>107.99</ele>
        <time>2017-11-26T08:36:09Z</time>
      </trkpt>
      <trkpt lat="48.50711" lon="2.01731">
        <ele>108.52</ele>
        <time>2017-11-26T08:36:11Z</time>
      </trkpt>
      <trkpt lat="48.50705" lon="2.01724">
        <ele>108.59</ele>
        <time>2017-11-26T08:36:15Z</time>
      </trkpt>
      <trkpt lat="48.50699" lon="2.01719">
        <ele>109.39</ele>
        <time>2017-11-26T08:36:19Z</time>
      </trkpt>
      <trkpt lat="48.50695" lon="2.01718">
        <ele>110.3</ele>
        <time>2017-11-26T08:36:21Z</time>
      </trkpt>
      <trkpt lat="48.50689" lon="2.01718">
        <ele>110.27</ele>
        <time>2017-11-26T08:36:23Z</time>
      </trkpt>
      <trkpt lat="48.50683" lon="2.01717">
        <ele>110.02</ele>
        <time>2017-11-26T08:36:25Z</time>
      </trkpt>
      <trkpt lat="48.50678" lon="2.01716">
        <ele>109.89</ele>
        <time>2017-11-26T08:36:27Z</time>
      </trkpt>
      <trkpt lat="48.50674" lon="2.01715">
        <ele>109.52</ele>
        <time>2017-11-26T08:36:29Z</time>
      </trkpt>
      <trkpt lat="48.50669" lon="2.01713">
        <ele>109.15</ele>
        <time>2017-11-26T08:36:31Z</time>
      </trkpt>
      <trkpt lat="48.50664" lon="2.01712">
        <ele>109.33</ele>
        <time>2017-11-26T08:36:33Z</time>
      </trkpt>
      <trkpt lat="48.50656" lon="2.01715">
        <ele>111.63</ele>
        <time>2017-11-26T08:36:37Z</time>
      </trkpt>
      <trkpt lat="48.50648" lon="2.01719">
        <ele>113.91</ele>
        <time>2017-11-26T08:36:41Z</time>
      </trkpt>
      <trkpt lat="48.50643" lon="2.01721">
        <ele>115.07</ele>
        <time>2017-11-26T08:36:43Z</time>
      </trkpt>
      <trkpt lat="48.50639" lon="2.01723">
        <ele>116.17</ele>
        <time>2017-11-26T08:36:45Z</time>
      </trkpt>
      <trkpt lat="48.50633" lon="2.01724">
        <ele>119.38</ele>
        <time>2017-11-26T08:36:47Z</time>
      </trkpt>
      <trkpt lat="48.50622" lon="2.01724">
        <ele>124.31</ele>
        <time>2017-11-26T08:36:49Z</time>
      </trkpt>
      <trkpt lat="48.50609" lon="2.01721">
        <ele>129.6</ele>
        <time>2017-11-26T08:36:51Z</time>
      </trkpt>
      <trkpt lat="48.50587" lon="2.01714">
        <ele>134.6</ele>
        <time>2017-11-26T08:36:53Z</time>
      </trkpt>
      <trkpt lat="48.50579" lon="2.0171">
        <ele>136.98</ele>
        <time>2017-11-26T08:36:55Z</time>
      </trkpt>
      <trkpt lat="48.5057" lon="2.01702">
        <ele>140.33</ele>
        <time>2017-11-26T08:36:57Z</time>
      </trkpt>
      <trkpt lat="48.50561" lon="2.01696">
        <ele>144.59</ele>
        <time>2017-11-26T08:36:59Z</time>
      </trkpt>
      <trkpt lat="48.50557" lon="2.01691">
        <ele>145.78</ele>
        <time>2017-11-26T08:37:01Z</time>
      </trkpt>
      <trkpt lat="48.50552" lon="2.01683">
        <ele>145.51</ele>
        <time>2017-11-26T08:37:05Z</time>
      </trkpt>
      <trkpt lat="48.50546" lon="2.01681">
        <ele>145.01</ele>
        <time>2017-11-26T08:37:07Z</time>
      </trkpt>
      <trkpt lat="48.50542" lon="2.01678">
        <ele>144.38</ele>
        <time>2017-11-26T08:37:09Z</time>
      </trkpt>
      <trkpt lat="48.50535" lon="2.01672">
        <ele>143.22</ele>
        <time>2017-11-26T08:37:13Z</time>
      </trkpt>
      <trkpt lat="48.50527" lon="2.01665">
        <ele>142</ele>
        <time>2017-11-26T08:37:17Z</time>
      </trkpt>
      <trkpt lat="48.50523" lon="2.01661">
        <ele>141.67</ele>
        <time>2017-11-26T08:37:19Z</time>
      </trkpt>
      <trkpt lat="48.50519" lon="2.01657">
        <ele>141.25</ele>
        <time>2017-11-26T08:37:21Z</time>
      </trkpt>
      <trkpt lat="48.50514" lon="2.01654">
        <ele>140.6</ele>
        <time>2017-11-26T08:37:23Z</time>
      </trkpt>
      <trkpt lat="48.5051" lon="2.01651">
        <ele>139.77</ele>
        <time>2017-11-26T08:37:25Z</time>
      </trkpt>
      <trkpt lat="48.50504" lon="2.01646">
        <ele>138.42</ele>
        <time>2017-11-26T08:37:29Z</time>
      </trkpt>
      <trkpt lat="48.50496" lon="2.01639">
        <ele>137.63</ele>
        <time>2017-11-26T08:37:33Z</time>
      </trkpt>
      <trkpt lat="48.50486" lon="2.01632">
        <ele>138.25</ele>
        <time>2017-11-26T08:37:35Z</time>
      </trkpt>
      <trkpt lat="48.50459" lon="2.01615">
        <ele>139.01</ele>
        <time>2017-11-26T08:37:37Z</time>
      </trkpt>
      <trkpt lat="48.50458" lon="2.01605">
        <ele>138.05</ele>
        <time>2017-11-26T08:37:39Z</time>
      </trkpt>
      <trkpt lat="48.5045" lon="2.01602">
        <ele>137.97</ele>
        <time>2017-11-26T08:37:41Z</time>
      </trkpt>
      <trkpt lat="48.50443" lon="2.01599">
        <ele>137.87</ele>
        <time>2017-11-26T08:37:43Z</time>
      </trkpt>
      <trkpt lat="48.50436" lon="2.01598">
        <ele>138.5</ele>
        <time>2017-11-26T08:37:45Z</time>
      </trkpt>
      <trkpt lat="48.50427" lon="2.01593">
        <ele>138.93</ele>
        <time>2017-11-26T08:37:47Z</time>
      </trkpt>
      <trkpt lat="48.50419" lon="2.01588">
        <ele>139.2</ele>
        <time>2017-11-26T08:37:49Z</time>
      </trkpt>
      <trkpt lat="48.50413" lon="2.01584">
        <ele>139.74</ele>
        <time>2017-11-26T08:37:51Z</time>
      </trkpt>
      <trkpt lat="48.50407" lon="2.01581">
        <ele>140.75</ele>
        <time>2017-11-26T08:37:53Z</time>
      </trkpt>
      <trkpt lat="48.50401" lon="2.01578">
        <ele>141.41</ele>
        <time>2017-11-26T08:37:55Z</time>
      </trkpt>
      <trkpt lat="48.50397" lon="2.01575">
        <ele>141.85</ele>
        <time>2017-11-26T08:38:01Z</time>
      </trkpt>
      <trkpt lat="48.50397" lon="2.01564">
        <ele>140.77</ele>
        <time>2017-11-26T08:38:09Z</time>
      </trkpt>
      <trkpt lat="48.50394" lon="2.01556">
        <ele>140.06</ele>
        <time>2017-11-26T08:38:13Z</time>
      </trkpt>
      <trkpt lat="48.50391" lon="2.01551">
        <ele>139.65</ele>
        <time>2017-11-26T08:38:21Z</time>
      </trkpt>
      <trkpt lat="48.50387" lon="2.01544">
        <ele>139.22</ele>
        <time>2017-11-26T08:38:31Z</time>
      </trkpt>
      <trkpt lat="48.50382" lon="2.01541">
        <ele>139.24</ele>
        <time>2017-11-26T08:38:35Z</time>
      </trkpt>
      <trkpt lat="48.50376" lon="2.0154">
        <ele>139.46</ele>
        <time>2017-11-26T08:38:39Z</time>
      </trkpt>
      <trkpt lat="48.50371" lon="2.01539">
        <ele>139.68</ele>
        <time>2017-11-26T08:38:43Z</time>
      </trkpt>
      <trkpt lat="48.50367" lon="2.01536">
        <ele>140.05</ele>
        <time>2017-11-26T08:38:47Z</time>
      </trkpt>
      <trkpt lat="48.50362" lon="2.01533">
        <ele>140.54</ele>
        <time>2017-11-26T08:38:51Z</time>
      </trkpt>
      <trkpt lat="48.50357" lon="2.01528">
        <ele>140.69</ele>
        <time>2017-11-26T08:38:55Z</time>
      </trkpt>
      <trkpt lat="48.50351" lon="2.01519">
        <ele>138.9</ele>
        <time>2017-11-26T08:38:59Z</time>
      </trkpt>
      <trkpt lat="48.50353" lon="2.01506">
        <ele>137.11</ele>
        <time>2017-11-26T08:39:03Z</time>
      </trkpt>
      <trkpt lat="48.50355" lon="2.01497">
        <ele>136.58</ele>
        <time>2017-11-26T08:39:05Z</time>
      </trkpt>
      <trkpt lat="48.50358" lon="2.01489">
        <ele>136.76</ele>
        <time>2017-11-26T08:39:07Z</time>
      </trkpt>
      <trkpt lat="48.5036" lon="2.01481">
        <ele>137.02</ele>
        <time>2017-11-26T08:39:11Z</time>
      </trkpt>
      <trkpt lat="48.5036" lon="2.01472">
        <ele>136.79</ele>
        <time>2017-11-26T08:39:17Z</time>
      </trkpt>
      <trkpt lat="48.50363" lon="2.01464">
        <ele>137.56</ele>
        <time>2017-11-26T08:39:21Z</time>
      </trkpt>
      <trkpt lat="48.50367" lon="2.01458">
        <ele>138.52</ele>
        <time>2017-11-26T08:41:08Z</time>
      </trkpt>
      <trkpt lat="48.5037" lon="2.0145">
        <ele>139.48</ele>
        <time>2017-11-26T08:41:12Z</time>
      </trkpt>
      <trkpt lat="48.50374" lon="2.0144">
        <ele>140.87</ele>
        <time>2017-11-26T08:41:18Z</time>
      </trkpt>
      <trkpt lat="48.50378" lon="2.01432">
        <ele>142.29</ele>
        <time>2017-11-26T08:41:22Z</time>
      </trkpt>
      <trkpt lat="48.50382" lon="2.01425">
        <ele>143.97</ele>
        <time>2017-11-26T08:41:26Z</time>
      </trkpt>
      <trkpt lat="48.50384" lon="2.01419">
        <ele>145.14</ele>
        <time>2017-11-26T08:41:30Z</time>
      </trkpt>
      <trkpt lat="48.50387" lon="2.01412">
        <ele>146.1</ele>
        <time>2017-11-26T08:41:34Z</time>
      </trkpt>
      <trkpt lat="48.5039" lon="2.01406">
        <ele>146.87</ele>
        <time>2017-11-26T08:41:38Z</time>
      </trkpt>
      <trkpt lat="48.50393" lon="2.01398">
        <ele>147.1</ele>
        <time>2017-11-26T08:41:42Z</time>
      </trkpt>
      <trkpt lat="48.50395" lon="2.01391">
        <ele>147.18</ele>
        <time>2017-11-26T08:41:46Z</time>
      </trkpt>
      <trkpt lat="48.50397" lon="2.01381">
        <ele>147.73</ele>
        <time>2017-11-26T08:41:52Z</time>
      </trkpt>
      <trkpt lat="48.50401" lon="2.01372">
        <ele>148.44</ele>
        <time>2017-11-26T08:41:56Z</time>
      </trkpt>
      <trkpt lat="48.50406" lon="2.01363">
        <ele>149.39</ele>
        <time>2017-11-26T08:42:00Z</time>
      </trkpt>
      <trkpt lat="48.50409" lon="2.01355">
        <ele>150.29</ele>
        <time>2017-11-26T08:42:04Z</time>
      </trkpt>
      <trkpt lat="48.50413" lon="2.01348">
        <ele>151.31</ele>
        <time>2017-11-26T08:42:08Z</time>
      </trkpt>
      <trkpt lat="48.50416" lon="2.0134">
        <ele>152.42</ele>
        <time>2017-11-26T08:42:12Z</time>
      </trkpt>
      <trkpt lat="48.50419" lon="2.01331">
        <ele>153</ele>
        <time>2017-11-26T08:42:16Z</time>
      </trkpt>
      <trkpt lat="48.50422" lon="2.01322">
        <ele>153.21</ele>
        <time>2017-11-26T08:42:20Z</time>
      </trkpt>
      <trkpt lat="48.50424" lon="2.01313">
        <ele>153.48</ele>
        <time>2017-11-26T08:42:24Z</time>
      </trkpt>
      <trkpt lat="48.50425" lon="2.01305">
        <ele>153.69</ele>
        <time>2017-11-26T08:42:26Z</time>
      </trkpt>
      <trkpt lat="48.50424" lon="2.01294">
        <ele>153.85</ele>
        <time>2017-11-26T08:42:30Z</time>
      </trkpt>
      <trkpt lat="48.50423" lon="2.01286">
        <ele>153.93</ele>
        <time>2017-11-26T08:42:34Z</time>
      </trkpt>
      <trkpt lat="48.50423" lon="2.01278">
        <ele>154</ele>
        <time>2017-11-26T08:42:38Z</time>
      </trkpt>
      <trkpt lat="48.50421" lon="2.01269">
        <ele>154.61</ele>
        <time>2017-11-26T08:42:42Z</time>
      </trkpt>
      <trkpt lat="48.5042" lon="2.0126">
        <ele>155.22</ele>
        <time>2017-11-26T08:42:46Z</time>
      </trkpt>
      <trkpt lat="48.50419" lon="2.01251">
        <ele>155.87</ele>
        <time>2017-11-26T08:42:50Z</time>
      </trkpt>
      <trkpt lat="48.50419" lon="2.01242">
        <ele>155.92</ele>
        <time>2017-11-26T08:42:54Z</time>
      </trkpt>
      <trkpt lat="48.50421" lon="2.01233">
        <ele>155.85</ele>
        <time>2017-11-26T08:42:58Z</time>
      </trkpt>
      <trkpt lat="48.50424" lon="2.01223">
        <ele>155.73</ele>
        <time>2017-11-26T08:43:02Z</time>
      </trkpt>
      <trkpt lat="48.50428" lon="2.01213">
        <ele>155.23</ele>
        <time>2017-11-26T08:43:06Z</time>
      </trkpt>
      <trkpt lat="48.50429" lon="2.01203">
        <ele>154.67</ele>
        <time>2017-11-26T08:43:10Z</time>
      </trkpt>
      <trkpt lat="48.50431" lon="2.01191">
        <ele>153.87</ele>
        <time>2017-11-26T08:43:14Z</time>
      </trkpt>
      <trkpt lat="48.50434" lon="2.01184">
        <ele>153.51</ele>
        <time>2017-11-26T08:43:16Z</time>
      </trkpt>
      <trkpt lat="48.50437" lon="2.01177">
        <ele>153.03</ele>
        <time>2017-11-26T08:43:18Z</time>
      </trkpt>
      <trkpt lat="48.5044" lon="2.01169">
        <ele>152.59</ele>
        <time>2017-11-26T08:43:20Z</time>
      </trkpt>
      <trkpt lat="48.50443" lon="2.01162">
        <ele>152.39</ele>
        <time>2017-11-26T08:43:22Z</time>
      </trkpt>
      <trkpt lat="48.50445" lon="2.01154">
        <ele>152.44</ele>
        <time>2017-11-26T08:43:24Z</time>
      </trkpt>
      <trkpt lat="48.50446" lon="2.01148">
        <ele>152.73</ele>
        <time>2017-11-26T08:43:26Z</time>
      </trkpt>
      <trkpt lat="48.50447" lon="2.01135">
        <ele>153.27</ele>
        <time>2017-11-26T08:43:30Z</time>
      </trkpt>
      <trkpt lat="48.5045" lon="2.01123">
        <ele>153.88</ele>
        <time>2017-11-26T08:43:34Z</time>
      </trkpt>
      <trkpt lat="48.50452" lon="2.0111">
        <ele>154.5</ele>
        <time>2017-11-26T08:43:38Z</time>
      </trkpt>
      <trkpt lat="48.50454" lon="2.01098">
        <ele>153.59</ele>
        <time>2017-11-26T08:43:42Z</time>
      </trkpt>
      <trkpt lat="48.50456" lon="2.01085">
        <ele>152.61</ele>
        <time>2017-11-26T08:43:46Z</time>
      </trkpt>
      <trkpt lat="48.50458" lon="2.01077">
        <ele>152.28</ele>
        <time>2017-11-26T08:43:48Z</time>
      </trkpt>
      <trkpt lat="48.5046" lon="2.01069">
        <ele>152.04</ele>
        <time>2017-11-26T08:43:50Z</time>
      </trkpt>
      <trkpt lat="48.50462" lon="2.01061">
        <ele>151.82</ele>
        <time>2017-11-26T08:43:52Z</time>
      </trkpt>
      <trkpt lat="48.50465" lon="2.01052">
        <ele>151.51</ele>
        <time>2017-11-26T08:43:54Z</time>
      </trkpt>
      <trkpt lat="48.50467" lon="2.01043">
        <ele>151.02</ele>
        <time>2017-11-26T08:43:56Z</time>
      </trkpt>
      <trkpt lat="48.50469" lon="2.01035">
        <ele>150.49</ele>
        <time>2017-11-26T08:43:58Z</time>
      </trkpt>
      <trkpt lat="48.5047" lon="2.01027">
        <ele>149.93</ele>
        <time>2017-11-26T08:44:00Z</time>
      </trkpt>
      <trkpt lat="48.50471" lon="2.01019">
        <ele>149.35</ele>
        <time>2017-11-26T08:44:02Z</time>
      </trkpt>
      <trkpt lat="48.50472" lon="2.0101">
        <ele>148.74</ele>
        <time>2017-11-26T08:44:04Z</time>
      </trkpt>
      <trkpt lat="48.50474" lon="2.01002">
        <ele>148.36</ele>
        <time>2017-11-26T08:44:06Z</time>
      </trkpt>
      <trkpt lat="48.50475" lon="2.00994">
        <ele>148.46</ele>
        <time>2017-11-26T08:44:08Z</time>
      </trkpt>
      <trkpt lat="48.50477" lon="2.00986">
        <ele>148.69</ele>
        <time>2017-11-26T08:44:10Z</time>
      </trkpt>
      <trkpt lat="48.50479" lon="2.00978">
        <ele>148.9</ele>
        <time>2017-11-26T08:44:12Z</time>
      </trkpt>
      <trkpt lat="48.50479" lon="2.0097">
        <ele>149.06</ele>
        <time>2017-11-26T08:44:14Z</time>
      </trkpt>
      <trkpt lat="48.5048" lon="2.00962">
        <ele>149.27</ele>
        <time>2017-11-26T08:44:16Z</time>
      </trkpt>
      <trkpt lat="48.50482" lon="2.00954">
        <ele>149.57</ele>
        <time>2017-11-26T08:44:18Z</time>
      </trkpt>
      <trkpt lat="48.50483" lon="2.00946">
        <ele>149.93</ele>
        <time>2017-11-26T08:44:20Z</time>
      </trkpt>
      <trkpt lat="48.50484" lon="2.00939">
        <ele>150.59</ele>
        <time>2017-11-26T08:44:22Z</time>
      </trkpt>
      <trkpt lat="48.50485" lon="2.00933">
        <ele>151.29</ele>
        <time>2017-11-26T08:44:24Z</time>
      </trkpt>
      <trkpt lat="48.50489" lon="2.00918">
        <ele>152.32</ele>
        <time>2017-11-26T08:44:28Z</time>
      </trkpt>
      <trkpt lat="48.50486" lon="2.0091">
        <ele>151.75</ele>
        <time>2017-11-26T08:44:30Z</time>
      </trkpt>
      <trkpt lat="48.5049" lon="2.00904">
        <ele>150.93</ele>
        <time>2017-11-26T08:44:32Z</time>
      </trkpt>
      <trkpt lat="48.50491" lon="2.00897">
        <ele>149.89</ele>
        <time>2017-11-26T08:44:34Z</time>
      </trkpt>
      <trkpt lat="48.50492" lon="2.0089">
        <ele>148.92</ele>
        <time>2017-11-26T08:44:36Z</time>
      </trkpt>
      <trkpt lat="48.50494" lon="2.00882">
        <ele>148.82</ele>
        <time>2017-11-26T08:44:38Z</time>
      </trkpt>
      <trkpt lat="48.50495" lon="2.00874">
        <ele>148.9</ele>
        <time>2017-11-26T08:44:40Z</time>
      </trkpt>
      <trkpt lat="48.50496" lon="2.00866">
        <ele>149.03</ele>
        <time>2017-11-26T08:44:42Z</time>
      </trkpt>
      <trkpt lat="48.50497" lon="2.00858">
        <ele>149.19</ele>
        <time>2017-11-26T08:44:44Z</time>
      </trkpt>
      <trkpt lat="48.50498" lon="2.00851">
        <ele>149.39</ele>
        <time>2017-11-26T08:44:46Z</time>
      </trkpt>
      <trkpt lat="48.505" lon="2.00843">
        <ele>149.65</ele>
        <time>2017-11-26T08:44:48Z</time>
      </trkpt>
      <trkpt lat="48.50501" lon="2.00836">
        <ele>150.02</ele>
        <time>2017-11-26T08:44:50Z</time>
      </trkpt>
      <trkpt lat="48.50503" lon="2.00828">
        <ele>149.88</ele>
        <time>2017-11-26T08:44:52Z</time>
      </trkpt>
      <trkpt lat="48.50504" lon="2.0082">
        <ele>149.59</ele>
        <time>2017-11-26T08:44:54Z</time>
      </trkpt>
      <trkpt lat="48.50505" lon="2.00813">
        <ele>149.38</ele>
        <time>2017-11-26T08:44:56Z</time>
      </trkpt>
      <trkpt lat="48.50506" lon="2.00806">
        <ele>149.33</ele>
        <time>2017-11-26T08:44:58Z</time>
      </trkpt>
      <trkpt lat="48.50507" lon="2.00799">
        <ele>150.05</ele>
        <time>2017-11-26T08:45:00Z</time>
      </trkpt>
      <trkpt lat="48.50509" lon="2.00792">
        <ele>150.62</ele>
        <time>2017-11-26T08:45:02Z</time>
      </trkpt>
      <trkpt lat="48.5051" lon="2.00784">
        <ele>151.03</ele>
        <time>2017-11-26T08:45:04Z</time>
      </trkpt>
      <trkpt lat="48.50511" lon="2.00776">
        <ele>151.36</ele>
        <time>2017-11-26T08:45:06Z</time>
      </trkpt>
      <trkpt lat="48.50512" lon="2.00768">
        <ele>151.99</ele>
        <time>2017-11-26T08:45:08Z</time>
      </trkpt>
      <trkpt lat="48.50513" lon="2.00761">
        <ele>152.62</ele>
        <time>2017-11-26T08:45:10Z</time>
      </trkpt>
      <trkpt lat="48.50514" lon="2.00753">
        <ele>153.23</ele>
        <time>2017-11-26T08:45:12Z</time>
      </trkpt>
      <trkpt lat="48.50515" lon="2.00745">
        <ele>153.42</ele>
        <time>2017-11-26T08:45:14Z</time>
      </trkpt>
      <trkpt lat="48.50517" lon="2.00738">
        <ele>153.31</ele>
        <time>2017-11-26T08:45:16Z</time>
      </trkpt>
      <trkpt lat="48.50518" lon="2.0073">
        <ele>153.14</ele>
        <time>2017-11-26T08:45:18Z</time>
      </trkpt>
      <trkpt lat="48.50519" lon="2.00723">
        <ele>152.84</ele>
        <time>2017-11-26T08:45:20Z</time>
      </trkpt>
      <trkpt lat="48.50521" lon="2.00715">
        <ele>152.63</ele>
        <time>2017-11-26T08:45:22Z</time>
      </trkpt>
      <trkpt lat="48.50522" lon="2.00707">
        <ele>152.43</ele>
        <time>2017-11-26T08:45:24Z</time>
      </trkpt>
      <trkpt lat="48.50523" lon="2.007">
        <ele>152.24</ele>
        <time>2017-11-26T08:45:26Z</time>
      </trkpt>
      <trkpt lat="48.50524" lon="2.00692">
        <ele>151.91</ele>
        <time>2017-11-26T08:45:28Z</time>
      </trkpt>
      <trkpt lat="48.50526" lon="2.00684">
        <ele>151.52</ele>
        <time>2017-11-26T08:45:30Z</time>
      </trkpt>
      <trkpt lat="48.50527" lon="2.00676">
        <ele>151.17</ele>
        <time>2017-11-26T08:45:32Z</time>
      </trkpt>
      <trkpt lat="48.50528" lon="2.00668">
        <ele>151.04</ele>
        <time>2017-11-26T08:45:34Z</time>
      </trkpt>
      <trkpt lat="48.50531" lon="2.00653">
        <ele>153.15</ele>
        <time>2017-11-26T08:45:38Z</time>
      </trkpt>
      <trkpt lat="48.50533" lon="2.00644">
        <ele>154.35</ele>
        <time>2017-11-26T08:45:40Z</time>
      </trkpt>
      <trkpt lat="48.50534" lon="2.00635">
        <ele>154.74</ele>
        <time>2017-11-26T08:45:42Z</time>
      </trkpt>
      <trkpt lat="48.50535" lon="2.00627">
        <ele>154.14</ele>
        <time>2017-11-26T08:45:44Z</time>
      </trkpt>
      <trkpt lat="48.50537" lon="2.00618">
        <ele>153.5</ele>
        <time>2017-11-26T08:45:46Z</time>
      </trkpt>
      <trkpt lat="48.50539" lon="2.006">
        <ele>152.59</ele>
        <time>2017-11-26T08:45:50Z</time>
      </trkpt>
      <trkpt lat="48.50541" lon="2.00591">
        <ele>152.29</ele>
        <time>2017-11-26T08:45:52Z</time>
      </trkpt>
      <trkpt lat="48.50542" lon="2.00583">
        <ele>152.01</ele>
        <time>2017-11-26T08:45:54Z</time>
      </trkpt>
      <trkpt lat="48.50543" lon="2.00575">
        <ele>152.25</ele>
        <time>2017-11-26T08:45:56Z</time>
      </trkpt>
      <trkpt lat="48.50544" lon="2.00568">
        <ele>152.39</ele>
        <time>2017-11-26T08:45:58Z</time>
      </trkpt>
      <trkpt lat="48.50545" lon="2.00552">
        <ele>152.4</ele>
        <time>2017-11-26T08:46:02Z</time>
      </trkpt>
      <trkpt lat="48.50546" lon="2.00545">
        <ele>152.06</ele>
        <time>2017-11-26T08:46:04Z</time>
      </trkpt>
      <trkpt lat="48.50548" lon="2.00537">
        <ele>151.76</ele>
        <time>2017-11-26T08:46:06Z</time>
      </trkpt>
      <trkpt lat="48.50549" lon="2.0053">
        <ele>151.5</ele>
        <time>2017-11-26T08:46:08Z</time>
      </trkpt>
      <trkpt lat="48.50551" lon="2.00522">
        <ele>151.94</ele>
        <time>2017-11-26T08:46:10Z</time>
      </trkpt>
      <trkpt lat="48.50553" lon="2.00508">
        <ele>153.31</ele>
        <time>2017-11-26T08:46:14Z</time>
      </trkpt>
      <trkpt lat="48.50554" lon="2.005">
        <ele>154.04</ele>
        <time>2017-11-26T08:46:16Z</time>
      </trkpt>
      <trkpt lat="48.50555" lon="2.00493">
        <ele>155.07</ele>
        <time>2017-11-26T08:46:18Z</time>
      </trkpt>
      <trkpt lat="48.50557" lon="2.00485">
        <ele>156.41</ele>
        <time>2017-11-26T08:46:20Z</time>
      </trkpt>
      <trkpt lat="48.50558" lon="2.00478">
        <ele>157.56</ele>
        <time>2017-11-26T08:46:22Z</time>
      </trkpt>
      <trkpt lat="48.5056" lon="2.00462">
        <ele>159.21</ele>
        <time>2017-11-26T08:46:26Z</time>
      </trkpt>
      <trkpt lat="48.50561" lon="2.00454">
        <ele>159.85</ele>
        <time>2017-11-26T08:46:28Z</time>
      </trkpt>
      <trkpt lat="48.50562" lon="2.00446">
        <ele>160.41</ele>
        <time>2017-11-26T08:46:30Z</time>
      </trkpt>
      <trkpt lat="48.50563" lon="2.00438">
        <ele>160.27</ele>
        <time>2017-11-26T08:46:32Z</time>
      </trkpt>
      <trkpt lat="48.50565" lon="2.00431">
        <ele>159.86</ele>
        <time>2017-11-26T08:46:34Z</time>
      </trkpt>
      <trkpt lat="48.50568" lon="2.00415">
        <ele>158.75</ele>
        <time>2017-11-26T08:46:38Z</time>
      </trkpt>
      <trkpt lat="48.5057" lon="2.00407">
        <ele>158.45</ele>
        <time>2017-11-26T08:46:40Z</time>
      </trkpt>
      <trkpt lat="48.50571" lon="2.00399">
        <ele>158.24</ele>
        <time>2017-11-26T08:46:42Z</time>
      </trkpt>
      <trkpt lat="48.50573" lon="2.00391">
        <ele>158.14</ele>
        <time>2017-11-26T08:46:44Z</time>
      </trkpt>
      <trkpt lat="48.50574" lon="2.00382">
        <ele>158.38</ele>
        <time>2017-11-26T08:46:46Z</time>
      </trkpt>
      <trkpt lat="48.50575" lon="2.00372">
        <ele>158.76</ele>
        <time>2017-11-26T08:46:47Z</time>
      </trkpt>
      <trkpt lat="48.50578" lon="2.00359">
        <ele>159.34</ele>
        <time>2017-11-26T08:46:50Z</time>
      </trkpt>
      <trkpt lat="48.5058" lon="2.00347">
        <ele>160.14</ele>
        <time>2017-11-26T08:46:52Z</time>
      </trkpt>
      <trkpt lat="48.50582" lon="2.00336">
        <ele>160.85</ele>
        <time>2017-11-26T08:46:54Z</time>
      </trkpt>
      <trkpt lat="48.50585" lon="2.00325">
        <ele>160.87</ele>
        <time>2017-11-26T08:46:56Z</time>
      </trkpt>
      <trkpt lat="48.50588" lon="2.00315">
        <ele>160.96</ele>
        <time>2017-11-26T08:46:58Z</time>
      </trkpt>
      <trkpt lat="48.50591" lon="2.00304">
        <ele>161.01</ele>
        <time>2017-11-26T08:46:59Z</time>
      </trkpt>
      <trkpt lat="48.50595" lon="2.00293">
        <ele>160.15</ele>
        <time>2017-11-26T08:47:02Z</time>
      </trkpt>
      <trkpt lat="48.50598" lon="2.00283">
        <ele>159.24</ele>
        <time>2017-11-26T08:47:04Z</time>
      </trkpt>
      <trkpt lat="48.50602" lon="2.00274">
        <ele>158.28</ele>
        <time>2017-11-26T08:47:06Z</time>
      </trkpt>
      <trkpt lat="48.50605" lon="2.00265">
        <ele>157.61</ele>
        <time>2017-11-26T08:47:08Z</time>
      </trkpt>
      <trkpt lat="48.50608" lon="2.00255">
        <ele>157.09</ele>
        <time>2017-11-26T08:47:10Z</time>
      </trkpt>
      <trkpt lat="48.50611" lon="2.00248">
        <ele>156.62</ele>
        <time>2017-11-26T08:47:11Z</time>
      </trkpt>
      <trkpt lat="48.50615" lon="2.00239">
        <ele>156.22</ele>
        <time>2017-11-26T08:47:14Z</time>
      </trkpt>
      <trkpt lat="48.5062" lon="2.00231">
        <ele>156.27</ele>
        <time>2017-11-26T08:47:16Z</time>
      </trkpt>
      <trkpt lat="48.50625" lon="2.00223">
        <ele>156.49</ele>
        <time>2017-11-26T08:47:18Z</time>
      </trkpt>
      <trkpt lat="48.5063" lon="2.00214">
        <ele>157.2</ele>
        <time>2017-11-26T08:47:20Z</time>
      </trkpt>
      <trkpt lat="48.50636" lon="2.002">
        <ele>157.1</ele>
        <time>2017-11-26T08:47:22Z</time>
      </trkpt>
      <trkpt lat="48.50654" lon="2.00094">
        <ele>142.83</ele>
        <time>2017-11-26T08:47:36Z</time>
      </trkpt>
      <trkpt lat="48.50659" lon="2.00068">
        <ele>138.38</ele>
        <time>2017-11-26T08:47:39Z</time>
      </trkpt>
      <trkpt lat="48.50663" lon="2.00056">
        <ele>136.04</ele>
        <time>2017-11-26T08:47:41Z</time>
      </trkpt>
      <trkpt lat="48.50668" lon="2.00042">
        <ele>133.54</ele>
        <time>2017-11-26T08:47:43Z</time>
      </trkpt>
      <trkpt lat="48.50673" lon="2.00025">
        <ele>130.6</ele>
        <time>2017-11-26T08:47:45Z</time>
      </trkpt>
      <trkpt lat="48.50679" lon="2.00014">
        <ele>128.25</ele>
        <time>2017-11-26T08:47:47Z</time>
      </trkpt>
      <trkpt lat="48.50684" lon="2.00001">
        <ele>125.67</ele>
        <time>2017-11-26T08:47:49Z</time>
      </trkpt>
      <trkpt lat="48.5069" lon="1.99988">
        <ele>127.76</ele>
        <time>2017-11-26T08:47:51Z</time>
      </trkpt>
      <trkpt lat="48.50695" lon="1.99973">
        <ele>125.96</ele>
        <time>2017-11-26T08:47:53Z</time>
      </trkpt>
      <trkpt lat="48.50703" lon="1.9996">
        <ele>124.68</ele>
        <time>2017-11-26T08:47:55Z</time>
      </trkpt>
      <trkpt lat="48.50707" lon="1.99943">
        <ele>122.19</ele>
        <time>2017-11-26T08:47:57Z</time>
      </trkpt>
      <trkpt lat="48.50708" lon="1.99927">
        <ele>119.37</ele>
        <time>2017-11-26T08:47:59Z</time>
      </trkpt>
      <trkpt lat="48.50713" lon="1.99911">
        <ele>117.28</ele>
        <time>2017-11-26T08:48:01Z</time>
      </trkpt>
      <trkpt lat="48.50718" lon="1.99898">
        <ele>116.03</ele>
        <time>2017-11-26T08:48:03Z</time>
      </trkpt>
      <trkpt lat="48.50724" lon="1.99887">
        <ele>115.14</ele>
        <time>2017-11-26T08:48:05Z</time>
      </trkpt>
      <trkpt lat="48.50729" lon="1.99875">
        <ele>113.84</ele>
        <time>2017-11-26T08:48:07Z</time>
      </trkpt>
      <trkpt lat="48.50724" lon="1.99869">
        <ele>112.61</ele>
        <time>2017-11-26T08:48:11Z</time>
      </trkpt>
      <trkpt lat="48.50717" lon="1.99869">
        <ele>112.15</ele>
        <time>2017-11-26T08:48:13Z</time>
      </trkpt>
      <trkpt lat="48.50711" lon="1.9987">
        <ele>111.81</ele>
        <time>2017-11-26T08:48:15Z</time>
      </trkpt>
      <trkpt lat="48.50704" lon="1.99879">
        <ele>112.37</ele>
        <time>2017-11-26T08:48:17Z</time>
      </trkpt>
      <trkpt lat="48.50696" lon="1.99889">
        <ele>112.96</ele>
        <time>2017-11-26T08:48:19Z</time>
      </trkpt>
      <trkpt lat="48.50691" lon="1.99894">
        <ele>113.08</ele>
        <time>2017-11-26T08:48:21Z</time>
      </trkpt>
      <trkpt lat="48.50686" lon="1.99899">
        <ele>113.09</ele>
        <time>2017-11-26T08:48:23Z</time>
      </trkpt>
      <trkpt lat="48.5068" lon="1.99908">
        <ele>113.51</ele>
        <time>2017-11-26T08:48:25Z</time>
      </trkpt>
      <trkpt lat="48.50676" lon="1.99913">
        <ele>113.67</ele>
        <time>2017-11-26T08:48:27Z</time>
      </trkpt>
      <trkpt lat="48.50671" lon="1.99921">
        <ele>114.12</ele>
        <time>2017-11-26T08:48:29Z</time>
      </trkpt>
      <trkpt lat="48.50664" lon="1.99926">
        <ele>114.21</ele>
        <time>2017-11-26T08:48:31Z</time>
      </trkpt>
      <trkpt lat="48.50658" lon="1.99932">
        <ele>114.7</ele>
        <time>2017-11-26T08:48:33Z</time>
      </trkpt>
      <trkpt lat="48.50653" lon="1.99938">
        <ele>115.16</ele>
        <time>2017-11-26T08:48:35Z</time>
      </trkpt>
      <trkpt lat="48.50644" lon="1.99943">
        <ele>115.07</ele>
        <time>2017-11-26T08:48:37Z</time>
      </trkpt>
      <trkpt lat="48.50635" lon="1.99947">
        <ele>114.91</ele>
        <time>2017-11-26T08:48:39Z</time>
      </trkpt>
      <trkpt lat="48.5063" lon="1.99952">
        <ele>115.23</ele>
        <time>2017-11-26T08:48:41Z</time>
      </trkpt>
      <trkpt lat="48.50623" lon="1.99954">
        <ele>114.91</ele>
        <time>2017-11-26T08:48:43Z</time>
      </trkpt>
      <trkpt lat="48.50617" lon="1.99956">
        <ele>114.7</ele>
        <time>2017-11-26T08:48:45Z</time>
      </trkpt>
      <trkpt lat="48.50608" lon="1.99959">
        <ele>114.31</ele>
        <time>2017-11-26T08:48:47Z</time>
      </trkpt>
      <trkpt lat="48.506" lon="1.99961">
        <ele>113.99</ele>
        <time>2017-11-26T08:48:49Z</time>
      </trkpt>
      <trkpt lat="48.50593" lon="1.99963">
        <ele>113.56</ele>
        <time>2017-11-26T08:48:51Z</time>
      </trkpt>
      <trkpt lat="48.50586" lon="1.99964">
        <ele>113.08</ele>
        <time>2017-11-26T08:48:53Z</time>
      </trkpt>
      <trkpt lat="48.5058" lon="1.99966">
        <ele>112.94</ele>
        <time>2017-11-26T08:48:55Z</time>
      </trkpt>
      <trkpt lat="48.50574" lon="1.99967">
        <ele>112.93</ele>
        <time>2017-11-26T08:48:57Z</time>
      </trkpt>
      <trkpt lat="48.50568" lon="1.99969">
        <ele>112.93</ele>
        <time>2017-11-26T08:48:59Z</time>
      </trkpt>
      <trkpt lat="48.50562" lon="1.9997">
        <ele>112.91</ele>
        <time>2017-11-26T08:49:01Z</time>
      </trkpt>
      <trkpt lat="48.50557" lon="1.99973">
        <ele>113</ele>
        <time>2017-11-26T08:49:03Z</time>
      </trkpt>
      <trkpt lat="48.5055" lon="1.99973">
        <ele>112.83</ele>
        <time>2017-11-26T08:49:05Z</time>
      </trkpt>
      <trkpt lat="48.50543" lon="1.99973">
        <ele>112.49</ele>
        <time>2017-11-26T08:49:07Z</time>
      </trkpt>
      <trkpt lat="48.50536" lon="1.99974">
        <ele>112.28</ele>
        <time>2017-11-26T08:49:09Z</time>
      </trkpt>
      <trkpt lat="48.50527" lon="1.99977">
        <ele>112.28</ele>
        <time>2017-11-26T08:49:11Z</time>
      </trkpt>
      <trkpt lat="48.50519" lon="1.99984">
        <ele>112.56</ele>
        <time>2017-11-26T08:49:13Z</time>
      </trkpt>
      <trkpt lat="48.50512" lon="1.99989">
        <ele>112.75</ele>
        <time>2017-11-26T08:49:15Z</time>
      </trkpt>
      <trkpt lat="48.50506" lon="1.99996">
        <ele>112.97</ele>
        <time>2017-11-26T08:49:17Z</time>
      </trkpt>
      <trkpt lat="48.505" lon="2.00004">
        <ele>102.56</ele>
        <time>2017-11-26T08:49:19Z</time>
      </trkpt>
      <trkpt lat="48.50494" lon="2.00012">
        <ele>104.82</ele>
        <time>2017-11-26T08:49:21Z</time>
      </trkpt>
      <trkpt lat="48.50488" lon="2.0002">
        <ele>105.95</ele>
        <time>2017-11-26T08:49:23Z</time>
      </trkpt>
      <trkpt lat="48.50481" lon="2.00026">
        <ele>105.31</ele>
        <time>2017-11-26T08:49:25Z</time>
      </trkpt>
      <trkpt lat="48.50475" lon="2.00033">
        <ele>106.13</ele>
        <time>2017-11-26T08:49:27Z</time>
      </trkpt>
      <trkpt lat="48.50466" lon="2.00043">
        <ele>109.85</ele>
        <time>2017-11-26T08:49:29Z</time>
      </trkpt>
      <trkpt lat="48.50458" lon="2.0005">
        <ele>112.31</ele>
        <time>2017-11-26T08:49:31Z</time>
      </trkpt>
      <trkpt lat="48.50451" lon="2.00058">
        <ele>114.17</ele>
        <time>2017-11-26T08:49:33Z</time>
      </trkpt>
      <trkpt lat="48.50444" lon="2.00066">
        <ele>115.29</ele>
        <time>2017-11-26T08:49:35Z</time>
      </trkpt>
      <trkpt lat="48.50438" lon="2.0007">
        <ele>116.54</ele>
        <time>2017-11-26T08:49:37Z</time>
      </trkpt>
      <trkpt lat="48.50431" lon="2.00071">
        <ele>117.09</ele>
        <time>2017-11-26T08:49:39Z</time>
      </trkpt>
      <trkpt lat="48.50427" lon="2.00072">
        <ele>117.46</ele>
        <time>2017-11-26T08:49:41Z</time>
      </trkpt>
      <trkpt lat="48.50421" lon="2.00072">
        <ele>117.67</ele>
        <time>2017-11-26T08:49:43Z</time>
      </trkpt>
      <trkpt lat="48.50416" lon="2.00069">
        <ele>117.49</ele>
        <time>2017-11-26T08:49:45Z</time>
      </trkpt>
      <trkpt lat="48.5041" lon="2.00067">
        <ele>118.04</ele>
        <time>2017-11-26T08:49:47Z</time>
      </trkpt>
      <trkpt lat="48.50404" lon="2.00068">
        <ele>119.12</ele>
        <time>2017-11-26T08:49:49Z</time>
      </trkpt>
      <trkpt lat="48.50399" lon="2.00071">
        <ele>120.22</ele>
        <time>2017-11-26T08:49:51Z</time>
      </trkpt>
      <trkpt lat="48.50392" lon="2.00072">
        <ele>121.18</ele>
        <time>2017-11-26T08:49:53Z</time>
      </trkpt>
      <trkpt lat="48.50386" lon="2.00072">
        <ele>121.58</ele>
        <time>2017-11-26T08:49:55Z</time>
      </trkpt>
      <trkpt lat="48.50378" lon="2.00072">
        <ele>121.52</ele>
        <time>2017-11-26T08:49:57Z</time>
      </trkpt>
      <trkpt lat="48.50368" lon="2.0007">
        <ele>121.49</ele>
        <time>2017-11-26T08:49:59Z</time>
      </trkpt>
      <trkpt lat="48.5036" lon="2.00065">
        <ele>121.64</ele>
        <time>2017-11-26T08:50:01Z</time>
      </trkpt>
      <trkpt lat="48.50357" lon="2.00057">
        <ele>121.95</ele>
        <time>2017-11-26T08:50:03Z</time>
      </trkpt>
      <trkpt lat="48.50354" lon="2.0005">
        <ele>121.6</ele>
        <time>2017-11-26T08:50:05Z</time>
      </trkpt>
      <trkpt lat="48.50353" lon="2.00043">
        <ele>121.09</ele>
        <time>2017-11-26T08:50:07Z</time>
      </trkpt>
      <trkpt lat="48.50353" lon="2.00035">
        <ele>120.55</ele>
        <time>2017-11-26T08:50:09Z</time>
      </trkpt>
      <trkpt lat="48.50351" lon="2.00028">
        <ele>120.03</ele>
        <time>2017-11-26T08:50:11Z</time>
      </trkpt>
      <trkpt lat="48.50351" lon="2.00016">
        <ele>119.45</ele>
        <time>2017-11-26T08:50:15Z</time>
      </trkpt>
      <trkpt lat="48.5035" lon="2.00009">
        <ele>119.17</ele>
        <time>2017-11-26T08:50:17Z</time>
      </trkpt>
      <trkpt lat="48.50347" lon="2.00003">
        <ele>119.14</ele>
        <time>2017-11-26T08:50:19Z</time>
      </trkpt>
      <trkpt lat="48.50344" lon="1.99996">
        <ele>116.03</ele>
        <time>2017-11-26T08:50:21Z</time>
      </trkpt>
      <trkpt lat="48.50341" lon="1.99989">
        <ele>116.13</ele>
        <time>2017-11-26T08:50:23Z</time>
      </trkpt>
      <trkpt lat="48.50339" lon="1.99982">
        <ele>116.07</ele>
        <time>2017-11-26T08:50:25Z</time>
      </trkpt>
      <trkpt lat="48.50337" lon="1.99968">
        <ele>115.98</ele>
        <time>2017-11-26T08:50:29Z</time>
      </trkpt>
      <trkpt lat="48.50332" lon="1.99958">
        <ele>116.12</ele>
        <time>2017-11-26T08:50:33Z</time>
      </trkpt>
      <trkpt lat="48.50329" lon="1.99952">
        <ele>116.24</ele>
        <time>2017-11-26T08:50:35Z</time>
      </trkpt>
      <trkpt lat="48.50328" lon="1.9994">
        <ele>116.06</ele>
        <time>2017-11-26T08:50:39Z</time>
      </trkpt>
      <trkpt lat="48.50326" lon="1.99929">
        <ele>116.03</ele>
        <time>2017-11-26T08:50:43Z</time>
      </trkpt>
      <trkpt lat="48.50322" lon="1.99922">
        <ele>116.25</ele>
        <time>2017-11-26T08:50:45Z</time>
      </trkpt>
      <trkpt lat="48.50318" lon="1.99915">
        <ele>116.45</ele>
        <time>2017-11-26T08:50:47Z</time>
      </trkpt>
      <trkpt lat="48.50314" lon="1.99909">
        <ele>116.7</ele>
        <time>2017-11-26T08:50:49Z</time>
      </trkpt>
      <trkpt lat="48.50309" lon="1.99902">
        <ele>116.94</ele>
        <time>2017-11-26T08:50:51Z</time>
      </trkpt>
      <trkpt lat="48.50306" lon="1.99895">
        <ele>117.08</ele>
        <time>2017-11-26T08:50:53Z</time>
      </trkpt>
      <trkpt lat="48.50303" lon="1.99888">
        <ele>117.21</ele>
        <time>2017-11-26T08:50:55Z</time>
      </trkpt>
      <trkpt lat="48.50301" lon="1.99881">
        <ele>117.24</ele>
        <time>2017-11-26T08:50:57Z</time>
      </trkpt>
      <trkpt lat="48.50298" lon="1.99873">
        <ele>117.36</ele>
        <time>2017-11-26T08:50:59Z</time>
      </trkpt>
      <trkpt lat="48.50294" lon="1.99867">
        <ele>117.58</ele>
        <time>2017-11-26T08:51:01Z</time>
      </trkpt>
      <trkpt lat="48.5029" lon="1.99855">
        <ele>117.66</ele>
        <time>2017-11-26T08:51:05Z</time>
      </trkpt>
      <trkpt lat="48.50289" lon="1.99842">
        <ele>117.42</ele>
        <time>2017-11-26T08:51:09Z</time>
      </trkpt>
      <trkpt lat="48.50288" lon="1.99835">
        <ele>117.38</ele>
        <time>2017-11-26T08:51:11Z</time>
      </trkpt>
      <trkpt lat="48.50285" lon="1.99828">
        <ele>117.69</ele>
        <time>2017-11-26T08:51:13Z</time>
      </trkpt>
      <trkpt lat="48.50281" lon="1.99821">
        <ele>118.02</ele>
        <time>2017-11-26T08:51:15Z</time>
      </trkpt>
      <trkpt lat="48.50278" lon="1.99813">
        <ele>118.35</ele>
        <time>2017-11-26T08:51:17Z</time>
      </trkpt>
      <trkpt lat="48.50273" lon="1.99804">
        <ele>118.76</ele>
        <time>2017-11-26T08:51:19Z</time>
      </trkpt>
      <trkpt lat="48.50269" lon="1.99795">
        <ele>119.07</ele>
        <time>2017-11-26T08:51:21Z</time>
      </trkpt>
      <trkpt lat="48.50267" lon="1.99787">
        <ele>119.18</ele>
        <time>2017-11-26T08:51:23Z</time>
      </trkpt>
      <trkpt lat="48.50266" lon="1.99778">
        <ele>119.15</ele>
        <time>2017-11-26T08:51:25Z</time>
      </trkpt>
      <trkpt lat="48.50265" lon="1.9977">
        <ele>119.18</ele>
        <time>2017-11-26T08:51:27Z</time>
      </trkpt>
      <trkpt lat="48.50263" lon="1.99763">
        <ele>119.28</ele>
        <time>2017-11-26T08:51:29Z</time>
      </trkpt>
      <trkpt lat="48.50261" lon="1.99755">
        <ele>119.35</ele>
        <time>2017-11-26T08:51:31Z</time>
      </trkpt>
      <trkpt lat="48.5026" lon="1.99748">
        <ele>119.41</ele>
        <time>2017-11-26T08:51:33Z</time>
      </trkpt>
      <trkpt lat="48.50259" lon="1.99736">
        <ele>119.62</ele>
        <time>2017-11-26T08:51:37Z</time>
      </trkpt>
      <trkpt lat="48.50258" lon="1.99729">
        <ele>119.75</ele>
        <time>2017-11-26T08:51:39Z</time>
      </trkpt>
      <trkpt lat="48.50256" lon="1.99719">
        <ele>120</ele>
        <time>2017-11-26T08:51:41Z</time>
      </trkpt>
      <trkpt lat="48.50256" lon="1.99709">
        <ele>120.15</ele>
        <time>2017-11-26T08:51:43Z</time>
      </trkpt>
      <trkpt lat="48.50255" lon="1.99699">
        <ele>120.3</ele>
        <time>2017-11-26T08:51:45Z</time>
      </trkpt>
      <trkpt lat="48.50256" lon="1.99688">
        <ele>120.4</ele>
        <time>2017-11-26T08:51:47Z</time>
      </trkpt>
      <trkpt lat="48.50257" lon="1.99677">
        <ele>120.47</ele>
        <time>2017-11-26T08:51:49Z</time>
      </trkpt>
      <trkpt lat="48.50258" lon="1.99667">
        <ele>120.53</ele>
        <time>2017-11-26T08:51:51Z</time>
      </trkpt>
      <trkpt lat="48.50257" lon="1.99657">
        <ele>120.66</ele>
        <time>2017-11-26T08:51:53Z</time>
      </trkpt>
      <trkpt lat="48.50259" lon="1.9965">
        <ele>120.67</ele>
        <time>2017-11-26T08:51:55Z</time>
      </trkpt>
      <trkpt lat="48.5026" lon="1.99643">
        <ele>120.63</ele>
        <time>2017-11-26T08:51:57Z</time>
      </trkpt>
      <trkpt lat="48.50261" lon="1.99634">
        <ele>120.7</ele>
        <time>2017-11-26T08:51:59Z</time>
      </trkpt>
      <trkpt lat="48.50261" lon="1.99625">
        <ele>120.77</ele>
        <time>2017-11-26T08:52:01Z</time>
      </trkpt>
      <trkpt lat="48.50261" lon="1.99616">
        <ele>120.89</ele>
        <time>2017-11-26T08:52:03Z</time>
      </trkpt>
      <trkpt lat="48.5026" lon="1.99608">
        <ele>120.99</ele>
        <time>2017-11-26T08:52:05Z</time>
      </trkpt>
      <trkpt lat="48.50261" lon="1.99599">
        <ele>121.05</ele>
        <time>2017-11-26T08:52:07Z</time>
      </trkpt>
      <trkpt lat="48.50261" lon="1.99591">
        <ele>121.11</ele>
        <time>2017-11-26T08:52:09Z</time>
      </trkpt>
      <trkpt lat="48.5026" lon="1.99582">
        <ele>121.29</ele>
        <time>2017-11-26T08:52:11Z</time>
      </trkpt>
      <trkpt lat="48.50259" lon="1.99573">
        <ele>121.5</ele>
        <time>2017-11-26T08:52:13Z</time>
      </trkpt>
      <trkpt lat="48.50258" lon="1.99565">
        <ele>121.68</ele>
        <time>2017-11-26T08:52:15Z</time>
      </trkpt>
      <trkpt lat="48.50258" lon="1.99556">
        <ele>121.82</ele>
        <time>2017-11-26T08:52:17Z</time>
      </trkpt>
      <trkpt lat="48.50258" lon="1.99547">
        <ele>121.93</ele>
        <time>2017-11-26T08:52:19Z</time>
      </trkpt>
      <trkpt lat="48.50258" lon="1.99538">
        <ele>122.07</ele>
        <time>2017-11-26T08:52:21Z</time>
      </trkpt>
      <trkpt lat="48.50258" lon="1.9953">
        <ele>122.16</ele>
        <time>2017-11-26T08:52:23Z</time>
      </trkpt>
      <trkpt lat="48.50258" lon="1.99523">
        <ele>122.3</ele>
        <time>2017-11-26T08:52:25Z</time>
      </trkpt>
      <trkpt lat="48.50256" lon="1.99515">
        <ele>122.49</ele>
        <time>2017-11-26T08:52:27Z</time>
      </trkpt>
      <trkpt lat="48.50255" lon="1.99506">
        <ele>122.68</ele>
        <time>2017-11-26T08:52:29Z</time>
      </trkpt>
      <trkpt lat="48.50255" lon="1.99499">
        <ele>122.84</ele>
        <time>2017-11-26T08:52:31Z</time>
      </trkpt>
      <trkpt lat="48.50254" lon="1.99485">
        <ele>123.35</ele>
        <time>2017-11-26T08:52:35Z</time>
      </trkpt>
      <trkpt lat="48.50253" lon="1.99478">
        <ele>123.65</ele>
        <time>2017-11-26T08:52:37Z</time>
      </trkpt>
      <trkpt lat="48.50252" lon="1.99471">
        <ele>123.91</ele>
        <time>2017-11-26T08:52:39Z</time>
      </trkpt>
      <trkpt lat="48.50253" lon="1.99464">
        <ele>124.13</ele>
        <time>2017-11-26T08:52:41Z</time>
      </trkpt>
      <trkpt lat="48.50253" lon="1.99457">
        <ele>124.37</ele>
        <time>2017-11-26T08:52:43Z</time>
      </trkpt>
      <trkpt lat="48.50251" lon="1.99449">
        <ele>124.74</ele>
        <time>2017-11-26T08:52:44Z</time>
      </trkpt>
      <trkpt lat="48.50251" lon="1.99442">
        <ele>125.04</ele>
        <time>2017-11-26T08:52:47Z</time>
      </trkpt>
      <trkpt lat="48.50252" lon="1.99435">
        <ele>125.21</ele>
        <time>2017-11-26T08:52:49Z</time>
      </trkpt>
      <trkpt lat="48.50254" lon="1.99428">
        <ele>125.36</ele>
        <time>2017-11-26T08:52:51Z</time>
      </trkpt>
      <trkpt lat="48.50255" lon="1.99422">
        <ele>125.49</ele>
        <time>2017-11-26T08:52:53Z</time>
      </trkpt>
      <trkpt lat="48.50256" lon="1.9941">
        <ele>125.8</ele>
        <time>2017-11-26T08:52:56Z</time>
      </trkpt>
      <trkpt lat="48.50255" lon="1.99401">
        <ele>126.06</ele>
        <time>2017-11-26T08:53:01Z</time>
      </trkpt>
      <trkpt lat="48.50254" lon="1.99393">
        <ele>126.32</ele>
        <time>2017-11-26T08:53:05Z</time>
      </trkpt>
      <trkpt lat="48.50255" lon="1.99375">
        <ele>126.69</ele>
        <time>2017-11-26T08:53:11Z</time>
      </trkpt>
      <trkpt lat="48.50256" lon="1.99366">
        <ele>126.81</ele>
        <time>2017-11-26T08:53:15Z</time>
      </trkpt>
      <trkpt lat="48.50255" lon="1.99356">
        <ele>127.14</ele>
        <time>2017-11-26T08:53:19Z</time>
      </trkpt>
      <trkpt lat="48.50252" lon="1.9935">
        <ele>127.48</ele>
        <time>2017-11-26T08:53:20Z</time>
      </trkpt>
      <trkpt lat="48.50248" lon="1.99343">
        <ele>127.97</ele>
        <time>2017-11-26T08:53:25Z</time>
      </trkpt>
      <trkpt lat="48.50244" lon="1.99334">
        <ele>128.58</ele>
        <time>2017-11-26T08:53:29Z</time>
      </trkpt>
      <trkpt lat="48.5024" lon="1.99329">
        <ele>129.12</ele>
        <time>2017-11-26T08:53:31Z</time>
      </trkpt>
      <trkpt lat="48.50209" lon="1.99291">
        <ele>134.43</ele>
        <time>2017-11-26T08:53:44Z</time>
      </trkpt>
      <trkpt lat="48.50208" lon="1.99283">
        <ele>135.03</ele>
        <time>2017-11-26T08:53:47Z</time>
      </trkpt>
      <trkpt lat="48.50203" lon="1.99277">
        <ele>136.02</ele>
        <time>2017-11-26T08:53:51Z</time>
      </trkpt>
      <trkpt lat="48.50198" lon="1.99275">
        <ele>136.83</ele>
        <time>2017-11-26T08:53:55Z</time>
      </trkpt>
      <trkpt lat="48.50193" lon="1.99268">
        <ele>137.9</ele>
        <time>2017-11-26T08:54:15Z</time>
      </trkpt>
      <trkpt lat="48.50186" lon="1.9927">
        <ele>138.83</ele>
        <time>2017-11-26T08:54:19Z</time>
      </trkpt>
      <trkpt lat="48.5018" lon="1.9927">
        <ele>139.55</ele>
        <time>2017-11-26T08:54:21Z</time>
      </trkpt>
      <trkpt lat="48.50174" lon="1.99273">
        <ele>140.09</ele>
        <time>2017-11-26T08:54:23Z</time>
      </trkpt>
      <trkpt lat="48.50169" lon="1.99278">
        <ele>140.29</ele>
        <time>2017-11-26T08:54:25Z</time>
      </trkpt>
      <trkpt lat="48.50166" lon="1.99284">
        <ele>140.11</ele>
        <time>2017-11-26T08:54:27Z</time>
      </trkpt>
      <trkpt lat="48.5016" lon="1.99289">
        <ele>139.33</ele>
        <time>2017-11-26T08:54:29Z</time>
      </trkpt>
      <trkpt lat="48.50154" lon="1.99296">
        <ele>138.42</ele>
        <time>2017-11-26T08:54:31Z</time>
      </trkpt>
      <trkpt lat="48.50148" lon="1.99304">
        <ele>137.37</ele>
        <time>2017-11-26T08:54:33Z</time>
      </trkpt>
      <trkpt lat="48.50132" lon="1.99332">
        <ele>134.07</ele>
        <time>2017-11-26T08:54:35Z</time>
      </trkpt>
      <trkpt lat="48.50118" lon="1.99349">
        <ele>131.83</ele>
        <time>2017-11-26T08:54:37Z</time>
      </trkpt>
      <trkpt lat="48.50115" lon="1.99357">
        <ele>131</ele>
        <time>2017-11-26T08:54:39Z</time>
      </trkpt>
      <trkpt lat="48.50102" lon="1.99359">
        <ele>130.16</ele>
        <time>2017-11-26T08:54:43Z</time>
      </trkpt>
      <trkpt lat="48.50089" lon="1.99354">
        <ele>129.81</ele>
        <time>2017-11-26T08:54:47Z</time>
      </trkpt>
      <trkpt lat="48.50081" lon="1.99354">
        <ele>129.46</ele>
        <time>2017-11-26T08:54:49Z</time>
      </trkpt>
      <trkpt lat="48.50067" lon="1.99355">
        <ele>128.87</ele>
        <time>2017-11-26T08:54:51Z</time>
      </trkpt>
      <trkpt lat="48.50059" lon="1.99357">
        <ele>128.43</ele>
        <time>2017-11-26T08:54:53Z</time>
      </trkpt>
      <trkpt lat="48.5005" lon="1.9936">
        <ele>128</ele>
        <time>2017-11-26T08:54:55Z</time>
      </trkpt>
      <trkpt lat="48.50038" lon="1.99358">
        <ele>127.7</ele>
        <time>2017-11-26T08:54:57Z</time>
      </trkpt>
      <trkpt lat="48.50024" lon="1.99358">
        <ele>127.21</ele>
        <time>2017-11-26T08:54:59Z</time>
      </trkpt>
      <trkpt lat="48.50018" lon="1.99359">
        <ele>127.01</ele>
        <time>2017-11-26T08:55:01Z</time>
      </trkpt>
      <trkpt lat="48.50008" lon="1.99355">
        <ele>126.75</ele>
        <time>2017-11-26T08:55:03Z</time>
      </trkpt>
      <trkpt lat="48.50005" lon="1.99346">
        <ele>126.88</ele>
        <time>2017-11-26T08:55:05Z</time>
      </trkpt>
      <trkpt lat="48.49999" lon="1.99345">
        <ele>126.75</ele>
        <time>2017-11-26T08:55:07Z</time>
      </trkpt>
      <trkpt lat="48.49993" lon="1.99339">
        <ele>127.06</ele>
        <time>2017-11-26T08:55:09Z</time>
      </trkpt>
      <trkpt lat="48.49988" lon="1.99335">
        <ele>127.26</ele>
        <time>2017-11-26T08:55:11Z</time>
      </trkpt>
      <trkpt lat="48.49982" lon="1.99333">
        <ele>127.43</ele>
        <time>2017-11-26T08:55:13Z</time>
      </trkpt>
      <trkpt lat="48.49977" lon="1.99331">
        <ele>127.61</ele>
        <time>2017-11-26T08:55:15Z</time>
      </trkpt>
      <trkpt lat="48.49971" lon="1.99327">
        <ele>127.85</ele>
        <time>2017-11-26T08:55:19Z</time>
      </trkpt>
      <trkpt lat="48.49965" lon="1.99322">
        <ele>128.06</ele>
        <time>2017-11-26T08:55:23Z</time>
      </trkpt>
      <trkpt lat="48.49961" lon="1.9932">
        <ele>128.2</ele>
        <time>2017-11-26T08:55:25Z</time>
      </trkpt>
      <trkpt lat="48.49955" lon="1.99318">
        <ele>128.33</ele>
        <time>2017-11-26T08:55:27Z</time>
      </trkpt>
      <trkpt lat="48.49949" lon="1.99318">
        <ele>128.45</ele>
        <time>2017-11-26T08:55:29Z</time>
      </trkpt>
      <trkpt lat="48.49943" lon="1.99316">
        <ele>128.57</ele>
        <time>2017-11-26T08:55:31Z</time>
      </trkpt>
      <trkpt lat="48.49938" lon="1.99312">
        <ele>128.68</ele>
        <time>2017-11-26T08:55:33Z</time>
      </trkpt>
      <trkpt lat="48.49932" lon="1.99307">
        <ele>128.8</ele>
        <time>2017-11-26T08:55:35Z</time>
      </trkpt>
      <trkpt lat="48.49927" lon="1.99303">
        <ele>128.89</ele>
        <time>2017-11-26T08:55:37Z</time>
      </trkpt>
      <trkpt lat="48.49919" lon="1.99296">
        <ele>128.98</ele>
        <time>2017-11-26T08:55:41Z</time>
      </trkpt>
      <trkpt lat="48.49912" lon="1.99289">
        <ele>129.52</ele>
        <time>2017-11-26T08:55:45Z</time>
      </trkpt>
      <trkpt lat="48.49906" lon="1.9928">
        <ele>130.18</ele>
        <time>2017-11-26T08:55:49Z</time>
      </trkpt>
      <trkpt lat="48.49902" lon="1.99276">
        <ele>130.61</ele>
        <time>2017-11-26T08:55:51Z</time>
      </trkpt>
      <trkpt lat="48.49898" lon="1.99272">
        <ele>131.04</ele>
        <time>2017-11-26T08:55:53Z</time>
      </trkpt>
      <trkpt lat="48.49891" lon="1.99264">
        <ele>131.7</ele>
        <time>2017-11-26T08:55:57Z</time>
      </trkpt>
      <trkpt lat="48.49887" lon="1.9926">
        <ele>132.03</ele>
        <time>2017-11-26T08:55:59Z</time>
      </trkpt>
      <trkpt lat="48.49883" lon="1.99256">
        <ele>132.36</ele>
        <time>2017-11-26T08:56:01Z</time>
      </trkpt>
      <trkpt lat="48.49879" lon="1.99252">
        <ele>132.65</ele>
        <time>2017-11-26T08:56:03Z</time>
      </trkpt>
      <trkpt lat="48.49875" lon="1.99249">
        <ele>132.97</ele>
        <time>2017-11-26T08:56:05Z</time>
      </trkpt>
      <trkpt lat="48.49868" lon="1.99247">
        <ele>133.5</ele>
        <time>2017-11-26T08:56:07Z</time>
      </trkpt>
      <trkpt lat="48.49864" lon="1.99244">
        <ele>133.75</ele>
        <time>2017-11-26T08:56:09Z</time>
      </trkpt>
      <trkpt lat="48.49859" lon="1.99236">
        <ele>133.79</ele>
        <time>2017-11-26T08:56:13Z</time>
      </trkpt>
      <trkpt lat="48.49857" lon="1.99229">
        <ele>133.64</ele>
        <time>2017-11-26T08:56:17Z</time>
      </trkpt>
      <trkpt lat="48.49852" lon="1.99222">
        <ele>133.56</ele>
        <time>2017-11-26T08:56:21Z</time>
      </trkpt>
      <trkpt lat="48.49846" lon="1.99214">
        <ele>133.49</ele>
        <time>2017-11-26T08:56:25Z</time>
      </trkpt>
      <trkpt lat="48.49842" lon="1.9921">
        <ele>133.55</ele>
        <time>2017-11-26T08:56:27Z</time>
      </trkpt>
      <trkpt lat="48.49837" lon="1.99207">
        <ele>133.7</ele>
        <time>2017-11-26T08:56:29Z</time>
      </trkpt>
      <trkpt lat="48.49832" lon="1.99204">
        <ele>133.95</ele>
        <time>2017-11-26T08:56:35Z</time>
      </trkpt>
      <trkpt lat="48.49826" lon="1.99203">
        <ele>134.63</ele>
        <time>2017-11-26T08:56:39Z</time>
      </trkpt>
      <trkpt lat="48.4982" lon="1.99202">
        <ele>135.54</ele>
        <time>2017-11-26T08:56:43Z</time>
      </trkpt>
      <trkpt lat="48.49813" lon="1.99201">
        <ele>136.46</ele>
        <time>2017-11-26T08:56:47Z</time>
      </trkpt>
      <trkpt lat="48.49805" lon="1.992">
        <ele>137.53</ele>
        <time>2017-11-26T08:56:51Z</time>
      </trkpt>
      <trkpt lat="48.498" lon="1.99201">
        <ele>138.4</ele>
        <time>2017-11-26T08:56:55Z</time>
      </trkpt>
      <trkpt lat="48.49794" lon="1.99203">
        <ele>139.25</ele>
        <time>2017-11-26T08:57:01Z</time>
      </trkpt>
      <trkpt lat="48.4979" lon="1.99201">
        <ele>139.84</ele>
        <time>2017-11-26T08:57:09Z</time>
      </trkpt>
      <trkpt lat="48.49784" lon="1.99201">
        <ele>140.74</ele>
        <time>2017-11-26T08:57:13Z</time>
      </trkpt>
      <trkpt lat="48.49775" lon="1.99201">
        <ele>142.02</ele>
        <time>2017-11-26T08:57:17Z</time>
      </trkpt>
      <trkpt lat="48.49769" lon="1.992">
        <ele>142.86</ele>
        <time>2017-11-26T08:57:21Z</time>
      </trkpt>
      <trkpt lat="48.49761" lon="1.992">
        <ele>144.01</ele>
        <time>2017-11-26T08:57:25Z</time>
      </trkpt>
      <trkpt lat="48.49754" lon="1.99201">
        <ele>145.11</ele>
        <time>2017-11-26T08:57:29Z</time>
      </trkpt>
      <trkpt lat="48.49748" lon="1.99205">
        <ele>146.08</ele>
        <time>2017-11-26T08:57:33Z</time>
      </trkpt>
      <trkpt lat="48.49743" lon="1.99206">
        <ele>146.7</ele>
        <time>2017-11-26T08:57:37Z</time>
      </trkpt>
      <trkpt lat="48.49737" lon="1.99208">
        <ele>147.45</ele>
        <time>2017-11-26T08:57:43Z</time>
      </trkpt>
      <trkpt lat="48.49732" lon="1.99209">
        <ele>148.09</ele>
        <time>2017-11-26T08:57:47Z</time>
      </trkpt>
      <trkpt lat="48.49726" lon="1.99207">
        <ele>148.69</ele>
        <time>2017-11-26T08:57:55Z</time>
      </trkpt>
      <trkpt lat="48.49722" lon="1.9921">
        <ele>149.27</ele>
        <time>2017-11-26T08:57:59Z</time>
      </trkpt>
      <trkpt lat="48.49716" lon="1.99209">
        <ele>149.89</ele>
        <time>2017-11-26T08:58:03Z</time>
      </trkpt>
      <trkpt lat="48.49711" lon="1.99205">
        <ele>150.44</ele>
        <time>2017-11-26T08:58:07Z</time>
      </trkpt>
      <trkpt lat="48.49702" lon="1.99199">
        <ele>151.29</ele>
        <time>2017-11-26T08:58:11Z</time>
      </trkpt>
      <trkpt lat="48.49694" lon="1.99197">
        <ele>152.34</ele>
        <time>2017-11-26T08:58:15Z</time>
      </trkpt>
      <trkpt lat="48.49685" lon="1.99197">
        <ele>153.36</ele>
        <time>2017-11-26T08:58:19Z</time>
      </trkpt>
      <trkpt lat="48.4968" lon="1.99197">
        <ele>153.95</ele>
        <time>2017-11-26T08:58:21Z</time>
      </trkpt>
      <trkpt lat="48.49672" lon="1.99196">
        <ele>154.98</ele>
        <time>2017-11-26T08:58:25Z</time>
      </trkpt>
      <trkpt lat="48.49664" lon="1.99197">
        <ele>155.65</ele>
        <time>2017-11-26T08:58:29Z</time>
      </trkpt>
      <trkpt lat="48.49659" lon="1.99199">
        <ele>155.66</ele>
        <time>2017-11-26T08:58:33Z</time>
      </trkpt>
      <trkpt lat="48.49656" lon="1.99202">
        <ele>155.61</ele>
        <time>2017-11-26T08:58:37Z</time>
      </trkpt>
      <trkpt lat="48.49652" lon="1.99209">
        <ele>155.48</ele>
        <time>2017-11-26T08:58:43Z</time>
      </trkpt>
      <trkpt lat="48.49647" lon="1.99209">
        <ele>155.49</ele>
        <time>2017-11-26T08:58:47Z</time>
      </trkpt>
      <trkpt lat="48.49641" lon="1.99209">
        <ele>155.48</ele>
        <time>2017-11-26T08:58:51Z</time>
      </trkpt>
      <trkpt lat="48.49636" lon="1.99205">
        <ele>155.61</ele>
        <time>2017-11-26T08:58:57Z</time>
      </trkpt>
      <trkpt lat="48.4963" lon="1.992">
        <ele>155.77</ele>
        <time>2017-11-26T08:59:01Z</time>
      </trkpt>
      <trkpt lat="48.49627" lon="1.99195">
        <ele>155.97</ele>
        <time>2017-11-26T08:59:05Z</time>
      </trkpt>
      <trkpt lat="48.49622" lon="1.99186">
        <ele>156.34</ele>
        <time>2017-11-26T08:59:09Z</time>
      </trkpt>
      <trkpt lat="48.4962" lon="1.9918">
        <ele>156.6</ele>
        <time>2017-11-26T08:59:11Z</time>
      </trkpt>
      <trkpt lat="48.49618" lon="1.99168">
        <ele>157.13</ele>
        <time>2017-11-26T08:59:15Z</time>
      </trkpt>
      <trkpt lat="48.49615" lon="1.99162">
        <ele>157.31</ele>
        <time>2017-11-26T08:59:19Z</time>
      </trkpt>
      <trkpt lat="48.49612" lon="1.99155">
        <ele>157.49</ele>
        <time>2017-11-26T08:59:49Z</time>
      </trkpt>
      <trkpt lat="48.49612" lon="1.99147">
        <ele>157.61</ele>
        <time>2017-11-26T08:59:53Z</time>
      </trkpt>
      <trkpt lat="48.49613" lon="1.99136">
        <ele>157.77</ele>
        <time>2017-11-26T08:59:57Z</time>
      </trkpt>
      <trkpt lat="48.49612" lon="1.99122">
        <ele>158.01</ele>
        <time>2017-11-26T09:00:01Z</time>
      </trkpt>
      <trkpt lat="48.49612" lon="1.99113">
        <ele>158.17</ele>
        <time>2017-11-26T09:00:03Z</time>
      </trkpt>
      <trkpt lat="48.4961" lon="1.991">
        <ele>158.44</ele>
        <time>2017-11-26T09:00:05Z</time>
      </trkpt>
      <trkpt lat="48.49611" lon="1.99085">
        <ele>158.63</ele>
        <time>2017-11-26T09:00:07Z</time>
      </trkpt>
      <trkpt lat="48.49613" lon="1.9907">
        <ele>158.21</ele>
        <time>2017-11-26T09:00:09Z</time>
      </trkpt>
      <trkpt lat="48.49613" lon="1.99054">
        <ele>157.73</ele>
        <time>2017-11-26T09:00:11Z</time>
      </trkpt>
      <trkpt lat="48.49611" lon="1.99042">
        <ele>157.5</ele>
        <time>2017-11-26T09:00:13Z</time>
      </trkpt>
      <trkpt lat="48.49606" lon="1.99031">
        <ele>157.46</ele>
        <time>2017-11-26T09:00:15Z</time>
      </trkpt>
      <trkpt lat="48.49603" lon="1.99019">
        <ele>157.31</ele>
        <time>2017-11-26T09:00:17Z</time>
      </trkpt>
      <trkpt lat="48.49604" lon="1.99005">
        <ele>156.88</ele>
        <time>2017-11-26T09:00:19Z</time>
      </trkpt>
      <trkpt lat="48.4961" lon="1.98988">
        <ele>155.83</ele>
        <time>2017-11-26T09:00:21Z</time>
      </trkpt>
      <trkpt lat="48.49618" lon="1.9897">
        <ele>154.39</ele>
        <time>2017-11-26T09:00:23Z</time>
      </trkpt>
      <trkpt lat="48.49633" lon="1.98953">
        <ele>152.3</ele>
        <time>2017-11-26T09:00:25Z</time>
      </trkpt>
      <trkpt lat="48.49641" lon="1.98949">
        <ele>151.39</ele>
        <time>2017-11-26T09:00:27Z</time>
      </trkpt>
      <trkpt lat="48.49652" lon="1.98941">
        <ele>149.94</ele>
        <time>2017-11-26T09:00:29Z</time>
      </trkpt>
      <trkpt lat="48.4966" lon="1.98935">
        <ele>148.92</ele>
        <time>2017-11-26T09:00:31Z</time>
      </trkpt>
      <trkpt lat="48.49665" lon="1.98929">
        <ele>148.03</ele>
        <time>2017-11-26T09:00:35Z</time>
      </trkpt>
      <trkpt lat="48.4967" lon="1.98918">
        <ele>146.72</ele>
        <time>2017-11-26T09:00:37Z</time>
      </trkpt>
      <trkpt lat="48.49675" lon="1.9891">
        <ele>145.6</ele>
        <time>2017-11-26T09:00:39Z</time>
      </trkpt>
      <trkpt lat="48.49674" lon="1.98897">
        <ele>144.83</ele>
        <time>2017-11-26T09:00:41Z</time>
      </trkpt>
      <trkpt lat="48.49678" lon="1.98878">
        <ele>143.14</ele>
        <time>2017-11-26T09:00:43Z</time>
      </trkpt>
      <trkpt lat="48.49678" lon="1.98864">
        <ele>142.29</ele>
        <time>2017-11-26T09:00:45Z</time>
      </trkpt>
      <trkpt lat="48.49673" lon="1.98856">
        <ele>142.16</ele>
        <time>2017-11-26T09:00:47Z</time>
      </trkpt>
      <trkpt lat="48.49675" lon="1.98829">
        <ele>140.22</ele>
        <time>2017-11-26T09:00:49Z</time>
      </trkpt>
      <trkpt lat="48.49677" lon="1.98807">
        <ele>138.53</ele>
        <time>2017-11-26T09:00:51Z</time>
      </trkpt>
      <trkpt lat="48.49677" lon="1.98794">
        <ele>137.56</ele>
        <time>2017-11-26T09:00:53Z</time>
      </trkpt>
      <trkpt lat="48.4968" lon="1.98776">
        <ele>136.16</ele>
        <time>2017-11-26T09:00:55Z</time>
      </trkpt>
      <trkpt lat="48.4968" lon="1.98757">
        <ele>134.87</ele>
        <time>2017-11-26T09:00:57Z</time>
      </trkpt>
      <trkpt lat="48.49674" lon="1.98746">
        <ele>134.49</ele>
        <time>2017-11-26T09:00:59Z</time>
      </trkpt>
      <trkpt lat="48.4967" lon="1.98739">
        <ele>134.37</ele>
        <time>2017-11-26T09:01:01Z</time>
      </trkpt>
      <trkpt lat="48.49663" lon="1.98736">
        <ele>134.6</ele>
        <time>2017-11-26T09:01:03Z</time>
      </trkpt>
      <trkpt lat="48.49663" lon="1.98726">
        <ele>134.06</ele>
        <time>2017-11-26T09:01:05Z</time>
      </trkpt>
      <trkpt lat="48.49655" lon="1.98719">
        <ele>134.17</ele>
        <time>2017-11-26T09:01:07Z</time>
      </trkpt>
      <trkpt lat="48.49643" lon="1.98714">
        <ele>134.59</ele>
        <time>2017-11-26T09:01:09Z</time>
      </trkpt>
      <trkpt lat="48.49638" lon="1.98713">
        <ele>134.83</ele>
        <time>2017-11-26T09:01:11Z</time>
      </trkpt>
      <trkpt lat="48.49631" lon="1.98707">
        <ele>134.79</ele>
        <time>2017-11-26T09:01:17Z</time>
      </trkpt>
      <trkpt lat="48.49624" lon="1.98702">
        <ele>134.9</ele>
        <time>2017-11-26T09:01:21Z</time>
      </trkpt>
      <trkpt lat="48.49616" lon="1.98696">
        <ele>134.9</ele>
        <time>2017-11-26T09:01:25Z</time>
      </trkpt>
      <trkpt lat="48.49608" lon="1.98692">
        <ele>134.96</ele>
        <time>2017-11-26T09:01:29Z</time>
      </trkpt>
      <trkpt lat="48.49603" lon="1.9869">
        <ele>135.06</ele>
        <time>2017-11-26T09:01:31Z</time>
      </trkpt>
      <trkpt lat="48.49596" lon="1.98685">
        <ele>134.98</ele>
        <time>2017-11-26T09:01:35Z</time>
      </trkpt>
      <trkpt lat="48.49588" lon="1.9868">
        <ele>134.94</ele>
        <time>2017-11-26T09:01:39Z</time>
      </trkpt>
      <trkpt lat="48.49581" lon="1.98677">
        <ele>134.96</ele>
        <time>2017-11-26T09:01:43Z</time>
      </trkpt>
      <trkpt lat="48.49576" lon="1.98668">
        <ele>134.47</ele>
        <time>2017-11-26T09:01:47Z</time>
      </trkpt>
      <trkpt lat="48.49571" lon="1.98669">
        <ele>134.79</ele>
        <time>2017-11-26T09:01:49Z</time>
      </trkpt>
      <trkpt lat="48.49567" lon="1.9867">
        <ele>135.1</ele>
        <time>2017-11-26T09:01:51Z</time>
      </trkpt>
      <trkpt lat="48.49564" lon="1.9866">
        <ele>134.64</ele>
        <time>2017-11-26T09:01:55Z</time>
      </trkpt>
      <trkpt lat="48.49566" lon="1.98648">
        <ele>134.05</ele>
        <time>2017-11-26T09:01:59Z</time>
      </trkpt>
      <trkpt lat="48.49569" lon="1.9864">
        <ele>133.66</ele>
        <time>2017-11-26T09:02:01Z</time>
      </trkpt>
      <trkpt lat="48.49571" lon="1.98632">
        <ele>133.19</ele>
        <time>2017-11-26T09:02:03Z</time>
      </trkpt>
      <trkpt lat="48.49577" lon="1.98616">
        <ele>132.41</ele>
        <time>2017-11-26T09:02:05Z</time>
      </trkpt>
      <trkpt lat="48.49591" lon="1.98584">
        <ele>131.11</ele>
        <time>2017-11-26T09:02:07Z</time>
      </trkpt>
      <trkpt lat="48.49598" lon="1.98579">
        <ele>131.06</ele>
        <time>2017-11-26T09:02:09Z</time>
      </trkpt>
      <trkpt lat="48.49609" lon="1.98572">
        <ele>131.04</ele>
        <time>2017-11-26T09:02:11Z</time>
      </trkpt>
      <trkpt lat="48.49618" lon="1.98563">
        <ele>130.99</ele>
        <time>2017-11-26T09:02:13Z</time>
      </trkpt>
      <trkpt lat="48.49626" lon="1.98555">
        <ele>131.01</ele>
        <time>2017-11-26T09:02:15Z</time>
      </trkpt>
      <trkpt lat="48.49634" lon="1.98545">
        <ele>131.07</ele>
        <time>2017-11-26T09:02:17Z</time>
      </trkpt>
      <trkpt lat="48.49641" lon="1.98535">
        <ele>131.16</ele>
        <time>2017-11-26T09:02:19Z</time>
      </trkpt>
      <trkpt lat="48.49651" lon="1.98524">
        <ele>131.42</ele>
        <time>2017-11-26T09:02:21Z</time>
      </trkpt>
      <trkpt lat="48.49661" lon="1.98516">
        <ele>131.76</ele>
        <time>2017-11-26T09:02:23Z</time>
      </trkpt>
      <trkpt lat="48.49668" lon="1.98507">
        <ele>132.12</ele>
        <time>2017-11-26T09:02:25Z</time>
      </trkpt>
      <trkpt lat="48.49673" lon="1.98502">
        <ele>132.77</ele>
        <time>2017-11-26T09:02:27Z</time>
      </trkpt>
      <trkpt lat="48.49678" lon="1.98497">
        <ele>133.41</ele>
        <time>2017-11-26T09:02:29Z</time>
      </trkpt>
      <trkpt lat="48.49684" lon="1.98494">
        <ele>134.06</ele>
        <time>2017-11-26T09:02:33Z</time>
      </trkpt>
      <trkpt lat="48.49689" lon="1.98491">
        <ele>134.72</ele>
        <time>2017-11-26T09:02:37Z</time>
      </trkpt>
      <trkpt lat="48.49694" lon="1.98485">
        <ele>135.37</ele>
        <time>2017-11-26T09:02:41Z</time>
      </trkpt>
      <trkpt lat="48.49698" lon="1.98477">
        <ele>135.95</ele>
        <time>2017-11-26T09:02:45Z</time>
      </trkpt>
      <trkpt lat="48.49701" lon="1.98471">
        <ele>136.46</ele>
        <time>2017-11-26T09:02:49Z</time>
      </trkpt>
      <trkpt lat="48.49705" lon="1.98464">
        <ele>137</ele>
        <time>2017-11-26T09:02:53Z</time>
      </trkpt>
      <trkpt lat="48.4971" lon="1.9846">
        <ele>137.65</ele>
        <time>2017-11-26T09:02:57Z</time>
      </trkpt>
      <trkpt lat="48.49715" lon="1.98458">
        <ele>138.35</ele>
        <time>2017-11-26T09:03:01Z</time>
      </trkpt>
      <trkpt lat="48.4972" lon="1.98456">
        <ele>139.07</ele>
        <time>2017-11-26T09:03:05Z</time>
      </trkpt>
      <trkpt lat="48.49725" lon="1.98451">
        <ele>139.81</ele>
        <time>2017-11-26T09:03:09Z</time>
      </trkpt>
      <trkpt lat="48.4973" lon="1.98447">
        <ele>140.59</ele>
        <time>2017-11-26T09:03:13Z</time>
      </trkpt>
      <trkpt lat="48.49735" lon="1.98443">
        <ele>141.35</ele>
        <time>2017-11-26T09:03:17Z</time>
      </trkpt>
      <trkpt lat="48.4974" lon="1.98436">
        <ele>142.17</ele>
        <time>2017-11-26T09:03:21Z</time>
      </trkpt>
      <trkpt lat="48.49746" lon="1.98431">
        <ele>143.04</ele>
        <time>2017-11-26T09:03:25Z</time>
      </trkpt>
      <trkpt lat="48.49752" lon="1.98427">
        <ele>143.99</ele>
        <time>2017-11-26T09:03:29Z</time>
      </trkpt>
      <trkpt lat="48.49759" lon="1.9842">
        <ele>144.88</ele>
        <time>2017-11-26T09:03:33Z</time>
      </trkpt>
      <trkpt lat="48.49764" lon="1.98416">
        <ele>145.5</ele>
        <time>2017-11-26T09:03:37Z</time>
      </trkpt>
      <trkpt lat="48.49769" lon="1.98413">
        <ele>145.9</ele>
        <time>2017-11-26T09:03:41Z</time>
      </trkpt>
      <trkpt lat="48.49775" lon="1.98412">
        <ele>146.49</ele>
        <time>2017-11-26T09:03:45Z</time>
      </trkpt>
      <trkpt lat="48.49781" lon="1.98409">
        <ele>147.09</ele>
        <time>2017-11-26T09:03:49Z</time>
      </trkpt>
      <trkpt lat="48.49786" lon="1.98404">
        <ele>147.47</ele>
        <time>2017-11-26T09:03:53Z</time>
      </trkpt>
      <trkpt lat="48.49792" lon="1.98403">
        <ele>148.14</ele>
        <time>2017-11-26T09:03:59Z</time>
      </trkpt>
      <trkpt lat="48.49799" lon="1.98398">
        <ele>148.75</ele>
        <time>2017-11-26T09:04:05Z</time>
      </trkpt>
      <trkpt lat="48.49803" lon="1.98392">
        <ele>149.14</ele>
        <time>2017-11-26T09:04:09Z</time>
      </trkpt>
      <trkpt lat="48.49809" lon="1.98385">
        <ele>149.71</ele>
        <time>2017-11-26T09:04:13Z</time>
      </trkpt>
      <trkpt lat="48.49815" lon="1.98382">
        <ele>150.39</ele>
        <time>2017-11-26T09:04:17Z</time>
      </trkpt>
      <trkpt lat="48.49823" lon="1.9838">
        <ele>151.27</ele>
        <time>2017-11-26T09:04:21Z</time>
      </trkpt>
      <trkpt lat="48.4983" lon="1.98375">
        <ele>152.1</ele>
        <time>2017-11-26T09:04:25Z</time>
      </trkpt>
      <trkpt lat="48.49836" lon="1.9837">
        <ele>152.61</ele>
        <time>2017-11-26T09:04:29Z</time>
      </trkpt>
      <trkpt lat="48.49845" lon="1.98362">
        <ele>153</ele>
        <time>2017-11-26T09:04:33Z</time>
      </trkpt>
      <trkpt lat="48.4985" lon="1.98358">
        <ele>153.21</ele>
        <time>2017-11-26T09:04:35Z</time>
      </trkpt>
      <trkpt lat="48.49855" lon="1.98353">
        <ele>153.45</ele>
        <time>2017-11-26T09:04:37Z</time>
      </trkpt>
      <trkpt lat="48.4986" lon="1.98349">
        <ele>153.72</ele>
        <time>2017-11-26T09:04:39Z</time>
      </trkpt>
      <trkpt lat="48.49865" lon="1.98347">
        <ele>153.98</ele>
        <time>2017-11-26T09:04:41Z</time>
      </trkpt>
      <trkpt lat="48.49873" lon="1.98343">
        <ele>154.41</ele>
        <time>2017-11-26T09:04:45Z</time>
      </trkpt>
      <trkpt lat="48.49877" lon="1.98339">
        <ele>154.65</ele>
        <time>2017-11-26T09:04:47Z</time>
      </trkpt>
      <trkpt lat="48.49882" lon="1.98335">
        <ele>154.95</ele>
        <time>2017-11-26T09:04:49Z</time>
      </trkpt>
      <trkpt lat="48.49887" lon="1.98331">
        <ele>155.12</ele>
        <time>2017-11-26T09:04:51Z</time>
      </trkpt>
      <trkpt lat="48.49892" lon="1.98328">
        <ele>155.2</ele>
        <time>2017-11-26T09:04:53Z</time>
      </trkpt>
      <trkpt lat="48.49899" lon="1.9832">
        <ele>155.31</ele>
        <time>2017-11-26T09:04:57Z</time>
      </trkpt>
      <trkpt lat="48.49907" lon="1.98316">
        <ele>155.71</ele>
        <time>2017-11-26T09:05:01Z</time>
      </trkpt>
      <trkpt lat="48.49914" lon="1.98311">
        <ele>155.98</ele>
        <time>2017-11-26T09:05:05Z</time>
      </trkpt>
      <trkpt lat="48.49921" lon="1.98313">
        <ele>156.28</ele>
        <time>2017-11-26T09:05:09Z</time>
      </trkpt>
      <trkpt lat="48.49928" lon="1.98313">
        <ele>156.34</ele>
        <time>2017-11-26T09:05:13Z</time>
      </trkpt>
      <trkpt lat="48.49932" lon="1.98312">
        <ele>156.32</ele>
        <time>2017-11-26T09:05:17Z</time>
      </trkpt>
      <trkpt lat="48.49937" lon="1.98308">
        <ele>156.23</ele>
        <time>2017-11-26T09:05:19Z</time>
      </trkpt>
      <trkpt lat="48.49942" lon="1.98305">
        <ele>156.18</ele>
        <time>2017-11-26T09:05:21Z</time>
      </trkpt>
      <trkpt lat="48.49948" lon="1.98302">
        <ele>156.16</ele>
        <time>2017-11-26T09:05:23Z</time>
      </trkpt>
      <trkpt lat="48.49954" lon="1.983">
        <ele>156.15</ele>
        <time>2017-11-26T09:05:25Z</time>
      </trkpt>
      <trkpt lat="48.49961" lon="1.98297">
        <ele>156.15</ele>
        <time>2017-11-26T09:05:28Z</time>
      </trkpt>
      <trkpt lat="48.49968" lon="1.98294">
        <ele>156.16</ele>
        <time>2017-11-26T09:05:32Z</time>
      </trkpt>
      <trkpt lat="48.49976" lon="1.98291">
        <ele>156.21</ele>
        <time>2017-11-26T09:05:36Z</time>
      </trkpt>
      <trkpt lat="48.49983" lon="1.98287">
        <ele>156.21</ele>
        <time>2017-11-26T09:05:40Z</time>
      </trkpt>
      <trkpt lat="48.4999" lon="1.98283">
        <ele>156.25</ele>
        <time>2017-11-26T09:05:44Z</time>
      </trkpt>
      <trkpt lat="48.49998" lon="1.98285">
        <ele>156.39</ele>
        <time>2017-11-26T09:05:48Z</time>
      </trkpt>
      <trkpt lat="48.50003" lon="1.98283">
        <ele>156.51</ele>
        <time>2017-11-26T09:05:50Z</time>
      </trkpt>
      <trkpt lat="48.50008" lon="1.98281">
        <ele>156.65</ele>
        <time>2017-11-26T09:05:52Z</time>
      </trkpt>
      <trkpt lat="48.50012" lon="1.9828">
        <ele>156.79</ele>
        <time>2017-11-26T09:05:54Z</time>
      </trkpt>
      <trkpt lat="48.50017" lon="1.98278">
        <ele>156.93</ele>
        <time>2017-11-26T09:05:56Z</time>
      </trkpt>
      <trkpt lat="48.50021" lon="1.98276">
        <ele>157.06</ele>
        <time>2017-11-26T09:05:58Z</time>
      </trkpt>
      <trkpt lat="48.50026" lon="1.98273">
        <ele>157.21</ele>
        <time>2017-11-26T09:06:00Z</time>
      </trkpt>
      <trkpt lat="48.50031" lon="1.9827">
        <ele>157.37</ele>
        <time>2017-11-26T09:06:02Z</time>
      </trkpt>
      <trkpt lat="48.50037" lon="1.98267">
        <ele>157.54</ele>
        <time>2017-11-26T09:06:04Z</time>
      </trkpt>
      <trkpt lat="48.50042" lon="1.98265">
        <ele>157.69</ele>
        <time>2017-11-26T09:06:06Z</time>
      </trkpt>
      <trkpt lat="48.50049" lon="1.98264">
        <ele>157.94</ele>
        <time>2017-11-26T09:06:10Z</time>
      </trkpt>
      <trkpt lat="48.50056" lon="1.98268">
        <ele>158.22</ele>
        <time>2017-11-26T09:06:14Z</time>
      </trkpt>
      <trkpt lat="48.5006" lon="1.98271">
        <ele>158.4</ele>
        <time>2017-11-26T09:06:16Z</time>
      </trkpt>
      <trkpt lat="48.50064" lon="1.98274">
        <ele>158.59</ele>
        <time>2017-11-26T09:06:18Z</time>
      </trkpt>
      <trkpt lat="48.50071" lon="1.98281">
        <ele>158.92</ele>
        <time>2017-11-26T09:06:22Z</time>
      </trkpt>
      <trkpt lat="48.50075" lon="1.98285">
        <ele>159.11</ele>
        <time>2017-11-26T09:06:26Z</time>
      </trkpt>
      <trkpt lat="48.50079" lon="1.98288">
        <ele>159.3</ele>
        <time>2017-11-26T09:06:36Z</time>
      </trkpt>
      <trkpt lat="48.50083" lon="1.98285">
        <ele>159.41</ele>
        <time>2017-11-26T09:08:04Z</time>
      </trkpt>
      <trkpt lat="48.5009" lon="1.98284">
        <ele>159.53</ele>
        <time>2017-11-26T09:08:12Z</time>
      </trkpt>
      <trkpt lat="48.50094" lon="1.98284">
        <ele>159.62</ele>
        <time>2017-11-26T09:08:14Z</time>
      </trkpt>
      <trkpt lat="48.50102" lon="1.98286">
        <ele>159.77</ele>
        <time>2017-11-26T09:08:16Z</time>
      </trkpt>
      <trkpt lat="48.50108" lon="1.98287">
        <ele>159.9</ele>
        <time>2017-11-26T09:08:18Z</time>
      </trkpt>
      <trkpt lat="48.50114" lon="1.98286">
        <ele>160.02</ele>
        <time>2017-11-26T09:08:20Z</time>
      </trkpt>
      <trkpt lat="48.50121" lon="1.98286">
        <ele>160.13</ele>
        <time>2017-11-26T09:08:22Z</time>
      </trkpt>
      <trkpt lat="48.50126" lon="1.98287">
        <ele>160.24</ele>
        <time>2017-11-26T09:08:24Z</time>
      </trkpt>
      <trkpt lat="48.50132" lon="1.98289">
        <ele>160.36</ele>
        <time>2017-11-26T09:08:26Z</time>
      </trkpt>
      <trkpt lat="48.50138" lon="1.98288">
        <ele>160.47</ele>
        <time>2017-11-26T09:08:28Z</time>
      </trkpt>
      <trkpt lat="48.50145" lon="1.98286">
        <ele>160.6</ele>
        <time>2017-11-26T09:08:30Z</time>
      </trkpt>
      <trkpt lat="48.50151" lon="1.98282">
        <ele>160.7</ele>
        <time>2017-11-26T09:08:32Z</time>
      </trkpt>
      <trkpt lat="48.50157" lon="1.98277">
        <ele>160.81</ele>
        <time>2017-11-26T09:08:34Z</time>
      </trkpt>
      <trkpt lat="48.50163" lon="1.98272">
        <ele>160.93</ele>
        <time>2017-11-26T09:08:36Z</time>
      </trkpt>
      <trkpt lat="48.50169" lon="1.98269">
        <ele>160.99</ele>
        <time>2017-11-26T09:08:38Z</time>
      </trkpt>
      <trkpt lat="48.50175" lon="1.98264">
        <ele>160.95</ele>
        <time>2017-11-26T09:08:40Z</time>
      </trkpt>
      <trkpt lat="48.50181" lon="1.98259">
        <ele>160.88</ele>
        <time>2017-11-26T09:08:42Z</time>
      </trkpt>
      <trkpt lat="48.50186" lon="1.98252">
        <ele>160.78</ele>
        <time>2017-11-26T09:08:44Z</time>
      </trkpt>
      <trkpt lat="48.50191" lon="1.98246">
        <ele>160.58</ele>
        <time>2017-11-26T09:08:46Z</time>
      </trkpt>
      <trkpt lat="48.50197" lon="1.9824">
        <ele>160.35</ele>
        <time>2017-11-26T09:08:48Z</time>
      </trkpt>
      <trkpt lat="48.50203" lon="1.98236">
        <ele>160.15</ele>
        <time>2017-11-26T09:08:50Z</time>
      </trkpt>
      <trkpt lat="48.5021" lon="1.98232">
        <ele>159.95</ele>
        <time>2017-11-26T09:08:52Z</time>
      </trkpt>
      <trkpt lat="48.50219" lon="1.98226">
        <ele>159.62</ele>
        <time>2017-11-26T09:08:54Z</time>
      </trkpt>
      <trkpt lat="48.50227" lon="1.98221">
        <ele>159.31</ele>
        <time>2017-11-26T09:08:56Z</time>
      </trkpt>
      <trkpt lat="48.50235" lon="1.98216">
        <ele>159.04</ele>
        <time>2017-11-26T09:08:58Z</time>
      </trkpt>
      <trkpt lat="48.50242" lon="1.98212">
        <ele>158.75</ele>
        <time>2017-11-26T09:09:00Z</time>
      </trkpt>
      <trkpt lat="48.50249" lon="1.98207">
        <ele>158.46</ele>
        <time>2017-11-26T09:09:02Z</time>
      </trkpt>
      <trkpt lat="48.50257" lon="1.98202">
        <ele>158.42</ele>
        <time>2017-11-26T09:09:04Z</time>
      </trkpt>
      <trkpt lat="48.50264" lon="1.98198">
        <ele>158.45</ele>
        <time>2017-11-26T09:09:06Z</time>
      </trkpt>
      <trkpt lat="48.50271" lon="1.98195">
        <ele>158.52</ele>
        <time>2017-11-26T09:09:08Z</time>
      </trkpt>
      <trkpt lat="48.50278" lon="1.98191">
        <ele>158.57</ele>
        <time>2017-11-26T09:09:10Z</time>
      </trkpt>
      <trkpt lat="48.50284" lon="1.9819">
        <ele>158.66</ele>
        <time>2017-11-26T09:09:12Z</time>
      </trkpt>
      <trkpt lat="48.50289" lon="1.9819">
        <ele>158.77</ele>
        <time>2017-11-26T09:09:14Z</time>
      </trkpt>
      <trkpt lat="48.50294" lon="1.98187">
        <ele>158.81</ele>
        <time>2017-11-26T09:09:16Z</time>
      </trkpt>
      <trkpt lat="48.50299" lon="1.98181">
        <ele>158.72</ele>
        <time>2017-11-26T09:09:18Z</time>
      </trkpt>
      <trkpt lat="48.50305" lon="1.98175">
        <ele>158.6</ele>
        <time>2017-11-26T09:09:20Z</time>
      </trkpt>
      <trkpt lat="48.50311" lon="1.98169">
        <ele>158.53</ele>
        <time>2017-11-26T09:09:22Z</time>
      </trkpt>
      <trkpt lat="48.50317" lon="1.98163">
        <ele>158.37</ele>
        <time>2017-11-26T09:09:24Z</time>
      </trkpt>
      <trkpt lat="48.50323" lon="1.98159">
        <ele>158.17</ele>
        <time>2017-11-26T09:09:26Z</time>
      </trkpt>
      <trkpt lat="48.5033" lon="1.98153">
        <ele>157.95</ele>
        <time>2017-11-26T09:09:28Z</time>
      </trkpt>
      <trkpt lat="48.50337" lon="1.9815">
        <ele>158.03</ele>
        <time>2017-11-26T09:09:30Z</time>
      </trkpt>
      <trkpt lat="48.50343" lon="1.98149">
        <ele>158.4</ele>
        <time>2017-11-26T09:09:32Z</time>
      </trkpt>
      <trkpt lat="48.50348" lon="1.98152">
        <ele>159.01</ele>
        <time>2017-11-26T09:09:34Z</time>
      </trkpt>
      <trkpt lat="48.50352" lon="1.98158">
        <ele>159.74</ele>
        <time>2017-11-26T09:09:36Z</time>
      </trkpt>
      <trkpt lat="48.50354" lon="1.98165">
        <ele>160.39</ele>
        <time>2017-11-26T09:09:38Z</time>
      </trkpt>
      <trkpt lat="48.50356" lon="1.98173">
        <ele>160.74</ele>
        <time>2017-11-26T09:09:40Z</time>
      </trkpt>
      <trkpt lat="48.50357" lon="1.9818">
        <ele>160.98</ele>
        <time>2017-11-26T09:09:42Z</time>
      </trkpt>
      <trkpt lat="48.50358" lon="1.98186">
        <ele>161.19</ele>
        <time>2017-11-26T09:09:44Z</time>
      </trkpt>
      <trkpt lat="48.50359" lon="1.98193">
        <ele>161.42</ele>
        <time>2017-11-26T09:09:46Z</time>
      </trkpt>
      <trkpt lat="48.50361" lon="1.98202">
        <ele>161.72</ele>
        <time>2017-11-26T09:09:48Z</time>
      </trkpt>
      <trkpt lat="48.50364" lon="1.98211">
        <ele>162.03</ele>
        <time>2017-11-26T09:09:50Z</time>
      </trkpt>
      <trkpt lat="48.50367" lon="1.9822">
        <ele>162.32</ele>
        <time>2017-11-26T09:09:52Z</time>
      </trkpt>
      <trkpt lat="48.50369" lon="1.98229">
        <ele>162.54</ele>
        <time>2017-11-26T09:09:54Z</time>
      </trkpt>
      <trkpt lat="48.50371" lon="1.98237">
        <ele>162.71</ele>
        <time>2017-11-26T09:09:56Z</time>
      </trkpt>
      <trkpt lat="48.50371" lon="1.98246">
        <ele>162.85</ele>
        <time>2017-11-26T09:09:58Z</time>
      </trkpt>
      <trkpt lat="48.50372" lon="1.98254">
        <ele>162.98</ele>
        <time>2017-11-26T09:10:00Z</time>
      </trkpt>
      <trkpt lat="48.50373" lon="1.98263">
        <ele>163.12</ele>
        <time>2017-11-26T09:10:02Z</time>
      </trkpt>
      <trkpt lat="48.50375" lon="1.98272">
        <ele>163.26</ele>
        <time>2017-11-26T09:10:04Z</time>
      </trkpt>
      <trkpt lat="48.50377" lon="1.98281">
        <ele>163.39</ele>
        <time>2017-11-26T09:10:06Z</time>
      </trkpt>
      <trkpt lat="48.50379" lon="1.9829">
        <ele>163.53</ele>
        <time>2017-11-26T09:10:08Z</time>
      </trkpt>
      <trkpt lat="48.50381" lon="1.98298">
        <ele>163.63</ele>
        <time>2017-11-26T09:10:10Z</time>
      </trkpt>
      <trkpt lat="48.50383" lon="1.98306">
        <ele>163.73</ele>
        <time>2017-11-26T09:10:12Z</time>
      </trkpt>
      <trkpt lat="48.50385" lon="1.98315">
        <ele>163.83</ele>
        <time>2017-11-26T09:10:14Z</time>
      </trkpt>
      <trkpt lat="48.50387" lon="1.98327">
        <ele>163.94</ele>
        <time>2017-11-26T09:10:16Z</time>
      </trkpt>
      <trkpt lat="48.50389" lon="1.98337">
        <ele>163.95</ele>
        <time>2017-11-26T09:10:18Z</time>
      </trkpt>
      <trkpt lat="48.50392" lon="1.98347">
        <ele>163.81</ele>
        <time>2017-11-26T09:10:20Z</time>
      </trkpt>
      <trkpt lat="48.50394" lon="1.98357">
        <ele>163.66</ele>
        <time>2017-11-26T09:10:22Z</time>
      </trkpt>
      <trkpt lat="48.50398" lon="1.98368">
        <ele>163.45</ele>
        <time>2017-11-26T09:10:24Z</time>
      </trkpt>
      <trkpt lat="48.50401" lon="1.98379">
        <ele>163.22</ele>
        <time>2017-11-26T09:10:26Z</time>
      </trkpt>
      <trkpt lat="48.50404" lon="1.98389">
        <ele>162.98</ele>
        <time>2017-11-26T09:10:28Z</time>
      </trkpt>
      <trkpt lat="48.50407" lon="1.98398">
        <ele>162.72</ele>
        <time>2017-11-26T09:10:30Z</time>
      </trkpt>
      <trkpt lat="48.50412" lon="1.9841">
        <ele>162.31</ele>
        <time>2017-11-26T09:10:31Z</time>
      </trkpt>
      <trkpt lat="48.50418" lon="1.98418">
        <ele>162.02</ele>
        <time>2017-11-26T09:10:34Z</time>
      </trkpt>
      <trkpt lat="48.50422" lon="1.98425">
        <ele>162.08</ele>
        <time>2017-11-26T09:10:36Z</time>
      </trkpt>
      <trkpt lat="48.50427" lon="1.98432">
        <ele>162.14</ele>
        <time>2017-11-26T09:10:38Z</time>
      </trkpt>
      <trkpt lat="48.50432" lon="1.98442">
        <ele>162.14</ele>
        <time>2017-11-26T09:10:40Z</time>
      </trkpt>
      <trkpt lat="48.50436" lon="1.98452">
        <ele>162.08</ele>
        <time>2017-11-26T09:10:42Z</time>
      </trkpt>
      <trkpt lat="48.5044" lon="1.98461">
        <ele>162.02</ele>
        <time>2017-11-26T09:10:43Z</time>
      </trkpt>
      <trkpt lat="48.50444" lon="1.98469">
        <ele>161.93</ele>
        <time>2017-11-26T09:10:46Z</time>
      </trkpt>
      <trkpt lat="48.50448" lon="1.98478">
        <ele>161.84</ele>
        <time>2017-11-26T09:10:48Z</time>
      </trkpt>
      <trkpt lat="48.50451" lon="1.98487">
        <ele>161.7</ele>
        <time>2017-11-26T09:10:50Z</time>
      </trkpt>
      <trkpt lat="48.50456" lon="1.98499">
        <ele>161.5</ele>
        <time>2017-11-26T09:10:52Z</time>
      </trkpt>
      <trkpt lat="48.50461" lon="1.98512">
        <ele>161.38</ele>
        <time>2017-11-26T09:10:54Z</time>
      </trkpt>
      <trkpt lat="48.50467" lon="1.98526">
        <ele>161.23</ele>
        <time>2017-11-26T09:10:55Z</time>
      </trkpt>
      <trkpt lat="48.50472" lon="1.98537">
        <ele>161.07</ele>
        <time>2017-11-26T09:10:58Z</time>
      </trkpt>
      <trkpt lat="48.50488" lon="1.9857">
        <ele>160.42</ele>
        <time>2017-11-26T09:11:00Z</time>
      </trkpt>
      <trkpt lat="48.50494" lon="1.98582">
        <ele>160.1</ele>
        <time>2017-11-26T09:11:02Z</time>
      </trkpt>
      <trkpt lat="48.50502" lon="1.98594">
        <ele>159.92</ele>
        <time>2017-11-26T09:11:04Z</time>
      </trkpt>
      <trkpt lat="48.5051" lon="1.98612">
        <ele>159.82</ele>
        <time>2017-11-26T09:11:06Z</time>
      </trkpt>
      <trkpt lat="48.50546" lon="1.98769">
        <ele>152.85</ele>
        <time>2017-11-26T09:11:24Z</time>
      </trkpt>
      <trkpt lat="48.50547" lon="1.98778">
        <ele>152.47</ele>
        <time>2017-11-26T09:11:26Z</time>
      </trkpt>
      <trkpt lat="48.50557" lon="1.98791">
        <ele>151.09</ele>
        <time>2017-11-26T09:11:29Z</time>
      </trkpt>
      <trkpt lat="48.50561" lon="1.98805">
        <ele>150.14</ele>
        <time>2017-11-26T09:11:31Z</time>
      </trkpt>
      <trkpt lat="48.50567" lon="1.98827">
        <ele>148.67</ele>
        <time>2017-11-26T09:11:33Z</time>
      </trkpt>
      <trkpt lat="48.50571" lon="1.98851">
        <ele>147.22</ele>
        <time>2017-11-26T09:11:35Z</time>
      </trkpt>
      <trkpt lat="48.50578" lon="1.98869">
        <ele>145.71</ele>
        <time>2017-11-26T09:11:37Z</time>
      </trkpt>
      <trkpt lat="48.50586" lon="1.98885">
        <ele>144.34</ele>
        <time>2017-11-26T09:11:39Z</time>
      </trkpt>
      <trkpt lat="48.506" lon="1.98891">
        <ele>142.93</ele>
        <time>2017-11-26T09:11:41Z</time>
      </trkpt>
      <trkpt lat="48.50612" lon="1.98907">
        <ele>141.32</ele>
        <time>2017-11-26T09:11:43Z</time>
      </trkpt>
      <trkpt lat="48.50633" lon="1.98914">
        <ele>139.55</ele>
        <time>2017-11-26T09:11:45Z</time>
      </trkpt>
      <trkpt lat="48.50651" lon="1.98918">
        <ele>138</ele>
        <time>2017-11-26T09:11:47Z</time>
      </trkpt>
      <trkpt lat="48.50666" lon="1.98927">
        <ele>136.11</ele>
        <time>2017-11-26T09:11:49Z</time>
      </trkpt>
      <trkpt lat="48.50683" lon="1.98933">
        <ele>136.17</ele>
        <time>2017-11-26T09:11:51Z</time>
      </trkpt>
      <trkpt lat="48.50689" lon="1.98947">
        <ele>135.41</ele>
        <time>2017-11-26T09:11:53Z</time>
      </trkpt>
      <trkpt lat="48.50694" lon="1.98951">
        <ele>135.35</ele>
        <time>2017-11-26T09:11:55Z</time>
      </trkpt>
      <trkpt lat="48.50697" lon="1.98961">
        <ele>134.75</ele>
        <time>2017-11-26T09:11:57Z</time>
      </trkpt>
      <trkpt lat="48.50701" lon="1.98971">
        <ele>134.35</ele>
        <time>2017-11-26T09:11:59Z</time>
      </trkpt>
      <trkpt lat="48.50707" lon="1.98986">
        <ele>133.75</ele>
        <time>2017-11-26T09:12:01Z</time>
      </trkpt>
      <trkpt lat="48.50714" lon="1.99005">
        <ele>133.11</ele>
        <time>2017-11-26T09:12:03Z</time>
      </trkpt>
      <trkpt lat="48.50717" lon="1.9902">
        <ele>132.57</ele>
        <time>2017-11-26T09:12:05Z</time>
      </trkpt>
      <trkpt lat="48.50719" lon="1.99031">
        <ele>132.04</ele>
        <time>2017-11-26T09:12:07Z</time>
      </trkpt>
      <trkpt lat="48.50721" lon="1.99045">
        <ele>131.39</ele>
        <time>2017-11-26T09:12:09Z</time>
      </trkpt>
      <trkpt lat="48.50724" lon="1.99051">
        <ele>131.24</ele>
        <time>2017-11-26T09:12:11Z</time>
      </trkpt>
      <trkpt lat="48.50731" lon="1.99066">
        <ele>130.9</ele>
        <time>2017-11-26T09:12:13Z</time>
      </trkpt>
      <trkpt lat="48.50737" lon="1.99082">
        <ele>130.32</ele>
        <time>2017-11-26T09:12:15Z</time>
      </trkpt>
      <trkpt lat="48.50745" lon="1.99094">
        <ele>129.97</ele>
        <time>2017-11-26T09:12:17Z</time>
      </trkpt>
      <trkpt lat="48.50751" lon="1.99104">
        <ele>129.6</ele>
        <time>2017-11-26T09:12:19Z</time>
      </trkpt>
      <trkpt lat="48.50756" lon="1.99114">
        <ele>129.3</ele>
        <time>2017-11-26T09:12:21Z</time>
      </trkpt>
      <trkpt lat="48.50766" lon="1.99135">
        <ele>128.4</ele>
        <time>2017-11-26T09:12:23Z</time>
      </trkpt>
      <trkpt lat="48.50772" lon="1.99135">
        <ele>128.91</ele>
        <time>2017-11-26T09:12:25Z</time>
      </trkpt>
      <trkpt lat="48.50778" lon="1.99132">
        <ele>129.63</ele>
        <time>2017-11-26T09:12:27Z</time>
      </trkpt>
      <trkpt lat="48.50783" lon="1.99127">
        <ele>130.46</ele>
        <time>2017-11-26T09:12:29Z</time>
      </trkpt>
      <trkpt lat="48.50792" lon="1.99129">
        <ele>130.87</ele>
        <time>2017-11-26T09:12:33Z</time>
      </trkpt>
      <trkpt lat="48.50796" lon="1.99136">
        <ele>130.56</ele>
        <time>2017-11-26T09:12:35Z</time>
      </trkpt>
      <trkpt lat="48.50802" lon="1.99137">
        <ele>130.92</ele>
        <time>2017-11-26T09:12:37Z</time>
      </trkpt>
      <trkpt lat="48.5081" lon="1.99141">
        <ele>131.13</ele>
        <time>2017-11-26T09:12:39Z</time>
      </trkpt>
      <trkpt lat="48.50816" lon="1.99141">
        <ele>131.54</ele>
        <time>2017-11-26T09:12:41Z</time>
      </trkpt>
      <trkpt lat="48.50823" lon="1.99142">
        <ele>131.89</ele>
        <time>2017-11-26T09:12:43Z</time>
      </trkpt>
      <trkpt lat="48.50824" lon="1.99152">
        <ele>130.96</ele>
        <time>2017-11-26T09:12:45Z</time>
      </trkpt>
      <trkpt lat="48.50835" lon="1.99156">
        <ele>131.19</ele>
        <time>2017-11-26T09:12:47Z</time>
      </trkpt>
      <trkpt lat="48.50848" lon="1.99157">
        <ele>131.86</ele>
        <time>2017-11-26T09:12:49Z</time>
      </trkpt>
      <trkpt lat="48.50856" lon="1.99166">
        <ele>131.42</ele>
        <time>2017-11-26T09:12:51Z</time>
      </trkpt>
      <trkpt lat="48.50865" lon="1.99179">
        <ele>130.25</ele>
        <time>2017-11-26T09:12:53Z</time>
      </trkpt>
      <trkpt lat="48.50875" lon="1.99185">
        <ele>130.16</ele>
        <time>2017-11-26T09:12:55Z</time>
      </trkpt>
      <trkpt lat="48.50884" lon="1.99181">
        <ele>131.17</ele>
        <time>2017-11-26T09:12:57Z</time>
      </trkpt>
      <trkpt lat="48.5089" lon="1.99181">
        <ele>131.69</ele>
        <time>2017-11-26T09:12:59Z</time>
      </trkpt>
      <trkpt lat="48.50898" lon="1.99181">
        <ele>132.05</ele>
        <time>2017-11-26T09:13:01Z</time>
      </trkpt>
      <trkpt lat="48.50906" lon="1.99186">
        <ele>132.05</ele>
        <time>2017-11-26T09:13:03Z</time>
      </trkpt>
      <trkpt lat="48.50916" lon="1.99181">
        <ele>133.26</ele>
        <time>2017-11-26T09:13:05Z</time>
      </trkpt>
      <trkpt lat="48.50927" lon="1.99193">
        <ele>131.88</ele>
        <time>2017-11-26T09:13:07Z</time>
      </trkpt>
      <trkpt lat="48.50936" lon="1.99209">
        <ele>130.05</ele>
        <time>2017-11-26T09:13:09Z</time>
      </trkpt>
      <trkpt lat="48.50952" lon="1.99224">
        <ele>128.53</ele>
        <time>2017-11-26T09:13:11Z</time>
      </trkpt>
      <trkpt lat="48.50951" lon="1.99216">
        <ele>129.43</ele>
        <time>2017-11-26T09:13:13Z</time>
      </trkpt>
      <trkpt lat="48.50959" lon="1.99216">
        <ele>129.52</ele>
        <time>2017-11-26T09:13:15Z</time>
      </trkpt>
      <trkpt lat="48.50974" lon="1.99202">
        <ele>130.91</ele>
        <time>2017-11-26T09:13:17Z</time>
      </trkpt>
      <trkpt lat="48.50987" lon="1.99213">
        <ele>129.97</ele>
        <time>2017-11-26T09:13:19Z</time>
      </trkpt>
      <trkpt lat="48.50996" lon="1.99218">
        <ele>129.68</ele>
        <time>2017-11-26T09:13:21Z</time>
      </trkpt>
      <trkpt lat="48.51002" lon="1.99225">
        <ele>129.04</ele>
        <time>2017-11-26T09:13:23Z</time>
      </trkpt>
      <trkpt lat="48.51009" lon="1.99234">
        <ele>128.19</ele>
        <time>2017-11-26T09:13:27Z</time>
      </trkpt>
      <trkpt lat="48.51017" lon="1.99246">
        <ele>127.08</ele>
        <time>2017-11-26T09:13:29Z</time>
      </trkpt>
      <trkpt lat="48.51025" lon="1.99255">
        <ele>126.22</ele>
        <time>2017-11-26T09:13:31Z</time>
      </trkpt>
      <trkpt lat="48.51032" lon="1.99268">
        <ele>125.03</ele>
        <time>2017-11-26T09:13:33Z</time>
      </trkpt>
      <trkpt lat="48.5104" lon="1.99273">
        <ele>124.72</ele>
        <time>2017-11-26T09:13:35Z</time>
      </trkpt>
      <trkpt lat="48.5105" lon="1.99281">
        <ele>124.26</ele>
        <time>2017-11-26T09:13:37Z</time>
      </trkpt>
      <trkpt lat="48.5106" lon="1.99286">
        <ele>124.16</ele>
        <time>2017-11-26T09:13:39Z</time>
      </trkpt>
      <trkpt lat="48.51065" lon="1.99291">
        <ele>123.98</ele>
        <time>2017-11-26T09:13:41Z</time>
      </trkpt>
      <trkpt lat="48.5107" lon="1.99302">
        <ele>123.62</ele>
        <time>2017-11-26T09:13:47Z</time>
      </trkpt>
      <trkpt lat="48.51079" lon="1.99297">
        <ele>124.15</ele>
        <time>2017-11-26T09:13:49Z</time>
      </trkpt>
      <trkpt lat="48.51086" lon="1.99295">
        <ele>124.43</ele>
        <time>2017-11-26T09:13:53Z</time>
      </trkpt>
      <trkpt lat="48.51089" lon="1.99287">
        <ele>124.78</ele>
        <time>2017-11-26T09:13:55Z</time>
      </trkpt>
      <trkpt lat="48.51094" lon="1.99285">
        <ele>125</ele>
        <time>2017-11-26T09:13:57Z</time>
      </trkpt>
      <trkpt lat="48.51098" lon="1.99281">
        <ele>125.25</ele>
        <time>2017-11-26T09:13:59Z</time>
      </trkpt>
      <trkpt lat="48.51096" lon="1.99273">
        <ele>125.46</ele>
        <time>2017-11-26T09:14:03Z</time>
      </trkpt>
      <trkpt lat="48.51108" lon="1.99259">
        <ele>126.29</ele>
        <time>2017-11-26T09:14:07Z</time>
      </trkpt>
      <trkpt lat="48.5111" lon="1.99246">
        <ele>126.85</ele>
        <time>2017-11-26T09:14:11Z</time>
      </trkpt>
      <trkpt lat="48.51124" lon="1.99222">
        <ele>128.33</ele>
        <time>2017-11-26T09:14:13Z</time>
      </trkpt>
      <trkpt lat="48.5113" lon="1.99215">
        <ele>128.75</ele>
        <time>2017-11-26T09:14:15Z</time>
      </trkpt>
      <trkpt lat="48.51134" lon="1.99207">
        <ele>129.16</ele>
        <time>2017-11-26T09:14:17Z</time>
      </trkpt>
      <trkpt lat="48.51139" lon="1.992">
        <ele>129.55</ele>
        <time>2017-11-26T09:14:19Z</time>
      </trkpt>
      <trkpt lat="48.51143" lon="1.9919">
        <ele>129.99</ele>
        <time>2017-11-26T09:14:23Z</time>
      </trkpt>
      <trkpt lat="48.51146" lon="1.99182">
        <ele>130.35</ele>
        <time>2017-11-26T09:14:25Z</time>
      </trkpt>
      <trkpt lat="48.51146" lon="1.99174">
        <ele>130.68</ele>
        <time>2017-11-26T09:14:29Z</time>
      </trkpt>
      <trkpt lat="48.51148" lon="1.99167">
        <ele>131</ele>
        <time>2017-11-26T09:14:33Z</time>
      </trkpt>
      <trkpt lat="48.5115" lon="1.9916">
        <ele>131.19</ele>
        <time>2017-11-26T09:14:35Z</time>
      </trkpt>
      <trkpt lat="48.51153" lon="1.99154">
        <ele>131.35</ele>
        <time>2017-11-26T09:14:37Z</time>
      </trkpt>
      <trkpt lat="48.51155" lon="1.99147">
        <ele>131.53</ele>
        <time>2017-11-26T09:14:39Z</time>
      </trkpt>
      <trkpt lat="48.51167" lon="1.99127">
        <ele>131.96</ele>
        <time>2017-11-26T09:14:43Z</time>
      </trkpt>
      <trkpt lat="48.51173" lon="1.99117">
        <ele>132.45</ele>
        <time>2017-11-26T09:14:47Z</time>
      </trkpt>
      <trkpt lat="48.51177" lon="1.99113">
        <ele>132.74</ele>
        <time>2017-11-26T09:14:51Z</time>
      </trkpt>
      <trkpt lat="48.5118" lon="1.99106">
        <ele>133.04</ele>
        <time>2017-11-26T09:14:55Z</time>
      </trkpt>
      <trkpt lat="48.51183" lon="1.991">
        <ele>133.35</ele>
        <time>2017-11-26T09:15:01Z</time>
      </trkpt>
      <trkpt lat="48.51188" lon="1.99094">
        <ele>133.71</ele>
        <time>2017-11-26T09:15:05Z</time>
      </trkpt>
      <trkpt lat="48.51191" lon="1.99088">
        <ele>134.06</ele>
        <time>2017-11-26T09:15:09Z</time>
      </trkpt>
      <trkpt lat="48.51195" lon="1.99081">
        <ele>134.52</ele>
        <time>2017-11-26T09:15:19Z</time>
      </trkpt>
      <trkpt lat="48.51198" lon="1.99069">
        <ele>135.47</ele>
        <time>2017-11-26T09:15:25Z</time>
      </trkpt>
      <trkpt lat="48.51202" lon="1.99062">
        <ele>136.19</ele>
        <time>2017-11-26T09:15:27Z</time>
      </trkpt>
      <trkpt lat="48.51205" lon="1.99055">
        <ele>136.76</ele>
        <time>2017-11-26T09:15:29Z</time>
      </trkpt>
      <trkpt lat="48.51207" lon="1.99045">
        <ele>137.45</ele>
        <time>2017-11-26T09:15:33Z</time>
      </trkpt>
      <trkpt lat="48.5121" lon="1.99037">
        <ele>138.08</ele>
        <time>2017-11-26T09:15:37Z</time>
      </trkpt>
      <trkpt lat="48.51214" lon="1.99029">
        <ele>138.73</ele>
        <time>2017-11-26T09:15:41Z</time>
      </trkpt>
      <trkpt lat="48.51218" lon="1.99021">
        <ele>139.3</ele>
        <time>2017-11-26T09:15:47Z</time>
      </trkpt>
      <trkpt lat="48.51221" lon="1.99014">
        <ele>139.82</ele>
        <time>2017-11-26T09:15:53Z</time>
      </trkpt>
      <trkpt lat="48.51226" lon="1.99014">
        <ele>139.9</ele>
        <time>2017-11-26T09:15:59Z</time>
      </trkpt>
      <trkpt lat="48.51229" lon="1.99005">
        <ele>140.47</ele>
        <time>2017-11-26T09:16:05Z</time>
      </trkpt>
      <trkpt lat="48.51233" lon="1.98996">
        <ele>141.12</ele>
        <time>2017-11-26T09:16:09Z</time>
      </trkpt>
      <trkpt lat="48.51238" lon="1.98986">
        <ele>142</ele>
        <time>2017-11-26T09:16:13Z</time>
      </trkpt>
      <trkpt lat="48.51241" lon="1.98976">
        <ele>142.75</ele>
        <time>2017-11-26T09:16:15Z</time>
      </trkpt>
      <trkpt lat="48.51243" lon="1.98969">
        <ele>143.31</ele>
        <time>2017-11-26T09:16:17Z</time>
      </trkpt>
      <trkpt lat="48.51245" lon="1.98961">
        <ele>143.87</ele>
        <time>2017-11-26T09:16:19Z</time>
      </trkpt>
      <trkpt lat="48.51248" lon="1.98951">
        <ele>144.53</ele>
        <time>2017-11-26T09:16:21Z</time>
      </trkpt>
      <trkpt lat="48.51252" lon="1.98943">
        <ele>144.98</ele>
        <time>2017-11-26T09:16:23Z</time>
      </trkpt>
      <trkpt lat="48.51255" lon="1.98935">
        <ele>145.3</ele>
        <time>2017-11-26T09:16:25Z</time>
      </trkpt>
      <trkpt lat="48.5126" lon="1.98922">
        <ele>145.7</ele>
        <time>2017-11-26T09:16:27Z</time>
      </trkpt>
      <trkpt lat="48.51265" lon="1.98909">
        <ele>145.48</ele>
        <time>2017-11-26T09:16:29Z</time>
      </trkpt>
      <trkpt lat="48.51273" lon="1.98889">
        <ele>144.62</ele>
        <time>2017-11-26T09:16:32Z</time>
      </trkpt>
      <trkpt lat="48.51277" lon="1.98877">
        <ele>144.05</ele>
        <time>2017-11-26T09:16:34Z</time>
      </trkpt>
      <trkpt lat="48.51286" lon="1.98856">
        <ele>142.92</ele>
        <time>2017-11-26T09:16:36Z</time>
      </trkpt>
      <trkpt lat="48.51292" lon="1.98838">
        <ele>141.99</ele>
        <time>2017-11-26T09:16:38Z</time>
      </trkpt>
      <trkpt lat="48.513" lon="1.98825">
        <ele>140.87</ele>
        <time>2017-11-26T09:16:40Z</time>
      </trkpt>
      <trkpt lat="48.51308" lon="1.98816">
        <ele>139.84</ele>
        <time>2017-11-26T09:16:42Z</time>
      </trkpt>
      <trkpt lat="48.51316" lon="1.98805">
        <ele>138.83</ele>
        <time>2017-11-26T09:16:44Z</time>
      </trkpt>
      <trkpt lat="48.51322" lon="1.98794">
        <ele>138.12</ele>
        <time>2017-11-26T09:16:46Z</time>
      </trkpt>
      <trkpt lat="48.51326" lon="1.98788">
        <ele>137.78</ele>
        <time>2017-11-26T09:16:48Z</time>
      </trkpt>
      <trkpt lat="48.5133" lon="1.9878">
        <ele>137.32</ele>
        <time>2017-11-26T09:16:50Z</time>
      </trkpt>
      <trkpt lat="48.51334" lon="1.98773">
        <ele>136.96</ele>
        <time>2017-11-26T09:16:52Z</time>
      </trkpt>
      <trkpt lat="48.51338" lon="1.98765">
        <ele>136.74</ele>
        <time>2017-11-26T09:16:54Z</time>
      </trkpt>
      <trkpt lat="48.5134" lon="1.98759">
        <ele>136.59</ele>
        <time>2017-11-26T09:16:56Z</time>
      </trkpt>
      <trkpt lat="48.51343" lon="1.98754">
        <ele>136.42</ele>
        <time>2017-11-26T09:17:00Z</time>
      </trkpt>
      <trkpt lat="48.51349" lon="1.98751">
        <ele>136.07</ele>
        <time>2017-11-26T09:17:08Z</time>
      </trkpt>
      <trkpt lat="48.51354" lon="1.9874">
        <ele>135.9</ele>
        <time>2017-11-26T09:17:12Z</time>
      </trkpt>
      <trkpt lat="48.51357" lon="1.98729">
        <ele>135.81</ele>
        <time>2017-11-26T09:17:14Z</time>
      </trkpt>
      <trkpt lat="48.51364" lon="1.98714">
        <ele>135.61</ele>
        <time>2017-11-26T09:17:16Z</time>
      </trkpt>
      <trkpt lat="48.5137" lon="1.98699">
        <ele>135.38</ele>
        <time>2017-11-26T09:17:18Z</time>
      </trkpt>
      <trkpt lat="48.51377" lon="1.98685">
        <ele>135.16</ele>
        <time>2017-11-26T09:17:20Z</time>
      </trkpt>
      <trkpt lat="48.51381" lon="1.98674">
        <ele>135.02</ele>
        <time>2017-11-26T09:17:22Z</time>
      </trkpt>
      <trkpt lat="48.51386" lon="1.98664">
        <ele>134.76</ele>
        <time>2017-11-26T09:17:24Z</time>
      </trkpt>
      <trkpt lat="48.51392" lon="1.98653">
        <ele>134.28</ele>
        <time>2017-11-26T09:17:26Z</time>
      </trkpt>
      <trkpt lat="48.51397" lon="1.98643">
        <ele>133.83</ele>
        <time>2017-11-26T09:17:28Z</time>
      </trkpt>
      <trkpt lat="48.51402" lon="1.98632">
        <ele>133.41</ele>
        <time>2017-11-26T09:17:30Z</time>
      </trkpt>
      <trkpt lat="48.51408" lon="1.98619">
        <ele>132.89</ele>
        <time>2017-11-26T09:17:32Z</time>
      </trkpt>
      <trkpt lat="48.51416" lon="1.98601">
        <ele>132.24</ele>
        <time>2017-11-26T09:17:34Z</time>
      </trkpt>
      <trkpt lat="48.51422" lon="1.9859">
        <ele>131.81</ele>
        <time>2017-11-26T09:17:36Z</time>
      </trkpt>
      <trkpt lat="48.51429" lon="1.98585">
        <ele>131.44</ele>
        <time>2017-11-26T09:17:40Z</time>
      </trkpt>
      <trkpt lat="48.51436" lon="1.98561">
        <ele>130.26</ele>
        <time>2017-11-26T09:17:44Z</time>
      </trkpt>
      <trkpt lat="48.51443" lon="1.98561">
        <ele>129.84</ele>
        <time>2017-11-26T09:17:46Z</time>
      </trkpt>
      <trkpt lat="48.51448" lon="1.98564">
        <ele>129.66</ele>
        <time>2017-11-26T09:17:48Z</time>
      </trkpt>
      <trkpt lat="48.51459" lon="1.98565">
        <ele>129.06</ele>
        <time>2017-11-26T09:17:50Z</time>
      </trkpt>
      <trkpt lat="48.51465" lon="1.98573">
        <ele>129.17</ele>
        <time>2017-11-26T09:17:52Z</time>
      </trkpt>
      <trkpt lat="48.51471" lon="1.98582">
        <ele>129.32</ele>
        <time>2017-11-26T09:17:54Z</time>
      </trkpt>
      <trkpt lat="48.51474" lon="1.98592">
        <ele>129.28</ele>
        <time>2017-11-26T09:17:56Z</time>
      </trkpt>
      <trkpt lat="48.51479" lon="1.986">
        <ele>129.06</ele>
        <time>2017-11-26T09:17:58Z</time>
      </trkpt>
      <trkpt lat="48.51482" lon="1.98611">
        <ele>128.92</ele>
        <time>2017-11-26T09:18:00Z</time>
      </trkpt>
      <trkpt lat="48.5149" lon="1.98622">
        <ele>128.56</ele>
        <time>2017-11-26T09:18:02Z</time>
      </trkpt>
      <trkpt lat="48.51494" lon="1.98629">
        <ele>128.35</ele>
        <time>2017-11-26T09:18:04Z</time>
      </trkpt>
      <trkpt lat="48.51498" lon="1.9864">
        <ele>128.09</ele>
        <time>2017-11-26T09:18:06Z</time>
      </trkpt>
      <trkpt lat="48.51503" lon="1.98651">
        <ele>127.86</ele>
        <time>2017-11-26T09:18:08Z</time>
      </trkpt>
      <trkpt lat="48.51507" lon="1.98662">
        <ele>127.66</ele>
        <time>2017-11-26T09:18:10Z</time>
      </trkpt>
      <trkpt lat="48.51516" lon="1.9868">
        <ele>127.35</ele>
        <time>2017-11-26T09:18:12Z</time>
      </trkpt>
      <trkpt lat="48.51521" lon="1.98695">
        <ele>127.16</ele>
        <time>2017-11-26T09:18:14Z</time>
      </trkpt>
      <trkpt lat="48.51527" lon="1.9871">
        <ele>126.89</ele>
        <time>2017-11-26T09:18:16Z</time>
      </trkpt>
      <trkpt lat="48.51531" lon="1.98725">
        <ele>126.7</ele>
        <time>2017-11-26T09:18:18Z</time>
      </trkpt>
      <trkpt lat="48.5154" lon="1.98734">
        <ele>126.12</ele>
        <time>2017-11-26T09:18:20Z</time>
      </trkpt>
      <trkpt lat="48.51547" lon="1.98747">
        <ele>125.64</ele>
        <time>2017-11-26T09:18:22Z</time>
      </trkpt>
      <trkpt lat="48.51552" lon="1.9876">
        <ele>125.27</ele>
        <time>2017-11-26T09:18:24Z</time>
      </trkpt>
      <trkpt lat="48.51558" lon="1.98773">
        <ele>124.86</ele>
        <time>2017-11-26T09:18:26Z</time>
      </trkpt>
      <trkpt lat="48.51564" lon="1.98786">
        <ele>124.36</ele>
        <time>2017-11-26T09:18:28Z</time>
      </trkpt>
      <trkpt lat="48.51571" lon="1.98798">
        <ele>123.88</ele>
        <time>2017-11-26T09:18:30Z</time>
      </trkpt>
      <trkpt lat="48.51577" lon="1.98812">
        <ele>123.43</ele>
        <time>2017-11-26T09:18:32Z</time>
      </trkpt>
      <trkpt lat="48.51583" lon="1.98824">
        <ele>123.04</ele>
        <time>2017-11-26T09:18:34Z</time>
      </trkpt>
      <trkpt lat="48.5159" lon="1.9884">
        <ele>122.92</ele>
        <time>2017-11-26T09:18:36Z</time>
      </trkpt>
      <trkpt lat="48.51597" lon="1.98856">
        <ele>122.69</ele>
        <time>2017-11-26T09:18:38Z</time>
      </trkpt>
      <trkpt lat="48.51603" lon="1.9887">
        <ele>122.46</ele>
        <time>2017-11-26T09:18:40Z</time>
      </trkpt>
      <trkpt lat="48.51609" lon="1.98883">
        <ele>122.23</ele>
        <time>2017-11-26T09:18:42Z</time>
      </trkpt>
      <trkpt lat="48.51613" lon="1.98893">
        <ele>122.03</ele>
        <time>2017-11-26T09:18:44Z</time>
      </trkpt>
      <trkpt lat="48.51616" lon="1.98904">
        <ele>121.83</ele>
        <time>2017-11-26T09:18:46Z</time>
      </trkpt>
      <trkpt lat="48.51621" lon="1.98914">
        <ele>121.58</ele>
        <time>2017-11-26T09:18:48Z</time>
      </trkpt>
      <trkpt lat="48.51625" lon="1.98923">
        <ele>121.5</ele>
        <time>2017-11-26T09:18:50Z</time>
      </trkpt>
      <trkpt lat="48.5163" lon="1.98933">
        <ele>121.44</ele>
        <time>2017-11-26T09:18:52Z</time>
      </trkpt>
      <trkpt lat="48.51635" lon="1.98944">
        <ele>121.37</ele>
        <time>2017-11-26T09:18:54Z</time>
      </trkpt>
      <trkpt lat="48.5164" lon="1.98953">
        <ele>121.33</ele>
        <time>2017-11-26T09:18:56Z</time>
      </trkpt>
      <trkpt lat="48.51642" lon="1.9896">
        <ele>121.29</ele>
        <time>2017-11-26T09:18:58Z</time>
      </trkpt>
      <trkpt lat="48.51648" lon="1.98969">
        <ele>121.23</ele>
        <time>2017-11-26T09:19:00Z</time>
      </trkpt>
      <trkpt lat="48.51651" lon="1.98976">
        <ele>121.19</ele>
        <time>2017-11-26T09:19:02Z</time>
      </trkpt>
      <trkpt lat="48.51658" lon="1.98983">
        <ele>121.1</ele>
        <time>2017-11-26T09:19:04Z</time>
      </trkpt>
      <trkpt lat="48.51662" lon="1.98996">
        <ele>121.05</ele>
        <time>2017-11-26T09:19:06Z</time>
      </trkpt>
      <trkpt lat="48.51669" lon="1.99009">
        <ele>120.85</ele>
        <time>2017-11-26T09:19:08Z</time>
      </trkpt>
      <trkpt lat="48.51673" lon="1.99019">
        <ele>120.94</ele>
        <time>2017-11-26T09:19:10Z</time>
      </trkpt>
      <trkpt lat="48.5168" lon="1.99027">
        <ele>121.23</ele>
        <time>2017-11-26T09:19:12Z</time>
      </trkpt>
      <trkpt lat="48.51686" lon="1.99038">
        <ele>121.36</ele>
        <time>2017-11-26T09:19:14Z</time>
      </trkpt>
      <trkpt lat="48.51691" lon="1.99052">
        <ele>121.25</ele>
        <time>2017-11-26T09:19:16Z</time>
      </trkpt>
      <trkpt lat="48.517" lon="1.99061">
        <ele>121.69</ele>
        <time>2017-11-26T09:19:20Z</time>
      </trkpt>
      <trkpt lat="48.51703" lon="1.99071">
        <ele>121.58</ele>
        <time>2017-11-26T09:19:22Z</time>
      </trkpt>
      <trkpt lat="48.51708" lon="1.99072">
        <ele>121.94</ele>
        <time>2017-11-26T09:19:24Z</time>
      </trkpt>
      <trkpt lat="48.51713" lon="1.99081">
        <ele>121.97</ele>
        <time>2017-11-26T09:19:26Z</time>
      </trkpt>
      <trkpt lat="48.51717" lon="1.99091">
        <ele>121.98</ele>
        <time>2017-11-26T09:19:28Z</time>
      </trkpt>
      <trkpt lat="48.51723" lon="1.99101">
        <ele>122.21</ele>
        <time>2017-11-26T09:19:30Z</time>
      </trkpt>
      <trkpt lat="48.51724" lon="1.99114">
        <ele>122.03</ele>
        <time>2017-11-26T09:19:32Z</time>
      </trkpt>
      <trkpt lat="48.51727" lon="1.99124">
        <ele>122.03</ele>
        <time>2017-11-26T09:19:34Z</time>
      </trkpt>
      <trkpt lat="48.51732" lon="1.99133">
        <ele>122.43</ele>
        <time>2017-11-26T09:19:36Z</time>
      </trkpt>
      <trkpt lat="48.51743" lon="1.99155">
        <ele>123.23</ele>
        <time>2017-11-26T09:19:38Z</time>
      </trkpt>
      <trkpt lat="48.51751" lon="1.9916">
        <ele>124.15</ele>
        <time>2017-11-26T09:19:40Z</time>
      </trkpt>
      <trkpt lat="48.5175" lon="1.99154">
        <ele>124.13</ele>
        <time>2017-11-26T09:19:50Z</time>
      </trkpt>
      <trkpt lat="48.51744" lon="1.99151">
        <ele>123.44</ele>
        <time>2017-11-26T09:19:54Z</time>
      </trkpt>
      <trkpt lat="48.51744" lon="1.99141">
        <ele>123.61</ele>
        <time>2017-11-26T09:19:58Z</time>
      </trkpt>
      <trkpt lat="48.51742" lon="1.9913">
        <ele>123.51</ele>
        <time>2017-11-26T09:20:02Z</time>
      </trkpt>
      <trkpt lat="48.51743" lon="1.99113">
        <ele>123.94</ele>
        <time>2017-11-26T09:20:06Z</time>
      </trkpt>
      <trkpt lat="48.51739" lon="1.99106">
        <ele>123.61</ele>
        <time>2017-11-26T09:20:10Z</time>
      </trkpt>
      <trkpt lat="48.51738" lon="1.99097">
        <ele>123.7</ele>
        <time>2017-11-26T09:20:12Z</time>
      </trkpt>
      <trkpt lat="48.51738" lon="1.99084">
        <ele>123.94</ele>
        <time>2017-11-26T09:20:14Z</time>
      </trkpt>
      <trkpt lat="48.51738" lon="1.99068">
        <ele>124.71</ele>
        <time>2017-11-26T09:20:16Z</time>
      </trkpt>
      <trkpt lat="48.51736" lon="1.99059">
        <ele>124.92</ele>
        <time>2017-11-26T09:20:18Z</time>
      </trkpt>
      <trkpt lat="48.51731" lon="1.99052">
        <ele>124.8</ele>
        <time>2017-11-26T09:20:20Z</time>
      </trkpt>
      <trkpt lat="48.51728" lon="1.99046">
        <ele>124.79</ele>
        <time>2017-11-26T09:20:22Z</time>
      </trkpt>
      <trkpt lat="48.51726" lon="1.99039">
        <ele>124.94</ele>
        <time>2017-11-26T09:20:24Z</time>
      </trkpt>
      <trkpt lat="48.51724" lon="1.99029">
        <ele>125.22</ele>
        <time>2017-11-26T09:20:26Z</time>
      </trkpt>
      <trkpt lat="48.51723" lon="1.9902">
        <ele>125.53</ele>
        <time>2017-11-26T09:20:28Z</time>
      </trkpt>
      <trkpt lat="48.51722" lon="1.99012">
        <ele>125.8</ele>
        <time>2017-11-26T09:20:30Z</time>
      </trkpt>
      <trkpt lat="48.51722" lon="1.99004">
        <ele>126.1</ele>
        <time>2017-11-26T09:20:32Z</time>
      </trkpt>
      <trkpt lat="48.51722" lon="1.98996">
        <ele>126.25</ele>
        <time>2017-11-26T09:20:34Z</time>
      </trkpt>
      <trkpt lat="48.51722" lon="1.98986">
        <ele>126.2</ele>
        <time>2017-11-26T09:20:36Z</time>
      </trkpt>
      <trkpt lat="48.51723" lon="1.98976">
        <ele>126.17</ele>
        <time>2017-11-26T09:20:38Z</time>
      </trkpt>
      <trkpt lat="48.51722" lon="1.98967">
        <ele>126.08</ele>
        <time>2017-11-26T09:20:40Z</time>
      </trkpt>
      <trkpt lat="48.51721" lon="1.98958">
        <ele>125.86</ele>
        <time>2017-11-26T09:20:42Z</time>
      </trkpt>
      <trkpt lat="48.51718" lon="1.98949">
        <ele>125.54</ele>
        <time>2017-11-26T09:20:44Z</time>
      </trkpt>
      <trkpt lat="48.51716" lon="1.98938">
        <ele>125.28</ele>
        <time>2017-11-26T09:20:46Z</time>
      </trkpt>
      <trkpt lat="48.51714" lon="1.98928">
        <ele>125.05</ele>
        <time>2017-11-26T09:20:48Z</time>
      </trkpt>
      <trkpt lat="48.51712" lon="1.98919">
        <ele>124.8</ele>
        <time>2017-11-26T09:20:50Z</time>
      </trkpt>
      <trkpt lat="48.51709" lon="1.98909">
        <ele>124.62</ele>
        <time>2017-11-26T09:20:52Z</time>
      </trkpt>
      <trkpt lat="48.51707" lon="1.98892">
        <ele>124.7</ele>
        <time>2017-11-26T09:20:54Z</time>
      </trkpt>
      <trkpt lat="48.51702" lon="1.98838">
        <ele>125.06</ele>
        <time>2017-11-26T09:21:00Z</time>
      </trkpt>
      <trkpt lat="48.51701" lon="1.98831">
        <ele>125.13</ele>
        <time>2017-11-26T09:21:00Z</time>
      </trkpt>
      <trkpt lat="48.51691" lon="1.98803">
        <ele>125.63</ele>
        <time>2017-11-26T09:21:05Z</time>
      </trkpt>
      <trkpt lat="48.51688" lon="1.98791">
        <ele>125.81</ele>
        <time>2017-11-26T09:21:07Z</time>
      </trkpt>
      <trkpt lat="48.51685" lon="1.9878">
        <ele>125.94</ele>
        <time>2017-11-26T09:21:09Z</time>
      </trkpt>
      <trkpt lat="48.51681" lon="1.98768">
        <ele>126.02</ele>
        <time>2017-11-26T09:21:11Z</time>
      </trkpt>
      <trkpt lat="48.51678" lon="1.98756">
        <ele>126.04</ele>
        <time>2017-11-26T09:21:13Z</time>
      </trkpt>
      <trkpt lat="48.51675" lon="1.98744">
        <ele>126.14</ele>
        <time>2017-11-26T09:21:15Z</time>
      </trkpt>
      <trkpt lat="48.51673" lon="1.98733">
        <ele>126.28</ele>
        <time>2017-11-26T09:21:17Z</time>
      </trkpt>
      <trkpt lat="48.51669" lon="1.98724">
        <ele>126.23</ele>
        <time>2017-11-26T09:21:19Z</time>
      </trkpt>
      <trkpt lat="48.51665" lon="1.98714">
        <ele>126.23</ele>
        <time>2017-11-26T09:21:21Z</time>
      </trkpt>
      <trkpt lat="48.5166" lon="1.98705">
        <ele>126.35</ele>
        <time>2017-11-26T09:21:23Z</time>
      </trkpt>
      <trkpt lat="48.51655" lon="1.98696">
        <ele>126.47</ele>
        <time>2017-11-26T09:21:25Z</time>
      </trkpt>
      <trkpt lat="48.51651" lon="1.98687">
        <ele>126.6</ele>
        <time>2017-11-26T09:21:27Z</time>
      </trkpt>
      <trkpt lat="48.51647" lon="1.98677">
        <ele>126.73</ele>
        <time>2017-11-26T09:21:29Z</time>
      </trkpt>
      <trkpt lat="48.51643" lon="1.98668">
        <ele>126.83</ele>
        <time>2017-11-26T09:21:31Z</time>
      </trkpt>
      <trkpt lat="48.51641" lon="1.98657">
        <ele>126.9</ele>
        <time>2017-11-26T09:21:33Z</time>
      </trkpt>
      <trkpt lat="48.51638" lon="1.98647">
        <ele>126.96</ele>
        <time>2017-11-26T09:21:35Z</time>
      </trkpt>
      <trkpt lat="48.51637" lon="1.98635">
        <ele>127.09</ele>
        <time>2017-11-26T09:21:36Z</time>
      </trkpt>
      <trkpt lat="48.51636" lon="1.98622">
        <ele>127.21</ele>
        <time>2017-11-26T09:21:39Z</time>
      </trkpt>
      <trkpt lat="48.51636" lon="1.98609">
        <ele>127.4</ele>
        <time>2017-11-26T09:21:41Z</time>
      </trkpt>
      <trkpt lat="48.51636" lon="1.98573">
        <ele>127.73</ele>
        <time>2017-11-26T09:21:43Z</time>
      </trkpt>
      <trkpt lat="48.51635" lon="1.98555">
        <ele>127.58</ele>
        <time>2017-11-26T09:21:45Z</time>
      </trkpt>
      <trkpt lat="48.51638" lon="1.98533">
        <ele>127.66</ele>
        <time>2017-11-26T09:21:47Z</time>
      </trkpt>
      <trkpt lat="48.51644" lon="1.98496">
        <ele>128.24</ele>
        <time>2017-11-26T09:21:51Z</time>
      </trkpt>
      <trkpt lat="48.51646" lon="1.98479">
        <ele>128.31</ele>
        <time>2017-11-26T09:21:53Z</time>
      </trkpt>
      <trkpt lat="48.51646" lon="1.98462">
        <ele>128.22</ele>
        <time>2017-11-26T09:21:55Z</time>
      </trkpt>
      <trkpt lat="48.5165" lon="1.9845">
        <ele>128.47</ele>
        <time>2017-11-26T09:21:57Z</time>
      </trkpt>
      <trkpt lat="48.51652" lon="1.98432">
        <ele>128.57</ele>
        <time>2017-11-26T09:21:59Z</time>
      </trkpt>
      <trkpt lat="48.51648" lon="1.9842">
        <ele>128.05</ele>
        <time>2017-11-26T09:22:00Z</time>
      </trkpt>
      <trkpt lat="48.51646" lon="1.98414">
        <ele>127.64</ele>
        <time>2017-11-26T09:22:03Z</time>
      </trkpt>
      <trkpt lat="48.51639" lon="1.98408">
        <ele>126.73</ele>
        <time>2017-11-26T09:22:05Z</time>
      </trkpt>
      <trkpt lat="48.51639" lon="1.98393">
        <ele>126.12</ele>
        <time>2017-11-26T09:22:09Z</time>
      </trkpt>
      <trkpt lat="48.51635" lon="1.98381">
        <ele>125.34</ele>
        <time>2017-11-26T09:22:12Z</time>
      </trkpt>
      <trkpt lat="48.51634" lon="1.98368">
        <ele>124.76</ele>
        <time>2017-11-26T09:22:17Z</time>
      </trkpt>
      <trkpt lat="48.51635" lon="1.98355">
        <ele>124.35</ele>
        <time>2017-11-26T09:22:21Z</time>
      </trkpt>
      <trkpt lat="48.5164" lon="1.98346">
        <ele>124.52</ele>
        <time>2017-11-26T09:22:23Z</time>
      </trkpt>
      <trkpt lat="48.51647" lon="1.98336">
        <ele>124.92</ele>
        <time>2017-11-26T09:22:24Z</time>
      </trkpt>
      <trkpt lat="48.51653" lon="1.98318">
        <ele>126.02</ele>
        <time>2017-11-26T09:22:27Z</time>
      </trkpt>
      <trkpt lat="48.5165" lon="1.983">
        <ele>126.31</ele>
        <time>2017-11-26T09:22:31Z</time>
      </trkpt>
      <trkpt lat="48.5165" lon="1.98285">
        <ele>126.83</ele>
        <time>2017-11-26T09:22:33Z</time>
      </trkpt>
      <trkpt lat="48.51645" lon="1.9828">
        <ele>126.42</ele>
        <time>2017-11-26T09:22:35Z</time>
      </trkpt>
      <trkpt lat="48.5164" lon="1.9827">
        <ele>126.14</ele>
        <time>2017-11-26T09:22:36Z</time>
      </trkpt>
      <trkpt lat="48.51634" lon="1.98262">
        <ele>125.64</ele>
        <time>2017-11-26T09:22:39Z</time>
      </trkpt>
      <trkpt lat="48.51624" lon="1.98257">
        <ele>124.68</ele>
        <time>2017-11-26T09:22:41Z</time>
      </trkpt>
      <trkpt lat="48.51619" lon="1.98247">
        <ele>124.39</ele>
        <time>2017-11-26T09:22:43Z</time>
      </trkpt>
      <trkpt lat="48.51615" lon="1.98236">
        <ele>124.43</ele>
        <time>2017-11-26T09:22:45Z</time>
      </trkpt>
      <trkpt lat="48.5161" lon="1.98226">
        <ele>124.43</ele>
        <time>2017-11-26T09:22:47Z</time>
      </trkpt>
      <trkpt lat="48.51605" lon="1.98218">
        <ele>124.11</ele>
        <time>2017-11-26T09:22:48Z</time>
      </trkpt>
      <trkpt lat="48.51593" lon="1.98211">
        <ele>123.08</ele>
        <time>2017-11-26T09:22:51Z</time>
      </trkpt>
      <trkpt lat="48.51587" lon="1.98199">
        <ele>122.89</ele>
        <time>2017-11-26T09:22:53Z</time>
      </trkpt>
      <trkpt lat="48.51585" lon="1.98185">
        <ele>123.26</ele>
        <time>2017-11-26T09:22:55Z</time>
      </trkpt>
      <trkpt lat="48.51579" lon="1.98181">
        <ele>123.23</ele>
        <time>2017-11-26T09:22:57Z</time>
      </trkpt>
      <trkpt lat="48.51577" lon="1.98175">
        <ele>123.48</ele>
        <time>2017-11-26T09:22:59Z</time>
      </trkpt>
      <trkpt lat="48.51574" lon="1.98169">
        <ele>123.67</ele>
        <time>2017-11-26T09:23:00Z</time>
      </trkpt>
      <trkpt lat="48.51575" lon="1.98157">
        <ele>123.83</ele>
        <time>2017-11-26T09:23:03Z</time>
      </trkpt>
      <trkpt lat="48.51573" lon="1.98149">
        <ele>123.79</ele>
        <time>2017-11-26T09:23:05Z</time>
      </trkpt>
      <trkpt lat="48.5157" lon="1.98137">
        <ele>123.79</ele>
        <time>2017-11-26T09:23:07Z</time>
      </trkpt>
      <trkpt lat="48.5157" lon="1.98118">
        <ele>123.87</ele>
        <time>2017-11-26T09:23:09Z</time>
      </trkpt>
      <trkpt lat="48.51572" lon="1.98105">
        <ele>123.93</ele>
        <time>2017-11-26T09:23:11Z</time>
      </trkpt>
      <trkpt lat="48.51574" lon="1.98089">
        <ele>123.99</ele>
        <time>2017-11-26T09:23:12Z</time>
      </trkpt>
      <trkpt lat="48.51579" lon="1.98079">
        <ele>123.95</ele>
        <time>2017-11-26T09:23:15Z</time>
      </trkpt>
      <trkpt lat="48.51585" lon="1.98069">
        <ele>123.95</ele>
        <time>2017-11-26T09:23:17Z</time>
      </trkpt>
      <trkpt lat="48.51592" lon="1.98062">
        <ele>124.57</ele>
        <time>2017-11-26T09:23:19Z</time>
      </trkpt>
      <trkpt lat="48.516" lon="1.98056">
        <ele>125.18</ele>
        <time>2017-11-26T09:23:21Z</time>
      </trkpt>
      <trkpt lat="48.51606" lon="1.98051">
        <ele>125.72</ele>
        <time>2017-11-26T09:23:23Z</time>
      </trkpt>
      <trkpt lat="48.51612" lon="1.9804">
        <ele>126.28</ele>
        <time>2017-11-26T09:23:29Z</time>
      </trkpt>
      <trkpt lat="48.51617" lon="1.98032">
        <ele>126.7</ele>
        <time>2017-11-26T09:23:33Z</time>
      </trkpt>
      <trkpt lat="48.51619" lon="1.98017">
        <ele>126.87</ele>
        <time>2017-11-26T09:23:36Z</time>
      </trkpt>
      <trkpt lat="48.51619" lon="1.97999">
        <ele>126.88</ele>
        <time>2017-11-26T09:23:41Z</time>
      </trkpt>
      <trkpt lat="48.51621" lon="1.97989">
        <ele>127.41</ele>
        <time>2017-11-26T09:23:43Z</time>
      </trkpt>
      <trkpt lat="48.5162" lon="1.97979">
        <ele>127.6</ele>
        <time>2017-11-26T09:23:45Z</time>
      </trkpt>
      <trkpt lat="48.5162" lon="1.9796">
        <ele>128.16</ele>
        <time>2017-11-26T09:23:47Z</time>
      </trkpt>
      <trkpt lat="48.51623" lon="1.97859">
        <ele>130.78</ele>
        <time>2017-11-26T09:24:01Z</time>
      </trkpt>
      <trkpt lat="48.5162" lon="1.97854">
        <ele>130.54</ele>
        <time>2017-11-26T09:24:04Z</time>
      </trkpt>
      <trkpt lat="48.51619" lon="1.97841">
        <ele>130.7</ele>
        <time>2017-11-26T09:24:08Z</time>
      </trkpt>
      <trkpt lat="48.51616" lon="1.97836">
        <ele>130.54</ele>
        <time>2017-11-26T09:24:10Z</time>
      </trkpt>
      <trkpt lat="48.51615" lon="1.97828">
        <ele>130.48</ele>
        <time>2017-11-26T09:24:12Z</time>
      </trkpt>
      <trkpt lat="48.51615" lon="1.9782">
        <ele>130.46</ele>
        <time>2017-11-26T09:24:14Z</time>
      </trkpt>
      <trkpt lat="48.51614" lon="1.97813">
        <ele>130.47</ele>
        <time>2017-11-26T09:24:16Z</time>
      </trkpt>
      <trkpt lat="48.51613" lon="1.97806">
        <ele>130.37</ele>
        <time>2017-11-26T09:24:18Z</time>
      </trkpt>
      <trkpt lat="48.51611" lon="1.97798">
        <ele>130.25</ele>
        <time>2017-11-26T09:24:20Z</time>
      </trkpt>
      <trkpt lat="48.51609" lon="1.97788">
        <ele>130.21</ele>
        <time>2017-11-26T09:24:22Z</time>
      </trkpt>
      <trkpt lat="48.51607" lon="1.97778">
        <ele>130.1</ele>
        <time>2017-11-26T09:24:24Z</time>
      </trkpt>
      <trkpt lat="48.51603" lon="1.97772">
        <ele>129.92</ele>
        <time>2017-11-26T09:24:26Z</time>
      </trkpt>
      <trkpt lat="48.516" lon="1.97765">
        <ele>129.76</ele>
        <time>2017-11-26T09:24:28Z</time>
      </trkpt>
      <trkpt lat="48.51596" lon="1.97757">
        <ele>129.65</ele>
        <time>2017-11-26T09:24:30Z</time>
      </trkpt>
      <trkpt lat="48.51593" lon="1.97748">
        <ele>129.6</ele>
        <time>2017-11-26T09:24:32Z</time>
      </trkpt>
      <trkpt lat="48.51586" lon="1.97713">
        <ele>129.68</ele>
        <time>2017-11-26T09:24:34Z</time>
      </trkpt>
      <trkpt lat="48.51585" lon="1.97706">
        <ele>129.69</ele>
        <time>2017-11-26T09:24:36Z</time>
      </trkpt>
      <trkpt lat="48.51585" lon="1.97696">
        <ele>129.78</ele>
        <time>2017-11-26T09:24:38Z</time>
      </trkpt>
      <trkpt lat="48.51584" lon="1.97688">
        <ele>129.82</ele>
        <time>2017-11-26T09:24:40Z</time>
      </trkpt>
      <trkpt lat="48.51583" lon="1.97679">
        <ele>129.85</ele>
        <time>2017-11-26T09:24:42Z</time>
      </trkpt>
      <trkpt lat="48.51583" lon="1.9767">
        <ele>129.98</ele>
        <time>2017-11-26T09:24:44Z</time>
      </trkpt>
      <trkpt lat="48.51583" lon="1.97662">
        <ele>130.07</ele>
        <time>2017-11-26T09:24:46Z</time>
      </trkpt>
      <trkpt lat="48.51583" lon="1.97654">
        <ele>130.16</ele>
        <time>2017-11-26T09:24:48Z</time>
      </trkpt>
      <trkpt lat="48.51584" lon="1.97646">
        <ele>130.34</ele>
        <time>2017-11-26T09:24:50Z</time>
      </trkpt>
      <trkpt lat="48.51585" lon="1.97638">
        <ele>130.56</ele>
        <time>2017-11-26T09:24:52Z</time>
      </trkpt>
      <trkpt lat="48.51586" lon="1.97628">
        <ele>130.77</ele>
        <time>2017-11-26T09:24:54Z</time>
      </trkpt>
      <trkpt lat="48.51586" lon="1.97617">
        <ele>130.92</ele>
        <time>2017-11-26T09:24:56Z</time>
      </trkpt>
      <trkpt lat="48.51586" lon="1.97608">
        <ele>131.03</ele>
        <time>2017-11-26T09:24:58Z</time>
      </trkpt>
      <trkpt lat="48.51585" lon="1.97599">
        <ele>131.05</ele>
        <time>2017-11-26T09:25:00Z</time>
      </trkpt>
      <trkpt lat="48.51584" lon="1.97591">
        <ele>130.99</ele>
        <time>2017-11-26T09:25:02Z</time>
      </trkpt>
      <trkpt lat="48.51578" lon="1.97582">
        <ele>131.16</ele>
        <time>2017-11-26T09:25:06Z</time>
      </trkpt>
      <trkpt lat="48.51574" lon="1.97577">
        <ele>131.26</ele>
        <time>2017-11-26T09:25:10Z</time>
      </trkpt>
      <trkpt lat="48.5157" lon="1.9757">
        <ele>131.34</ele>
        <time>2017-11-26T09:25:14Z</time>
      </trkpt>
      <trkpt lat="48.51564" lon="1.97559">
        <ele>131.46</ele>
        <time>2017-11-26T09:25:18Z</time>
      </trkpt>
      <trkpt lat="48.51562" lon="1.97553">
        <ele>131.5</ele>
        <time>2017-11-26T09:25:20Z</time>
      </trkpt>
      <trkpt lat="48.51561" lon="1.97546">
        <ele>131.47</ele>
        <time>2017-11-26T09:25:22Z</time>
      </trkpt>
      <trkpt lat="48.51561" lon="1.97538">
        <ele>131.42</ele>
        <time>2017-11-26T09:25:24Z</time>
      </trkpt>
      <trkpt lat="48.5156" lon="1.97531">
        <ele>131.4</ele>
        <time>2017-11-26T09:25:26Z</time>
      </trkpt>
      <trkpt lat="48.51559" lon="1.97522">
        <ele>131.36</ele>
        <time>2017-11-26T09:25:28Z</time>
      </trkpt>
      <trkpt lat="48.51559" lon="1.97513">
        <ele>131.29</ele>
        <time>2017-11-26T09:25:30Z</time>
      </trkpt>
      <trkpt lat="48.51558" lon="1.97504">
        <ele>131.23</ele>
        <time>2017-11-26T09:25:32Z</time>
      </trkpt>
      <trkpt lat="48.51558" lon="1.9747">
        <ele>131.57</ele>
        <time>2017-11-26T09:25:34Z</time>
      </trkpt>
      <trkpt lat="48.51556" lon="1.9746">
        <ele>131.77</ele>
        <time>2017-11-26T09:25:36Z</time>
      </trkpt>
      <trkpt lat="48.51554" lon="1.97448">
        <ele>132.01</ele>
        <time>2017-11-26T09:25:38Z</time>
      </trkpt>
      <trkpt lat="48.51554" lon="1.97436">
        <ele>132.19</ele>
        <time>2017-11-26T09:25:40Z</time>
      </trkpt>
      <trkpt lat="48.51554" lon="1.97424">
        <ele>132.31</ele>
        <time>2017-11-26T09:25:42Z</time>
      </trkpt>
      <trkpt lat="48.51555" lon="1.97412">
        <ele>132.52</ele>
        <time>2017-11-26T09:25:44Z</time>
      </trkpt>
      <trkpt lat="48.51557" lon="1.97401">
        <ele>132.84</ele>
        <time>2017-11-26T09:25:46Z</time>
      </trkpt>
      <trkpt lat="48.51559" lon="1.9739">
        <ele>133.14</ele>
        <time>2017-11-26T09:25:48Z</time>
      </trkpt>
      <trkpt lat="48.51561" lon="1.97379">
        <ele>133.45</ele>
        <time>2017-11-26T09:25:50Z</time>
      </trkpt>
      <trkpt lat="48.51563" lon="1.97366">
        <ele>133.79</ele>
        <time>2017-11-26T09:25:52Z</time>
      </trkpt>
      <trkpt lat="48.51563" lon="1.97353">
        <ele>134.26</ele>
        <time>2017-11-26T09:25:54Z</time>
      </trkpt>
      <trkpt lat="48.51562" lon="1.97341">
        <ele>134.72</ele>
        <time>2017-11-26T09:25:56Z</time>
      </trkpt>
      <trkpt lat="48.5156" lon="1.97332">
        <ele>135.24</ele>
        <time>2017-11-26T09:25:58Z</time>
      </trkpt>
      <trkpt lat="48.51558" lon="1.97322">
        <ele>136.19</ele>
        <time>2017-11-26T09:26:00Z</time>
      </trkpt>
      <trkpt lat="48.51556" lon="1.97312">
        <ele>137.13</ele>
        <time>2017-11-26T09:26:02Z</time>
      </trkpt>
      <trkpt lat="48.51553" lon="1.97301">
        <ele>138.05</ele>
        <time>2017-11-26T09:26:04Z</time>
      </trkpt>
      <trkpt lat="48.51551" lon="1.97291">
        <ele>138.84</ele>
        <time>2017-11-26T09:26:06Z</time>
      </trkpt>
      <trkpt lat="48.51548" lon="1.97281">
        <ele>139.55</ele>
        <time>2017-11-26T09:26:08Z</time>
      </trkpt>
      <trkpt lat="48.51545" lon="1.97271">
        <ele>140.18</ele>
        <time>2017-11-26T09:26:10Z</time>
      </trkpt>
      <trkpt lat="48.51541" lon="1.97262">
        <ele>140.67</ele>
        <time>2017-11-26T09:26:12Z</time>
      </trkpt>
      <trkpt lat="48.51538" lon="1.97254">
        <ele>140.99</ele>
        <time>2017-11-26T09:26:14Z</time>
      </trkpt>
      <trkpt lat="48.51534" lon="1.97247">
        <ele>141.28</ele>
        <time>2017-11-26T09:26:16Z</time>
      </trkpt>
      <trkpt lat="48.51532" lon="1.97239">
        <ele>141.58</ele>
        <time>2017-11-26T09:26:18Z</time>
      </trkpt>
      <trkpt lat="48.51529" lon="1.97231">
        <ele>141.89</ele>
        <time>2017-11-26T09:26:20Z</time>
      </trkpt>
      <trkpt lat="48.51527" lon="1.97222">
        <ele>142.22</ele>
        <time>2017-11-26T09:26:22Z</time>
      </trkpt>
      <trkpt lat="48.51525" lon="1.97213">
        <ele>142.48</ele>
        <time>2017-11-26T09:26:24Z</time>
      </trkpt>
      <trkpt lat="48.51522" lon="1.97205">
        <ele>142.5</ele>
        <time>2017-11-26T09:26:26Z</time>
      </trkpt>
      <trkpt lat="48.51517" lon="1.97198">
        <ele>142.3</ele>
        <time>2017-11-26T09:26:28Z</time>
      </trkpt>
      <trkpt lat="48.51512" lon="1.97191">
        <ele>142.01</ele>
        <time>2017-11-26T09:26:30Z</time>
      </trkpt>
      <trkpt lat="48.51508" lon="1.97183">
        <ele>141.74</ele>
        <time>2017-11-26T09:26:32Z</time>
      </trkpt>
      <trkpt lat="48.51505" lon="1.97174">
        <ele>141.61</ele>
        <time>2017-11-26T09:26:34Z</time>
      </trkpt>
      <trkpt lat="48.51503" lon="1.97163">
        <ele>141.72</ele>
        <time>2017-11-26T09:26:36Z</time>
      </trkpt>
      <trkpt lat="48.51501" lon="1.97152">
        <ele>142.21</ele>
        <time>2017-11-26T09:26:38Z</time>
      </trkpt>
      <trkpt lat="48.51499" lon="1.97142">
        <ele>142.79</ele>
        <time>2017-11-26T09:26:40Z</time>
      </trkpt>
      <trkpt lat="48.51498" lon="1.97132">
        <ele>143.54</ele>
        <time>2017-11-26T09:26:42Z</time>
      </trkpt>
      <trkpt lat="48.51496" lon="1.97123">
        <ele>144.21</ele>
        <time>2017-11-26T09:26:44Z</time>
      </trkpt>
      <trkpt lat="48.51492" lon="1.97114">
        <ele>144.73</ele>
        <time>2017-11-26T09:26:46Z</time>
      </trkpt>
      <trkpt lat="48.51488" lon="1.97107">
        <ele>145.12</ele>
        <time>2017-11-26T09:26:48Z</time>
      </trkpt>
      <trkpt lat="48.51484" lon="1.971">
        <ele>145.43</ele>
        <time>2017-11-26T09:26:50Z</time>
      </trkpt>
      <trkpt lat="48.5148" lon="1.97092">
        <ele>145.65</ele>
        <time>2017-11-26T09:26:52Z</time>
      </trkpt>
      <trkpt lat="48.51476" lon="1.97084">
        <ele>145.82</ele>
        <time>2017-11-26T09:26:54Z</time>
      </trkpt>
      <trkpt lat="48.51473" lon="1.97076">
        <ele>145.9</ele>
        <time>2017-11-26T09:26:56Z</time>
      </trkpt>
      <trkpt lat="48.5147" lon="1.97068">
        <ele>145.92</ele>
        <time>2017-11-26T09:26:58Z</time>
      </trkpt>
      <trkpt lat="48.51466" lon="1.97061">
        <ele>145.89</ele>
        <time>2017-11-26T09:27:00Z</time>
      </trkpt>
      <trkpt lat="48.51461" lon="1.97054">
        <ele>145.82</ele>
        <time>2017-11-26T09:27:02Z</time>
      </trkpt>
      <trkpt lat="48.51456" lon="1.97048">
        <ele>145.76</ele>
        <time>2017-11-26T09:27:04Z</time>
      </trkpt>
      <trkpt lat="48.51453" lon="1.9704">
        <ele>145.77</ele>
        <time>2017-11-26T09:27:06Z</time>
      </trkpt>
      <trkpt lat="48.5145" lon="1.97032">
        <ele>145.82</ele>
        <time>2017-11-26T09:27:08Z</time>
      </trkpt>
      <trkpt lat="48.51448" lon="1.97026">
        <ele>145.87</ele>
        <time>2017-11-26T09:27:10Z</time>
      </trkpt>
      <trkpt lat="48.51446" lon="1.9702">
        <ele>145.92</ele>
        <time>2017-11-26T09:27:12Z</time>
      </trkpt>
      <trkpt lat="48.51445" lon="1.97011">
        <ele>146.1</ele>
        <time>2017-11-26T09:27:16Z</time>
      </trkpt>
      <trkpt lat="48.51445" lon="1.97">
        <ele>146.38</ele>
        <time>2017-11-26T09:27:20Z</time>
      </trkpt>
      <trkpt lat="48.51447" lon="1.96986">
        <ele>146.88</ele>
        <time>2017-11-26T09:27:22Z</time>
      </trkpt>
      <trkpt lat="48.51449" lon="1.96974">
        <ele>147.32</ele>
        <time>2017-11-26T09:27:24Z</time>
      </trkpt>
      <trkpt lat="48.5145" lon="1.96965">
        <ele>147.61</ele>
        <time>2017-11-26T09:27:26Z</time>
      </trkpt>
      <trkpt lat="48.51453" lon="1.96959">
        <ele>147.84</ele>
        <time>2017-11-26T09:27:28Z</time>
      </trkpt>
      <trkpt lat="48.51454" lon="1.96946">
        <ele>148.22</ele>
        <time>2017-11-26T09:27:32Z</time>
      </trkpt>
      <trkpt lat="48.5145" lon="1.96938">
        <ele>148.39</ele>
        <time>2017-11-26T09:27:34Z</time>
      </trkpt>
      <trkpt lat="48.51448" lon="1.96931">
        <ele>148.57</ele>
        <time>2017-11-26T09:27:36Z</time>
      </trkpt>
      <trkpt lat="48.51446" lon="1.96924">
        <ele>148.76</ele>
        <time>2017-11-26T09:27:38Z</time>
      </trkpt>
      <trkpt lat="48.5145" lon="1.96918">
        <ele>148.96</ele>
        <time>2017-11-26T09:27:40Z</time>
      </trkpt>
      <trkpt lat="48.51454" lon="1.96914">
        <ele>149.11</ele>
        <time>2017-11-26T09:27:42Z</time>
      </trkpt>
      <trkpt lat="48.51459" lon="1.9691">
        <ele>149.26</ele>
        <time>2017-11-26T09:27:44Z</time>
      </trkpt>
      <trkpt lat="48.51464" lon="1.96906">
        <ele>149.4</ele>
        <time>2017-11-26T09:27:46Z</time>
      </trkpt>
      <trkpt lat="48.51469" lon="1.96902">
        <ele>149.56</ele>
        <time>2017-11-26T09:27:48Z</time>
      </trkpt>
      <trkpt lat="48.51474" lon="1.96897">
        <ele>149.81</ele>
        <time>2017-11-26T09:27:50Z</time>
      </trkpt>
      <trkpt lat="48.51479" lon="1.96891">
        <ele>150.08</ele>
        <time>2017-11-26T09:27:52Z</time>
      </trkpt>
      <trkpt lat="48.51483" lon="1.96886">
        <ele>150.32</ele>
        <time>2017-11-26T09:27:54Z</time>
      </trkpt>
      <trkpt lat="48.51487" lon="1.9688">
        <ele>150.62</ele>
        <time>2017-11-26T09:27:56Z</time>
      </trkpt>
      <trkpt lat="48.5149" lon="1.96875">
        <ele>150.88</ele>
        <time>2017-11-26T09:27:58Z</time>
      </trkpt>
      <trkpt lat="48.51496" lon="1.96867">
        <ele>151.3</ele>
        <time>2017-11-26T09:28:02Z</time>
      </trkpt>
      <trkpt lat="48.515" lon="1.96862">
        <ele>151.62</ele>
        <time>2017-11-26T09:28:06Z</time>
      </trkpt>
      <trkpt lat="48.51501" lon="1.96853">
        <ele>152.09</ele>
        <time>2017-11-26T09:28:10Z</time>
      </trkpt>
      <trkpt lat="48.51505" lon="1.96847">
        <ele>152.54</ele>
        <time>2017-11-26T09:28:14Z</time>
      </trkpt>
      <trkpt lat="48.51509" lon="1.9684">
        <ele>153.06</ele>
        <time>2017-11-26T09:28:18Z</time>
      </trkpt>
      <trkpt lat="48.51516" lon="1.96834">
        <ele>153.59</ele>
        <time>2017-11-26T09:28:22Z</time>
      </trkpt>
      <trkpt lat="48.51521" lon="1.96828">
        <ele>153.94</ele>
        <time>2017-11-26T09:28:24Z</time>
      </trkpt>
      <trkpt lat="48.51526" lon="1.9682">
        <ele>154.39</ele>
        <time>2017-11-26T09:28:30Z</time>
      </trkpt>
      <trkpt lat="48.51529" lon="1.9681">
        <ele>154.78</ele>
        <time>2017-11-26T09:28:34Z</time>
      </trkpt>
      <trkpt lat="48.51534" lon="1.968">
        <ele>155.24</ele>
        <time>2017-11-26T09:28:38Z</time>
      </trkpt>
      <trkpt lat="48.51542" lon="1.968">
        <ele>155.51</ele>
        <time>2017-11-26T09:28:42Z</time>
      </trkpt>
      <trkpt lat="48.51547" lon="1.96804">
        <ele>155.54</ele>
        <time>2017-11-26T09:28:44Z</time>
      </trkpt>
      <trkpt lat="48.51553" lon="1.96806">
        <ele>155.7</ele>
        <time>2017-11-26T09:28:50Z</time>
      </trkpt>
      <trkpt lat="48.51559" lon="1.96804">
        <ele>155.93</ele>
        <time>2017-11-26T09:28:54Z</time>
      </trkpt>
      <trkpt lat="48.51567" lon="1.96799">
        <ele>156.31</ele>
        <time>2017-11-26T09:28:58Z</time>
      </trkpt>
      <trkpt lat="48.51572" lon="1.96796">
        <ele>156.54</ele>
        <time>2017-11-26T09:29:02Z</time>
      </trkpt>
      <trkpt lat="48.51578" lon="1.96794">
        <ele>156.78</ele>
        <time>2017-11-26T09:29:06Z</time>
      </trkpt>
      <trkpt lat="48.51581" lon="1.96789">
        <ele>157</ele>
        <time>2017-11-26T09:29:08Z</time>
      </trkpt>
      <trkpt lat="48.51604" lon="1.96789">
        <ele>158.69</ele>
        <time>2017-11-26T09:29:22Z</time>
      </trkpt>
      <trkpt lat="48.51614" lon="1.96789">
        <ele>159.46</ele>
        <time>2017-11-26T09:29:25Z</time>
      </trkpt>
      <trkpt lat="48.51618" lon="1.96787">
        <ele>159.85</ele>
        <time>2017-11-26T09:29:27Z</time>
      </trkpt>
      <trkpt lat="48.51626" lon="1.96787">
        <ele>160.45</ele>
        <time>2017-11-26T09:29:31Z</time>
      </trkpt>
      <trkpt lat="48.51633" lon="1.96789">
        <ele>160.98</ele>
        <time>2017-11-26T09:29:35Z</time>
      </trkpt>
      <trkpt lat="48.51642" lon="1.96791">
        <ele>161.59</ele>
        <time>2017-11-26T09:29:39Z</time>
      </trkpt>
      <trkpt lat="48.51647" lon="1.96792">
        <ele>161.95</ele>
        <time>2017-11-26T09:29:41Z</time>
      </trkpt>
      <trkpt lat="48.51654" lon="1.96795">
        <ele>162.39</ele>
        <time>2017-11-26T09:29:47Z</time>
      </trkpt>
      <trkpt lat="48.51659" lon="1.96799">
        <ele>162.67</ele>
        <time>2017-11-26T09:29:51Z</time>
      </trkpt>
      <trkpt lat="48.51665" lon="1.96804">
        <ele>162.96</ele>
        <time>2017-11-26T09:29:55Z</time>
      </trkpt>
      <trkpt lat="48.51672" lon="1.96809">
        <ele>163.01</ele>
        <time>2017-11-26T09:29:59Z</time>
      </trkpt>
      <trkpt lat="48.5168" lon="1.96815">
        <ele>163.02</ele>
        <time>2017-11-26T09:30:03Z</time>
      </trkpt>
      <trkpt lat="48.51685" lon="1.96819">
        <ele>163.08</ele>
        <time>2017-11-26T09:30:05Z</time>
      </trkpt>
      <trkpt lat="48.5169" lon="1.96823">
        <ele>163.09</ele>
        <time>2017-11-26T09:30:07Z</time>
      </trkpt>
      <trkpt lat="48.51695" lon="1.96829">
        <ele>163.12</ele>
        <time>2017-11-26T09:30:09Z</time>
      </trkpt>
      <trkpt lat="48.51701" lon="1.96836">
        <ele>163.22</ele>
        <time>2017-11-26T09:30:11Z</time>
      </trkpt>
      <trkpt lat="48.51705" lon="1.9684">
        <ele>163.36</ele>
        <time>2017-11-26T09:30:13Z</time>
      </trkpt>
      <trkpt lat="48.51712" lon="1.96843">
        <ele>163.57</ele>
        <time>2017-11-26T09:30:19Z</time>
      </trkpt>
      <trkpt lat="48.51716" lon="1.96848">
        <ele>163.66</ele>
        <time>2017-11-26T09:30:23Z</time>
      </trkpt>
      <trkpt lat="48.51722" lon="1.96854">
        <ele>163.82</ele>
        <time>2017-11-26T09:30:27Z</time>
      </trkpt>
      <trkpt lat="48.51727" lon="1.96861">
        <ele>163.94</ele>
        <time>2017-11-26T09:30:31Z</time>
      </trkpt>
      <trkpt lat="48.51731" lon="1.96867">
        <ele>163.99</ele>
        <time>2017-11-26T09:30:33Z</time>
      </trkpt>
      <trkpt lat="48.51733" lon="1.96874">
        <ele>164.01</ele>
        <time>2017-11-26T09:30:35Z</time>
      </trkpt>
      <trkpt lat="48.51736" lon="1.96882">
        <ele>164.02</ele>
        <time>2017-11-26T09:30:37Z</time>
      </trkpt>
      <trkpt lat="48.51739" lon="1.96889">
        <ele>164.04</ele>
        <time>2017-11-26T09:30:39Z</time>
      </trkpt>
      <trkpt lat="48.51743" lon="1.96896">
        <ele>164.05</ele>
        <time>2017-11-26T09:30:41Z</time>
      </trkpt>
      <trkpt lat="48.51747" lon="1.96904">
        <ele>164.08</ele>
        <time>2017-11-26T09:30:43Z</time>
      </trkpt>
      <trkpt lat="48.51766" lon="1.96939">
        <ele>164.04</ele>
        <time>2017-11-26T09:30:45Z</time>
      </trkpt>
      <trkpt lat="48.5177" lon="1.96943">
        <ele>164.08</ele>
        <time>2017-11-26T09:30:47Z</time>
      </trkpt>
      <trkpt lat="48.51774" lon="1.96948">
        <ele>164.09</ele>
        <time>2017-11-26T09:30:49Z</time>
      </trkpt>
      <trkpt lat="48.51781" lon="1.96956">
        <ele>164.17</ele>
        <time>2017-11-26T09:30:53Z</time>
      </trkpt>
      <trkpt lat="48.51784" lon="1.96962">
        <ele>164.15</ele>
        <time>2017-11-26T09:30:55Z</time>
      </trkpt>
      <trkpt lat="48.51787" lon="1.96968">
        <ele>164.1</ele>
        <time>2017-11-26T09:30:57Z</time>
      </trkpt>
      <trkpt lat="48.51789" lon="1.96979">
        <ele>163.92</ele>
        <time>2017-11-26T09:30:59Z</time>
      </trkpt>
      <trkpt lat="48.5179" lon="1.96988">
        <ele>163.7</ele>
        <time>2017-11-26T09:31:01Z</time>
      </trkpt>
      <trkpt lat="48.5179" lon="1.96996">
        <ele>163.53</ele>
        <time>2017-11-26T09:31:03Z</time>
      </trkpt>
      <trkpt lat="48.51792" lon="1.97003">
        <ele>163.43</ele>
        <time>2017-11-26T09:31:05Z</time>
      </trkpt>
      <trkpt lat="48.51796" lon="1.97012">
        <ele>163.37</ele>
        <time>2017-11-26T09:31:09Z</time>
      </trkpt>
      <trkpt lat="48.51799" lon="1.97018">
        <ele>163.32</ele>
        <time>2017-11-26T09:31:11Z</time>
      </trkpt>
      <trkpt lat="48.51803" lon="1.97026">
        <ele>163.21</ele>
        <time>2017-11-26T09:31:13Z</time>
      </trkpt>
      <trkpt lat="48.51807" lon="1.97033">
        <ele>163.11</ele>
        <time>2017-11-26T09:31:15Z</time>
      </trkpt>
      <trkpt lat="48.51812" lon="1.97039">
        <ele>163.06</ele>
        <time>2017-11-26T09:31:17Z</time>
      </trkpt>
      <trkpt lat="48.51817" lon="1.97043">
        <ele>163.07</ele>
        <time>2017-11-26T09:31:19Z</time>
      </trkpt>
      <trkpt lat="48.51821" lon="1.97046">
        <ele>163.05</ele>
        <time>2017-11-26T09:31:21Z</time>
      </trkpt>
      <trkpt lat="48.51825" lon="1.97049">
        <ele>163.05</ele>
        <time>2017-11-26T09:31:23Z</time>
      </trkpt>
      <trkpt lat="48.51832" lon="1.97056">
        <ele>162.95</ele>
        <time>2017-11-26T09:31:25Z</time>
      </trkpt>
      <trkpt lat="48.51837" lon="1.9706">
        <ele>162.84</ele>
        <time>2017-11-26T09:31:27Z</time>
      </trkpt>
      <trkpt lat="48.51843" lon="1.97065">
        <ele>162.67</ele>
        <time>2017-11-26T09:31:29Z</time>
      </trkpt>
      <trkpt lat="48.5185" lon="1.97069">
        <ele>162.51</ele>
        <time>2017-11-26T09:31:31Z</time>
      </trkpt>
      <trkpt lat="48.51874" lon="1.97077">
        <ele>162.21</ele>
        <time>2017-11-26T09:31:33Z</time>
      </trkpt>
      <trkpt lat="48.51878" lon="1.97081">
        <ele>162.08</ele>
        <time>2017-11-26T09:31:35Z</time>
      </trkpt>
      <trkpt lat="48.51882" lon="1.9709">
        <ele>161.74</ele>
        <time>2017-11-26T09:31:39Z</time>
      </trkpt>
      <trkpt lat="48.5189" lon="1.97093">
        <ele>161.66</ele>
        <time>2017-11-26T09:31:43Z</time>
      </trkpt>
      <trkpt lat="48.51895" lon="1.97094">
        <ele>161.65</ele>
        <time>2017-11-26T09:31:45Z</time>
      </trkpt>
      <trkpt lat="48.51902" lon="1.971">
        <ele>161.48</ele>
        <time>2017-11-26T09:31:47Z</time>
      </trkpt>
      <trkpt lat="48.51907" lon="1.9711">
        <ele>161.24</ele>
        <time>2017-11-26T09:31:49Z</time>
      </trkpt>
      <trkpt lat="48.51913" lon="1.97118">
        <ele>161.1</ele>
        <time>2017-11-26T09:31:51Z</time>
      </trkpt>
      <trkpt lat="48.51916" lon="1.97125">
        <ele>160.99</ele>
        <time>2017-11-26T09:31:53Z</time>
      </trkpt>
      <trkpt lat="48.5192" lon="1.97132">
        <ele>160.91</ele>
        <time>2017-11-26T09:31:55Z</time>
      </trkpt>
      <trkpt lat="48.51921" lon="1.97139">
        <ele>160.77</ele>
        <time>2017-11-26T09:31:57Z</time>
      </trkpt>
      <trkpt lat="48.51923" lon="1.9715">
        <ele>160.57</ele>
        <time>2017-11-26T09:31:59Z</time>
      </trkpt>
      <trkpt lat="48.51926" lon="1.97162">
        <ele>160.41</ele>
        <time>2017-11-26T09:32:01Z</time>
      </trkpt>
      <trkpt lat="48.51929" lon="1.97173">
        <ele>160.29</ele>
        <time>2017-11-26T09:32:03Z</time>
      </trkpt>
      <trkpt lat="48.51931" lon="1.97184">
        <ele>160.17</ele>
        <time>2017-11-26T09:32:05Z</time>
      </trkpt>
      <trkpt lat="48.51935" lon="1.97207">
        <ele>159.9</ele>
        <time>2017-11-26T09:32:07Z</time>
      </trkpt>
      <trkpt lat="48.51936" lon="1.97219">
        <ele>159.73</ele>
        <time>2017-11-26T09:32:09Z</time>
      </trkpt>
      <trkpt lat="48.51936" lon="1.97231">
        <ele>159.49</ele>
        <time>2017-11-26T09:32:11Z</time>
      </trkpt>
      <trkpt lat="48.51939" lon="1.97246">
        <ele>159.42</ele>
        <time>2017-11-26T09:32:13Z</time>
      </trkpt>
      <trkpt lat="48.51939" lon="1.9726">
        <ele>159.26</ele>
        <time>2017-11-26T09:32:15Z</time>
      </trkpt>
      <trkpt lat="48.5194" lon="1.97274">
        <ele>159.18</ele>
        <time>2017-11-26T09:32:17Z</time>
      </trkpt>
      <trkpt lat="48.51942" lon="1.97287">
        <ele>159.23</ele>
        <time>2017-11-26T09:32:19Z</time>
      </trkpt>
      <trkpt lat="48.51946" lon="1.97301">
        <ele>159.34</ele>
        <time>2017-11-26T09:32:21Z</time>
      </trkpt>
      <trkpt lat="48.51948" lon="1.97315">
        <ele>159.41</ele>
        <time>2017-11-26T09:32:23Z</time>
      </trkpt>
      <trkpt lat="48.51953" lon="1.97346">
        <ele>159.47</ele>
        <time>2017-11-26T09:32:27Z</time>
      </trkpt>
      <trkpt lat="48.51957" lon="1.97357">
        <ele>159.63</ele>
        <time>2017-11-26T09:32:29Z</time>
      </trkpt>
      <trkpt lat="48.51954" lon="1.97367">
        <ele>159.35</ele>
        <time>2017-11-26T09:32:31Z</time>
      </trkpt>
      <trkpt lat="48.51956" lon="1.97381">
        <ele>159.31</ele>
        <time>2017-11-26T09:32:33Z</time>
      </trkpt>
      <trkpt lat="48.51961" lon="1.97393">
        <ele>159.42</ele>
        <time>2017-11-26T09:32:35Z</time>
      </trkpt>
      <trkpt lat="48.51963" lon="1.97406">
        <ele>159.37</ele>
        <time>2017-11-26T09:32:37Z</time>
      </trkpt>
      <trkpt lat="48.51966" lon="1.9742">
        <ele>159.38</ele>
        <time>2017-11-26T09:32:39Z</time>
      </trkpt>
      <trkpt lat="48.51969" lon="1.97434">
        <ele>159.62</ele>
        <time>2017-11-26T09:32:41Z</time>
      </trkpt>
      <trkpt lat="48.51971" lon="1.97447">
        <ele>159.85</ele>
        <time>2017-11-26T09:32:43Z</time>
      </trkpt>
      <trkpt lat="48.51973" lon="1.9746">
        <ele>160.05</ele>
        <time>2017-11-26T09:32:45Z</time>
      </trkpt>
      <trkpt lat="48.51974" lon="1.97472">
        <ele>160.21</ele>
        <time>2017-11-26T09:32:47Z</time>
      </trkpt>
      <trkpt lat="48.51975" lon="1.97486">
        <ele>160.36</ele>
        <time>2017-11-26T09:32:49Z</time>
      </trkpt>
      <trkpt lat="48.51977" lon="1.97505">
        <ele>160.63</ele>
        <time>2017-11-26T09:32:51Z</time>
      </trkpt>
      <trkpt lat="48.5198" lon="1.97521">
        <ele>160.74</ele>
        <time>2017-11-26T09:32:53Z</time>
      </trkpt>
      <trkpt lat="48.51983" lon="1.97536">
        <ele>160.86</ele>
        <time>2017-11-26T09:32:55Z</time>
      </trkpt>
      <trkpt lat="48.51983" lon="1.97549">
        <ele>160.87</ele>
        <time>2017-11-26T09:32:57Z</time>
      </trkpt>
      <trkpt lat="48.51986" lon="1.97561">
        <ele>161.06</ele>
        <time>2017-11-26T09:32:59Z</time>
      </trkpt>
      <trkpt lat="48.5199" lon="1.97574">
        <ele>161.28</ele>
        <time>2017-11-26T09:33:01Z</time>
      </trkpt>
      <trkpt lat="48.51991" lon="1.97588">
        <ele>161.35</ele>
        <time>2017-11-26T09:33:03Z</time>
      </trkpt>
      <trkpt lat="48.51993" lon="1.97603">
        <ele>161.5</ele>
        <time>2017-11-26T09:33:05Z</time>
      </trkpt>
      <trkpt lat="48.51994" lon="1.97618">
        <ele>161.57</ele>
        <time>2017-11-26T09:33:07Z</time>
      </trkpt>
      <trkpt lat="48.51995" lon="1.97634">
        <ele>161.7</ele>
        <time>2017-11-26T09:33:09Z</time>
      </trkpt>
      <trkpt lat="48.51997" lon="1.97646">
        <ele>161.79</ele>
        <time>2017-11-26T09:33:11Z</time>
      </trkpt>
      <trkpt lat="48.51995" lon="1.97658">
        <ele>161.7</ele>
        <time>2017-11-26T09:33:13Z</time>
      </trkpt>
      <trkpt lat="48.51998" lon="1.97668">
        <ele>161.89</ele>
        <time>2017-11-26T09:33:15Z</time>
      </trkpt>
      <trkpt lat="48.52009" lon="1.97686">
        <ele>162.4</ele>
        <time>2017-11-26T09:33:17Z</time>
      </trkpt>
      <trkpt lat="48.5201" lon="1.97701">
        <ele>162.44</ele>
        <time>2017-11-26T09:33:19Z</time>
      </trkpt>
      <trkpt lat="48.52014" lon="1.97719">
        <ele>162.58</ele>
        <time>2017-11-26T09:33:21Z</time>
      </trkpt>
      <trkpt lat="48.52016" lon="1.97731">
        <ele>162.64</ele>
        <time>2017-11-26T09:33:23Z</time>
      </trkpt>
      <trkpt lat="48.52016" lon="1.97744">
        <ele>162.58</ele>
        <time>2017-11-26T09:33:25Z</time>
      </trkpt>
      <trkpt lat="48.52021" lon="1.97758">
        <ele>162.86</ele>
        <time>2017-11-26T09:33:27Z</time>
      </trkpt>
      <trkpt lat="48.52022" lon="1.97767">
        <ele>163.01</ele>
        <time>2017-11-26T09:33:29Z</time>
      </trkpt>
      <trkpt lat="48.52026" lon="1.97779">
        <ele>163.28</ele>
        <time>2017-11-26T09:33:31Z</time>
      </trkpt>
      <trkpt lat="48.52028" lon="1.97794">
        <ele>163.55</ele>
        <time>2017-11-26T09:33:33Z</time>
      </trkpt>
      <trkpt lat="48.52032" lon="1.97806">
        <ele>163.82</ele>
        <time>2017-11-26T09:33:35Z</time>
      </trkpt>
      <trkpt lat="48.52034" lon="1.97818">
        <ele>164.04</ele>
        <time>2017-11-26T09:33:37Z</time>
      </trkpt>
      <trkpt lat="48.52033" lon="1.97826">
        <ele>164.1</ele>
        <time>2017-11-26T09:33:39Z</time>
      </trkpt>
      <trkpt lat="48.52032" lon="1.97838">
        <ele>164.14</ele>
        <time>2017-11-26T09:33:41Z</time>
      </trkpt>
      <trkpt lat="48.52036" lon="1.97852">
        <ele>164.19</ele>
        <time>2017-11-26T09:33:43Z</time>
      </trkpt>
      <trkpt lat="48.52037" lon="1.97862">
        <ele>164.18</ele>
        <time>2017-11-26T09:33:45Z</time>
      </trkpt>
      <trkpt lat="48.52038" lon="1.97879">
        <ele>164.11</ele>
        <time>2017-11-26T09:33:47Z</time>
      </trkpt>
      <trkpt lat="48.52039" lon="1.97894">
        <ele>164.07</ele>
        <time>2017-11-26T09:33:49Z</time>
      </trkpt>
      <trkpt lat="48.52042" lon="1.97908">
        <ele>164.05</ele>
        <time>2017-11-26T09:33:51Z</time>
      </trkpt>
      <trkpt lat="48.52041" lon="1.97922">
        <ele>163.93</ele>
        <time>2017-11-26T09:33:53Z</time>
      </trkpt>
      <trkpt lat="48.52045" lon="1.97936">
        <ele>163.85</ele>
        <time>2017-11-26T09:33:55Z</time>
      </trkpt>
      <trkpt lat="48.52049" lon="1.9795">
        <ele>163.76</ele>
        <time>2017-11-26T09:33:57Z</time>
      </trkpt>
      <trkpt lat="48.52053" lon="1.97968">
        <ele>163.67</ele>
        <time>2017-11-26T09:34:01Z</time>
      </trkpt>
      <trkpt lat="48.52057" lon="1.97984">
        <ele>163.55</ele>
        <time>2017-11-26T09:34:03Z</time>
      </trkpt>
      <trkpt lat="48.52057" lon="1.97996">
        <ele>163.43</ele>
        <time>2017-11-26T09:34:05Z</time>
      </trkpt>
      <trkpt lat="48.52059" lon="1.98009">
        <ele>163.05</ele>
        <time>2017-11-26T09:34:07Z</time>
      </trkpt>
      <trkpt lat="48.52063" lon="1.98019">
        <ele>162.71</ele>
        <time>2017-11-26T09:34:09Z</time>
      </trkpt>
      <trkpt lat="48.52064" lon="1.98027">
        <ele>162.39</ele>
        <time>2017-11-26T09:34:11Z</time>
      </trkpt>
      <trkpt lat="48.52067" lon="1.98038">
        <ele>161.98</ele>
        <time>2017-11-26T09:34:13Z</time>
      </trkpt>
      <trkpt lat="48.5207" lon="1.98049">
        <ele>161.53</ele>
        <time>2017-11-26T09:34:15Z</time>
      </trkpt>
      <trkpt lat="48.52069" lon="1.98064">
        <ele>160.84</ele>
        <time>2017-11-26T09:34:17Z</time>
      </trkpt>
      <trkpt lat="48.52071" lon="1.98076">
        <ele>160.32</ele>
        <time>2017-11-26T09:34:19Z</time>
      </trkpt>
      <trkpt lat="48.52066" lon="1.98096">
        <ele>159.51</ele>
        <time>2017-11-26T09:34:21Z</time>
      </trkpt>
      <trkpt lat="48.52069" lon="1.98112">
        <ele>158.93</ele>
        <time>2017-11-26T09:34:23Z</time>
      </trkpt>
      <trkpt lat="48.52071" lon="1.98126">
        <ele>158.38</ele>
        <time>2017-11-26T09:34:25Z</time>
      </trkpt>
      <trkpt lat="48.52073" lon="1.98141">
        <ele>157.85</ele>
        <time>2017-11-26T09:34:26Z</time>
      </trkpt>
      <trkpt lat="48.52075" lon="1.98154">
        <ele>157.38</ele>
        <time>2017-11-26T09:34:29Z</time>
      </trkpt>
      <trkpt lat="48.52077" lon="1.9817">
        <ele>156.88</ele>
        <time>2017-11-26T09:34:31Z</time>
      </trkpt>
      <trkpt lat="48.52081" lon="1.98184">
        <ele>156.76</ele>
        <time>2017-11-26T09:34:33Z</time>
      </trkpt>
      <trkpt lat="48.52083" lon="1.98199">
        <ele>156.61</ele>
        <time>2017-11-26T09:34:35Z</time>
      </trkpt>
      <trkpt lat="48.52084" lon="1.9821">
        <ele>156.48</ele>
        <time>2017-11-26T09:34:37Z</time>
      </trkpt>
      <trkpt lat="48.52105" lon="1.98295">
        <ele>156</ele>
        <time>2017-11-26T09:34:50Z</time>
      </trkpt>
      <trkpt lat="48.52107" lon="1.9832">
        <ele>155.93</ele>
        <time>2017-11-26T09:34:53Z</time>
      </trkpt>
      <trkpt lat="48.52108" lon="1.98331">
        <ele>155.91</ele>
        <time>2017-11-26T09:34:55Z</time>
      </trkpt>
      <trkpt lat="48.52107" lon="1.98342">
        <ele>155.92</ele>
        <time>2017-11-26T09:34:57Z</time>
      </trkpt>
      <trkpt lat="48.5211" lon="1.98352">
        <ele>156.1</ele>
        <time>2017-11-26T09:34:59Z</time>
      </trkpt>
      <trkpt lat="48.52112" lon="1.98362">
        <ele>156.26</ele>
        <time>2017-11-26T09:35:01Z</time>
      </trkpt>
      <trkpt lat="48.52114" lon="1.98373">
        <ele>156.46</ele>
        <time>2017-11-26T09:35:03Z</time>
      </trkpt>
      <trkpt lat="48.52116" lon="1.98386">
        <ele>156.67</ele>
        <time>2017-11-26T09:35:05Z</time>
      </trkpt>
      <trkpt lat="48.52118" lon="1.98399">
        <ele>156.9</ele>
        <time>2017-11-26T09:35:07Z</time>
      </trkpt>
      <trkpt lat="48.5212" lon="1.98412">
        <ele>157.16</ele>
        <time>2017-11-26T09:35:09Z</time>
      </trkpt>
      <trkpt lat="48.52123" lon="1.98424">
        <ele>157.29</ele>
        <time>2017-11-26T09:35:11Z</time>
      </trkpt>
      <trkpt lat="48.52126" lon="1.98435">
        <ele>157.32</ele>
        <time>2017-11-26T09:35:13Z</time>
      </trkpt>
      <trkpt lat="48.5213" lon="1.98447">
        <ele>157.4</ele>
        <time>2017-11-26T09:35:15Z</time>
      </trkpt>
      <trkpt lat="48.52129" lon="1.98462">
        <ele>157.13</ele>
        <time>2017-11-26T09:35:17Z</time>
      </trkpt>
      <trkpt lat="48.52128" lon="1.98474">
        <ele>156.95</ele>
        <time>2017-11-26T09:35:19Z</time>
      </trkpt>
      <trkpt lat="48.52135" lon="1.98486">
        <ele>157.04</ele>
        <time>2017-11-26T09:35:21Z</time>
      </trkpt>
      <trkpt lat="48.52139" lon="1.98498">
        <ele>157.05</ele>
        <time>2017-11-26T09:35:23Z</time>
      </trkpt>
      <trkpt lat="48.52143" lon="1.98502">
        <ele>157.16</ele>
        <time>2017-11-26T09:35:25Z</time>
      </trkpt>
      <trkpt lat="48.52156" lon="1.98532">
        <ele>157.48</ele>
        <time>2017-11-26T09:35:27Z</time>
      </trkpt>
      <trkpt lat="48.52158" lon="1.9854">
        <ele>157.46</ele>
        <time>2017-11-26T09:35:29Z</time>
      </trkpt>
      <trkpt lat="48.52162" lon="1.98555">
        <ele>157.36</ele>
        <time>2017-11-26T09:35:31Z</time>
      </trkpt>
      <trkpt lat="48.52164" lon="1.98572">
        <ele>157.19</ele>
        <time>2017-11-26T09:35:33Z</time>
      </trkpt>
      <trkpt lat="48.52167" lon="1.98579">
        <ele>156.97</ele>
        <time>2017-11-26T09:35:35Z</time>
      </trkpt>
      <trkpt lat="48.52173" lon="1.98585">
        <ele>156.39</ele>
        <time>2017-11-26T09:35:37Z</time>
      </trkpt>
      <trkpt lat="48.5218" lon="1.98597">
        <ele>155.92</ele>
        <time>2017-11-26T09:35:39Z</time>
      </trkpt>
      <trkpt lat="48.5219" lon="1.98607">
        <ele>155.1</ele>
        <time>2017-11-26T09:35:41Z</time>
      </trkpt>
      <trkpt lat="48.52195" lon="1.98613">
        <ele>154.77</ele>
        <time>2017-11-26T09:35:43Z</time>
      </trkpt>
      <trkpt lat="48.52202" lon="1.98615">
        <ele>154.11</ele>
        <time>2017-11-26T09:35:45Z</time>
      </trkpt>
      <trkpt lat="48.5221" lon="1.98624">
        <ele>153.49</ele>
        <time>2017-11-26T09:35:47Z</time>
      </trkpt>
      <trkpt lat="48.52217" lon="1.98632">
        <ele>153.07</ele>
        <time>2017-11-26T09:35:49Z</time>
      </trkpt>
      <trkpt lat="48.52225" lon="1.98647">
        <ele>152.74</ele>
        <time>2017-11-26T09:35:53Z</time>
      </trkpt>
      <trkpt lat="48.52229" lon="1.98651">
        <ele>152.51</ele>
        <time>2017-11-26T09:35:55Z</time>
      </trkpt>
      <trkpt lat="48.52231" lon="1.98658">
        <ele>152.56</ele>
        <time>2017-11-26T09:35:57Z</time>
      </trkpt>
      <trkpt lat="48.52235" lon="1.9867">
        <ele>152.5</ele>
        <time>2017-11-26T09:36:01Z</time>
      </trkpt>
      <trkpt lat="48.52237" lon="1.98677">
        <ele>152.44</ele>
        <time>2017-11-26T09:36:03Z</time>
      </trkpt>
      <trkpt lat="48.52239" lon="1.98682">
        <ele>152.32</ele>
        <time>2017-11-26T09:36:05Z</time>
      </trkpt>
      <trkpt lat="48.52246" lon="1.98689">
        <ele>151.91</ele>
        <time>2017-11-26T09:36:09Z</time>
      </trkpt>
      <trkpt lat="48.52251" lon="1.98697">
        <ele>151.61</ele>
        <time>2017-11-26T09:36:13Z</time>
      </trkpt>
      <trkpt lat="48.52256" lon="1.98703">
        <ele>150.9</ele>
        <time>2017-11-26T09:36:17Z</time>
      </trkpt>
      <trkpt lat="48.52263" lon="1.98711">
        <ele>150.09</ele>
        <time>2017-11-26T09:36:21Z</time>
      </trkpt>
      <trkpt lat="48.52267" lon="1.98722">
        <ele>149.61</ele>
        <time>2017-11-26T09:36:25Z</time>
      </trkpt>
      <trkpt lat="48.52271" lon="1.98728">
        <ele>149.2</ele>
        <time>2017-11-26T09:36:27Z</time>
      </trkpt>
      <trkpt lat="48.52275" lon="1.98735">
        <ele>148.73</ele>
        <time>2017-11-26T09:36:29Z</time>
      </trkpt>
      <trkpt lat="48.52279" lon="1.98742">
        <ele>148.25</ele>
        <time>2017-11-26T09:36:31Z</time>
      </trkpt>
      <trkpt lat="48.52283" lon="1.98749">
        <ele>147.88</ele>
        <time>2017-11-26T09:36:33Z</time>
      </trkpt>
      <trkpt lat="48.52286" lon="1.98758">
        <ele>147.34</ele>
        <time>2017-11-26T09:36:35Z</time>
      </trkpt>
      <trkpt lat="48.5229" lon="1.98768">
        <ele>146.7</ele>
        <time>2017-11-26T09:36:37Z</time>
      </trkpt>
      <trkpt lat="48.52294" lon="1.98775">
        <ele>146.08</ele>
        <time>2017-11-26T09:36:39Z</time>
      </trkpt>
      <trkpt lat="48.52297" lon="1.9878">
        <ele>145.52</ele>
        <time>2017-11-26T09:36:41Z</time>
      </trkpt>
      <trkpt lat="48.52301" lon="1.98787">
        <ele>145</ele>
        <time>2017-11-26T09:36:43Z</time>
      </trkpt>
      <trkpt lat="48.52305" lon="1.98797">
        <ele>144.38</ele>
        <time>2017-11-26T09:36:45Z</time>
      </trkpt>
      <trkpt lat="48.5231" lon="1.98804">
        <ele>143.77</ele>
        <time>2017-11-26T09:36:47Z</time>
      </trkpt>
      <trkpt lat="48.52314" lon="1.98806">
        <ele>143.2</ele>
        <time>2017-11-26T09:36:49Z</time>
      </trkpt>
      <trkpt lat="48.5231" lon="1.98796">
        <ele>143.68</ele>
        <time>2017-11-26T09:36:57Z</time>
      </trkpt>
      <trkpt lat="48.52309" lon="1.98789">
        <ele>143.83</ele>
        <time>2017-11-26T09:36:59Z</time>
      </trkpt>
      <trkpt lat="48.52309" lon="1.9878">
        <ele>143.85</ele>
        <time>2017-11-26T09:37:01Z</time>
      </trkpt>
      <trkpt lat="48.52309" lon="1.9877">
        <ele>143.77</ele>
        <time>2017-11-26T09:37:03Z</time>
      </trkpt>
      <trkpt lat="48.52315" lon="1.98734">
        <ele>142.49</ele>
        <time>2017-11-26T09:37:05Z</time>
      </trkpt>
      <trkpt lat="48.52319" lon="1.98714">
        <ele>141.4</ele>
        <time>2017-11-26T09:37:07Z</time>
      </trkpt>
      <trkpt lat="48.52323" lon="1.98695">
        <ele>140.25</ele>
        <time>2017-11-26T09:37:09Z</time>
      </trkpt>
      <trkpt lat="48.52332" lon="1.98662">
        <ele>138.05</ele>
        <time>2017-11-26T09:37:11Z</time>
      </trkpt>
      <trkpt lat="48.52336" lon="1.98645">
        <ele>137.26</ele>
        <time>2017-11-26T09:37:13Z</time>
      </trkpt>
      <trkpt lat="48.52356" lon="1.98602">
        <ele>135.57</ele>
        <time>2017-11-26T09:37:15Z</time>
      </trkpt>
      <trkpt lat="48.52355" lon="1.98586">
        <ele>134.88</ele>
        <time>2017-11-26T09:37:17Z</time>
      </trkpt>
      <trkpt lat="48.52355" lon="1.98569">
        <ele>134.27</ele>
        <time>2017-11-26T09:37:19Z</time>
      </trkpt>
      <trkpt lat="48.52359" lon="1.98552">
        <ele>133.58</ele>
        <time>2017-11-26T09:37:21Z</time>
      </trkpt>
      <trkpt lat="48.52364" lon="1.98549">
        <ele>133.35</ele>
        <time>2017-11-26T09:37:23Z</time>
      </trkpt>
      <trkpt lat="48.52366" lon="1.98541">
        <ele>132.99</ele>
        <time>2017-11-26T09:37:25Z</time>
      </trkpt>
      <trkpt lat="48.52372" lon="1.98523">
        <ele>132.07</ele>
        <time>2017-11-26T09:37:27Z</time>
      </trkpt>
      <trkpt lat="48.52376" lon="1.98509">
        <ele>131.35</ele>
        <time>2017-11-26T09:37:29Z</time>
      </trkpt>
      <trkpt lat="48.52384" lon="1.98504">
        <ele>130.77</ele>
        <time>2017-11-26T09:37:31Z</time>
      </trkpt>
      <trkpt lat="48.52387" lon="1.98492">
        <ele>130.71</ele>
        <time>2017-11-26T09:37:33Z</time>
      </trkpt>
      <trkpt lat="48.52388" lon="1.98479">
        <ele>131.03</ele>
        <time>2017-11-26T09:37:35Z</time>
      </trkpt>
      <trkpt lat="48.52391" lon="1.98472">
        <ele>131.12</ele>
        <time>2017-11-26T09:37:37Z</time>
      </trkpt>
      <trkpt lat="48.52395" lon="1.98469">
        <ele>131</ele>
        <time>2017-11-26T09:37:41Z</time>
      </trkpt>
      <trkpt lat="48.52405" lon="1.98447">
        <ele>131</ele>
        <time>2017-11-26T09:37:45Z</time>
      </trkpt>
      <trkpt lat="48.52413" lon="1.98427">
        <ele>131</ele>
        <time>2017-11-26T09:37:47Z</time>
      </trkpt>
      <trkpt lat="48.52417" lon="1.98413">
        <ele>131.08</ele>
        <time>2017-11-26T09:37:49Z</time>
      </trkpt>
      <trkpt lat="48.52423" lon="1.98396">
        <ele>131.08</ele>
        <time>2017-11-26T09:37:51Z</time>
      </trkpt>
      <trkpt lat="48.52428" lon="1.98386">
        <ele>130.94</ele>
        <time>2017-11-26T09:37:53Z</time>
      </trkpt>
      <trkpt lat="48.52431" lon="1.9838">
        <ele>130.81</ele>
        <time>2017-11-26T09:37:55Z</time>
      </trkpt>
      <trkpt lat="48.52435" lon="1.98373">
        <ele>130.76</ele>
        <time>2017-11-26T09:37:57Z</time>
      </trkpt>
      <trkpt lat="48.52439" lon="1.98364">
        <ele>130.66</ele>
        <time>2017-11-26T09:37:59Z</time>
      </trkpt>
      <trkpt lat="48.52445" lon="1.9835">
        <ele>130.63</ele>
        <time>2017-11-26T09:38:01Z</time>
      </trkpt>
      <trkpt lat="48.52447" lon="1.98338">
        <ele>130.92</ele>
        <time>2017-11-26T09:38:03Z</time>
      </trkpt>
      <trkpt lat="48.52449" lon="1.98329">
        <ele>130.91</ele>
        <time>2017-11-26T09:38:05Z</time>
      </trkpt>
      <trkpt lat="48.52451" lon="1.98321">
        <ele>130.63</ele>
        <time>2017-11-26T09:38:07Z</time>
      </trkpt>
      <trkpt lat="48.52455" lon="1.9831">
        <ele>130.34</ele>
        <time>2017-11-26T09:38:09Z</time>
      </trkpt>
      <trkpt lat="48.52455" lon="1.98299">
        <ele>130.27</ele>
        <time>2017-11-26T09:38:11Z</time>
      </trkpt>
      <trkpt lat="48.52456" lon="1.98287">
        <ele>130.22</ele>
        <time>2017-11-26T09:38:13Z</time>
      </trkpt>
      <trkpt lat="48.52457" lon="1.98274">
        <ele>130.09</ele>
        <time>2017-11-26T09:38:15Z</time>
      </trkpt>
      <trkpt lat="48.52468" lon="1.98234">
        <ele>128.24</ele>
        <time>2017-11-26T09:38:17Z</time>
      </trkpt>
      <trkpt lat="48.52465" lon="1.98213">
        <ele>126.88</ele>
        <time>2017-11-26T09:38:19Z</time>
      </trkpt>
      <trkpt lat="48.52462" lon="1.98187">
        <ele>125.24</ele>
        <time>2017-11-26T09:38:21Z</time>
      </trkpt>
      <trkpt lat="48.52456" lon="1.9818">
        <ele>125.07</ele>
        <time>2017-11-26T09:38:23Z</time>
      </trkpt>
      <trkpt lat="48.52456" lon="1.98155">
        <ele>124.03</ele>
        <time>2017-11-26T09:38:25Z</time>
      </trkpt>
      <trkpt lat="48.52453" lon="1.98145">
        <ele>124.13</ele>
        <time>2017-11-26T09:38:27Z</time>
      </trkpt>
      <trkpt lat="48.5245" lon="1.98138">
        <ele>124.25</ele>
        <time>2017-11-26T09:38:29Z</time>
      </trkpt>
      <trkpt lat="48.5245" lon="1.98121">
        <ele>124.21</ele>
        <time>2017-11-26T09:38:31Z</time>
      </trkpt>
      <trkpt lat="48.52451" lon="1.9811">
        <ele>124.1</ele>
        <time>2017-11-26T09:38:35Z</time>
      </trkpt>
      <trkpt lat="48.52448" lon="1.981">
        <ele>124.21</ele>
        <time>2017-11-26T09:38:37Z</time>
      </trkpt>
      <trkpt lat="48.52448" lon="1.98083">
        <ele>124.17</ele>
        <time>2017-11-26T09:38:39Z</time>
      </trkpt>
      <trkpt lat="48.52452" lon="1.98055">
        <ele>125.63</ele>
        <time>2017-11-26T09:38:41Z</time>
      </trkpt>
      <trkpt lat="48.52456" lon="1.98037">
        <ele>126.52</ele>
        <time>2017-11-26T09:38:43Z</time>
      </trkpt>
      <trkpt lat="48.52459" lon="1.98027">
        <ele>126.8</ele>
        <time>2017-11-26T09:38:45Z</time>
      </trkpt>
      <trkpt lat="48.52456" lon="1.98022">
        <ele>127.39</ele>
        <time>2017-11-26T09:38:47Z</time>
      </trkpt>
      <trkpt lat="48.52457" lon="1.98014">
        <ele>127.77</ele>
        <time>2017-11-26T09:38:49Z</time>
      </trkpt>
      <trkpt lat="48.5246" lon="1.98008">
        <ele>127.81</ele>
        <time>2017-11-26T09:38:57Z</time>
      </trkpt>
      <trkpt lat="48.52462" lon="1.97993">
        <ele>128.66</ele>
        <time>2017-11-26T09:39:03Z</time>
      </trkpt>
      <trkpt lat="48.52466" lon="1.97977">
        <ele>129.37</ele>
        <time>2017-11-26T09:39:05Z</time>
      </trkpt>
      <trkpt lat="48.52469" lon="1.97968">
        <ele>129.76</ele>
        <time>2017-11-26T09:39:07Z</time>
      </trkpt>
      <trkpt lat="48.52471" lon="1.97959">
        <ele>130.22</ele>
        <time>2017-11-26T09:39:09Z</time>
      </trkpt>
      <trkpt lat="48.52474" lon="1.9794">
        <ele>131.41</ele>
        <time>2017-11-26T09:39:13Z</time>
      </trkpt>
      <trkpt lat="48.52476" lon="1.97933">
        <ele>131.73</ele>
        <time>2017-11-26T09:39:17Z</time>
      </trkpt>
      <trkpt lat="48.52478" lon="1.9792">
        <ele>132.6</ele>
        <time>2017-11-26T09:39:21Z</time>
      </trkpt>
      <trkpt lat="48.5248" lon="1.97907">
        <ele>132.86</ele>
        <time>2017-11-26T09:39:23Z</time>
      </trkpt>
      <trkpt lat="48.52482" lon="1.97891">
        <ele>133.07</ele>
        <time>2017-11-26T09:39:25Z</time>
      </trkpt>
      <trkpt lat="48.52481" lon="1.97881">
        <ele>133.38</ele>
        <time>2017-11-26T09:39:27Z</time>
      </trkpt>
      <trkpt lat="48.52479" lon="1.9787">
        <ele>133.74</ele>
        <time>2017-11-26T09:39:29Z</time>
      </trkpt>
      <trkpt lat="48.52477" lon="1.97861">
        <ele>134.07</ele>
        <time>2017-11-26T09:39:31Z</time>
      </trkpt>
      <trkpt lat="48.52475" lon="1.97853">
        <ele>134.41</ele>
        <time>2017-11-26T09:39:33Z</time>
      </trkpt>
      <trkpt lat="48.52471" lon="1.97847">
        <ele>134.82</ele>
        <time>2017-11-26T09:39:35Z</time>
      </trkpt>
      <trkpt lat="48.52468" lon="1.97841">
        <ele>135.18</ele>
        <time>2017-11-26T09:39:37Z</time>
      </trkpt>
      <trkpt lat="48.52464" lon="1.97836">
        <ele>135.53</ele>
        <time>2017-11-26T09:39:39Z</time>
      </trkpt>
      <trkpt lat="48.52462" lon="1.9783">
        <ele>135.63</ele>
        <time>2017-11-26T09:39:41Z</time>
      </trkpt>
      <trkpt lat="48.52455" lon="1.97824">
        <ele>135.92</ele>
        <time>2017-11-26T09:39:45Z</time>
      </trkpt>
      <trkpt lat="48.52446" lon="1.9782">
        <ele>136.39</ele>
        <time>2017-11-26T09:39:49Z</time>
      </trkpt>
      <trkpt lat="48.52439" lon="1.97815">
        <ele>136.73</ele>
        <time>2017-11-26T09:39:53Z</time>
      </trkpt>
      <trkpt lat="48.52431" lon="1.9781">
        <ele>137.11</ele>
        <time>2017-11-26T09:39:57Z</time>
      </trkpt>
      <trkpt lat="48.52426" lon="1.97806">
        <ele>137.32</ele>
        <time>2017-11-26T09:40:01Z</time>
      </trkpt>
      <trkpt lat="48.5242" lon="1.97801">
        <ele>137.63</ele>
        <time>2017-11-26T09:40:05Z</time>
      </trkpt>
      <trkpt lat="48.52413" lon="1.97801">
        <ele>138.07</ele>
        <time>2017-11-26T09:40:07Z</time>
      </trkpt>
      <trkpt lat="48.52408" lon="1.978">
        <ele>138.49</ele>
        <time>2017-11-26T09:40:09Z</time>
      </trkpt>
      <trkpt lat="48.52401" lon="1.97799">
        <ele>138.98</ele>
        <time>2017-11-26T09:40:10Z</time>
      </trkpt>
      <trkpt lat="48.52396" lon="1.97798">
        <ele>139.32</ele>
        <time>2017-11-26T09:40:13Z</time>
      </trkpt>
      <trkpt lat="48.52392" lon="1.97796">
        <ele>139.61</ele>
        <time>2017-11-26T09:40:15Z</time>
      </trkpt>
      <trkpt lat="48.52387" lon="1.97794">
        <ele>139.86</ele>
        <time>2017-11-26T09:40:17Z</time>
      </trkpt>
      <trkpt lat="48.52383" lon="1.97791">
        <ele>140.12</ele>
        <time>2017-11-26T09:40:19Z</time>
      </trkpt>
      <trkpt lat="48.52378" lon="1.9779">
        <ele>140.42</ele>
        <time>2017-11-26T09:40:21Z</time>
      </trkpt>
      <trkpt lat="48.52348" lon="1.97778">
        <ele>142.54</ele>
        <time>2017-11-26T09:40:35Z</time>
      </trkpt>
      <trkpt lat="48.52343" lon="1.97774">
        <ele>142.79</ele>
        <time>2017-11-26T09:40:38Z</time>
      </trkpt>
      <trkpt lat="48.52338" lon="1.97768">
        <ele>143.06</ele>
        <time>2017-11-26T09:40:42Z</time>
      </trkpt>
      <trkpt lat="48.52331" lon="1.97762">
        <ele>143.55</ele>
        <time>2017-11-26T09:40:46Z</time>
      </trkpt>
      <trkpt lat="48.52327" lon="1.9776">
        <ele>144.07</ele>
        <time>2017-11-26T09:40:48Z</time>
      </trkpt>
      <trkpt lat="48.52322" lon="1.97759">
        <ele>144.61</ele>
        <time>2017-11-26T09:40:50Z</time>
      </trkpt>
      <trkpt lat="48.52314" lon="1.97755">
        <ele>145.56</ele>
        <time>2017-11-26T09:40:54Z</time>
      </trkpt>
      <trkpt lat="48.5231" lon="1.97753">
        <ele>146.16</ele>
        <time>2017-11-26T09:40:56Z</time>
      </trkpt>
      <trkpt lat="48.52305" lon="1.97752">
        <ele>146.79</ele>
        <time>2017-11-26T09:40:58Z</time>
      </trkpt>
      <trkpt lat="48.52299" lon="1.9775">
        <ele>147.48</ele>
        <time>2017-11-26T09:41:00Z</time>
      </trkpt>
      <trkpt lat="48.52294" lon="1.97746">
        <ele>147.94</ele>
        <time>2017-11-26T09:41:02Z</time>
      </trkpt>
      <trkpt lat="48.52291" lon="1.97742">
        <ele>148.15</ele>
        <time>2017-11-26T09:41:04Z</time>
      </trkpt>
      <trkpt lat="48.52287" lon="1.97738">
        <ele>148.45</ele>
        <time>2017-11-26T09:41:16Z</time>
      </trkpt>
      <trkpt lat="48.52286" lon="1.97729">
        <ele>148.06</ele>
        <time>2017-11-26T09:42:04Z</time>
      </trkpt>
      <trkpt lat="48.52286" lon="1.97722">
        <ele>147.77</ele>
        <time>2017-11-26T09:42:06Z</time>
      </trkpt>
      <trkpt lat="48.52283" lon="1.97689">
        <ele>146.42</ele>
        <time>2017-11-26T09:42:08Z</time>
      </trkpt>
      <trkpt lat="48.52282" lon="1.9768">
        <ele>146.06</ele>
        <time>2017-11-26T09:42:10Z</time>
      </trkpt>
      <trkpt lat="48.52282" lon="1.97671">
        <ele>145.63</ele>
        <time>2017-11-26T09:42:12Z</time>
      </trkpt>
      <trkpt lat="48.52282" lon="1.97661">
        <ele>145.25</ele>
        <time>2017-11-26T09:42:14Z</time>
      </trkpt>
      <trkpt lat="48.52279" lon="1.97652">
        <ele>145.29</ele>
        <time>2017-11-26T09:42:16Z</time>
      </trkpt>
      <trkpt lat="48.52274" lon="1.97639">
        <ele>145.81</ele>
        <time>2017-11-26T09:42:18Z</time>
      </trkpt>
      <trkpt lat="48.52274" lon="1.97625">
        <ele>145.36</ele>
        <time>2017-11-26T09:42:20Z</time>
      </trkpt>
      <trkpt lat="48.52277" lon="1.97615">
        <ele>144.46</ele>
        <time>2017-11-26T09:42:22Z</time>
      </trkpt>
      <trkpt lat="48.5228" lon="1.9761">
        <ele>143.7</ele>
        <time>2017-11-26T09:42:24Z</time>
      </trkpt>
      <trkpt lat="48.52285" lon="1.97598">
        <ele>142.43</ele>
        <time>2017-11-26T09:42:28Z</time>
      </trkpt>
      <trkpt lat="48.52285" lon="1.97586">
        <ele>142.05</ele>
        <time>2017-11-26T09:42:30Z</time>
      </trkpt>
      <trkpt lat="48.52285" lon="1.97574">
        <ele>141.7</ele>
        <time>2017-11-26T09:42:32Z</time>
      </trkpt>
      <trkpt lat="48.52287" lon="1.97564">
        <ele>141.39</ele>
        <time>2017-11-26T09:42:34Z</time>
      </trkpt>
      <trkpt lat="48.52287" lon="1.97554">
        <ele>141.31</ele>
        <time>2017-11-26T09:42:36Z</time>
      </trkpt>
      <trkpt lat="48.52282" lon="1.97517">
        <ele>141.84</ele>
        <time>2017-11-26T09:42:38Z</time>
      </trkpt>
      <trkpt lat="48.5228" lon="1.97505">
        <ele>142.04</ele>
        <time>2017-11-26T09:42:40Z</time>
      </trkpt>
      <trkpt lat="48.52283" lon="1.97491">
        <ele>141.3</ele>
        <time>2017-11-26T09:42:42Z</time>
      </trkpt>
      <trkpt lat="48.52285" lon="1.97477">
        <ele>140.81</ele>
        <time>2017-11-26T09:42:44Z</time>
      </trkpt>
      <trkpt lat="48.52287" lon="1.97468">
        <ele>140.43</ele>
        <time>2017-11-26T09:42:46Z</time>
      </trkpt>
      <trkpt lat="48.52287" lon="1.9746">
        <ele>140.23</ele>
        <time>2017-11-26T09:42:48Z</time>
      </trkpt>
      <trkpt lat="48.52287" lon="1.9745">
        <ele>140.1</ele>
        <time>2017-11-26T09:42:50Z</time>
      </trkpt>
      <trkpt lat="48.52288" lon="1.97438">
        <ele>139.85</ele>
        <time>2017-11-26T09:42:52Z</time>
      </trkpt>
      <trkpt lat="48.52289" lon="1.97424">
        <ele>139.48</ele>
        <time>2017-11-26T09:42:54Z</time>
      </trkpt>
      <trkpt lat="48.5229" lon="1.97409">
        <ele>139.13</ele>
        <time>2017-11-26T09:42:56Z</time>
      </trkpt>
      <trkpt lat="48.5229" lon="1.97396">
        <ele>138.78</ele>
        <time>2017-11-26T09:42:58Z</time>
      </trkpt>
      <trkpt lat="48.52289" lon="1.97387">
        <ele>138.69</ele>
        <time>2017-11-26T09:43:00Z</time>
      </trkpt>
      <trkpt lat="48.52286" lon="1.97377">
        <ele>138.82</ele>
        <time>2017-11-26T09:43:02Z</time>
      </trkpt>
      <trkpt lat="48.52285" lon="1.97367">
        <ele>138.81</ele>
        <time>2017-11-26T09:43:04Z</time>
      </trkpt>
      <trkpt lat="48.52284" lon="1.97355">
        <ele>138.62</ele>
        <time>2017-11-26T09:43:06Z</time>
      </trkpt>
      <trkpt lat="48.52286" lon="1.97336">
        <ele>137.91</ele>
        <time>2017-11-26T09:43:08Z</time>
      </trkpt>
      <trkpt lat="48.52293" lon="1.97283">
        <ele>135.04</ele>
        <time>2017-11-26T09:43:10Z</time>
      </trkpt>
      <trkpt lat="48.52299" lon="1.97254">
        <ele>133.61</ele>
        <time>2017-11-26T09:43:12Z</time>
      </trkpt>
      <trkpt lat="48.52302" lon="1.97227">
        <ele>133.42</ele>
        <time>2017-11-26T09:43:14Z</time>
      </trkpt>
      <trkpt lat="48.52304" lon="1.97203">
        <ele>133.45</ele>
        <time>2017-11-26T09:43:16Z</time>
      </trkpt>
      <trkpt lat="48.52303" lon="1.97189">
        <ele>133.65</ele>
        <time>2017-11-26T09:43:18Z</time>
      </trkpt>
      <trkpt lat="48.52304" lon="1.97181">
        <ele>133.64</ele>
        <time>2017-11-26T09:43:20Z</time>
      </trkpt>
      <trkpt lat="48.52308" lon="1.97171">
        <ele>133.46</ele>
        <time>2017-11-26T09:43:26Z</time>
      </trkpt>
      <trkpt lat="48.52315" lon="1.97164">
        <ele>133.24</ele>
        <time>2017-11-26T09:43:30Z</time>
      </trkpt>
      <trkpt lat="48.52319" lon="1.9716">
        <ele>133.1</ele>
        <time>2017-11-26T09:43:32Z</time>
      </trkpt>
      <trkpt lat="48.52325" lon="1.97158">
        <ele>132.85</ele>
        <time>2017-11-26T09:43:34Z</time>
      </trkpt>
      <trkpt lat="48.5233" lon="1.97156">
        <ele>132.58</ele>
        <time>2017-11-26T09:43:36Z</time>
      </trkpt>
      <trkpt lat="48.52337" lon="1.97155">
        <ele>132.32</ele>
        <time>2017-11-26T09:43:38Z</time>
      </trkpt>
      <trkpt lat="48.52344" lon="1.97154">
        <ele>132.12</ele>
        <time>2017-11-26T09:43:40Z</time>
      </trkpt>
      <trkpt lat="48.52351" lon="1.97151">
        <ele>132.03</ele>
        <time>2017-11-26T09:43:42Z</time>
      </trkpt>
      <trkpt lat="48.52357" lon="1.97148">
        <ele>131.93</ele>
        <time>2017-11-26T09:43:44Z</time>
      </trkpt>
      <trkpt lat="48.52364" lon="1.97148">
        <ele>131.72</ele>
        <time>2017-11-26T09:43:46Z</time>
      </trkpt>
      <trkpt lat="48.52373" lon="1.97146">
        <ele>131.54</ele>
        <time>2017-11-26T09:43:48Z</time>
      </trkpt>
      <trkpt lat="48.52382" lon="1.97143">
        <ele>131.45</ele>
        <time>2017-11-26T09:43:50Z</time>
      </trkpt>
      <trkpt lat="48.5239" lon="1.97141">
        <ele>131.29</ele>
        <time>2017-11-26T09:43:52Z</time>
      </trkpt>
      <trkpt lat="48.52398" lon="1.97141">
        <ele>131.08</ele>
        <time>2017-11-26T09:43:54Z</time>
      </trkpt>
      <trkpt lat="48.52406" lon="1.97142">
        <ele>130.77</ele>
        <time>2017-11-26T09:43:56Z</time>
      </trkpt>
      <trkpt lat="48.52414" lon="1.97144">
        <ele>130.44</ele>
        <time>2017-11-26T09:43:58Z</time>
      </trkpt>
      <trkpt lat="48.52423" lon="1.97146">
        <ele>130.33</ele>
        <time>2017-11-26T09:44:00Z</time>
      </trkpt>
      <trkpt lat="48.52431" lon="1.97149">
        <ele>130.27</ele>
        <time>2017-11-26T09:44:02Z</time>
      </trkpt>
      <trkpt lat="48.52441" lon="1.9715">
        <ele>130.26</ele>
        <time>2017-11-26T09:44:04Z</time>
      </trkpt>
      <trkpt lat="48.5245" lon="1.97154">
        <ele>130.16</ele>
        <time>2017-11-26T09:44:06Z</time>
      </trkpt>
      <trkpt lat="48.52458" lon="1.97159">
        <ele>129.96</ele>
        <time>2017-11-26T09:44:08Z</time>
      </trkpt>
      <trkpt lat="48.52467" lon="1.97163">
        <ele>129.84</ele>
        <time>2017-11-26T09:44:10Z</time>
      </trkpt>
      <trkpt lat="48.52476" lon="1.97165">
        <ele>129.82</ele>
        <time>2017-11-26T09:44:12Z</time>
      </trkpt>
      <trkpt lat="48.52485" lon="1.97165">
        <ele>129.9</ele>
        <time>2017-11-26T09:44:14Z</time>
      </trkpt>
      <trkpt lat="48.5249" lon="1.97165">
        <ele>130</ele>
        <time>2017-11-26T09:44:16Z</time>
      </trkpt>
      <trkpt lat="48.52495" lon="1.97163">
        <ele>130.13</ele>
        <time>2017-11-26T09:44:18Z</time>
      </trkpt>
      <trkpt lat="48.525" lon="1.97164">
        <ele>130.18</ele>
        <time>2017-11-26T09:44:20Z</time>
      </trkpt>
      <trkpt lat="48.52508" lon="1.97168">
        <ele>129.91</ele>
        <time>2017-11-26T09:44:22Z</time>
      </trkpt>
      <trkpt lat="48.52517" lon="1.97172">
        <ele>129.72</ele>
        <time>2017-11-26T09:44:24Z</time>
      </trkpt>
      <trkpt lat="48.52527" lon="1.97171">
        <ele>129.74</ele>
        <time>2017-11-26T09:44:26Z</time>
      </trkpt>
      <trkpt lat="48.52536" lon="1.97172">
        <ele>129.71</ele>
        <time>2017-11-26T09:44:28Z</time>
      </trkpt>
      <trkpt lat="48.52545" lon="1.97175">
        <ele>129.58</ele>
        <time>2017-11-26T09:44:30Z</time>
      </trkpt>
      <trkpt lat="48.52555" lon="1.97176">
        <ele>129.52</ele>
        <time>2017-11-26T09:44:32Z</time>
      </trkpt>
      <trkpt lat="48.5257" lon="1.97176">
        <ele>129.54</ele>
        <time>2017-11-26T09:44:34Z</time>
      </trkpt>
      <trkpt lat="48.52578" lon="1.97178">
        <ele>129.44</ele>
        <time>2017-11-26T09:44:36Z</time>
      </trkpt>
      <trkpt lat="48.52585" lon="1.97179">
        <ele>129.22</ele>
        <time>2017-11-26T09:44:38Z</time>
      </trkpt>
      <trkpt lat="48.52595" lon="1.97178">
        <ele>128.4</ele>
        <time>2017-11-26T09:44:40Z</time>
      </trkpt>
      <trkpt lat="48.52603" lon="1.97185">
        <ele>127.3</ele>
        <time>2017-11-26T09:44:42Z</time>
      </trkpt>
      <trkpt lat="48.52608" lon="1.97186">
        <ele>126.71</ele>
        <time>2017-11-26T09:44:44Z</time>
      </trkpt>
      <trkpt lat="48.52614" lon="1.97186">
        <ele>126.14</ele>
        <time>2017-11-26T09:44:48Z</time>
      </trkpt>
      <trkpt lat="48.52618" lon="1.97183">
        <ele>125.9</ele>
        <time>2017-11-26T09:44:54Z</time>
      </trkpt>
      <trkpt lat="48.52621" lon="1.97178">
        <ele>125.83</ele>
        <time>2017-11-26T09:45:16Z</time>
      </trkpt>
      <trkpt lat="48.52626" lon="1.97175">
        <ele>125.57</ele>
        <time>2017-11-26T09:45:38Z</time>
      </trkpt>
      <trkpt lat="48.52632" lon="1.9717">
        <ele>125.18</ele>
        <time>2017-11-26T09:45:43Z</time>
      </trkpt>
      <trkpt lat="48.52627" lon="1.97169">
        <ele>125.71</ele>
        <time>2017-11-26T09:46:07Z</time>
      </trkpt>
      <trkpt lat="48.52626" lon="1.97177">
        <ele>125.45</ele>
        <time>2017-11-26T09:47:20Z</time>
      </trkpt>
      <trkpt lat="48.52632" lon="1.97174">
        <ele>124.98</ele>
        <time>2017-11-26T09:52:15Z</time>
      </trkpt>
      <trkpt lat="48.52628" lon="1.97167">
        <ele>125.68</ele>
        <time>2017-11-26T09:52:24Z</time>
      </trkpt>
      <trkpt lat="48.52624" lon="1.97165">
        <ele>126.11</ele>
        <time>2017-11-26T09:52:32Z</time>
      </trkpt>
      <trkpt lat="48.52622" lon="1.97158">
        <ele>126.33</ele>
        <time>2017-11-26T09:52:34Z</time>
      </trkpt>
      <trkpt lat="48.52616" lon="1.97158">
        <ele>126.84</ele>
        <time>2017-11-26T09:52:38Z</time>
      </trkpt>
      <trkpt lat="48.5261" lon="1.97159">
        <ele>127.42</ele>
        <time>2017-11-26T09:55:21Z</time>
      </trkpt>
      <trkpt lat="48.52616" lon="1.97159">
        <ele>126.87</ele>
        <time>2017-11-26T09:55:27Z</time>
      </trkpt>
      <trkpt lat="48.5262" lon="1.97161">
        <ele>126.47</ele>
        <time>2017-11-26T09:55:35Z</time>
      </trkpt>
      <trkpt lat="48.52621" lon="1.97169">
        <ele>126.3</ele>
        <time>2017-11-26T09:57:05Z</time>
      </trkpt>
      <trkpt lat="48.52619" lon="1.97175">
        <ele>126.12</ele>
        <time>2017-11-26T09:57:21Z</time>
      </trkpt>
      <trkpt lat="48.52627" lon="1.97166">
        <ele>125.84</ele>
        <time>2017-11-26T09:57:47Z</time>
      </trkpt>
      <trkpt lat="48.52629" lon="1.97156">
        <ele>125.73</ele>
        <time>2017-11-26T09:57:51Z</time>
      </trkpt>
      <trkpt lat="48.52629" lon="1.97147">
        <ele>125.77</ele>
        <time>2017-11-26T09:57:53Z</time>
      </trkpt>
      <trkpt lat="48.52628" lon="1.97133">
        <ele>125.97</ele>
        <time>2017-11-26T09:57:55Z</time>
      </trkpt>
      <trkpt lat="48.52628" lon="1.97121">
        <ele>126.06</ele>
        <time>2017-11-26T09:57:57Z</time>
      </trkpt>
      <trkpt lat="48.52627" lon="1.97103">
        <ele>126.28</ele>
        <time>2017-11-26T09:57:59Z</time>
      </trkpt>
      <trkpt lat="48.52626" lon="1.97092">
        <ele>126.42</ele>
        <time>2017-11-26T09:58:01Z</time>
      </trkpt>
      <trkpt lat="48.52623" lon="1.97079">
        <ele>126.46</ele>
        <time>2017-11-26T09:58:03Z</time>
      </trkpt>
      <trkpt lat="48.52618" lon="1.97065">
        <ele>126.27</ele>
        <time>2017-11-26T09:58:05Z</time>
      </trkpt>
      <trkpt lat="48.52615" lon="1.97054">
        <ele>126.08</ele>
        <time>2017-11-26T09:58:07Z</time>
      </trkpt>
      <trkpt lat="48.52612" lon="1.97042">
        <ele>125.81</ele>
        <time>2017-11-26T09:58:09Z</time>
      </trkpt>
      <trkpt lat="48.52604" lon="1.97023">
        <ele>125.45</ele>
        <time>2017-11-26T09:58:11Z</time>
      </trkpt>
      <trkpt lat="48.52595" lon="1.97007">
        <ele>125.1</ele>
        <time>2017-11-26T09:58:13Z</time>
      </trkpt>
      <trkpt lat="48.52592" lon="1.96999">
        <ele>124.88</ele>
        <time>2017-11-26T09:58:15Z</time>
      </trkpt>
      <trkpt lat="48.52586" lon="1.96997">
        <ele>124.93</ele>
        <time>2017-11-26T09:58:17Z</time>
      </trkpt>
      <trkpt lat="48.52582" lon="1.96987">
        <ele>124.92</ele>
        <time>2017-11-26T09:58:19Z</time>
      </trkpt>
      <trkpt lat="48.52578" lon="1.96968">
        <ele>125.05</ele>
        <time>2017-11-26T09:58:21Z</time>
      </trkpt>
      <trkpt lat="48.52575" lon="1.96956">
        <ele>125.25</ele>
        <time>2017-11-26T09:58:23Z</time>
      </trkpt>
      <trkpt lat="48.52567" lon="1.96949">
        <ele>125.85</ele>
        <time>2017-11-26T09:58:25Z</time>
      </trkpt>
      <trkpt lat="48.52565" lon="1.96936">
        <ele>125.94</ele>
        <time>2017-11-26T09:58:27Z</time>
      </trkpt>
      <trkpt lat="48.52563" lon="1.96923">
        <ele>126.05</ele>
        <time>2017-11-26T09:58:29Z</time>
      </trkpt>
      <trkpt lat="48.52556" lon="1.96919">
        <ele>126.67</ele>
        <time>2017-11-26T09:58:31Z</time>
      </trkpt>
      <trkpt lat="48.52551" lon="1.96909">
        <ele>127.37</ele>
        <time>2017-11-26T09:58:33Z</time>
      </trkpt>
      <trkpt lat="48.52547" lon="1.96903">
        <ele>128.02</ele>
        <time>2017-11-26T09:58:35Z</time>
      </trkpt>
      <trkpt lat="48.52542" lon="1.96898">
        <ele>128.67</ele>
        <time>2017-11-26T09:58:37Z</time>
      </trkpt>
      <trkpt lat="48.52538" lon="1.96894">
        <ele>129.18</ele>
        <time>2017-11-26T09:58:39Z</time>
      </trkpt>
      <trkpt lat="48.52536" lon="1.96885">
        <ele>129.63</ele>
        <time>2017-11-26T09:58:45Z</time>
      </trkpt>
      <trkpt lat="48.52531" lon="1.96874">
        <ele>130.41</ele>
        <time>2017-11-26T09:58:48Z</time>
      </trkpt>
      <trkpt lat="48.52526" lon="1.96868">
        <ele>131.07</ele>
        <time>2017-11-26T09:58:53Z</time>
      </trkpt>
      <trkpt lat="48.52524" lon="1.96855">
        <ele>131.61</ele>
        <time>2017-11-26T09:58:57Z</time>
      </trkpt>
      <trkpt lat="48.52523" lon="1.96842">
        <ele>132.1</ele>
        <time>2017-11-26T09:59:00Z</time>
      </trkpt>
      <trkpt lat="48.5252" lon="1.96835">
        <ele>132.47</ele>
        <time>2017-11-26T09:59:05Z</time>
      </trkpt>
      <trkpt lat="48.52516" lon="1.96828">
        <ele>132.98</ele>
        <time>2017-11-26T09:59:09Z</time>
      </trkpt>
      <trkpt lat="48.52511" lon="1.96815">
        <ele>133.51</ele>
        <time>2017-11-26T09:59:12Z</time>
      </trkpt>
      <trkpt lat="48.5251" lon="1.96807">
        <ele>133.76</ele>
        <time>2017-11-26T09:59:15Z</time>
      </trkpt>
      <trkpt lat="48.52509" lon="1.968">
        <ele>133.93</ele>
        <time>2017-11-26T09:59:17Z</time>
      </trkpt>
      <trkpt lat="48.52509" lon="1.96793">
        <ele>134.07</ele>
        <time>2017-11-26T09:59:19Z</time>
      </trkpt>
      <trkpt lat="48.52507" lon="1.96786">
        <ele>134.25</ele>
        <time>2017-11-26T09:59:21Z</time>
      </trkpt>
      <trkpt lat="48.52503" lon="1.9678">
        <ele>134.5</ele>
        <time>2017-11-26T09:59:23Z</time>
      </trkpt>
      <trkpt lat="48.52497" lon="1.96773">
        <ele>134.72</ele>
        <time>2017-11-26T09:59:24Z</time>
      </trkpt>
      <trkpt lat="48.52493" lon="1.96768">
        <ele>134.77</ele>
        <time>2017-11-26T09:59:27Z</time>
      </trkpt>
      <trkpt lat="48.52489" lon="1.96762">
        <ele>134.8</ele>
        <time>2017-11-26T09:59:29Z</time>
      </trkpt>
      <trkpt lat="48.52486" lon="1.96757">
        <ele>134.8</ele>
        <time>2017-11-26T09:59:31Z</time>
      </trkpt>
      <trkpt lat="48.52479" lon="1.9675">
        <ele>134.77</ele>
        <time>2017-11-26T09:59:33Z</time>
      </trkpt>
      <trkpt lat="48.52473" lon="1.96744">
        <ele>135</ele>
        <time>2017-11-26T09:59:35Z</time>
      </trkpt>
      <trkpt lat="48.52469" lon="1.96736">
        <ele>135.38</ele>
        <time>2017-11-26T09:59:36Z</time>
      </trkpt>
      <trkpt lat="48.52465" lon="1.9673">
        <ele>135.62</ele>
        <time>2017-11-26T09:59:39Z</time>
      </trkpt>
      <trkpt lat="48.52462" lon="1.96725">
        <ele>135.89</ele>
        <time>2017-11-26T09:59:41Z</time>
      </trkpt>
      <trkpt lat="48.52459" lon="1.96719">
        <ele>136.17</ele>
        <time>2017-11-26T09:59:43Z</time>
      </trkpt>
      <trkpt lat="48.52455" lon="1.96708">
        <ele>136.72</ele>
        <time>2017-11-26T09:59:47Z</time>
      </trkpt>
      <trkpt lat="48.5245" lon="1.96703">
        <ele>136.98</ele>
        <time>2017-11-26T09:59:51Z</time>
      </trkpt>
      <trkpt lat="48.52445" lon="1.96699">
        <ele>137.19</ele>
        <time>2017-11-26T09:59:55Z</time>
      </trkpt>
      <trkpt lat="48.52438" lon="1.96697">
        <ele>137.3</ele>
        <time>2017-11-26T09:59:59Z</time>
      </trkpt>
      <trkpt lat="48.52407" lon="1.96694">
        <ele>138.12</ele>
        <time>2017-11-26T10:00:13Z</time>
      </trkpt>
      <trkpt lat="48.52404" lon="1.9668">
        <ele>139.06</ele>
        <time>2017-11-26T10:00:16Z</time>
      </trkpt>
      <trkpt lat="48.52403" lon="1.96672">
        <ele>139.56</ele>
        <time>2017-11-26T10:00:18Z</time>
      </trkpt>
      <trkpt lat="48.52401" lon="1.96664">
        <ele>140.1</ele>
        <time>2017-11-26T10:00:20Z</time>
      </trkpt>
      <trkpt lat="48.52399" lon="1.96654">
        <ele>140.88</ele>
        <time>2017-11-26T10:00:22Z</time>
      </trkpt>
      <trkpt lat="48.52398" lon="1.96645">
        <ele>141.49</ele>
        <time>2017-11-26T10:00:24Z</time>
      </trkpt>
      <trkpt lat="48.52395" lon="1.96638">
        <ele>142.11</ele>
        <time>2017-11-26T10:00:28Z</time>
      </trkpt>
      <trkpt lat="48.52392" lon="1.9663">
        <ele>142.77</ele>
        <time>2017-11-26T10:00:32Z</time>
      </trkpt>
      <trkpt lat="48.52387" lon="1.96627">
        <ele>143.16</ele>
        <time>2017-11-26T10:00:40Z</time>
      </trkpt>
      <trkpt lat="48.52383" lon="1.9662">
        <ele>143.73</ele>
        <time>2017-11-26T10:00:50Z</time>
      </trkpt>
      <trkpt lat="48.52382" lon="1.96611">
        <ele>144.26</ele>
        <time>2017-11-26T10:00:56Z</time>
      </trkpt>
      <trkpt lat="48.52381" lon="1.96603">
        <ele>144.72</ele>
        <time>2017-11-26T10:01:02Z</time>
      </trkpt>
      <trkpt lat="48.5238" lon="1.96596">
        <ele>145.15</ele>
        <time>2017-11-26T10:01:06Z</time>
      </trkpt>
      <trkpt lat="48.52381" lon="1.96586">
        <ele>145.71</ele>
        <time>2017-11-26T10:01:12Z</time>
      </trkpt>
      <trkpt lat="48.52383" lon="1.96575">
        <ele>146.44</ele>
        <time>2017-11-26T10:01:16Z</time>
      </trkpt>
      <trkpt lat="48.52385" lon="1.96565">
        <ele>147.2</ele>
        <time>2017-11-26T10:01:20Z</time>
      </trkpt>
      <trkpt lat="48.52387" lon="1.96556">
        <ele>147.83</ele>
        <time>2017-11-26T10:01:24Z</time>
      </trkpt>
      <trkpt lat="48.52389" lon="1.96546">
        <ele>148.51</ele>
        <time>2017-11-26T10:01:28Z</time>
      </trkpt>
      <trkpt lat="48.52389" lon="1.96537">
        <ele>149.2</ele>
        <time>2017-11-26T10:01:32Z</time>
      </trkpt>
      <trkpt lat="48.52388" lon="1.9653">
        <ele>149.74</ele>
        <time>2017-11-26T10:01:36Z</time>
      </trkpt>
      <trkpt lat="48.52391" lon="1.96524">
        <ele>150.08</ele>
        <time>2017-11-26T10:01:42Z</time>
      </trkpt>
      <trkpt lat="48.52396" lon="1.96517">
        <ele>150.47</ele>
        <time>2017-11-26T10:01:48Z</time>
      </trkpt>
      <trkpt lat="48.52399" lon="1.96512">
        <ele>150.74</ele>
        <time>2017-11-26T10:01:52Z</time>
      </trkpt>
      <trkpt lat="48.52406" lon="1.96505">
        <ele>151</ele>
        <time>2017-11-26T10:01:58Z</time>
      </trkpt>
      <trkpt lat="48.5241" lon="1.96496">
        <ele>151.52</ele>
        <time>2017-11-26T10:02:02Z</time>
      </trkpt>
      <trkpt lat="48.52416" lon="1.9649">
        <ele>151.76</ele>
        <time>2017-11-26T10:02:08Z</time>
      </trkpt>
      <trkpt lat="48.5242" lon="1.96483">
        <ele>152.14</ele>
        <time>2017-11-26T10:02:12Z</time>
      </trkpt>
      <trkpt lat="48.52424" lon="1.96477">
        <ele>152.37</ele>
        <time>2017-11-26T10:02:16Z</time>
      </trkpt>
      <trkpt lat="48.52428" lon="1.9647">
        <ele>152.55</ele>
        <time>2017-11-26T10:02:22Z</time>
      </trkpt>
      <trkpt lat="48.52431" lon="1.96464">
        <ele>152.81</ele>
        <time>2017-11-26T10:02:26Z</time>
      </trkpt>
      <trkpt lat="48.52433" lon="1.96455">
        <ele>153.24</ele>
        <time>2017-11-26T10:02:30Z</time>
      </trkpt>
      <trkpt lat="48.52434" lon="1.96447">
        <ele>153.63</ele>
        <time>2017-11-26T10:02:34Z</time>
      </trkpt>
      <trkpt lat="48.52432" lon="1.96438">
        <ele>154.32</ele>
        <time>2017-11-26T10:02:40Z</time>
      </trkpt>
      <trkpt lat="48.52431" lon="1.9643">
        <ele>154.83</ele>
        <time>2017-11-26T10:02:44Z</time>
      </trkpt>
      <trkpt lat="48.52428" lon="1.96425">
        <ele>155.43</ele>
        <time>2017-11-26T10:02:52Z</time>
      </trkpt>
      <trkpt lat="48.52428" lon="1.96417">
        <ele>155.86</ele>
        <time>2017-11-26T10:02:56Z</time>
      </trkpt>
      <trkpt lat="48.52426" lon="1.9641">
        <ele>156.16</ele>
        <time>2017-11-26T10:03:02Z</time>
      </trkpt>
      <trkpt lat="48.52423" lon="1.96404">
        <ele>156.53</ele>
        <time>2017-11-26T10:03:06Z</time>
      </trkpt>
      <trkpt lat="48.5242" lon="1.96394">
        <ele>156.85</ele>
        <time>2017-11-26T10:03:10Z</time>
      </trkpt>
      <trkpt lat="48.52419" lon="1.96383">
        <ele>157.17</ele>
        <time>2017-11-26T10:03:14Z</time>
      </trkpt>
      <trkpt lat="48.52415" lon="1.96372">
        <ele>157.61</ele>
        <time>2017-11-26T10:03:18Z</time>
      </trkpt>
      <trkpt lat="48.52409" lon="1.96364">
        <ele>157.96</ele>
        <time>2017-11-26T10:03:22Z</time>
      </trkpt>
      <trkpt lat="48.52403" lon="1.96356">
        <ele>158.34</ele>
        <time>2017-11-26T10:03:24Z</time>
      </trkpt>
      <trkpt lat="48.52398" lon="1.96351">
        <ele>158.65</ele>
        <time>2017-11-26T10:03:26Z</time>
      </trkpt>
      <trkpt lat="48.52393" lon="1.96348">
        <ele>158.9</ele>
        <time>2017-11-26T10:03:28Z</time>
      </trkpt>
      <trkpt lat="48.52386" lon="1.96342">
        <ele>159.34</ele>
        <time>2017-11-26T10:03:32Z</time>
      </trkpt>
      <trkpt lat="48.5238" lon="1.96338">
        <ele>159.68</ele>
        <time>2017-11-26T10:03:36Z</time>
      </trkpt>
      <trkpt lat="48.52378" lon="1.96332">
        <ele>159.86</ele>
        <time>2017-11-26T10:04:50Z</time>
      </trkpt>
      <trkpt lat="48.52373" lon="1.96325">
        <ele>160.15</ele>
        <time>2017-11-26T10:04:56Z</time>
      </trkpt>
      <trkpt lat="48.52366" lon="1.96321">
        <ele>160.51</ele>
        <time>2017-11-26T10:05:00Z</time>
      </trkpt>
      <trkpt lat="48.52362" lon="1.96317">
        <ele>160.76</ele>
        <time>2017-11-26T10:05:02Z</time>
      </trkpt>
      <trkpt lat="48.52356" lon="1.96312">
        <ele>161.1</ele>
        <time>2017-11-26T10:05:04Z</time>
      </trkpt>
      <trkpt lat="48.5235" lon="1.96307">
        <ele>161.44</ele>
        <time>2017-11-26T10:05:06Z</time>
      </trkpt>
      <trkpt lat="48.52346" lon="1.963">
        <ele>161.75</ele>
        <time>2017-11-26T10:05:08Z</time>
      </trkpt>
      <trkpt lat="48.52343" lon="1.96291">
        <ele>161.95</ele>
        <time>2017-11-26T10:05:10Z</time>
      </trkpt>
      <trkpt lat="48.52345" lon="1.96282">
        <ele>161.99</ele>
        <time>2017-11-26T10:05:12Z</time>
      </trkpt>
      <trkpt lat="48.52348" lon="1.96274">
        <ele>161.85</ele>
        <time>2017-11-26T10:05:14Z</time>
      </trkpt>
      <trkpt lat="48.52353" lon="1.96267">
        <ele>161.67</ele>
        <time>2017-11-26T10:05:16Z</time>
      </trkpt>
      <trkpt lat="48.52358" lon="1.96262">
        <ele>161.42</ele>
        <time>2017-11-26T10:05:18Z</time>
      </trkpt>
      <trkpt lat="48.52363" lon="1.96257">
        <ele>161.18</ele>
        <time>2017-11-26T10:05:20Z</time>
      </trkpt>
      <trkpt lat="48.5237" lon="1.96251">
        <ele>160.8</ele>
        <time>2017-11-26T10:05:24Z</time>
      </trkpt>
      <trkpt lat="48.52373" lon="1.96242">
        <ele>160.34</ele>
        <time>2017-11-26T10:05:30Z</time>
      </trkpt>
      <trkpt lat="48.5237" lon="1.9623">
        <ele>160.07</ele>
        <time>2017-11-26T10:05:33Z</time>
      </trkpt>
      <trkpt lat="48.52366" lon="1.96222">
        <ele>160.12</ele>
        <time>2017-11-26T10:05:38Z</time>
      </trkpt>
      <trkpt lat="48.52366" lon="1.96215">
        <ele>159.89</ele>
        <time>2017-11-26T10:05:42Z</time>
      </trkpt>
      <trkpt lat="48.52368" lon="1.96203">
        <ele>159.33</ele>
        <time>2017-11-26T10:05:45Z</time>
      </trkpt>
      <trkpt lat="48.52371" lon="1.96191">
        <ele>158.69</ele>
        <time>2017-11-26T10:05:50Z</time>
      </trkpt>
      <trkpt lat="48.52377" lon="1.96183">
        <ele>157.89</ele>
        <time>2017-11-26T10:05:54Z</time>
      </trkpt>
      <trkpt lat="48.52382" lon="1.96179">
        <ele>157.36</ele>
        <time>2017-11-26T10:05:56Z</time>
      </trkpt>
      <trkpt lat="48.52427" lon="1.9616">
        <ele>151.88</ele>
        <time>2017-11-26T10:06:10Z</time>
      </trkpt>
      <trkpt lat="48.52437" lon="1.9616">
        <ele>150.28</ele>
        <time>2017-11-26T10:06:13Z</time>
      </trkpt>
      <trkpt lat="48.52443" lon="1.9616">
        <ele>149.19</ele>
        <time>2017-11-26T10:06:15Z</time>
      </trkpt>
      <trkpt lat="48.52451" lon="1.96159">
        <ele>147.84</ele>
        <time>2017-11-26T10:06:17Z</time>
      </trkpt>
      <trkpt lat="48.52457" lon="1.96154">
        <ele>146.44</ele>
        <time>2017-11-26T10:06:19Z</time>
      </trkpt>
      <trkpt lat="48.52462" lon="1.96144">
        <ele>145.02</ele>
        <time>2017-11-26T10:06:21Z</time>
      </trkpt>
      <trkpt lat="48.52476" lon="1.96128">
        <ele>141.6</ele>
        <time>2017-11-26T10:06:23Z</time>
      </trkpt>
      <trkpt lat="48.52483" lon="1.9611">
        <ele>139.13</ele>
        <time>2017-11-26T10:06:25Z</time>
      </trkpt>
      <trkpt lat="48.52488" lon="1.96099">
        <ele>137.36</ele>
        <time>2017-11-26T10:06:27Z</time>
      </trkpt>
      <trkpt lat="48.5249" lon="1.96083">
        <ele>135.89</ele>
        <time>2017-11-26T10:06:29Z</time>
      </trkpt>
      <trkpt lat="48.52498" lon="1.9607">
        <ele>133.49</ele>
        <time>2017-11-26T10:06:31Z</time>
      </trkpt>
      <trkpt lat="48.52502" lon="1.96057">
        <ele>132.02</ele>
        <time>2017-11-26T10:06:33Z</time>
      </trkpt>
      <trkpt lat="48.52507" lon="1.9604">
        <ele>130.49</ele>
        <time>2017-11-26T10:06:35Z</time>
      </trkpt>
      <trkpt lat="48.52506" lon="1.96031">
        <ele>129.88</ele>
        <time>2017-11-26T10:06:37Z</time>
      </trkpt>
      <trkpt lat="48.52512" lon="1.96015">
        <ele>128.47</ele>
        <time>2017-11-26T10:06:39Z</time>
      </trkpt>
      <trkpt lat="48.52516" lon="1.96003">
        <ele>127.44</ele>
        <time>2017-11-26T10:06:41Z</time>
      </trkpt>
      <trkpt lat="48.52519" lon="1.95981">
        <ele>126.04</ele>
        <time>2017-11-26T10:06:43Z</time>
      </trkpt>
      <trkpt lat="48.52519" lon="1.95971">
        <ele>125.51</ele>
        <time>2017-11-26T10:06:45Z</time>
      </trkpt>
      <trkpt lat="48.5252" lon="1.95958">
        <ele>124.79</ele>
        <time>2017-11-26T10:06:47Z</time>
      </trkpt>
      <trkpt lat="48.52523" lon="1.95949">
        <ele>124.12</ele>
        <time>2017-11-26T10:06:49Z</time>
      </trkpt>
      <trkpt lat="48.52528" lon="1.95942">
        <ele>123.41</ele>
        <time>2017-11-26T10:06:53Z</time>
      </trkpt>
      <trkpt lat="48.52533" lon="1.95937">
        <ele>122.82</ele>
        <time>2017-11-26T10:06:55Z</time>
      </trkpt>
      <trkpt lat="48.5254" lon="1.95926">
        <ele>121.67</ele>
        <time>2017-11-26T10:06:57Z</time>
      </trkpt>
      <trkpt lat="48.5255" lon="1.95912">
        <ele>120.24</ele>
        <time>2017-11-26T10:06:59Z</time>
      </trkpt>
      <trkpt lat="48.52562" lon="1.95914">
        <ele>119.44</ele>
        <time>2017-11-26T10:07:01Z</time>
      </trkpt>
      <trkpt lat="48.52575" lon="1.95904">
        <ele>118.14</ele>
        <time>2017-11-26T10:07:03Z</time>
      </trkpt>
      <trkpt lat="48.52583" lon="1.95916">
        <ele>118.01</ele>
        <time>2017-11-26T10:07:05Z</time>
      </trkpt>
      <trkpt lat="48.52588" lon="1.95927">
        <ele>118.53</ele>
        <time>2017-11-26T10:07:07Z</time>
      </trkpt>
      <trkpt lat="48.52593" lon="1.95933">
        <ele>118.77</ele>
        <time>2017-11-26T10:07:09Z</time>
      </trkpt>
      <trkpt lat="48.52595" lon="1.95941">
        <ele>119.2</ele>
        <time>2017-11-26T10:07:11Z</time>
      </trkpt>
      <trkpt lat="48.526" lon="1.95953">
        <ele>119.71</ele>
        <time>2017-11-26T10:07:15Z</time>
      </trkpt>
      <trkpt lat="48.52609" lon="1.95968">
        <ele>120.2</ele>
        <time>2017-11-26T10:07:21Z</time>
      </trkpt>
      <trkpt lat="48.52614" lon="1.95975">
        <ele>120.29</ele>
        <time>2017-11-26T10:07:23Z</time>
      </trkpt>
      <trkpt lat="48.52621" lon="1.95989">
        <ele>120.68</ele>
        <time>2017-11-26T10:07:25Z</time>
      </trkpt>
      <trkpt lat="48.52626" lon="1.96005">
        <ele>121.15</ele>
        <time>2017-11-26T10:07:27Z</time>
      </trkpt>
      <trkpt lat="48.5263" lon="1.96014">
        <ele>121.29</ele>
        <time>2017-11-26T10:07:29Z</time>
      </trkpt>
      <trkpt lat="48.52634" lon="1.96027">
        <ele>121.62</ele>
        <time>2017-11-26T10:07:31Z</time>
      </trkpt>
      <trkpt lat="48.5264" lon="1.96039">
        <ele>121.83</ele>
        <time>2017-11-26T10:07:33Z</time>
      </trkpt>
      <trkpt lat="48.52647" lon="1.96034">
        <ele>121.08</ele>
        <time>2017-11-26T10:07:37Z</time>
      </trkpt>
      <trkpt lat="48.52656" lon="1.96029">
        <ele>120.2</ele>
        <time>2017-11-26T10:07:41Z</time>
      </trkpt>
      <trkpt lat="48.5266" lon="1.96022">
        <ele>119.55</ele>
        <time>2017-11-26T10:07:43Z</time>
      </trkpt>
      <trkpt lat="48.52677" lon="1.96003">
        <ele>117.78</ele>
        <time>2017-11-26T10:07:47Z</time>
      </trkpt>
      <trkpt lat="48.52689" lon="1.9598">
        <ele>116.54</ele>
        <time>2017-11-26T10:07:49Z</time>
      </trkpt>
      <trkpt lat="48.52701" lon="1.95962">
        <ele>115.61</ele>
        <time>2017-11-26T10:07:51Z</time>
      </trkpt>
      <trkpt lat="48.52718" lon="1.95962">
        <ele>115.08</ele>
        <time>2017-11-26T10:07:53Z</time>
      </trkpt>
      <trkpt lat="48.52729" lon="1.95956">
        <ele>114.57</ele>
        <time>2017-11-26T10:07:57Z</time>
      </trkpt>
      <trkpt lat="48.52739" lon="1.95936">
        <ele>113.77</ele>
        <time>2017-11-26T10:07:59Z</time>
      </trkpt>
      <trkpt lat="48.52747" lon="1.95928">
        <ele>113.35</ele>
        <time>2017-11-26T10:08:01Z</time>
      </trkpt>
      <trkpt lat="48.52753" lon="1.95917">
        <ele>112.98</ele>
        <time>2017-11-26T10:08:03Z</time>
      </trkpt>
      <trkpt lat="48.52759" lon="1.95911">
        <ele>112.73</ele>
        <time>2017-11-26T10:08:05Z</time>
      </trkpt>
      <trkpt lat="48.52765" lon="1.95908">
        <ele>112.61</ele>
        <time>2017-11-26T10:08:07Z</time>
      </trkpt>
      <trkpt lat="48.52771" lon="1.95907">
        <ele>112.55</ele>
        <time>2017-11-26T10:08:09Z</time>
      </trkpt>
      <trkpt lat="48.52776" lon="1.95896">
        <ele>112.33</ele>
        <time>2017-11-26T10:08:11Z</time>
      </trkpt>
      <trkpt lat="48.52785" lon="1.9589">
        <ele>112.3</ele>
        <time>2017-11-26T10:08:13Z</time>
      </trkpt>
      <trkpt lat="48.52791" lon="1.95885">
        <ele>112.3</ele>
        <time>2017-11-26T10:08:15Z</time>
      </trkpt>
      <trkpt lat="48.52796" lon="1.95887">
        <ele>112.36</ele>
        <time>2017-11-26T10:08:17Z</time>
      </trkpt>
      <trkpt lat="48.52801" lon="1.95887">
        <ele>112.41</ele>
        <time>2017-11-26T10:08:23Z</time>
      </trkpt>
      <trkpt lat="48.52804" lon="1.95879">
        <ele>112.46</ele>
        <time>2017-11-26T10:08:29Z</time>
      </trkpt>
      <trkpt lat="48.52807" lon="1.95871">
        <ele>112.55</ele>
        <time>2017-11-26T10:08:31Z</time>
      </trkpt>
      <trkpt lat="48.5281" lon="1.95863">
        <ele>112.66</ele>
        <time>2017-11-26T10:08:35Z</time>
      </trkpt>
      <trkpt lat="48.5281" lon="1.95855">
        <ele>112.72</ele>
        <time>2017-11-26T10:08:37Z</time>
      </trkpt>
      <trkpt lat="48.5281" lon="1.95847">
        <ele>112.78</ele>
        <time>2017-11-26T10:08:39Z</time>
      </trkpt>
      <trkpt lat="48.5281" lon="1.95838">
        <ele>112.83</ele>
        <time>2017-11-26T10:08:41Z</time>
      </trkpt>
      <trkpt lat="48.52808" lon="1.95829">
        <ele>112.81</ele>
        <time>2017-11-26T10:08:43Z</time>
      </trkpt>
      <trkpt lat="48.52806" lon="1.95817">
        <ele>112.73</ele>
        <time>2017-11-26T10:08:45Z</time>
      </trkpt>
      <trkpt lat="48.52803" lon="1.95805">
        <ele>112.64</ele>
        <time>2017-11-26T10:08:47Z</time>
      </trkpt>
      <trkpt lat="48.52801" lon="1.95793">
        <ele>112.57</ele>
        <time>2017-11-26T10:08:49Z</time>
      </trkpt>
      <trkpt lat="48.52799" lon="1.95783">
        <ele>112.47</ele>
        <time>2017-11-26T10:08:51Z</time>
      </trkpt>
      <trkpt lat="48.52797" lon="1.95773">
        <ele>112.36</ele>
        <time>2017-11-26T10:08:53Z</time>
      </trkpt>
      <trkpt lat="48.52795" lon="1.95764">
        <ele>112.25</ele>
        <time>2017-11-26T10:08:55Z</time>
      </trkpt>
      <trkpt lat="48.52793" lon="1.95754">
        <ele>112.13</ele>
        <time>2017-11-26T10:08:57Z</time>
      </trkpt>
      <trkpt lat="48.52791" lon="1.95745">
        <ele>111.97</ele>
        <time>2017-11-26T10:08:59Z</time>
      </trkpt>
      <trkpt lat="48.52789" lon="1.95736">
        <ele>111.81</ele>
        <time>2017-11-26T10:09:01Z</time>
      </trkpt>
      <trkpt lat="48.52786" lon="1.95728">
        <ele>111.64</ele>
        <time>2017-11-26T10:09:03Z</time>
      </trkpt>
      <trkpt lat="48.52784" lon="1.95718">
        <ele>111.51</ele>
        <time>2017-11-26T10:09:05Z</time>
      </trkpt>
      <trkpt lat="48.52782" lon="1.95709">
        <ele>111.4</ele>
        <time>2017-11-26T10:09:07Z</time>
      </trkpt>
      <trkpt lat="48.52779" lon="1.95699">
        <ele>111.27</ele>
        <time>2017-11-26T10:09:09Z</time>
      </trkpt>
      <trkpt lat="48.52776" lon="1.95689">
        <ele>111.14</ele>
        <time>2017-11-26T10:09:11Z</time>
      </trkpt>
      <trkpt lat="48.52772" lon="1.95678">
        <ele>111</ele>
        <time>2017-11-26T10:09:13Z</time>
      </trkpt>
      <trkpt lat="48.52768" lon="1.95669">
        <ele>110.86</ele>
        <time>2017-11-26T10:09:15Z</time>
      </trkpt>
      <trkpt lat="48.52765" lon="1.95661">
        <ele>110.79</ele>
        <time>2017-11-26T10:09:17Z</time>
      </trkpt>
      <trkpt lat="48.52761" lon="1.95652">
        <ele>110.8</ele>
        <time>2017-11-26T10:09:19Z</time>
      </trkpt>
      <trkpt lat="48.52759" lon="1.95643">
        <ele>110.88</ele>
        <time>2017-11-26T10:09:21Z</time>
      </trkpt>
      <trkpt lat="48.52757" lon="1.95633">
        <ele>111.01</ele>
        <time>2017-11-26T10:09:23Z</time>
      </trkpt>
      <trkpt lat="48.52754" lon="1.95624">
        <ele>111.12</ele>
        <time>2017-11-26T10:09:25Z</time>
      </trkpt>
      <trkpt lat="48.52751" lon="1.95616">
        <ele>111.23</ele>
        <time>2017-11-26T10:09:27Z</time>
      </trkpt>
      <trkpt lat="48.5275" lon="1.95609">
        <ele>111.38</ele>
        <time>2017-11-26T10:09:29Z</time>
      </trkpt>
      <trkpt lat="48.52752" lon="1.95602">
        <ele>111.58</ele>
        <time>2017-11-26T10:09:31Z</time>
      </trkpt>
      <trkpt lat="48.52757" lon="1.95597">
        <ele>111.72</ele>
        <time>2017-11-26T10:09:33Z</time>
      </trkpt>
      <trkpt lat="48.52762" lon="1.95601">
        <ele>111.7</ele>
        <time>2017-11-26T10:09:41Z</time>
      </trkpt>
      <trkpt lat="48.5277" lon="1.95595">
        <ele>111.86</ele>
        <time>2017-11-26T10:09:45Z</time>
      </trkpt>
      <trkpt lat="48.52775" lon="1.9559">
        <ele>111.94</ele>
        <time>2017-11-26T10:09:47Z</time>
      </trkpt>
      <trkpt lat="48.52781" lon="1.95586">
        <ele>111.98</ele>
        <time>2017-11-26T10:09:49Z</time>
      </trkpt>
      <trkpt lat="48.52785" lon="1.95582">
        <ele>111.99</ele>
        <time>2017-11-26T10:09:51Z</time>
      </trkpt>
      <trkpt lat="48.52791" lon="1.95576">
        <ele>111.92</ele>
        <time>2017-11-26T10:09:53Z</time>
      </trkpt>
      <trkpt lat="48.52796" lon="1.95571">
        <ele>111.85</ele>
        <time>2017-11-26T10:09:55Z</time>
      </trkpt>
      <trkpt lat="48.52801" lon="1.95565">
        <ele>111.79</ele>
        <time>2017-11-26T10:09:57Z</time>
      </trkpt>
      <trkpt lat="48.52807" lon="1.95561">
        <ele>111.73</ele>
        <time>2017-11-26T10:09:59Z</time>
      </trkpt>
      <trkpt lat="48.52812" lon="1.95556">
        <ele>111.67</ele>
        <time>2017-11-26T10:10:01Z</time>
      </trkpt>
      <trkpt lat="48.52817" lon="1.95551">
        <ele>111.61</ele>
        <time>2017-11-26T10:10:03Z</time>
      </trkpt>
      <trkpt lat="48.52823" lon="1.95548">
        <ele>111.57</ele>
        <time>2017-11-26T10:10:05Z</time>
      </trkpt>
      <trkpt lat="48.52828" lon="1.95546">
        <ele>111.55</ele>
        <time>2017-11-26T10:10:07Z</time>
      </trkpt>
      <trkpt lat="48.52834" lon="1.95546">
        <ele>111.54</ele>
        <time>2017-11-26T10:10:09Z</time>
      </trkpt>
      <trkpt lat="48.52839" lon="1.95546">
        <ele>111.44</ele>
        <time>2017-11-26T10:10:11Z</time>
      </trkpt>
      <trkpt lat="48.52846" lon="1.95544">
        <ele>111.3</ele>
        <time>2017-11-26T10:10:13Z</time>
      </trkpt>
      <trkpt lat="48.52851" lon="1.95542">
        <ele>111.18</ele>
        <time>2017-11-26T10:10:15Z</time>
      </trkpt>
      <trkpt lat="48.52857" lon="1.95539">
        <ele>111.05</ele>
        <time>2017-11-26T10:10:17Z</time>
      </trkpt>
      <trkpt lat="48.52863" lon="1.95536">
        <ele>110.92</ele>
        <time>2017-11-26T10:10:19Z</time>
      </trkpt>
      <trkpt lat="48.5287" lon="1.95534">
        <ele>110.79</ele>
        <time>2017-11-26T10:10:21Z</time>
      </trkpt>
      <trkpt lat="48.52876" lon="1.95533">
        <ele>110.68</ele>
        <time>2017-11-26T10:10:23Z</time>
      </trkpt>
      <trkpt lat="48.52882" lon="1.9553">
        <ele>110.56</ele>
        <time>2017-11-26T10:10:25Z</time>
      </trkpt>
      <trkpt lat="48.52887" lon="1.95528">
        <ele>110.48</ele>
        <time>2017-11-26T10:10:41Z</time>
      </trkpt>
      <trkpt lat="48.52892" lon="1.95524">
        <ele>110.38</ele>
        <time>2017-11-26T10:10:49Z</time>
      </trkpt>
      <trkpt lat="48.52897" lon="1.9552">
        <ele>110.29</ele>
        <time>2017-11-26T10:10:55Z</time>
      </trkpt>
      <trkpt lat="48.52902" lon="1.95517">
        <ele>110.21</ele>
        <time>2017-11-26T10:11:01Z</time>
      </trkpt>
      <trkpt lat="48.52912" lon="1.95506">
        <ele>110.06</ele>
        <time>2017-11-26T10:11:34Z</time>
      </trkpt>
      <trkpt lat="48.52917" lon="1.955">
        <ele>110.02</ele>
        <time>2017-11-26T10:11:36Z</time>
      </trkpt>
      <trkpt lat="48.52918" lon="1.9549">
        <ele>110.44</ele>
        <time>2017-11-26T10:11:38Z</time>
      </trkpt>
      <trkpt lat="48.52916" lon="1.9548">
        <ele>110.72</ele>
        <time>2017-11-26T10:11:40Z</time>
      </trkpt>
      <trkpt lat="48.52914" lon="1.95471">
        <ele>111.05</ele>
        <time>2017-11-26T10:11:42Z</time>
      </trkpt>
      <trkpt lat="48.52911" lon="1.95461">
        <ele>111.33</ele>
        <time>2017-11-26T10:11:44Z</time>
      </trkpt>
      <trkpt lat="48.52909" lon="1.95452">
        <ele>111.61</ele>
        <time>2017-11-26T10:11:46Z</time>
      </trkpt>
      <trkpt lat="48.52906" lon="1.95442">
        <ele>111.85</ele>
        <time>2017-11-26T10:11:48Z</time>
      </trkpt>
      <trkpt lat="48.52903" lon="1.95433">
        <ele>112.05</ele>
        <time>2017-11-26T10:11:50Z</time>
      </trkpt>
      <trkpt lat="48.52899" lon="1.95423">
        <ele>112.2</ele>
        <time>2017-11-26T10:11:52Z</time>
      </trkpt>
      <trkpt lat="48.52896" lon="1.95413">
        <ele>112.37</ele>
        <time>2017-11-26T10:11:54Z</time>
      </trkpt>
      <trkpt lat="48.52893" lon="1.95403">
        <ele>112.59</ele>
        <time>2017-11-26T10:11:56Z</time>
      </trkpt>
      <trkpt lat="48.5289" lon="1.95392">
        <ele>112.81</ele>
        <time>2017-11-26T10:11:58Z</time>
      </trkpt>
      <trkpt lat="48.52886" lon="1.95382">
        <ele>113.01</ele>
        <time>2017-11-26T10:12:00Z</time>
      </trkpt>
      <trkpt lat="48.52883" lon="1.95371">
        <ele>113.21</ele>
        <time>2017-11-26T10:12:02Z</time>
      </trkpt>
      <trkpt lat="48.5288" lon="1.95361">
        <ele>113.37</ele>
        <time>2017-11-26T10:12:04Z</time>
      </trkpt>
      <trkpt lat="48.52876" lon="1.95352">
        <ele>113.5</ele>
        <time>2017-11-26T10:12:06Z</time>
      </trkpt>
      <trkpt lat="48.52873" lon="1.95343">
        <ele>113.6</ele>
        <time>2017-11-26T10:12:08Z</time>
      </trkpt>
      <trkpt lat="48.52869" lon="1.95333">
        <ele>113.72</ele>
        <time>2017-11-26T10:12:10Z</time>
      </trkpt>
      <trkpt lat="48.52866" lon="1.95323">
        <ele>113.87</ele>
        <time>2017-11-26T10:12:12Z</time>
      </trkpt>
      <trkpt lat="48.52864" lon="1.95313">
        <ele>114.11</ele>
        <time>2017-11-26T10:12:14Z</time>
      </trkpt>
      <trkpt lat="48.52862" lon="1.95303">
        <ele>114.33</ele>
        <time>2017-11-26T10:12:16Z</time>
      </trkpt>
      <trkpt lat="48.5287" lon="1.95295">
        <ele>114.93</ele>
        <time>2017-11-26T10:12:18Z</time>
      </trkpt>
      <trkpt lat="48.52877" lon="1.95293">
        <ele>115.3</ele>
        <time>2017-11-26T10:12:20Z</time>
      </trkpt>
      <trkpt lat="48.52884" lon="1.95293">
        <ele>115.6</ele>
        <time>2017-11-26T10:12:22Z</time>
      </trkpt>
      <trkpt lat="48.52891" lon="1.95293">
        <ele>115.9</ele>
        <time>2017-11-26T10:12:24Z</time>
      </trkpt>
      <trkpt lat="48.52897" lon="1.95293">
        <ele>116.17</ele>
        <time>2017-11-26T10:12:26Z</time>
      </trkpt>
      <trkpt lat="48.52904" lon="1.95292">
        <ele>116.43</ele>
        <time>2017-11-26T10:12:28Z</time>
      </trkpt>
      <trkpt lat="48.5291" lon="1.95293">
        <ele>116.69</ele>
        <time>2017-11-26T10:12:30Z</time>
      </trkpt>
      <trkpt lat="48.52916" lon="1.95293">
        <ele>116.94</ele>
        <time>2017-11-26T10:12:32Z</time>
      </trkpt>
      <trkpt lat="48.52922" lon="1.95294">
        <ele>117.3</ele>
        <time>2017-11-26T10:12:34Z</time>
      </trkpt>
      <trkpt lat="48.52928" lon="1.95295">
        <ele>117.65</ele>
        <time>2017-11-26T10:12:36Z</time>
      </trkpt>
      <trkpt lat="48.52933" lon="1.95296">
        <ele>117.98</ele>
        <time>2017-11-26T10:12:38Z</time>
      </trkpt>
      <trkpt lat="48.52939" lon="1.95297">
        <ele>118.3</ele>
        <time>2017-11-26T10:12:40Z</time>
      </trkpt>
      <trkpt lat="48.52945" lon="1.95298">
        <ele>118.66</ele>
        <time>2017-11-26T10:12:42Z</time>
      </trkpt>
      <trkpt lat="48.52951" lon="1.95298">
        <ele>119.03</ele>
        <time>2017-11-26T10:12:44Z</time>
      </trkpt>
      <trkpt lat="48.52957" lon="1.95298">
        <ele>119.38</ele>
        <time>2017-11-26T10:12:46Z</time>
      </trkpt>
      <trkpt lat="48.52962" lon="1.95298">
        <ele>119.72</ele>
        <time>2017-11-26T10:12:48Z</time>
      </trkpt>
      <trkpt lat="48.52968" lon="1.95298">
        <ele>120.06</ele>
        <time>2017-11-26T10:12:50Z</time>
      </trkpt>
      <trkpt lat="48.52973" lon="1.95298">
        <ele>120.42</ele>
        <time>2017-11-26T10:12:52Z</time>
      </trkpt>
      <trkpt lat="48.52978" lon="1.95298">
        <ele>120.76</ele>
        <time>2017-11-26T10:12:54Z</time>
      </trkpt>
      <trkpt lat="48.52983" lon="1.95298">
        <ele>121.05</ele>
        <time>2017-11-26T10:12:56Z</time>
      </trkpt>
      <trkpt lat="48.52988" lon="1.95299">
        <ele>121.35</ele>
        <time>2017-11-26T10:12:58Z</time>
      </trkpt>
      <trkpt lat="48.52993" lon="1.95299">
        <ele>121.66</ele>
        <time>2017-11-26T10:13:00Z</time>
      </trkpt>
      <trkpt lat="48.52998" lon="1.95298">
        <ele>121.99</ele>
        <time>2017-11-26T10:13:02Z</time>
      </trkpt>
      <trkpt lat="48.53003" lon="1.95299">
        <ele>122.3</ele>
        <time>2017-11-26T10:13:04Z</time>
      </trkpt>
      <trkpt lat="48.53008" lon="1.95299">
        <ele>122.61</ele>
        <time>2017-11-26T10:13:06Z</time>
      </trkpt>
      <trkpt lat="48.53016" lon="1.95298">
        <ele>123.27</ele>
        <time>2017-11-26T10:13:10Z</time>
      </trkpt>
      <trkpt lat="48.53024" lon="1.95294">
        <ele>123.98</ele>
        <time>2017-11-26T10:13:14Z</time>
      </trkpt>
      <trkpt lat="48.53032" lon="1.95292">
        <ele>124.63</ele>
        <time>2017-11-26T10:13:18Z</time>
      </trkpt>
      <trkpt lat="48.5304" lon="1.95287">
        <ele>125.35</ele>
        <time>2017-11-26T10:13:22Z</time>
      </trkpt>
      <trkpt lat="48.53044" lon="1.95284">
        <ele>125.74</ele>
        <time>2017-11-26T10:13:24Z</time>
      </trkpt>
      <trkpt lat="48.53052" lon="1.95278">
        <ele>126.45</ele>
        <time>2017-11-26T10:13:28Z</time>
      </trkpt>
      <trkpt lat="48.5306" lon="1.95274">
        <ele>127.07</ele>
        <time>2017-11-26T10:13:32Z</time>
      </trkpt>
      <trkpt lat="48.53068" lon="1.95271">
        <ele>127.66</ele>
        <time>2017-11-26T10:13:36Z</time>
      </trkpt>
      <trkpt lat="48.53077" lon="1.95267">
        <ele>128.22</ele>
        <time>2017-11-26T10:13:40Z</time>
      </trkpt>
      <trkpt lat="48.53085" lon="1.95264">
        <ele>128.66</ele>
        <time>2017-11-26T10:13:44Z</time>
      </trkpt>
      <trkpt lat="48.53092" lon="1.95262">
        <ele>128.71</ele>
        <time>2017-11-26T10:13:48Z</time>
      </trkpt>
      <trkpt lat="48.53097" lon="1.9526">
        <ele>128.76</ele>
        <time>2017-11-26T10:13:50Z</time>
      </trkpt>
      <trkpt lat="48.53101" lon="1.95258">
        <ele>128.81</ele>
        <time>2017-11-26T10:13:52Z</time>
      </trkpt>
      <trkpt lat="48.53109" lon="1.95252">
        <ele>128.96</ele>
        <time>2017-11-26T10:13:56Z</time>
      </trkpt>
      <trkpt lat="48.53116" lon="1.95244">
        <ele>129.21</ele>
        <time>2017-11-26T10:14:00Z</time>
      </trkpt>
      <trkpt lat="48.53123" lon="1.95236">
        <ele>129.43</ele>
        <time>2017-11-26T10:14:04Z</time>
      </trkpt>
      <trkpt lat="48.53129" lon="1.95228">
        <ele>129.62</ele>
        <time>2017-11-26T10:14:08Z</time>
      </trkpt>
      <trkpt lat="48.53135" lon="1.9522">
        <ele>129.77</ele>
        <time>2017-11-26T10:14:12Z</time>
      </trkpt>
      <trkpt lat="48.53141" lon="1.95211">
        <ele>129.91</ele>
        <time>2017-11-26T10:14:16Z</time>
      </trkpt>
      <trkpt lat="48.53144" lon="1.95206">
        <ele>129.96</ele>
        <time>2017-11-26T10:14:18Z</time>
      </trkpt>
      <trkpt lat="48.53148" lon="1.95201">
        <ele>130</ele>
        <time>2017-11-26T10:14:20Z</time>
      </trkpt>
      <trkpt lat="48.53151" lon="1.95196">
        <ele>130.01</ele>
        <time>2017-11-26T10:14:22Z</time>
      </trkpt>
      <trkpt lat="48.53155" lon="1.95191">
        <ele>130.01</ele>
        <time>2017-11-26T10:14:24Z</time>
      </trkpt>
      <trkpt lat="48.53159" lon="1.95186">
        <ele>129.99</ele>
        <time>2017-11-26T10:14:26Z</time>
      </trkpt>
      <trkpt lat="48.53163" lon="1.9518">
        <ele>129.96</ele>
        <time>2017-11-26T10:14:28Z</time>
      </trkpt>
      <trkpt lat="48.53169" lon="1.95171">
        <ele>129.92</ele>
        <time>2017-11-26T10:14:30Z</time>
      </trkpt>
      <trkpt lat="48.53175" lon="1.95162">
        <ele>130.04</ele>
        <time>2017-11-26T10:14:32Z</time>
      </trkpt>
      <trkpt lat="48.5318" lon="1.95155">
        <ele>130.19</ele>
        <time>2017-11-26T10:14:34Z</time>
      </trkpt>
      <trkpt lat="48.53185" lon="1.95147">
        <ele>130.31</ele>
        <time>2017-11-26T10:14:36Z</time>
      </trkpt>
      <trkpt lat="48.53191" lon="1.95141">
        <ele>130.38</ele>
        <time>2017-11-26T10:14:38Z</time>
      </trkpt>
      <trkpt lat="48.53196" lon="1.95133">
        <ele>130.44</ele>
        <time>2017-11-26T10:14:40Z</time>
      </trkpt>
      <trkpt lat="48.53201" lon="1.95126">
        <ele>130.47</ele>
        <time>2017-11-26T10:14:42Z</time>
      </trkpt>
      <trkpt lat="48.53205" lon="1.95118">
        <ele>130.47</ele>
        <time>2017-11-26T10:14:44Z</time>
      </trkpt>
      <trkpt lat="48.5321" lon="1.95111">
        <ele>130.43</ele>
        <time>2017-11-26T10:14:46Z</time>
      </trkpt>
      <trkpt lat="48.53215" lon="1.95104">
        <ele>130.36</ele>
        <time>2017-11-26T10:14:48Z</time>
      </trkpt>
      <trkpt lat="48.53221" lon="1.95096">
        <ele>130.25</ele>
        <time>2017-11-26T10:14:50Z</time>
      </trkpt>
      <trkpt lat="48.53226" lon="1.95089">
        <ele>130.1</ele>
        <time>2017-11-26T10:14:52Z</time>
      </trkpt>
      <trkpt lat="48.53231" lon="1.9508">
        <ele>129.98</ele>
        <time>2017-11-26T10:14:54Z</time>
      </trkpt>
      <trkpt lat="48.53236" lon="1.95072">
        <ele>129.94</ele>
        <time>2017-11-26T10:14:56Z</time>
      </trkpt>
      <trkpt lat="48.53242" lon="1.95063">
        <ele>129.9</ele>
        <time>2017-11-26T10:14:58Z</time>
      </trkpt>
      <trkpt lat="48.53247" lon="1.95053">
        <ele>129.9</ele>
        <time>2017-11-26T10:15:00Z</time>
      </trkpt>
      <trkpt lat="48.53251" lon="1.95043">
        <ele>129.9</ele>
        <time>2017-11-26T10:15:02Z</time>
      </trkpt>
      <trkpt lat="48.53256" lon="1.95033">
        <ele>129.91</ele>
        <time>2017-11-26T10:15:04Z</time>
      </trkpt>
      <trkpt lat="48.53261" lon="1.95023">
        <ele>129.93</ele>
        <time>2017-11-26T10:15:06Z</time>
      </trkpt>
      <trkpt lat="48.53265" lon="1.95013">
        <ele>129.96</ele>
        <time>2017-11-26T10:15:08Z</time>
      </trkpt>
      <trkpt lat="48.5327" lon="1.95003">
        <ele>129.99</ele>
        <time>2017-11-26T10:15:10Z</time>
      </trkpt>
      <trkpt lat="48.53275" lon="1.94992">
        <ele>130.03</ele>
        <time>2017-11-26T10:15:12Z</time>
      </trkpt>
      <trkpt lat="48.5328" lon="1.94982">
        <ele>130.06</ele>
        <time>2017-11-26T10:15:14Z</time>
      </trkpt>
      <trkpt lat="48.53285" lon="1.94972">
        <ele>130.12</ele>
        <time>2017-11-26T10:15:16Z</time>
      </trkpt>
      <trkpt lat="48.5329" lon="1.94963">
        <ele>130.18</ele>
        <time>2017-11-26T10:15:18Z</time>
      </trkpt>
      <trkpt lat="48.53294" lon="1.94954">
        <ele>130.27</ele>
        <time>2017-11-26T10:15:20Z</time>
      </trkpt>
      <trkpt lat="48.53299" lon="1.94945">
        <ele>130.37</ele>
        <time>2017-11-26T10:15:22Z</time>
      </trkpt>
      <trkpt lat="48.53303" lon="1.94935">
        <ele>130.5</ele>
        <time>2017-11-26T10:15:24Z</time>
      </trkpt>
      <trkpt lat="48.53308" lon="1.94925">
        <ele>130.66</ele>
        <time>2017-11-26T10:15:26Z</time>
      </trkpt>
      <trkpt lat="48.53311" lon="1.94915">
        <ele>130.82</ele>
        <time>2017-11-26T10:15:28Z</time>
      </trkpt>
      <trkpt lat="48.53315" lon="1.94906">
        <ele>130.92</ele>
        <time>2017-11-26T10:15:30Z</time>
      </trkpt>
      <trkpt lat="48.53318" lon="1.94896">
        <ele>131.04</ele>
        <time>2017-11-26T10:15:32Z</time>
      </trkpt>
      <trkpt lat="48.53322" lon="1.94887">
        <ele>131.13</ele>
        <time>2017-11-26T10:15:34Z</time>
      </trkpt>
      <trkpt lat="48.53326" lon="1.94878">
        <ele>131.2</ele>
        <time>2017-11-26T10:15:36Z</time>
      </trkpt>
      <trkpt lat="48.5333" lon="1.9487">
        <ele>131.25</ele>
        <time>2017-11-26T10:15:38Z</time>
      </trkpt>
      <trkpt lat="48.53334" lon="1.94863">
        <ele>131.28</ele>
        <time>2017-11-26T10:15:40Z</time>
      </trkpt>
      <trkpt lat="48.53338" lon="1.94856">
        <ele>131.32</ele>
        <time>2017-11-26T10:15:42Z</time>
      </trkpt>
      <trkpt lat="48.53342" lon="1.9485">
        <ele>131.37</ele>
        <time>2017-11-26T10:15:44Z</time>
      </trkpt>
      <trkpt lat="48.53348" lon="1.94842">
        <ele>131.41</ele>
        <time>2017-11-26T10:15:48Z</time>
      </trkpt>
      <trkpt lat="48.53352" lon="1.94837">
        <ele>131.43</ele>
        <time>2017-11-26T10:15:50Z</time>
      </trkpt>
      <trkpt lat="48.53356" lon="1.94833">
        <ele>131.46</ele>
        <time>2017-11-26T10:15:52Z</time>
      </trkpt>
      <trkpt lat="48.5336" lon="1.94829">
        <ele>131.47</ele>
        <time>2017-11-26T10:15:54Z</time>
      </trkpt>
      <trkpt lat="48.53367" lon="1.94822">
        <ele>131.52</ele>
        <time>2017-11-26T10:15:58Z</time>
      </trkpt>
      <trkpt lat="48.53371" lon="1.94818">
        <ele>131.54</ele>
        <time>2017-11-26T10:16:00Z</time>
      </trkpt>
      <trkpt lat="48.53379" lon="1.94811">
        <ele>131.6</ele>
        <time>2017-11-26T10:16:04Z</time>
      </trkpt>
      <trkpt lat="48.53383" lon="1.94807">
        <ele>131.63</ele>
        <time>2017-11-26T10:16:06Z</time>
      </trkpt>
      <trkpt lat="48.53387" lon="1.94804">
        <ele>131.65</ele>
        <time>2017-11-26T10:16:08Z</time>
      </trkpt>
      <trkpt lat="48.53391" lon="1.948">
        <ele>131.7</ele>
        <time>2017-11-26T10:16:10Z</time>
      </trkpt>
      <trkpt lat="48.53395" lon="1.94796">
        <ele>131.75</ele>
        <time>2017-11-26T10:16:12Z</time>
      </trkpt>
      <trkpt lat="48.53399" lon="1.94792">
        <ele>131.82</ele>
        <time>2017-11-26T10:16:14Z</time>
      </trkpt>
      <trkpt lat="48.53403" lon="1.94788">
        <ele>131.89</ele>
        <time>2017-11-26T10:16:16Z</time>
      </trkpt>
      <trkpt lat="48.53407" lon="1.94783">
        <ele>131.97</ele>
        <time>2017-11-26T10:16:18Z</time>
      </trkpt>
      <trkpt lat="48.53411" lon="1.94779">
        <ele>132.06</ele>
        <time>2017-11-26T10:16:20Z</time>
      </trkpt>
      <trkpt lat="48.53415" lon="1.94774">
        <ele>132.17</ele>
        <time>2017-11-26T10:16:22Z</time>
      </trkpt>
      <trkpt lat="48.53419" lon="1.94768">
        <ele>132.25</ele>
        <time>2017-11-26T10:16:24Z</time>
      </trkpt>
      <trkpt lat="48.53424" lon="1.94764">
        <ele>132.26</ele>
        <time>2017-11-26T10:16:26Z</time>
      </trkpt>
      <trkpt lat="48.53429" lon="1.94759">
        <ele>132.25</ele>
        <time>2017-11-26T10:16:28Z</time>
      </trkpt>
      <trkpt lat="48.53433" lon="1.94755">
        <ele>132.24</ele>
        <time>2017-11-26T10:16:30Z</time>
      </trkpt>
      <trkpt lat="48.53437" lon="1.94751">
        <ele>132.23</ele>
        <time>2017-11-26T10:16:32Z</time>
      </trkpt>
      <trkpt lat="48.53441" lon="1.94747">
        <ele>132.23</ele>
        <time>2017-11-26T10:16:34Z</time>
      </trkpt>
      <trkpt lat="48.53445" lon="1.94744">
        <ele>132.22</ele>
        <time>2017-11-26T10:16:36Z</time>
      </trkpt>
      <trkpt lat="48.5345" lon="1.9474">
        <ele>132.2</ele>
        <time>2017-11-26T10:16:38Z</time>
      </trkpt>
      <trkpt lat="48.53459" lon="1.94733">
        <ele>132.21</ele>
        <time>2017-11-26T10:16:42Z</time>
      </trkpt>
      <trkpt lat="48.53464" lon="1.94728">
        <ele>132.22</ele>
        <time>2017-11-26T10:16:44Z</time>
      </trkpt>
      <trkpt lat="48.53469" lon="1.94724">
        <ele>132.23</ele>
        <time>2017-11-26T10:16:46Z</time>
      </trkpt>
      <trkpt lat="48.53475" lon="1.9472">
        <ele>132.22</ele>
        <time>2017-11-26T10:16:48Z</time>
      </trkpt>
      <trkpt lat="48.5348" lon="1.94717">
        <ele>132.18</ele>
        <time>2017-11-26T10:16:50Z</time>
      </trkpt>
      <trkpt lat="48.53491" lon="1.9471">
        <ele>132.16</ele>
        <time>2017-11-26T10:16:54Z</time>
      </trkpt>
      <trkpt lat="48.53497" lon="1.94706">
        <ele>132.21</ele>
        <time>2017-11-26T10:16:56Z</time>
      </trkpt>
      <trkpt lat="48.53502" lon="1.94701">
        <ele>132.18</ele>
        <time>2017-11-26T10:16:58Z</time>
      </trkpt>
      <trkpt lat="48.53508" lon="1.94697">
        <ele>131.94</ele>
        <time>2017-11-26T10:17:00Z</time>
      </trkpt>
      <trkpt lat="48.53514" lon="1.94693">
        <ele>131.68</ele>
        <time>2017-11-26T10:17:02Z</time>
      </trkpt>
      <trkpt lat="48.53525" lon="1.94683">
        <ele>131.19</ele>
        <time>2017-11-26T10:17:06Z</time>
      </trkpt>
      <trkpt lat="48.53531" lon="1.94677">
        <ele>131</ele>
        <time>2017-11-26T10:17:08Z</time>
      </trkpt>
      <trkpt lat="48.53536" lon="1.94671">
        <ele>130.81</ele>
        <time>2017-11-26T10:17:10Z</time>
      </trkpt>
      <trkpt lat="48.53542" lon="1.94664">
        <ele>130.77</ele>
        <time>2017-11-26T10:17:12Z</time>
      </trkpt>
      <trkpt lat="48.53548" lon="1.94654">
        <ele>131.03</ele>
        <time>2017-11-26T10:17:14Z</time>
      </trkpt>
      <trkpt lat="48.53563" lon="1.94632">
        <ele>131.81</ele>
        <time>2017-11-26T10:17:18Z</time>
      </trkpt>
      <trkpt lat="48.53568" lon="1.94624">
        <ele>132.14</ele>
        <time>2017-11-26T10:17:20Z</time>
      </trkpt>
      <trkpt lat="48.53573" lon="1.94616">
        <ele>132.61</ele>
        <time>2017-11-26T10:17:22Z</time>
      </trkpt>
      <trkpt lat="48.5358" lon="1.94606">
        <ele>133.05</ele>
        <time>2017-11-26T10:17:24Z</time>
      </trkpt>
      <trkpt lat="48.53588" lon="1.94594">
        <ele>133.29</ele>
        <time>2017-11-26T10:17:26Z</time>
      </trkpt>
      <trkpt lat="48.53599" lon="1.94567">
        <ele>133.22</ele>
        <time>2017-11-26T10:17:30Z</time>
      </trkpt>
      <trkpt lat="48.53607" lon="1.9455">
        <ele>132.67</ele>
        <time>2017-11-26T10:17:32Z</time>
      </trkpt>
      <trkpt lat="48.53614" lon="1.94544">
        <ele>131.67</ele>
        <time>2017-11-26T10:17:34Z</time>
      </trkpt>
      <trkpt lat="48.53621" lon="1.94526">
        <ele>131.19</ele>
        <time>2017-11-26T10:17:36Z</time>
      </trkpt>
      <trkpt lat="48.53627" lon="1.94515">
        <ele>130.59</ele>
        <time>2017-11-26T10:17:38Z</time>
      </trkpt>
      <trkpt lat="48.53642" lon="1.94497">
        <ele>128.41</ele>
        <time>2017-11-26T10:17:42Z</time>
      </trkpt>
      <trkpt lat="48.53647" lon="1.94487">
        <ele>127.64</ele>
        <time>2017-11-26T10:17:44Z</time>
      </trkpt>
      <trkpt lat="48.53653" lon="1.9448">
        <ele>126.74</ele>
        <time>2017-11-26T10:17:46Z</time>
      </trkpt>
      <trkpt lat="48.53659" lon="1.94468">
        <ele>125.92</ele>
        <time>2017-11-26T10:17:48Z</time>
      </trkpt>
      <trkpt lat="48.53666" lon="1.94459">
        <ele>125.14</ele>
        <time>2017-11-26T10:17:50Z</time>
      </trkpt>
      <trkpt lat="48.53679" lon="1.94439">
        <ele>124.92</ele>
        <time>2017-11-26T10:17:54Z</time>
      </trkpt>
      <trkpt lat="48.53686" lon="1.94429">
        <ele>124.8</ele>
        <time>2017-11-26T10:17:56Z</time>
      </trkpt>
      <trkpt lat="48.53693" lon="1.94419">
        <ele>124.68</ele>
        <time>2017-11-26T10:17:58Z</time>
      </trkpt>
      <trkpt lat="48.53699" lon="1.94412">
        <ele>124.58</ele>
        <time>2017-11-26T10:18:00Z</time>
      </trkpt>
      <trkpt lat="48.53704" lon="1.94405">
        <ele>124.55</ele>
        <time>2017-11-26T10:18:02Z</time>
      </trkpt>
      <trkpt lat="48.53714" lon="1.9439">
        <ele>124.54</ele>
        <time>2017-11-26T10:18:06Z</time>
      </trkpt>
      <trkpt lat="48.5372" lon="1.94382">
        <ele>124.56</ele>
        <time>2017-11-26T10:18:08Z</time>
      </trkpt>
      <trkpt lat="48.53725" lon="1.94372">
        <ele>124.61</ele>
        <time>2017-11-26T10:18:10Z</time>
      </trkpt>
      <trkpt lat="48.53732" lon="1.94364">
        <ele>124.64</ele>
        <time>2017-11-26T10:18:12Z</time>
      </trkpt>
      <trkpt lat="48.53736" lon="1.94355">
        <ele>124.78</ele>
        <time>2017-11-26T10:18:14Z</time>
      </trkpt>
      <trkpt lat="48.5374" lon="1.94349">
        <ele>124.81</ele>
        <time>2017-11-26T10:18:15Z</time>
      </trkpt>
      <trkpt lat="48.53746" lon="1.9434">
        <ele>124.9</ele>
        <time>2017-11-26T10:18:18Z</time>
      </trkpt>
      <trkpt lat="48.53751" lon="1.94331">
        <ele>124.98</ele>
        <time>2017-11-26T10:18:20Z</time>
      </trkpt>
      <trkpt lat="48.53756" lon="1.94322">
        <ele>124.95</ele>
        <time>2017-11-26T10:18:22Z</time>
      </trkpt>
      <trkpt lat="48.53761" lon="1.94312">
        <ele>124.94</ele>
        <time>2017-11-26T10:18:24Z</time>
      </trkpt>
      <trkpt lat="48.53765" lon="1.94301">
        <ele>124.96</ele>
        <time>2017-11-26T10:18:26Z</time>
      </trkpt>
      <trkpt lat="48.53768" lon="1.94294">
        <ele>124.99</ele>
        <time>2017-11-26T10:18:27Z</time>
      </trkpt>
      <trkpt lat="48.53773" lon="1.94286">
        <ele>125.04</ele>
        <time>2017-11-26T10:18:30Z</time>
      </trkpt>
      <trkpt lat="48.53778" lon="1.94277">
        <ele>125.12</ele>
        <time>2017-11-26T10:18:32Z</time>
      </trkpt>
      <trkpt lat="48.53782" lon="1.9427">
        <ele>125.21</ele>
        <time>2017-11-26T10:18:34Z</time>
      </trkpt>
      <trkpt lat="48.53788" lon="1.94262">
        <ele>125.32</ele>
        <time>2017-11-26T10:18:36Z</time>
      </trkpt>
      <trkpt lat="48.53793" lon="1.94254">
        <ele>125.47</ele>
        <time>2017-11-26T10:18:38Z</time>
      </trkpt>
      <trkpt lat="48.53798" lon="1.94249">
        <ele>125.57</ele>
        <time>2017-11-26T10:18:39Z</time>
      </trkpt>
      <trkpt lat="48.53804" lon="1.94243">
        <ele>125.52</ele>
        <time>2017-11-26T10:18:42Z</time>
      </trkpt>
      <trkpt lat="48.53811" lon="1.94237">
        <ele>125.46</ele>
        <time>2017-11-26T10:18:44Z</time>
      </trkpt>
      <trkpt lat="48.53816" lon="1.94232">
        <ele>125.41</ele>
        <time>2017-11-26T10:18:46Z</time>
      </trkpt>
      <trkpt lat="48.53823" lon="1.94228">
        <ele>125.37</ele>
        <time>2017-11-26T10:18:48Z</time>
      </trkpt>
      <trkpt lat="48.53828" lon="1.94223">
        <ele>125.32</ele>
        <time>2017-11-26T10:18:50Z</time>
      </trkpt>
      <trkpt lat="48.53832" lon="1.94218">
        <ele>125.23</ele>
        <time>2017-11-26T10:18:51Z</time>
      </trkpt>
      <trkpt lat="48.53839" lon="1.94212">
        <ele>125.59</ele>
        <time>2017-11-26T10:18:54Z</time>
      </trkpt>
      <trkpt lat="48.53845" lon="1.94209">
        <ele>125.97</ele>
        <time>2017-11-26T10:18:56Z</time>
      </trkpt>
      <trkpt lat="48.53851" lon="1.94206">
        <ele>126.42</ele>
        <time>2017-11-26T10:18:58Z</time>
      </trkpt>
      <trkpt lat="48.53858" lon="1.94202">
        <ele>126.86</ele>
        <time>2017-11-26T10:19:00Z</time>
      </trkpt>
      <trkpt lat="48.53865" lon="1.94198">
        <ele>127.28</ele>
        <time>2017-11-26T10:19:02Z</time>
      </trkpt>
      <trkpt lat="48.5387" lon="1.94194">
        <ele>127.59</ele>
        <time>2017-11-26T10:19:03Z</time>
      </trkpt>
      <trkpt lat="48.53876" lon="1.94189">
        <ele>127.9</ele>
        <time>2017-11-26T10:19:06Z</time>
      </trkpt>
      <trkpt lat="48.53881" lon="1.94184">
        <ele>128.06</ele>
        <time>2017-11-26T10:19:08Z</time>
      </trkpt>
      <trkpt lat="48.53885" lon="1.94182">
        <ele>128.36</ele>
        <time>2017-11-26T10:19:10Z</time>
      </trkpt>
      <trkpt lat="48.5389" lon="1.94178">
        <ele>128.59</ele>
        <time>2017-11-26T10:19:12Z</time>
      </trkpt>
      <trkpt lat="48.53895" lon="1.94177">
        <ele>128.92</ele>
        <time>2017-11-26T10:19:14Z</time>
      </trkpt>
      <trkpt lat="48.53901" lon="1.94173">
        <ele>129.17</ele>
        <time>2017-11-26T10:19:15Z</time>
      </trkpt>
      <trkpt lat="48.53908" lon="1.94168">
        <ele>129.41</ele>
        <time>2017-11-26T10:19:20Z</time>
      </trkpt>
      <trkpt lat="48.53914" lon="1.94172">
        <ele>130.03</ele>
        <time>2017-11-26T10:19:22Z</time>
      </trkpt>
      <trkpt lat="48.53919" lon="1.94169">
        <ele>130.47</ele>
        <time>2017-11-26T10:19:24Z</time>
      </trkpt>
      <trkpt lat="48.53924" lon="1.94165">
        <ele>130.88</ele>
        <time>2017-11-26T10:19:26Z</time>
      </trkpt>
      <trkpt lat="48.5393" lon="1.94161">
        <ele>131.43</ele>
        <time>2017-11-26T10:19:27Z</time>
      </trkpt>
      <trkpt lat="48.53935" lon="1.94151">
        <ele>131.41</ele>
        <time>2017-11-26T10:19:30Z</time>
      </trkpt>
      <trkpt lat="48.53939" lon="1.94141">
        <ele>131.06</ele>
        <time>2017-11-26T10:19:32Z</time>
      </trkpt>
      <trkpt lat="48.53943" lon="1.94132">
        <ele>130.92</ele>
        <time>2017-11-26T10:19:34Z</time>
      </trkpt>
      <trkpt lat="48.53947" lon="1.94122">
        <ele>130.59</ele>
        <time>2017-11-26T10:19:36Z</time>
      </trkpt>
      <trkpt lat="48.53949" lon="1.9411">
        <ele>129.8</ele>
        <time>2017-11-26T10:19:38Z</time>
      </trkpt>
      <trkpt lat="48.53959" lon="1.94094">
        <ele>129.56</ele>
        <time>2017-11-26T10:19:42Z</time>
      </trkpt>
      <trkpt lat="48.53964" lon="1.94088">
        <ele>129.49</ele>
        <time>2017-11-26T10:19:44Z</time>
      </trkpt>
      <trkpt lat="48.53968" lon="1.94079">
        <ele>129.31</ele>
        <time>2017-11-26T10:19:46Z</time>
      </trkpt>
      <trkpt lat="48.53975" lon="1.94072">
        <ele>129.64</ele>
        <time>2017-11-26T10:19:48Z</time>
      </trkpt>
      <trkpt lat="48.53981" lon="1.9406">
        <ele>129.49</ele>
        <time>2017-11-26T10:19:50Z</time>
      </trkpt>
      <trkpt lat="48.53987" lon="1.94054">
        <ele>129.51</ele>
        <time>2017-11-26T10:19:51Z</time>
      </trkpt>
      <trkpt lat="48.53991" lon="1.94047">
        <ele>129.37</ele>
        <time>2017-11-26T10:19:54Z</time>
      </trkpt>
      <trkpt lat="48.53996" lon="1.94043">
        <ele>129.33</ele>
        <time>2017-11-26T10:19:56Z</time>
      </trkpt>
      <trkpt lat="48.54001" lon="1.94041">
        <ele>129.5</ele>
        <time>2017-11-26T10:19:58Z</time>
      </trkpt>
      <trkpt lat="48.54007" lon="1.94034">
        <ele>129.26</ele>
        <time>2017-11-26T10:20:00Z</time>
      </trkpt>
      <trkpt lat="48.54013" lon="1.94029">
        <ele>129.18</ele>
        <time>2017-11-26T10:20:02Z</time>
      </trkpt>
      <trkpt lat="48.54017" lon="1.94024">
        <ele>128.94</ele>
        <time>2017-11-26T10:20:03Z</time>
      </trkpt>
      <trkpt lat="48.54023" lon="1.94019">
        <ele>128.73</ele>
        <time>2017-11-26T10:20:06Z</time>
      </trkpt>
      <trkpt lat="48.54028" lon="1.94011">
        <ele>128.19</ele>
        <time>2017-11-26T10:20:08Z</time>
      </trkpt>
      <trkpt lat="48.54034" lon="1.94007">
        <ele>128</ele>
        <time>2017-11-26T10:20:10Z</time>
      </trkpt>
      <trkpt lat="48.54039" lon="1.94002">
        <ele>127.63</ele>
        <time>2017-11-26T10:20:12Z</time>
      </trkpt>
      <trkpt lat="48.54045" lon="1.93995">
        <ele>127.5</ele>
        <time>2017-11-26T10:20:14Z</time>
      </trkpt>
      <trkpt lat="48.54057" lon="1.93988">
        <ele>127.71</ele>
        <time>2017-11-26T10:20:18Z</time>
      </trkpt>
      <trkpt lat="48.54064" lon="1.93986">
        <ele>127.86</ele>
        <time>2017-11-26T10:20:20Z</time>
      </trkpt>
      <trkpt lat="48.54068" lon="1.93982">
        <ele>127.87</ele>
        <time>2017-11-26T10:20:22Z</time>
      </trkpt>
      <trkpt lat="48.54073" lon="1.93978">
        <ele>127.91</ele>
        <time>2017-11-26T10:20:24Z</time>
      </trkpt>
      <trkpt lat="48.54079" lon="1.93975">
        <ele>127.98</ele>
        <time>2017-11-26T10:20:26Z</time>
      </trkpt>
      <trkpt lat="48.54091" lon="1.93971">
        <ele>128.22</ele>
        <time>2017-11-26T10:20:30Z</time>
      </trkpt>
      <trkpt lat="48.54097" lon="1.9397">
        <ele>128.36</ele>
        <time>2017-11-26T10:20:32Z</time>
      </trkpt>
      <trkpt lat="48.54103" lon="1.93969">
        <ele>128.5</ele>
        <time>2017-11-26T10:20:34Z</time>
      </trkpt>
      <trkpt lat="48.5411" lon="1.93967">
        <ele>128.63</ele>
        <time>2017-11-26T10:20:36Z</time>
      </trkpt>
      <trkpt lat="48.54116" lon="1.93966">
        <ele>128.8</ele>
        <time>2017-11-26T10:20:38Z</time>
      </trkpt>
      <trkpt lat="48.54126" lon="1.9396">
        <ele>128.83</ele>
        <time>2017-11-26T10:20:42Z</time>
      </trkpt>
      <trkpt lat="48.54132" lon="1.93957">
        <ele>128.91</ele>
        <time>2017-11-26T10:20:44Z</time>
      </trkpt>
      <trkpt lat="48.54137" lon="1.93955">
        <ele>128.94</ele>
        <time>2017-11-26T10:20:46Z</time>
      </trkpt>
      <trkpt lat="48.54141" lon="1.93955">
        <ele>129.09</ele>
        <time>2017-11-26T10:20:48Z</time>
      </trkpt>
      <trkpt lat="48.54146" lon="1.93952">
        <ele>129.08</ele>
        <time>2017-11-26T10:22:41Z</time>
      </trkpt>
      <trkpt lat="48.54152" lon="1.93948">
        <ele>129.09</ele>
        <time>2017-11-26T10:22:45Z</time>
      </trkpt>
      <trkpt lat="48.54157" lon="1.93944">
        <ele>129.05</ele>
        <time>2017-11-26T10:22:47Z</time>
      </trkpt>
      <trkpt lat="48.54162" lon="1.93939">
        <ele>128.95</ele>
        <time>2017-11-26T10:22:49Z</time>
      </trkpt>
      <trkpt lat="48.54166" lon="1.93933">
        <ele>128.77</ele>
        <time>2017-11-26T10:22:51Z</time>
      </trkpt>
      <trkpt lat="48.54171" lon="1.9393">
        <ele>128.71</ele>
        <time>2017-11-26T10:22:53Z</time>
      </trkpt>
      <trkpt lat="48.54177" lon="1.93926">
        <ele>128.58</ele>
        <time>2017-11-26T10:22:55Z</time>
      </trkpt>
      <trkpt lat="48.54184" lon="1.93923">
        <ele>128.53</ele>
        <time>2017-11-26T10:22:57Z</time>
      </trkpt>
      <trkpt lat="48.5419" lon="1.93916">
        <ele>128.29</ele>
        <time>2017-11-26T10:22:59Z</time>
      </trkpt>
      <trkpt lat="48.54196" lon="1.9391">
        <ele>128.41</ele>
        <time>2017-11-26T10:23:01Z</time>
      </trkpt>
      <trkpt lat="48.54202" lon="1.93904">
        <ele>128.51</ele>
        <time>2017-11-26T10:23:03Z</time>
      </trkpt>
      <trkpt lat="48.54208" lon="1.93899">
        <ele>128.6</ele>
        <time>2017-11-26T10:23:05Z</time>
      </trkpt>
      <trkpt lat="48.54214" lon="1.93894">
        <ele>128.69</ele>
        <time>2017-11-26T10:23:07Z</time>
      </trkpt>
      <trkpt lat="48.5422" lon="1.9389">
        <ele>128.76</ele>
        <time>2017-11-26T10:23:09Z</time>
      </trkpt>
      <trkpt lat="48.54226" lon="1.93885">
        <ele>128.82</ele>
        <time>2017-11-26T10:23:11Z</time>
      </trkpt>
      <trkpt lat="48.54232" lon="1.9388">
        <ele>128.88</ele>
        <time>2017-11-26T10:23:13Z</time>
      </trkpt>
      <trkpt lat="48.54238" lon="1.93876">
        <ele>128.93</ele>
        <time>2017-11-26T10:23:15Z</time>
      </trkpt>
      <trkpt lat="48.54244" lon="1.93873">
        <ele>128.97</ele>
        <time>2017-11-26T10:23:17Z</time>
      </trkpt>
      <trkpt lat="48.5425" lon="1.9387">
        <ele>129.01</ele>
        <time>2017-11-26T10:23:19Z</time>
      </trkpt>
      <trkpt lat="48.54255" lon="1.93863">
        <ele>129.07</ele>
        <time>2017-11-26T10:23:21Z</time>
      </trkpt>
      <trkpt lat="48.54261" lon="1.93858">
        <ele>129.12</ele>
        <time>2017-11-26T10:23:23Z</time>
      </trkpt>
      <trkpt lat="48.54265" lon="1.93854">
        <ele>129.14</ele>
        <time>2017-11-26T10:23:25Z</time>
      </trkpt>
      <trkpt lat="48.5427" lon="1.93847">
        <ele>129.12</ele>
        <time>2017-11-26T10:23:27Z</time>
      </trkpt>
      <trkpt lat="48.54275" lon="1.93842">
        <ele>129.09</ele>
        <time>2017-11-26T10:23:29Z</time>
      </trkpt>
      <trkpt lat="48.54282" lon="1.93837">
        <ele>129.04</ele>
        <time>2017-11-26T10:23:31Z</time>
      </trkpt>
      <trkpt lat="48.54288" lon="1.93832">
        <ele>129.07</ele>
        <time>2017-11-26T10:23:33Z</time>
      </trkpt>
      <trkpt lat="48.54294" lon="1.93825">
        <ele>129.36</ele>
        <time>2017-11-26T10:23:35Z</time>
      </trkpt>
      <trkpt lat="48.543" lon="1.93819">
        <ele>129.57</ele>
        <time>2017-11-26T10:23:37Z</time>
      </trkpt>
      <trkpt lat="48.54305" lon="1.93814">
        <ele>129.79</ele>
        <time>2017-11-26T10:23:39Z</time>
      </trkpt>
      <trkpt lat="48.54311" lon="1.9381">
        <ele>129.93</ele>
        <time>2017-11-26T10:23:41Z</time>
      </trkpt>
      <trkpt lat="48.54315" lon="1.93802">
        <ele>130.21</ele>
        <time>2017-11-26T10:23:43Z</time>
      </trkpt>
      <trkpt lat="48.5432" lon="1.93797">
        <ele>130.37</ele>
        <time>2017-11-26T10:23:45Z</time>
      </trkpt>
      <trkpt lat="48.54325" lon="1.93793">
        <ele>130.5</ele>
        <time>2017-11-26T10:23:47Z</time>
      </trkpt>
      <trkpt lat="48.5433" lon="1.93788">
        <ele>130.65</ele>
        <time>2017-11-26T10:23:49Z</time>
      </trkpt>
      <trkpt lat="48.54336" lon="1.93784">
        <ele>130.83</ele>
        <time>2017-11-26T10:23:51Z</time>
      </trkpt>
      <trkpt lat="48.54341" lon="1.93778">
        <ele>131.16</ele>
        <time>2017-11-26T10:23:53Z</time>
      </trkpt>
      <trkpt lat="48.54347" lon="1.93773">
        <ele>131.41</ele>
        <time>2017-11-26T10:23:55Z</time>
      </trkpt>
      <trkpt lat="48.54354" lon="1.93768">
        <ele>131.62</ele>
        <time>2017-11-26T10:23:57Z</time>
      </trkpt>
      <trkpt lat="48.5436" lon="1.93762">
        <ele>131.79</ele>
        <time>2017-11-26T10:23:59Z</time>
      </trkpt>
      <trkpt lat="48.54366" lon="1.93762">
        <ele>131.85</ele>
        <time>2017-11-26T10:24:01Z</time>
      </trkpt>
      <trkpt lat="48.54373" lon="1.93777">
        <ele>131.79</ele>
        <time>2017-11-26T10:24:05Z</time>
      </trkpt>
      <trkpt lat="48.54375" lon="1.93789">
        <ele>131.77</ele>
        <time>2017-11-26T10:24:07Z</time>
      </trkpt>
      <trkpt lat="48.54378" lon="1.93801">
        <ele>131.8</ele>
        <time>2017-11-26T10:24:09Z</time>
      </trkpt>
      <trkpt lat="48.54382" lon="1.93812">
        <ele>131.94</ele>
        <time>2017-11-26T10:24:11Z</time>
      </trkpt>
      <trkpt lat="48.54383" lon="1.93819">
        <ele>131.98</ele>
        <time>2017-11-26T10:24:13Z</time>
      </trkpt>
      <trkpt lat="48.54386" lon="1.93831">
        <ele>132.13</ele>
        <time>2017-11-26T10:24:15Z</time>
      </trkpt>
      <trkpt lat="48.54389" lon="1.93839">
        <ele>132.73</ele>
        <time>2017-11-26T10:24:17Z</time>
      </trkpt>
      <trkpt lat="48.54394" lon="1.93851">
        <ele>133.88</ele>
        <time>2017-11-26T10:24:19Z</time>
      </trkpt>
      <trkpt lat="48.54398" lon="1.93859">
        <ele>134.75</ele>
        <time>2017-11-26T10:24:21Z</time>
      </trkpt>
      <trkpt lat="48.54402" lon="1.93867">
        <ele>135.62</ele>
        <time>2017-11-26T10:24:23Z</time>
      </trkpt>
      <trkpt lat="48.54405" lon="1.93874">
        <ele>136.47</ele>
        <time>2017-11-26T10:24:25Z</time>
      </trkpt>
      <trkpt lat="48.5441" lon="1.9388">
        <ele>137.31</ele>
        <time>2017-11-26T10:24:29Z</time>
      </trkpt>
      <trkpt lat="48.54416" lon="1.93884">
        <ele>138.21</ele>
        <time>2017-11-26T10:24:37Z</time>
      </trkpt>
      <trkpt lat="48.5442" lon="1.93888">
        <ele>138.8</ele>
        <time>2017-11-26T10:24:39Z</time>
      </trkpt>
      <trkpt lat="48.54424" lon="1.93893">
        <ele>139.35</ele>
        <time>2017-11-26T10:24:41Z</time>
      </trkpt>
      <trkpt lat="48.5443" lon="1.93901">
        <ele>140.33</ele>
        <time>2017-11-26T10:24:45Z</time>
      </trkpt>
      <trkpt lat="48.54436" lon="1.93908">
        <ele>141.25</ele>
        <time>2017-11-26T10:24:49Z</time>
      </trkpt>
      <trkpt lat="48.5444" lon="1.93915">
        <ele>142.02</ele>
        <time>2017-11-26T10:24:53Z</time>
      </trkpt>
      <trkpt lat="48.54438" lon="1.93924">
        <ele>142.98</ele>
        <time>2017-11-26T10:25:09Z</time>
      </trkpt>
      <trkpt lat="48.54433" lon="1.93929">
        <ele>143.33</ele>
        <time>2017-11-26T10:25:13Z</time>
      </trkpt>
      <trkpt lat="48.54428" lon="1.93929">
        <ele>143.14</ele>
        <time>2017-11-26T10:25:15Z</time>
      </trkpt>
      <trkpt lat="48.54421" lon="1.93931">
        <ele>143.12</ele>
        <time>2017-11-26T10:25:19Z</time>
      </trkpt>
      <trkpt lat="48.54415" lon="1.93932">
        <ele>142.86</ele>
        <time>2017-11-26T10:25:23Z</time>
      </trkpt>
      <trkpt lat="48.5441" lon="1.93931">
        <ele>142.1</ele>
        <time>2017-11-26T10:25:25Z</time>
      </trkpt>
      <trkpt lat="48.54403" lon="1.93929">
        <ele>141.19</ele>
        <time>2017-11-26T10:25:27Z</time>
      </trkpt>
      <trkpt lat="48.54396" lon="1.9393">
        <ele>140.55</ele>
        <time>2017-11-26T10:25:29Z</time>
      </trkpt>
      <trkpt lat="48.54392" lon="1.93932">
        <ele>140.26</ele>
        <time>2017-11-26T10:25:31Z</time>
      </trkpt>
      <trkpt lat="48.54386" lon="1.93936">
        <ele>140.11</ele>
        <time>2017-11-26T10:25:33Z</time>
      </trkpt>
      <trkpt lat="48.54381" lon="1.93941">
        <ele>140.3</ele>
        <time>2017-11-26T10:25:35Z</time>
      </trkpt>
      <trkpt lat="48.54378" lon="1.93948">
        <ele>140.73</ele>
        <time>2017-11-26T10:25:37Z</time>
      </trkpt>
      <trkpt lat="48.54373" lon="1.93954">
        <ele>141.01</ele>
        <time>2017-11-26T10:25:39Z</time>
      </trkpt>
      <trkpt lat="48.54369" lon="1.93961">
        <ele>141.41</ele>
        <time>2017-11-26T10:25:41Z</time>
      </trkpt>
      <trkpt lat="48.54365" lon="1.93968">
        <ele>141.86</ele>
        <time>2017-11-26T10:25:43Z</time>
      </trkpt>
      <trkpt lat="48.54361" lon="1.93976">
        <ele>142.37</ele>
        <time>2017-11-26T10:25:45Z</time>
      </trkpt>
      <trkpt lat="48.54358" lon="1.93984">
        <ele>143.01</ele>
        <time>2017-11-26T10:25:47Z</time>
      </trkpt>
      <trkpt lat="48.54356" lon="1.93991">
        <ele>143.59</ele>
        <time>2017-11-26T10:25:49Z</time>
      </trkpt>
      <trkpt lat="48.54353" lon="1.93998">
        <ele>144.07</ele>
        <time>2017-11-26T10:25:51Z</time>
      </trkpt>
      <trkpt lat="48.5435" lon="1.94005">
        <ele>144.6</ele>
        <time>2017-11-26T10:25:53Z</time>
      </trkpt>
      <trkpt lat="48.54347" lon="1.94011">
        <ele>145.08</ele>
        <time>2017-11-26T10:25:55Z</time>
      </trkpt>
      <trkpt lat="48.54343" lon="1.94016">
        <ele>145.22</ele>
        <time>2017-11-26T10:25:57Z</time>
      </trkpt>
      <trkpt lat="48.54344" lon="1.94027">
        <ele>146.71</ele>
        <time>2017-11-26T10:26:01Z</time>
      </trkpt>
      <trkpt lat="48.54342" lon="1.94037">
        <ele>147.87</ele>
        <time>2017-11-26T10:26:05Z</time>
      </trkpt>
      <trkpt lat="48.54338" lon="1.94043">
        <ele>148.13</ele>
        <time>2017-11-26T10:26:09Z</time>
      </trkpt>
      <trkpt lat="48.54339" lon="1.9405">
        <ele>149.21</ele>
        <time>2017-11-26T10:26:13Z</time>
      </trkpt>
      <trkpt lat="48.54339" lon="1.94058">
        <ele>150.16</ele>
        <time>2017-11-26T10:26:17Z</time>
      </trkpt>
      <trkpt lat="48.54335" lon="1.94061">
        <ele>150.2</ele>
        <time>2017-11-26T10:26:27Z</time>
      </trkpt>
      <trkpt lat="48.54324" lon="1.9406">
        <ele>149.34</ele>
        <time>2017-11-26T10:26:31Z</time>
      </trkpt>
      <trkpt lat="48.54318" lon="1.94061">
        <ele>149.1</ele>
        <time>2017-11-26T10:26:35Z</time>
      </trkpt>
      <trkpt lat="48.5431" lon="1.94065">
        <ele>149.34</ele>
        <time>2017-11-26T10:26:39Z</time>
      </trkpt>
      <trkpt lat="48.54303" lon="1.94069">
        <ele>149.43</ele>
        <time>2017-11-26T10:26:42Z</time>
      </trkpt>
      <trkpt lat="48.54298" lon="1.9407">
        <ele>149.36</ele>
        <time>2017-11-26T10:26:46Z</time>
      </trkpt>
      <trkpt lat="48.54293" lon="1.9407">
        <ele>149.09</ele>
        <time>2017-11-26T10:26:50Z</time>
      </trkpt>
      <trkpt lat="48.54286" lon="1.94074">
        <ele>149.24</ele>
        <time>2017-11-26T10:26:56Z</time>
      </trkpt>
      <trkpt lat="48.5428" lon="1.94076">
        <ele>149.39</ele>
        <time>2017-11-26T10:27:00Z</time>
      </trkpt>
      <trkpt lat="48.54274" lon="1.94078">
        <ele>149.31</ele>
        <time>2017-11-26T10:27:04Z</time>
      </trkpt>
      <trkpt lat="48.54268" lon="1.94082">
        <ele>149.58</ele>
        <time>2017-11-26T10:27:08Z</time>
      </trkpt>
      <trkpt lat="48.54262" lon="1.94087">
        <ele>150.04</ele>
        <time>2017-11-26T10:27:12Z</time>
      </trkpt>
      <trkpt lat="48.54256" lon="1.9409">
        <ele>150.16</ele>
        <time>2017-11-26T10:27:16Z</time>
      </trkpt>
      <trkpt lat="48.54249" lon="1.94091">
        <ele>149.98</ele>
        <time>2017-11-26T10:27:20Z</time>
      </trkpt>
      <trkpt lat="48.54242" lon="1.94094">
        <ele>150.41</ele>
        <time>2017-11-26T10:27:24Z</time>
      </trkpt>
      <trkpt lat="48.54236" lon="1.941">
        <ele>151.1</ele>
        <time>2017-11-26T10:27:28Z</time>
      </trkpt>
      <trkpt lat="48.54231" lon="1.94108">
        <ele>152.19</ele>
        <time>2017-11-26T10:27:32Z</time>
      </trkpt>
      <trkpt lat="48.54224" lon="1.94114">
        <ele>152.96</ele>
        <time>2017-11-26T10:27:36Z</time>
      </trkpt>
      <trkpt lat="48.54215" lon="1.94119">
        <ele>153.59</ele>
        <time>2017-11-26T10:27:40Z</time>
      </trkpt>
      <trkpt lat="48.54211" lon="1.94121">
        <ele>153.8</ele>
        <time>2017-11-26T10:27:42Z</time>
      </trkpt>
      <trkpt lat="48.54203" lon="1.94124">
        <ele>154.12</ele>
        <time>2017-11-26T10:27:46Z</time>
      </trkpt>
      <trkpt lat="48.54195" lon="1.94127">
        <ele>154.43</ele>
        <time>2017-11-26T10:27:50Z</time>
      </trkpt>
      <trkpt lat="48.54191" lon="1.94128">
        <ele>154.48</ele>
        <time>2017-11-26T10:27:52Z</time>
      </trkpt>
      <trkpt lat="48.54186" lon="1.94129">
        <ele>154.6</ele>
        <time>2017-11-26T10:27:54Z</time>
      </trkpt>
      <trkpt lat="48.54179" lon="1.94131">
        <ele>154.76</ele>
        <time>2017-11-26T10:27:56Z</time>
      </trkpt>
      <trkpt lat="48.54171" lon="1.94134">
        <ele>155.12</ele>
        <time>2017-11-26T10:27:58Z</time>
      </trkpt>
      <trkpt lat="48.54166" lon="1.94138">
        <ele>155.56</ele>
        <time>2017-11-26T10:28:00Z</time>
      </trkpt>
      <trkpt lat="48.54163" lon="1.94147">
        <ele>156.35</ele>
        <time>2017-11-26T10:28:04Z</time>
      </trkpt>
      <trkpt lat="48.54161" lon="1.94155">
        <ele>157.25</ele>
        <time>2017-11-26T10:28:08Z</time>
      </trkpt>
      <trkpt lat="48.54159" lon="1.94163">
        <ele>158.01</ele>
        <time>2017-11-26T10:28:12Z</time>
      </trkpt>
      <trkpt lat="48.54157" lon="1.94171">
        <ele>158.44</ele>
        <time>2017-11-26T10:28:16Z</time>
      </trkpt>
      <trkpt lat="48.54157" lon="1.94178">
        <ele>158.72</ele>
        <time>2017-11-26T10:28:20Z</time>
      </trkpt>
      <trkpt lat="48.54158" lon="1.94185">
        <ele>159.09</ele>
        <time>2017-11-26T10:28:24Z</time>
      </trkpt>
      <trkpt lat="48.54159" lon="1.94193">
        <ele>159.49</ele>
        <time>2017-11-26T10:28:28Z</time>
      </trkpt>
      <trkpt lat="48.54157" lon="1.94201">
        <ele>159.66</ele>
        <time>2017-11-26T10:28:32Z</time>
      </trkpt>
      <trkpt lat="48.54153" lon="1.94207">
        <ele>159.68</ele>
        <time>2017-11-26T10:28:36Z</time>
      </trkpt>
      <trkpt lat="48.54153" lon="1.94214">
        <ele>159.98</ele>
        <time>2017-11-26T10:28:38Z</time>
      </trkpt>
      <trkpt lat="48.54153" lon="1.94224">
        <ele>160.41</ele>
        <time>2017-11-26T10:28:40Z</time>
      </trkpt>
      <trkpt lat="48.54153" lon="1.94236">
        <ele>160.92</ele>
        <time>2017-11-26T10:28:42Z</time>
      </trkpt>
      <trkpt lat="48.54151" lon="1.94247">
        <ele>161.33</ele>
        <time>2017-11-26T10:28:44Z</time>
      </trkpt>
      <trkpt lat="48.5415" lon="1.94255">
        <ele>161.46</ele>
        <time>2017-11-26T10:28:46Z</time>
      </trkpt>
      <trkpt lat="48.54149" lon="1.94263">
        <ele>161.49</ele>
        <time>2017-11-26T10:28:48Z</time>
      </trkpt>
      <trkpt lat="48.54147" lon="1.94271">
        <ele>161.53</ele>
        <time>2017-11-26T10:28:50Z</time>
      </trkpt>
      <trkpt lat="48.54147" lon="1.94278">
        <ele>161.6</ele>
        <time>2017-11-26T10:28:52Z</time>
      </trkpt>
      <trkpt lat="48.54147" lon="1.94288">
        <ele>161.72</ele>
        <time>2017-11-26T10:28:56Z</time>
      </trkpt>
      <trkpt lat="48.54142" lon="1.94297">
        <ele>161.79</ele>
        <time>2017-11-26T10:29:00Z</time>
      </trkpt>
      <trkpt lat="48.54139" lon="1.94302">
        <ele>161.84</ele>
        <time>2017-11-26T10:29:02Z</time>
      </trkpt>
      <trkpt lat="48.54133" lon="1.9431">
        <ele>161.96</ele>
        <time>2017-11-26T10:29:06Z</time>
      </trkpt>
      <trkpt lat="48.54125" lon="1.94314">
        <ele>162.03</ele>
        <time>2017-11-26T10:29:10Z</time>
      </trkpt>
      <trkpt lat="48.54119" lon="1.94323">
        <ele>162.28</ele>
        <time>2017-11-26T10:29:14Z</time>
      </trkpt>
      <trkpt lat="48.54111" lon="1.94329">
        <ele>162.52</ele>
        <time>2017-11-26T10:29:16Z</time>
      </trkpt>
      <trkpt lat="48.54104" lon="1.94335">
        <ele>162.75</ele>
        <time>2017-11-26T10:29:18Z</time>
      </trkpt>
      <trkpt lat="48.54097" lon="1.94339">
        <ele>162.83</ele>
        <time>2017-11-26T10:29:20Z</time>
      </trkpt>
      <trkpt lat="48.54089" lon="1.94345">
        <ele>162.92</ele>
        <time>2017-11-26T10:29:22Z</time>
      </trkpt>
      <trkpt lat="48.54084" lon="1.9435">
        <ele>162.99</ele>
        <time>2017-11-26T10:29:24Z</time>
      </trkpt>
      <trkpt lat="48.54078" lon="1.94355">
        <ele>162.47</ele>
        <time>2017-11-26T10:29:26Z</time>
      </trkpt>
      <trkpt lat="48.54071" lon="1.9436">
        <ele>161.76</ele>
        <time>2017-11-26T10:29:28Z</time>
      </trkpt>
      <trkpt lat="48.54065" lon="1.94365">
        <ele>161.27</ele>
        <time>2017-11-26T10:29:30Z</time>
      </trkpt>
      <trkpt lat="48.5406" lon="1.94372">
        <ele>160.98</ele>
        <time>2017-11-26T10:29:32Z</time>
      </trkpt>
      <trkpt lat="48.54055" lon="1.94377">
        <ele>160.7</ele>
        <time>2017-11-26T10:29:34Z</time>
      </trkpt>
      <trkpt lat="48.5405" lon="1.9438">
        <ele>160.34</ele>
        <time>2017-11-26T10:29:36Z</time>
      </trkpt>
      <trkpt lat="48.54045" lon="1.94383">
        <ele>160.03</ele>
        <time>2017-11-26T10:29:38Z</time>
      </trkpt>
      <trkpt lat="48.54039" lon="1.94391">
        <ele>159.88</ele>
        <time>2017-11-26T10:29:40Z</time>
      </trkpt>
      <trkpt lat="48.54034" lon="1.94401">
        <ele>159.99</ele>
        <time>2017-11-26T10:29:42Z</time>
      </trkpt>
      <trkpt lat="48.54031" lon="1.94413">
        <ele>160.33</ele>
        <time>2017-11-26T10:29:44Z</time>
      </trkpt>
      <trkpt lat="48.54028" lon="1.94426">
        <ele>160.4</ele>
        <time>2017-11-26T10:29:46Z</time>
      </trkpt>
      <trkpt lat="48.54024" lon="1.94439">
        <ele>160.35</ele>
        <time>2017-11-26T10:29:48Z</time>
      </trkpt>
      <trkpt lat="48.54022" lon="1.94451">
        <ele>160.35</ele>
        <time>2017-11-26T10:29:50Z</time>
      </trkpt>
      <trkpt lat="48.54019" lon="1.94463">
        <ele>160.35</ele>
        <time>2017-11-26T10:29:52Z</time>
      </trkpt>
      <trkpt lat="48.54016" lon="1.94472">
        <ele>160.31</ele>
        <time>2017-11-26T10:29:54Z</time>
      </trkpt>
      <trkpt lat="48.54012" lon="1.94481">
        <ele>160.25</ele>
        <time>2017-11-26T10:29:56Z</time>
      </trkpt>
      <trkpt lat="48.54009" lon="1.94491">
        <ele>160.24</ele>
        <time>2017-11-26T10:29:58Z</time>
      </trkpt>
      <trkpt lat="48.54006" lon="1.94501">
        <ele>160.21</ele>
        <time>2017-11-26T10:30:00Z</time>
      </trkpt>
      <trkpt lat="48.54004" lon="1.94513">
        <ele>159.98</ele>
        <time>2017-11-26T10:30:02Z</time>
      </trkpt>
      <trkpt lat="48.54002" lon="1.94524">
        <ele>159.76</ele>
        <time>2017-11-26T10:30:04Z</time>
      </trkpt>
      <trkpt lat="48.53997" lon="1.94534">
        <ele>159.13</ele>
        <time>2017-11-26T10:30:06Z</time>
      </trkpt>
      <trkpt lat="48.53993" lon="1.94544">
        <ele>158.33</ele>
        <time>2017-11-26T10:30:08Z</time>
      </trkpt>
      <trkpt lat="48.53989" lon="1.9456">
        <ele>157.47</ele>
        <time>2017-11-26T10:30:10Z</time>
      </trkpt>
      <trkpt lat="48.53981" lon="1.94598">
        <ele>156.02</ele>
        <time>2017-11-26T10:30:12Z</time>
      </trkpt>
      <trkpt lat="48.53969" lon="1.94611">
        <ele>154.5</ele>
        <time>2017-11-26T10:30:14Z</time>
      </trkpt>
      <trkpt lat="48.53958" lon="1.94618">
        <ele>153.36</ele>
        <time>2017-11-26T10:30:16Z</time>
      </trkpt>
      <trkpt lat="48.53953" lon="1.94628">
        <ele>153.04</ele>
        <time>2017-11-26T10:30:18Z</time>
      </trkpt>
      <trkpt lat="48.53949" lon="1.94637">
        <ele>152.9</ele>
        <time>2017-11-26T10:30:20Z</time>
      </trkpt>
      <trkpt lat="48.53943" lon="1.94641">
        <ele>152.55</ele>
        <time>2017-11-26T10:30:22Z</time>
      </trkpt>
      <trkpt lat="48.53941" lon="1.94648">
        <ele>152.55</ele>
        <time>2017-11-26T10:30:24Z</time>
      </trkpt>
      <trkpt lat="48.53934" lon="1.94654">
        <ele>152.36</ele>
        <time>2017-11-26T10:30:26Z</time>
      </trkpt>
      <trkpt lat="48.53932" lon="1.94663">
        <ele>152.56</ele>
        <time>2017-11-26T10:30:28Z</time>
      </trkpt>
      <trkpt lat="48.53931" lon="1.94671">
        <ele>152.42</ele>
        <time>2017-11-26T10:30:30Z</time>
      </trkpt>
      <trkpt lat="48.53934" lon="1.94682">
        <ele>151.74</ele>
        <time>2017-11-26T10:30:32Z</time>
      </trkpt>
      <trkpt lat="48.53925" lon="1.94693">
        <ele>150.86</ele>
        <time>2017-11-26T10:30:34Z</time>
      </trkpt>
      <trkpt lat="48.53916" lon="1.94703">
        <ele>150.22</ele>
        <time>2017-11-26T10:30:36Z</time>
      </trkpt>
      <trkpt lat="48.53906" lon="1.94705">
        <ele>148.66</ele>
        <time>2017-11-26T10:30:38Z</time>
      </trkpt>
      <trkpt lat="48.53899" lon="1.9471">
        <ele>147.6</ele>
        <time>2017-11-26T10:30:40Z</time>
      </trkpt>
      <trkpt lat="48.5389" lon="1.94717">
        <ele>146.3</ele>
        <time>2017-11-26T10:30:42Z</time>
      </trkpt>
      <trkpt lat="48.53882" lon="1.94728">
        <ele>145.3</ele>
        <time>2017-11-26T10:30:44Z</time>
      </trkpt>
      <trkpt lat="48.53869" lon="1.94743">
        <ele>143.9</ele>
        <time>2017-11-26T10:30:46Z</time>
      </trkpt>
      <trkpt lat="48.5386" lon="1.94757">
        <ele>142.72</ele>
        <time>2017-11-26T10:30:48Z</time>
      </trkpt>
      <trkpt lat="48.53853" lon="1.94773">
        <ele>141.1</ele>
        <time>2017-11-26T10:30:50Z</time>
      </trkpt>
      <trkpt lat="48.53845" lon="1.94789">
        <ele>139.7</ele>
        <time>2017-11-26T10:30:52Z</time>
      </trkpt>
      <trkpt lat="48.53837" lon="1.94797">
        <ele>138.93</ele>
        <time>2017-11-26T10:30:54Z</time>
      </trkpt>
      <trkpt lat="48.53827" lon="1.94812">
        <ele>137.69</ele>
        <time>2017-11-26T10:30:56Z</time>
      </trkpt>
      <trkpt lat="48.53815" lon="1.9482">
        <ele>136.77</ele>
        <time>2017-11-26T10:30:58Z</time>
      </trkpt>
      <trkpt lat="48.5381" lon="1.94819">
        <ele>136.53</ele>
        <time>2017-11-26T10:31:00Z</time>
      </trkpt>
      <trkpt lat="48.53802" lon="1.9483">
        <ele>135.94</ele>
        <time>2017-11-26T10:31:02Z</time>
      </trkpt>
      <trkpt lat="48.53791" lon="1.94836">
        <ele>135.22</ele>
        <time>2017-11-26T10:31:04Z</time>
      </trkpt>
      <trkpt lat="48.5378" lon="1.94844">
        <ele>134.13</ele>
        <time>2017-11-26T10:31:06Z</time>
      </trkpt>
      <trkpt lat="48.53782" lon="1.94866">
        <ele>132.39</ele>
        <time>2017-11-26T10:31:08Z</time>
      </trkpt>
      <trkpt lat="48.53782" lon="1.94873">
        <ele>131.77</ele>
        <time>2017-11-26T10:31:10Z</time>
      </trkpt>
      <trkpt lat="48.5379" lon="1.94895">
        <ele>129.94</ele>
        <time>2017-11-26T10:31:12Z</time>
      </trkpt>
      <trkpt lat="48.53797" lon="1.94911">
        <ele>128.54</ele>
        <time>2017-11-26T10:31:14Z</time>
      </trkpt>
      <trkpt lat="48.53795" lon="1.94927">
        <ele>127.51</ele>
        <time>2017-11-26T10:31:16Z</time>
      </trkpt>
      <trkpt lat="48.53796" lon="1.94935">
        <ele>127.1</ele>
        <time>2017-11-26T10:31:20Z</time>
      </trkpt>
      <trkpt lat="48.53802" lon="1.94941">
        <ele>126.75</ele>
        <time>2017-11-26T10:31:22Z</time>
      </trkpt>
      <trkpt lat="48.53809" lon="1.94965">
        <ele>125.45</ele>
        <time>2017-11-26T10:31:59Z</time>
      </trkpt>
      <trkpt lat="48.53811" lon="1.94973">
        <ele>124.96</ele>
        <time>2017-11-26T10:32:00Z</time>
      </trkpt>
      <trkpt lat="48.53818" lon="1.94987">
        <ele>124.08</ele>
        <time>2017-11-26T10:32:05Z</time>
      </trkpt>
      <trkpt lat="48.5382" lon="1.94993">
        <ele>123.7</ele>
        <time>2017-11-26T10:32:07Z</time>
      </trkpt>
      <trkpt lat="48.53823" lon="1.95">
        <ele>123.26</ele>
        <time>2017-11-26T10:32:09Z</time>
      </trkpt>
      <trkpt lat="48.53826" lon="1.95008">
        <ele>123.33</ele>
        <time>2017-11-26T10:32:11Z</time>
      </trkpt>
      <trkpt lat="48.5383" lon="1.95016">
        <ele>123.42</ele>
        <time>2017-11-26T10:32:13Z</time>
      </trkpt>
      <trkpt lat="48.53834" lon="1.95024">
        <ele>123.57</ele>
        <time>2017-11-26T10:32:15Z</time>
      </trkpt>
      <trkpt lat="48.53837" lon="1.95033">
        <ele>123.82</ele>
        <time>2017-11-26T10:32:17Z</time>
      </trkpt>
      <trkpt lat="48.53838" lon="1.95042">
        <ele>124.04</ele>
        <time>2017-11-26T10:32:19Z</time>
      </trkpt>
      <trkpt lat="48.53838" lon="1.95051">
        <ele>124.24</ele>
        <time>2017-11-26T10:32:21Z</time>
      </trkpt>
      <trkpt lat="48.53839" lon="1.9506">
        <ele>124.44</ele>
        <time>2017-11-26T10:32:23Z</time>
      </trkpt>
      <trkpt lat="48.53841" lon="1.95069">
        <ele>124.61</ele>
        <time>2017-11-26T10:32:25Z</time>
      </trkpt>
      <trkpt lat="48.53844" lon="1.95077">
        <ele>124.75</ele>
        <time>2017-11-26T10:32:27Z</time>
      </trkpt>
      <trkpt lat="48.53847" lon="1.95086">
        <ele>124.88</ele>
        <time>2017-11-26T10:32:29Z</time>
      </trkpt>
      <trkpt lat="48.53848" lon="1.95094">
        <ele>124.99</ele>
        <time>2017-11-26T10:32:31Z</time>
      </trkpt>
      <trkpt lat="48.53847" lon="1.95102">
        <ele>125.09</ele>
        <time>2017-11-26T10:32:33Z</time>
      </trkpt>
      <trkpt lat="48.53847" lon="1.95108">
        <ele>125.19</ele>
        <time>2017-11-26T10:32:35Z</time>
      </trkpt>
      <trkpt lat="48.53845" lon="1.95115">
        <ele>125.29</ele>
        <time>2017-11-26T10:32:37Z</time>
      </trkpt>
      <trkpt lat="48.53843" lon="1.95122">
        <ele>125.4</ele>
        <time>2017-11-26T10:32:39Z</time>
      </trkpt>
      <trkpt lat="48.53842" lon="1.95129">
        <ele>125.5</ele>
        <time>2017-11-26T10:32:41Z</time>
      </trkpt>
      <trkpt lat="48.53848" lon="1.95138">
        <ele>125.59</ele>
        <time>2017-11-26T10:32:45Z</time>
      </trkpt>
      <trkpt lat="48.53853" lon="1.95141">
        <ele>125.62</ele>
        <time>2017-11-26T10:32:51Z</time>
      </trkpt>
      <trkpt lat="48.53858" lon="1.95143">
        <ele>125.63</ele>
        <time>2017-11-26T10:32:55Z</time>
      </trkpt>
      <trkpt lat="48.53862" lon="1.95146">
        <ele>125.67</ele>
        <time>2017-11-26T10:32:59Z</time>
      </trkpt>
      <trkpt lat="48.53867" lon="1.95148">
        <ele>125.69</ele>
        <time>2017-11-26T10:33:01Z</time>
      </trkpt>
      <trkpt lat="48.53873" lon="1.95153">
        <ele>125.76</ele>
        <time>2017-11-26T10:33:03Z</time>
      </trkpt>
      <trkpt lat="48.53878" lon="1.9516">
        <ele>125.88</ele>
        <time>2017-11-26T10:33:05Z</time>
      </trkpt>
      <trkpt lat="48.53883" lon="1.95167">
        <ele>126.01</ele>
        <time>2017-11-26T10:33:07Z</time>
      </trkpt>
      <trkpt lat="48.53885" lon="1.95173">
        <ele>126.54</ele>
        <time>2017-11-26T10:33:11Z</time>
      </trkpt>
      <trkpt lat="48.53887" lon="1.95183">
        <ele>127.36</ele>
        <time>2017-11-26T10:33:17Z</time>
      </trkpt>
      <trkpt lat="48.53888" lon="1.95193">
        <ele>128.18</ele>
        <time>2017-11-26T10:33:23Z</time>
      </trkpt>
      <trkpt lat="48.53885" lon="1.95198">
        <ele>128.58</ele>
        <time>2017-11-26T10:33:27Z</time>
      </trkpt>
      <trkpt lat="48.53882" lon="1.95207">
        <ele>129.27</ele>
        <time>2017-11-26T10:33:31Z</time>
      </trkpt>
      <trkpt lat="48.53877" lon="1.95215">
        <ele>129.8</ele>
        <time>2017-11-26T10:33:35Z</time>
      </trkpt>
      <trkpt lat="48.53871" lon="1.9522">
        <ele>130.06</ele>
        <time>2017-11-26T10:33:39Z</time>
      </trkpt>
      <trkpt lat="48.53866" lon="1.95225">
        <ele>130.34</ele>
        <time>2017-11-26T10:33:43Z</time>
      </trkpt>
      <trkpt lat="48.53863" lon="1.9523">
        <ele>130.61</ele>
        <time>2017-11-26T10:33:47Z</time>
      </trkpt>
      <trkpt lat="48.53861" lon="1.95239">
        <ele>131.2</ele>
        <time>2017-11-26T10:33:53Z</time>
      </trkpt>
      <trkpt lat="48.53858" lon="1.95246">
        <ele>131.61</ele>
        <time>2017-11-26T10:33:59Z</time>
      </trkpt>
      <trkpt lat="48.53853" lon="1.95253">
        <ele>131.99</ele>
        <time>2017-11-26T10:34:05Z</time>
      </trkpt>
      <trkpt lat="48.53851" lon="1.9526">
        <ele>132.51</ele>
        <time>2017-11-26T10:34:09Z</time>
      </trkpt>
      <trkpt lat="48.53851" lon="1.95269">
        <ele>133.25</ele>
        <time>2017-11-26T10:34:13Z</time>
      </trkpt>
      <trkpt lat="48.53851" lon="1.95279">
        <ele>134.15</ele>
        <time>2017-11-26T10:34:17Z</time>
      </trkpt>
      <trkpt lat="48.53848" lon="1.95288">
        <ele>134.78</ele>
        <time>2017-11-26T10:34:21Z</time>
      </trkpt>
      <trkpt lat="48.53846" lon="1.95294">
        <ele>135.04</ele>
        <time>2017-11-26T10:34:25Z</time>
      </trkpt>
      <trkpt lat="48.53843" lon="1.953">
        <ele>135.35</ele>
        <time>2017-11-26T10:34:29Z</time>
      </trkpt>
      <trkpt lat="48.5384" lon="1.95308">
        <ele>135.69</ele>
        <time>2017-11-26T10:34:35Z</time>
      </trkpt>
      <trkpt lat="48.53841" lon="1.95314">
        <ele>136.33</ele>
        <time>2017-11-26T10:34:39Z</time>
      </trkpt>
      <trkpt lat="48.53844" lon="1.95319">
        <ele>137.03</ele>
        <time>2017-11-26T10:34:43Z</time>
      </trkpt>
      <trkpt lat="48.53847" lon="1.95326">
        <ele>137.89</ele>
        <time>2017-11-26T10:34:47Z</time>
      </trkpt>
      <trkpt lat="48.53849" lon="1.95335">
        <ele>138.86</ele>
        <time>2017-11-26T10:34:51Z</time>
      </trkpt>
      <trkpt lat="48.53851" lon="1.95343">
        <ele>139.82</ele>
        <time>2017-11-26T10:34:55Z</time>
      </trkpt>
      <trkpt lat="48.53851" lon="1.9535">
        <ele>140.48</ele>
        <time>2017-11-26T10:34:59Z</time>
      </trkpt>
      <trkpt lat="48.53852" lon="1.95358">
        <ele>141.18</ele>
        <time>2017-11-26T10:35:03Z</time>
      </trkpt>
      <trkpt lat="48.53854" lon="1.95365">
        <ele>142.08</ele>
        <time>2017-11-26T10:35:07Z</time>
      </trkpt>
      <trkpt lat="48.53857" lon="1.95374">
        <ele>143.21</ele>
        <time>2017-11-26T10:35:11Z</time>
      </trkpt>
      <trkpt lat="48.53859" lon="1.95382">
        <ele>144.18</ele>
        <time>2017-11-26T10:35:13Z</time>
      </trkpt>
      <trkpt lat="48.5386" lon="1.95389">
        <ele>145</ele>
        <time>2017-11-26T10:35:15Z</time>
      </trkpt>
      <trkpt lat="48.53859" lon="1.95396">
        <ele>145.53</ele>
        <time>2017-11-26T10:35:19Z</time>
      </trkpt>
      <trkpt lat="48.53858" lon="1.95406">
        <ele>146.27</ele>
        <time>2017-11-26T10:35:25Z</time>
      </trkpt>
      <trkpt lat="48.53855" lon="1.9541">
        <ele>146.25</ele>
        <time>2017-11-26T10:35:29Z</time>
      </trkpt>
      <trkpt lat="48.53852" lon="1.95416">
        <ele>146.38</ele>
        <time>2017-11-26T10:35:33Z</time>
      </trkpt>
      <trkpt lat="48.53847" lon="1.95421">
        <ele>146.22</ele>
        <time>2017-11-26T10:35:39Z</time>
      </trkpt>
      <trkpt lat="48.53841" lon="1.95419">
        <ele>145.32</ele>
        <time>2017-11-26T10:35:45Z</time>
      </trkpt>
      <trkpt lat="48.53837" lon="1.95419">
        <ele>144.64</ele>
        <time>2017-11-26T10:35:49Z</time>
      </trkpt>
      <trkpt lat="48.53828" lon="1.95424">
        <ele>144.17</ele>
        <time>2017-11-26T10:35:53Z</time>
      </trkpt>
      <trkpt lat="48.53821" lon="1.95426">
        <ele>143.65</ele>
        <time>2017-11-26T10:35:55Z</time>
      </trkpt>
      <trkpt lat="48.53815" lon="1.95428">
        <ele>143.11</ele>
        <time>2017-11-26T10:35:57Z</time>
      </trkpt>
      <trkpt lat="48.53809" lon="1.95429">
        <ele>142.53</ele>
        <time>2017-11-26T10:35:59Z</time>
      </trkpt>
      <trkpt lat="48.53805" lon="1.95429">
        <ele>142</ele>
        <time>2017-11-26T10:36:01Z</time>
      </trkpt>
      <trkpt lat="48.53797" lon="1.95433">
        <ele>141.58</ele>
        <time>2017-11-26T10:36:05Z</time>
      </trkpt>
      <trkpt lat="48.53791" lon="1.95438">
        <ele>141.41</ele>
        <time>2017-11-26T10:36:07Z</time>
      </trkpt>
      <trkpt lat="48.53785" lon="1.95443">
        <ele>141.45</ele>
        <time>2017-11-26T10:36:09Z</time>
      </trkpt>
      <trkpt lat="48.53781" lon="1.95448">
        <ele>141.62</ele>
        <time>2017-11-26T10:36:11Z</time>
      </trkpt>
      <trkpt lat="48.53778" lon="1.95453">
        <ele>141.84</ele>
        <time>2017-11-26T10:36:13Z</time>
      </trkpt>
      <trkpt lat="48.53774" lon="1.95458">
        <ele>142.1</ele>
        <time>2017-11-26T10:36:15Z</time>
      </trkpt>
      <trkpt lat="48.53769" lon="1.95466">
        <ele>142.59</ele>
        <time>2017-11-26T10:36:19Z</time>
      </trkpt>
      <trkpt lat="48.53763" lon="1.95472">
        <ele>142.75</ele>
        <time>2017-11-26T10:36:23Z</time>
      </trkpt>
      <trkpt lat="48.53759" lon="1.95476">
        <ele>142.8</ele>
        <time>2017-11-26T10:36:25Z</time>
      </trkpt>
      <trkpt lat="48.53755" lon="1.9548">
        <ele>142.93</ele>
        <time>2017-11-26T10:36:27Z</time>
      </trkpt>
      <trkpt lat="48.53752" lon="1.95486">
        <ele>143.28</ele>
        <time>2017-11-26T10:36:29Z</time>
      </trkpt>
      <trkpt lat="48.53749" lon="1.95492">
        <ele>143.85</ele>
        <time>2017-11-26T10:36:31Z</time>
      </trkpt>
      <trkpt lat="48.53746" lon="1.95499">
        <ele>144.19</ele>
        <time>2017-11-26T10:36:33Z</time>
      </trkpt>
      <trkpt lat="48.53742" lon="1.95508">
        <ele>143.93</ele>
        <time>2017-11-26T10:36:35Z</time>
      </trkpt>
      <trkpt lat="48.53738" lon="1.95516">
        <ele>143.45</ele>
        <time>2017-11-26T10:36:37Z</time>
      </trkpt>
      <trkpt lat="48.53734" lon="1.95526">
        <ele>143.25</ele>
        <time>2017-11-26T10:36:39Z</time>
      </trkpt>
      <trkpt lat="48.53731" lon="1.95537">
        <ele>143.32</ele>
        <time>2017-11-26T10:36:41Z</time>
      </trkpt>
      <trkpt lat="48.5373" lon="1.95548">
        <ele>143.52</ele>
        <time>2017-11-26T10:36:43Z</time>
      </trkpt>
      <trkpt lat="48.53728" lon="1.95557">
        <ele>143.63</ele>
        <time>2017-11-26T10:36:45Z</time>
      </trkpt>
      <trkpt lat="48.53726" lon="1.95565">
        <ele>143.72</ele>
        <time>2017-11-26T10:36:47Z</time>
      </trkpt>
      <trkpt lat="48.53725" lon="1.95573">
        <ele>143.96</ele>
        <time>2017-11-26T10:36:49Z</time>
      </trkpt>
      <trkpt lat="48.53724" lon="1.95583">
        <ele>144.36</ele>
        <time>2017-11-26T10:36:51Z</time>
      </trkpt>
      <trkpt lat="48.53724" lon="1.95591">
        <ele>144.52</ele>
        <time>2017-11-26T10:36:53Z</time>
      </trkpt>
      <trkpt lat="48.53725" lon="1.95598">
        <ele>144.91</ele>
        <time>2017-11-26T10:36:55Z</time>
      </trkpt>
      <trkpt lat="48.53726" lon="1.95605">
        <ele>145.31</ele>
        <time>2017-11-26T10:36:57Z</time>
      </trkpt>
      <trkpt lat="48.53728" lon="1.95614">
        <ele>145.79</ele>
        <time>2017-11-26T10:36:59Z</time>
      </trkpt>
      <trkpt lat="48.53728" lon="1.95624">
        <ele>146.15</ele>
        <time>2017-11-26T10:37:01Z</time>
      </trkpt>
      <trkpt lat="48.53725" lon="1.95671">
        <ele>147.22</ele>
        <time>2017-11-26T10:37:15Z</time>
      </trkpt>
      <trkpt lat="48.53726" lon="1.95682">
        <ele>148.08</ele>
        <time>2017-11-26T10:37:18Z</time>
      </trkpt>
      <trkpt lat="48.53724" lon="1.95694">
        <ele>148.63</ele>
        <time>2017-11-26T10:37:22Z</time>
      </trkpt>
      <trkpt lat="48.53723" lon="1.95702">
        <ele>149.22</ele>
        <time>2017-11-26T10:37:26Z</time>
      </trkpt>
      <trkpt lat="48.53716" lon="1.95708">
        <ele>148.56</ele>
        <time>2017-11-26T10:37:32Z</time>
      </trkpt>
      <trkpt lat="48.53709" lon="1.95712">
        <ele>147.94</ele>
        <time>2017-11-26T10:37:36Z</time>
      </trkpt>
      <trkpt lat="48.53704" lon="1.95718">
        <ele>147.7</ele>
        <time>2017-11-26T10:37:40Z</time>
      </trkpt>
      <trkpt lat="48.537" lon="1.95722">
        <ele>147.43</ele>
        <time>2017-11-26T10:37:44Z</time>
      </trkpt>
      <trkpt lat="48.53694" lon="1.95727">
        <ele>147.19</ele>
        <time>2017-11-26T10:37:48Z</time>
      </trkpt>
      <trkpt lat="48.53687" lon="1.9573">
        <ele>146.51</ele>
        <time>2017-11-26T10:37:52Z</time>
      </trkpt>
      <trkpt lat="48.53683" lon="1.95731">
        <ele>146.05</ele>
        <time>2017-11-26T10:37:54Z</time>
      </trkpt>
      <trkpt lat="48.53676" lon="1.95735">
        <ele>145.55</ele>
        <time>2017-11-26T10:37:56Z</time>
      </trkpt>
      <trkpt lat="48.5367" lon="1.9574">
        <ele>145.35</ele>
        <time>2017-11-26T10:37:58Z</time>
      </trkpt>
      <trkpt lat="48.53665" lon="1.95746">
        <ele>145.13</ele>
        <time>2017-11-26T10:38:00Z</time>
      </trkpt>
      <trkpt lat="48.5366" lon="1.9575">
        <ele>144.61</ele>
        <time>2017-11-26T10:38:02Z</time>
      </trkpt>
      <trkpt lat="48.53654" lon="1.95758">
        <ele>144.08</ele>
        <time>2017-11-26T10:38:06Z</time>
      </trkpt>
      <trkpt lat="48.53649" lon="1.95765">
        <ele>143.57</ele>
        <time>2017-11-26T10:38:10Z</time>
      </trkpt>
      <trkpt lat="48.53643" lon="1.95771">
        <ele>142.96</ele>
        <time>2017-11-26T10:38:14Z</time>
      </trkpt>
      <trkpt lat="48.5364" lon="1.95781">
        <ele>143.24</ele>
        <time>2017-11-26T10:38:18Z</time>
      </trkpt>
      <trkpt lat="48.53636" lon="1.95789">
        <ele>143.07</ele>
        <time>2017-11-26T10:38:22Z</time>
      </trkpt>
      <trkpt lat="48.53632" lon="1.95798">
        <ele>143</ele>
        <time>2017-11-26T10:38:26Z</time>
      </trkpt>
      <trkpt lat="48.53627" lon="1.95807">
        <ele>142.8</ele>
        <time>2017-11-26T10:38:30Z</time>
      </trkpt>
      <trkpt lat="48.53624" lon="1.95816">
        <ele>142.83</ele>
        <time>2017-11-26T10:38:34Z</time>
      </trkpt>
      <trkpt lat="48.53624" lon="1.95829">
        <ele>143.89</ele>
        <time>2017-11-26T10:38:38Z</time>
      </trkpt>
      <trkpt lat="48.53621" lon="1.95841">
        <ele>144.05</ele>
        <time>2017-11-26T10:38:42Z</time>
      </trkpt>
      <trkpt lat="48.53619" lon="1.95851">
        <ele>143.92</ele>
        <time>2017-11-26T10:38:46Z</time>
      </trkpt>
      <trkpt lat="48.53616" lon="1.95861">
        <ele>143.78</ele>
        <time>2017-11-26T10:38:50Z</time>
      </trkpt>
      <trkpt lat="48.53613" lon="1.95875">
        <ele>143.74</ele>
        <time>2017-11-26T10:38:54Z</time>
      </trkpt>
      <trkpt lat="48.53612" lon="1.95884">
        <ele>144</ele>
        <time>2017-11-26T10:38:56Z</time>
      </trkpt>
      <trkpt lat="48.53611" lon="1.95892">
        <ele>144.18</ele>
        <time>2017-11-26T10:38:58Z</time>
      </trkpt>
      <trkpt lat="48.53608" lon="1.95901">
        <ele>144.06</ele>
        <time>2017-11-26T10:39:02Z</time>
      </trkpt>
      <trkpt lat="48.53607" lon="1.95908">
        <ele>144.29</ele>
        <time>2017-11-26T10:39:18Z</time>
      </trkpt>
      <trkpt lat="48.53605" lon="1.95915">
        <ele>144.28</ele>
        <time>2017-11-26T10:39:42Z</time>
      </trkpt>
      <trkpt lat="48.53601" lon="1.95925">
        <ele>144.36</ele>
        <time>2017-11-26T10:39:44Z</time>
      </trkpt>
      <trkpt lat="48.53596" lon="1.95936">
        <ele>144.42</ele>
        <time>2017-11-26T10:39:46Z</time>
      </trkpt>
      <trkpt lat="48.53593" lon="1.95947">
        <ele>144.86</ele>
        <time>2017-11-26T10:39:48Z</time>
      </trkpt>
      <trkpt lat="48.53591" lon="1.9596">
        <ele>145.51</ele>
        <time>2017-11-26T10:39:50Z</time>
      </trkpt>
      <trkpt lat="48.53585" lon="1.95987">
        <ele>147.07</ele>
        <time>2017-11-26T10:39:52Z</time>
      </trkpt>
      <trkpt lat="48.5358" lon="1.95994">
        <ele>146.81</ele>
        <time>2017-11-26T10:39:54Z</time>
      </trkpt>
      <trkpt lat="48.53573" lon="1.96">
        <ele>146.09</ele>
        <time>2017-11-26T10:39:56Z</time>
      </trkpt>
      <trkpt lat="48.53568" lon="1.96004">
        <ele>145.32</ele>
        <time>2017-11-26T10:39:58Z</time>
      </trkpt>
      <trkpt lat="48.53565" lon="1.96015">
        <ele>145.58</ele>
        <time>2017-11-26T10:40:02Z</time>
      </trkpt>
      <trkpt lat="48.53562" lon="1.96021">
        <ele>145.56</ele>
        <time>2017-11-26T10:40:04Z</time>
      </trkpt>
      <trkpt lat="48.53557" lon="1.96033">
        <ele>145.58</ele>
        <time>2017-11-26T10:40:06Z</time>
      </trkpt>
      <trkpt lat="48.5355" lon="1.96039">
        <ele>144.73</ele>
        <time>2017-11-26T10:40:08Z</time>
      </trkpt>
      <trkpt lat="48.53543" lon="1.96047">
        <ele>144.3</ele>
        <time>2017-11-26T10:40:10Z</time>
      </trkpt>
      <trkpt lat="48.53537" lon="1.96055">
        <ele>143.86</ele>
        <time>2017-11-26T10:40:12Z</time>
      </trkpt>
      <trkpt lat="48.53532" lon="1.96064">
        <ele>143.63</ele>
        <time>2017-11-26T10:40:14Z</time>
      </trkpt>
      <trkpt lat="48.53527" lon="1.96073">
        <ele>143.57</ele>
        <time>2017-11-26T10:40:16Z</time>
      </trkpt>
      <trkpt lat="48.53524" lon="1.96081">
        <ele>143.85</ele>
        <time>2017-11-26T10:40:18Z</time>
      </trkpt>
      <trkpt lat="48.53523" lon="1.96088">
        <ele>143.94</ele>
        <time>2017-11-26T10:40:20Z</time>
      </trkpt>
      <trkpt lat="48.53522" lon="1.96096">
        <ele>143.8</ele>
        <time>2017-11-26T10:40:22Z</time>
      </trkpt>
      <trkpt lat="48.53519" lon="1.96103">
        <ele>143.57</ele>
        <time>2017-11-26T10:40:24Z</time>
      </trkpt>
      <trkpt lat="48.53517" lon="1.9611">
        <ele>143.32</ele>
        <time>2017-11-26T10:40:26Z</time>
      </trkpt>
      <trkpt lat="48.53517" lon="1.96117">
        <ele>143.26</ele>
        <time>2017-11-26T10:40:28Z</time>
      </trkpt>
      <trkpt lat="48.53516" lon="1.96124">
        <ele>143.22</ele>
        <time>2017-11-26T10:40:30Z</time>
      </trkpt>
      <trkpt lat="48.53514" lon="1.96132">
        <ele>143.12</ele>
        <time>2017-11-26T10:40:32Z</time>
      </trkpt>
      <trkpt lat="48.53513" lon="1.9614">
        <ele>143.05</ele>
        <time>2017-11-26T10:40:34Z</time>
      </trkpt>
      <trkpt lat="48.53512" lon="1.96154">
        <ele>143.04</ele>
        <time>2017-11-26T10:40:36Z</time>
      </trkpt>
      <trkpt lat="48.53511" lon="1.9617">
        <ele>143.23</ele>
        <time>2017-11-26T10:40:38Z</time>
      </trkpt>
      <trkpt lat="48.53511" lon="1.96183">
        <ele>143.78</ele>
        <time>2017-11-26T10:40:40Z</time>
      </trkpt>
      <trkpt lat="48.53509" lon="1.96195">
        <ele>144.14</ele>
        <time>2017-11-26T10:40:42Z</time>
      </trkpt>
      <trkpt lat="48.53506" lon="1.96205">
        <ele>144.19</ele>
        <time>2017-11-26T10:40:44Z</time>
      </trkpt>
      <trkpt lat="48.53502" lon="1.96214">
        <ele>144.16</ele>
        <time>2017-11-26T10:40:46Z</time>
      </trkpt>
      <trkpt lat="48.53498" lon="1.96222">
        <ele>143.8</ele>
        <time>2017-11-26T10:40:48Z</time>
      </trkpt>
      <trkpt lat="48.53493" lon="1.96235">
        <ele>143.04</ele>
        <time>2017-11-26T10:40:50Z</time>
      </trkpt>
      <trkpt lat="48.53488" lon="1.9625">
        <ele>142.63</ele>
        <time>2017-11-26T10:40:52Z</time>
      </trkpt>
      <trkpt lat="48.53483" lon="1.96264">
        <ele>142.88</ele>
        <time>2017-11-26T10:40:54Z</time>
      </trkpt>
      <trkpt lat="48.53479" lon="1.96274">
        <ele>142.78</ele>
        <time>2017-11-26T10:40:56Z</time>
      </trkpt>
      <trkpt lat="48.53475" lon="1.96285">
        <ele>143.08</ele>
        <time>2017-11-26T10:40:58Z</time>
      </trkpt>
      <trkpt lat="48.53472" lon="1.96295">
        <ele>143.39</ele>
        <time>2017-11-26T10:41:00Z</time>
      </trkpt>
      <trkpt lat="48.53469" lon="1.96305">
        <ele>143.87</ele>
        <time>2017-11-26T10:41:02Z</time>
      </trkpt>
      <trkpt lat="48.53465" lon="1.96314">
        <ele>144.06</ele>
        <time>2017-11-26T10:41:04Z</time>
      </trkpt>
      <trkpt lat="48.53462" lon="1.96323">
        <ele>144.44</ele>
        <time>2017-11-26T10:41:06Z</time>
      </trkpt>
      <trkpt lat="48.53458" lon="1.96332">
        <ele>144.91</ele>
        <time>2017-11-26T10:41:08Z</time>
      </trkpt>
      <trkpt lat="48.53456" lon="1.96341">
        <ele>145.44</ele>
        <time>2017-11-26T10:41:10Z</time>
      </trkpt>
      <trkpt lat="48.53462" lon="1.96344">
        <ele>147.02</ele>
        <time>2017-11-26T10:41:18Z</time>
      </trkpt>
      <trkpt lat="48.53469" lon="1.96346">
        <ele>148.5</ele>
        <time>2017-11-26T10:41:22Z</time>
      </trkpt>
      <trkpt lat="48.53476" lon="1.96347">
        <ele>150.09</ele>
        <time>2017-11-26T10:41:26Z</time>
      </trkpt>
      <trkpt lat="48.53483" lon="1.96349">
        <ele>151.78</ele>
        <time>2017-11-26T10:41:30Z</time>
      </trkpt>
      <trkpt lat="48.53489" lon="1.96353">
        <ele>153.2</ele>
        <time>2017-11-26T10:41:34Z</time>
      </trkpt>
      <trkpt lat="48.53494" lon="1.96352">
        <ele>154.26</ele>
        <time>2017-11-26T10:41:38Z</time>
      </trkpt>
      <trkpt lat="48.535" lon="1.96354">
        <ele>155.44</ele>
        <time>2017-11-26T10:41:42Z</time>
      </trkpt>
      <trkpt lat="48.53506" lon="1.96356">
        <ele>155.78</ele>
        <time>2017-11-26T10:41:48Z</time>
      </trkpt>
      <trkpt lat="48.5351" lon="1.96359">
        <ele>156.06</ele>
        <time>2017-11-26T10:41:52Z</time>
      </trkpt>
      <trkpt lat="48.53515" lon="1.96362">
        <ele>156.32</ele>
        <time>2017-11-26T10:41:56Z</time>
      </trkpt>
      <trkpt lat="48.53521" lon="1.96369">
        <ele>156.78</ele>
        <time>2017-11-26T10:42:00Z</time>
      </trkpt>
      <trkpt lat="48.53528" lon="1.96371">
        <ele>156.93</ele>
        <time>2017-11-26T10:42:04Z</time>
      </trkpt>
      <trkpt lat="48.53532" lon="1.96371">
        <ele>157.02</ele>
        <time>2017-11-26T10:42:08Z</time>
      </trkpt>
      <trkpt lat="48.53537" lon="1.96373">
        <ele>157.13</ele>
        <time>2017-11-26T10:42:16Z</time>
      </trkpt>
      <trkpt lat="48.5354" lon="1.96379">
        <ele>157.42</ele>
        <time>2017-11-26T10:42:24Z</time>
      </trkpt>
      <trkpt lat="48.53548" lon="1.96383">
        <ele>157.57</ele>
        <time>2017-11-26T10:42:40Z</time>
      </trkpt>
      <trkpt lat="48.53552" lon="1.96384">
        <ele>157.63</ele>
        <time>2017-11-26T10:42:42Z</time>
      </trkpt>
      <trkpt lat="48.53563" lon="1.96393">
        <ele>157.85</ele>
        <time>2017-11-26T10:42:46Z</time>
      </trkpt>
      <trkpt lat="48.53567" lon="1.96396">
        <ele>157.89</ele>
        <time>2017-11-26T10:42:48Z</time>
      </trkpt>
      <trkpt lat="48.53574" lon="1.96398">
        <ele>157.88</ele>
        <time>2017-11-26T10:42:52Z</time>
      </trkpt>
      <trkpt lat="48.53578" lon="1.96401">
        <ele>157.88</ele>
        <time>2017-11-26T10:42:54Z</time>
      </trkpt>
      <trkpt lat="48.53585" lon="1.96408">
        <ele>157.81</ele>
        <time>2017-11-26T10:42:55Z</time>
      </trkpt>
      <trkpt lat="48.53593" lon="1.96415">
        <ele>157.54</ele>
        <time>2017-11-26T10:42:58Z</time>
      </trkpt>
      <trkpt lat="48.53599" lon="1.96421">
        <ele>157.41</ele>
        <time>2017-11-26T10:43:00Z</time>
      </trkpt>
      <trkpt lat="48.53604" lon="1.96425">
        <ele>157.29</ele>
        <time>2017-11-26T10:43:02Z</time>
      </trkpt>
      <trkpt lat="48.53608" lon="1.96429">
        <ele>157.21</ele>
        <time>2017-11-26T10:43:04Z</time>
      </trkpt>
      <trkpt lat="48.53613" lon="1.96432">
        <ele>157.07</ele>
        <time>2017-11-26T10:43:06Z</time>
      </trkpt>
      <trkpt lat="48.53639" lon="1.9646">
        <ele>156.56</ele>
        <time>2017-11-26T10:43:20Z</time>
      </trkpt>
      <trkpt lat="48.53644" lon="1.96459">
        <ele>156.24</ele>
        <time>2017-11-26T10:43:27Z</time>
      </trkpt>
      <trkpt lat="48.53649" lon="1.96461">
        <ele>156</ele>
        <time>2017-11-26T10:43:29Z</time>
      </trkpt>
      <trkpt lat="48.53655" lon="1.96464">
        <ele>155.78</ele>
        <time>2017-11-26T10:43:31Z</time>
      </trkpt>
      <trkpt lat="48.53663" lon="1.96466">
        <ele>155.39</ele>
        <time>2017-11-26T10:43:35Z</time>
      </trkpt>
      <trkpt lat="48.53671" lon="1.96472">
        <ele>155.4</ele>
        <time>2017-11-26T10:43:39Z</time>
      </trkpt>
      <trkpt lat="48.53677" lon="1.96477">
        <ele>155.61</ele>
        <time>2017-11-26T10:43:43Z</time>
      </trkpt>
      <trkpt lat="48.53683" lon="1.96482">
        <ele>155.8</ele>
        <time>2017-11-26T10:43:47Z</time>
      </trkpt>
      <trkpt lat="48.53689" lon="1.96487">
        <ele>156.01</ele>
        <time>2017-11-26T10:43:51Z</time>
      </trkpt>
      <trkpt lat="48.53695" lon="1.96491">
        <ele>156.17</ele>
        <time>2017-11-26T10:43:55Z</time>
      </trkpt>
      <trkpt lat="48.53699" lon="1.96496">
        <ele>156.3</ele>
        <time>2017-11-26T10:43:59Z</time>
      </trkpt>
      <trkpt lat="48.53699" lon="1.96503">
        <ele>156.37</ele>
        <time>2017-11-26T10:44:03Z</time>
      </trkpt>
      <trkpt lat="48.53704" lon="1.96504">
        <ele>156.43</ele>
        <time>2017-11-26T10:44:07Z</time>
      </trkpt>
      <trkpt lat="48.5371" lon="1.96505">
        <ele>156.49</ele>
        <time>2017-11-26T10:44:11Z</time>
      </trkpt>
      <trkpt lat="48.53715" lon="1.96506">
        <ele>156.54</ele>
        <time>2017-11-26T10:44:15Z</time>
      </trkpt>
      <trkpt lat="48.5372" lon="1.9651">
        <ele>156.56</ele>
        <time>2017-11-26T10:44:19Z</time>
      </trkpt>
      <trkpt lat="48.53725" lon="1.96516">
        <ele>156.57</ele>
        <time>2017-11-26T10:44:23Z</time>
      </trkpt>
      <trkpt lat="48.53732" lon="1.9652">
        <ele>156.6</ele>
        <time>2017-11-26T10:44:27Z</time>
      </trkpt>
      <trkpt lat="48.53738" lon="1.96523">
        <ele>156.62</ele>
        <time>2017-11-26T10:44:31Z</time>
      </trkpt>
      <trkpt lat="48.53744" lon="1.9653">
        <ele>156.6</ele>
        <time>2017-11-26T10:44:35Z</time>
      </trkpt>
      <trkpt lat="48.5375" lon="1.96536">
        <ele>156.56</ele>
        <time>2017-11-26T10:44:39Z</time>
      </trkpt>
      <trkpt lat="48.53755" lon="1.96544">
        <ele>156.8</ele>
        <time>2017-11-26T10:44:43Z</time>
      </trkpt>
      <trkpt lat="48.53761" lon="1.9655">
        <ele>157.21</ele>
        <time>2017-11-26T10:44:47Z</time>
      </trkpt>
      <trkpt lat="48.53767" lon="1.96553">
        <ele>157.64</ele>
        <time>2017-11-26T10:44:51Z</time>
      </trkpt>
      <trkpt lat="48.53772" lon="1.96558">
        <ele>157.98</ele>
        <time>2017-11-26T10:44:55Z</time>
      </trkpt>
      <trkpt lat="48.5378" lon="1.96561">
        <ele>158.57</ele>
        <time>2017-11-26T10:44:59Z</time>
      </trkpt>
      <trkpt lat="48.53788" lon="1.9656">
        <ele>159.18</ele>
        <time>2017-11-26T10:45:03Z</time>
      </trkpt>
      <trkpt lat="48.53795" lon="1.96568">
        <ele>159.75</ele>
        <time>2017-11-26T10:45:07Z</time>
      </trkpt>
      <trkpt lat="48.53803" lon="1.96573">
        <ele>160.41</ele>
        <time>2017-11-26T10:45:11Z</time>
      </trkpt>
      <trkpt lat="48.53808" lon="1.96577">
        <ele>160.81</ele>
        <time>2017-11-26T10:45:13Z</time>
      </trkpt>
      <trkpt lat="48.53813" lon="1.96581">
        <ele>161.24</ele>
        <time>2017-11-26T10:45:15Z</time>
      </trkpt>
      <trkpt lat="48.53817" lon="1.96584">
        <ele>161.62</ele>
        <time>2017-11-26T10:45:17Z</time>
      </trkpt>
      <trkpt lat="48.53822" lon="1.96588">
        <ele>161.9</ele>
        <time>2017-11-26T10:45:19Z</time>
      </trkpt>
      <trkpt lat="48.53826" lon="1.96592">
        <ele>162.18</ele>
        <time>2017-11-26T10:45:21Z</time>
      </trkpt>
      <trkpt lat="48.5383" lon="1.96596">
        <ele>162.43</ele>
        <time>2017-11-26T10:45:23Z</time>
      </trkpt>
      <trkpt lat="48.53835" lon="1.966">
        <ele>162.61</ele>
        <time>2017-11-26T10:45:25Z</time>
      </trkpt>
      <trkpt lat="48.53843" lon="1.96604">
        <ele>162.54</ele>
        <time>2017-11-26T10:45:27Z</time>
      </trkpt>
      <trkpt lat="48.5385" lon="1.96609">
        <ele>162.45</ele>
        <time>2017-11-26T10:45:29Z</time>
      </trkpt>
      <trkpt lat="48.53857" lon="1.96613">
        <ele>162.38</ele>
        <time>2017-11-26T10:45:31Z</time>
      </trkpt>
      <trkpt lat="48.53861" lon="1.96616">
        <ele>162.34</ele>
        <time>2017-11-26T10:45:33Z</time>
      </trkpt>
      <trkpt lat="48.53866" lon="1.9662">
        <ele>162.3</ele>
        <time>2017-11-26T10:45:35Z</time>
      </trkpt>
      <trkpt lat="48.53872" lon="1.96623">
        <ele>162.27</ele>
        <time>2017-11-26T10:45:37Z</time>
      </trkpt>
      <trkpt lat="48.53877" lon="1.96625">
        <ele>162.26</ele>
        <time>2017-11-26T10:45:39Z</time>
      </trkpt>
      <trkpt lat="48.53882" lon="1.96626">
        <ele>162.28</ele>
        <time>2017-11-26T10:45:41Z</time>
      </trkpt>
      <trkpt lat="48.53887" lon="1.96629">
        <ele>162.25</ele>
        <time>2017-11-26T10:45:43Z</time>
      </trkpt>
      <trkpt lat="48.5389" lon="1.96634">
        <ele>162.2</ele>
        <time>2017-11-26T10:45:45Z</time>
      </trkpt>
      <trkpt lat="48.53894" lon="1.96639">
        <ele>162.16</ele>
        <time>2017-11-26T10:45:47Z</time>
      </trkpt>
      <trkpt lat="48.53902" lon="1.96646">
        <ele>162.12</ele>
        <time>2017-11-26T10:45:51Z</time>
      </trkpt>
      <trkpt lat="48.53908" lon="1.96651">
        <ele>162.1</ele>
        <time>2017-11-26T10:45:53Z</time>
      </trkpt>
      <trkpt lat="48.53915" lon="1.96656">
        <ele>162.11</ele>
        <time>2017-11-26T10:45:55Z</time>
      </trkpt>
      <trkpt lat="48.53922" lon="1.96661">
        <ele>162</ele>
        <time>2017-11-26T10:45:57Z</time>
      </trkpt>
      <trkpt lat="48.53928" lon="1.96664">
        <ele>161.89</ele>
        <time>2017-11-26T10:45:59Z</time>
      </trkpt>
      <trkpt lat="48.53935" lon="1.96669">
        <ele>161.82</ele>
        <time>2017-11-26T10:46:01Z</time>
      </trkpt>
      <trkpt lat="48.53941" lon="1.96675">
        <ele>161.87</ele>
        <time>2017-11-26T10:46:03Z</time>
      </trkpt>
      <trkpt lat="48.53946" lon="1.96681">
        <ele>161.93</ele>
        <time>2017-11-26T10:46:05Z</time>
      </trkpt>
      <trkpt lat="48.53952" lon="1.96685">
        <ele>161.99</ele>
        <time>2017-11-26T10:46:07Z</time>
      </trkpt>
      <trkpt lat="48.53957" lon="1.96687">
        <ele>162.01</ele>
        <time>2017-11-26T10:46:09Z</time>
      </trkpt>
      <trkpt lat="48.53962" lon="1.96693">
        <ele>162.1</ele>
        <time>2017-11-26T10:46:13Z</time>
      </trkpt>
      <trkpt lat="48.53967" lon="1.96696">
        <ele>162.17</ele>
        <time>2017-11-26T10:46:17Z</time>
      </trkpt>
      <trkpt lat="48.53971" lon="1.967">
        <ele>162.28</ele>
        <time>2017-11-26T10:46:21Z</time>
      </trkpt>
      <trkpt lat="48.53976" lon="1.96705">
        <ele>162.4</ele>
        <time>2017-11-26T10:46:23Z</time>
      </trkpt>
      <trkpt lat="48.53981" lon="1.9671">
        <ele>162.54</ele>
        <time>2017-11-26T10:46:29Z</time>
      </trkpt>
      <trkpt lat="48.53985" lon="1.96713">
        <ele>162.64</ele>
        <time>2017-11-26T10:46:39Z</time>
      </trkpt>
      <trkpt lat="48.5399" lon="1.96713">
        <ele>162.65</ele>
        <time>2017-11-26T10:46:43Z</time>
      </trkpt>
      <trkpt lat="48.53997" lon="1.96713">
        <ele>162.66</ele>
        <time>2017-11-26T10:46:47Z</time>
      </trkpt>
      <trkpt lat="48.54004" lon="1.96719">
        <ele>162.75</ele>
        <time>2017-11-26T10:46:51Z</time>
      </trkpt>
      <trkpt lat="48.54008" lon="1.96723">
        <ele>162.74</ele>
        <time>2017-11-26T10:46:53Z</time>
      </trkpt>
      <trkpt lat="48.54013" lon="1.96727">
        <ele>162.67</ele>
        <time>2017-11-26T10:46:55Z</time>
      </trkpt>
      <trkpt lat="48.54018" lon="1.96731">
        <ele>162.6</ele>
        <time>2017-11-26T10:46:57Z</time>
      </trkpt>
      <trkpt lat="48.54023" lon="1.96735">
        <ele>162.5</ele>
        <time>2017-11-26T10:46:59Z</time>
      </trkpt>
      <trkpt lat="48.54029" lon="1.96739">
        <ele>162.36</ele>
        <time>2017-11-26T10:47:01Z</time>
      </trkpt>
      <trkpt lat="48.54034" lon="1.96742">
        <ele>162.2</ele>
        <time>2017-11-26T10:47:03Z</time>
      </trkpt>
      <trkpt lat="48.54039" lon="1.96746">
        <ele>162.07</ele>
        <time>2017-11-26T10:47:05Z</time>
      </trkpt>
      <trkpt lat="48.54046" lon="1.96752">
        <ele>161.88</ele>
        <time>2017-11-26T10:47:07Z</time>
      </trkpt>
      <trkpt lat="48.54054" lon="1.96757">
        <ele>161.72</ele>
        <time>2017-11-26T10:47:09Z</time>
      </trkpt>
      <trkpt lat="48.54062" lon="1.96763">
        <ele>161.71</ele>
        <time>2017-11-26T10:47:11Z</time>
      </trkpt>
      <trkpt lat="48.54067" lon="1.96768">
        <ele>161.75</ele>
        <time>2017-11-26T10:47:13Z</time>
      </trkpt>
      <trkpt lat="48.54073" lon="1.96772">
        <ele>161.73</ele>
        <time>2017-11-26T10:47:15Z</time>
      </trkpt>
      <trkpt lat="48.54079" lon="1.96776">
        <ele>161.71</ele>
        <time>2017-11-26T10:47:17Z</time>
      </trkpt>
      <trkpt lat="48.54086" lon="1.96779">
        <ele>161.74</ele>
        <time>2017-11-26T10:47:19Z</time>
      </trkpt>
      <trkpt lat="48.54092" lon="1.96784">
        <ele>161.89</ele>
        <time>2017-11-26T10:47:21Z</time>
      </trkpt>
      <trkpt lat="48.54098" lon="1.96788">
        <ele>162.03</ele>
        <time>2017-11-26T10:47:23Z</time>
      </trkpt>
      <trkpt lat="48.54103" lon="1.96793">
        <ele>162.19</ele>
        <time>2017-11-26T10:47:25Z</time>
      </trkpt>
      <trkpt lat="48.54109" lon="1.96798">
        <ele>162.35</ele>
        <time>2017-11-26T10:47:27Z</time>
      </trkpt>
      <trkpt lat="48.54114" lon="1.96803">
        <ele>162.48</ele>
        <time>2017-11-26T10:47:29Z</time>
      </trkpt>
      <trkpt lat="48.54121" lon="1.96811">
        <ele>162.66</ele>
        <time>2017-11-26T10:47:31Z</time>
      </trkpt>
      <trkpt lat="48.54129" lon="1.96817">
        <ele>162.72</ele>
        <time>2017-11-26T10:47:33Z</time>
      </trkpt>
      <trkpt lat="48.54136" lon="1.96822">
        <ele>162.7</ele>
        <time>2017-11-26T10:47:35Z</time>
      </trkpt>
      <trkpt lat="48.54142" lon="1.96826">
        <ele>162.65</ele>
        <time>2017-11-26T10:47:37Z</time>
      </trkpt>
      <trkpt lat="48.54148" lon="1.96828">
        <ele>162.51</ele>
        <time>2017-11-26T10:47:39Z</time>
      </trkpt>
      <trkpt lat="48.54152" lon="1.96831">
        <ele>162.45</ele>
        <time>2017-11-26T10:47:41Z</time>
      </trkpt>
      <trkpt lat="48.54157" lon="1.96835">
        <ele>162.41</ele>
        <time>2017-11-26T10:47:43Z</time>
      </trkpt>
      <trkpt lat="48.54161" lon="1.96841">
        <ele>162.49</ele>
        <time>2017-11-26T10:47:45Z</time>
      </trkpt>
      <trkpt lat="48.54166" lon="1.96847">
        <ele>162.5</ele>
        <time>2017-11-26T10:47:47Z</time>
      </trkpt>
      <trkpt lat="48.54173" lon="1.96853">
        <ele>162.68</ele>
        <time>2017-11-26T10:47:49Z</time>
      </trkpt>
      <trkpt lat="48.5418" lon="1.96856">
        <ele>162.78</ele>
        <time>2017-11-26T10:47:51Z</time>
      </trkpt>
      <trkpt lat="48.54187" lon="1.96861">
        <ele>162.9</ele>
        <time>2017-11-26T10:47:53Z</time>
      </trkpt>
      <trkpt lat="48.54197" lon="1.96869">
        <ele>163.14</ele>
        <time>2017-11-26T10:47:55Z</time>
      </trkpt>
      <trkpt lat="48.54204" lon="1.96876">
        <ele>163.32</ele>
        <time>2017-11-26T10:47:57Z</time>
      </trkpt>
      <trkpt lat="48.54211" lon="1.96882">
        <ele>163.43</ele>
        <time>2017-11-26T10:47:59Z</time>
      </trkpt>
      <trkpt lat="48.54218" lon="1.96887">
        <ele>163.55</ele>
        <time>2017-11-26T10:48:01Z</time>
      </trkpt>
      <trkpt lat="48.54224" lon="1.96892">
        <ele>163.64</ele>
        <time>2017-11-26T10:48:03Z</time>
      </trkpt>
      <trkpt lat="48.5423" lon="1.96896">
        <ele>163.69</ele>
        <time>2017-11-26T10:48:05Z</time>
      </trkpt>
      <trkpt lat="48.54237" lon="1.96899">
        <ele>163.69</ele>
        <time>2017-11-26T10:48:07Z</time>
      </trkpt>
      <trkpt lat="48.54244" lon="1.96898">
        <ele>163.61</ele>
        <time>2017-11-26T10:48:09Z</time>
      </trkpt>
      <trkpt lat="48.54251" lon="1.96894">
        <ele>163.49</ele>
        <time>2017-11-26T10:48:11Z</time>
      </trkpt>
      <trkpt lat="48.54255" lon="1.96888">
        <ele>163.44</ele>
        <time>2017-11-26T10:48:13Z</time>
      </trkpt>
      <trkpt lat="48.54258" lon="1.9688">
        <ele>163.36</ele>
        <time>2017-11-26T10:48:15Z</time>
      </trkpt>
      <trkpt lat="48.54261" lon="1.96873">
        <ele>163.28</ele>
        <time>2017-11-26T10:48:17Z</time>
      </trkpt>
      <trkpt lat="48.54264" lon="1.96866">
        <ele>163.22</ele>
        <time>2017-11-26T10:48:19Z</time>
      </trkpt>
      <trkpt lat="48.54267" lon="1.96858">
        <ele>163.16</ele>
        <time>2017-11-26T10:48:21Z</time>
      </trkpt>
      <trkpt lat="48.5427" lon="1.9685">
        <ele>163.06</ele>
        <time>2017-11-26T10:48:23Z</time>
      </trkpt>
      <trkpt lat="48.54273" lon="1.96841">
        <ele>162.98</ele>
        <time>2017-11-26T10:48:25Z</time>
      </trkpt>
      <trkpt lat="48.54276" lon="1.96833">
        <ele>162.92</ele>
        <time>2017-11-26T10:48:27Z</time>
      </trkpt>
      <trkpt lat="48.5428" lon="1.96825">
        <ele>162.97</ele>
        <time>2017-11-26T10:48:28Z</time>
      </trkpt>
      <trkpt lat="48.54284" lon="1.96816">
        <ele>163</ele>
        <time>2017-11-26T10:48:31Z</time>
      </trkpt>
      <trkpt lat="48.54287" lon="1.96807">
        <ele>163.03</ele>
        <time>2017-11-26T10:48:33Z</time>
      </trkpt>
      <trkpt lat="48.54291" lon="1.96797">
        <ele>163.05</ele>
        <time>2017-11-26T10:48:35Z</time>
      </trkpt>
      <trkpt lat="48.54294" lon="1.96787">
        <ele>163.04</ele>
        <time>2017-11-26T10:48:37Z</time>
      </trkpt>
      <trkpt lat="48.54297" lon="1.96777">
        <ele>163.03</ele>
        <time>2017-11-26T10:48:39Z</time>
      </trkpt>
      <trkpt lat="48.54302" lon="1.96766">
        <ele>163.06</ele>
        <time>2017-11-26T10:48:40Z</time>
      </trkpt>
      <trkpt lat="48.54306" lon="1.96755">
        <ele>163.09</ele>
        <time>2017-11-26T10:48:43Z</time>
      </trkpt>
      <trkpt lat="48.5431" lon="1.96743">
        <ele>163.12</ele>
        <time>2017-11-26T10:48:45Z</time>
      </trkpt>
      <trkpt lat="48.54315" lon="1.96731">
        <ele>163.17</ele>
        <time>2017-11-26T10:48:47Z</time>
      </trkpt>
      <trkpt lat="48.54319" lon="1.96719">
        <ele>163.19</ele>
        <time>2017-11-26T10:48:49Z</time>
      </trkpt>
      <trkpt lat="48.54323" lon="1.96709">
        <ele>163.2</ele>
        <time>2017-11-26T10:48:51Z</time>
      </trkpt>
      <trkpt lat="48.54331" lon="1.96693">
        <ele>163.25</ele>
        <time>2017-11-26T10:48:55Z</time>
      </trkpt>
      <trkpt lat="48.54335" lon="1.96684">
        <ele>163.27</ele>
        <time>2017-11-26T10:48:57Z</time>
      </trkpt>
      <trkpt lat="48.54338" lon="1.96676">
        <ele>163.33</ele>
        <time>2017-11-26T10:48:59Z</time>
      </trkpt>
      <trkpt lat="48.54341" lon="1.96667">
        <ele>163.39</ele>
        <time>2017-11-26T10:49:01Z</time>
      </trkpt>
      <trkpt lat="48.54344" lon="1.96658">
        <ele>163.43</ele>
        <time>2017-11-26T10:49:03Z</time>
      </trkpt>
      <trkpt lat="48.54348" lon="1.96649">
        <ele>163.49</ele>
        <time>2017-11-26T10:49:04Z</time>
      </trkpt>
      <trkpt lat="48.54351" lon="1.9664">
        <ele>163.51</ele>
        <time>2017-11-26T10:49:07Z</time>
      </trkpt>
      <trkpt lat="48.54353" lon="1.9663">
        <ele>163.52</ele>
        <time>2017-11-26T10:49:09Z</time>
      </trkpt>
      <trkpt lat="48.54357" lon="1.96619">
        <ele>163.55</ele>
        <time>2017-11-26T10:49:11Z</time>
      </trkpt>
      <trkpt lat="48.5436" lon="1.96608">
        <ele>163.58</ele>
        <time>2017-11-26T10:49:13Z</time>
      </trkpt>
      <trkpt lat="48.54363" lon="1.96597">
        <ele>163.57</ele>
        <time>2017-11-26T10:49:15Z</time>
      </trkpt>
      <trkpt lat="48.54369" lon="1.9657">
        <ele>163.91</ele>
        <time>2017-11-26T10:49:19Z</time>
      </trkpt>
      <trkpt lat="48.54374" lon="1.96561">
        <ele>164.22</ele>
        <time>2017-11-26T10:49:21Z</time>
      </trkpt>
      <trkpt lat="48.54379" lon="1.96554">
        <ele>164.5</ele>
        <time>2017-11-26T10:49:23Z</time>
      </trkpt>
      <trkpt lat="48.54382" lon="1.96545">
        <ele>164.72</ele>
        <time>2017-11-26T10:49:25Z</time>
      </trkpt>
      <trkpt lat="48.54385" lon="1.96534">
        <ele>164.92</ele>
        <time>2017-11-26T10:49:27Z</time>
      </trkpt>
      <trkpt lat="48.54391" lon="1.96513">
        <ele>165.29</ele>
        <time>2017-11-26T10:49:30Z</time>
      </trkpt>
      <trkpt lat="48.54394" lon="1.96503">
        <ele>165.43</ele>
        <time>2017-11-26T10:49:34Z</time>
      </trkpt>
      <trkpt lat="48.54397" lon="1.96497">
        <ele>165.48</ele>
        <time>2017-11-26T10:49:36Z</time>
      </trkpt>
      <trkpt lat="48.544" lon="1.96488">
        <ele>165.46</ele>
        <time>2017-11-26T10:49:38Z</time>
      </trkpt>
      <trkpt lat="48.54434" lon="1.964">
        <ele>165.59</ele>
        <time>2017-11-26T10:49:51Z</time>
      </trkpt>
      <trkpt lat="48.54439" lon="1.96387">
        <ele>165.8</ele>
        <time>2017-11-26T10:49:54Z</time>
      </trkpt>
      <trkpt lat="48.54442" lon="1.96377">
        <ele>165.94</ele>
        <time>2017-11-26T10:49:56Z</time>
      </trkpt>
      <trkpt lat="48.54446" lon="1.96369">
        <ele>166.08</ele>
        <time>2017-11-26T10:49:58Z</time>
      </trkpt>
      <trkpt lat="48.54449" lon="1.9636">
        <ele>166.19</ele>
        <time>2017-11-26T10:50:00Z</time>
      </trkpt>
      <trkpt lat="48.54452" lon="1.96351">
        <ele>166.3</ele>
        <time>2017-11-26T10:50:02Z</time>
      </trkpt>
      <trkpt lat="48.54455" lon="1.96342">
        <ele>166.41</ele>
        <time>2017-11-26T10:50:04Z</time>
      </trkpt>
      <trkpt lat="48.54458" lon="1.96333">
        <ele>166.5</ele>
        <time>2017-11-26T10:50:06Z</time>
      </trkpt>
      <trkpt lat="48.54461" lon="1.96324">
        <ele>166.75</ele>
        <time>2017-11-26T10:50:08Z</time>
      </trkpt>
      <trkpt lat="48.54464" lon="1.96315">
        <ele>167</ele>
        <time>2017-11-26T10:50:10Z</time>
      </trkpt>
      <trkpt lat="48.54467" lon="1.96306">
        <ele>167.25</ele>
        <time>2017-11-26T10:50:12Z</time>
      </trkpt>
      <trkpt lat="48.5447" lon="1.96298">
        <ele>167.49</ele>
        <time>2017-11-26T10:50:14Z</time>
      </trkpt>
      <trkpt lat="48.54473" lon="1.96289">
        <ele>167.74</ele>
        <time>2017-11-26T10:50:16Z</time>
      </trkpt>
      <trkpt lat="48.54476" lon="1.96279">
        <ele>168.01</ele>
        <time>2017-11-26T10:50:18Z</time>
      </trkpt>
      <trkpt lat="48.54479" lon="1.96269">
        <ele>168.29</ele>
        <time>2017-11-26T10:50:20Z</time>
      </trkpt>
      <trkpt lat="48.54482" lon="1.96259">
        <ele>168.57</ele>
        <time>2017-11-26T10:50:22Z</time>
      </trkpt>
      <trkpt lat="48.54485" lon="1.96248">
        <ele>168.85</ele>
        <time>2017-11-26T10:50:24Z</time>
      </trkpt>
      <trkpt lat="48.54487" lon="1.96239">
        <ele>169.01</ele>
        <time>2017-11-26T10:50:26Z</time>
      </trkpt>
      <trkpt lat="48.54488" lon="1.9623">
        <ele>169.14</ele>
        <time>2017-11-26T10:50:28Z</time>
      </trkpt>
      <trkpt lat="48.54489" lon="1.9622">
        <ele>169.28</ele>
        <time>2017-11-26T10:50:30Z</time>
      </trkpt>
      <trkpt lat="48.54493" lon="1.96212">
        <ele>169.41</ele>
        <time>2017-11-26T10:50:32Z</time>
      </trkpt>
      <trkpt lat="48.54496" lon="1.96205">
        <ele>169.52</ele>
        <time>2017-11-26T10:50:34Z</time>
      </trkpt>
      <trkpt lat="48.54499" lon="1.96196">
        <ele>169.64</ele>
        <time>2017-11-26T10:50:36Z</time>
      </trkpt>
      <trkpt lat="48.54503" lon="1.96187">
        <ele>169.68</ele>
        <time>2017-11-26T10:50:38Z</time>
      </trkpt>
      <trkpt lat="48.54507" lon="1.96179">
        <ele>169.7</ele>
        <time>2017-11-26T10:50:40Z</time>
      </trkpt>
      <trkpt lat="48.54511" lon="1.96169">
        <ele>169.71</ele>
        <time>2017-11-26T10:50:42Z</time>
      </trkpt>
      <trkpt lat="48.54514" lon="1.9616">
        <ele>169.74</ele>
        <time>2017-11-26T10:50:44Z</time>
      </trkpt>
      <trkpt lat="48.54519" lon="1.96148">
        <ele>169.77</ele>
        <time>2017-11-26T10:50:46Z</time>
      </trkpt>
      <trkpt lat="48.54522" lon="1.96138">
        <ele>169.82</ele>
        <time>2017-11-26T10:50:48Z</time>
      </trkpt>
      <trkpt lat="48.54524" lon="1.96128">
        <ele>169.88</ele>
        <time>2017-11-26T10:50:50Z</time>
      </trkpt>
      <trkpt lat="48.54527" lon="1.96117">
        <ele>169.95</ele>
        <time>2017-11-26T10:50:52Z</time>
      </trkpt>
      <trkpt lat="48.5453" lon="1.96108">
        <ele>169.99</ele>
        <time>2017-11-26T10:50:54Z</time>
      </trkpt>
      <trkpt lat="48.54533" lon="1.96098">
        <ele>170.02</ele>
        <time>2017-11-26T10:50:56Z</time>
      </trkpt>
      <trkpt lat="48.54537" lon="1.96089">
        <ele>170.04</ele>
        <time>2017-11-26T10:50:58Z</time>
      </trkpt>
      <trkpt lat="48.54541" lon="1.96079">
        <ele>170</ele>
        <time>2017-11-26T10:51:00Z</time>
      </trkpt>
      <trkpt lat="48.54545" lon="1.96071">
        <ele>169.83</ele>
        <time>2017-11-26T10:51:02Z</time>
      </trkpt>
      <trkpt lat="48.54549" lon="1.96063">
        <ele>169.65</ele>
        <time>2017-11-26T10:51:04Z</time>
      </trkpt>
      <trkpt lat="48.5455" lon="1.96052">
        <ele>169.49</ele>
        <time>2017-11-26T10:51:06Z</time>
      </trkpt>
      <trkpt lat="48.54549" lon="1.96042">
        <ele>169.43</ele>
        <time>2017-11-26T10:51:08Z</time>
      </trkpt>
      <trkpt lat="48.54546" lon="1.96034">
        <ele>169.49</ele>
        <time>2017-11-26T10:51:10Z</time>
      </trkpt>
      <trkpt lat="48.54546" lon="1.96027">
        <ele>169.45</ele>
        <time>2017-11-26T10:51:12Z</time>
      </trkpt>
      <trkpt lat="48.54545" lon="1.96019">
        <ele>169.46</ele>
        <time>2017-11-26T10:51:18Z</time>
      </trkpt>
      <trkpt lat="48.54544" lon="1.96012">
        <ele>169.44</ele>
        <time>2017-11-26T10:51:22Z</time>
      </trkpt>
      <trkpt lat="48.54548" lon="1.96">
        <ele>169.15</ele>
        <time>2017-11-26T10:51:26Z</time>
      </trkpt>
      <trkpt lat="48.5455" lon="1.95991">
        <ele>168.98</ele>
        <time>2017-11-26T10:51:28Z</time>
      </trkpt>
      <trkpt lat="48.5455" lon="1.95983">
        <ele>168.9</ele>
        <time>2017-11-26T10:51:30Z</time>
      </trkpt>
      <trkpt lat="48.5455" lon="1.95975">
        <ele>168.87</ele>
        <time>2017-11-26T10:51:32Z</time>
      </trkpt>
      <trkpt lat="48.54549" lon="1.95967">
        <ele>168.88</ele>
        <time>2017-11-26T10:51:34Z</time>
      </trkpt>
      <trkpt lat="48.54549" lon="1.95958">
        <ele>168.85</ele>
        <time>2017-11-26T10:51:36Z</time>
      </trkpt>
      <trkpt lat="48.54548" lon="1.95951">
        <ele>168.86</ele>
        <time>2017-11-26T10:51:38Z</time>
      </trkpt>
      <trkpt lat="48.54548" lon="1.95942">
        <ele>168.82</ele>
        <time>2017-11-26T10:51:40Z</time>
      </trkpt>
      <trkpt lat="48.54549" lon="1.9593">
        <ele>168.73</ele>
        <time>2017-11-26T10:51:42Z</time>
      </trkpt>
      <trkpt lat="48.5455" lon="1.95918">
        <ele>168.61</ele>
        <time>2017-11-26T10:51:44Z</time>
      </trkpt>
      <trkpt lat="48.54552" lon="1.95906">
        <ele>168.55</ele>
        <time>2017-11-26T10:51:46Z</time>
      </trkpt>
      <trkpt lat="48.54555" lon="1.95888">
        <ele>168.45</ele>
        <time>2017-11-26T10:51:48Z</time>
      </trkpt>
      <trkpt lat="48.54558" lon="1.95873">
        <ele>168.44</ele>
        <time>2017-11-26T10:51:50Z</time>
      </trkpt>
      <trkpt lat="48.54559" lon="1.95861">
        <ele>168.45</ele>
        <time>2017-11-26T10:51:52Z</time>
      </trkpt>
      <trkpt lat="48.54561" lon="1.9585">
        <ele>168.46</ele>
        <time>2017-11-26T10:51:54Z</time>
      </trkpt>
      <trkpt lat="48.54563" lon="1.95839">
        <ele>168.46</ele>
        <time>2017-11-26T10:51:56Z</time>
      </trkpt>
      <trkpt lat="48.54564" lon="1.95829">
        <ele>168.58</ele>
        <time>2017-11-26T10:51:58Z</time>
      </trkpt>
      <trkpt lat="48.54566" lon="1.95819">
        <ele>168.82</ele>
        <time>2017-11-26T10:52:00Z</time>
      </trkpt>
      <trkpt lat="48.54568" lon="1.9581">
        <ele>169.07</ele>
        <time>2017-11-26T10:52:02Z</time>
      </trkpt>
      <trkpt lat="48.54571" lon="1.95801">
        <ele>169.3</ele>
        <time>2017-11-26T10:52:04Z</time>
      </trkpt>
      <trkpt lat="48.54573" lon="1.95791">
        <ele>169.59</ele>
        <time>2017-11-26T10:52:06Z</time>
      </trkpt>
      <trkpt lat="48.54574" lon="1.95781">
        <ele>169.9</ele>
        <time>2017-11-26T10:52:08Z</time>
      </trkpt>
      <trkpt lat="48.54572" lon="1.95769">
        <ele>170.26</ele>
        <time>2017-11-26T10:52:10Z</time>
      </trkpt>
      <trkpt lat="48.54573" lon="1.95755">
        <ele>170.72</ele>
        <time>2017-11-26T10:52:12Z</time>
      </trkpt>
      <trkpt lat="48.54576" lon="1.95739">
        <ele>171.03</ele>
        <time>2017-11-26T10:52:14Z</time>
      </trkpt>
      <trkpt lat="48.54578" lon="1.95724">
        <ele>171.23</ele>
        <time>2017-11-26T10:52:16Z</time>
      </trkpt>
      <trkpt lat="48.5458" lon="1.95712">
        <ele>171.41</ele>
        <time>2017-11-26T10:52:18Z</time>
      </trkpt>
      <trkpt lat="48.54583" lon="1.957">
        <ele>171.58</ele>
        <time>2017-11-26T10:52:20Z</time>
      </trkpt>
      <trkpt lat="48.54585" lon="1.95689">
        <ele>171.6</ele>
        <time>2017-11-26T10:52:22Z</time>
      </trkpt>
      <trkpt lat="48.54587" lon="1.95677">
        <ele>171.63</ele>
        <time>2017-11-26T10:52:24Z</time>
      </trkpt>
      <trkpt lat="48.54589" lon="1.95664">
        <ele>171.55</ele>
        <time>2017-11-26T10:52:26Z</time>
      </trkpt>
      <trkpt lat="48.54591" lon="1.95649">
        <ele>171.28</ele>
        <time>2017-11-26T10:52:28Z</time>
      </trkpt>
      <trkpt lat="48.54593" lon="1.95635">
        <ele>171.04</ele>
        <time>2017-11-26T10:52:30Z</time>
      </trkpt>
      <trkpt lat="48.54595" lon="1.95623">
        <ele>170.81</ele>
        <time>2017-11-26T10:52:32Z</time>
      </trkpt>
      <trkpt lat="48.54597" lon="1.95612">
        <ele>170.6</ele>
        <time>2017-11-26T10:52:34Z</time>
      </trkpt>
      <trkpt lat="48.54595" lon="1.9559">
        <ele>170.5</ele>
        <time>2017-11-26T10:52:36Z</time>
      </trkpt>
      <trkpt lat="48.54598" lon="1.95579">
        <ele>170.3</ele>
        <time>2017-11-26T10:52:38Z</time>
      </trkpt>
      <trkpt lat="48.54602" lon="1.95565">
        <ele>170.16</ele>
        <time>2017-11-26T10:52:40Z</time>
      </trkpt>
      <trkpt lat="48.54604" lon="1.95553">
        <ele>170.09</ele>
        <time>2017-11-26T10:52:42Z</time>
      </trkpt>
      <trkpt lat="48.54608" lon="1.95542">
        <ele>169.98</ele>
        <time>2017-11-26T10:52:44Z</time>
      </trkpt>
      <trkpt lat="48.54609" lon="1.95529">
        <ele>169.95</ele>
        <time>2017-11-26T10:52:46Z</time>
      </trkpt>
      <trkpt lat="48.54608" lon="1.9552">
        <ele>170.05</ele>
        <time>2017-11-26T10:52:48Z</time>
      </trkpt>
      <trkpt lat="48.54607" lon="1.95509">
        <ele>170.1</ele>
        <time>2017-11-26T10:52:50Z</time>
      </trkpt>
      <trkpt lat="48.54611" lon="1.95483">
        <ele>169.87</ele>
        <time>2017-11-26T10:52:52Z</time>
      </trkpt>
      <trkpt lat="48.54613" lon="1.9547">
        <ele>169.69</ele>
        <time>2017-11-26T10:52:54Z</time>
      </trkpt>
      <trkpt lat="48.54616" lon="1.95459">
        <ele>169.53</ele>
        <time>2017-11-26T10:52:56Z</time>
      </trkpt>
      <trkpt lat="48.54618" lon="1.95443">
        <ele>169.34</ele>
        <time>2017-11-26T10:52:58Z</time>
      </trkpt>
      <trkpt lat="48.54622" lon="1.95428">
        <ele>169.14</ele>
        <time>2017-11-26T10:53:00Z</time>
      </trkpt>
      <trkpt lat="48.54624" lon="1.95417">
        <ele>169.02</ele>
        <time>2017-11-26T10:53:02Z</time>
      </trkpt>
      <trkpt lat="48.54626" lon="1.95408">
        <ele>168.77</ele>
        <time>2017-11-26T10:53:04Z</time>
      </trkpt>
      <trkpt lat="48.54628" lon="1.95393">
        <ele>168.36</ele>
        <time>2017-11-26T10:53:06Z</time>
      </trkpt>
      <trkpt lat="48.54632" lon="1.95372">
        <ele>167.76</ele>
        <time>2017-11-26T10:53:08Z</time>
      </trkpt>
      <trkpt lat="48.54633" lon="1.95362">
        <ele>167.49</ele>
        <time>2017-11-26T10:53:10Z</time>
      </trkpt>
      <trkpt lat="48.54633" lon="1.95347">
        <ele>167.13</ele>
        <time>2017-11-26T10:53:12Z</time>
      </trkpt>
      <trkpt lat="48.54632" lon="1.95333">
        <ele>166.84</ele>
        <time>2017-11-26T10:53:14Z</time>
      </trkpt>
      <trkpt lat="48.54632" lon="1.95322">
        <ele>166.7</ele>
        <time>2017-11-26T10:53:16Z</time>
      </trkpt>
      <trkpt lat="48.54631" lon="1.95311">
        <ele>166.6</ele>
        <time>2017-11-26T10:53:18Z</time>
      </trkpt>
      <trkpt lat="48.5463" lon="1.95303">
        <ele>166.5</ele>
        <time>2017-11-26T10:53:20Z</time>
      </trkpt>
      <trkpt lat="48.54631" lon="1.95292">
        <ele>166.36</ele>
        <time>2017-11-26T10:53:22Z</time>
      </trkpt>
      <trkpt lat="48.54631" lon="1.95283">
        <ele>166.24</ele>
        <time>2017-11-26T10:53:24Z</time>
      </trkpt>
      <trkpt lat="48.54632" lon="1.95272">
        <ele>166.1</ele>
        <time>2017-11-26T10:53:26Z</time>
      </trkpt>
      <trkpt lat="48.54632" lon="1.9526">
        <ele>165.97</ele>
        <time>2017-11-26T10:53:28Z</time>
      </trkpt>
      <trkpt lat="48.54634" lon="1.95247">
        <ele>165.7</ele>
        <time>2017-11-26T10:53:30Z</time>
      </trkpt>
      <trkpt lat="48.5464" lon="1.95237">
        <ele>165.34</ele>
        <time>2017-11-26T10:53:32Z</time>
      </trkpt>
      <trkpt lat="48.54646" lon="1.95231">
        <ele>165.1</ele>
        <time>2017-11-26T10:53:34Z</time>
      </trkpt>
      <trkpt lat="48.54654" lon="1.95224">
        <ele>164.85</ele>
        <time>2017-11-26T10:53:36Z</time>
      </trkpt>
      <trkpt lat="48.5467" lon="1.95195">
        <ele>164.47</ele>
        <time>2017-11-26T10:53:38Z</time>
      </trkpt>
      <trkpt lat="48.54669" lon="1.95187">
        <ele>164.36</ele>
        <time>2017-11-26T10:53:40Z</time>
      </trkpt>
      <trkpt lat="48.54673" lon="1.95166">
        <ele>164.3</ele>
        <time>2017-11-26T10:53:46Z</time>
      </trkpt>
      <trkpt lat="48.54673" lon="1.95158">
        <ele>164.4</ele>
        <time>2017-11-26T10:53:48Z</time>
      </trkpt>
      <trkpt lat="48.54669" lon="1.95151">
        <ele>164.28</ele>
        <time>2017-11-26T10:53:50Z</time>
      </trkpt>
      <trkpt lat="48.54671" lon="1.95141">
        <ele>164.51</ele>
        <time>2017-11-26T10:53:52Z</time>
      </trkpt>
      <trkpt lat="48.54671" lon="1.95128">
        <ele>164.66</ele>
        <time>2017-11-26T10:53:54Z</time>
      </trkpt>
      <trkpt lat="48.5467" lon="1.95117">
        <ele>164.78</ele>
        <time>2017-11-26T10:53:56Z</time>
      </trkpt>
      <trkpt lat="48.54665" lon="1.95105">
        <ele>164.68</ele>
        <time>2017-11-26T10:54:00Z</time>
      </trkpt>
      <trkpt lat="48.54667" lon="1.9509">
        <ele>164.92</ele>
        <time>2017-11-26T10:54:04Z</time>
      </trkpt>
      <trkpt lat="48.54667" lon="1.95082">
        <ele>165.08</ele>
        <time>2017-11-26T10:54:06Z</time>
      </trkpt>
      <trkpt lat="48.54656" lon="1.95069">
        <ele>165.15</ele>
        <time>2017-11-26T10:54:10Z</time>
      </trkpt>
      <trkpt lat="48.54647" lon="1.95063">
        <ele>165.09</ele>
        <time>2017-11-26T10:54:12Z</time>
      </trkpt>
      <trkpt lat="48.54637" lon="1.95051">
        <ele>165.24</ele>
        <time>2017-11-26T10:54:14Z</time>
      </trkpt>
      <trkpt lat="48.54626" lon="1.95044">
        <ele>165.14</ele>
        <time>2017-11-26T10:54:16Z</time>
      </trkpt>
      <trkpt lat="48.54614" lon="1.95036">
        <ele>165.13</ele>
        <time>2017-11-26T10:54:18Z</time>
      </trkpt>
      <trkpt lat="48.54603" lon="1.95028">
        <ele>165.13</ele>
        <time>2017-11-26T10:54:20Z</time>
      </trkpt>
      <trkpt lat="48.54594" lon="1.95021">
        <ele>165.15</ele>
        <time>2017-11-26T10:54:22Z</time>
      </trkpt>
      <trkpt lat="48.54585" lon="1.95017">
        <ele>165.04</ele>
        <time>2017-11-26T10:54:24Z</time>
      </trkpt>
      <trkpt lat="48.54576" lon="1.95012">
        <ele>164.77</ele>
        <time>2017-11-26T10:54:26Z</time>
      </trkpt>
      <trkpt lat="48.54569" lon="1.95008">
        <ele>164.45</ele>
        <time>2017-11-26T10:54:28Z</time>
      </trkpt>
      <trkpt lat="48.54566" lon="1.95003">
        <ele>164.38</ele>
        <time>2017-11-26T10:54:30Z</time>
      </trkpt>
      <trkpt lat="48.54559" lon="1.95">
        <ele>163.96</ele>
        <time>2017-11-26T10:54:32Z</time>
      </trkpt>
      <trkpt lat="48.54554" lon="1.94994">
        <ele>163.82</ele>
        <time>2017-11-26T10:54:34Z</time>
      </trkpt>
      <trkpt lat="48.54546" lon="1.94988">
        <ele>163.35</ele>
        <time>2017-11-26T10:54:36Z</time>
      </trkpt>
      <trkpt lat="48.54537" lon="1.94982">
        <ele>162.83</ele>
        <time>2017-11-26T10:54:38Z</time>
      </trkpt>
      <trkpt lat="48.5452" lon="1.94974">
        <ele>161.68</ele>
        <time>2017-11-26T10:54:40Z</time>
      </trkpt>
      <trkpt lat="48.54508" lon="1.94969">
        <ele>160.79</ele>
        <time>2017-11-26T10:54:42Z</time>
      </trkpt>
      <trkpt lat="48.54496" lon="1.94962">
        <ele>160.08</ele>
        <time>2017-11-26T10:54:44Z</time>
      </trkpt>
      <trkpt lat="48.54485" lon="1.94951">
        <ele>159.54</ele>
        <time>2017-11-26T10:54:46Z</time>
      </trkpt>
      <trkpt lat="48.54475" lon="1.94939">
        <ele>158.85</ele>
        <time>2017-11-26T10:54:48Z</time>
      </trkpt>
      <trkpt lat="48.54467" lon="1.94931">
        <ele>158.26</ele>
        <time>2017-11-26T10:54:50Z</time>
      </trkpt>
      <trkpt lat="48.54454" lon="1.94922">
        <ele>157.02</ele>
        <time>2017-11-26T10:54:52Z</time>
      </trkpt>
      <trkpt lat="48.54441" lon="1.94919">
        <ele>155.61</ele>
        <time>2017-11-26T10:54:54Z</time>
      </trkpt>
      <trkpt lat="48.54424" lon="1.94912">
        <ele>153.91</ele>
        <time>2017-11-26T10:54:56Z</time>
      </trkpt>
      <trkpt lat="48.54416" lon="1.94904">
        <ele>153.33</ele>
        <time>2017-11-26T10:54:58Z</time>
      </trkpt>
      <trkpt lat="48.54409" lon="1.94899">
        <ele>152.81</ele>
        <time>2017-11-26T10:54:59Z</time>
      </trkpt>
      <trkpt lat="48.54415" lon="1.94895">
        <ele>153.62</ele>
        <time>2017-11-26T10:55:02Z</time>
      </trkpt>
      <trkpt lat="48.54415" lon="1.94884">
        <ele>153.96</ele>
        <time>2017-11-26T10:55:04Z</time>
      </trkpt>
      <trkpt lat="48.54407" lon="1.94882">
        <ele>153.24</ele>
        <time>2017-11-26T10:55:06Z</time>
      </trkpt>
      <trkpt lat="48.54398" lon="1.94877">
        <ele>152.39</ele>
        <time>2017-11-26T10:55:08Z</time>
      </trkpt>
      <trkpt lat="48.54386" lon="1.94873">
        <ele>151.23</ele>
        <time>2017-11-26T10:55:10Z</time>
      </trkpt>
      <trkpt lat="48.54339" lon="1.94821">
        <ele>148.8</ele>
        <time>2017-11-26T10:55:24Z</time>
      </trkpt>
      <trkpt lat="48.54332" lon="1.94821">
        <ele>148.09</ele>
        <time>2017-11-26T10:55:27Z</time>
      </trkpt>
      <trkpt lat="48.54328" lon="1.94812">
        <ele>148.52</ele>
        <time>2017-11-26T10:55:31Z</time>
      </trkpt>
      <trkpt lat="48.54324" lon="1.94804">
        <ele>148.82</ele>
        <time>2017-11-26T10:55:35Z</time>
      </trkpt>
      <trkpt lat="48.5432" lon="1.94801">
        <ele>148.68</ele>
        <time>2017-11-26T10:55:39Z</time>
      </trkpt>
      <trkpt lat="48.54317" lon="1.94791">
        <ele>149.15</ele>
        <time>2017-11-26T10:55:43Z</time>
      </trkpt>
      <trkpt lat="48.54314" lon="1.94781">
        <ele>149.84</ele>
        <time>2017-11-26T10:55:47Z</time>
      </trkpt>
      <trkpt lat="48.54314" lon="1.9477">
        <ele>150.85</ele>
        <time>2017-11-26T10:55:51Z</time>
      </trkpt>
      <trkpt lat="48.54314" lon="1.94755">
        <ele>152.27</ele>
        <time>2017-11-26T10:55:56Z</time>
      </trkpt>
      <trkpt lat="48.54309" lon="1.94746">
        <ele>152.58</ele>
        <time>2017-11-26T10:56:00Z</time>
      </trkpt>
      <trkpt lat="48.54304" lon="1.94741">
        <ele>152.5</ele>
        <time>2017-11-26T10:56:02Z</time>
      </trkpt>
      <trkpt lat="48.54298" lon="1.94737">
        <ele>152.35</ele>
        <time>2017-11-26T10:56:04Z</time>
      </trkpt>
      <trkpt lat="48.54293" lon="1.94734">
        <ele>152.14</ele>
        <time>2017-11-26T10:56:06Z</time>
      </trkpt>
      <trkpt lat="48.54287" lon="1.9473">
        <ele>151.93</ele>
        <time>2017-11-26T10:56:08Z</time>
      </trkpt>
      <trkpt lat="48.54281" lon="1.94727">
        <ele>151.68</ele>
        <time>2017-11-26T10:56:10Z</time>
      </trkpt>
      <trkpt lat="48.54275" lon="1.94724">
        <ele>151.46</ele>
        <time>2017-11-26T10:56:12Z</time>
      </trkpt>
      <trkpt lat="48.54269" lon="1.94721">
        <ele>151.2</ele>
        <time>2017-11-26T10:56:14Z</time>
      </trkpt>
      <trkpt lat="48.54263" lon="1.94718">
        <ele>150.98</ele>
        <time>2017-11-26T10:56:16Z</time>
      </trkpt>
      <trkpt lat="48.54257" lon="1.94715">
        <ele>150.78</ele>
        <time>2017-11-26T10:56:18Z</time>
      </trkpt>
      <trkpt lat="48.54251" lon="1.94713">
        <ele>150.51</ele>
        <time>2017-11-26T10:56:20Z</time>
      </trkpt>
      <trkpt lat="48.54229" lon="1.94705">
        <ele>149.73</ele>
        <time>2017-11-26T10:56:22Z</time>
      </trkpt>
      <trkpt lat="48.54222" lon="1.94703">
        <ele>149.52</ele>
        <time>2017-11-26T10:56:24Z</time>
      </trkpt>
      <trkpt lat="48.5422" lon="1.94696">
        <ele>150.26</ele>
        <time>2017-11-26T10:56:26Z</time>
      </trkpt>
      <trkpt lat="48.54219" lon="1.94689">
        <ele>151.08</ele>
        <time>2017-11-26T10:56:28Z</time>
      </trkpt>
      <trkpt lat="48.54221" lon="1.94679">
        <ele>152.59</ele>
        <time>2017-11-26T10:56:32Z</time>
      </trkpt>
      <trkpt lat="48.54225" lon="1.94672">
        <ele>153.82</ele>
        <time>2017-11-26T10:56:38Z</time>
      </trkpt>
      <trkpt lat="48.54228" lon="1.94665">
        <ele>155.05</ele>
        <time>2017-11-26T10:56:44Z</time>
      </trkpt>
      <trkpt lat="48.54233" lon="1.94661">
        <ele>155.79</ele>
        <time>2017-11-26T10:56:50Z</time>
      </trkpt>
      <trkpt lat="48.54237" lon="1.94656">
        <ele>156.45</ele>
        <time>2017-11-26T10:56:54Z</time>
      </trkpt>
      <trkpt lat="48.54239" lon="1.94649">
        <ele>157.09</ele>
        <time>2017-11-26T10:56:58Z</time>
      </trkpt>
      <trkpt lat="48.54242" lon="1.94643">
        <ele>157.77</ele>
        <time>2017-11-26T10:57:04Z</time>
      </trkpt>
      <trkpt lat="48.54248" lon="1.94637">
        <ele>158.59</ele>
        <time>2017-11-26T10:57:10Z</time>
      </trkpt>
      <trkpt lat="48.54252" lon="1.94632">
        <ele>159.18</ele>
        <time>2017-11-26T10:57:14Z</time>
      </trkpt>
      <trkpt lat="48.54257" lon="1.94627">
        <ele>159.88</ele>
        <time>2017-11-26T10:57:20Z</time>
      </trkpt>
      <trkpt lat="48.54263" lon="1.94623">
        <ele>160.41</ele>
        <time>2017-11-26T10:57:24Z</time>
      </trkpt>
      <trkpt lat="48.54269" lon="1.94617">
        <ele>161.15</ele>
        <time>2017-11-26T10:57:28Z</time>
      </trkpt>
      <trkpt lat="48.54274" lon="1.94612">
        <ele>161.77</ele>
        <time>2017-11-26T10:57:32Z</time>
      </trkpt>
      <trkpt lat="48.5428" lon="1.94608">
        <ele>162.26</ele>
        <time>2017-11-26T10:57:36Z</time>
      </trkpt>
      <trkpt lat="48.54285" lon="1.94607">
        <ele>162.65</ele>
        <time>2017-11-26T10:57:40Z</time>
      </trkpt>
      <trkpt lat="48.5429" lon="1.94602">
        <ele>163.14</ele>
        <time>2017-11-26T10:57:44Z</time>
      </trkpt>
      <trkpt lat="48.54295" lon="1.94598">
        <ele>163.59</ele>
        <time>2017-11-26T10:57:48Z</time>
      </trkpt>
      <trkpt lat="48.54301" lon="1.94591">
        <ele>164.14</ele>
        <time>2017-11-26T10:57:52Z</time>
      </trkpt>
      <trkpt lat="48.54306" lon="1.94586">
        <ele>164.63</ele>
        <time>2017-11-26T10:57:56Z</time>
      </trkpt>
      <trkpt lat="48.54312" lon="1.94577">
        <ele>165.12</ele>
        <time>2017-11-26T10:58:00Z</time>
      </trkpt>
      <trkpt lat="48.54317" lon="1.94567">
        <ele>165.59</ele>
        <time>2017-11-26T10:58:04Z</time>
      </trkpt>
      <trkpt lat="48.54321" lon="1.94557">
        <ele>165.98</ele>
        <time>2017-11-26T10:58:08Z</time>
      </trkpt>
      <trkpt lat="48.54325" lon="1.94548">
        <ele>166.42</ele>
        <time>2017-11-26T10:58:12Z</time>
      </trkpt>
      <trkpt lat="48.5433" lon="1.94537">
        <ele>166.9</ele>
        <time>2017-11-26T10:58:16Z</time>
      </trkpt>
      <trkpt lat="48.54334" lon="1.94529">
        <ele>167.32</ele>
        <time>2017-11-26T10:58:20Z</time>
      </trkpt>
      <trkpt lat="48.54337" lon="1.9452">
        <ele>167.6</ele>
        <time>2017-11-26T10:58:24Z</time>
      </trkpt>
      <trkpt lat="48.54339" lon="1.94511">
        <ele>167.87</ele>
        <time>2017-11-26T10:58:28Z</time>
      </trkpt>
      <trkpt lat="48.54341" lon="1.94503">
        <ele>168.12</ele>
        <time>2017-11-26T10:58:32Z</time>
      </trkpt>
      <trkpt lat="48.54343" lon="1.94493">
        <ele>168.31</ele>
        <time>2017-11-26T10:58:36Z</time>
      </trkpt>
      <trkpt lat="48.54347" lon="1.94482">
        <ele>168.47</ele>
        <time>2017-11-26T10:58:40Z</time>
      </trkpt>
      <trkpt lat="48.54351" lon="1.9447">
        <ele>168.63</ele>
        <time>2017-11-26T10:58:44Z</time>
      </trkpt>
      <trkpt lat="48.54355" lon="1.9446">
        <ele>168.75</ele>
        <time>2017-11-26T10:58:48Z</time>
      </trkpt>
      <trkpt lat="48.54359" lon="1.94451">
        <ele>168.84</ele>
        <time>2017-11-26T10:58:52Z</time>
      </trkpt>
      <trkpt lat="48.54363" lon="1.94442">
        <ele>168.91</ele>
        <time>2017-11-26T10:58:56Z</time>
      </trkpt>
      <trkpt lat="48.54367" lon="1.94431">
        <ele>168.96</ele>
        <time>2017-11-26T10:59:00Z</time>
      </trkpt>
      <trkpt lat="48.54371" lon="1.94419">
        <ele>169</ele>
        <time>2017-11-26T10:59:04Z</time>
      </trkpt>
      <trkpt lat="48.54375" lon="1.94409">
        <ele>169</ele>
        <time>2017-11-26T10:59:08Z</time>
      </trkpt>
      <trkpt lat="48.54377" lon="1.94399">
        <ele>169.01</ele>
        <time>2017-11-26T10:59:12Z</time>
      </trkpt>
      <trkpt lat="48.54381" lon="1.9439">
        <ele>169.05</ele>
        <time>2017-11-26T10:59:16Z</time>
      </trkpt>
      <trkpt lat="48.54383" lon="1.94377">
        <ele>169.09</ele>
        <time>2017-11-26T10:59:20Z</time>
      </trkpt>
      <trkpt lat="48.54385" lon="1.94367">
        <ele>169.15</ele>
        <time>2017-11-26T10:59:24Z</time>
      </trkpt>
      <trkpt lat="48.54388" lon="1.94354">
        <ele>169.23</ele>
        <time>2017-11-26T10:59:28Z</time>
      </trkpt>
      <trkpt lat="48.5439" lon="1.94348">
        <ele>169.29</ele>
        <time>2017-11-26T10:59:30Z</time>
      </trkpt>
      <trkpt lat="48.54396" lon="1.9434">
        <ele>169.46</ele>
        <time>2017-11-26T10:59:34Z</time>
      </trkpt>
      <trkpt lat="48.54398" lon="1.94334">
        <ele>169.55</ele>
        <time>2017-11-26T10:59:36Z</time>
      </trkpt>
      <trkpt lat="48.544" lon="1.94328">
        <ele>169.59</ele>
        <time>2017-11-26T10:59:38Z</time>
      </trkpt>
      <trkpt lat="48.54402" lon="1.9432">
        <ele>169.63</ele>
        <time>2017-11-26T10:59:40Z</time>
      </trkpt>
      <trkpt lat="48.54404" lon="1.94313">
        <ele>169.66</ele>
        <time>2017-11-26T10:59:42Z</time>
      </trkpt>
      <trkpt lat="48.54407" lon="1.94307">
        <ele>169.72</ele>
        <time>2017-11-26T10:59:44Z</time>
      </trkpt>
      <trkpt lat="48.54412" lon="1.94298">
        <ele>169.87</ele>
        <time>2017-11-26T10:59:48Z</time>
      </trkpt>
      <trkpt lat="48.54414" lon="1.9429">
        <ele>169.9</ele>
        <time>2017-11-26T10:59:52Z</time>
      </trkpt>
      <trkpt lat="48.54414" lon="1.94283">
        <ele>169.92</ele>
        <time>2017-11-26T11:00:08Z</time>
      </trkpt>
      <trkpt lat="48.54416" lon="1.94277">
        <ele>169.97</ele>
        <time>2017-11-26T11:00:36Z</time>
      </trkpt>
      <trkpt lat="48.54419" lon="1.94264">
        <ele>169.96</ele>
        <time>2017-11-26T11:00:40Z</time>
      </trkpt>
      <trkpt lat="48.54422" lon="1.94257">
        <ele>169.89</ele>
        <time>2017-11-26T11:00:42Z</time>
      </trkpt>
      <trkpt lat="48.54425" lon="1.9425">
        <ele>169.8</ele>
        <time>2017-11-26T11:00:44Z</time>
      </trkpt>
      <trkpt lat="48.54435" lon="1.94237">
        <ele>169.2</ele>
        <time>2017-11-26T11:00:48Z</time>
      </trkpt>
      <trkpt lat="48.54439" lon="1.94232">
        <ele>169</ele>
        <time>2017-11-26T11:00:50Z</time>
      </trkpt>
      <trkpt lat="48.54443" lon="1.94227">
        <ele>168.8</ele>
        <time>2017-11-26T11:00:52Z</time>
      </trkpt>
      <trkpt lat="48.54448" lon="1.94222">
        <ele>168.61</ele>
        <time>2017-11-26T11:00:54Z</time>
      </trkpt>
      <trkpt lat="48.54453" lon="1.94217">
        <ele>168.47</ele>
        <time>2017-11-26T11:00:56Z</time>
      </trkpt>
      <trkpt lat="48.54458" lon="1.94214">
        <ele>168.36</ele>
        <time>2017-11-26T11:00:58Z</time>
      </trkpt>
      <trkpt lat="48.54463" lon="1.9421">
        <ele>168.25</ele>
        <time>2017-11-26T11:01:00Z</time>
      </trkpt>
      <trkpt lat="48.54468" lon="1.94204">
        <ele>168.13</ele>
        <time>2017-11-26T11:01:02Z</time>
      </trkpt>
      <trkpt lat="48.54472" lon="1.94198">
        <ele>168.04</ele>
        <time>2017-11-26T11:01:04Z</time>
      </trkpt>
      <trkpt lat="48.54477" lon="1.94193">
        <ele>167.99</ele>
        <time>2017-11-26T11:01:06Z</time>
      </trkpt>
      <trkpt lat="48.54484" lon="1.94188">
        <ele>167.96</ele>
        <time>2017-11-26T11:01:08Z</time>
      </trkpt>
      <trkpt lat="48.54491" lon="1.94183">
        <ele>167.95</ele>
        <time>2017-11-26T11:01:10Z</time>
      </trkpt>
      <trkpt lat="48.54497" lon="1.94177">
        <ele>167.98</ele>
        <time>2017-11-26T11:01:12Z</time>
      </trkpt>
      <trkpt lat="48.54503" lon="1.94172">
        <ele>167.93</ele>
        <time>2017-11-26T11:01:14Z</time>
      </trkpt>
      <trkpt lat="48.54509" lon="1.94167">
        <ele>167.79</ele>
        <time>2017-11-26T11:01:16Z</time>
      </trkpt>
      <trkpt lat="48.54514" lon="1.94161">
        <ele>167.46</ele>
        <time>2017-11-26T11:01:18Z</time>
      </trkpt>
      <trkpt lat="48.5452" lon="1.94155">
        <ele>167.16</ele>
        <time>2017-11-26T11:01:20Z</time>
      </trkpt>
      <trkpt lat="48.54525" lon="1.94149">
        <ele>166.89</ele>
        <time>2017-11-26T11:01:22Z</time>
      </trkpt>
      <trkpt lat="48.5453" lon="1.94143">
        <ele>166.61</ele>
        <time>2017-11-26T11:01:24Z</time>
      </trkpt>
      <trkpt lat="48.54536" lon="1.94136">
        <ele>166.36</ele>
        <time>2017-11-26T11:01:26Z</time>
      </trkpt>
      <trkpt lat="48.54541" lon="1.94129">
        <ele>166.12</ele>
        <time>2017-11-26T11:01:28Z</time>
      </trkpt>
      <trkpt lat="48.54546" lon="1.94123">
        <ele>165.9</ele>
        <time>2017-11-26T11:01:30Z</time>
      </trkpt>
      <trkpt lat="48.5455" lon="1.94117">
        <ele>165.72</ele>
        <time>2017-11-26T11:01:32Z</time>
      </trkpt>
      <trkpt lat="48.54555" lon="1.94111">
        <ele>165.56</ele>
        <time>2017-11-26T11:01:34Z</time>
      </trkpt>
      <trkpt lat="48.5456" lon="1.94105">
        <ele>165.4</ele>
        <time>2017-11-26T11:01:36Z</time>
      </trkpt>
      <trkpt lat="48.54564" lon="1.94098">
        <ele>165.26</ele>
        <time>2017-11-26T11:01:38Z</time>
      </trkpt>
      <trkpt lat="48.54569" lon="1.94091">
        <ele>165.12</ele>
        <time>2017-11-26T11:01:40Z</time>
      </trkpt>
      <trkpt lat="48.54573" lon="1.94084">
        <ele>165.01</ele>
        <time>2017-11-26T11:01:42Z</time>
      </trkpt>
      <trkpt lat="48.54576" lon="1.94079">
        <ele>164.65</ele>
        <time>2017-11-26T11:01:44Z</time>
      </trkpt>
      <trkpt lat="48.54582" lon="1.94075">
        <ele>164.41</ele>
        <time>2017-11-26T11:01:50Z</time>
      </trkpt>
      <trkpt lat="48.5459" lon="1.94069">
        <ele>164.33</ele>
        <time>2017-11-26T11:01:54Z</time>
      </trkpt>
      <trkpt lat="48.54595" lon="1.94066">
        <ele>164.34</ele>
        <time>2017-11-26T11:01:56Z</time>
      </trkpt>
      <trkpt lat="48.546" lon="1.94062">
        <ele>164.45</ele>
        <time>2017-11-26T11:01:58Z</time>
      </trkpt>
      <trkpt lat="48.54608" lon="1.94059">
        <ele>164.75</ele>
        <time>2017-11-26T11:02:00Z</time>
      </trkpt>
      <trkpt lat="48.54614" lon="1.94055">
        <ele>164.92</ele>
        <time>2017-11-26T11:02:02Z</time>
      </trkpt>
      <trkpt lat="48.54621" lon="1.94048">
        <ele>165.18</ele>
        <time>2017-11-26T11:02:06Z</time>
      </trkpt>
      <trkpt lat="48.54626" lon="1.94045">
        <ele>165.43</ele>
        <time>2017-11-26T11:02:08Z</time>
      </trkpt>
      <trkpt lat="48.54631" lon="1.94043">
        <ele>165.72</ele>
        <time>2017-11-26T11:02:10Z</time>
      </trkpt>
      <trkpt lat="48.54635" lon="1.9404">
        <ele>166.02</ele>
        <time>2017-11-26T11:02:12Z</time>
      </trkpt>
      <trkpt lat="48.54639" lon="1.94037">
        <ele>166.3</ele>
        <time>2017-11-26T11:02:14Z</time>
      </trkpt>
      <trkpt lat="48.54644" lon="1.94029">
        <ele>166.57</ele>
        <time>2017-11-26T11:02:18Z</time>
      </trkpt>
      <trkpt lat="48.54642" lon="1.94023">
        <ele>166.3</ele>
        <time>2017-11-26T11:02:22Z</time>
      </trkpt>
      <trkpt lat="48.54641" lon="1.94015">
        <ele>166.15</ele>
        <time>2017-11-26T11:02:26Z</time>
      </trkpt>
      <trkpt lat="48.54639" lon="1.94005">
        <ele>165.76</ele>
        <time>2017-11-26T11:02:30Z</time>
      </trkpt>
      <trkpt lat="48.54637" lon="1.93997">
        <ele>165.39</ele>
        <time>2017-11-26T11:02:32Z</time>
      </trkpt>
      <trkpt lat="48.54635" lon="1.93986">
        <ele>164.95</ele>
        <time>2017-11-26T11:02:34Z</time>
      </trkpt>
      <trkpt lat="48.54632" lon="1.93973">
        <ele>164.49</ele>
        <time>2017-11-26T11:02:36Z</time>
      </trkpt>
      <trkpt lat="48.54629" lon="1.93963">
        <ele>163.87</ele>
        <time>2017-11-26T11:02:38Z</time>
      </trkpt>
      <trkpt lat="48.54625" lon="1.93951">
        <ele>163.12</ele>
        <time>2017-11-26T11:02:40Z</time>
      </trkpt>
      <trkpt lat="48.54621" lon="1.93939">
        <ele>162.26</ele>
        <time>2017-11-26T11:02:42Z</time>
      </trkpt>
      <trkpt lat="48.54617" lon="1.93928">
        <ele>161.49</ele>
        <time>2017-11-26T11:02:44Z</time>
      </trkpt>
      <trkpt lat="48.54614" lon="1.93916">
        <ele>160.82</ele>
        <time>2017-11-26T11:02:46Z</time>
      </trkpt>
      <trkpt lat="48.54612" lon="1.93906">
        <ele>160.24</ele>
        <time>2017-11-26T11:02:48Z</time>
      </trkpt>
      <trkpt lat="48.54607" lon="1.93896">
        <ele>159.37</ele>
        <time>2017-11-26T11:02:50Z</time>
      </trkpt>
      <trkpt lat="48.54601" lon="1.93887">
        <ele>158.27</ele>
        <time>2017-11-26T11:02:52Z</time>
      </trkpt>
      <trkpt lat="48.54602" lon="1.93849">
        <ele>157.68</ele>
        <time>2017-11-26T11:02:54Z</time>
      </trkpt>
      <trkpt lat="48.54595" lon="1.93832">
        <ele>156.04</ele>
        <time>2017-11-26T11:02:56Z</time>
      </trkpt>
      <trkpt lat="48.54591" lon="1.9381">
        <ele>154.46</ele>
        <time>2017-11-26T11:02:58Z</time>
      </trkpt>
      <trkpt lat="48.5459" lon="1.93796">
        <ele>153.78</ele>
        <time>2017-11-26T11:03:00Z</time>
      </trkpt>
      <trkpt lat="48.54587" lon="1.93784">
        <ele>152.85</ele>
        <time>2017-11-26T11:03:02Z</time>
      </trkpt>
      <trkpt lat="48.5458" lon="1.93769">
        <ele>151.04</ele>
        <time>2017-11-26T11:03:04Z</time>
      </trkpt>
      <trkpt lat="48.54581" lon="1.93759">
        <ele>150.92</ele>
        <time>2017-11-26T11:03:06Z</time>
      </trkpt>
      <trkpt lat="48.54582" lon="1.93741">
        <ele>150.03</ele>
        <time>2017-11-26T11:03:08Z</time>
      </trkpt>
      <trkpt lat="48.54586" lon="1.93718">
        <ele>148.76</ele>
        <time>2017-11-26T11:03:10Z</time>
      </trkpt>
      <trkpt lat="48.54591" lon="1.93694">
        <ele>147.52</ele>
        <time>2017-11-26T11:03:12Z</time>
      </trkpt>
      <trkpt lat="48.54598" lon="1.9367">
        <ele>146.63</ele>
        <time>2017-11-26T11:03:14Z</time>
      </trkpt>
      <trkpt lat="48.54599" lon="1.93659">
        <ele>145.88</ele>
        <time>2017-11-26T11:03:16Z</time>
      </trkpt>
      <trkpt lat="48.54603" lon="1.93646">
        <ele>145.23</ele>
        <time>2017-11-26T11:03:18Z</time>
      </trkpt>
      <trkpt lat="48.54611" lon="1.93632">
        <ele>145.14</ele>
        <time>2017-11-26T11:03:20Z</time>
      </trkpt>
      <trkpt lat="48.54616" lon="1.93612">
        <ele>143.71</ele>
        <time>2017-11-26T11:03:24Z</time>
      </trkpt>
      <trkpt lat="48.54624" lon="1.936">
        <ele>143.69</ele>
        <time>2017-11-26T11:03:26Z</time>
      </trkpt>
      <trkpt lat="48.54634" lon="1.93591">
        <ele>144.14</ele>
        <time>2017-11-26T11:03:28Z</time>
      </trkpt>
      <trkpt lat="48.54644" lon="1.93583">
        <ele>144.68</ele>
        <time>2017-11-26T11:03:30Z</time>
      </trkpt>
      <trkpt lat="48.54655" lon="1.93571">
        <ele>145.44</ele>
        <time>2017-11-26T11:03:32Z</time>
      </trkpt>
      <trkpt lat="48.54665" lon="1.9356">
        <ele>146.04</ele>
        <time>2017-11-26T11:03:34Z</time>
      </trkpt>
      <trkpt lat="48.54676" lon="1.93549">
        <ele>146.71</ele>
        <time>2017-11-26T11:03:36Z</time>
      </trkpt>
      <trkpt lat="48.5468" lon="1.93544">
        <ele>146.9</ele>
        <time>2017-11-26T11:03:38Z</time>
      </trkpt>
      <trkpt lat="48.5469" lon="1.93541">
        <ele>147.91</ele>
        <time>2017-11-26T11:03:40Z</time>
      </trkpt>
      <trkpt lat="48.54694" lon="1.93534">
        <ele>147.92</ele>
        <time>2017-11-26T11:03:42Z</time>
      </trkpt>
      <trkpt lat="48.547" lon="1.9352">
        <ele>147.54</ele>
        <time>2017-11-26T11:03:44Z</time>
      </trkpt>
      <trkpt lat="48.54705" lon="1.93501">
        <ele>146.73</ele>
        <time>2017-11-26T11:03:46Z</time>
      </trkpt>
      <trkpt lat="48.54712" lon="1.93489">
        <ele>146.39</ele>
        <time>2017-11-26T11:03:48Z</time>
      </trkpt>
      <trkpt lat="48.54717" lon="1.93479">
        <ele>145.99</ele>
        <time>2017-11-26T11:03:50Z</time>
      </trkpt>
      <trkpt lat="48.54721" lon="1.93465">
        <ele>145.08</ele>
        <time>2017-11-26T11:03:52Z</time>
      </trkpt>
      <trkpt lat="48.54726" lon="1.93454">
        <ele>144.49</ele>
        <time>2017-11-26T11:03:54Z</time>
      </trkpt>
      <trkpt lat="48.54736" lon="1.93447">
        <ele>144.84</ele>
        <time>2017-11-26T11:03:56Z</time>
      </trkpt>
      <trkpt lat="48.5474" lon="1.93441">
        <ele>144.59</ele>
        <time>2017-11-26T11:03:58Z</time>
      </trkpt>
      <trkpt lat="48.54748" lon="1.93433">
        <ele>144.56</ele>
        <time>2017-11-26T11:04:00Z</time>
      </trkpt>
      <trkpt lat="48.54763" lon="1.93428">
        <ele>145.15</ele>
        <time>2017-11-26T11:04:02Z</time>
      </trkpt>
      <trkpt lat="48.54774" lon="1.93429">
        <ele>146.11</ele>
        <time>2017-11-26T11:04:04Z</time>
      </trkpt>
      <trkpt lat="48.54786" lon="1.93426">
        <ele>146.65</ele>
        <time>2017-11-26T11:04:06Z</time>
      </trkpt>
      <trkpt lat="48.54796" lon="1.93423">
        <ele>146.99</ele>
        <time>2017-11-26T11:04:08Z</time>
      </trkpt>
      <trkpt lat="48.54806" lon="1.93413">
        <ele>146.71</ele>
        <time>2017-11-26T11:04:10Z</time>
      </trkpt>
      <trkpt lat="48.54814" lon="1.93413">
        <ele>147.38</ele>
        <time>2017-11-26T11:04:14Z</time>
      </trkpt>
      <trkpt lat="48.54822" lon="1.93413">
        <ele>147.94</ele>
        <time>2017-11-26T11:04:20Z</time>
      </trkpt>
      <trkpt lat="48.5483" lon="1.93413">
        <ele>148.53</ele>
        <time>2017-11-26T11:04:24Z</time>
      </trkpt>
      <trkpt lat="48.54835" lon="1.93413">
        <ele>148.96</ele>
        <time>2017-11-26T11:04:26Z</time>
      </trkpt>
      <trkpt lat="48.54843" lon="1.93414">
        <ele>150.09</ele>
        <time>2017-11-26T11:04:30Z</time>
      </trkpt>
      <trkpt lat="48.54851" lon="1.93414">
        <ele>151.15</ele>
        <time>2017-11-26T11:04:34Z</time>
      </trkpt>
      <trkpt lat="48.54858" lon="1.93417">
        <ele>152.27</ele>
        <time>2017-11-26T11:04:38Z</time>
      </trkpt>
      <trkpt lat="48.54863" lon="1.93422">
        <ele>153.35</ele>
        <time>2017-11-26T11:04:42Z</time>
      </trkpt>
      <trkpt lat="48.54867" lon="1.93423">
        <ele>154.05</ele>
        <time>2017-11-26T11:04:46Z</time>
      </trkpt>
      <trkpt lat="48.54872" lon="1.93428">
        <ele>155.03</ele>
        <time>2017-11-26T11:04:52Z</time>
      </trkpt>
      <trkpt lat="48.54877" lon="1.93432">
        <ele>156.02</ele>
        <time>2017-11-26T11:04:58Z</time>
      </trkpt>
      <trkpt lat="48.54881" lon="1.93436">
        <ele>156.81</ele>
        <time>2017-11-26T11:05:04Z</time>
      </trkpt>
      <trkpt lat="48.54886" lon="1.9344">
        <ele>157.65</ele>
        <time>2017-11-26T11:05:12Z</time>
      </trkpt>
      <trkpt lat="48.54893" lon="1.93446">
        <ele>158.8</ele>
        <time>2017-11-26T11:05:26Z</time>
      </trkpt>
      <trkpt lat="48.54896" lon="1.9345">
        <ele>159.48</ele>
        <time>2017-11-26T11:05:32Z</time>
      </trkpt>
      <trkpt lat="48.549" lon="1.93453">
        <ele>160.08</ele>
        <time>2017-11-26T11:05:36Z</time>
      </trkpt>
      <trkpt lat="48.54906" lon="1.93456">
        <ele>160.89</ele>
        <time>2017-11-26T11:05:42Z</time>
      </trkpt>
      <trkpt lat="48.54912" lon="1.93459">
        <ele>161.55</ele>
        <time>2017-11-26T11:05:46Z</time>
      </trkpt>
      <trkpt lat="48.54917" lon="1.93461">
        <ele>162.12</ele>
        <time>2017-11-26T11:05:50Z</time>
      </trkpt>
      <trkpt lat="48.54922" lon="1.93462">
        <ele>162.39</ele>
        <time>2017-11-26T11:05:54Z</time>
      </trkpt>
      <trkpt lat="48.54929" lon="1.93458">
        <ele>162.54</ele>
        <time>2017-11-26T11:06:00Z</time>
      </trkpt>
      <trkpt lat="48.54933" lon="1.93458">
        <ele>162.78</ele>
        <time>2017-11-26T11:06:04Z</time>
      </trkpt>
      <trkpt lat="48.54938" lon="1.9346">
        <ele>163.09</ele>
        <time>2017-11-26T11:06:08Z</time>
      </trkpt>
      <trkpt lat="48.54944" lon="1.93464">
        <ele>163.51</ele>
        <time>2017-11-26T11:06:14Z</time>
      </trkpt>
      <trkpt lat="48.54948" lon="1.93468">
        <ele>163.87</ele>
        <time>2017-11-26T11:06:22Z</time>
      </trkpt>
      <trkpt lat="48.54952" lon="1.93472">
        <ele>164.22</ele>
        <time>2017-11-26T11:06:34Z</time>
      </trkpt>
      <trkpt lat="48.54956" lon="1.93477">
        <ele>164.54</ele>
        <time>2017-11-26T11:07:36Z</time>
      </trkpt>
      <trkpt lat="48.54959" lon="1.93481">
        <ele>164.85</ele>
        <time>2017-11-26T11:08:36Z</time>
      </trkpt>
      <trkpt lat="48.54962" lon="1.93477">
        <ele>164.83</ele>
        <time>2017-11-26T11:08:54Z</time>
      </trkpt>
      <trkpt lat="48.54969" lon="1.93479">
        <ele>165.18</ele>
        <time>2017-11-26T11:09:02Z</time>
      </trkpt>
      <trkpt lat="48.54975" lon="1.93477">
        <ele>165.4</ele>
        <time>2017-11-26T11:09:06Z</time>
      </trkpt>
      <trkpt lat="48.54985" lon="1.93477">
        <ele>165.79</ele>
        <time>2017-11-26T11:09:10Z</time>
      </trkpt>
      <trkpt lat="48.5499" lon="1.93476">
        <ele>165.97</ele>
        <time>2017-11-26T11:09:12Z</time>
      </trkpt>
      <trkpt lat="48.54998" lon="1.93475">
        <ele>166.3</ele>
        <time>2017-11-26T11:09:16Z</time>
      </trkpt>
      <trkpt lat="48.55007" lon="1.93477">
        <ele>166.5</ele>
        <time>2017-11-26T11:09:20Z</time>
      </trkpt>
      <trkpt lat="48.55012" lon="1.9348">
        <ele>166.59</ele>
        <time>2017-11-26T11:09:22Z</time>
      </trkpt>
      <trkpt lat="48.55017" lon="1.93482">
        <ele>166.66</ele>
        <time>2017-11-26T11:09:24Z</time>
      </trkpt>
      <trkpt lat="48.55022" lon="1.93484">
        <ele>166.71</ele>
        <time>2017-11-26T11:09:26Z</time>
      </trkpt>
      <trkpt lat="48.55026" lon="1.93486">
        <ele>166.77</ele>
        <time>2017-11-26T11:09:28Z</time>
      </trkpt>
      <trkpt lat="48.55031" lon="1.93489">
        <ele>166.84</ele>
        <time>2017-11-26T11:09:30Z</time>
      </trkpt>
      <trkpt lat="48.55037" lon="1.93493">
        <ele>166.9</ele>
        <time>2017-11-26T11:09:32Z</time>
      </trkpt>
      <trkpt lat="48.55044" lon="1.93495">
        <ele>166.94</ele>
        <time>2017-11-26T11:09:34Z</time>
      </trkpt>
      <trkpt lat="48.55053" lon="1.93494">
        <ele>166.95</ele>
        <time>2017-11-26T11:09:36Z</time>
      </trkpt>
      <trkpt lat="48.55061" lon="1.93492">
        <ele>166.95</ele>
        <time>2017-11-26T11:09:38Z</time>
      </trkpt>
      <trkpt lat="48.55068" lon="1.93489">
        <ele>166.95</ele>
        <time>2017-11-26T11:09:40Z</time>
      </trkpt>
      <trkpt lat="48.55074" lon="1.93486">
        <ele>166.97</ele>
        <time>2017-11-26T11:09:42Z</time>
      </trkpt>
      <trkpt lat="48.55081" lon="1.93482">
        <ele>166.99</ele>
        <time>2017-11-26T11:09:44Z</time>
      </trkpt>
      <trkpt lat="48.55087" lon="1.93477">
        <ele>166.99</ele>
        <time>2017-11-26T11:09:46Z</time>
      </trkpt>
      <trkpt lat="48.55095" lon="1.93469">
        <ele>166.95</ele>
        <time>2017-11-26T11:09:48Z</time>
      </trkpt>
      <trkpt lat="48.55104" lon="1.93464">
        <ele>166.89</ele>
        <time>2017-11-26T11:09:50Z</time>
      </trkpt>
      <trkpt lat="48.55113" lon="1.93457">
        <ele>166.82</ele>
        <time>2017-11-26T11:09:52Z</time>
      </trkpt>
      <trkpt lat="48.5513" lon="1.93444">
        <ele>166.62</ele>
        <time>2017-11-26T11:09:54Z</time>
      </trkpt>
      <trkpt lat="48.55144" lon="1.93434">
        <ele>166.42</ele>
        <time>2017-11-26T11:09:56Z</time>
      </trkpt>
      <trkpt lat="48.55149" lon="1.93425">
        <ele>166.29</ele>
        <time>2017-11-26T11:09:58Z</time>
      </trkpt>
      <trkpt lat="48.55162" lon="1.93412">
        <ele>166.06</ele>
        <time>2017-11-26T11:10:00Z</time>
      </trkpt>
      <trkpt lat="48.55165" lon="1.934">
        <ele>166.02</ele>
        <time>2017-11-26T11:10:02Z</time>
      </trkpt>
      <trkpt lat="48.55175" lon="1.93396">
        <ele>165.72</ele>
        <time>2017-11-26T11:10:04Z</time>
      </trkpt>
      <trkpt lat="48.55185" lon="1.93387">
        <ele>165.25</ele>
        <time>2017-11-26T11:10:06Z</time>
      </trkpt>
      <trkpt lat="48.55192" lon="1.93376">
        <ele>164.65</ele>
        <time>2017-11-26T11:10:08Z</time>
      </trkpt>
      <trkpt lat="48.552" lon="1.93364">
        <ele>163.81</ele>
        <time>2017-11-26T11:10:10Z</time>
      </trkpt>
      <trkpt lat="48.5521" lon="1.93361">
        <ele>163.04</ele>
        <time>2017-11-26T11:10:12Z</time>
      </trkpt>
      <trkpt lat="48.55216" lon="1.9335">
        <ele>162.11</ele>
        <time>2017-11-26T11:10:14Z</time>
      </trkpt>
      <trkpt lat="48.55226" lon="1.9334">
        <ele>160.67</ele>
        <time>2017-11-26T11:10:18Z</time>
      </trkpt>
      <trkpt lat="48.55229" lon="1.93314">
        <ele>159.04</ele>
        <time>2017-11-26T11:10:22Z</time>
      </trkpt>
      <trkpt lat="48.55226" lon="1.933">
        <ele>158.6</ele>
        <time>2017-11-26T11:10:24Z</time>
      </trkpt>
      <trkpt lat="48.55223" lon="1.93282">
        <ele>157.93</ele>
        <time>2017-11-26T11:10:26Z</time>
      </trkpt>
      <trkpt lat="48.55211" lon="1.93275">
        <ele>158.62</ele>
        <time>2017-11-26T11:10:28Z</time>
      </trkpt>
      <trkpt lat="48.55205" lon="1.93273">
        <ele>159.01</ele>
        <time>2017-11-26T11:10:30Z</time>
      </trkpt>
      <trkpt lat="48.55201" lon="1.93265">
        <ele>158.9</ele>
        <time>2017-11-26T11:10:34Z</time>
      </trkpt>
      <trkpt lat="48.55193" lon="1.93264">
        <ele>159.57</ele>
        <time>2017-11-26T11:10:38Z</time>
      </trkpt>
      <trkpt lat="48.55187" lon="1.93264">
        <ele>160.07</ele>
        <time>2017-11-26T11:10:40Z</time>
      </trkpt>
      <trkpt lat="48.5518" lon="1.93264">
        <ele>160.71</ele>
        <time>2017-11-26T11:10:42Z</time>
      </trkpt>
      <trkpt lat="48.55176" lon="1.9326">
        <ele>160.8</ele>
        <time>2017-11-26T11:10:46Z</time>
      </trkpt>
      <trkpt lat="48.55168" lon="1.93254">
        <ele>161.14</ele>
        <time>2017-11-26T11:10:50Z</time>
      </trkpt>
      <trkpt lat="48.55161" lon="1.93249">
        <ele>161.32</ele>
        <time>2017-11-26T11:10:52Z</time>
      </trkpt>
      <trkpt lat="48.55152" lon="1.93253">
        <ele>162</ele>
        <time>2017-11-26T11:10:54Z</time>
      </trkpt>
      <trkpt lat="48.55099" lon="1.93225">
        <ele>164.29</ele>
        <time>2017-11-26T11:11:11Z</time>
      </trkpt>
      <trkpt lat="48.55093" lon="1.93225">
        <ele>164.72</ele>
        <time>2017-11-26T11:11:16Z</time>
      </trkpt>
      <trkpt lat="48.55088" lon="1.93221">
        <ele>164.95</ele>
        <time>2017-11-26T11:11:18Z</time>
      </trkpt>
      <trkpt lat="48.55084" lon="1.93218">
        <ele>165.16</ele>
        <time>2017-11-26T11:11:20Z</time>
      </trkpt>
      <trkpt lat="48.55081" lon="1.93214">
        <ele>165.08</ele>
        <time>2017-11-26T11:11:22Z</time>
      </trkpt>
      <trkpt lat="48.55077" lon="1.9321">
        <ele>164.92</ele>
        <time>2017-11-26T11:11:24Z</time>
      </trkpt>
      <trkpt lat="48.55071" lon="1.93208">
        <ele>164.76</ele>
        <time>2017-11-26T11:11:26Z</time>
      </trkpt>
      <trkpt lat="48.55064" lon="1.93204">
        <ele>164.57</ele>
        <time>2017-11-26T11:11:28Z</time>
      </trkpt>
      <trkpt lat="48.55057" lon="1.93196">
        <ele>164.28</ele>
        <time>2017-11-26T11:11:30Z</time>
      </trkpt>
      <trkpt lat="48.55052" lon="1.93187">
        <ele>164.02</ele>
        <time>2017-11-26T11:11:32Z</time>
      </trkpt>
      <trkpt lat="48.55047" lon="1.93178">
        <ele>163.77</ele>
        <time>2017-11-26T11:11:34Z</time>
      </trkpt>
      <trkpt lat="48.55042" lon="1.9317">
        <ele>163.56</ele>
        <time>2017-11-26T11:11:36Z</time>
      </trkpt>
      <trkpt lat="48.55037" lon="1.93163">
        <ele>163.22</ele>
        <time>2017-11-26T11:11:38Z</time>
      </trkpt>
      <trkpt lat="48.55033" lon="1.93154">
        <ele>162.68</ele>
        <time>2017-11-26T11:11:40Z</time>
      </trkpt>
      <trkpt lat="48.5503" lon="1.93144">
        <ele>162.07</ele>
        <time>2017-11-26T11:11:42Z</time>
      </trkpt>
      <trkpt lat="48.55026" lon="1.93135">
        <ele>161.53</ele>
        <time>2017-11-26T11:11:44Z</time>
      </trkpt>
      <trkpt lat="48.55021" lon="1.93125">
        <ele>160.98</ele>
        <time>2017-11-26T11:11:46Z</time>
      </trkpt>
      <trkpt lat="48.55014" lon="1.93112">
        <ele>160.33</ele>
        <time>2017-11-26T11:11:48Z</time>
      </trkpt>
      <trkpt lat="48.54998" lon="1.93085">
        <ele>158.78</ele>
        <time>2017-11-26T11:11:50Z</time>
      </trkpt>
      <trkpt lat="48.54981" lon="1.93073">
        <ele>155.29</ele>
        <time>2017-11-26T11:11:52Z</time>
      </trkpt>
      <trkpt lat="48.54961" lon="1.93052">
        <ele>150.94</ele>
        <time>2017-11-26T11:11:54Z</time>
      </trkpt>
      <trkpt lat="48.54941" lon="1.9303">
        <ele>147.43</ele>
        <time>2017-11-26T11:11:56Z</time>
      </trkpt>
      <trkpt lat="48.54924" lon="1.93002">
        <ele>144.65</ele>
        <time>2017-11-26T11:11:58Z</time>
      </trkpt>
      <trkpt lat="48.54914" lon="1.92971">
        <ele>143.8</ele>
        <time>2017-11-26T11:12:00Z</time>
      </trkpt>
      <trkpt lat="48.54904" lon="1.92939">
        <ele>143.16</ele>
        <time>2017-11-26T11:12:02Z</time>
      </trkpt>
      <trkpt lat="48.54895" lon="1.92913">
        <ele>142.73</ele>
        <time>2017-11-26T11:12:04Z</time>
      </trkpt>
      <trkpt lat="48.54886" lon="1.92887">
        <ele>142.39</ele>
        <time>2017-11-26T11:12:06Z</time>
      </trkpt>
      <trkpt lat="48.54883" lon="1.92861">
        <ele>142.36</ele>
        <time>2017-11-26T11:12:08Z</time>
      </trkpt>
      <trkpt lat="48.54878" lon="1.92843">
        <ele>142.13</ele>
        <time>2017-11-26T11:12:10Z</time>
      </trkpt>
      <trkpt lat="48.5487" lon="1.92825">
        <ele>141.87</ele>
        <time>2017-11-26T11:12:12Z</time>
      </trkpt>
      <trkpt lat="48.54871" lon="1.92813">
        <ele>142.23</ele>
        <time>2017-11-26T11:12:14Z</time>
      </trkpt>
      <trkpt lat="48.54864" lon="1.92812">
        <ele>141.74</ele>
        <time>2017-11-26T11:12:16Z</time>
      </trkpt>
      <trkpt lat="48.54858" lon="1.92805">
        <ele>141.45</ele>
        <time>2017-11-26T11:12:18Z</time>
      </trkpt>
      <trkpt lat="48.54857" lon="1.92815">
        <ele>141.18</ele>
        <time>2017-11-26T11:12:20Z</time>
      </trkpt>
      <trkpt lat="48.5485" lon="1.92813">
        <ele>140.67</ele>
        <time>2017-11-26T11:12:22Z</time>
      </trkpt>
      <trkpt lat="48.54845" lon="1.92813">
        <ele>140.32</ele>
        <time>2017-11-26T11:12:24Z</time>
      </trkpt>
      <trkpt lat="48.54839" lon="1.92812">
        <ele>139.9</ele>
        <time>2017-11-26T11:12:34Z</time>
      </trkpt>
      <trkpt lat="48.54834" lon="1.92815">
        <ele>139.53</ele>
        <time>2017-11-26T11:12:44Z</time>
      </trkpt>
      <trkpt lat="48.54826" lon="1.92814">
        <ele>139.55</ele>
        <time>2017-11-26T11:12:50Z</time>
      </trkpt>
      <trkpt lat="48.5482" lon="1.92813">
        <ele>139.65</ele>
        <time>2017-11-26T11:12:52Z</time>
      </trkpt>
      <trkpt lat="48.54815" lon="1.9281">
        <ele>139.78</ele>
        <time>2017-11-26T11:12:54Z</time>
      </trkpt>
      <trkpt lat="48.5481" lon="1.92808">
        <ele>139.9</ele>
        <time>2017-11-26T11:12:56Z</time>
      </trkpt>
      <trkpt lat="48.54803" lon="1.92804">
        <ele>140.09</ele>
        <time>2017-11-26T11:12:58Z</time>
      </trkpt>
      <trkpt lat="48.54797" lon="1.92793">
        <ele>140.41</ele>
        <time>2017-11-26T11:13:02Z</time>
      </trkpt>
      <trkpt lat="48.54793" lon="1.92787">
        <ele>140.6</ele>
        <time>2017-11-26T11:13:04Z</time>
      </trkpt>
      <trkpt lat="48.54791" lon="1.9278">
        <ele>140.79</ele>
        <time>2017-11-26T11:13:06Z</time>
      </trkpt>
      <trkpt lat="48.54793" lon="1.92766">
        <ele>141.11</ele>
        <time>2017-11-26T11:13:10Z</time>
      </trkpt>
      <trkpt lat="48.54794" lon="1.92758">
        <ele>141.27</ele>
        <time>2017-11-26T11:13:12Z</time>
      </trkpt>
      <trkpt lat="48.54794" lon="1.92743">
        <ele>141.7</ele>
        <time>2017-11-26T11:13:16Z</time>
      </trkpt>
      <trkpt lat="48.54794" lon="1.92733">
        <ele>141.98</ele>
        <time>2017-11-26T11:13:18Z</time>
      </trkpt>
      <trkpt lat="48.54796" lon="1.92724">
        <ele>142.25</ele>
        <time>2017-11-26T11:13:20Z</time>
      </trkpt>
      <trkpt lat="48.54799" lon="1.92713">
        <ele>142.57</ele>
        <time>2017-11-26T11:13:22Z</time>
      </trkpt>
      <trkpt lat="48.548" lon="1.92703">
        <ele>142.87</ele>
        <time>2017-11-26T11:13:24Z</time>
      </trkpt>
      <trkpt lat="48.54802" lon="1.92693">
        <ele>143.18</ele>
        <time>2017-11-26T11:13:26Z</time>
      </trkpt>
      <trkpt lat="48.54805" lon="1.92682">
        <ele>143.5</ele>
        <time>2017-11-26T11:13:28Z</time>
      </trkpt>
      <trkpt lat="48.54809" lon="1.92674">
        <ele>143.78</ele>
        <time>2017-11-26T11:13:30Z</time>
      </trkpt>
      <trkpt lat="48.54811" lon="1.92663">
        <ele>143.99</ele>
        <time>2017-11-26T11:13:32Z</time>
      </trkpt>
      <trkpt lat="48.54814" lon="1.92653">
        <ele>143.95</ele>
        <time>2017-11-26T11:13:34Z</time>
      </trkpt>
      <trkpt lat="48.54813" lon="1.92641">
        <ele>143.92</ele>
        <time>2017-11-26T11:13:36Z</time>
      </trkpt>
      <trkpt lat="48.54821" lon="1.92625">
        <ele>143.71</ele>
        <time>2017-11-26T11:13:40Z</time>
      </trkpt>
      <trkpt lat="48.54824" lon="1.92617">
        <ele>143.6</ele>
        <time>2017-11-26T11:13:42Z</time>
      </trkpt>
      <trkpt lat="48.54826" lon="1.92609">
        <ele>143.48</ele>
        <time>2017-11-26T11:13:44Z</time>
      </trkpt>
      <trkpt lat="48.5483" lon="1.926">
        <ele>143.31</ele>
        <time>2017-11-26T11:13:46Z</time>
      </trkpt>
      <trkpt lat="48.54832" lon="1.92592">
        <ele>143.14</ele>
        <time>2017-11-26T11:13:48Z</time>
      </trkpt>
      <trkpt lat="48.54834" lon="1.92584">
        <ele>143.08</ele>
        <time>2017-11-26T11:13:50Z</time>
      </trkpt>
      <trkpt lat="48.54836" lon="1.92575">
        <ele>143.09</ele>
        <time>2017-11-26T11:13:52Z</time>
      </trkpt>
      <trkpt lat="48.54838" lon="1.92567">
        <ele>143.21</ele>
        <time>2017-11-26T11:13:54Z</time>
      </trkpt>
      <trkpt lat="48.54841" lon="1.92558">
        <ele>143.32</ele>
        <time>2017-11-26T11:13:56Z</time>
      </trkpt>
      <trkpt lat="48.54844" lon="1.92549">
        <ele>143.42</ele>
        <time>2017-11-26T11:13:58Z</time>
      </trkpt>
      <trkpt lat="48.54846" lon="1.92541">
        <ele>143.5</ele>
        <time>2017-11-26T11:14:00Z</time>
      </trkpt>
      <trkpt lat="48.54849" lon="1.92533">
        <ele>143.59</ele>
        <time>2017-11-26T11:14:02Z</time>
      </trkpt>
      <trkpt lat="48.54852" lon="1.92525">
        <ele>143.68</ele>
        <time>2017-11-26T11:14:04Z</time>
      </trkpt>
      <trkpt lat="48.54854" lon="1.92516">
        <ele>143.75</ele>
        <time>2017-11-26T11:14:06Z</time>
      </trkpt>
      <trkpt lat="48.54857" lon="1.92507">
        <ele>143.83</ele>
        <time>2017-11-26T11:14:08Z</time>
      </trkpt>
      <trkpt lat="48.5486" lon="1.92497">
        <ele>143.9</ele>
        <time>2017-11-26T11:14:10Z</time>
      </trkpt>
      <trkpt lat="48.54863" lon="1.92487">
        <ele>144.01</ele>
        <time>2017-11-26T11:14:12Z</time>
      </trkpt>
      <trkpt lat="48.54864" lon="1.92477">
        <ele>144.01</ele>
        <time>2017-11-26T11:14:14Z</time>
      </trkpt>
      <trkpt lat="48.54865" lon="1.92468">
        <ele>144</ele>
        <time>2017-11-26T11:14:16Z</time>
      </trkpt>
      <trkpt lat="48.54866" lon="1.92459">
        <ele>143.95</ele>
        <time>2017-11-26T11:14:18Z</time>
      </trkpt>
      <trkpt lat="48.54868" lon="1.9245">
        <ele>143.97</ele>
        <time>2017-11-26T11:14:20Z</time>
      </trkpt>
      <trkpt lat="48.5487" lon="1.92441">
        <ele>144.04</ele>
        <time>2017-11-26T11:14:22Z</time>
      </trkpt>
      <trkpt lat="48.54874" lon="1.92433">
        <ele>144.13</ele>
        <time>2017-11-26T11:14:24Z</time>
      </trkpt>
      <trkpt lat="48.54877" lon="1.92425">
        <ele>144.2</ele>
        <time>2017-11-26T11:14:26Z</time>
      </trkpt>
      <trkpt lat="48.5488" lon="1.92416">
        <ele>144.24</ele>
        <time>2017-11-26T11:14:28Z</time>
      </trkpt>
      <trkpt lat="48.54883" lon="1.92408">
        <ele>144.21</ele>
        <time>2017-11-26T11:14:30Z</time>
      </trkpt>
      <trkpt lat="48.54887" lon="1.92399">
        <ele>144.15</ele>
        <time>2017-11-26T11:14:32Z</time>
      </trkpt>
      <trkpt lat="48.5489" lon="1.92389">
        <ele>144.04</ele>
        <time>2017-11-26T11:14:34Z</time>
      </trkpt>
      <trkpt lat="48.54893" lon="1.9238">
        <ele>143.93</ele>
        <time>2017-11-26T11:14:36Z</time>
      </trkpt>
      <trkpt lat="48.54897" lon="1.9237">
        <ele>143.78</ele>
        <time>2017-11-26T11:14:38Z</time>
      </trkpt>
      <trkpt lat="48.549" lon="1.9236">
        <ele>143.58</ele>
        <time>2017-11-26T11:14:40Z</time>
      </trkpt>
      <trkpt lat="48.54903" lon="1.92351">
        <ele>143.36</ele>
        <time>2017-11-26T11:14:42Z</time>
      </trkpt>
      <trkpt lat="48.54905" lon="1.92341">
        <ele>143.1</ele>
        <time>2017-11-26T11:14:44Z</time>
      </trkpt>
      <trkpt lat="48.54908" lon="1.92331">
        <ele>142.87</ele>
        <time>2017-11-26T11:14:46Z</time>
      </trkpt>
      <trkpt lat="48.54911" lon="1.92322">
        <ele>142.8</ele>
        <time>2017-11-26T11:14:48Z</time>
      </trkpt>
      <trkpt lat="48.54914" lon="1.92312">
        <ele>142.72</ele>
        <time>2017-11-26T11:14:50Z</time>
      </trkpt>
      <trkpt lat="48.54916" lon="1.92303">
        <ele>142.63</ele>
        <time>2017-11-26T11:14:52Z</time>
      </trkpt>
      <trkpt lat="48.54918" lon="1.92293">
        <ele>142.65</ele>
        <time>2017-11-26T11:14:54Z</time>
      </trkpt>
      <trkpt lat="48.54921" lon="1.92284">
        <ele>142.72</ele>
        <time>2017-11-26T11:14:56Z</time>
      </trkpt>
      <trkpt lat="48.54924" lon="1.92275">
        <ele>142.76</ele>
        <time>2017-11-26T11:14:58Z</time>
      </trkpt>
      <trkpt lat="48.54927" lon="1.92266">
        <ele>142.77</ele>
        <time>2017-11-26T11:15:00Z</time>
      </trkpt>
      <trkpt lat="48.5493" lon="1.92257">
        <ele>142.76</ele>
        <time>2017-11-26T11:15:02Z</time>
      </trkpt>
      <trkpt lat="48.54932" lon="1.92248">
        <ele>142.78</ele>
        <time>2017-11-26T11:15:04Z</time>
      </trkpt>
      <trkpt lat="48.54935" lon="1.92239">
        <ele>142.99</ele>
        <time>2017-11-26T11:15:06Z</time>
      </trkpt>
      <trkpt lat="48.54938" lon="1.9223">
        <ele>143.18</ele>
        <time>2017-11-26T11:15:08Z</time>
      </trkpt>
      <trkpt lat="48.5494" lon="1.92222">
        <ele>143.37</ele>
        <time>2017-11-26T11:15:10Z</time>
      </trkpt>
      <trkpt lat="48.54943" lon="1.92214">
        <ele>143.57</ele>
        <time>2017-11-26T11:15:12Z</time>
      </trkpt>
      <trkpt lat="48.54946" lon="1.92206">
        <ele>143.76</ele>
        <time>2017-11-26T11:15:14Z</time>
      </trkpt>
      <trkpt lat="48.54949" lon="1.92198">
        <ele>143.94</ele>
        <time>2017-11-26T11:15:16Z</time>
      </trkpt>
      <trkpt lat="48.54952" lon="1.9219">
        <ele>144.09</ele>
        <time>2017-11-26T11:15:18Z</time>
      </trkpt>
      <trkpt lat="48.54954" lon="1.92182">
        <ele>144.23</ele>
        <time>2017-11-26T11:15:20Z</time>
      </trkpt>
      <trkpt lat="48.54956" lon="1.92173">
        <ele>144.38</ele>
        <time>2017-11-26T11:15:22Z</time>
      </trkpt>
      <trkpt lat="48.54958" lon="1.92164">
        <ele>144.55</ele>
        <time>2017-11-26T11:15:24Z</time>
      </trkpt>
      <trkpt lat="48.5496" lon="1.92156">
        <ele>144.81</ele>
        <time>2017-11-26T11:15:26Z</time>
      </trkpt>
      <trkpt lat="48.54962" lon="1.92148">
        <ele>145.07</ele>
        <time>2017-11-26T11:15:28Z</time>
      </trkpt>
      <trkpt lat="48.54964" lon="1.9214">
        <ele>145.35</ele>
        <time>2017-11-26T11:15:30Z</time>
      </trkpt>
      <trkpt lat="48.54967" lon="1.92132">
        <ele>145.62</ele>
        <time>2017-11-26T11:15:32Z</time>
      </trkpt>
      <trkpt lat="48.54968" lon="1.92124">
        <ele>145.89</ele>
        <time>2017-11-26T11:15:34Z</time>
      </trkpt>
      <trkpt lat="48.5497" lon="1.92115">
        <ele>146.15</ele>
        <time>2017-11-26T11:15:36Z</time>
      </trkpt>
      <trkpt lat="48.54972" lon="1.92107">
        <ele>146.43</ele>
        <time>2017-11-26T11:15:38Z</time>
      </trkpt>
      <trkpt lat="48.54974" lon="1.92099">
        <ele>146.71</ele>
        <time>2017-11-26T11:15:40Z</time>
      </trkpt>
      <trkpt lat="48.54976" lon="1.92091">
        <ele>146.98</ele>
        <time>2017-11-26T11:15:42Z</time>
      </trkpt>
      <trkpt lat="48.54979" lon="1.92083">
        <ele>147.26</ele>
        <time>2017-11-26T11:15:44Z</time>
      </trkpt>
      <trkpt lat="48.54981" lon="1.92075">
        <ele>147.55</ele>
        <time>2017-11-26T11:15:46Z</time>
      </trkpt>
      <trkpt lat="48.54984" lon="1.92067">
        <ele>147.84</ele>
        <time>2017-11-26T11:15:48Z</time>
      </trkpt>
      <trkpt lat="48.54986" lon="1.9206">
        <ele>148.12</ele>
        <time>2017-11-26T11:15:50Z</time>
      </trkpt>
      <trkpt lat="48.54989" lon="1.92052">
        <ele>148.4</ele>
        <time>2017-11-26T11:15:52Z</time>
      </trkpt>
      <trkpt lat="48.54991" lon="1.92045">
        <ele>148.65</ele>
        <time>2017-11-26T11:15:54Z</time>
      </trkpt>
      <trkpt lat="48.54993" lon="1.92037">
        <ele>148.9</ele>
        <time>2017-11-26T11:15:56Z</time>
      </trkpt>
      <trkpt lat="48.55018" lon="1.91954">
        <ele>149.9</ele>
        <time>2017-11-26T11:16:17Z</time>
      </trkpt>
      <trkpt lat="48.55023" lon="1.91942">
        <ele>149.91</ele>
        <time>2017-11-26T11:16:22Z</time>
      </trkpt>
      <trkpt lat="48.55024" lon="1.91935">
        <ele>149.94</ele>
        <time>2017-11-26T11:16:24Z</time>
      </trkpt>
      <trkpt lat="48.55026" lon="1.91926">
        <ele>149.97</ele>
        <time>2017-11-26T11:16:28Z</time>
      </trkpt>
      <trkpt lat="48.55032" lon="1.91916">
        <ele>150.01</ele>
        <time>2017-11-26T11:16:32Z</time>
      </trkpt>
      <trkpt lat="48.55035" lon="1.91905">
        <ele>150.27</ele>
        <time>2017-11-26T11:16:36Z</time>
      </trkpt>
      <trkpt lat="48.55037" lon="1.91899">
        <ele>150.44</ele>
        <time>2017-11-26T11:16:38Z</time>
      </trkpt>
      <trkpt lat="48.5504" lon="1.91888">
        <ele>150.69</ele>
        <time>2017-11-26T11:16:42Z</time>
      </trkpt>
      <trkpt lat="48.55042" lon="1.91881">
        <ele>150.85</ele>
        <time>2017-11-26T11:16:44Z</time>
      </trkpt>
      <trkpt lat="48.55043" lon="1.91874">
        <ele>151.01</ele>
        <time>2017-11-26T11:16:46Z</time>
      </trkpt>
      <trkpt lat="48.55046" lon="1.91864">
        <ele>151.26</ele>
        <time>2017-11-26T11:16:50Z</time>
      </trkpt>
      <trkpt lat="48.55048" lon="1.91857">
        <ele>151.44</ele>
        <time>2017-11-26T11:16:54Z</time>
      </trkpt>
      <trkpt lat="48.55049" lon="1.9185">
        <ele>151.6</ele>
        <time>2017-11-26T11:16:58Z</time>
      </trkpt>
      <trkpt lat="48.55052" lon="1.91841">
        <ele>151.8</ele>
        <time>2017-11-26T11:17:02Z</time>
      </trkpt>
      <trkpt lat="48.55054" lon="1.91831">
        <ele>152.09</ele>
        <time>2017-11-26T11:17:06Z</time>
      </trkpt>
      <trkpt lat="48.55057" lon="1.91822">
        <ele>152.49</ele>
        <time>2017-11-26T11:17:10Z</time>
      </trkpt>
      <trkpt lat="48.55057" lon="1.91814">
        <ele>152.88</ele>
        <time>2017-11-26T11:17:14Z</time>
      </trkpt>
      <trkpt lat="48.5506" lon="1.91807">
        <ele>153.18</ele>
        <time>2017-11-26T11:17:16Z</time>
      </trkpt>
      <trkpt lat="48.55062" lon="1.91796">
        <ele>153.69</ele>
        <time>2017-11-26T11:17:20Z</time>
      </trkpt>
      <trkpt lat="48.55064" lon="1.91786">
        <ele>154.14</ele>
        <time>2017-11-26T11:17:24Z</time>
      </trkpt>
      <trkpt lat="48.55066" lon="1.91777">
        <ele>154.57</ele>
        <time>2017-11-26T11:17:28Z</time>
      </trkpt>
      <trkpt lat="48.55066" lon="1.9177">
        <ele>154.89</ele>
        <time>2017-11-26T11:17:30Z</time>
      </trkpt>
      <trkpt lat="48.55069" lon="1.91759">
        <ele>155.43</ele>
        <time>2017-11-26T11:17:34Z</time>
      </trkpt>
      <trkpt lat="48.55071" lon="1.91748">
        <ele>155.94</ele>
        <time>2017-11-26T11:17:38Z</time>
      </trkpt>
      <trkpt lat="48.55074" lon="1.91738">
        <ele>156.33</ele>
        <time>2017-11-26T11:17:42Z</time>
      </trkpt>
      <trkpt lat="48.55073" lon="1.91728">
        <ele>156.75</ele>
        <time>2017-11-26T11:17:46Z</time>
      </trkpt>
      <trkpt lat="48.55073" lon="1.91719">
        <ele>157.07</ele>
        <time>2017-11-26T11:17:50Z</time>
      </trkpt>
      <trkpt lat="48.55071" lon="1.91711">
        <ele>157.39</ele>
        <time>2017-11-26T11:17:54Z</time>
      </trkpt>
      <trkpt lat="48.55069" lon="1.91705">
        <ele>157.64</ele>
        <time>2017-11-26T11:17:58Z</time>
      </trkpt>
      <trkpt lat="48.5507" lon="1.91695">
        <ele>158.05</ele>
        <time>2017-11-26T11:18:02Z</time>
      </trkpt>
      <trkpt lat="48.5507" lon="1.91685">
        <ele>158.44</ele>
        <time>2017-11-26T11:18:10Z</time>
      </trkpt>
      <trkpt lat="48.5507" lon="1.91677">
        <ele>158.75</ele>
        <time>2017-11-26T11:18:14Z</time>
      </trkpt>
      <trkpt lat="48.55072" lon="1.91671">
        <ele>158.97</ele>
        <time>2017-11-26T11:18:18Z</time>
      </trkpt>
      <trkpt lat="48.55074" lon="1.91655">
        <ele>159.54</ele>
        <time>2017-11-26T11:18:22Z</time>
      </trkpt>
      <trkpt lat="48.55077" lon="1.91644">
        <ele>159.9</ele>
        <time>2017-11-26T11:18:24Z</time>
      </trkpt>
      <trkpt lat="48.55074" lon="1.91635">
        <ele>160.28</ele>
        <time>2017-11-26T11:18:26Z</time>
      </trkpt>
      <trkpt lat="48.55075" lon="1.91624">
        <ele>160.7</ele>
        <time>2017-11-26T11:18:28Z</time>
      </trkpt>
      <trkpt lat="48.55077" lon="1.91614">
        <ele>161.02</ele>
        <time>2017-11-26T11:18:30Z</time>
      </trkpt>
      <trkpt lat="48.55079" lon="1.91606">
        <ele>161.26</ele>
        <time>2017-11-26T11:18:32Z</time>
      </trkpt>
      <trkpt lat="48.55077" lon="1.91599">
        <ele>161.59</ele>
        <time>2017-11-26T11:18:34Z</time>
      </trkpt>
      <trkpt lat="48.55068" lon="1.91595">
        <ele>161.9</ele>
        <time>2017-11-26T11:18:36Z</time>
      </trkpt>
      <trkpt lat="48.55069" lon="1.91584">
        <ele>162.31</ele>
        <time>2017-11-26T11:18:38Z</time>
      </trkpt>
      <trkpt lat="48.5507" lon="1.91571">
        <ele>162.13</ele>
        <time>2017-11-26T11:18:40Z</time>
      </trkpt>
      <trkpt lat="48.55072" lon="1.9156">
        <ele>161.89</ele>
        <time>2017-11-26T11:18:42Z</time>
      </trkpt>
      <trkpt lat="48.55074" lon="1.91553">
        <ele>161.68</ele>
        <time>2017-11-26T11:18:44Z</time>
      </trkpt>
      <trkpt lat="48.55074" lon="1.91542">
        <ele>161.53</ele>
        <time>2017-11-26T11:18:46Z</time>
      </trkpt>
      <trkpt lat="48.55074" lon="1.91531">
        <ele>161.35</ele>
        <time>2017-11-26T11:18:48Z</time>
      </trkpt>
      <trkpt lat="48.55075" lon="1.91523">
        <ele>161.14</ele>
        <time>2017-11-26T11:18:50Z</time>
      </trkpt>
      <trkpt lat="48.55075" lon="1.91512">
        <ele>160.92</ele>
        <time>2017-11-26T11:18:52Z</time>
      </trkpt>
      <trkpt lat="48.55076" lon="1.915">
        <ele>160.6</ele>
        <time>2017-11-26T11:18:54Z</time>
      </trkpt>
      <trkpt lat="48.55078" lon="1.91487">
        <ele>160.33</ele>
        <time>2017-11-26T11:18:56Z</time>
      </trkpt>
      <trkpt lat="48.55079" lon="1.91475">
        <ele>160.06</ele>
        <time>2017-11-26T11:18:58Z</time>
      </trkpt>
      <trkpt lat="48.55079" lon="1.91464">
        <ele>159.91</ele>
        <time>2017-11-26T11:19:00Z</time>
      </trkpt>
      <trkpt lat="48.55079" lon="1.91452">
        <ele>159.79</ele>
        <time>2017-11-26T11:19:02Z</time>
      </trkpt>
      <trkpt lat="48.55078" lon="1.91441">
        <ele>159.75</ele>
        <time>2017-11-26T11:19:04Z</time>
      </trkpt>
      <trkpt lat="48.55075" lon="1.91429">
        <ele>159.82</ele>
        <time>2017-11-26T11:19:06Z</time>
      </trkpt>
      <trkpt lat="48.55074" lon="1.91417">
        <ele>159.78</ele>
        <time>2017-11-26T11:19:08Z</time>
      </trkpt>
      <trkpt lat="48.55075" lon="1.9138">
        <ele>158.88</ele>
        <time>2017-11-26T11:19:10Z</time>
      </trkpt>
      <trkpt lat="48.55075" lon="1.91368">
        <ele>158.61</ele>
        <time>2017-11-26T11:19:12Z</time>
      </trkpt>
      <trkpt lat="48.55077" lon="1.91357">
        <ele>158.14</ele>
        <time>2017-11-26T11:19:14Z</time>
      </trkpt>
      <trkpt lat="48.5508" lon="1.91345">
        <ele>157.62</ele>
        <time>2017-11-26T11:19:16Z</time>
      </trkpt>
      <trkpt lat="48.55081" lon="1.91334">
        <ele>157.2</ele>
        <time>2017-11-26T11:19:18Z</time>
      </trkpt>
      <trkpt lat="48.55083" lon="1.91323">
        <ele>157.02</ele>
        <time>2017-11-26T11:19:20Z</time>
      </trkpt>
      <trkpt lat="48.55084" lon="1.91312">
        <ele>156.97</ele>
        <time>2017-11-26T11:19:22Z</time>
      </trkpt>
      <trkpt lat="48.55087" lon="1.913">
        <ele>156.9</ele>
        <time>2017-11-26T11:19:24Z</time>
      </trkpt>
      <trkpt lat="48.5509" lon="1.9129">
        <ele>156.79</ele>
        <time>2017-11-26T11:19:26Z</time>
      </trkpt>
      <trkpt lat="48.55095" lon="1.91283">
        <ele>156.66</ele>
        <time>2017-11-26T11:19:28Z</time>
      </trkpt>
      <trkpt lat="48.55101" lon="1.91282">
        <ele>156.49</ele>
        <time>2017-11-26T11:19:30Z</time>
      </trkpt>
      <trkpt lat="48.55107" lon="1.91287">
        <ele>156.31</ele>
        <time>2017-11-26T11:19:32Z</time>
      </trkpt>
      <trkpt lat="48.55111" lon="1.91294">
        <ele>156.15</ele>
        <time>2017-11-26T11:19:34Z</time>
      </trkpt>
      <trkpt lat="48.55116" lon="1.91302">
        <ele>155.99</ele>
        <time>2017-11-26T11:19:36Z</time>
      </trkpt>
      <trkpt lat="48.55119" lon="1.9131">
        <ele>155.82</ele>
        <time>2017-11-26T11:19:38Z</time>
      </trkpt>
      <trkpt lat="48.55123" lon="1.91318">
        <ele>155.67</ele>
        <time>2017-11-26T11:19:40Z</time>
      </trkpt>
      <trkpt lat="48.55126" lon="1.91335">
        <ele>155.49</ele>
        <time>2017-11-26T11:19:44Z</time>
      </trkpt>
      <trkpt lat="48.55126" lon="1.91345">
        <ele>155.52</ele>
        <time>2017-11-26T11:19:46Z</time>
      </trkpt>
      <trkpt lat="48.55127" lon="1.91354">
        <ele>155.53</ele>
        <time>2017-11-26T11:19:48Z</time>
      </trkpt>
      <trkpt lat="48.55128" lon="1.91364">
        <ele>155.52</ele>
        <time>2017-11-26T11:19:50Z</time>
      </trkpt>
      <trkpt lat="48.55129" lon="1.91374">
        <ele>155.51</ele>
        <time>2017-11-26T11:19:52Z</time>
      </trkpt>
      <trkpt lat="48.5513" lon="1.91385">
        <ele>155.49</ele>
        <time>2017-11-26T11:19:54Z</time>
      </trkpt>
      <trkpt lat="48.55131" lon="1.91404">
        <ele>155.53</ele>
        <time>2017-11-26T11:19:56Z</time>
      </trkpt>
      <trkpt lat="48.55133" lon="1.91422">
        <ele>155.53</ele>
        <time>2017-11-26T11:19:58Z</time>
      </trkpt>
      <trkpt lat="48.55135" lon="1.91439">
        <ele>155.68</ele>
        <time>2017-11-26T11:20:00Z</time>
      </trkpt>
      <trkpt lat="48.55137" lon="1.91456">
        <ele>155.91</ele>
        <time>2017-11-26T11:20:02Z</time>
      </trkpt>
      <trkpt lat="48.55138" lon="1.91472">
        <ele>156.15</ele>
        <time>2017-11-26T11:20:04Z</time>
      </trkpt>
      <trkpt lat="48.5514" lon="1.9149">
        <ele>156.39</ele>
        <time>2017-11-26T11:20:06Z</time>
      </trkpt>
      <trkpt lat="48.55143" lon="1.9151">
        <ele>156.6</ele>
        <time>2017-11-26T11:20:08Z</time>
      </trkpt>
      <trkpt lat="48.55142" lon="1.91525">
        <ele>156.88</ele>
        <time>2017-11-26T11:20:10Z</time>
      </trkpt>
      <trkpt lat="48.55141" lon="1.91538">
        <ele>157.15</ele>
        <time>2017-11-26T11:20:12Z</time>
      </trkpt>
      <trkpt lat="48.55141" lon="1.91552">
        <ele>157.37</ele>
        <time>2017-11-26T11:20:14Z</time>
      </trkpt>
      <trkpt lat="48.5514" lon="1.91565">
        <ele>157.62</ele>
        <time>2017-11-26T11:20:16Z</time>
      </trkpt>
      <trkpt lat="48.55142" lon="1.91577">
        <ele>157.68</ele>
        <time>2017-11-26T11:20:18Z</time>
      </trkpt>
      <trkpt lat="48.55142" lon="1.91593">
        <ele>157.73</ele>
        <time>2017-11-26T11:20:20Z</time>
      </trkpt>
      <trkpt lat="48.55143" lon="1.91608">
        <ele>157.64</ele>
        <time>2017-11-26T11:20:22Z</time>
      </trkpt>
      <trkpt lat="48.55143" lon="1.91621">
        <ele>157.65</ele>
        <time>2017-11-26T11:20:24Z</time>
      </trkpt>
      <trkpt lat="48.55142" lon="1.91636">
        <ele>157.66</ele>
        <time>2017-11-26T11:20:26Z</time>
      </trkpt>
      <trkpt lat="48.55143" lon="1.9165">
        <ele>157.61</ele>
        <time>2017-11-26T11:20:28Z</time>
      </trkpt>
      <trkpt lat="48.55136" lon="1.91655">
        <ele>157.79</ele>
        <time>2017-11-26T11:20:30Z</time>
      </trkpt>
      <trkpt lat="48.55133" lon="1.91663">
        <ele>157.84</ele>
        <time>2017-11-26T11:20:32Z</time>
      </trkpt>
      <trkpt lat="48.55133" lon="1.91679">
        <ele>157.45</ele>
        <time>2017-11-26T11:20:34Z</time>
      </trkpt>
      <trkpt lat="48.55133" lon="1.91693">
        <ele>157.05</ele>
        <time>2017-11-26T11:20:36Z</time>
      </trkpt>
      <trkpt lat="48.55125" lon="1.91696">
        <ele>157.13</ele>
        <time>2017-11-26T11:20:38Z</time>
      </trkpt>
      <trkpt lat="48.55126" lon="1.91703">
        <ele>156.91</ele>
        <time>2017-11-26T11:20:40Z</time>
      </trkpt>
      <trkpt lat="48.55123" lon="1.91715">
        <ele>156.58</ele>
        <time>2017-11-26T11:20:42Z</time>
      </trkpt>
      <trkpt lat="48.55132" lon="1.91732">
        <ele>155.93</ele>
        <time>2017-11-26T11:20:44Z</time>
      </trkpt>
      <trkpt lat="48.55143" lon="1.91747">
        <ele>155.38</ele>
        <time>2017-11-26T11:20:46Z</time>
      </trkpt>
      <trkpt lat="48.55152" lon="1.91755">
        <ele>155.04</ele>
        <time>2017-11-26T11:20:48Z</time>
      </trkpt>
      <trkpt lat="48.55158" lon="1.91762">
        <ele>154.77</ele>
        <time>2017-11-26T11:20:50Z</time>
      </trkpt>
      <trkpt lat="48.55162" lon="1.9177">
        <ele>154.55</ele>
        <time>2017-11-26T11:20:52Z</time>
      </trkpt>
      <trkpt lat="48.55166" lon="1.91775">
        <ele>154.41</ele>
        <time>2017-11-26T11:20:54Z</time>
      </trkpt>
      <trkpt lat="48.55172" lon="1.91784">
        <ele>154.91</ele>
        <time>2017-11-26T11:20:58Z</time>
      </trkpt>
      <trkpt lat="48.55177" lon="1.91789">
        <ele>155.53</ele>
        <time>2017-11-26T11:21:02Z</time>
      </trkpt>
      <trkpt lat="48.55182" lon="1.91794">
        <ele>156.12</ele>
        <time>2017-11-26T11:21:06Z</time>
      </trkpt>
      <trkpt lat="48.55187" lon="1.91801">
        <ele>156.72</ele>
        <time>2017-11-26T11:21:10Z</time>
      </trkpt>
      <trkpt lat="48.55192" lon="1.91803">
        <ele>157.39</ele>
        <time>2017-11-26T11:21:14Z</time>
      </trkpt>
      <trkpt lat="48.55191" lon="1.9181">
        <ele>157.17</ele>
        <time>2017-11-26T11:21:20Z</time>
      </trkpt>
      <trkpt lat="48.5519" lon="1.9182">
        <ele>156.83</ele>
        <time>2017-11-26T11:21:26Z</time>
      </trkpt>
      <trkpt lat="48.55191" lon="1.91828">
        <ele>156.81</ele>
        <time>2017-11-26T11:21:30Z</time>
      </trkpt>
      <trkpt lat="48.55191" lon="1.91836">
        <ele>156.88</ele>
        <time>2017-11-26T11:21:34Z</time>
      </trkpt>
      <trkpt lat="48.55199" lon="1.91855">
        <ele>158.19</ele>
        <time>2017-11-26T11:21:48Z</time>
      </trkpt>
      <trkpt lat="48.55205" lon="1.9186">
        <ele>159.09</ele>
        <time>2017-11-26T11:21:51Z</time>
      </trkpt>
      <trkpt lat="48.55208" lon="1.91868">
        <ele>159.68</ele>
        <time>2017-11-26T11:21:55Z</time>
      </trkpt>
      <trkpt lat="48.55209" lon="1.91876">
        <ele>159.8</ele>
        <time>2017-11-26T11:22:09Z</time>
      </trkpt>
      <trkpt lat="48.55207" lon="1.91885">
        <ele>159.62</ele>
        <time>2017-11-26T11:22:13Z</time>
      </trkpt>
      <trkpt lat="48.55208" lon="1.91892">
        <ele>159.76</ele>
        <time>2017-11-26T11:22:15Z</time>
      </trkpt>
      <trkpt lat="48.55208" lon="1.91902">
        <ele>159.89</ele>
        <time>2017-11-26T11:22:17Z</time>
      </trkpt>
      <trkpt lat="48.55209" lon="1.91912">
        <ele>160.04</ele>
        <time>2017-11-26T11:22:19Z</time>
      </trkpt>
      <trkpt lat="48.5521" lon="1.91924">
        <ele>160.31</ele>
        <time>2017-11-26T11:22:21Z</time>
      </trkpt>
      <trkpt lat="48.55212" lon="1.91935">
        <ele>160.58</ele>
        <time>2017-11-26T11:22:23Z</time>
      </trkpt>
      <trkpt lat="48.55212" lon="1.91944">
        <ele>160.6</ele>
        <time>2017-11-26T11:22:25Z</time>
      </trkpt>
      <trkpt lat="48.55212" lon="1.91954">
        <ele>160.47</ele>
        <time>2017-11-26T11:22:27Z</time>
      </trkpt>
      <trkpt lat="48.55212" lon="1.91963">
        <ele>160.58</ele>
        <time>2017-11-26T11:22:29Z</time>
      </trkpt>
      <trkpt lat="48.55216" lon="1.91975">
        <ele>161.16</ele>
        <time>2017-11-26T11:22:31Z</time>
      </trkpt>
      <trkpt lat="48.55219" lon="1.91986">
        <ele>161.56</ele>
        <time>2017-11-26T11:22:33Z</time>
      </trkpt>
      <trkpt lat="48.55221" lon="1.91997">
        <ele>161.79</ele>
        <time>2017-11-26T11:22:35Z</time>
      </trkpt>
      <trkpt lat="48.55221" lon="1.9201">
        <ele>161.9</ele>
        <time>2017-11-26T11:22:37Z</time>
      </trkpt>
      <trkpt lat="48.55222" lon="1.92022">
        <ele>162.13</ele>
        <time>2017-11-26T11:22:39Z</time>
      </trkpt>
      <trkpt lat="48.55222" lon="1.92033">
        <ele>162.2</ele>
        <time>2017-11-26T11:22:41Z</time>
      </trkpt>
      <trkpt lat="48.55221" lon="1.92042">
        <ele>162.13</ele>
        <time>2017-11-26T11:22:43Z</time>
      </trkpt>
      <trkpt lat="48.5522" lon="1.9205">
        <ele>162.1</ele>
        <time>2017-11-26T11:22:45Z</time>
      </trkpt>
      <trkpt lat="48.55221" lon="1.92059">
        <ele>162.29</ele>
        <time>2017-11-26T11:22:47Z</time>
      </trkpt>
      <trkpt lat="48.55221" lon="1.92067">
        <ele>162.29</ele>
        <time>2017-11-26T11:22:49Z</time>
      </trkpt>
      <trkpt lat="48.55223" lon="1.92076">
        <ele>162.66</ele>
        <time>2017-11-26T11:22:53Z</time>
      </trkpt>
      <trkpt lat="48.55224" lon="1.9209">
        <ele>163.08</ele>
        <time>2017-11-26T11:22:57Z</time>
      </trkpt>
      <trkpt lat="48.55224" lon="1.92097">
        <ele>163.26</ele>
        <time>2017-11-26T11:22:59Z</time>
      </trkpt>
      <trkpt lat="48.55224" lon="1.9211">
        <ele>163.53</ele>
        <time>2017-11-26T11:23:03Z</time>
      </trkpt>
      <trkpt lat="48.55225" lon="1.92117">
        <ele>163.81</ele>
        <time>2017-11-26T11:23:05Z</time>
      </trkpt>
      <trkpt lat="48.55226" lon="1.92131">
        <ele>164.08</ele>
        <time>2017-11-26T11:23:09Z</time>
      </trkpt>
      <trkpt lat="48.55228" lon="1.92142">
        <ele>164.6</ele>
        <time>2017-11-26T11:23:11Z</time>
      </trkpt>
      <trkpt lat="48.55229" lon="1.9215">
        <ele>164.92</ele>
        <time>2017-11-26T11:23:13Z</time>
      </trkpt>
      <trkpt lat="48.5523" lon="1.92159">
        <ele>165.21</ele>
        <time>2017-11-26T11:23:15Z</time>
      </trkpt>
      <trkpt lat="48.55231" lon="1.92167">
        <ele>165.45</ele>
        <time>2017-11-26T11:23:17Z</time>
      </trkpt>
      <trkpt lat="48.5523" lon="1.92175">
        <ele>165.5</ele>
        <time>2017-11-26T11:23:19Z</time>
      </trkpt>
      <trkpt lat="48.55231" lon="1.92182">
        <ele>165.6</ele>
        <time>2017-11-26T11:23:21Z</time>
      </trkpt>
      <trkpt lat="48.55231" lon="1.92191">
        <ele>165.71</ele>
        <time>2017-11-26T11:23:23Z</time>
      </trkpt>
      <trkpt lat="48.55231" lon="1.92199">
        <ele>165.86</ele>
        <time>2017-11-26T11:23:25Z</time>
      </trkpt>
      <trkpt lat="48.55233" lon="1.92207">
        <ele>166.1</ele>
        <time>2017-11-26T11:23:27Z</time>
      </trkpt>
      <trkpt lat="48.55234" lon="1.92214">
        <ele>166.27</ele>
        <time>2017-11-26T11:23:29Z</time>
      </trkpt>
      <trkpt lat="48.55234" lon="1.92222">
        <ele>166.38</ele>
        <time>2017-11-26T11:23:31Z</time>
      </trkpt>
      <trkpt lat="48.55235" lon="1.92232">
        <ele>166.54</ele>
        <time>2017-11-26T11:23:33Z</time>
      </trkpt>
      <trkpt lat="48.55235" lon="1.92243">
        <ele>166.68</ele>
        <time>2017-11-26T11:23:35Z</time>
      </trkpt>
      <trkpt lat="48.55236" lon="1.92255">
        <ele>166.86</ele>
        <time>2017-11-26T11:23:37Z</time>
      </trkpt>
      <trkpt lat="48.55237" lon="1.92264">
        <ele>166.96</ele>
        <time>2017-11-26T11:23:39Z</time>
      </trkpt>
      <trkpt lat="48.55235" lon="1.92278">
        <ele>166.89</ele>
        <time>2017-11-26T11:23:43Z</time>
      </trkpt>
      <trkpt lat="48.55237" lon="1.92288">
        <ele>167.05</ele>
        <time>2017-11-26T11:23:45Z</time>
      </trkpt>
      <trkpt lat="48.55238" lon="1.92302">
        <ele>167.19</ele>
        <time>2017-11-26T11:23:47Z</time>
      </trkpt>
      <trkpt lat="48.55237" lon="1.92313">
        <ele>167.15</ele>
        <time>2017-11-26T11:23:49Z</time>
      </trkpt>
      <trkpt lat="48.55235" lon="1.92324">
        <ele>167.06</ele>
        <time>2017-11-26T11:23:51Z</time>
      </trkpt>
      <trkpt lat="48.55234" lon="1.92335">
        <ele>166.99</ele>
        <time>2017-11-26T11:23:53Z</time>
      </trkpt>
      <trkpt lat="48.55233" lon="1.92345">
        <ele>166.79</ele>
        <time>2017-11-26T11:23:55Z</time>
      </trkpt>
      <trkpt lat="48.55233" lon="1.92355">
        <ele>166.61</ele>
        <time>2017-11-26T11:23:57Z</time>
      </trkpt>
      <trkpt lat="48.55235" lon="1.92365">
        <ele>166.55</ele>
        <time>2017-11-26T11:23:59Z</time>
      </trkpt>
      <trkpt lat="48.55237" lon="1.92376">
        <ele>166.56</ele>
        <time>2017-11-26T11:24:01Z</time>
      </trkpt>
      <trkpt lat="48.55241" lon="1.92386">
        <ele>166.68</ele>
        <time>2017-11-26T11:24:03Z</time>
      </trkpt>
      <trkpt lat="48.55245" lon="1.92395">
        <ele>166.86</ele>
        <time>2017-11-26T11:24:05Z</time>
      </trkpt>
      <trkpt lat="48.5525" lon="1.92406">
        <ele>167.11</ele>
        <time>2017-11-26T11:24:07Z</time>
      </trkpt>
      <trkpt lat="48.55256" lon="1.92419">
        <ele>167</ele>
        <time>2017-11-26T11:24:09Z</time>
      </trkpt>
      <trkpt lat="48.55261" lon="1.9243">
        <ele>166.71</ele>
        <time>2017-11-26T11:24:11Z</time>
      </trkpt>
      <trkpt lat="48.55264" lon="1.92437">
        <ele>166.51</ele>
        <time>2017-11-26T11:24:13Z</time>
      </trkpt>
      <trkpt lat="48.55266" lon="1.92445">
        <ele>166.31</ele>
        <time>2017-11-26T11:24:15Z</time>
      </trkpt>
      <trkpt lat="48.55271" lon="1.92455">
        <ele>166.11</ele>
        <time>2017-11-26T11:24:17Z</time>
      </trkpt>
      <trkpt lat="48.55274" lon="1.92464">
        <ele>165.91</ele>
        <time>2017-11-26T11:24:19Z</time>
      </trkpt>
      <trkpt lat="48.55277" lon="1.92474">
        <ele>165.7</ele>
        <time>2017-11-26T11:24:21Z</time>
      </trkpt>
      <trkpt lat="48.55278" lon="1.92484">
        <ele>165.45</ele>
        <time>2017-11-26T11:24:23Z</time>
      </trkpt>
      <trkpt lat="48.5528" lon="1.92496">
        <ele>165.19</ele>
        <time>2017-11-26T11:24:25Z</time>
      </trkpt>
      <trkpt lat="48.55285" lon="1.92512">
        <ele>164.98</ele>
        <time>2017-11-26T11:24:27Z</time>
      </trkpt>
      <trkpt lat="48.55291" lon="1.92529">
        <ele>164.78</ele>
        <time>2017-11-26T11:24:29Z</time>
      </trkpt>
      <trkpt lat="48.55297" lon="1.92545">
        <ele>164.6</ele>
        <time>2017-11-26T11:24:31Z</time>
      </trkpt>
      <trkpt lat="48.55301" lon="1.92558">
        <ele>164.42</ele>
        <time>2017-11-26T11:24:33Z</time>
      </trkpt>
      <trkpt lat="48.55303" lon="1.92571">
        <ele>164.22</ele>
        <time>2017-11-26T11:24:35Z</time>
      </trkpt>
      <trkpt lat="48.55306" lon="1.92582">
        <ele>164.06</ele>
        <time>2017-11-26T11:24:37Z</time>
      </trkpt>
      <trkpt lat="48.5531" lon="1.92593">
        <ele>163.77</ele>
        <time>2017-11-26T11:24:39Z</time>
      </trkpt>
      <trkpt lat="48.55314" lon="1.92603">
        <ele>163.55</ele>
        <time>2017-11-26T11:24:41Z</time>
      </trkpt>
      <trkpt lat="48.55316" lon="1.92612">
        <ele>163.27</ele>
        <time>2017-11-26T11:24:43Z</time>
      </trkpt>
      <trkpt lat="48.55316" lon="1.92619">
        <ele>163</ele>
        <time>2017-11-26T11:24:45Z</time>
      </trkpt>
      <trkpt lat="48.55316" lon="1.92627">
        <ele>162.72</ele>
        <time>2017-11-26T11:24:47Z</time>
      </trkpt>
      <trkpt lat="48.55318" lon="1.92635">
        <ele>162.44</ele>
        <time>2017-11-26T11:24:49Z</time>
      </trkpt>
      <trkpt lat="48.55319" lon="1.92644">
        <ele>162.16</ele>
        <time>2017-11-26T11:24:51Z</time>
      </trkpt>
      <trkpt lat="48.5532" lon="1.92652">
        <ele>161.91</ele>
        <time>2017-11-26T11:24:53Z</time>
      </trkpt>
      <trkpt lat="48.55323" lon="1.92661">
        <ele>161.74</ele>
        <time>2017-11-26T11:24:55Z</time>
      </trkpt>
      <trkpt lat="48.55327" lon="1.9267">
        <ele>161.67</ele>
        <time>2017-11-26T11:24:57Z</time>
      </trkpt>
      <trkpt lat="48.55333" lon="1.92682">
        <ele>161.77</ele>
        <time>2017-11-26T11:24:59Z</time>
      </trkpt>
      <trkpt lat="48.55334" lon="1.92693">
        <ele>161.75</ele>
        <time>2017-11-26T11:25:01Z</time>
      </trkpt>
      <trkpt lat="48.55335" lon="1.92704">
        <ele>161.68</ele>
        <time>2017-11-26T11:25:03Z</time>
      </trkpt>
      <trkpt lat="48.55336" lon="1.92715">
        <ele>161.56</ele>
        <time>2017-11-26T11:25:05Z</time>
      </trkpt>
      <trkpt lat="48.55336" lon="1.92726">
        <ele>161.46</ele>
        <time>2017-11-26T11:25:07Z</time>
      </trkpt>
      <trkpt lat="48.55337" lon="1.92737">
        <ele>161.43</ele>
        <time>2017-11-26T11:25:09Z</time>
      </trkpt>
      <trkpt lat="48.55339" lon="1.92747">
        <ele>161.43</ele>
        <time>2017-11-26T11:25:11Z</time>
      </trkpt>
      <trkpt lat="48.55341" lon="1.92757">
        <ele>161.4</ele>
        <time>2017-11-26T11:25:13Z</time>
      </trkpt>
      <trkpt lat="48.55343" lon="1.92767">
        <ele>161.32</ele>
        <time>2017-11-26T11:25:15Z</time>
      </trkpt>
      <trkpt lat="48.55343" lon="1.92776">
        <ele>161.19</ele>
        <time>2017-11-26T11:25:17Z</time>
      </trkpt>
      <trkpt lat="48.55345" lon="1.92786">
        <ele>161.17</ele>
        <time>2017-11-26T11:25:19Z</time>
      </trkpt>
      <trkpt lat="48.55348" lon="1.92793">
        <ele>161.25</ele>
        <time>2017-11-26T11:25:21Z</time>
      </trkpt>
      <trkpt lat="48.5535" lon="1.928">
        <ele>161.34</ele>
        <time>2017-11-26T11:25:23Z</time>
      </trkpt>
      <trkpt lat="48.55353" lon="1.92806">
        <ele>161.52</ele>
        <time>2017-11-26T11:25:25Z</time>
      </trkpt>
      <trkpt lat="48.55356" lon="1.92811">
        <ele>161.77</ele>
        <time>2017-11-26T11:26:09Z</time>
      </trkpt>
      <trkpt lat="48.55358" lon="1.92817">
        <ele>161.88</ele>
        <time>2017-11-26T11:26:21Z</time>
      </trkpt>
      <trkpt lat="48.55364" lon="1.92823">
        <ele>162.38</ele>
        <time>2017-11-26T11:26:31Z</time>
      </trkpt>
      <trkpt lat="48.55368" lon="1.9283">
        <ele>162.78</ele>
        <time>2017-11-26T11:26:35Z</time>
      </trkpt>
      <trkpt lat="48.55371" lon="1.92838">
        <ele>163.06</ele>
        <time>2017-11-26T11:26:39Z</time>
      </trkpt>
      <trkpt lat="48.55376" lon="1.9285">
        <ele>163.49</ele>
        <time>2017-11-26T11:26:43Z</time>
      </trkpt>
      <trkpt lat="48.55378" lon="1.92856">
        <ele>163.68</ele>
        <time>2017-11-26T11:26:45Z</time>
      </trkpt>
      <trkpt lat="48.55382" lon="1.92862">
        <ele>163.9</ele>
        <time>2017-11-26T11:26:47Z</time>
      </trkpt>
      <trkpt lat="48.55384" lon="1.92869">
        <ele>164.03</ele>
        <time>2017-11-26T11:26:49Z</time>
      </trkpt>
      <trkpt lat="48.55388" lon="1.92878">
        <ele>164.23</ele>
        <time>2017-11-26T11:26:51Z</time>
      </trkpt>
      <trkpt lat="48.55392" lon="1.92886">
        <ele>164.38</ele>
        <time>2017-11-26T11:26:53Z</time>
      </trkpt>
      <trkpt lat="48.55396" lon="1.92893">
        <ele>164.53</ele>
        <time>2017-11-26T11:26:55Z</time>
      </trkpt>
      <trkpt lat="48.55407" lon="1.9291">
        <ele>164.74</ele>
        <time>2017-11-26T11:26:59Z</time>
      </trkpt>
      <trkpt lat="48.55412" lon="1.92917">
        <ele>164.78</ele>
        <time>2017-11-26T11:27:01Z</time>
      </trkpt>
      <trkpt lat="48.55417" lon="1.92924">
        <ele>164.85</ele>
        <time>2017-11-26T11:27:03Z</time>
      </trkpt>
      <trkpt lat="48.55423" lon="1.9293">
        <ele>164.83</ele>
        <time>2017-11-26T11:27:05Z</time>
      </trkpt>
      <trkpt lat="48.55429" lon="1.92936">
        <ele>164.85</ele>
        <time>2017-11-26T11:27:07Z</time>
      </trkpt>
      <trkpt lat="48.5544" lon="1.92948">
        <ele>164.92</ele>
        <time>2017-11-26T11:27:11Z</time>
      </trkpt>
      <trkpt lat="48.55446" lon="1.92954">
        <ele>164.98</ele>
        <time>2017-11-26T11:27:13Z</time>
      </trkpt>
      <trkpt lat="48.55453" lon="1.92957">
        <ele>165.11</ele>
        <time>2017-11-26T11:27:15Z</time>
      </trkpt>
      <trkpt lat="48.5546" lon="1.9296">
        <ele>165.25</ele>
        <time>2017-11-26T11:27:17Z</time>
      </trkpt>
      <trkpt lat="48.55466" lon="1.92963">
        <ele>165.4</ele>
        <time>2017-11-26T11:27:19Z</time>
      </trkpt>
      <trkpt lat="48.55476" lon="1.92973">
        <ele>165.55</ele>
        <time>2017-11-26T11:27:23Z</time>
      </trkpt>
      <trkpt lat="48.55477" lon="1.9298">
        <ele>165.49</ele>
        <time>2017-11-26T11:27:25Z</time>
      </trkpt>
      <trkpt lat="48.55477" lon="1.92988">
        <ele>165.35</ele>
        <time>2017-11-26T11:27:27Z</time>
      </trkpt>
      <trkpt lat="48.55477" lon="1.92996">
        <ele>165.22</ele>
        <time>2017-11-26T11:27:29Z</time>
      </trkpt>
      <trkpt lat="48.55479" lon="1.93003">
        <ele>165.13</ele>
        <time>2017-11-26T11:27:31Z</time>
      </trkpt>
      <trkpt lat="48.55485" lon="1.9301">
        <ele>165.11</ele>
        <time>2017-11-26T11:27:32Z</time>
      </trkpt>
      <trkpt lat="48.5549" lon="1.93018">
        <ele>165.02</ele>
        <time>2017-11-26T11:27:35Z</time>
      </trkpt>
      <trkpt lat="48.55495" lon="1.93027">
        <ele>164.87</ele>
        <time>2017-11-26T11:27:37Z</time>
      </trkpt>
      <trkpt lat="48.55499" lon="1.93037">
        <ele>164.64</ele>
        <time>2017-11-26T11:27:39Z</time>
      </trkpt>
      <trkpt lat="48.55503" lon="1.93047">
        <ele>164.44</ele>
        <time>2017-11-26T11:27:41Z</time>
      </trkpt>
      <trkpt lat="48.55508" lon="1.93056">
        <ele>164.3</ele>
        <time>2017-11-26T11:27:43Z</time>
      </trkpt>
      <trkpt lat="48.55514" lon="1.93068">
        <ele>164.14</ele>
        <time>2017-11-26T11:27:44Z</time>
      </trkpt>
      <trkpt lat="48.55517" lon="1.93078">
        <ele>163.98</ele>
        <time>2017-11-26T11:27:47Z</time>
      </trkpt>
      <trkpt lat="48.55521" lon="1.93088">
        <ele>163.92</ele>
        <time>2017-11-26T11:27:49Z</time>
      </trkpt>
      <trkpt lat="48.55528" lon="1.93099">
        <ele>164.1</ele>
        <time>2017-11-26T11:27:51Z</time>
      </trkpt>
      <trkpt lat="48.55535" lon="1.93106">
        <ele>164.37</ele>
        <time>2017-11-26T11:27:53Z</time>
      </trkpt>
      <trkpt lat="48.55543" lon="1.93111">
        <ele>164.74</ele>
        <time>2017-11-26T11:27:55Z</time>
      </trkpt>
      <trkpt lat="48.5555" lon="1.93115">
        <ele>165.1</ele>
        <time>2017-11-26T11:27:56Z</time>
      </trkpt>
      <trkpt lat="48.55556" lon="1.9312">
        <ele>165.42</ele>
        <time>2017-11-26T11:27:59Z</time>
      </trkpt>
      <trkpt lat="48.55562" lon="1.93125">
        <ele>165.72</ele>
        <time>2017-11-26T11:28:01Z</time>
      </trkpt>
      <trkpt lat="48.55567" lon="1.93131">
        <ele>165.97</ele>
        <time>2017-11-26T11:28:03Z</time>
      </trkpt>
      <trkpt lat="48.5557" lon="1.93141">
        <ele>166.15</ele>
        <time>2017-11-26T11:28:07Z</time>
      </trkpt>
      <trkpt lat="48.55567" lon="1.9315">
        <ele>165.9</ele>
        <time>2017-11-26T11:28:11Z</time>
      </trkpt>
      <trkpt lat="48.55562" lon="1.93162">
        <ele>165.47</ele>
        <time>2017-11-26T11:28:15Z</time>
      </trkpt>
      <trkpt lat="48.5556" lon="1.93172">
        <ele>165.38</ele>
        <time>2017-11-26T11:28:17Z</time>
      </trkpt>
      <trkpt lat="48.55562" lon="1.93185">
        <ele>165.57</ele>
        <time>2017-11-26T11:28:19Z</time>
      </trkpt>
      <trkpt lat="48.55571" lon="1.9327">
        <ele>166.2</ele>
        <time>2017-11-26T11:28:32Z</time>
      </trkpt>
      <trkpt lat="48.55571" lon="1.93288">
        <ele>165.66</ele>
        <time>2017-11-26T11:28:35Z</time>
      </trkpt>
      <trkpt lat="48.55571" lon="1.93298">
        <ele>165.36</ele>
        <time>2017-11-26T11:28:37Z</time>
      </trkpt>
      <trkpt lat="48.55571" lon="1.93308">
        <ele>165.05</ele>
        <time>2017-11-26T11:28:39Z</time>
      </trkpt>
      <trkpt lat="48.55572" lon="1.93317">
        <ele>164.84</ele>
        <time>2017-11-26T11:28:41Z</time>
      </trkpt>
      <trkpt lat="48.55572" lon="1.93325">
        <ele>164.6</ele>
        <time>2017-11-26T11:28:43Z</time>
      </trkpt>
      <trkpt lat="48.55573" lon="1.93334">
        <ele>164.4</ele>
        <time>2017-11-26T11:28:45Z</time>
      </trkpt>
      <trkpt lat="48.55575" lon="1.93342">
        <ele>164.31</ele>
        <time>2017-11-26T11:28:47Z</time>
      </trkpt>
      <trkpt lat="48.55576" lon="1.9335">
        <ele>164.17</ele>
        <time>2017-11-26T11:28:49Z</time>
      </trkpt>
      <trkpt lat="48.5558" lon="1.93359">
        <ele>164.19</ele>
        <time>2017-11-26T11:28:51Z</time>
      </trkpt>
      <trkpt lat="48.55583" lon="1.93367">
        <ele>164.2</ele>
        <time>2017-11-26T11:28:53Z</time>
      </trkpt>
      <trkpt lat="48.55587" lon="1.93375">
        <ele>164.29</ele>
        <time>2017-11-26T11:28:55Z</time>
      </trkpt>
      <trkpt lat="48.55591" lon="1.93383">
        <ele>164.34</ele>
        <time>2017-11-26T11:28:57Z</time>
      </trkpt>
      <trkpt lat="48.55593" lon="1.93392">
        <ele>164.35</ele>
        <time>2017-11-26T11:28:59Z</time>
      </trkpt>
      <trkpt lat="48.55594" lon="1.934">
        <ele>164.27</ele>
        <time>2017-11-26T11:29:01Z</time>
      </trkpt>
      <trkpt lat="48.55595" lon="1.93409">
        <ele>164.1</ele>
        <time>2017-11-26T11:29:03Z</time>
      </trkpt>
      <trkpt lat="48.55594" lon="1.93424">
        <ele>164.03</ele>
        <time>2017-11-26T11:29:07Z</time>
      </trkpt>
      <trkpt lat="48.55595" lon="1.93433">
        <ele>164.15</ele>
        <time>2017-11-26T11:29:09Z</time>
      </trkpt>
      <trkpt lat="48.55597" lon="1.93446">
        <ele>164.47</ele>
        <time>2017-11-26T11:29:11Z</time>
      </trkpt>
      <trkpt lat="48.55598" lon="1.93459">
        <ele>164.74</ele>
        <time>2017-11-26T11:29:13Z</time>
      </trkpt>
      <trkpt lat="48.55598" lon="1.93471">
        <ele>164.93</ele>
        <time>2017-11-26T11:29:15Z</time>
      </trkpt>
      <trkpt lat="48.55601" lon="1.93484">
        <ele>165.26</ele>
        <time>2017-11-26T11:29:17Z</time>
      </trkpt>
      <trkpt lat="48.55605" lon="1.93495">
        <ele>165.73</ele>
        <time>2017-11-26T11:29:19Z</time>
      </trkpt>
      <trkpt lat="48.55609" lon="1.93505">
        <ele>166.08</ele>
        <time>2017-11-26T11:29:21Z</time>
      </trkpt>
      <trkpt lat="48.55611" lon="1.93516">
        <ele>166.1</ele>
        <time>2017-11-26T11:29:23Z</time>
      </trkpt>
      <trkpt lat="48.55613" lon="1.93527">
        <ele>166.2</ele>
        <time>2017-11-26T11:29:25Z</time>
      </trkpt>
      <trkpt lat="48.55616" lon="1.93537">
        <ele>166.34</ele>
        <time>2017-11-26T11:29:27Z</time>
      </trkpt>
      <trkpt lat="48.55619" lon="1.93545">
        <ele>166.47</ele>
        <time>2017-11-26T11:29:29Z</time>
      </trkpt>
      <trkpt lat="48.55622" lon="1.93554">
        <ele>166.59</ele>
        <time>2017-11-26T11:29:31Z</time>
      </trkpt>
      <trkpt lat="48.55625" lon="1.93563">
        <ele>166.76</ele>
        <time>2017-11-26T11:29:33Z</time>
      </trkpt>
      <trkpt lat="48.55629" lon="1.93573">
        <ele>166.96</ele>
        <time>2017-11-26T11:29:35Z</time>
      </trkpt>
      <trkpt lat="48.55633" lon="1.93582">
        <ele>167.19</ele>
        <time>2017-11-26T11:29:37Z</time>
      </trkpt>
      <trkpt lat="48.55638" lon="1.93592">
        <ele>167.42</ele>
        <time>2017-11-26T11:29:39Z</time>
      </trkpt>
      <trkpt lat="48.55642" lon="1.93602">
        <ele>167.61</ele>
        <time>2017-11-26T11:29:41Z</time>
      </trkpt>
      <trkpt lat="48.55648" lon="1.93618">
        <ele>167.77</ele>
        <time>2017-11-26T11:29:43Z</time>
      </trkpt>
      <trkpt lat="48.55653" lon="1.93632">
        <ele>167.88</ele>
        <time>2017-11-26T11:29:45Z</time>
      </trkpt>
      <trkpt lat="48.55657" lon="1.93645">
        <ele>167.91</ele>
        <time>2017-11-26T11:29:47Z</time>
      </trkpt>
      <trkpt lat="48.55661" lon="1.93656">
        <ele>167.93</ele>
        <time>2017-11-26T11:29:49Z</time>
      </trkpt>
      <trkpt lat="48.55665" lon="1.93665">
        <ele>167.93</ele>
        <time>2017-11-26T11:29:51Z</time>
      </trkpt>
      <trkpt lat="48.5567" lon="1.93674">
        <ele>167.8</ele>
        <time>2017-11-26T11:29:53Z</time>
      </trkpt>
      <trkpt lat="48.55675" lon="1.93682">
        <ele>167.55</ele>
        <time>2017-11-26T11:29:55Z</time>
      </trkpt>
      <trkpt lat="48.55681" lon="1.9369">
        <ele>167.32</ele>
        <time>2017-11-26T11:29:57Z</time>
      </trkpt>
      <trkpt lat="48.55686" lon="1.93697">
        <ele>167.11</ele>
        <time>2017-11-26T11:29:59Z</time>
      </trkpt>
      <trkpt lat="48.55691" lon="1.93704">
        <ele>166.94</ele>
        <time>2017-11-26T11:30:01Z</time>
      </trkpt>
      <trkpt lat="48.55695" lon="1.93712">
        <ele>166.76</ele>
        <time>2017-11-26T11:30:03Z</time>
      </trkpt>
      <trkpt lat="48.557" lon="1.9372">
        <ele>166.57</ele>
        <time>2017-11-26T11:30:05Z</time>
      </trkpt>
      <trkpt lat="48.55705" lon="1.93729">
        <ele>166.38</ele>
        <time>2017-11-26T11:30:07Z</time>
      </trkpt>
      <trkpt lat="48.55709" lon="1.9374">
        <ele>166.18</ele>
        <time>2017-11-26T11:30:09Z</time>
      </trkpt>
      <trkpt lat="48.55712" lon="1.93752">
        <ele>165.93</ele>
        <time>2017-11-26T11:30:11Z</time>
      </trkpt>
      <trkpt lat="48.55715" lon="1.93764">
        <ele>165.51</ele>
        <time>2017-11-26T11:30:13Z</time>
      </trkpt>
      <trkpt lat="48.55719" lon="1.93774">
        <ele>165.13</ele>
        <time>2017-11-26T11:30:15Z</time>
      </trkpt>
      <trkpt lat="48.55724" lon="1.93784">
        <ele>164.77</ele>
        <time>2017-11-26T11:30:17Z</time>
      </trkpt>
      <trkpt lat="48.55729" lon="1.93794">
        <ele>164.43</ele>
        <time>2017-11-26T11:30:19Z</time>
      </trkpt>
      <trkpt lat="48.55735" lon="1.93803">
        <ele>164.08</ele>
        <time>2017-11-26T11:30:21Z</time>
      </trkpt>
      <trkpt lat="48.55738" lon="1.93814">
        <ele>163.69</ele>
        <time>2017-11-26T11:30:23Z</time>
      </trkpt>
      <trkpt lat="48.55741" lon="1.93826">
        <ele>163.27</ele>
        <time>2017-11-26T11:30:25Z</time>
      </trkpt>
      <trkpt lat="48.55743" lon="1.93839">
        <ele>162.94</ele>
        <time>2017-11-26T11:30:27Z</time>
      </trkpt>
      <trkpt lat="48.55745" lon="1.9385">
        <ele>162.8</ele>
        <time>2017-11-26T11:30:29Z</time>
      </trkpt>
      <trkpt lat="48.55747" lon="1.93861">
        <ele>162.67</ele>
        <time>2017-11-26T11:30:31Z</time>
      </trkpt>
      <trkpt lat="48.55749" lon="1.93871">
        <ele>162.55</ele>
        <time>2017-11-26T11:30:33Z</time>
      </trkpt>
      <trkpt lat="48.55752" lon="1.93878">
        <ele>162.41</ele>
        <time>2017-11-26T11:30:35Z</time>
      </trkpt>
      <trkpt lat="48.5576" lon="1.93881">
        <ele>162.13</ele>
        <time>2017-11-26T11:30:37Z</time>
      </trkpt>
      <trkpt lat="48.55765" lon="1.93888">
        <ele>161.97</ele>
        <time>2017-11-26T11:30:39Z</time>
      </trkpt>
      <trkpt lat="48.55768" lon="1.93902">
        <ele>161.95</ele>
        <time>2017-11-26T11:30:43Z</time>
      </trkpt>
      <trkpt lat="48.55769" lon="1.93909">
        <ele>161.97</ele>
        <time>2017-11-26T11:30:45Z</time>
      </trkpt>
      <trkpt lat="48.55769" lon="1.9392">
        <ele>162.09</ele>
        <time>2017-11-26T11:30:49Z</time>
      </trkpt>
      <trkpt lat="48.55769" lon="1.93928">
        <ele>162.3</ele>
        <time>2017-11-26T11:30:53Z</time>
      </trkpt>
      <trkpt lat="48.55769" lon="1.93939">
        <ele>162.57</ele>
        <time>2017-11-26T11:30:59Z</time>
      </trkpt>
      <trkpt lat="48.55772" lon="1.93947">
        <ele>162.83</ele>
        <time>2017-11-26T11:31:03Z</time>
      </trkpt>
      <trkpt lat="48.55776" lon="1.93959">
        <ele>163.29</ele>
        <time>2017-11-26T11:31:07Z</time>
      </trkpt>
      <trkpt lat="48.55781" lon="1.9397">
        <ele>163.82</ele>
        <time>2017-11-26T11:31:11Z</time>
      </trkpt>
      <trkpt lat="48.55784" lon="1.93976">
        <ele>164.13</ele>
        <time>2017-11-26T11:31:13Z</time>
      </trkpt>
      <trkpt lat="48.55789" lon="1.93984">
        <ele>164.68</ele>
        <time>2017-11-26T11:31:17Z</time>
      </trkpt>
      <trkpt lat="48.55794" lon="1.93991">
        <ele>165.26</ele>
        <time>2017-11-26T11:31:21Z</time>
      </trkpt>
      <trkpt lat="48.55797" lon="1.93998">
        <ele>165.7</ele>
        <time>2017-11-26T11:31:25Z</time>
      </trkpt>
      <trkpt lat="48.55798" lon="1.94004">
        <ele>165.86</ele>
        <time>2017-11-26T11:31:49Z</time>
      </trkpt>
      <trkpt lat="48.55802" lon="1.94012">
        <ele>165.96</ele>
        <time>2017-11-26T11:32:31Z</time>
      </trkpt>
      <trkpt lat="48.55806" lon="1.94019">
        <ele>166.03</ele>
        <time>2017-11-26T11:32:35Z</time>
      </trkpt>
      <trkpt lat="48.5581" lon="1.94025">
        <ele>166.11</ele>
        <time>2017-11-26T11:32:37Z</time>
      </trkpt>
      <trkpt lat="48.55815" lon="1.94032">
        <ele>166.17</ele>
        <time>2017-11-26T11:32:39Z</time>
      </trkpt>
      <trkpt lat="48.55819" lon="1.94038">
        <ele>166.17</ele>
        <time>2017-11-26T11:32:41Z</time>
      </trkpt>
      <trkpt lat="48.55823" lon="1.94045">
        <ele>166.09</ele>
        <time>2017-11-26T11:32:43Z</time>
      </trkpt>
      <trkpt lat="48.55827" lon="1.94053">
        <ele>165.95</ele>
        <time>2017-11-26T11:32:45Z</time>
      </trkpt>
      <trkpt lat="48.55831" lon="1.94061">
        <ele>165.78</ele>
        <time>2017-11-26T11:32:47Z</time>
      </trkpt>
      <trkpt lat="48.55835" lon="1.94069">
        <ele>165.44</ele>
        <time>2017-11-26T11:32:49Z</time>
      </trkpt>
      <trkpt lat="48.55839" lon="1.9408">
        <ele>164.87</ele>
        <time>2017-11-26T11:32:51Z</time>
      </trkpt>
      <trkpt lat="48.55842" lon="1.94092">
        <ele>163.98</ele>
        <time>2017-11-26T11:32:53Z</time>
      </trkpt>
      <trkpt lat="48.55846" lon="1.94103">
        <ele>162.97</ele>
        <time>2017-11-26T11:32:55Z</time>
      </trkpt>
      <trkpt lat="48.55851" lon="1.94112">
        <ele>162.15</ele>
        <time>2017-11-26T11:32:57Z</time>
      </trkpt>
      <trkpt lat="48.55854" lon="1.9412">
        <ele>161.45</ele>
        <time>2017-11-26T11:32:59Z</time>
      </trkpt>
      <trkpt lat="48.55856" lon="1.94129">
        <ele>160.78</ele>
        <time>2017-11-26T11:33:01Z</time>
      </trkpt>
      <trkpt lat="48.55855" lon="1.94138">
        <ele>160.2</ele>
        <time>2017-11-26T11:33:03Z</time>
      </trkpt>
      <trkpt lat="48.55855" lon="1.94147">
        <ele>159.58</ele>
        <time>2017-11-26T11:33:05Z</time>
      </trkpt>
      <trkpt lat="48.55856" lon="1.94157">
        <ele>158.85</ele>
        <time>2017-11-26T11:33:07Z</time>
      </trkpt>
      <trkpt lat="48.55859" lon="1.94167">
        <ele>158.08</ele>
        <time>2017-11-26T11:33:09Z</time>
      </trkpt>
      <trkpt lat="48.55861" lon="1.94177">
        <ele>157.69</ele>
        <time>2017-11-26T11:33:11Z</time>
      </trkpt>
      <trkpt lat="48.55866" lon="1.94191">
        <ele>157.07</ele>
        <time>2017-11-26T11:33:13Z</time>
      </trkpt>
      <trkpt lat="48.55872" lon="1.94202">
        <ele>156.42</ele>
        <time>2017-11-26T11:33:15Z</time>
      </trkpt>
      <trkpt lat="48.55878" lon="1.94213">
        <ele>155.69</ele>
        <time>2017-11-26T11:33:17Z</time>
      </trkpt>
      <trkpt lat="48.55883" lon="1.9422">
        <ele>155.06</ele>
        <time>2017-11-26T11:33:19Z</time>
      </trkpt>
      <trkpt lat="48.55889" lon="1.94229">
        <ele>154.28</ele>
        <time>2017-11-26T11:33:21Z</time>
      </trkpt>
      <trkpt lat="48.55905" lon="1.94252">
        <ele>151.96</ele>
        <time>2017-11-26T11:33:23Z</time>
      </trkpt>
      <trkpt lat="48.55915" lon="1.94265">
        <ele>151</ele>
        <time>2017-11-26T11:33:25Z</time>
      </trkpt>
      <trkpt lat="48.55927" lon="1.94281">
        <ele>150.21</ele>
        <time>2017-11-26T11:33:27Z</time>
      </trkpt>
      <trkpt lat="48.5593" lon="1.94288">
        <ele>150.04</ele>
        <time>2017-11-26T11:33:29Z</time>
      </trkpt>
      <trkpt lat="48.55935" lon="1.94293">
        <ele>149.82</ele>
        <time>2017-11-26T11:33:31Z</time>
      </trkpt>
      <trkpt lat="48.55939" lon="1.94306">
        <ele>149.61</ele>
        <time>2017-11-26T11:33:33Z</time>
      </trkpt>
      <trkpt lat="48.55951" lon="1.94321">
        <ele>149.21</ele>
        <time>2017-11-26T11:33:35Z</time>
      </trkpt>
      <trkpt lat="48.55957" lon="1.94333">
        <ele>149.04</ele>
        <time>2017-11-26T11:33:37Z</time>
      </trkpt>
      <trkpt lat="48.55968" lon="1.94342">
        <ele>148.93</ele>
        <time>2017-11-26T11:33:39Z</time>
      </trkpt>
      <trkpt lat="48.55973" lon="1.9435">
        <ele>148.96</ele>
        <time>2017-11-26T11:33:40Z</time>
      </trkpt>
      <trkpt lat="48.55982" lon="1.9436">
        <ele>148.91</ele>
        <time>2017-11-26T11:33:45Z</time>
      </trkpt>
      <trkpt lat="48.55989" lon="1.9437">
        <ele>148.81</ele>
        <time>2017-11-26T11:33:47Z</time>
      </trkpt>
      <trkpt lat="48.55986" lon="1.94375">
        <ele>149.01</ele>
        <time>2017-11-26T11:33:51Z</time>
      </trkpt>
      <trkpt lat="48.55988" lon="1.94382">
        <ele>149.05</ele>
        <time>2017-11-26T11:33:52Z</time>
      </trkpt>
      <trkpt lat="48.5599" lon="1.94389">
        <ele>149.08</ele>
        <time>2017-11-26T11:33:55Z</time>
      </trkpt>
      <trkpt lat="48.55993" lon="1.94397">
        <ele>149.07</ele>
        <time>2017-11-26T11:33:59Z</time>
      </trkpt>
      <trkpt lat="48.55995" lon="1.94405">
        <ele>149.08</ele>
        <time>2017-11-26T11:34:03Z</time>
      </trkpt>
      <trkpt lat="48.55994" lon="1.94415">
        <ele>149.25</ele>
        <time>2017-11-26T11:34:07Z</time>
      </trkpt>
      <trkpt lat="48.55997" lon="1.94426">
        <ele>149.39</ele>
        <time>2017-11-26T11:34:11Z</time>
      </trkpt>
      <trkpt lat="48.56002" lon="1.94434">
        <ele>149.39</ele>
        <time>2017-11-26T11:34:13Z</time>
      </trkpt>
      <trkpt lat="48.56005" lon="1.94442">
        <ele>149.54</ele>
        <time>2017-11-26T11:34:15Z</time>
      </trkpt>
      <trkpt lat="48.56008" lon="1.9445">
        <ele>149.66</ele>
        <time>2017-11-26T11:34:19Z</time>
      </trkpt>
      <trkpt lat="48.5601" lon="1.94462">
        <ele>149.89</ele>
        <time>2017-11-26T11:34:23Z</time>
      </trkpt>
      <trkpt lat="48.5601" lon="1.94472">
        <ele>150.13</ele>
        <time>2017-11-26T11:34:25Z</time>
      </trkpt>
      <trkpt lat="48.56009" lon="1.94479">
        <ele>150.31</ele>
        <time>2017-11-26T11:34:27Z</time>
      </trkpt>
      <trkpt lat="48.5601" lon="1.94487">
        <ele>150.47</ele>
        <time>2017-11-26T11:34:28Z</time>
      </trkpt>
      <trkpt lat="48.56006" lon="1.94495">
        <ele>150.74</ele>
        <time>2017-11-26T11:34:33Z</time>
      </trkpt>
      <trkpt lat="48.56005" lon="1.94503">
        <ele>150.95</ele>
        <time>2017-11-26T11:34:35Z</time>
      </trkpt>
      <trkpt lat="48.56001" lon="1.94511">
        <ele>151.24</ele>
        <time>2017-11-26T11:34:39Z</time>
      </trkpt>
      <trkpt lat="48.55998" lon="1.94518">
        <ele>151.6</ele>
        <time>2017-11-26T11:34:40Z</time>
      </trkpt>
      <trkpt lat="48.56" lon="1.94532">
        <ele>151.77</ele>
        <time>2017-11-26T11:34:45Z</time>
      </trkpt>
      <trkpt lat="48.56005" lon="1.94544">
        <ele>151.97</ele>
        <time>2017-11-26T11:34:47Z</time>
      </trkpt>
      <trkpt lat="48.56011" lon="1.94559">
        <ele>152.23</ele>
        <time>2017-11-26T11:34:51Z</time>
      </trkpt>
      <trkpt lat="48.5602" lon="1.94584">
        <ele>152.78</ele>
        <time>2017-11-26T11:34:55Z</time>
      </trkpt>
      <trkpt lat="48.56024" lon="1.94594">
        <ele>153.08</ele>
        <time>2017-11-26T11:34:57Z</time>
      </trkpt>
      <trkpt lat="48.56026" lon="1.94602">
        <ele>153.35</ele>
        <time>2017-11-26T11:34:59Z</time>
      </trkpt>
      <trkpt lat="48.56027" lon="1.94611">
        <ele>153.65</ele>
        <time>2017-11-26T11:35:03Z</time>
      </trkpt>
      <trkpt lat="48.56028" lon="1.94622">
        <ele>154.06</ele>
        <time>2017-11-26T11:35:04Z</time>
      </trkpt>
      <trkpt lat="48.56035" lon="1.94633">
        <ele>154.52</ele>
        <time>2017-11-26T11:35:07Z</time>
      </trkpt>
      <trkpt lat="48.56038" lon="1.94639">
        <ele>154.79</ele>
        <time>2017-11-26T11:35:09Z</time>
      </trkpt>
      <trkpt lat="48.56038" lon="1.94646">
        <ele>155.08</ele>
        <time>2017-11-26T11:35:11Z</time>
      </trkpt>
      <trkpt lat="48.56037" lon="1.94653">
        <ele>155.34</ele>
        <time>2017-11-26T11:35:13Z</time>
      </trkpt>
      <trkpt lat="48.56039" lon="1.94704">
        <ele>157.92</ele>
        <time>2017-11-26T11:35:28Z</time>
      </trkpt>
      <trkpt lat="48.56032" lon="1.94717">
        <ele>158.28</ele>
        <time>2017-11-26T11:35:31Z</time>
      </trkpt>
      <trkpt lat="48.56028" lon="1.94726">
        <ele>158.54</ele>
        <time>2017-11-26T11:35:35Z</time>
      </trkpt>
      <trkpt lat="48.56025" lon="1.94737">
        <ele>158.87</ele>
        <time>2017-11-26T11:35:39Z</time>
      </trkpt>
      <trkpt lat="48.5602" lon="1.94747">
        <ele>159.06</ele>
        <time>2017-11-26T11:35:43Z</time>
      </trkpt>
      <trkpt lat="48.56014" lon="1.94762">
        <ele>159.15</ele>
        <time>2017-11-26T11:36:07Z</time>
      </trkpt>
      <trkpt lat="48.56011" lon="1.94774">
        <ele>159.23</ele>
        <time>2017-11-26T11:36:09Z</time>
      </trkpt>
      <trkpt lat="48.56008" lon="1.94785">
        <ele>159.31</ele>
        <time>2017-11-26T11:36:11Z</time>
      </trkpt>
      <trkpt lat="48.56005" lon="1.94796">
        <ele>159.38</ele>
        <time>2017-11-26T11:36:13Z</time>
      </trkpt>
      <trkpt lat="48.56001" lon="1.94806">
        <ele>159.41</ele>
        <time>2017-11-26T11:36:15Z</time>
      </trkpt>
      <trkpt lat="48.55997" lon="1.94815">
        <ele>159.71</ele>
        <time>2017-11-26T11:36:17Z</time>
      </trkpt>
      <trkpt lat="48.55994" lon="1.94824">
        <ele>160.16</ele>
        <time>2017-11-26T11:36:19Z</time>
      </trkpt>
      <trkpt lat="48.5599" lon="1.94833">
        <ele>160.58</ele>
        <time>2017-11-26T11:36:21Z</time>
      </trkpt>
      <trkpt lat="48.55987" lon="1.94843">
        <ele>160.77</ele>
        <time>2017-11-26T11:36:23Z</time>
      </trkpt>
      <trkpt lat="48.55984" lon="1.94852">
        <ele>160.95</ele>
        <time>2017-11-26T11:36:25Z</time>
      </trkpt>
      <trkpt lat="48.55981" lon="1.94861">
        <ele>161.14</ele>
        <time>2017-11-26T11:36:27Z</time>
      </trkpt>
      <trkpt lat="48.55977" lon="1.94869">
        <ele>161.35</ele>
        <time>2017-11-26T11:36:29Z</time>
      </trkpt>
      <trkpt lat="48.55974" lon="1.94877">
        <ele>161.57</ele>
        <time>2017-11-26T11:36:31Z</time>
      </trkpt>
      <trkpt lat="48.5597" lon="1.94885">
        <ele>161.78</ele>
        <time>2017-11-26T11:36:33Z</time>
      </trkpt>
      <trkpt lat="48.55967" lon="1.94893">
        <ele>162.01</ele>
        <time>2017-11-26T11:36:35Z</time>
      </trkpt>
      <trkpt lat="48.55963" lon="1.94901">
        <ele>162.21</ele>
        <time>2017-11-26T11:36:37Z</time>
      </trkpt>
      <trkpt lat="48.5596" lon="1.94909">
        <ele>162.4</ele>
        <time>2017-11-26T11:36:39Z</time>
      </trkpt>
      <trkpt lat="48.55958" lon="1.94916">
        <ele>162.55</ele>
        <time>2017-11-26T11:36:41Z</time>
      </trkpt>
      <trkpt lat="48.55954" lon="1.94924">
        <ele>162.77</ele>
        <time>2017-11-26T11:36:45Z</time>
      </trkpt>
      <trkpt lat="48.55951" lon="1.9493">
        <ele>163.03</ele>
        <time>2017-11-26T11:36:47Z</time>
      </trkpt>
      <trkpt lat="48.55947" lon="1.94939">
        <ele>163.28</ele>
        <time>2017-11-26T11:36:49Z</time>
      </trkpt>
      <trkpt lat="48.55944" lon="1.94947">
        <ele>163.49</ele>
        <time>2017-11-26T11:36:51Z</time>
      </trkpt>
      <trkpt lat="48.55941" lon="1.94955">
        <ele>163.69</ele>
        <time>2017-11-26T11:36:53Z</time>
      </trkpt>
      <trkpt lat="48.55938" lon="1.94963">
        <ele>163.88</ele>
        <time>2017-11-26T11:36:55Z</time>
      </trkpt>
      <trkpt lat="48.55935" lon="1.94969">
        <ele>164.04</ele>
        <time>2017-11-26T11:36:57Z</time>
      </trkpt>
      <trkpt lat="48.55932" lon="1.94975">
        <ele>164.21</ele>
        <time>2017-11-26T11:36:59Z</time>
      </trkpt>
      <trkpt lat="48.55929" lon="1.94982">
        <ele>164.36</ele>
        <time>2017-11-26T11:37:01Z</time>
      </trkpt>
      <trkpt lat="48.55927" lon="1.94988">
        <ele>164.5</ele>
        <time>2017-11-26T11:37:03Z</time>
      </trkpt>
      <trkpt lat="48.55924" lon="1.94994">
        <ele>164.62</ele>
        <time>2017-11-26T11:37:05Z</time>
      </trkpt>
      <trkpt lat="48.55922" lon="1.95">
        <ele>164.73</ele>
        <time>2017-11-26T11:37:07Z</time>
      </trkpt>
      <trkpt lat="48.5592" lon="1.95006">
        <ele>164.97</ele>
        <time>2017-11-26T11:37:09Z</time>
      </trkpt>
      <trkpt lat="48.55918" lon="1.95013">
        <ele>165.22</ele>
        <time>2017-11-26T11:37:11Z</time>
      </trkpt>
      <trkpt lat="48.55916" lon="1.95019">
        <ele>165.49</ele>
        <time>2017-11-26T11:37:13Z</time>
      </trkpt>
      <trkpt lat="48.55914" lon="1.95025">
        <ele>165.84</ele>
        <time>2017-11-26T11:37:15Z</time>
      </trkpt>
      <trkpt lat="48.55912" lon="1.95031">
        <ele>166.18</ele>
        <time>2017-11-26T11:37:17Z</time>
      </trkpt>
      <trkpt lat="48.55909" lon="1.95038">
        <ele>166.53</ele>
        <time>2017-11-26T11:37:19Z</time>
      </trkpt>
      <trkpt lat="48.55907" lon="1.95044">
        <ele>166.88</ele>
        <time>2017-11-26T11:37:21Z</time>
      </trkpt>
      <trkpt lat="48.55905" lon="1.95051">
        <ele>167.2</ele>
        <time>2017-11-26T11:37:23Z</time>
      </trkpt>
      <trkpt lat="48.55903" lon="1.95059">
        <ele>167.53</ele>
        <time>2017-11-26T11:37:25Z</time>
      </trkpt>
      <trkpt lat="48.559" lon="1.95066">
        <ele>167.87</ele>
        <time>2017-11-26T11:37:27Z</time>
      </trkpt>
      <trkpt lat="48.55897" lon="1.95073">
        <ele>168.21</ele>
        <time>2017-11-26T11:37:29Z</time>
      </trkpt>
      <trkpt lat="48.55894" lon="1.95079">
        <ele>168.53</ele>
        <time>2017-11-26T11:37:31Z</time>
      </trkpt>
      <trkpt lat="48.55892" lon="1.95085">
        <ele>168.82</ele>
        <time>2017-11-26T11:37:33Z</time>
      </trkpt>
      <trkpt lat="48.55889" lon="1.95091">
        <ele>169.08</ele>
        <time>2017-11-26T11:37:35Z</time>
      </trkpt>
      <trkpt lat="48.55887" lon="1.95097">
        <ele>169.31</ele>
        <time>2017-11-26T11:37:37Z</time>
      </trkpt>
      <trkpt lat="48.55884" lon="1.95103">
        <ele>169.55</ele>
        <time>2017-11-26T11:37:39Z</time>
      </trkpt>
      <trkpt lat="48.55882" lon="1.95108">
        <ele>169.75</ele>
        <time>2017-11-26T11:37:41Z</time>
      </trkpt>
      <trkpt lat="48.55877" lon="1.95121">
        <ele>170.09</ele>
        <time>2017-11-26T11:37:45Z</time>
      </trkpt>
      <trkpt lat="48.55875" lon="1.95131">
        <ele>170.28</ele>
        <time>2017-11-26T11:37:49Z</time>
      </trkpt>
      <trkpt lat="48.55869" lon="1.95135">
        <ele>170.61</ele>
        <time>2017-11-26T11:37:53Z</time>
      </trkpt>
      <trkpt lat="48.55874" lon="1.95128">
        <ele>170.33</ele>
        <time>2017-11-26T11:37:55Z</time>
      </trkpt>
      <trkpt lat="48.55879" lon="1.95129">
        <ele>170.08</ele>
        <time>2017-11-26T11:38:01Z</time>
      </trkpt>
      <trkpt lat="48.55874" lon="1.95131">
        <ele>170.32</ele>
        <time>2017-11-26T11:38:39Z</time>
      </trkpt>
      <trkpt lat="48.55869" lon="1.95133">
        <ele>170.61</ele>
        <time>2017-11-26T11:38:45Z</time>
      </trkpt>
      <trkpt lat="48.55865" lon="1.95135">
        <ele>170.83</ele>
        <time>2017-11-26T11:38:49Z</time>
      </trkpt>
      <trkpt lat="48.5586" lon="1.95137">
        <ele>171.08</ele>
        <time>2017-11-26T11:41:26Z</time>
      </trkpt>
      <trkpt lat="48.55857" lon="1.95131">
        <ele>171.24</ele>
        <time>2017-11-26T11:43:12Z</time>
      </trkpt>
      <trkpt lat="48.55853" lon="1.95137">
        <ele>171.4</ele>
        <time>2017-11-26T11:43:44Z</time>
      </trkpt>
      <trkpt lat="48.55849" lon="1.95142">
        <ele>171.58</ele>
        <time>2017-11-26T11:43:48Z</time>
      </trkpt>
      <trkpt lat="48.55844" lon="1.95148">
        <ele>171.75</ele>
        <time>2017-11-26T11:43:54Z</time>
      </trkpt>
      <trkpt lat="48.55842" lon="1.95157">
        <ele>171.75</ele>
        <time>2017-11-26T11:43:58Z</time>
      </trkpt>
      <trkpt lat="48.5584" lon="1.95164">
        <ele>171.76</ele>
        <time>2017-11-26T11:44:00Z</time>
      </trkpt>
      <trkpt lat="48.55838" lon="1.95172">
        <ele>171.9</ele>
        <time>2017-11-26T11:44:02Z</time>
      </trkpt>
      <trkpt lat="48.55835" lon="1.95178">
        <ele>172.07</ele>
        <time>2017-11-26T11:44:04Z</time>
      </trkpt>
      <trkpt lat="48.55833" lon="1.95185">
        <ele>172.22</ele>
        <time>2017-11-26T11:44:06Z</time>
      </trkpt>
      <trkpt lat="48.55831" lon="1.95192">
        <ele>172.35</ele>
        <time>2017-11-26T11:44:08Z</time>
      </trkpt>
      <trkpt lat="48.55829" lon="1.95198">
        <ele>172.47</ele>
        <time>2017-11-26T11:44:10Z</time>
      </trkpt>
      <trkpt lat="48.55826" lon="1.95204">
        <ele>172.58</ele>
        <time>2017-11-26T11:44:12Z</time>
      </trkpt>
      <trkpt lat="48.55825" lon="1.9521">
        <ele>172.68</ele>
        <time>2017-11-26T11:44:14Z</time>
      </trkpt>
      <trkpt lat="48.55821" lon="1.95223">
        <ele>172.88</ele>
        <time>2017-11-26T11:44:18Z</time>
      </trkpt>
      <trkpt lat="48.55818" lon="1.95237">
        <ele>173.05</ele>
        <time>2017-11-26T11:44:22Z</time>
      </trkpt>
      <trkpt lat="48.55816" lon="1.95244">
        <ele>173.15</ele>
        <time>2017-11-26T11:44:24Z</time>
      </trkpt>
      <trkpt lat="48.55813" lon="1.95251">
        <ele>173.23</ele>
        <time>2017-11-26T11:44:26Z</time>
      </trkpt>
      <trkpt lat="48.55811" lon="1.95258">
        <ele>173.18</ele>
        <time>2017-11-26T11:44:28Z</time>
      </trkpt>
      <trkpt lat="48.55808" lon="1.95264">
        <ele>173.14</ele>
        <time>2017-11-26T11:44:30Z</time>
      </trkpt>
      <trkpt lat="48.55804" lon="1.9527">
        <ele>173.12</ele>
        <time>2017-11-26T11:44:32Z</time>
      </trkpt>
      <trkpt lat="48.55798" lon="1.95275">
        <ele>173.13</ele>
        <time>2017-11-26T11:44:34Z</time>
      </trkpt>
      <trkpt lat="48.55792" lon="1.95276">
        <ele>173.18</ele>
        <time>2017-11-26T11:44:36Z</time>
      </trkpt>
      <trkpt lat="48.55787" lon="1.95276">
        <ele>173.25</ele>
        <time>2017-11-26T11:44:38Z</time>
      </trkpt>
      <trkpt lat="48.55781" lon="1.95276">
        <ele>173.31</ele>
        <time>2017-11-26T11:44:40Z</time>
      </trkpt>
      <trkpt lat="48.55774" lon="1.95278">
        <ele>173.38</ele>
        <time>2017-11-26T11:44:44Z</time>
      </trkpt>
      <trkpt lat="48.55765" lon="1.95279">
        <ele>173.47</ele>
        <time>2017-11-26T11:44:48Z</time>
      </trkpt>
      <trkpt lat="48.5576" lon="1.9528">
        <ele>173.52</ele>
        <time>2017-11-26T11:44:50Z</time>
      </trkpt>
      <trkpt lat="48.55754" lon="1.95285">
        <ele>173.54</ele>
        <time>2017-11-26T11:44:52Z</time>
      </trkpt>
      <trkpt lat="48.55748" lon="1.95289">
        <ele>173.57</ele>
        <time>2017-11-26T11:44:54Z</time>
      </trkpt>
      <trkpt lat="48.55743" lon="1.95287">
        <ele>173.68</ele>
        <time>2017-11-26T11:44:56Z</time>
      </trkpt>
      <trkpt lat="48.55736" lon="1.9528">
        <ele>173.91</ele>
        <time>2017-11-26T11:45:00Z</time>
      </trkpt>
      <trkpt lat="48.55732" lon="1.95275">
        <ele>174.07</ele>
        <time>2017-11-26T11:45:06Z</time>
      </trkpt>
      <trkpt lat="48.55704" lon="1.9527">
        <ele>174.74</ele>
        <time>2017-11-26T11:45:10Z</time>
      </trkpt>
      <trkpt lat="48.55696" lon="1.95272">
        <ele>174.86</ele>
        <time>2017-11-26T11:45:12Z</time>
      </trkpt>
      <trkpt lat="48.55692" lon="1.95268">
        <ele>175.04</ele>
        <time>2017-11-26T11:45:14Z</time>
      </trkpt>
      <trkpt lat="48.55687" lon="1.95265">
        <ele>175.19</ele>
        <time>2017-11-26T11:45:16Z</time>
      </trkpt>
      <trkpt lat="48.55685" lon="1.9525">
        <ele>175.56</ele>
        <time>2017-11-26T11:45:20Z</time>
      </trkpt>
      <trkpt lat="48.5568" lon="1.95243">
        <ele>175.67</ele>
        <time>2017-11-26T11:45:22Z</time>
      </trkpt>
      <trkpt lat="48.55674" lon="1.9524">
        <ele>175.83</ele>
        <time>2017-11-26T11:45:24Z</time>
      </trkpt>
      <trkpt lat="48.55665" lon="1.95238">
        <ele>175.95</ele>
        <time>2017-11-26T11:45:26Z</time>
      </trkpt>
      <trkpt lat="48.55656" lon="1.95237">
        <ele>175.73</ele>
        <time>2017-11-26T11:45:28Z</time>
      </trkpt>
      <trkpt lat="48.55647" lon="1.95236">
        <ele>175.53</ele>
        <time>2017-11-26T11:45:30Z</time>
      </trkpt>
      <trkpt lat="48.5564" lon="1.95235">
        <ele>175.37</ele>
        <time>2017-11-26T11:45:32Z</time>
      </trkpt>
      <trkpt lat="48.55634" lon="1.95232">
        <ele>175.22</ele>
        <time>2017-11-26T11:45:34Z</time>
      </trkpt>
      <trkpt lat="48.55628" lon="1.9523">
        <ele>175.08</ele>
        <time>2017-11-26T11:45:36Z</time>
      </trkpt>
      <trkpt lat="48.55622" lon="1.95227">
        <ele>174.93</ele>
        <time>2017-11-26T11:45:38Z</time>
      </trkpt>
      <trkpt lat="48.55616" lon="1.95226">
        <ele>174.77</ele>
        <time>2017-11-26T11:45:40Z</time>
      </trkpt>
      <trkpt lat="48.55609" lon="1.95229">
        <ele>174.61</ele>
        <time>2017-11-26T11:45:42Z</time>
      </trkpt>
      <trkpt lat="48.55603" lon="1.9523">
        <ele>174.47</ele>
        <time>2017-11-26T11:45:44Z</time>
      </trkpt>
      <trkpt lat="48.55597" lon="1.95231">
        <ele>174.34</ele>
        <time>2017-11-26T11:45:46Z</time>
      </trkpt>
      <trkpt lat="48.55592" lon="1.95234">
        <ele>174.2</ele>
        <time>2017-11-26T11:45:48Z</time>
      </trkpt>
      <trkpt lat="48.55587" lon="1.95239">
        <ele>174.08</ele>
        <time>2017-11-26T11:45:50Z</time>
      </trkpt>
      <trkpt lat="48.55581" lon="1.95242">
        <ele>174.01</ele>
        <time>2017-11-26T11:45:52Z</time>
      </trkpt>
      <trkpt lat="48.55569" lon="1.95245">
        <ele>174.02</ele>
        <time>2017-11-26T11:45:56Z</time>
      </trkpt>
      <trkpt lat="48.55563" lon="1.95248">
        <ele>174.01</ele>
        <time>2017-11-26T11:45:58Z</time>
      </trkpt>
      <trkpt lat="48.55556" lon="1.95251">
        <ele>173.98</ele>
        <time>2017-11-26T11:46:00Z</time>
      </trkpt>
      <trkpt lat="48.5555" lon="1.95257">
        <ele>173.92</ele>
        <time>2017-11-26T11:46:02Z</time>
      </trkpt>
      <trkpt lat="48.55544" lon="1.95264">
        <ele>173.84</ele>
        <time>2017-11-26T11:46:04Z</time>
      </trkpt>
      <trkpt lat="48.55493" lon="1.95324">
        <ele>173.2</ele>
        <time>2017-11-26T11:46:17Z</time>
      </trkpt>
      <trkpt lat="48.55487" lon="1.95325">
        <ele>173.27</ele>
        <time>2017-11-26T11:46:20Z</time>
      </trkpt>
      <trkpt lat="48.55482" lon="1.95328">
        <ele>173.28</ele>
        <time>2017-11-26T11:46:22Z</time>
      </trkpt>
      <trkpt lat="48.55477" lon="1.95333">
        <ele>173.29</ele>
        <time>2017-11-26T11:46:24Z</time>
      </trkpt>
      <trkpt lat="48.55471" lon="1.95335">
        <ele>173.38</ele>
        <time>2017-11-26T11:46:26Z</time>
      </trkpt>
      <trkpt lat="48.55466" lon="1.95337">
        <ele>173.48</ele>
        <time>2017-11-26T11:46:28Z</time>
      </trkpt>
      <trkpt lat="48.55462" lon="1.95338">
        <ele>173.55</ele>
        <time>2017-11-26T11:46:30Z</time>
      </trkpt>
      <trkpt lat="48.55453" lon="1.95345">
        <ele>173.76</ele>
        <time>2017-11-26T11:46:34Z</time>
      </trkpt>
      <trkpt lat="48.55448" lon="1.95347">
        <ele>173.84</ele>
        <time>2017-11-26T11:46:36Z</time>
      </trkpt>
      <trkpt lat="48.55444" lon="1.95349">
        <ele>173.92</ele>
        <time>2017-11-26T11:46:38Z</time>
      </trkpt>
      <trkpt lat="48.5544" lon="1.95353">
        <ele>174.02</ele>
        <time>2017-11-26T11:46:40Z</time>
      </trkpt>
      <trkpt lat="48.55436" lon="1.95358">
        <ele>174.13</ele>
        <time>2017-11-26T11:46:42Z</time>
      </trkpt>
      <trkpt lat="48.55431" lon="1.95363">
        <ele>174.24</ele>
        <time>2017-11-26T11:46:44Z</time>
      </trkpt>
      <trkpt lat="48.55426" lon="1.95368">
        <ele>174.35</ele>
        <time>2017-11-26T11:46:46Z</time>
      </trkpt>
      <trkpt lat="48.5542" lon="1.9537">
        <ele>174.42</ele>
        <time>2017-11-26T11:46:48Z</time>
      </trkpt>
      <trkpt lat="48.55414" lon="1.95372">
        <ele>174.45</ele>
        <time>2017-11-26T11:46:50Z</time>
      </trkpt>
      <trkpt lat="48.55408" lon="1.95376">
        <ele>174.46</ele>
        <time>2017-11-26T11:46:52Z</time>
      </trkpt>
      <trkpt lat="48.55403" lon="1.95383">
        <ele>174.49</ele>
        <time>2017-11-26T11:46:54Z</time>
      </trkpt>
      <trkpt lat="48.55397" lon="1.95388">
        <ele>174.51</ele>
        <time>2017-11-26T11:46:56Z</time>
      </trkpt>
      <trkpt lat="48.55392" lon="1.95395">
        <ele>174.53</ele>
        <time>2017-11-26T11:46:58Z</time>
      </trkpt>
      <trkpt lat="48.55388" lon="1.95402">
        <ele>174.53</ele>
        <time>2017-11-26T11:47:00Z</time>
      </trkpt>
      <trkpt lat="48.55383" lon="1.95408">
        <ele>174.54</ele>
        <time>2017-11-26T11:47:02Z</time>
      </trkpt>
      <trkpt lat="48.55379" lon="1.95415">
        <ele>174.54</ele>
        <time>2017-11-26T11:47:04Z</time>
      </trkpt>
      <trkpt lat="48.55372" lon="1.95424">
        <ele>174.43</ele>
        <time>2017-11-26T11:47:08Z</time>
      </trkpt>
      <trkpt lat="48.55367" lon="1.9543">
        <ele>174.34</ele>
        <time>2017-11-26T11:47:10Z</time>
      </trkpt>
      <trkpt lat="48.5536" lon="1.95436">
        <ele>174.25</ele>
        <time>2017-11-26T11:47:12Z</time>
      </trkpt>
      <trkpt lat="48.55355" lon="1.9544">
        <ele>174.18</ele>
        <time>2017-11-26T11:47:14Z</time>
      </trkpt>
      <trkpt lat="48.55348" lon="1.95444">
        <ele>174.12</ele>
        <time>2017-11-26T11:47:16Z</time>
      </trkpt>
      <trkpt lat="48.55341" lon="1.95449">
        <ele>174.05</ele>
        <time>2017-11-26T11:47:18Z</time>
      </trkpt>
      <trkpt lat="48.55334" lon="1.95454">
        <ele>174.01</ele>
        <time>2017-11-26T11:47:20Z</time>
      </trkpt>
      <trkpt lat="48.55329" lon="1.9546">
        <ele>173.9</ele>
        <time>2017-11-26T11:47:22Z</time>
      </trkpt>
      <trkpt lat="48.55325" lon="1.95465">
        <ele>173.74</ele>
        <time>2017-11-26T11:47:24Z</time>
      </trkpt>
      <trkpt lat="48.5532" lon="1.95471">
        <ele>173.53</ele>
        <time>2017-11-26T11:47:26Z</time>
      </trkpt>
      <trkpt lat="48.55315" lon="1.95477">
        <ele>173.25</ele>
        <time>2017-11-26T11:47:28Z</time>
      </trkpt>
      <trkpt lat="48.55311" lon="1.95485">
        <ele>172.92</ele>
        <time>2017-11-26T11:47:30Z</time>
      </trkpt>
      <trkpt lat="48.55308" lon="1.95496">
        <ele>172.54</ele>
        <time>2017-11-26T11:47:32Z</time>
      </trkpt>
      <trkpt lat="48.55305" lon="1.95507">
        <ele>172.32</ele>
        <time>2017-11-26T11:47:34Z</time>
      </trkpt>
      <trkpt lat="48.55303" lon="1.95517">
        <ele>172.28</ele>
        <time>2017-11-26T11:47:36Z</time>
      </trkpt>
      <trkpt lat="48.55303" lon="1.95526">
        <ele>172.31</ele>
        <time>2017-11-26T11:47:38Z</time>
      </trkpt>
      <trkpt lat="48.55303" lon="1.95535">
        <ele>172.35</ele>
        <time>2017-11-26T11:47:40Z</time>
      </trkpt>
      <trkpt lat="48.55303" lon="1.95544">
        <ele>172.39</ele>
        <time>2017-11-26T11:47:42Z</time>
      </trkpt>
      <trkpt lat="48.55303" lon="1.95552">
        <ele>172.42</ele>
        <time>2017-11-26T11:47:44Z</time>
      </trkpt>
      <trkpt lat="48.55303" lon="1.9556">
        <ele>172.45</ele>
        <time>2017-11-26T11:47:46Z</time>
      </trkpt>
      <trkpt lat="48.55303" lon="1.95568">
        <ele>172.47</ele>
        <time>2017-11-26T11:47:48Z</time>
      </trkpt>
      <trkpt lat="48.55302" lon="1.95575">
        <ele>172.48</ele>
        <time>2017-11-26T11:47:50Z</time>
      </trkpt>
      <trkpt lat="48.553" lon="1.95588">
        <ele>172.39</ele>
        <time>2017-11-26T11:47:54Z</time>
      </trkpt>
      <trkpt lat="48.55299" lon="1.95594">
        <ele>172.33</ele>
        <time>2017-11-26T11:47:56Z</time>
      </trkpt>
      <trkpt lat="48.55296" lon="1.95607">
        <ele>172.2</ele>
        <time>2017-11-26T11:48:00Z</time>
      </trkpt>
      <trkpt lat="48.55293" lon="1.95615">
        <ele>172.08</ele>
        <time>2017-11-26T11:48:02Z</time>
      </trkpt>
      <trkpt lat="48.55292" lon="1.95624">
        <ele>172.01</ele>
        <time>2017-11-26T11:48:04Z</time>
      </trkpt>
      <trkpt lat="48.55293" lon="1.95632">
        <ele>172.05</ele>
        <time>2017-11-26T11:48:06Z</time>
      </trkpt>
      <trkpt lat="48.55293" lon="1.9564">
        <ele>172.09</ele>
        <time>2017-11-26T11:48:08Z</time>
      </trkpt>
      <trkpt lat="48.55294" lon="1.95648">
        <ele>172.12</ele>
        <time>2017-11-26T11:48:10Z</time>
      </trkpt>
      <trkpt lat="48.55295" lon="1.95656">
        <ele>172.17</ele>
        <time>2017-11-26T11:48:12Z</time>
      </trkpt>
      <trkpt lat="48.55296" lon="1.95664">
        <ele>172.21</ele>
        <time>2017-11-26T11:48:14Z</time>
      </trkpt>
      <trkpt lat="48.55298" lon="1.95678">
        <ele>172.21</ele>
        <time>2017-11-26T11:48:18Z</time>
      </trkpt>
      <trkpt lat="48.55299" lon="1.95688">
        <ele>172.21</ele>
        <time>2017-11-26T11:48:20Z</time>
      </trkpt>
      <trkpt lat="48.55301" lon="1.95697">
        <ele>172.21</ele>
        <time>2017-11-26T11:48:22Z</time>
      </trkpt>
      <trkpt lat="48.55301" lon="1.95706">
        <ele>172.16</ele>
        <time>2017-11-26T11:48:24Z</time>
      </trkpt>
      <trkpt lat="48.55302" lon="1.95715">
        <ele>172.14</ele>
        <time>2017-11-26T11:48:26Z</time>
      </trkpt>
      <trkpt lat="48.55303" lon="1.95723">
        <ele>172.11</ele>
        <time>2017-11-26T11:48:28Z</time>
      </trkpt>
      <trkpt lat="48.55304" lon="1.95731">
        <ele>172.07</ele>
        <time>2017-11-26T11:48:30Z</time>
      </trkpt>
      <trkpt lat="48.55304" lon="1.95744">
        <ele>171.99</ele>
        <time>2017-11-26T11:48:34Z</time>
      </trkpt>
      <trkpt lat="48.55304" lon="1.95758">
        <ele>171.99</ele>
        <time>2017-11-26T11:48:38Z</time>
      </trkpt>
      <trkpt lat="48.55305" lon="1.95765">
        <ele>172.03</ele>
        <time>2017-11-26T11:48:40Z</time>
      </trkpt>
      <trkpt lat="48.55305" lon="1.95773">
        <ele>172.07</ele>
        <time>2017-11-26T11:48:42Z</time>
      </trkpt>
      <trkpt lat="48.55305" lon="1.9578">
        <ele>172.1</ele>
        <time>2017-11-26T11:48:44Z</time>
      </trkpt>
      <trkpt lat="48.55305" lon="1.95786">
        <ele>172.12</ele>
        <time>2017-11-26T11:48:46Z</time>
      </trkpt>
      <trkpt lat="48.55305" lon="1.95795">
        <ele>172.17</ele>
        <time>2017-11-26T11:48:48Z</time>
      </trkpt>
      <trkpt lat="48.55305" lon="1.95803">
        <ele>172.21</ele>
        <time>2017-11-26T11:48:50Z</time>
      </trkpt>
      <trkpt lat="48.55306" lon="1.95814">
        <ele>172.27</ele>
        <time>2017-11-26T11:48:54Z</time>
      </trkpt>
      <trkpt lat="48.55306" lon="1.95826">
        <ele>172.31</ele>
        <time>2017-11-26T11:48:58Z</time>
      </trkpt>
      <trkpt lat="48.55306" lon="1.95848">
        <ele>172.52</ele>
        <time>2017-11-26T11:49:02Z</time>
      </trkpt>
      <trkpt lat="48.55307" lon="1.95865">
        <ele>172.75</ele>
        <time>2017-11-26T11:49:04Z</time>
      </trkpt>
      <trkpt lat="48.55308" lon="1.95878">
        <ele>172.92</ele>
        <time>2017-11-26T11:49:06Z</time>
      </trkpt>
      <trkpt lat="48.55306" lon="1.95888">
        <ele>173</ele>
        <time>2017-11-26T11:49:08Z</time>
      </trkpt>
      <trkpt lat="48.55304" lon="1.95897">
        <ele>173.06</ele>
        <time>2017-11-26T11:49:10Z</time>
      </trkpt>
      <trkpt lat="48.55304" lon="1.95905">
        <ele>173.15</ele>
        <time>2017-11-26T11:49:12Z</time>
      </trkpt>
      <trkpt lat="48.55304" lon="1.95913">
        <ele>173.25</ele>
        <time>2017-11-26T11:49:14Z</time>
      </trkpt>
      <trkpt lat="48.55305" lon="1.95919">
        <ele>173.31</ele>
        <time>2017-11-26T11:49:16Z</time>
      </trkpt>
      <trkpt lat="48.55305" lon="1.95932">
        <ele>173.33</ele>
        <time>2017-11-26T11:49:20Z</time>
      </trkpt>
      <trkpt lat="48.55306" lon="1.9594">
        <ele>173.34</ele>
        <time>2017-11-26T11:49:22Z</time>
      </trkpt>
      <trkpt lat="48.55306" lon="1.95947">
        <ele>173.37</ele>
        <time>2017-11-26T11:49:24Z</time>
      </trkpt>
      <trkpt lat="48.55307" lon="1.95955">
        <ele>173.4</ele>
        <time>2017-11-26T11:49:26Z</time>
      </trkpt>
      <trkpt lat="48.55308" lon="1.95964">
        <ele>173.44</ele>
        <time>2017-11-26T11:49:28Z</time>
      </trkpt>
      <trkpt lat="48.55309" lon="1.95973">
        <ele>173.49</ele>
        <time>2017-11-26T11:49:30Z</time>
      </trkpt>
      <trkpt lat="48.5531" lon="1.95981">
        <ele>173.55</ele>
        <time>2017-11-26T11:49:32Z</time>
      </trkpt>
      <trkpt lat="48.55311" lon="1.9599">
        <ele>173.61</ele>
        <time>2017-11-26T11:49:34Z</time>
      </trkpt>
      <trkpt lat="48.55311" lon="1.95999">
        <ele>173.65</ele>
        <time>2017-11-26T11:49:36Z</time>
      </trkpt>
      <trkpt lat="48.55311" lon="1.96007">
        <ele>173.7</ele>
        <time>2017-11-26T11:49:38Z</time>
      </trkpt>
      <trkpt lat="48.55311" lon="1.96015">
        <ele>173.73</ele>
        <time>2017-11-26T11:49:40Z</time>
      </trkpt>
      <trkpt lat="48.55311" lon="1.96023">
        <ele>173.76</ele>
        <time>2017-11-26T11:49:42Z</time>
      </trkpt>
      <trkpt lat="48.55312" lon="1.96035">
        <ele>173.82</ele>
        <time>2017-11-26T11:49:44Z</time>
      </trkpt>
      <trkpt lat="48.55313" lon="1.96046">
        <ele>173.89</ele>
        <time>2017-11-26T11:49:46Z</time>
      </trkpt>
      <trkpt lat="48.55313" lon="1.96057">
        <ele>173.97</ele>
        <time>2017-11-26T11:49:48Z</time>
      </trkpt>
      <trkpt lat="48.55314" lon="1.96066">
        <ele>174</ele>
        <time>2017-11-26T11:49:50Z</time>
      </trkpt>
      <trkpt lat="48.55313" lon="1.96073">
        <ele>174.01</ele>
        <time>2017-11-26T11:49:52Z</time>
      </trkpt>
      <trkpt lat="48.55313" lon="1.96081">
        <ele>174.01</ele>
        <time>2017-11-26T11:49:54Z</time>
      </trkpt>
      <trkpt lat="48.55313" lon="1.96089">
        <ele>173.92</ele>
        <time>2017-11-26T11:49:56Z</time>
      </trkpt>
      <trkpt lat="48.55312" lon="1.96097">
        <ele>173.79</ele>
        <time>2017-11-26T11:49:58Z</time>
      </trkpt>
      <trkpt lat="48.55312" lon="1.96105">
        <ele>173.66</ele>
        <time>2017-11-26T11:50:00Z</time>
      </trkpt>
      <trkpt lat="48.55312" lon="1.96112">
        <ele>173.53</ele>
        <time>2017-11-26T11:50:02Z</time>
      </trkpt>
      <trkpt lat="48.55311" lon="1.9612">
        <ele>173.37</ele>
        <time>2017-11-26T11:50:04Z</time>
      </trkpt>
      <trkpt lat="48.5531" lon="1.96127">
        <ele>173.19</ele>
        <time>2017-11-26T11:50:06Z</time>
      </trkpt>
      <trkpt lat="48.55309" lon="1.96136">
        <ele>172.99</ele>
        <time>2017-11-26T11:50:08Z</time>
      </trkpt>
      <trkpt lat="48.55309" lon="1.96146">
        <ele>172.85</ele>
        <time>2017-11-26T11:50:10Z</time>
      </trkpt>
      <trkpt lat="48.5531" lon="1.96153">
        <ele>172.8</ele>
        <time>2017-11-26T11:50:12Z</time>
      </trkpt>
      <trkpt lat="48.55311" lon="1.96162">
        <ele>172.76</ele>
        <time>2017-11-26T11:50:14Z</time>
      </trkpt>
      <trkpt lat="48.55313" lon="1.96169">
        <ele>172.77</ele>
        <time>2017-11-26T11:50:16Z</time>
      </trkpt>
      <trkpt lat="48.55314" lon="1.96177">
        <ele>172.8</ele>
        <time>2017-11-26T11:50:18Z</time>
      </trkpt>
      <trkpt lat="48.55316" lon="1.96186">
        <ele>172.81</ele>
        <time>2017-11-26T11:50:20Z</time>
      </trkpt>
      <trkpt lat="48.55317" lon="1.96196">
        <ele>172.78</ele>
        <time>2017-11-26T11:50:22Z</time>
      </trkpt>
      <trkpt lat="48.55317" lon="1.96203">
        <ele>172.74</ele>
        <time>2017-11-26T11:50:24Z</time>
      </trkpt>
      <trkpt lat="48.55317" lon="1.96212">
        <ele>172.68</ele>
        <time>2017-11-26T11:50:26Z</time>
      </trkpt>
      <trkpt lat="48.55317" lon="1.96219">
        <ele>172.63</ele>
        <time>2017-11-26T11:50:28Z</time>
      </trkpt>
      <trkpt lat="48.55316" lon="1.96226">
        <ele>172.55</ele>
        <time>2017-11-26T11:50:30Z</time>
      </trkpt>
      <trkpt lat="48.55315" lon="1.96233">
        <ele>172.47</ele>
        <time>2017-11-26T11:50:32Z</time>
      </trkpt>
      <trkpt lat="48.55315" lon="1.9624">
        <ele>172.39</ele>
        <time>2017-11-26T11:50:34Z</time>
      </trkpt>
      <trkpt lat="48.55314" lon="1.96248">
        <ele>172.33</ele>
        <time>2017-11-26T11:50:36Z</time>
      </trkpt>
      <trkpt lat="48.55315" lon="1.96255">
        <ele>172.31</ele>
        <time>2017-11-26T11:50:38Z</time>
      </trkpt>
      <trkpt lat="48.55319" lon="1.96266">
        <ele>172.32</ele>
        <time>2017-11-26T11:50:40Z</time>
      </trkpt>
      <trkpt lat="48.55321" lon="1.96278">
        <ele>172.26</ele>
        <time>2017-11-26T11:50:42Z</time>
      </trkpt>
      <trkpt lat="48.55321" lon="1.96291">
        <ele>172.14</ele>
        <time>2017-11-26T11:50:44Z</time>
      </trkpt>
      <trkpt lat="48.55321" lon="1.96304">
        <ele>172.01</ele>
        <time>2017-11-26T11:50:46Z</time>
      </trkpt>
      <trkpt lat="48.55321" lon="1.96314">
        <ele>171.9</ele>
        <time>2017-11-26T11:50:48Z</time>
      </trkpt>
      <trkpt lat="48.55321" lon="1.96321">
        <ele>171.83</ele>
        <time>2017-11-26T11:50:50Z</time>
      </trkpt>
      <trkpt lat="48.55321" lon="1.96328">
        <ele>171.77</ele>
        <time>2017-11-26T11:50:52Z</time>
      </trkpt>
      <trkpt lat="48.55322" lon="1.96336">
        <ele>171.74</ele>
        <time>2017-11-26T11:50:54Z</time>
      </trkpt>
      <trkpt lat="48.55322" lon="1.96343">
        <ele>171.82</ele>
        <time>2017-11-26T11:50:56Z</time>
      </trkpt>
      <trkpt lat="48.55322" lon="1.96353">
        <ele>171.91</ele>
        <time>2017-11-26T11:50:58Z</time>
      </trkpt>
      <trkpt lat="48.55322" lon="1.9636">
        <ele>171.96</ele>
        <time>2017-11-26T11:51:00Z</time>
      </trkpt>
      <trkpt lat="48.55323" lon="1.96373">
        <ele>172.11</ele>
        <time>2017-11-26T11:51:04Z</time>
      </trkpt>
      <trkpt lat="48.55324" lon="1.9638">
        <ele>172.2</ele>
        <time>2017-11-26T11:51:06Z</time>
      </trkpt>
      <trkpt lat="48.55322" lon="1.96395">
        <ele>172.27</ele>
        <time>2017-11-26T11:51:10Z</time>
      </trkpt>
      <trkpt lat="48.55322" lon="1.96405">
        <ele>172.34</ele>
        <time>2017-11-26T11:51:12Z</time>
      </trkpt>
      <trkpt lat="48.55321" lon="1.96415">
        <ele>172.4</ele>
        <time>2017-11-26T11:51:14Z</time>
      </trkpt>
      <trkpt lat="48.55321" lon="1.96427">
        <ele>172.19</ele>
        <time>2017-11-26T11:51:16Z</time>
      </trkpt>
      <trkpt lat="48.55321" lon="1.96438">
        <ele>171.98</ele>
        <time>2017-11-26T11:51:18Z</time>
      </trkpt>
      <trkpt lat="48.55323" lon="1.96449">
        <ele>171.81</ele>
        <time>2017-11-26T11:51:20Z</time>
      </trkpt>
      <trkpt lat="48.55324" lon="1.96459">
        <ele>171.66</ele>
        <time>2017-11-26T11:51:22Z</time>
      </trkpt>
      <trkpt lat="48.55325" lon="1.96473">
        <ele>171.38</ele>
        <time>2017-11-26T11:51:25Z</time>
      </trkpt>
      <trkpt lat="48.55324" lon="1.96487">
        <ele>171.06</ele>
        <time>2017-11-26T11:51:29Z</time>
      </trkpt>
      <trkpt lat="48.55325" lon="1.96496">
        <ele>170.88</ele>
        <time>2017-11-26T11:51:31Z</time>
      </trkpt>
      <trkpt lat="48.55324" lon="1.96507">
        <ele>170.76</ele>
        <time>2017-11-26T11:51:33Z</time>
      </trkpt>
      <trkpt lat="48.55323" lon="1.96519">
        <ele>170.71</ele>
        <time>2017-11-26T11:51:35Z</time>
      </trkpt>
      <trkpt lat="48.55324" lon="1.96529">
        <ele>170.7</ele>
        <time>2017-11-26T11:51:37Z</time>
      </trkpt>
      <trkpt lat="48.55324" lon="1.96538">
        <ele>170.67</ele>
        <time>2017-11-26T11:51:39Z</time>
      </trkpt>
      <trkpt lat="48.55322" lon="1.96546">
        <ele>170.59</ele>
        <time>2017-11-26T11:51:41Z</time>
      </trkpt>
      <trkpt lat="48.55321" lon="1.96555">
        <ele>170.51</ele>
        <time>2017-11-26T11:51:43Z</time>
      </trkpt>
      <trkpt lat="48.55319" lon="1.96562">
        <ele>170.41</ele>
        <time>2017-11-26T11:51:45Z</time>
      </trkpt>
      <trkpt lat="48.55318" lon="1.96569">
        <ele>170.31</ele>
        <time>2017-11-26T11:51:47Z</time>
      </trkpt>
      <trkpt lat="48.55317" lon="1.96577">
        <ele>170.23</ele>
        <time>2017-11-26T11:51:49Z</time>
      </trkpt>
      <trkpt lat="48.55316" lon="1.96586">
        <ele>170.16</ele>
        <time>2017-11-26T11:51:51Z</time>
      </trkpt>
      <trkpt lat="48.55313" lon="1.96592">
        <ele>170.04</ele>
        <time>2017-11-26T11:51:53Z</time>
      </trkpt>
      <trkpt lat="48.55306" lon="1.966">
        <ele>169.71</ele>
        <time>2017-11-26T11:51:57Z</time>
      </trkpt>
      <trkpt lat="48.55301" lon="1.96606">
        <ele>169.43</ele>
        <time>2017-11-26T11:52:01Z</time>
      </trkpt>
      <trkpt lat="48.55297" lon="1.96613">
        <ele>169.24</ele>
        <time>2017-11-26T11:52:03Z</time>
      </trkpt>
      <trkpt lat="48.55292" lon="1.96619">
        <ele>169.01</ele>
        <time>2017-11-26T11:52:05Z</time>
      </trkpt>
      <trkpt lat="48.55287" lon="1.96624">
        <ele>168.79</ele>
        <time>2017-11-26T11:52:07Z</time>
      </trkpt>
      <trkpt lat="48.55283" lon="1.96627">
        <ele>168.58</ele>
        <time>2017-11-26T11:52:09Z</time>
      </trkpt>
      <trkpt lat="48.55278" lon="1.9663">
        <ele>168.35</ele>
        <time>2017-11-26T11:52:11Z</time>
      </trkpt>
      <trkpt lat="48.55274" lon="1.96632">
        <ele>168.13</ele>
        <time>2017-11-26T11:52:13Z</time>
      </trkpt>
      <trkpt lat="48.5527" lon="1.96638">
        <ele>167.97</ele>
        <time>2017-11-26T11:52:15Z</time>
      </trkpt>
      <trkpt lat="48.55266" lon="1.96641">
        <ele>167.76</ele>
        <time>2017-11-26T11:52:19Z</time>
      </trkpt>
      <trkpt lat="48.5526" lon="1.96645">
        <ele>167.48</ele>
        <time>2017-11-26T11:52:21Z</time>
      </trkpt>
      <trkpt lat="48.55254" lon="1.96651">
        <ele>167.19</ele>
        <time>2017-11-26T11:52:23Z</time>
      </trkpt>
      <trkpt lat="48.5525" lon="1.96656">
        <ele>166.99</ele>
        <time>2017-11-26T11:52:25Z</time>
      </trkpt>
      <trkpt lat="48.55247" lon="1.96661">
        <ele>166.92</ele>
        <time>2017-11-26T11:52:27Z</time>
      </trkpt>
      <trkpt lat="48.55241" lon="1.96667">
        <ele>166.81</ele>
        <time>2017-11-26T11:52:29Z</time>
      </trkpt>
      <trkpt lat="48.55236" lon="1.96673">
        <ele>166.8</ele>
        <time>2017-11-26T11:52:31Z</time>
      </trkpt>
      <trkpt lat="48.55232" lon="1.96678">
        <ele>166.78</ele>
        <time>2017-11-26T11:52:33Z</time>
      </trkpt>
      <trkpt lat="48.55228" lon="1.96682">
        <ele>166.74</ele>
        <time>2017-11-26T11:52:35Z</time>
      </trkpt>
      <trkpt lat="48.55223" lon="1.96687">
        <ele>166.68</ele>
        <time>2017-11-26T11:52:37Z</time>
      </trkpt>
      <trkpt lat="48.55217" lon="1.96693">
        <ele>166.6</ele>
        <time>2017-11-26T11:52:39Z</time>
      </trkpt>
      <trkpt lat="48.55212" lon="1.96697">
        <ele>166.48</ele>
        <time>2017-11-26T11:52:41Z</time>
      </trkpt>
      <trkpt lat="48.55206" lon="1.96703">
        <ele>166.34</ele>
        <time>2017-11-26T11:52:43Z</time>
      </trkpt>
      <trkpt lat="48.55199" lon="1.96708">
        <ele>166.17</ele>
        <time>2017-11-26T11:52:45Z</time>
      </trkpt>
      <trkpt lat="48.55192" lon="1.96715">
        <ele>165.95</ele>
        <time>2017-11-26T11:52:47Z</time>
      </trkpt>
      <trkpt lat="48.55185" lon="1.9672">
        <ele>165.72</ele>
        <time>2017-11-26T11:52:49Z</time>
      </trkpt>
      <trkpt lat="48.55178" lon="1.96725">
        <ele>165.48</ele>
        <time>2017-11-26T11:52:51Z</time>
      </trkpt>
      <trkpt lat="48.55172" lon="1.96731">
        <ele>165.24</ele>
        <time>2017-11-26T11:52:53Z</time>
      </trkpt>
      <trkpt lat="48.55167" lon="1.96736">
        <ele>165.01</ele>
        <time>2017-11-26T11:52:55Z</time>
      </trkpt>
      <trkpt lat="48.55162" lon="1.96742">
        <ele>164.99</ele>
        <time>2017-11-26T11:52:57Z</time>
      </trkpt>
      <trkpt lat="48.55158" lon="1.96746">
        <ele>165</ele>
        <time>2017-11-26T11:52:59Z</time>
      </trkpt>
      <trkpt lat="48.55154" lon="1.96751">
        <ele>165</ele>
        <time>2017-11-26T11:53:01Z</time>
      </trkpt>
      <trkpt lat="48.5515" lon="1.96754">
        <ele>164.98</ele>
        <time>2017-11-26T11:53:03Z</time>
      </trkpt>
      <trkpt lat="48.55142" lon="1.96758">
        <ele>164.94</ele>
        <time>2017-11-26T11:53:07Z</time>
      </trkpt>
      <trkpt lat="48.55136" lon="1.96763">
        <ele>164.88</ele>
        <time>2017-11-26T11:53:11Z</time>
      </trkpt>
      <trkpt lat="48.55128" lon="1.96772">
        <ele>164.75</ele>
        <time>2017-11-26T11:53:15Z</time>
      </trkpt>
      <trkpt lat="48.55123" lon="1.96777">
        <ele>164.66</ele>
        <time>2017-11-26T11:53:17Z</time>
      </trkpt>
      <trkpt lat="48.55118" lon="1.96783">
        <ele>164.55</ele>
        <time>2017-11-26T11:53:19Z</time>
      </trkpt>
      <trkpt lat="48.55113" lon="1.96788">
        <ele>164.42</ele>
        <time>2017-11-26T11:53:21Z</time>
      </trkpt>
      <trkpt lat="48.55108" lon="1.96793">
        <ele>164.27</ele>
        <time>2017-11-26T11:53:23Z</time>
      </trkpt>
      <trkpt lat="48.55103" lon="1.96797">
        <ele>164.12</ele>
        <time>2017-11-26T11:53:25Z</time>
      </trkpt>
      <trkpt lat="48.55097" lon="1.96803">
        <ele>163.93</ele>
        <time>2017-11-26T11:53:27Z</time>
      </trkpt>
      <trkpt lat="48.55092" lon="1.96809">
        <ele>163.73</ele>
        <time>2017-11-26T11:53:29Z</time>
      </trkpt>
      <trkpt lat="48.55086" lon="1.96814">
        <ele>163.52</ele>
        <time>2017-11-26T11:53:31Z</time>
      </trkpt>
      <trkpt lat="48.55081" lon="1.96819">
        <ele>163.36</ele>
        <time>2017-11-26T11:53:33Z</time>
      </trkpt>
      <trkpt lat="48.55075" lon="1.96824">
        <ele>163.3</ele>
        <time>2017-11-26T11:53:35Z</time>
      </trkpt>
      <trkpt lat="48.5507" lon="1.96828">
        <ele>163.26</ele>
        <time>2017-11-26T11:53:37Z</time>
      </trkpt>
      <trkpt lat="48.55065" lon="1.96832">
        <ele>163.23</ele>
        <time>2017-11-26T11:53:39Z</time>
      </trkpt>
      <trkpt lat="48.5506" lon="1.96836">
        <ele>163.29</ele>
        <time>2017-11-26T11:53:41Z</time>
      </trkpt>
      <trkpt lat="48.55055" lon="1.9684">
        <ele>163.36</ele>
        <time>2017-11-26T11:53:43Z</time>
      </trkpt>
      <trkpt lat="48.55051" lon="1.96843">
        <ele>163.41</ele>
        <time>2017-11-26T11:53:45Z</time>
      </trkpt>
      <trkpt lat="48.55044" lon="1.9685">
        <ele>163.48</ele>
        <time>2017-11-26T11:53:49Z</time>
      </trkpt>
      <trkpt lat="48.55037" lon="1.96857">
        <ele>163.52</ele>
        <time>2017-11-26T11:53:53Z</time>
      </trkpt>
      <trkpt lat="48.55029" lon="1.96862">
        <ele>163.55</ele>
        <time>2017-11-26T11:53:57Z</time>
      </trkpt>
      <trkpt lat="48.55021" lon="1.96873">
        <ele>163.51</ele>
        <time>2017-11-26T11:54:01Z</time>
      </trkpt>
      <trkpt lat="48.55017" lon="1.96881">
        <ele>163.45</ele>
        <time>2017-11-26T11:54:03Z</time>
      </trkpt>
      <trkpt lat="48.55011" lon="1.96888">
        <ele>163.39</ele>
        <time>2017-11-26T11:54:05Z</time>
      </trkpt>
      <trkpt lat="48.55006" lon="1.96892">
        <ele>163.33</ele>
        <time>2017-11-26T11:54:07Z</time>
      </trkpt>
      <trkpt lat="48.55002" lon="1.96895">
        <ele>163.27</ele>
        <time>2017-11-26T11:54:09Z</time>
      </trkpt>
      <trkpt lat="48.54998" lon="1.96899">
        <ele>163.19</ele>
        <time>2017-11-26T11:54:11Z</time>
      </trkpt>
      <trkpt lat="48.54995" lon="1.96904">
        <ele>163.09</ele>
        <time>2017-11-26T11:54:13Z</time>
      </trkpt>
      <trkpt lat="48.54991" lon="1.96908">
        <ele>162.98</ele>
        <time>2017-11-26T11:54:15Z</time>
      </trkpt>
      <trkpt lat="48.54987" lon="1.96912">
        <ele>162.89</ele>
        <time>2017-11-26T11:54:17Z</time>
      </trkpt>
      <trkpt lat="48.54982" lon="1.96914">
        <ele>162.8</ele>
        <time>2017-11-26T11:54:19Z</time>
      </trkpt>
      <trkpt lat="48.54975" lon="1.96917">
        <ele>162.72</ele>
        <time>2017-11-26T11:54:21Z</time>
      </trkpt>
      <trkpt lat="48.54966" lon="1.96926">
        <ele>162.86</ele>
        <time>2017-11-26T11:54:23Z</time>
      </trkpt>
      <trkpt lat="48.54956" lon="1.96934">
        <ele>162.99</ele>
        <time>2017-11-26T11:54:25Z</time>
      </trkpt>
      <trkpt lat="48.54947" lon="1.9694">
        <ele>163.09</ele>
        <time>2017-11-26T11:54:27Z</time>
      </trkpt>
      <trkpt lat="48.54939" lon="1.96945">
        <ele>163.2</ele>
        <time>2017-11-26T11:54:29Z</time>
      </trkpt>
      <trkpt lat="48.54933" lon="1.96953">
        <ele>163.42</ele>
        <time>2017-11-26T11:54:31Z</time>
      </trkpt>
      <trkpt lat="48.54928" lon="1.9696">
        <ele>163.64</ele>
        <time>2017-11-26T11:54:33Z</time>
      </trkpt>
      <trkpt lat="48.54922" lon="1.96965">
        <ele>163.77</ele>
        <time>2017-11-26T11:54:35Z</time>
      </trkpt>
      <trkpt lat="48.54916" lon="1.96972">
        <ele>163.99</ele>
        <time>2017-11-26T11:54:39Z</time>
      </trkpt>
      <trkpt lat="48.54912" lon="1.96978">
        <ele>164.22</ele>
        <time>2017-11-26T11:54:43Z</time>
      </trkpt>
      <trkpt lat="48.54906" lon="1.96986">
        <ele>164.5</ele>
        <time>2017-11-26T11:54:47Z</time>
      </trkpt>
      <trkpt lat="48.54901" lon="1.96994">
        <ele>164.8</ele>
        <time>2017-11-26T11:54:51Z</time>
      </trkpt>
      <trkpt lat="48.5489" lon="1.97">
        <ele>165</ele>
        <time>2017-11-26T11:54:55Z</time>
      </trkpt>
      <trkpt lat="48.54883" lon="1.97007">
        <ele>165.05</ele>
        <time>2017-11-26T11:54:57Z</time>
      </trkpt>
      <trkpt lat="48.54877" lon="1.97015">
        <ele>165.09</ele>
        <time>2017-11-26T11:54:59Z</time>
      </trkpt>
      <trkpt lat="48.54871" lon="1.97021">
        <ele>165.11</ele>
        <time>2017-11-26T11:55:01Z</time>
      </trkpt>
      <trkpt lat="48.54866" lon="1.97027">
        <ele>165.13</ele>
        <time>2017-11-26T11:55:03Z</time>
      </trkpt>
      <trkpt lat="48.5486" lon="1.97033">
        <ele>165.13</ele>
        <time>2017-11-26T11:55:05Z</time>
      </trkpt>
      <trkpt lat="48.54855" lon="1.97039">
        <ele>165.12</ele>
        <time>2017-11-26T11:55:07Z</time>
      </trkpt>
      <trkpt lat="48.54848" lon="1.97044">
        <ele>165.1</ele>
        <time>2017-11-26T11:55:09Z</time>
      </trkpt>
      <trkpt lat="48.54842" lon="1.97048">
        <ele>165.06</ele>
        <time>2017-11-26T11:55:11Z</time>
      </trkpt>
      <trkpt lat="48.54835" lon="1.97053">
        <ele>165.01</ele>
        <time>2017-11-26T11:55:13Z</time>
      </trkpt>
      <trkpt lat="48.54829" lon="1.97057">
        <ele>165.05</ele>
        <time>2017-11-26T11:55:15Z</time>
      </trkpt>
      <trkpt lat="48.54824" lon="1.9706">
        <ele>165.11</ele>
        <time>2017-11-26T11:55:17Z</time>
      </trkpt>
      <trkpt lat="48.54817" lon="1.97067">
        <ele>165.2</ele>
        <time>2017-11-26T11:55:21Z</time>
      </trkpt>
      <trkpt lat="48.54811" lon="1.97074">
        <ele>165.27</ele>
        <time>2017-11-26T11:55:23Z</time>
      </trkpt>
      <trkpt lat="48.54805" lon="1.9708">
        <ele>165.35</ele>
        <time>2017-11-26T11:55:25Z</time>
      </trkpt>
      <trkpt lat="48.54799" lon="1.97087">
        <ele>165.4</ele>
        <time>2017-11-26T11:55:27Z</time>
      </trkpt>
      <trkpt lat="48.54793" lon="1.97093">
        <ele>165.43</ele>
        <time>2017-11-26T11:55:29Z</time>
      </trkpt>
      <trkpt lat="48.54788" lon="1.97098">
        <ele>165.45</ele>
        <time>2017-11-26T11:55:31Z</time>
      </trkpt>
      <trkpt lat="48.54783" lon="1.97101">
        <ele>165.47</ele>
        <time>2017-11-26T11:55:33Z</time>
      </trkpt>
      <trkpt lat="48.54775" lon="1.97108">
        <ele>165.49</ele>
        <time>2017-11-26T11:55:37Z</time>
      </trkpt>
      <trkpt lat="48.54767" lon="1.97114">
        <ele>165.51</ele>
        <time>2017-11-26T11:55:41Z</time>
      </trkpt>
      <trkpt lat="48.54762" lon="1.97116">
        <ele>165.52</ele>
        <time>2017-11-26T11:55:43Z</time>
      </trkpt>
      <trkpt lat="48.54756" lon="1.97123">
        <ele>165.48</ele>
        <time>2017-11-26T11:55:45Z</time>
      </trkpt>
      <trkpt lat="48.5475" lon="1.97132">
        <ele>165.43</ele>
        <time>2017-11-26T11:55:47Z</time>
      </trkpt>
      <trkpt lat="48.54743" lon="1.97138">
        <ele>165.46</ele>
        <time>2017-11-26T11:55:49Z</time>
      </trkpt>
      <trkpt lat="48.54736" lon="1.97143">
        <ele>165.53</ele>
        <time>2017-11-26T11:55:51Z</time>
      </trkpt>
      <trkpt lat="48.54729" lon="1.9715">
        <ele>165.61</ele>
        <time>2017-11-26T11:55:53Z</time>
      </trkpt>
      <trkpt lat="48.54723" lon="1.97156">
        <ele>165.7</ele>
        <time>2017-11-26T11:55:55Z</time>
      </trkpt>
      <trkpt lat="48.54716" lon="1.97162">
        <ele>165.82</ele>
        <time>2017-11-26T11:55:57Z</time>
      </trkpt>
      <trkpt lat="48.54709" lon="1.97166">
        <ele>165.99</ele>
        <time>2017-11-26T11:55:59Z</time>
      </trkpt>
      <trkpt lat="48.54701" lon="1.9717">
        <ele>166.22</ele>
        <time>2017-11-26T11:56:01Z</time>
      </trkpt>
      <trkpt lat="48.54694" lon="1.97178">
        <ele>166.47</ele>
        <time>2017-11-26T11:56:03Z</time>
      </trkpt>
      <trkpt lat="48.54688" lon="1.97185">
        <ele>166.71</ele>
        <time>2017-11-26T11:56:05Z</time>
      </trkpt>
      <trkpt lat="48.54682" lon="1.9719">
        <ele>166.9</ele>
        <time>2017-11-26T11:56:07Z</time>
      </trkpt>
      <trkpt lat="48.54677" lon="1.97194">
        <ele>167.08</ele>
        <time>2017-11-26T11:56:09Z</time>
      </trkpt>
      <trkpt lat="48.54669" lon="1.97198">
        <ele>167.32</ele>
        <time>2017-11-26T11:56:13Z</time>
      </trkpt>
      <trkpt lat="48.54664" lon="1.97201">
        <ele>167.52</ele>
        <time>2017-11-26T11:56:15Z</time>
      </trkpt>
      <trkpt lat="48.54659" lon="1.97207">
        <ele>167.82</ele>
        <time>2017-11-26T11:56:17Z</time>
      </trkpt>
      <trkpt lat="48.54652" lon="1.97214">
        <ele>168.2</ele>
        <time>2017-11-26T11:56:19Z</time>
      </trkpt>
      <trkpt lat="48.54645" lon="1.97222">
        <ele>168.62</ele>
        <time>2017-11-26T11:56:21Z</time>
      </trkpt>
      <trkpt lat="48.54638" lon="1.97231">
        <ele>169.06</ele>
        <time>2017-11-26T11:56:23Z</time>
      </trkpt>
      <trkpt lat="48.54631" lon="1.97236">
        <ele>169.44</ele>
        <time>2017-11-26T11:56:25Z</time>
      </trkpt>
      <trkpt lat="48.54625" lon="1.9724">
        <ele>169.81</ele>
        <time>2017-11-26T11:56:27Z</time>
      </trkpt>
      <trkpt lat="48.54572" lon="1.97302">
        <ele>171.38</ele>
        <time>2017-11-26T11:56:43Z</time>
      </trkpt>
      <trkpt lat="48.54556" lon="1.97316">
        <ele>171.21</ele>
        <time>2017-11-26T11:56:48Z</time>
      </trkpt>
      <trkpt lat="48.54552" lon="1.97316">
        <ele>171.21</ele>
        <time>2017-11-26T11:56:50Z</time>
      </trkpt>
      <trkpt lat="48.54546" lon="1.97323">
        <ele>171.13</ele>
        <time>2017-11-26T11:56:54Z</time>
      </trkpt>
      <trkpt lat="48.54541" lon="1.97327">
        <ele>171.08</ele>
        <time>2017-11-26T11:56:56Z</time>
      </trkpt>
      <trkpt lat="48.54536" lon="1.97334">
        <ele>171</ele>
        <time>2017-11-26T11:56:58Z</time>
      </trkpt>
      <trkpt lat="48.54529" lon="1.97341">
        <ele>170.94</ele>
        <time>2017-11-26T11:57:00Z</time>
      </trkpt>
      <trkpt lat="48.54522" lon="1.97348">
        <ele>170.87</ele>
        <time>2017-11-26T11:57:02Z</time>
      </trkpt>
      <trkpt lat="48.54514" lon="1.97353">
        <ele>170.81</ele>
        <time>2017-11-26T11:57:04Z</time>
      </trkpt>
      <trkpt lat="48.54506" lon="1.97355">
        <ele>170.76</ele>
        <time>2017-11-26T11:57:06Z</time>
      </trkpt>
      <trkpt lat="48.54499" lon="1.9736">
        <ele>170.67</ele>
        <time>2017-11-26T11:57:08Z</time>
      </trkpt>
      <trkpt lat="48.54492" lon="1.97369">
        <ele>170.53</ele>
        <time>2017-11-26T11:57:10Z</time>
      </trkpt>
      <trkpt lat="48.54484" lon="1.97374">
        <ele>170.42</ele>
        <time>2017-11-26T11:57:12Z</time>
      </trkpt>
      <trkpt lat="48.54476" lon="1.97378">
        <ele>170.31</ele>
        <time>2017-11-26T11:57:14Z</time>
      </trkpt>
      <trkpt lat="48.54469" lon="1.97383">
        <ele>170.19</ele>
        <time>2017-11-26T11:57:16Z</time>
      </trkpt>
      <trkpt lat="48.54462" lon="1.97388">
        <ele>170.05</ele>
        <time>2017-11-26T11:57:18Z</time>
      </trkpt>
      <trkpt lat="48.54457" lon="1.97394">
        <ele>169.9</ele>
        <time>2017-11-26T11:57:20Z</time>
      </trkpt>
      <trkpt lat="48.5445" lon="1.974">
        <ele>169.72</ele>
        <time>2017-11-26T11:57:22Z</time>
      </trkpt>
      <trkpt lat="48.54444" lon="1.97406">
        <ele>169.54</ele>
        <time>2017-11-26T11:57:24Z</time>
      </trkpt>
      <trkpt lat="48.54439" lon="1.97414">
        <ele>169.33</ele>
        <time>2017-11-26T11:57:26Z</time>
      </trkpt>
      <trkpt lat="48.54433" lon="1.9742">
        <ele>169.24</ele>
        <time>2017-11-26T11:57:28Z</time>
      </trkpt>
      <trkpt lat="48.54427" lon="1.97425">
        <ele>169.22</ele>
        <time>2017-11-26T11:57:30Z</time>
      </trkpt>
      <trkpt lat="48.54419" lon="1.9743">
        <ele>169.18</ele>
        <time>2017-11-26T11:57:32Z</time>
      </trkpt>
      <trkpt lat="48.54413" lon="1.97438">
        <ele>169.2</ele>
        <time>2017-11-26T11:57:34Z</time>
      </trkpt>
      <trkpt lat="48.54406" lon="1.97449">
        <ele>169.21</ele>
        <time>2017-11-26T11:57:36Z</time>
      </trkpt>
      <trkpt lat="48.54398" lon="1.97458">
        <ele>169.16</ele>
        <time>2017-11-26T11:57:38Z</time>
      </trkpt>
      <trkpt lat="48.54391" lon="1.97467">
        <ele>169.11</ele>
        <time>2017-11-26T11:57:40Z</time>
      </trkpt>
      <trkpt lat="48.54385" lon="1.97476">
        <ele>169.06</ele>
        <time>2017-11-26T11:57:42Z</time>
      </trkpt>
      <trkpt lat="48.54377" lon="1.97483">
        <ele>168.95</ele>
        <time>2017-11-26T11:57:44Z</time>
      </trkpt>
      <trkpt lat="48.54366" lon="1.97496">
        <ele>168.76</ele>
        <time>2017-11-26T11:57:46Z</time>
      </trkpt>
      <trkpt lat="48.54358" lon="1.97506">
        <ele>168.68</ele>
        <time>2017-11-26T11:57:48Z</time>
      </trkpt>
      <trkpt lat="48.5435" lon="1.97516">
        <ele>168.63</ele>
        <time>2017-11-26T11:57:50Z</time>
      </trkpt>
      <trkpt lat="48.54338" lon="1.97524">
        <ele>168.42</ele>
        <time>2017-11-26T11:57:52Z</time>
      </trkpt>
      <trkpt lat="48.54329" lon="1.97531">
        <ele>168.14</ele>
        <time>2017-11-26T11:57:54Z</time>
      </trkpt>
      <trkpt lat="48.54321" lon="1.9754">
        <ele>167.81</ele>
        <time>2017-11-26T11:57:56Z</time>
      </trkpt>
      <trkpt lat="48.54312" lon="1.97547">
        <ele>167.44</ele>
        <time>2017-11-26T11:57:58Z</time>
      </trkpt>
      <trkpt lat="48.54306" lon="1.97552">
        <ele>167.21</ele>
        <time>2017-11-26T11:58:00Z</time>
      </trkpt>
      <trkpt lat="48.54301" lon="1.97556">
        <ele>166.98</ele>
        <time>2017-11-26T11:58:02Z</time>
      </trkpt>
      <trkpt lat="48.54289" lon="1.97564">
        <ele>166.54</ele>
        <time>2017-11-26T11:58:04Z</time>
      </trkpt>
      <trkpt lat="48.54282" lon="1.97572">
        <ele>166.31</ele>
        <time>2017-11-26T11:58:06Z</time>
      </trkpt>
      <trkpt lat="48.54276" lon="1.97577">
        <ele>166.11</ele>
        <time>2017-11-26T11:58:08Z</time>
      </trkpt>
      <trkpt lat="48.54266" lon="1.97583">
        <ele>165.75</ele>
        <time>2017-11-26T11:58:12Z</time>
      </trkpt>
      <trkpt lat="48.54261" lon="1.97586">
        <ele>165.6</ele>
        <time>2017-11-26T11:58:14Z</time>
      </trkpt>
      <trkpt lat="48.54254" lon="1.97588">
        <ele>165.36</ele>
        <time>2017-11-26T11:58:18Z</time>
      </trkpt>
      <trkpt lat="48.5425" lon="1.97596">
        <ele>165.44</ele>
        <time>2017-11-26T11:58:20Z</time>
      </trkpt>
      <trkpt lat="48.54243" lon="1.97605">
        <ele>165.22</ele>
        <time>2017-11-26T11:58:22Z</time>
      </trkpt>
      <trkpt lat="48.54231" lon="1.97614">
        <ele>164.51</ele>
        <time>2017-11-26T11:58:24Z</time>
      </trkpt>
      <trkpt lat="48.54221" lon="1.97623">
        <ele>163.84</ele>
        <time>2017-11-26T11:58:28Z</time>
      </trkpt>
      <trkpt lat="48.54214" lon="1.97628">
        <ele>163.29</ele>
        <time>2017-11-26T11:58:32Z</time>
      </trkpt>
      <trkpt lat="48.54209" lon="1.97635">
        <ele>162.87</ele>
        <time>2017-11-26T11:58:34Z</time>
      </trkpt>
      <trkpt lat="48.542" lon="1.97643">
        <ele>161.98</ele>
        <time>2017-11-26T11:58:36Z</time>
      </trkpt>
      <trkpt lat="48.54191" lon="1.97649">
        <ele>161</ele>
        <time>2017-11-26T11:58:38Z</time>
      </trkpt>
      <trkpt lat="48.54181" lon="1.97655">
        <ele>159.84</ele>
        <time>2017-11-26T11:58:40Z</time>
      </trkpt>
      <trkpt lat="48.54171" lon="1.97661">
        <ele>158.6</ele>
        <time>2017-11-26T11:58:42Z</time>
      </trkpt>
      <trkpt lat="48.5416" lon="1.97671">
        <ele>157.88</ele>
        <time>2017-11-26T11:58:44Z</time>
      </trkpt>
      <trkpt lat="48.54149" lon="1.97683">
        <ele>157.45</ele>
        <time>2017-11-26T11:58:46Z</time>
      </trkpt>
      <trkpt lat="48.54139" lon="1.97695">
        <ele>156.95</ele>
        <time>2017-11-26T11:58:48Z</time>
      </trkpt>
      <trkpt lat="48.54127" lon="1.97707">
        <ele>156.56</ele>
        <time>2017-11-26T11:58:50Z</time>
      </trkpt>
      <trkpt lat="48.54115" lon="1.97721">
        <ele>156.03</ele>
        <time>2017-11-26T11:58:52Z</time>
      </trkpt>
      <trkpt lat="48.54104" lon="1.97729">
        <ele>155.77</ele>
        <time>2017-11-26T11:58:54Z</time>
      </trkpt>
      <trkpt lat="48.54093" lon="1.97735">
        <ele>155.6</ele>
        <time>2017-11-26T11:58:56Z</time>
      </trkpt>
      <trkpt lat="48.54085" lon="1.97741">
        <ele>155.41</ele>
        <time>2017-11-26T11:58:58Z</time>
      </trkpt>
      <trkpt lat="48.54076" lon="1.97751">
        <ele>155.23</ele>
        <time>2017-11-26T11:59:00Z</time>
      </trkpt>
      <trkpt lat="48.54066" lon="1.97763">
        <ele>154.76</ele>
        <time>2017-11-26T11:59:02Z</time>
      </trkpt>
      <trkpt lat="48.54061" lon="1.97764">
        <ele>154.94</ele>
        <time>2017-11-26T11:59:04Z</time>
      </trkpt>
      <trkpt lat="48.54055" lon="1.97765">
        <ele>155.22</ele>
        <time>2017-11-26T11:59:06Z</time>
      </trkpt>
      <trkpt lat="48.54051" lon="1.97775">
        <ele>154.75</ele>
        <time>2017-11-26T11:59:10Z</time>
      </trkpt>
      <trkpt lat="48.54052" lon="1.97782">
        <ele>154.16</ele>
        <time>2017-11-26T11:59:14Z</time>
      </trkpt>
      <trkpt lat="48.54046" lon="1.97786">
        <ele>154.3</ele>
        <time>2017-11-26T11:59:16Z</time>
      </trkpt>
      <trkpt lat="48.54038" lon="1.97791">
        <ele>154.58</ele>
        <time>2017-11-26T11:59:18Z</time>
      </trkpt>
      <trkpt lat="48.54031" lon="1.97799">
        <ele>154.67</ele>
        <time>2017-11-26T11:59:20Z</time>
      </trkpt>
      <trkpt lat="48.54024" lon="1.97805">
        <ele>154.91</ele>
        <time>2017-11-26T11:59:24Z</time>
      </trkpt>
      <trkpt lat="48.54017" lon="1.97809">
        <ele>155.38</ele>
        <time>2017-11-26T11:59:28Z</time>
      </trkpt>
      <trkpt lat="48.54013" lon="1.97815">
        <ele>155.42</ele>
        <time>2017-11-26T11:59:30Z</time>
      </trkpt>
      <trkpt lat="48.54008" lon="1.97818">
        <ele>155.82</ele>
        <time>2017-11-26T11:59:32Z</time>
      </trkpt>
      <trkpt lat="48.54003" lon="1.97823">
        <ele>156.05</ele>
        <time>2017-11-26T11:59:34Z</time>
      </trkpt>
      <trkpt lat="48.53999" lon="1.97827">
        <ele>156.25</ele>
        <time>2017-11-26T11:59:36Z</time>
      </trkpt>
      <trkpt lat="48.53994" lon="1.97831">
        <ele>156.3</ele>
        <time>2017-11-26T11:59:38Z</time>
      </trkpt>
      <trkpt lat="48.53989" lon="1.97835">
        <ele>156.33</ele>
        <time>2017-11-26T11:59:40Z</time>
      </trkpt>
      <trkpt lat="48.53984" lon="1.97839">
        <ele>156.35</ele>
        <time>2017-11-26T11:59:42Z</time>
      </trkpt>
      <trkpt lat="48.5398" lon="1.97845">
        <ele>156.25</ele>
        <time>2017-11-26T11:59:44Z</time>
      </trkpt>
      <trkpt lat="48.53975" lon="1.97849">
        <ele>156.25</ele>
        <time>2017-11-26T11:59:46Z</time>
      </trkpt>
      <trkpt lat="48.53969" lon="1.97854">
        <ele>156.17</ele>
        <time>2017-11-26T11:59:48Z</time>
      </trkpt>
      <trkpt lat="48.53963" lon="1.9786">
        <ele>156.07</ele>
        <time>2017-11-26T11:59:50Z</time>
      </trkpt>
      <trkpt lat="48.53959" lon="1.97866">
        <ele>155.91</ele>
        <time>2017-11-26T11:59:52Z</time>
      </trkpt>
      <trkpt lat="48.53953" lon="1.9787">
        <ele>155.86</ele>
        <time>2017-11-26T11:59:54Z</time>
      </trkpt>
      <trkpt lat="48.53948" lon="1.97875">
        <ele>155.74</ele>
        <time>2017-11-26T11:59:56Z</time>
      </trkpt>
      <trkpt lat="48.53943" lon="1.97876">
        <ele>155.82</ele>
        <time>2017-11-26T11:59:58Z</time>
      </trkpt>
      <trkpt lat="48.53935" lon="1.97887">
        <ele>155.43</ele>
        <time>2017-11-26T12:00:02Z</time>
      </trkpt>
      <trkpt lat="48.53932" lon="1.97893">
        <ele>155.14</ele>
        <time>2017-11-26T12:00:04Z</time>
      </trkpt>
      <trkpt lat="48.53929" lon="1.97901">
        <ele>154.74</ele>
        <time>2017-11-26T12:00:08Z</time>
      </trkpt>
      <trkpt lat="48.53931" lon="1.97911">
        <ele>154.16</ele>
        <time>2017-11-26T12:00:14Z</time>
      </trkpt>
      <trkpt lat="48.53934" lon="1.97919">
        <ele>153.74</ele>
        <time>2017-11-26T12:00:28Z</time>
      </trkpt>
      <trkpt lat="48.53944" lon="1.97925">
        <ele>153.44</ele>
        <time>2017-11-26T12:02:06Z</time>
      </trkpt>
      <trkpt lat="48.53953" lon="1.97928">
        <ele>153.23</ele>
        <time>2017-11-26T12:02:08Z</time>
      </trkpt>
      <trkpt lat="48.53962" lon="1.97928">
        <ele>153.12</ele>
        <time>2017-11-26T12:02:10Z</time>
      </trkpt>
      <trkpt lat="48.53968" lon="1.97938">
        <ele>152.71</ele>
        <time>2017-11-26T12:02:12Z</time>
      </trkpt>
      <trkpt lat="48.53978" lon="1.97941">
        <ele>152.47</ele>
        <time>2017-11-26T12:02:14Z</time>
      </trkpt>
      <trkpt lat="48.53986" lon="1.97943">
        <ele>152.25</ele>
        <time>2017-11-26T12:02:16Z</time>
      </trkpt>
      <trkpt lat="48.53997" lon="1.97949">
        <ele>151.89</ele>
        <time>2017-11-26T12:02:18Z</time>
      </trkpt>
      <trkpt lat="48.54005" lon="1.97959">
        <ele>151.17</ele>
        <time>2017-11-26T12:02:20Z</time>
      </trkpt>
      <trkpt lat="48.54016" lon="1.97973">
        <ele>150.11</ele>
        <time>2017-11-26T12:02:22Z</time>
      </trkpt>
      <trkpt lat="48.54028" lon="1.97979">
        <ele>149.3</ele>
        <time>2017-11-26T12:02:24Z</time>
      </trkpt>
      <trkpt lat="48.54038" lon="1.97982">
        <ele>148.81</ele>
        <time>2017-11-26T12:02:26Z</time>
      </trkpt>
      <trkpt lat="48.54044" lon="1.97985">
        <ele>148.5</ele>
        <time>2017-11-26T12:02:28Z</time>
      </trkpt>
      <trkpt lat="48.54049" lon="1.97991">
        <ele>148.23</ele>
        <time>2017-11-26T12:02:30Z</time>
      </trkpt>
      <trkpt lat="48.54056" lon="1.97999">
        <ele>147.98</ele>
        <time>2017-11-26T12:02:32Z</time>
      </trkpt>
      <trkpt lat="48.54071" lon="1.98012">
        <ele>147.01</ele>
        <time>2017-11-26T12:02:34Z</time>
      </trkpt>
      <trkpt lat="48.54083" lon="1.98022">
        <ele>146.23</ele>
        <time>2017-11-26T12:02:36Z</time>
      </trkpt>
      <trkpt lat="48.54094" lon="1.98027">
        <ele>146.93</ele>
        <time>2017-11-26T12:02:38Z</time>
      </trkpt>
      <trkpt lat="48.54101" lon="1.9803">
        <ele>147.52</ele>
        <time>2017-11-26T12:02:40Z</time>
      </trkpt>
      <trkpt lat="48.54107" lon="1.98031">
        <ele>148.06</ele>
        <time>2017-11-26T12:02:42Z</time>
      </trkpt>
      <trkpt lat="48.54112" lon="1.98032">
        <ele>148.46</ele>
        <time>2017-11-26T12:02:44Z</time>
      </trkpt>
      <trkpt lat="48.5412" lon="1.98034">
        <ele>149.13</ele>
        <time>2017-11-26T12:02:48Z</time>
      </trkpt>
      <trkpt lat="48.54127" lon="1.98034">
        <ele>149.82</ele>
        <time>2017-11-26T12:02:52Z</time>
      </trkpt>
      <trkpt lat="48.54135" lon="1.98033">
        <ele>150.53</ele>
        <time>2017-11-26T12:02:56Z</time>
      </trkpt>
      <trkpt lat="48.54143" lon="1.98034">
        <ele>151.22</ele>
        <time>2017-11-26T12:03:00Z</time>
      </trkpt>
      <trkpt lat="48.54151" lon="1.98034">
        <ele>152</ele>
        <time>2017-11-26T12:03:04Z</time>
      </trkpt>
      <trkpt lat="48.5416" lon="1.98034">
        <ele>152.82</ele>
        <time>2017-11-26T12:03:08Z</time>
      </trkpt>
      <trkpt lat="48.54165" lon="1.98034">
        <ele>153.24</ele>
        <time>2017-11-26T12:03:10Z</time>
      </trkpt>
      <trkpt lat="48.5417" lon="1.98034">
        <ele>153.63</ele>
        <time>2017-11-26T12:03:12Z</time>
      </trkpt>
      <trkpt lat="48.54178" lon="1.98034">
        <ele>154.26</ele>
        <time>2017-11-26T12:03:16Z</time>
      </trkpt>
      <trkpt lat="48.54185" lon="1.98033">
        <ele>154.83</ele>
        <time>2017-11-26T12:03:20Z</time>
      </trkpt>
      <trkpt lat="48.54193" lon="1.9803">
        <ele>155.37</ele>
        <time>2017-11-26T12:03:24Z</time>
      </trkpt>
      <trkpt lat="48.54201" lon="1.98028">
        <ele>155.93</ele>
        <time>2017-11-26T12:03:28Z</time>
      </trkpt>
      <trkpt lat="48.54207" lon="1.9803">
        <ele>156.42</ele>
        <time>2017-11-26T12:03:32Z</time>
      </trkpt>
      <trkpt lat="48.54212" lon="1.9803">
        <ele>156.81</ele>
        <time>2017-11-26T12:03:36Z</time>
      </trkpt>
      <trkpt lat="48.54218" lon="1.9803">
        <ele>157.26</ele>
        <time>2017-11-26T12:03:42Z</time>
      </trkpt>
      <trkpt lat="48.54222" lon="1.98034">
        <ele>157.67</ele>
        <time>2017-11-26T12:03:46Z</time>
      </trkpt>
      <trkpt lat="48.54227" lon="1.98039">
        <ele>158.12</ele>
        <time>2017-11-26T12:03:50Z</time>
      </trkpt>
      <trkpt lat="48.54232" lon="1.98041">
        <ele>158.55</ele>
        <time>2017-11-26T12:03:54Z</time>
      </trkpt>
      <trkpt lat="48.54236" lon="1.98045">
        <ele>158.95</ele>
        <time>2017-11-26T12:03:58Z</time>
      </trkpt>
      <trkpt lat="48.5424" lon="1.98052">
        <ele>159.43</ele>
        <time>2017-11-26T12:04:04Z</time>
      </trkpt>
      <trkpt lat="48.54244" lon="1.98057">
        <ele>159.87</ele>
        <time>2017-11-26T12:04:08Z</time>
      </trkpt>
      <trkpt lat="48.54249" lon="1.98059">
        <ele>160.34</ele>
        <time>2017-11-26T12:04:12Z</time>
      </trkpt>
      <trkpt lat="48.54253" lon="1.98063">
        <ele>160.72</ele>
        <time>2017-11-26T12:04:16Z</time>
      </trkpt>
      <trkpt lat="48.54258" lon="1.98067">
        <ele>161.11</ele>
        <time>2017-11-26T12:04:18Z</time>
      </trkpt>
      <trkpt lat="48.54264" lon="1.98074">
        <ele>161.67</ele>
        <time>2017-11-26T12:04:22Z</time>
      </trkpt>
      <trkpt lat="48.54269" lon="1.98077">
        <ele>162.03</ele>
        <time>2017-11-26T12:04:26Z</time>
      </trkpt>
      <trkpt lat="48.54274" lon="1.98083">
        <ele>162.44</ele>
        <time>2017-11-26T12:04:30Z</time>
      </trkpt>
      <trkpt lat="48.54278" lon="1.9809">
        <ele>162.97</ele>
        <time>2017-11-26T12:04:34Z</time>
      </trkpt>
      <trkpt lat="48.54286" lon="1.98091">
        <ele>163.46</ele>
        <time>2017-11-26T12:04:40Z</time>
      </trkpt>
      <trkpt lat="48.5429" lon="1.98096">
        <ele>163.85</ele>
        <time>2017-11-26T12:04:46Z</time>
      </trkpt>
      <trkpt lat="48.54294" lon="1.981">
        <ele>164.25</ele>
        <time>2017-11-26T12:04:52Z</time>
      </trkpt>
      <trkpt lat="48.54299" lon="1.98103">
        <ele>164.56</ele>
        <time>2017-11-26T12:04:56Z</time>
      </trkpt>
      <trkpt lat="48.54302" lon="1.98111">
        <ele>164.96</ele>
        <time>2017-11-26T12:05:02Z</time>
      </trkpt>
      <trkpt lat="48.54306" lon="1.98118">
        <ele>165.3</ele>
        <time>2017-11-26T12:05:06Z</time>
      </trkpt>
      <trkpt lat="48.5431" lon="1.98124">
        <ele>165.63</ele>
        <time>2017-11-26T12:05:10Z</time>
      </trkpt>
      <trkpt lat="48.54314" lon="1.98131">
        <ele>165.96</ele>
        <time>2017-11-26T12:05:14Z</time>
      </trkpt>
      <trkpt lat="48.54318" lon="1.9814">
        <ele>166.25</ele>
        <time>2017-11-26T12:05:18Z</time>
      </trkpt>
      <trkpt lat="48.54321" lon="1.98145">
        <ele>166.44</ele>
        <time>2017-11-26T12:05:22Z</time>
      </trkpt>
      <trkpt lat="48.54323" lon="1.98153">
        <ele>166.62</ele>
        <time>2017-11-26T12:05:26Z</time>
      </trkpt>
      <trkpt lat="48.54324" lon="1.98159">
        <ele>166.76</ele>
        <time>2017-11-26T12:05:30Z</time>
      </trkpt>
      <trkpt lat="48.54325" lon="1.9817">
        <ele>166.9</ele>
        <time>2017-11-26T12:05:34Z</time>
      </trkpt>
      <trkpt lat="48.54329" lon="1.98181">
        <ele>166.94</ele>
        <time>2017-11-26T12:05:38Z</time>
      </trkpt>
      <trkpt lat="48.54334" lon="1.98187">
        <ele>166.97</ele>
        <time>2017-11-26T12:05:42Z</time>
      </trkpt>
      <trkpt lat="48.54337" lon="1.98194">
        <ele>166.94</ele>
        <time>2017-11-26T12:05:50Z</time>
      </trkpt>
      <trkpt lat="48.54333" lon="1.982">
        <ele>166.99</ele>
        <time>2017-11-26T12:05:56Z</time>
      </trkpt>
      <trkpt lat="48.54328" lon="1.98205">
        <ele>166.91</ele>
        <time>2017-11-26T12:06:00Z</time>
      </trkpt>
      <trkpt lat="48.54324" lon="1.98207">
        <ele>166.83</ele>
        <time>2017-11-26T12:06:04Z</time>
      </trkpt>
      <trkpt lat="48.54318" lon="1.9821">
        <ele>166.72</ele>
        <time>2017-11-26T12:06:08Z</time>
      </trkpt>
      <trkpt lat="48.54312" lon="1.98213">
        <ele>166.61</ele>
        <time>2017-11-26T12:06:10Z</time>
      </trkpt>
      <trkpt lat="48.54306" lon="1.98215">
        <ele>166.49</ele>
        <time>2017-11-26T12:06:12Z</time>
      </trkpt>
      <trkpt lat="48.54301" lon="1.9822">
        <ele>166.37</ele>
        <time>2017-11-26T12:06:14Z</time>
      </trkpt>
      <trkpt lat="48.54297" lon="1.98225">
        <ele>166.26</ele>
        <time>2017-11-26T12:06:16Z</time>
      </trkpt>
      <trkpt lat="48.54293" lon="1.9823">
        <ele>166.14</ele>
        <time>2017-11-26T12:06:18Z</time>
      </trkpt>
      <trkpt lat="48.54287" lon="1.98233">
        <ele>166.01</ele>
        <time>2017-11-26T12:06:20Z</time>
      </trkpt>
      <trkpt lat="48.54282" lon="1.98235">
        <ele>165.88</ele>
        <time>2017-11-26T12:06:22Z</time>
      </trkpt>
      <trkpt lat="48.54276" lon="1.98237">
        <ele>165.73</ele>
        <time>2017-11-26T12:06:24Z</time>
      </trkpt>
      <trkpt lat="48.54269" lon="1.98241">
        <ele>165.55</ele>
        <time>2017-11-26T12:06:26Z</time>
      </trkpt>
      <trkpt lat="48.54263" lon="1.98245">
        <ele>165.36</ele>
        <time>2017-11-26T12:06:28Z</time>
      </trkpt>
      <trkpt lat="48.54255" lon="1.98248">
        <ele>165.15</ele>
        <time>2017-11-26T12:06:30Z</time>
      </trkpt>
      <trkpt lat="48.54246" lon="1.98253">
        <ele>164.61</ele>
        <time>2017-11-26T12:06:32Z</time>
      </trkpt>
      <trkpt lat="48.54237" lon="1.98258">
        <ele>163.6</ele>
        <time>2017-11-26T12:06:34Z</time>
      </trkpt>
      <trkpt lat="48.5423" lon="1.98264">
        <ele>162.73</ele>
        <time>2017-11-26T12:06:36Z</time>
      </trkpt>
      <trkpt lat="48.54222" lon="1.98269">
        <ele>161.82</ele>
        <time>2017-11-26T12:06:38Z</time>
      </trkpt>
      <trkpt lat="48.54214" lon="1.98273">
        <ele>160.85</ele>
        <time>2017-11-26T12:06:40Z</time>
      </trkpt>
      <trkpt lat="48.54206" lon="1.98277">
        <ele>159.87</ele>
        <time>2017-11-26T12:06:42Z</time>
      </trkpt>
      <trkpt lat="48.54182" lon="1.98294">
        <ele>156.74</ele>
        <time>2017-11-26T12:06:44Z</time>
      </trkpt>
      <trkpt lat="48.54163" lon="1.98301">
        <ele>154.25</ele>
        <time>2017-11-26T12:06:46Z</time>
      </trkpt>
      <trkpt lat="48.54147" lon="1.98312">
        <ele>151.78</ele>
        <time>2017-11-26T12:06:48Z</time>
      </trkpt>
      <trkpt lat="48.54136" lon="1.98318">
        <ele>150.25</ele>
        <time>2017-11-26T12:06:50Z</time>
      </trkpt>
      <trkpt lat="48.54123" lon="1.98326">
        <ele>148.36</ele>
        <time>2017-11-26T12:06:52Z</time>
      </trkpt>
      <trkpt lat="48.5411" lon="1.98336">
        <ele>146.46</ele>
        <time>2017-11-26T12:06:55Z</time>
      </trkpt>
      <trkpt lat="48.541" lon="1.9834">
        <ele>144.91</ele>
        <time>2017-11-26T12:06:57Z</time>
      </trkpt>
      <trkpt lat="48.54087" lon="1.98345">
        <ele>142.95</ele>
        <time>2017-11-26T12:06:59Z</time>
      </trkpt>
      <trkpt lat="48.54077" lon="1.98361">
        <ele>141.7</ele>
        <time>2017-11-26T12:07:01Z</time>
      </trkpt>
      <trkpt lat="48.54067" lon="1.98364">
        <ele>141.54</ele>
        <time>2017-11-26T12:07:03Z</time>
      </trkpt>
      <trkpt lat="48.54059" lon="1.9837">
        <ele>141.26</ele>
        <time>2017-11-26T12:07:05Z</time>
      </trkpt>
      <trkpt lat="48.54046" lon="1.98372">
        <ele>141.13</ele>
        <time>2017-11-26T12:07:07Z</time>
      </trkpt>
      <trkpt lat="48.54034" lon="1.98377">
        <ele>140.89</ele>
        <time>2017-11-26T12:07:09Z</time>
      </trkpt>
      <trkpt lat="48.54026" lon="1.98386">
        <ele>140.47</ele>
        <time>2017-11-26T12:07:11Z</time>
      </trkpt>
      <trkpt lat="48.54022" lon="1.98389">
        <ele>140.31</ele>
        <time>2017-11-26T12:07:13Z</time>
      </trkpt>
      <trkpt lat="48.54014" lon="1.98395">
        <ele>140.04</ele>
        <time>2017-11-26T12:07:15Z</time>
      </trkpt>
      <trkpt lat="48.5401" lon="1.98401">
        <ele>139.76</ele>
        <time>2017-11-26T12:07:17Z</time>
      </trkpt>
      <trkpt lat="48.54007" lon="1.98408">
        <ele>139.43</ele>
        <time>2017-11-26T12:07:19Z</time>
      </trkpt>
      <trkpt lat="48.54" lon="1.98412">
        <ele>139.23</ele>
        <time>2017-11-26T12:07:23Z</time>
      </trkpt>
      <trkpt lat="48.53996" lon="1.98416">
        <ele>139.14</ele>
        <time>2017-11-26T12:07:27Z</time>
      </trkpt>
      <trkpt lat="48.53993" lon="1.98424">
        <ele>138.79</ele>
        <time>2017-11-26T12:07:29Z</time>
      </trkpt>
      <trkpt lat="48.53983" lon="1.98425">
        <ele>138.93</ele>
        <time>2017-11-26T12:07:31Z</time>
      </trkpt>
      <trkpt lat="48.53974" lon="1.98429">
        <ele>138.8</ele>
        <time>2017-11-26T12:07:35Z</time>
      </trkpt>
      <trkpt lat="48.53968" lon="1.98431">
        <ele>138.78</ele>
        <time>2017-11-26T12:07:37Z</time>
      </trkpt>
      <trkpt lat="48.53961" lon="1.98433">
        <ele>138.69</ele>
        <time>2017-11-26T12:07:39Z</time>
      </trkpt>
      <trkpt lat="48.53956" lon="1.98436">
        <ele>138.53</ele>
        <time>2017-11-26T12:07:41Z</time>
      </trkpt>
      <trkpt lat="48.53951" lon="1.98437">
        <ele>138.47</ele>
        <time>2017-11-26T12:07:43Z</time>
      </trkpt>
      <trkpt lat="48.53945" lon="1.98439">
        <ele>138.36</ele>
        <time>2017-11-26T12:07:45Z</time>
      </trkpt>
      <trkpt lat="48.53939" lon="1.98442">
        <ele>138.15</ele>
        <time>2017-11-26T12:07:47Z</time>
      </trkpt>
      <trkpt lat="48.53934" lon="1.98445">
        <ele>137.89</ele>
        <time>2017-11-26T12:07:49Z</time>
      </trkpt>
      <trkpt lat="48.53929" lon="1.9845">
        <ele>137.39</ele>
        <time>2017-11-26T12:07:51Z</time>
      </trkpt>
      <trkpt lat="48.53926" lon="1.98459">
        <ele>136.53</ele>
        <time>2017-11-26T12:07:53Z</time>
      </trkpt>
      <trkpt lat="48.53924" lon="1.98468">
        <ele>135.52</ele>
        <time>2017-11-26T12:07:55Z</time>
      </trkpt>
      <trkpt lat="48.53926" lon="1.98478">
        <ele>134.57</ele>
        <time>2017-11-26T12:07:57Z</time>
      </trkpt>
      <trkpt lat="48.53931" lon="1.98485">
        <ele>133.97</ele>
        <time>2017-11-26T12:07:59Z</time>
      </trkpt>
      <trkpt lat="48.53938" lon="1.98491">
        <ele>133.56</ele>
        <time>2017-11-26T12:08:01Z</time>
      </trkpt>
      <trkpt lat="48.53945" lon="1.985">
        <ele>132.99</ele>
        <time>2017-11-26T12:08:03Z</time>
      </trkpt>
      <trkpt lat="48.5395" lon="1.98512">
        <ele>132.59</ele>
        <time>2017-11-26T12:08:05Z</time>
      </trkpt>
      <trkpt lat="48.53955" lon="1.98522">
        <ele>132.29</ele>
        <time>2017-11-26T12:08:07Z</time>
      </trkpt>
      <trkpt lat="48.5396" lon="1.98532">
        <ele>132.03</ele>
        <time>2017-11-26T12:08:09Z</time>
      </trkpt>
      <trkpt lat="48.53967" lon="1.98541">
        <ele>131.95</ele>
        <time>2017-11-26T12:08:11Z</time>
      </trkpt>
      <trkpt lat="48.53973" lon="1.98549">
        <ele>131.9</ele>
        <time>2017-11-26T12:08:13Z</time>
      </trkpt>
      <trkpt lat="48.53979" lon="1.98558">
        <ele>131.81</ele>
        <time>2017-11-26T12:08:15Z</time>
      </trkpt>
      <trkpt lat="48.53984" lon="1.98566">
        <ele>131.72</ele>
        <time>2017-11-26T12:08:17Z</time>
      </trkpt>
      <trkpt lat="48.5399" lon="1.98574">
        <ele>131.73</ele>
        <time>2017-11-26T12:08:19Z</time>
      </trkpt>
      <trkpt lat="48.53996" lon="1.98582">
        <ele>131.78</ele>
        <time>2017-11-26T12:08:21Z</time>
      </trkpt>
      <trkpt lat="48.54001" lon="1.98591">
        <ele>131.72</ele>
        <time>2017-11-26T12:08:23Z</time>
      </trkpt>
      <trkpt lat="48.54008" lon="1.98601">
        <ele>131.54</ele>
        <time>2017-11-26T12:08:25Z</time>
      </trkpt>
      <trkpt lat="48.54015" lon="1.98613">
        <ele>131.37</ele>
        <time>2017-11-26T12:08:27Z</time>
      </trkpt>
      <trkpt lat="48.54031" lon="1.98631">
        <ele>131.39</ele>
        <time>2017-11-26T12:08:29Z</time>
      </trkpt>
      <trkpt lat="48.54043" lon="1.98643">
        <ele>131.58</ele>
        <time>2017-11-26T12:08:31Z</time>
      </trkpt>
      <trkpt lat="48.54048" lon="1.9866">
        <ele>131.17</ele>
        <time>2017-11-26T12:08:33Z</time>
      </trkpt>
      <trkpt lat="48.54064" lon="1.9867">
        <ele>131.8</ele>
        <time>2017-11-26T12:08:35Z</time>
      </trkpt>
      <trkpt lat="48.54073" lon="1.98683">
        <ele>132.31</ele>
        <time>2017-11-26T12:08:37Z</time>
      </trkpt>
      <trkpt lat="48.5408" lon="1.9869">
        <ele>132.75</ele>
        <time>2017-11-26T12:08:39Z</time>
      </trkpt>
      <trkpt lat="48.54088" lon="1.98695">
        <ele>133.77</ele>
        <time>2017-11-26T12:08:41Z</time>
      </trkpt>
      <trkpt lat="48.54094" lon="1.98701">
        <ele>134.86</ele>
        <time>2017-11-26T12:08:43Z</time>
      </trkpt>
      <trkpt lat="48.54099" lon="1.98703">
        <ele>135.79</ele>
        <time>2017-11-26T12:08:45Z</time>
      </trkpt>
      <trkpt lat="48.54107" lon="1.98708">
        <ele>137.09</ele>
        <time>2017-11-26T12:08:49Z</time>
      </trkpt>
      <trkpt lat="48.54113" lon="1.98708">
        <ele>138.19</ele>
        <time>2017-11-26T12:08:53Z</time>
      </trkpt>
      <trkpt lat="48.54119" lon="1.98705">
        <ele>139.27</ele>
        <time>2017-11-26T12:08:59Z</time>
      </trkpt>
      <trkpt lat="48.54124" lon="1.98705">
        <ele>140.06</ele>
        <time>2017-11-26T12:09:03Z</time>
      </trkpt>
      <trkpt lat="48.54128" lon="1.98703">
        <ele>140.82</ele>
        <time>2017-11-26T12:09:07Z</time>
      </trkpt>
      <trkpt lat="48.54133" lon="1.98701">
        <ele>141.64</ele>
        <time>2017-11-26T12:09:11Z</time>
      </trkpt>
      <trkpt lat="48.54138" lon="1.987">
        <ele>142.49</ele>
        <time>2017-11-26T12:09:15Z</time>
      </trkpt>
      <trkpt lat="48.54143" lon="1.98698">
        <ele>143.26</ele>
        <time>2017-11-26T12:09:19Z</time>
      </trkpt>
      <trkpt lat="48.54148" lon="1.98696">
        <ele>144.08</ele>
        <time>2017-11-26T12:09:23Z</time>
      </trkpt>
      <trkpt lat="48.54154" lon="1.98692">
        <ele>145.15</ele>
        <time>2017-11-26T12:09:33Z</time>
      </trkpt>
      <trkpt lat="48.54159" lon="1.98692">
        <ele>145.99</ele>
        <time>2017-11-26T12:09:37Z</time>
      </trkpt>
      <trkpt lat="48.54165" lon="1.98692">
        <ele>147</ele>
        <time>2017-11-26T12:09:45Z</time>
      </trkpt>
      <trkpt lat="48.54169" lon="1.98686">
        <ele>147.62</ele>
        <time>2017-11-26T12:09:49Z</time>
      </trkpt>
      <trkpt lat="48.54175" lon="1.98682">
        <ele>148.5</ele>
        <time>2017-11-26T12:09:53Z</time>
      </trkpt>
      <trkpt lat="48.54182" lon="1.98677">
        <ele>149.53</ele>
        <time>2017-11-26T12:09:57Z</time>
      </trkpt>
      <trkpt lat="48.54188" lon="1.98675">
        <ele>150.42</ele>
        <time>2017-11-26T12:10:03Z</time>
      </trkpt>
      <trkpt lat="48.54193" lon="1.98671">
        <ele>151.1</ele>
        <time>2017-11-26T12:10:13Z</time>
      </trkpt>
      <trkpt lat="48.54197" lon="1.98669">
        <ele>151.79</ele>
        <time>2017-11-26T12:10:21Z</time>
      </trkpt>
      <trkpt lat="48.54203" lon="1.98671">
        <ele>152.71</ele>
        <time>2017-11-26T12:10:31Z</time>
      </trkpt>
      <trkpt lat="48.54209" lon="1.98669">
        <ele>153.66</ele>
        <time>2017-11-26T12:10:37Z</time>
      </trkpt>
      <trkpt lat="48.54214" lon="1.98667">
        <ele>154.44</ele>
        <time>2017-11-26T12:10:43Z</time>
      </trkpt>
      <trkpt lat="48.54219" lon="1.98668">
        <ele>155.24</ele>
        <time>2017-11-26T12:10:53Z</time>
      </trkpt>
      <trkpt lat="48.54225" lon="1.98667">
        <ele>156.09</ele>
        <time>2017-11-26T12:11:03Z</time>
      </trkpt>
      <trkpt lat="48.54231" lon="1.98672">
        <ele>157.15</ele>
        <time>2017-11-26T12:11:09Z</time>
      </trkpt>
      <trkpt lat="48.54239" lon="1.98676">
        <ele>158.33</ele>
        <time>2017-11-26T12:11:13Z</time>
      </trkpt>
      <trkpt lat="48.54245" lon="1.98681">
        <ele>159.46</ele>
        <time>2017-11-26T12:11:17Z</time>
      </trkpt>
      <trkpt lat="48.54251" lon="1.98684">
        <ele>160.32</ele>
        <time>2017-11-26T12:11:21Z</time>
      </trkpt>
      <trkpt lat="48.54257" lon="1.98688">
        <ele>160.74</ele>
        <time>2017-11-26T12:11:25Z</time>
      </trkpt>
      <trkpt lat="48.54261" lon="1.98692">
        <ele>161.11</ele>
        <time>2017-11-26T12:11:29Z</time>
      </trkpt>
      <trkpt lat="48.54264" lon="1.98697">
        <ele>161.4</ele>
        <time>2017-11-26T12:11:33Z</time>
      </trkpt>
      <trkpt lat="48.54269" lon="1.987">
        <ele>161.77</ele>
        <time>2017-11-26T12:11:37Z</time>
      </trkpt>
      <trkpt lat="48.54273" lon="1.98703">
        <ele>162.12</ele>
        <time>2017-11-26T12:11:41Z</time>
      </trkpt>
      <trkpt lat="48.54279" lon="1.98707">
        <ele>162.58</ele>
        <time>2017-11-26T12:11:45Z</time>
      </trkpt>
      <trkpt lat="48.54283" lon="1.98711">
        <ele>162.93</ele>
        <time>2017-11-26T12:11:47Z</time>
      </trkpt>
      <trkpt lat="48.54287" lon="1.98716">
        <ele>163.23</ele>
        <time>2017-11-26T12:11:49Z</time>
      </trkpt>
      <trkpt lat="48.54291" lon="1.98724">
        <ele>163.67</ele>
        <time>2017-11-26T12:11:53Z</time>
      </trkpt>
      <trkpt lat="48.54289" lon="1.98749">
        <ele>163.83</ele>
        <time>2017-11-26T12:12:13Z</time>
      </trkpt>
      <trkpt lat="48.54294" lon="1.98756">
        <ele>164.25</ele>
        <time>2017-11-26T12:12:18Z</time>
      </trkpt>
      <trkpt lat="48.54289" lon="1.98759">
        <ele>163.99</ele>
        <time>2017-11-26T12:12:48Z</time>
      </trkpt>
      <trkpt lat="48.54284" lon="1.98764">
        <ele>163.68</ele>
        <time>2017-11-26T12:12:52Z</time>
      </trkpt>
      <trkpt lat="48.54281" lon="1.98772">
        <ele>163.6</ele>
        <time>2017-11-26T12:12:54Z</time>
      </trkpt>
      <trkpt lat="48.54277" lon="1.98784">
        <ele>163.5</ele>
        <time>2017-11-26T12:12:56Z</time>
      </trkpt>
      <trkpt lat="48.54272" lon="1.98799">
        <ele>163.3</ele>
        <time>2017-11-26T12:12:58Z</time>
      </trkpt>
      <trkpt lat="48.54267" lon="1.98814">
        <ele>163.16</ele>
        <time>2017-11-26T12:13:00Z</time>
      </trkpt>
      <trkpt lat="48.54263" lon="1.98821">
        <ele>162.9</ele>
        <time>2017-11-26T12:13:02Z</time>
      </trkpt>
      <trkpt lat="48.54259" lon="1.98829">
        <ele>162.68</ele>
        <time>2017-11-26T12:13:04Z</time>
      </trkpt>
      <trkpt lat="48.54255" lon="1.98837">
        <ele>162.56</ele>
        <time>2017-11-26T12:13:06Z</time>
      </trkpt>
      <trkpt lat="48.54246" lon="1.98847">
        <ele>161.98</ele>
        <time>2017-11-26T12:13:08Z</time>
      </trkpt>
      <trkpt lat="48.54231" lon="1.98861">
        <ele>160.41</ele>
        <time>2017-11-26T12:13:16Z</time>
      </trkpt>
      <trkpt lat="48.54224" lon="1.98862">
        <ele>159.39</ele>
        <time>2017-11-26T12:13:18Z</time>
      </trkpt>
      <trkpt lat="48.54218" lon="1.98874">
        <ele>159.21</ele>
        <time>2017-11-26T12:13:24Z</time>
      </trkpt>
      <trkpt lat="48.54215" lon="1.98879">
        <ele>158.91</ele>
        <time>2017-11-26T12:13:26Z</time>
      </trkpt>
      <trkpt lat="48.54211" lon="1.98884">
        <ele>158.61</ele>
        <time>2017-11-26T12:13:30Z</time>
      </trkpt>
      <trkpt lat="48.54206" lon="1.98887">
        <ele>158.14</ele>
        <time>2017-11-26T12:13:36Z</time>
      </trkpt>
      <trkpt lat="48.54201" lon="1.98895">
        <ele>157.76</ele>
        <time>2017-11-26T12:13:40Z</time>
      </trkpt>
      <trkpt lat="48.54196" lon="1.98902">
        <ele>157.41</ele>
        <time>2017-11-26T12:13:42Z</time>
      </trkpt>
      <trkpt lat="48.5419" lon="1.98908">
        <ele>156.92</ele>
        <time>2017-11-26T12:13:44Z</time>
      </trkpt>
      <trkpt lat="48.54184" lon="1.98911">
        <ele>156.16</ele>
        <time>2017-11-26T12:13:46Z</time>
      </trkpt>
      <trkpt lat="48.54179" lon="1.98911">
        <ele>155.47</ele>
        <time>2017-11-26T12:13:48Z</time>
      </trkpt>
      <trkpt lat="48.54175" lon="1.98914">
        <ele>155.02</ele>
        <time>2017-11-26T12:13:50Z</time>
      </trkpt>
      <trkpt lat="48.5417" lon="1.98916">
        <ele>154.41</ele>
        <time>2017-11-26T12:13:52Z</time>
      </trkpt>
      <trkpt lat="48.54164" lon="1.98916">
        <ele>153.65</ele>
        <time>2017-11-26T12:13:54Z</time>
      </trkpt>
      <trkpt lat="48.54155" lon="1.98913">
        <ele>152.5</ele>
        <time>2017-11-26T12:13:56Z</time>
      </trkpt>
      <trkpt lat="48.54144" lon="1.9891">
        <ele>151.07</ele>
        <time>2017-11-26T12:13:58Z</time>
      </trkpt>
      <trkpt lat="48.54123" lon="1.98909">
        <ele>148.67</ele>
        <time>2017-11-26T12:14:00Z</time>
      </trkpt>
      <trkpt lat="48.54117" lon="1.98908">
        <ele>147.89</ele>
        <time>2017-11-26T12:14:02Z</time>
      </trkpt>
      <trkpt lat="48.54111" lon="1.98912">
        <ele>147.61</ele>
        <time>2017-11-26T12:14:04Z</time>
      </trkpt>
      <trkpt lat="48.54106" lon="1.98917">
        <ele>147.43</ele>
        <time>2017-11-26T12:14:06Z</time>
      </trkpt>
      <trkpt lat="48.54097" lon="1.98921">
        <ele>146.63</ele>
        <time>2017-11-26T12:14:10Z</time>
      </trkpt>
      <trkpt lat="48.54087" lon="1.98931">
        <ele>145.89</ele>
        <time>2017-11-26T12:14:12Z</time>
      </trkpt>
      <trkpt lat="48.54078" lon="1.98942">
        <ele>145.16</ele>
        <time>2017-11-26T12:14:14Z</time>
      </trkpt>
      <trkpt lat="48.54075" lon="1.98954">
        <ele>145.15</ele>
        <time>2017-11-26T12:14:16Z</time>
      </trkpt>
      <trkpt lat="48.54071" lon="1.98964">
        <ele>144.94</ele>
        <time>2017-11-26T12:14:18Z</time>
      </trkpt>
      <trkpt lat="48.54069" lon="1.98972">
        <ele>144.96</ele>
        <time>2017-11-26T12:14:20Z</time>
      </trkpt>
      <trkpt lat="48.54063" lon="1.98977">
        <ele>144.31</ele>
        <time>2017-11-26T12:14:22Z</time>
      </trkpt>
      <trkpt lat="48.54064" lon="1.98989">
        <ele>144.74</ele>
        <time>2017-11-26T12:14:24Z</time>
      </trkpt>
      <trkpt lat="48.54069" lon="1.99004">
        <ele>145.92</ele>
        <time>2017-11-26T12:14:26Z</time>
      </trkpt>
      <trkpt lat="48.54075" lon="1.99015">
        <ele>146.76</ele>
        <time>2017-11-26T12:14:28Z</time>
      </trkpt>
      <trkpt lat="48.54078" lon="1.99021">
        <ele>147.1</ele>
        <time>2017-11-26T12:14:30Z</time>
      </trkpt>
      <trkpt lat="48.54078" lon="1.99028">
        <ele>147.04</ele>
        <time>2017-11-26T12:14:34Z</time>
      </trkpt>
      <trkpt lat="48.54075" lon="1.99032">
        <ele>146.52</ele>
        <time>2017-11-26T12:14:56Z</time>
      </trkpt>
      <trkpt lat="48.5407" lon="1.99036">
        <ele>145.96</ele>
        <time>2017-11-26T12:15:36Z</time>
      </trkpt>
      <trkpt lat="48.54066" lon="1.9904">
        <ele>145.48</ele>
        <time>2017-11-26T12:15:40Z</time>
      </trkpt>
      <trkpt lat="48.54068" lon="1.99033">
        <ele>145.71</ele>
        <time>2017-11-26T12:15:42Z</time>
      </trkpt>
      <trkpt lat="48.54065" lon="1.99038">
        <ele>145.32</ele>
        <time>2017-11-26T12:16:12Z</time>
      </trkpt>
      <trkpt lat="48.54062" lon="1.99044">
        <ele>144.98</ele>
        <time>2017-11-26T12:18:21Z</time>
      </trkpt>
      <trkpt lat="48.5406" lon="1.99051">
        <ele>144.66</ele>
        <time>2017-11-26T12:19:47Z</time>
      </trkpt>
      <trkpt lat="48.54055" lon="1.99054">
        <ele>144.12</ele>
        <time>2017-11-26T12:19:49Z</time>
      </trkpt>
      <trkpt lat="48.54047" lon="1.99059">
        <ele>143.28</ele>
        <time>2017-11-26T12:19:53Z</time>
      </trkpt>
      <trkpt lat="48.54042" lon="1.99062">
        <ele>142.81</ele>
        <time>2017-11-26T12:19:55Z</time>
      </trkpt>
      <trkpt lat="48.54038" lon="1.99067">
        <ele>142.37</ele>
        <time>2017-11-26T12:19:57Z</time>
      </trkpt>
      <trkpt lat="48.54031" lon="1.99077">
        <ele>141.83</ele>
        <time>2017-11-26T12:19:59Z</time>
      </trkpt>
      <trkpt lat="48.54025" lon="1.99086">
        <ele>141.51</ele>
        <time>2017-11-26T12:20:01Z</time>
      </trkpt>
      <trkpt lat="48.54018" lon="1.99096">
        <ele>141.45</ele>
        <time>2017-11-26T12:20:03Z</time>
      </trkpt>
      <trkpt lat="48.54012" lon="1.9911">
        <ele>141.8</ele>
        <time>2017-11-26T12:20:05Z</time>
      </trkpt>
      <trkpt lat="48.54002" lon="1.99123">
        <ele>141.95</ele>
        <time>2017-11-26T12:20:07Z</time>
      </trkpt>
      <trkpt lat="48.53988" lon="1.9914">
        <ele>142.36</ele>
        <time>2017-11-26T12:20:09Z</time>
      </trkpt>
      <trkpt lat="48.53979" lon="1.99139">
        <ele>141.82</ele>
        <time>2017-11-26T12:20:11Z</time>
      </trkpt>
      <trkpt lat="48.53975" lon="1.99134">
        <ele>141.31</ele>
        <time>2017-11-26T12:20:13Z</time>
      </trkpt>
      <trkpt lat="48.53967" lon="1.99138">
        <ele>141.1</ele>
        <time>2017-11-26T12:20:17Z</time>
      </trkpt>
      <trkpt lat="48.53962" lon="1.9914">
        <ele>140.97</ele>
        <time>2017-11-26T12:20:19Z</time>
      </trkpt>
      <trkpt lat="48.53958" lon="1.9915">
        <ele>141.37</ele>
        <time>2017-11-26T12:20:21Z</time>
      </trkpt>
      <trkpt lat="48.5395" lon="1.99151">
        <ele>140.99</ele>
        <time>2017-11-26T12:20:23Z</time>
      </trkpt>
      <trkpt lat="48.53943" lon="1.99155">
        <ele>140.83</ele>
        <time>2017-11-26T12:20:25Z</time>
      </trkpt>
      <trkpt lat="48.53936" lon="1.99164">
        <ele>141.04</ele>
        <time>2017-11-26T12:20:27Z</time>
      </trkpt>
      <trkpt lat="48.53926" lon="1.99169">
        <ele>140.65</ele>
        <time>2017-11-26T12:20:31Z</time>
      </trkpt>
      <trkpt lat="48.53919" lon="1.99174">
        <ele>140.4</ele>
        <time>2017-11-26T12:20:33Z</time>
      </trkpt>
      <trkpt lat="48.53916" lon="1.99182">
        <ele>140.5</ele>
        <time>2017-11-26T12:20:35Z</time>
      </trkpt>
      <trkpt lat="48.53911" lon="1.99186">
        <ele>140.34</ele>
        <time>2017-11-26T12:20:37Z</time>
      </trkpt>
      <trkpt lat="48.53907" lon="1.99194">
        <ele>140.32</ele>
        <time>2017-11-26T12:20:39Z</time>
      </trkpt>
      <trkpt lat="48.53905" lon="1.99201">
        <ele>140.42</ele>
        <time>2017-11-26T12:20:41Z</time>
      </trkpt>
      <trkpt lat="48.539" lon="1.99215">
        <ele>140.54</ele>
        <time>2017-11-26T12:20:45Z</time>
      </trkpt>
      <trkpt lat="48.53895" lon="1.9922">
        <ele>140.34</ele>
        <time>2017-11-26T12:20:49Z</time>
      </trkpt>
      <trkpt lat="48.53892" lon="1.99228">
        <ele>140.42</ele>
        <time>2017-11-26T12:20:51Z</time>
      </trkpt>
      <trkpt lat="48.53887" lon="1.99231">
        <ele>140.18</ele>
        <time>2017-11-26T12:20:53Z</time>
      </trkpt>
      <trkpt lat="48.5388" lon="1.99233">
        <ele>139.75</ele>
        <time>2017-11-26T12:20:57Z</time>
      </trkpt>
      <trkpt lat="48.5387" lon="1.99224">
        <ele>138.69</ele>
        <time>2017-11-26T12:20:59Z</time>
      </trkpt>
      <trkpt lat="48.53842" lon="1.99222">
        <ele>136.59</ele>
        <time>2017-11-26T12:21:01Z</time>
      </trkpt>
      <trkpt lat="48.53828" lon="1.99225">
        <ele>135.83</ele>
        <time>2017-11-26T12:21:03Z</time>
      </trkpt>
      <trkpt lat="48.53804" lon="1.99224">
        <ele>134.54</ele>
        <time>2017-11-26T12:21:05Z</time>
      </trkpt>
      <trkpt lat="48.53789" lon="1.99226">
        <ele>133.78</ele>
        <time>2017-11-26T12:21:07Z</time>
      </trkpt>
      <trkpt lat="48.53766" lon="1.9922">
        <ele>132.49</ele>
        <time>2017-11-26T12:21:09Z</time>
      </trkpt>
      <trkpt lat="48.5375" lon="1.99215">
        <ele>131.57</ele>
        <time>2017-11-26T12:21:11Z</time>
      </trkpt>
      <trkpt lat="48.53736" lon="1.99218">
        <ele>130.95</ele>
        <time>2017-11-26T12:21:13Z</time>
      </trkpt>
      <trkpt lat="48.53715" lon="1.99211">
        <ele>129.86</ele>
        <time>2017-11-26T12:21:15Z</time>
      </trkpt>
      <trkpt lat="48.53699" lon="1.99212">
        <ele>129.09</ele>
        <time>2017-11-26T12:21:17Z</time>
      </trkpt>
      <trkpt lat="48.53689" lon="1.99206">
        <ele>128.57</ele>
        <time>2017-11-26T12:21:19Z</time>
      </trkpt>
      <trkpt lat="48.53679" lon="1.99205">
        <ele>128.03</ele>
        <time>2017-11-26T12:21:21Z</time>
      </trkpt>
      <trkpt lat="48.53666" lon="1.99201">
        <ele>127.36</ele>
        <time>2017-11-26T12:21:27Z</time>
      </trkpt>
      <trkpt lat="48.53669" lon="1.99192">
        <ele>127.41</ele>
        <time>2017-11-26T12:21:31Z</time>
      </trkpt>
      <trkpt lat="48.53674" lon="1.99185">
        <ele>127.56</ele>
        <time>2017-11-26T12:21:33Z</time>
      </trkpt>
      <trkpt lat="48.53682" lon="1.99176">
        <ele>127.85</ele>
        <time>2017-11-26T12:21:35Z</time>
      </trkpt>
      <trkpt lat="48.53688" lon="1.99162">
        <ele>127.89</ele>
        <time>2017-11-26T12:21:37Z</time>
      </trkpt>
      <trkpt lat="48.53691" lon="1.99149">
        <ele>127.69</ele>
        <time>2017-11-26T12:21:39Z</time>
      </trkpt>
      <trkpt lat="48.537" lon="1.99123">
        <ele>127.31</ele>
        <time>2017-11-26T12:21:41Z</time>
      </trkpt>
      <trkpt lat="48.53706" lon="1.99105">
        <ele>127.07</ele>
        <time>2017-11-26T12:21:43Z</time>
      </trkpt>
      <trkpt lat="48.53712" lon="1.99088">
        <ele>126.78</ele>
        <time>2017-11-26T12:21:45Z</time>
      </trkpt>
      <trkpt lat="48.53716" lon="1.99069">
        <ele>125.47</ele>
        <time>2017-11-26T12:21:47Z</time>
      </trkpt>
      <trkpt lat="48.53722" lon="1.99055">
        <ele>124.44</ele>
        <time>2017-11-26T12:21:49Z</time>
      </trkpt>
      <trkpt lat="48.53719" lon="1.99044">
        <ele>123.25</ele>
        <time>2017-11-26T12:21:51Z</time>
      </trkpt>
      <trkpt lat="48.53714" lon="1.99036">
        <ele>122.26</ele>
        <time>2017-11-26T12:21:53Z</time>
      </trkpt>
      <trkpt lat="48.5371" lon="1.99032">
        <ele>121.66</ele>
        <time>2017-11-26T12:21:55Z</time>
      </trkpt>
      <trkpt lat="48.53705" lon="1.9903">
        <ele>121.25</ele>
        <time>2017-11-26T12:21:57Z</time>
      </trkpt>
      <trkpt lat="48.53697" lon="1.99022">
        <ele>119.98</ele>
        <time>2017-11-26T12:21:59Z</time>
      </trkpt>
      <trkpt lat="48.5369" lon="1.99015">
        <ele>118.87</ele>
        <time>2017-11-26T12:22:01Z</time>
      </trkpt>
      <trkpt lat="48.53684" lon="1.99007">
        <ele>117.73</ele>
        <time>2017-11-26T12:22:03Z</time>
      </trkpt>
      <trkpt lat="48.5367" lon="1.98999">
        <ele>116.16</ele>
        <time>2017-11-26T12:22:05Z</time>
      </trkpt>
      <trkpt lat="48.53653" lon="1.98995">
        <ele>115.79</ele>
        <time>2017-11-26T12:22:07Z</time>
      </trkpt>
      <trkpt lat="48.53643" lon="1.98996">
        <ele>115.69</ele>
        <time>2017-11-26T12:22:09Z</time>
      </trkpt>
      <trkpt lat="48.53634" lon="1.98991">
        <ele>115.58</ele>
        <time>2017-11-26T12:22:11Z</time>
      </trkpt>
      <trkpt lat="48.53621" lon="1.98988">
        <ele>115.46</ele>
        <time>2017-11-26T12:22:13Z</time>
      </trkpt>
      <trkpt lat="48.5361" lon="1.98986">
        <ele>115.38</ele>
        <time>2017-11-26T12:22:15Z</time>
      </trkpt>
      <trkpt lat="48.536" lon="1.98984">
        <ele>115.31</ele>
        <time>2017-11-26T12:22:17Z</time>
      </trkpt>
      <trkpt lat="48.53588" lon="1.98989">
        <ele>115.17</ele>
        <time>2017-11-26T12:22:19Z</time>
      </trkpt>
      <trkpt lat="48.53575" lon="1.98995">
        <ele>114.88</ele>
        <time>2017-11-26T12:22:21Z</time>
      </trkpt>
      <trkpt lat="48.53563" lon="1.98993">
        <ele>114.63</ele>
        <time>2017-11-26T12:22:23Z</time>
      </trkpt>
      <trkpt lat="48.5355" lon="1.98994">
        <ele>114.28</ele>
        <time>2017-11-26T12:22:25Z</time>
      </trkpt>
      <trkpt lat="48.53537" lon="1.99013">
        <ele>114.31</ele>
        <time>2017-11-26T12:22:27Z</time>
      </trkpt>
      <trkpt lat="48.53531" lon="1.99017">
        <ele>114.2</ele>
        <time>2017-11-26T12:22:29Z</time>
      </trkpt>
      <trkpt lat="48.53525" lon="1.99024">
        <ele>114.11</ele>
        <time>2017-11-26T12:22:31Z</time>
      </trkpt>
      <trkpt lat="48.5351" lon="1.99022">
        <ele>113.43</ele>
        <time>2017-11-26T12:22:33Z</time>
      </trkpt>
      <trkpt lat="48.53506" lon="1.99029">
        <ele>113.32</ele>
        <time>2017-11-26T12:22:35Z</time>
      </trkpt>
      <trkpt lat="48.53509" lon="1.98969">
        <ele>113.92</ele>
        <time>2017-11-26T12:22:49Z</time>
      </trkpt>
      <trkpt lat="48.5351" lon="1.98954">
        <ele>114.27</ele>
        <time>2017-11-26T12:22:52Z</time>
      </trkpt>
      <trkpt lat="48.53503" lon="1.98943">
        <ele>114.42</ele>
        <time>2017-11-26T12:22:54Z</time>
      </trkpt>
      <trkpt lat="48.53502" lon="1.98935">
        <ele>114.58</ele>
        <time>2017-11-26T12:22:56Z</time>
      </trkpt>
      <trkpt lat="48.53494" lon="1.98928">
        <ele>114.3</ele>
        <time>2017-11-26T12:22:58Z</time>
      </trkpt>
      <trkpt lat="48.5349" lon="1.98923">
        <ele>114.11</ele>
        <time>2017-11-26T12:23:00Z</time>
      </trkpt>
      <trkpt lat="48.53491" lon="1.98911">
        <ele>114.59</ele>
        <time>2017-11-26T12:23:04Z</time>
      </trkpt>
      <trkpt lat="48.5349" lon="1.98903">
        <ele>114.76</ele>
        <time>2017-11-26T12:23:06Z</time>
      </trkpt>
      <trkpt lat="48.53484" lon="1.98895">
        <ele>114.68</ele>
        <time>2017-11-26T12:23:08Z</time>
      </trkpt>
      <trkpt lat="48.53482" lon="1.98888">
        <ele>114.81</ele>
        <time>2017-11-26T12:23:10Z</time>
      </trkpt>
      <trkpt lat="48.53483" lon="1.98876">
        <ele>115.33</ele>
        <time>2017-11-26T12:23:14Z</time>
      </trkpt>
      <trkpt lat="48.53485" lon="1.98867">
        <ele>115.84</ele>
        <time>2017-11-26T12:23:18Z</time>
      </trkpt>
      <trkpt lat="48.53462" lon="1.98846">
        <ele>115.21</ele>
        <time>2017-11-26T12:23:20Z</time>
      </trkpt>
      <trkpt lat="48.53458" lon="1.9885">
        <ele>114.78</ele>
        <time>2017-11-26T12:23:22Z</time>
      </trkpt>
      <trkpt lat="48.53452" lon="1.98849">
        <ele>114.46</ele>
        <time>2017-11-26T12:23:24Z</time>
      </trkpt>
      <trkpt lat="48.53446" lon="1.98845">
        <ele>114.22</ele>
        <time>2017-11-26T12:23:26Z</time>
      </trkpt>
      <trkpt lat="48.53441" lon="1.98836">
        <ele>114.34</ele>
        <time>2017-11-26T12:23:28Z</time>
      </trkpt>
      <trkpt lat="48.53437" lon="1.98825">
        <ele>114.73</ele>
        <time>2017-11-26T12:23:30Z</time>
      </trkpt>
      <trkpt lat="48.53433" lon="1.98812">
        <ele>115.24</ele>
        <time>2017-11-26T12:23:32Z</time>
      </trkpt>
      <trkpt lat="48.53431" lon="1.98802">
        <ele>115.75</ele>
        <time>2017-11-26T12:23:34Z</time>
      </trkpt>
      <trkpt lat="48.5343" lon="1.98792">
        <ele>116.29</ele>
        <time>2017-11-26T12:23:36Z</time>
      </trkpt>
      <trkpt lat="48.53429" lon="1.98781">
        <ele>116.88</ele>
        <time>2017-11-26T12:23:38Z</time>
      </trkpt>
      <trkpt lat="48.53427" lon="1.98769">
        <ele>117.45</ele>
        <time>2017-11-26T12:23:40Z</time>
      </trkpt>
      <trkpt lat="48.53427" lon="1.98759">
        <ele>118.03</ele>
        <time>2017-11-26T12:23:42Z</time>
      </trkpt>
      <trkpt lat="48.53424" lon="1.98748">
        <ele>118.49</ele>
        <time>2017-11-26T12:23:44Z</time>
      </trkpt>
      <trkpt lat="48.53419" lon="1.98737">
        <ele>118.47</ele>
        <time>2017-11-26T12:23:46Z</time>
      </trkpt>
      <trkpt lat="48.53414" lon="1.98725">
        <ele>118.38</ele>
        <time>2017-11-26T12:23:48Z</time>
      </trkpt>
      <trkpt lat="48.53411" lon="1.98715">
        <ele>118.37</ele>
        <time>2017-11-26T12:23:50Z</time>
      </trkpt>
      <trkpt lat="48.53411" lon="1.98706">
        <ele>118.5</ele>
        <time>2017-11-26T12:23:52Z</time>
      </trkpt>
      <trkpt lat="48.53409" lon="1.98697">
        <ele>118.54</ele>
        <time>2017-11-26T12:23:54Z</time>
      </trkpt>
      <trkpt lat="48.53406" lon="1.98689">
        <ele>118.46</ele>
        <time>2017-11-26T12:23:56Z</time>
      </trkpt>
      <trkpt lat="48.53406" lon="1.9868">
        <ele>118.67</ele>
        <time>2017-11-26T12:23:58Z</time>
      </trkpt>
      <trkpt lat="48.53408" lon="1.98671">
        <ele>119.08</ele>
        <time>2017-11-26T12:24:00Z</time>
      </trkpt>
      <trkpt lat="48.5341" lon="1.98663">
        <ele>119.4</ele>
        <time>2017-11-26T12:24:02Z</time>
      </trkpt>
      <trkpt lat="48.53411" lon="1.98654">
        <ele>119.59</ele>
        <time>2017-11-26T12:24:04Z</time>
      </trkpt>
      <trkpt lat="48.53412" lon="1.98646">
        <ele>119.82</ele>
        <time>2017-11-26T12:24:06Z</time>
      </trkpt>
      <trkpt lat="48.53414" lon="1.9864">
        <ele>120.08</ele>
        <time>2017-11-26T12:24:08Z</time>
      </trkpt>
      <trkpt lat="48.53411" lon="1.98631">
        <ele>119.97</ele>
        <time>2017-11-26T12:24:10Z</time>
      </trkpt>
      <trkpt lat="48.53407" lon="1.98624">
        <ele>119.74</ele>
        <time>2017-11-26T12:24:12Z</time>
      </trkpt>
      <trkpt lat="48.53404" lon="1.98617">
        <ele>119.57</ele>
        <time>2017-11-26T12:24:14Z</time>
      </trkpt>
      <trkpt lat="48.53399" lon="1.98609">
        <ele>119.28</ele>
        <time>2017-11-26T12:24:18Z</time>
      </trkpt>
      <trkpt lat="48.53395" lon="1.98602">
        <ele>119.11</ele>
        <time>2017-11-26T12:24:22Z</time>
      </trkpt>
      <trkpt lat="48.53392" lon="1.9859">
        <ele>119.08</ele>
        <time>2017-11-26T12:24:26Z</time>
      </trkpt>
      <trkpt lat="48.53394" lon="1.98576">
        <ele>119.57</ele>
        <time>2017-11-26T12:24:30Z</time>
      </trkpt>
      <trkpt lat="48.53396" lon="1.98568">
        <ele>120.01</ele>
        <time>2017-11-26T12:24:32Z</time>
      </trkpt>
      <trkpt lat="48.53398" lon="1.98559">
        <ele>120.35</ele>
        <time>2017-11-26T12:24:34Z</time>
      </trkpt>
      <trkpt lat="48.53398" lon="1.98552">
        <ele>120.59</ele>
        <time>2017-11-26T12:24:36Z</time>
      </trkpt>
      <trkpt lat="48.534" lon="1.98538">
        <ele>121.09</ele>
        <time>2017-11-26T12:24:40Z</time>
      </trkpt>
      <trkpt lat="48.53403" lon="1.98528">
        <ele>121.53</ele>
        <time>2017-11-26T12:24:44Z</time>
      </trkpt>
      <trkpt lat="48.53403" lon="1.98517">
        <ele>121.89</ele>
        <time>2017-11-26T12:24:48Z</time>
      </trkpt>
      <trkpt lat="48.53401" lon="1.98504">
        <ele>122.12</ele>
        <time>2017-11-26T12:24:52Z</time>
      </trkpt>
      <trkpt lat="48.53402" lon="1.98498">
        <ele>122.37</ele>
        <time>2017-11-26T12:24:54Z</time>
      </trkpt>
      <trkpt lat="48.53401" lon="1.9849">
        <ele>122.5</ele>
        <time>2017-11-26T12:24:56Z</time>
      </trkpt>
      <trkpt lat="48.53397" lon="1.98483">
        <ele>122.51</ele>
        <time>2017-11-26T12:24:58Z</time>
      </trkpt>
      <trkpt lat="48.53392" lon="1.98476">
        <ele>122.51</ele>
        <time>2017-11-26T12:25:00Z</time>
      </trkpt>
      <trkpt lat="48.53389" lon="1.9847">
        <ele>122.5</ele>
        <time>2017-11-26T12:25:02Z</time>
      </trkpt>
      <trkpt lat="48.53382" lon="1.98464">
        <ele>122.39</ele>
        <time>2017-11-26T12:25:06Z</time>
      </trkpt>
      <trkpt lat="48.5338" lon="1.98457">
        <ele>122.47</ele>
        <time>2017-11-26T12:25:10Z</time>
      </trkpt>
      <trkpt lat="48.53381" lon="1.98451">
        <ele>122.72</ele>
        <time>2017-11-26T12:25:14Z</time>
      </trkpt>
      <trkpt lat="48.53381" lon="1.98443">
        <ele>122.95</ele>
        <time>2017-11-26T12:25:18Z</time>
      </trkpt>
      <trkpt lat="48.5338" lon="1.98436">
        <ele>123.11</ele>
        <time>2017-11-26T12:25:22Z</time>
      </trkpt>
      <trkpt lat="48.53383" lon="1.98428">
        <ele>123.46</ele>
        <time>2017-11-26T12:25:26Z</time>
      </trkpt>
      <trkpt lat="48.53388" lon="1.98423">
        <ele>123.79</ele>
        <time>2017-11-26T12:25:30Z</time>
      </trkpt>
      <trkpt lat="48.53392" lon="1.98417">
        <ele>124.1</ele>
        <time>2017-11-26T12:25:34Z</time>
      </trkpt>
      <trkpt lat="48.53395" lon="1.98411">
        <ele>124.17</ele>
        <time>2017-11-26T12:25:38Z</time>
      </trkpt>
      <trkpt lat="48.534" lon="1.98404">
        <ele>124.28</ele>
        <time>2017-11-26T12:25:42Z</time>
      </trkpt>
      <trkpt lat="48.53403" lon="1.98397">
        <ele>124.27</ele>
        <time>2017-11-26T12:25:46Z</time>
      </trkpt>
      <trkpt lat="48.53408" lon="1.9839">
        <ele>124.25</ele>
        <time>2017-11-26T12:25:50Z</time>
      </trkpt>
      <trkpt lat="48.53416" lon="1.98382">
        <ele>124.17</ele>
        <time>2017-11-26T12:25:54Z</time>
      </trkpt>
      <trkpt lat="48.5342" lon="1.98378">
        <ele>124.27</ele>
        <time>2017-11-26T12:25:56Z</time>
      </trkpt>
      <trkpt lat="48.53425" lon="1.9837">
        <ele>124.41</ele>
        <time>2017-11-26T12:26:00Z</time>
      </trkpt>
      <trkpt lat="48.53431" lon="1.98362">
        <ele>124.69</ele>
        <time>2017-11-26T12:26:04Z</time>
      </trkpt>
      <trkpt lat="48.53437" lon="1.98354">
        <ele>125.02</ele>
        <time>2017-11-26T12:26:08Z</time>
      </trkpt>
      <trkpt lat="48.53444" lon="1.98346">
        <ele>125.44</ele>
        <time>2017-11-26T12:26:12Z</time>
      </trkpt>
      <trkpt lat="48.53449" lon="1.98341">
        <ele>125.81</ele>
        <time>2017-11-26T12:26:14Z</time>
      </trkpt>
      <trkpt lat="48.53457" lon="1.98334">
        <ele>126.39</ele>
        <time>2017-11-26T12:26:16Z</time>
      </trkpt>
      <trkpt lat="48.53463" lon="1.98328">
        <ele>126.94</ele>
        <time>2017-11-26T12:26:18Z</time>
      </trkpt>
      <trkpt lat="48.5347" lon="1.98322">
        <ele>127.43</ele>
        <time>2017-11-26T12:26:20Z</time>
      </trkpt>
      <trkpt lat="48.53475" lon="1.98316">
        <ele>127.77</ele>
        <time>2017-11-26T12:26:22Z</time>
      </trkpt>
      <trkpt lat="48.5348" lon="1.98311">
        <ele>128.12</ele>
        <time>2017-11-26T12:26:24Z</time>
      </trkpt>
      <trkpt lat="48.53485" lon="1.98306">
        <ele>128.37</ele>
        <time>2017-11-26T12:26:26Z</time>
      </trkpt>
      <trkpt lat="48.53489" lon="1.98302">
        <ele>128.55</ele>
        <time>2017-11-26T12:26:28Z</time>
      </trkpt>
      <trkpt lat="48.53493" lon="1.98297">
        <ele>128.75</ele>
        <time>2017-11-26T12:26:30Z</time>
      </trkpt>
      <trkpt lat="48.53498" lon="1.98294">
        <ele>128.93</ele>
        <time>2017-11-26T12:26:32Z</time>
      </trkpt>
      <trkpt lat="48.53502" lon="1.9829">
        <ele>129.05</ele>
        <time>2017-11-26T12:26:34Z</time>
      </trkpt>
      <trkpt lat="48.5351" lon="1.98284">
        <ele>129.27</ele>
        <time>2017-11-26T12:26:38Z</time>
      </trkpt>
      <trkpt lat="48.53514" lon="1.98281">
        <ele>129.38</ele>
        <time>2017-11-26T12:26:40Z</time>
      </trkpt>
      <trkpt lat="48.53517" lon="1.98275">
        <ele>129.42</ele>
        <time>2017-11-26T12:26:44Z</time>
      </trkpt>
      <trkpt lat="48.5352" lon="1.98271">
        <ele>129.54</ele>
        <time>2017-11-26T12:26:46Z</time>
      </trkpt>
      <trkpt lat="48.53526" lon="1.98265">
        <ele>129.75</ele>
        <time>2017-11-26T12:26:50Z</time>
      </trkpt>
      <trkpt lat="48.53532" lon="1.98261">
        <ele>130.01</ele>
        <time>2017-11-26T12:26:54Z</time>
      </trkpt>
      <trkpt lat="48.53539" lon="1.98256">
        <ele>130.39</ele>
        <time>2017-11-26T12:26:58Z</time>
      </trkpt>
      <trkpt lat="48.53544" lon="1.98252">
        <ele>130.62</ele>
        <time>2017-11-26T12:27:00Z</time>
      </trkpt>
      <trkpt lat="48.53548" lon="1.98248">
        <ele>130.88</ele>
        <time>2017-11-26T12:27:02Z</time>
      </trkpt>
      <trkpt lat="48.53552" lon="1.98243">
        <ele>131.17</ele>
        <time>2017-11-26T12:27:04Z</time>
      </trkpt>
      <trkpt lat="48.53559" lon="1.98236">
        <ele>131.55</ele>
        <time>2017-11-26T12:27:06Z</time>
      </trkpt>
      <trkpt lat="48.53565" lon="1.98228">
        <ele>131.86</ele>
        <time>2017-11-26T12:27:08Z</time>
      </trkpt>
      <trkpt lat="48.5357" lon="1.98222">
        <ele>132.08</ele>
        <time>2017-11-26T12:27:10Z</time>
      </trkpt>
      <trkpt lat="48.53576" lon="1.98216">
        <ele>132.3</ele>
        <time>2017-11-26T12:27:14Z</time>
      </trkpt>
      <trkpt lat="48.53581" lon="1.98212">
        <ele>132.47</ele>
        <time>2017-11-26T12:27:18Z</time>
      </trkpt>
      <trkpt lat="48.53586" lon="1.9821">
        <ele>132.79</ele>
        <time>2017-11-26T12:27:22Z</time>
      </trkpt>
      <trkpt lat="48.53591" lon="1.98206">
        <ele>133.22</ele>
        <time>2017-11-26T12:27:26Z</time>
      </trkpt>
      <trkpt lat="48.53597" lon="1.98201">
        <ele>133.71</ele>
        <time>2017-11-26T12:27:32Z</time>
      </trkpt>
      <trkpt lat="48.53603" lon="1.98192">
        <ele>134.26</ele>
        <time>2017-11-26T12:27:40Z</time>
      </trkpt>
      <trkpt lat="48.53608" lon="1.98186">
        <ele>134.79</ele>
        <time>2017-11-26T12:27:44Z</time>
      </trkpt>
      <trkpt lat="48.53615" lon="1.98182">
        <ele>135.45</ele>
        <time>2017-11-26T12:27:48Z</time>
      </trkpt>
      <trkpt lat="48.53624" lon="1.98176">
        <ele>136.34</ele>
        <time>2017-11-26T12:27:55Z</time>
      </trkpt>
      <trkpt lat="48.53628" lon="1.98174">
        <ele>136.8</ele>
        <time>2017-11-26T12:27:59Z</time>
      </trkpt>
      <trkpt lat="48.53632" lon="1.9817">
        <ele>137.3</ele>
        <time>2017-11-26T12:28:05Z</time>
      </trkpt>
      <trkpt lat="48.53637" lon="1.98164">
        <ele>137.83</ele>
        <time>2017-11-26T12:28:09Z</time>
      </trkpt>
      <trkpt lat="48.53641" lon="1.98159">
        <ele>138.21</ele>
        <time>2017-11-26T12:28:13Z</time>
      </trkpt>
      <trkpt lat="48.53645" lon="1.98156">
        <ele>138.65</ele>
        <time>2017-11-26T12:28:19Z</time>
      </trkpt>
      <trkpt lat="48.53652" lon="1.9815">
        <ele>139.39</ele>
        <time>2017-11-26T12:28:23Z</time>
      </trkpt>
      <trkpt lat="48.5366" lon="1.98143">
        <ele>140.05</ele>
        <time>2017-11-26T12:28:27Z</time>
      </trkpt>
      <trkpt lat="48.53666" lon="1.98138">
        <ele>140.63</ele>
        <time>2017-11-26T12:28:31Z</time>
      </trkpt>
      <trkpt lat="48.5367" lon="1.98134">
        <ele>140.97</ele>
        <time>2017-11-26T12:28:33Z</time>
      </trkpt>
      <trkpt lat="48.53674" lon="1.9813">
        <ele>141.31</ele>
        <time>2017-11-26T12:28:35Z</time>
      </trkpt>
      <trkpt lat="48.53686" lon="1.98118">
        <ele>142.34</ele>
        <time>2017-11-26T12:28:39Z</time>
      </trkpt>
      <trkpt lat="48.53689" lon="1.98113">
        <ele>142.61</ele>
        <time>2017-11-26T12:28:41Z</time>
      </trkpt>
      <trkpt lat="48.53695" lon="1.98111">
        <ele>143.12</ele>
        <time>2017-11-26T12:28:47Z</time>
      </trkpt>
      <trkpt lat="48.53698" lon="1.98106">
        <ele>143.38</ele>
        <time>2017-11-26T12:28:51Z</time>
      </trkpt>
      <trkpt lat="48.53703" lon="1.98103">
        <ele>143.78</ele>
        <time>2017-11-26T12:28:57Z</time>
      </trkpt>
      <trkpt lat="48.53706" lon="1.98093">
        <ele>143.98</ele>
        <time>2017-11-26T12:29:03Z</time>
      </trkpt>
      <trkpt lat="48.53711" lon="1.98089">
        <ele>144.35</ele>
        <time>2017-11-26T12:29:09Z</time>
      </trkpt>
      <trkpt lat="48.53716" lon="1.98083">
        <ele>144.76</ele>
        <time>2017-11-26T12:29:13Z</time>
      </trkpt>
      <trkpt lat="48.5372" lon="1.98079">
        <ele>145.09</ele>
        <time>2017-11-26T12:29:15Z</time>
      </trkpt>
      <trkpt lat="48.53724" lon="1.98076">
        <ele>145.4</ele>
        <time>2017-11-26T12:29:17Z</time>
      </trkpt>
      <trkpt lat="48.53731" lon="1.98068">
        <ele>145.85</ele>
        <time>2017-11-26T12:29:19Z</time>
      </trkpt>
      <trkpt lat="48.53735" lon="1.98062">
        <ele>146.05</ele>
        <time>2017-11-26T12:29:21Z</time>
      </trkpt>
      <trkpt lat="48.53741" lon="1.98053">
        <ele>146.21</ele>
        <time>2017-11-26T12:29:25Z</time>
      </trkpt>
      <trkpt lat="48.53745" lon="1.98049">
        <ele>146.39</ele>
        <time>2017-11-26T12:29:27Z</time>
      </trkpt>
      <trkpt lat="48.53749" lon="1.98043">
        <ele>146.5</ele>
        <time>2017-11-26T12:29:31Z</time>
      </trkpt>
      <trkpt lat="48.53754" lon="1.98036">
        <ele>146.61</ele>
        <time>2017-11-26T12:29:35Z</time>
      </trkpt>
      <trkpt lat="48.53755" lon="1.9803">
        <ele>146.45</ele>
        <time>2017-11-26T12:29:39Z</time>
      </trkpt>
      <trkpt lat="48.53753" lon="1.98021">
        <ele>146.02</ele>
        <time>2017-11-26T12:29:45Z</time>
      </trkpt>
      <trkpt lat="48.53749" lon="1.98015">
        <ele>145.53</ele>
        <time>2017-11-26T12:29:49Z</time>
      </trkpt>
      <trkpt lat="48.53744" lon="1.98013">
        <ele>145.2</ele>
        <time>2017-11-26T12:29:51Z</time>
      </trkpt>
      <trkpt lat="48.53739" lon="1.9801">
        <ele>144.9</ele>
        <time>2017-11-26T12:29:53Z</time>
      </trkpt>
      <trkpt lat="48.53735" lon="1.98008">
        <ele>144.64</ele>
        <time>2017-11-26T12:29:55Z</time>
      </trkpt>
      <trkpt lat="48.53728" lon="1.98004">
        <ele>144.27</ele>
        <time>2017-11-26T12:29:59Z</time>
      </trkpt>
      <trkpt lat="48.53721" lon="1.98005">
        <ele>144.04</ele>
        <time>2017-11-26T12:30:03Z</time>
      </trkpt>
      <trkpt lat="48.53713" lon="1.98006">
        <ele>143.73</ele>
        <time>2017-11-26T12:30:07Z</time>
      </trkpt>
      <trkpt lat="48.53707" lon="1.98007">
        <ele>143.5</ele>
        <time>2017-11-26T12:30:09Z</time>
      </trkpt>
      <trkpt lat="48.53702" lon="1.98008">
        <ele>143.27</ele>
        <time>2017-11-26T12:30:11Z</time>
      </trkpt>
      <trkpt lat="48.53696" lon="1.98009">
        <ele>143.04</ele>
        <time>2017-11-26T12:30:13Z</time>
      </trkpt>
      <trkpt lat="48.53691" lon="1.98007">
        <ele>142.83</ele>
        <time>2017-11-26T12:30:15Z</time>
      </trkpt>
      <trkpt lat="48.53686" lon="1.98005">
        <ele>142.65</ele>
        <time>2017-11-26T12:30:17Z</time>
      </trkpt>
      <trkpt lat="48.53681" lon="1.98003">
        <ele>142.47</ele>
        <time>2017-11-26T12:30:19Z</time>
      </trkpt>
      <trkpt lat="48.53675" lon="1.97999">
        <ele>142.21</ele>
        <time>2017-11-26T12:30:21Z</time>
      </trkpt>
      <trkpt lat="48.53669" lon="1.97991">
        <ele>141.03</ele>
        <time>2017-11-26T12:30:23Z</time>
      </trkpt>
      <trkpt lat="48.53643" lon="1.97974">
        <ele>137.07</ele>
        <time>2017-11-26T12:30:25Z</time>
      </trkpt>
      <trkpt lat="48.53643" lon="1.9796">
        <ele>135.53</ele>
        <time>2017-11-26T12:30:31Z</time>
      </trkpt>
      <trkpt lat="48.5365" lon="1.97938">
        <ele>133.45</ele>
        <time>2017-11-26T12:30:36Z</time>
      </trkpt>
      <trkpt lat="48.53653" lon="1.97925">
        <ele>132.18</ele>
        <time>2017-11-26T12:30:38Z</time>
      </trkpt>
      <trkpt lat="48.53654" lon="1.97916">
        <ele>131.17</ele>
        <time>2017-11-26T12:30:40Z</time>
      </trkpt>
      <trkpt lat="48.53659" lon="1.97907">
        <ele>130.6</ele>
        <time>2017-11-26T12:30:42Z</time>
      </trkpt>
      <trkpt lat="48.53665" lon="1.97898">
        <ele>130.08</ele>
        <time>2017-11-26T12:30:44Z</time>
      </trkpt>
      <trkpt lat="48.53668" lon="1.97886">
        <ele>129.18</ele>
        <time>2017-11-26T12:30:46Z</time>
      </trkpt>
      <trkpt lat="48.53664" lon="1.97872">
        <ele>127.46</ele>
        <time>2017-11-26T12:30:48Z</time>
      </trkpt>
      <trkpt lat="48.53659" lon="1.97857">
        <ele>125.69</ele>
        <time>2017-11-26T12:30:50Z</time>
      </trkpt>
      <trkpt lat="48.53638" lon="1.97836">
        <ele>122.19</ele>
        <time>2017-11-26T12:30:52Z</time>
      </trkpt>
      <trkpt lat="48.53621" lon="1.97822">
        <ele>120.76</ele>
        <time>2017-11-26T12:30:54Z</time>
      </trkpt>
      <trkpt lat="48.53605" lon="1.97816">
        <ele>119.41</ele>
        <time>2017-11-26T12:30:56Z</time>
      </trkpt>
      <trkpt lat="48.53589" lon="1.97813">
        <ele>118.03</ele>
        <time>2017-11-26T12:30:58Z</time>
      </trkpt>
      <trkpt lat="48.53572" lon="1.97812">
        <ele>117.13</ele>
        <time>2017-11-26T12:31:00Z</time>
      </trkpt>
      <trkpt lat="48.53568" lon="1.97823">
        <ele>117.12</ele>
        <time>2017-11-26T12:31:02Z</time>
      </trkpt>
      <trkpt lat="48.53563" lon="1.97827">
        <ele>116.95</ele>
        <time>2017-11-26T12:31:04Z</time>
      </trkpt>
      <trkpt lat="48.53554" lon="1.97831">
        <ele>116.58</ele>
        <time>2017-11-26T12:31:06Z</time>
      </trkpt>
      <trkpt lat="48.53546" lon="1.97833">
        <ele>116.22</ele>
        <time>2017-11-26T12:31:08Z</time>
      </trkpt>
      <trkpt lat="48.5354" lon="1.9784">
        <ele>116.5</ele>
        <time>2017-11-26T12:31:10Z</time>
      </trkpt>
      <trkpt lat="48.53534" lon="1.97845">
        <ele>116.62</ele>
        <time>2017-11-26T12:31:12Z</time>
      </trkpt>
      <trkpt lat="48.53529" lon="1.97851">
        <ele>116.87</ele>
        <time>2017-11-26T12:31:14Z</time>
      </trkpt>
      <trkpt lat="48.53524" lon="1.97857">
        <ele>117.06</ele>
        <time>2017-11-26T12:31:16Z</time>
      </trkpt>
      <trkpt lat="48.53518" lon="1.97859">
        <ele>116.89</ele>
        <time>2017-11-26T12:31:18Z</time>
      </trkpt>
      <trkpt lat="48.53513" lon="1.9786">
        <ele>116.68</ele>
        <time>2017-11-26T12:31:20Z</time>
      </trkpt>
      <trkpt lat="48.53509" lon="1.97862">
        <ele>116.56</ele>
        <time>2017-11-26T12:31:22Z</time>
      </trkpt>
      <trkpt lat="48.53504" lon="1.97865">
        <ele>116.56</ele>
        <time>2017-11-26T12:31:24Z</time>
      </trkpt>
      <trkpt lat="48.53499" lon="1.97867">
        <ele>116.38</ele>
        <time>2017-11-26T12:31:26Z</time>
      </trkpt>
      <trkpt lat="48.53492" lon="1.97871">
        <ele>116.45</ele>
        <time>2017-11-26T12:31:28Z</time>
      </trkpt>
      <trkpt lat="48.53485" lon="1.97875">
        <ele>116.45</ele>
        <time>2017-11-26T12:31:30Z</time>
      </trkpt>
      <trkpt lat="48.53477" lon="1.97878">
        <ele>116.33</ele>
        <time>2017-11-26T12:31:32Z</time>
      </trkpt>
      <trkpt lat="48.53467" lon="1.97882">
        <ele>116.12</ele>
        <time>2017-11-26T12:31:34Z</time>
      </trkpt>
      <trkpt lat="48.53458" lon="1.97887">
        <ele>115.9</ele>
        <time>2017-11-26T12:31:36Z</time>
      </trkpt>
      <trkpt lat="48.53449" lon="1.97892">
        <ele>115.64</ele>
        <time>2017-11-26T12:31:38Z</time>
      </trkpt>
      <trkpt lat="48.5344" lon="1.97898">
        <ele>115.3</ele>
        <time>2017-11-26T12:31:40Z</time>
      </trkpt>
      <trkpt lat="48.53433" lon="1.97905">
        <ele>114.99</ele>
        <time>2017-11-26T12:31:42Z</time>
      </trkpt>
      <trkpt lat="48.53426" lon="1.97914">
        <ele>114.67</ele>
        <time>2017-11-26T12:31:44Z</time>
      </trkpt>
      <trkpt lat="48.53421" lon="1.97922">
        <ele>114.78</ele>
        <time>2017-11-26T12:31:46Z</time>
      </trkpt>
      <trkpt lat="48.53416" lon="1.97929">
        <ele>115.07</ele>
        <time>2017-11-26T12:31:48Z</time>
      </trkpt>
      <trkpt lat="48.5341" lon="1.97935">
        <ele>115.61</ele>
        <time>2017-11-26T12:31:50Z</time>
      </trkpt>
      <trkpt lat="48.53405" lon="1.97941">
        <ele>116.12</ele>
        <time>2017-11-26T12:31:52Z</time>
      </trkpt>
      <trkpt lat="48.53401" lon="1.97946">
        <ele>116.51</ele>
        <time>2017-11-26T12:31:54Z</time>
      </trkpt>
      <trkpt lat="48.53396" lon="1.9795">
        <ele>116.84</ele>
        <time>2017-11-26T12:31:56Z</time>
      </trkpt>
      <trkpt lat="48.53391" lon="1.97953">
        <ele>117.07</ele>
        <time>2017-11-26T12:31:58Z</time>
      </trkpt>
      <trkpt lat="48.53386" lon="1.97955">
        <ele>117.27</ele>
        <time>2017-11-26T12:32:00Z</time>
      </trkpt>
      <trkpt lat="48.53381" lon="1.9796">
        <ele>117.62</ele>
        <time>2017-11-26T12:32:02Z</time>
      </trkpt>
      <trkpt lat="48.53377" lon="1.97967">
        <ele>118.16</ele>
        <time>2017-11-26T12:32:04Z</time>
      </trkpt>
      <trkpt lat="48.53374" lon="1.97976">
        <ele>118.75</ele>
        <time>2017-11-26T12:32:06Z</time>
      </trkpt>
      <trkpt lat="48.5337" lon="1.97983">
        <ele>119.24</ele>
        <time>2017-11-26T12:32:08Z</time>
      </trkpt>
      <trkpt lat="48.53366" lon="1.97988">
        <ele>119.54</ele>
        <time>2017-11-26T12:32:10Z</time>
      </trkpt>
      <trkpt lat="48.53369" lon="1.97996">
        <ele>120.16</ele>
        <time>2017-11-26T12:32:14Z</time>
      </trkpt>
      <trkpt lat="48.53361" lon="1.97998">
        <ele>120.19</ele>
        <time>2017-11-26T12:32:22Z</time>
      </trkpt>
      <trkpt lat="48.53356" lon="1.97997">
        <ele>120.08</ele>
        <time>2017-11-26T12:32:24Z</time>
      </trkpt>
      <trkpt lat="48.53348" lon="1.97992">
        <ele>119.69</ele>
        <time>2017-11-26T12:32:26Z</time>
      </trkpt>
      <trkpt lat="48.53337" lon="1.97988">
        <ele>119.3</ele>
        <time>2017-11-26T12:32:28Z</time>
      </trkpt>
      <trkpt lat="48.53329" lon="1.97985">
        <ele>119.32</ele>
        <time>2017-11-26T12:32:30Z</time>
      </trkpt>
      <trkpt lat="48.53321" lon="1.97983">
        <ele>119.62</ele>
        <time>2017-11-26T12:32:32Z</time>
      </trkpt>
      <trkpt lat="48.53315" lon="1.97979">
        <ele>119.72</ele>
        <time>2017-11-26T12:32:34Z</time>
      </trkpt>
      <trkpt lat="48.5331" lon="1.97975">
        <ele>119.7</ele>
        <time>2017-11-26T12:32:36Z</time>
      </trkpt>
      <trkpt lat="48.53305" lon="1.9797">
        <ele>119.64</ele>
        <time>2017-11-26T12:32:38Z</time>
      </trkpt>
      <trkpt lat="48.533" lon="1.97965">
        <ele>119.55</ele>
        <time>2017-11-26T12:32:40Z</time>
      </trkpt>
      <trkpt lat="48.53295" lon="1.9796">
        <ele>119.47</ele>
        <time>2017-11-26T12:32:42Z</time>
      </trkpt>
      <trkpt lat="48.53289" lon="1.97958">
        <ele>119.57</ele>
        <time>2017-11-26T12:32:44Z</time>
      </trkpt>
      <trkpt lat="48.53283" lon="1.97956">
        <ele>119.75</ele>
        <time>2017-11-26T12:32:46Z</time>
      </trkpt>
      <trkpt lat="48.53278" lon="1.97953">
        <ele>119.76</ele>
        <time>2017-11-26T12:32:48Z</time>
      </trkpt>
      <trkpt lat="48.53272" lon="1.97948">
        <ele>119.64</ele>
        <time>2017-11-26T12:32:50Z</time>
      </trkpt>
      <trkpt lat="48.53262" lon="1.97936">
        <ele>119.15</ele>
        <time>2017-11-26T12:32:52Z</time>
      </trkpt>
      <trkpt lat="48.53251" lon="1.9793">
        <ele>119.06</ele>
        <time>2017-11-26T12:32:54Z</time>
      </trkpt>
      <trkpt lat="48.53238" lon="1.9793">
        <ele>119.79</ele>
        <time>2017-11-26T12:32:56Z</time>
      </trkpt>
      <trkpt lat="48.53227" lon="1.97921">
        <ele>119.65</ele>
        <time>2017-11-26T12:32:58Z</time>
      </trkpt>
      <trkpt lat="48.5318" lon="1.97875">
        <ele>118.5</ele>
        <time>2017-11-26T12:33:12Z</time>
      </trkpt>
      <trkpt lat="48.5317" lon="1.97872">
        <ele>118.58</ele>
        <time>2017-11-26T12:33:17Z</time>
      </trkpt>
      <trkpt lat="48.53159" lon="1.97865">
        <ele>118.08</ele>
        <time>2017-11-26T12:33:19Z</time>
      </trkpt>
      <trkpt lat="48.53149" lon="1.97858">
        <ele>117.64</ele>
        <time>2017-11-26T12:33:21Z</time>
      </trkpt>
      <trkpt lat="48.53142" lon="1.97856">
        <ele>117.55</ele>
        <time>2017-11-26T12:33:23Z</time>
      </trkpt>
      <trkpt lat="48.53136" lon="1.97851">
        <ele>117.21</ele>
        <time>2017-11-26T12:33:27Z</time>
      </trkpt>
      <trkpt lat="48.53127" lon="1.97849">
        <ele>117.18</ele>
        <time>2017-11-26T12:33:29Z</time>
      </trkpt>
      <trkpt lat="48.53119" lon="1.97845">
        <ele>117.03</ele>
        <time>2017-11-26T12:33:31Z</time>
      </trkpt>
      <trkpt lat="48.53113" lon="1.97842">
        <ele>116.89</ele>
        <time>2017-11-26T12:33:33Z</time>
      </trkpt>
      <trkpt lat="48.53107" lon="1.97841">
        <ele>116.94</ele>
        <time>2017-11-26T12:33:35Z</time>
      </trkpt>
      <trkpt lat="48.531" lon="1.97841">
        <ele>117.14</ele>
        <time>2017-11-26T12:33:39Z</time>
      </trkpt>
      <trkpt lat="48.53092" lon="1.97841">
        <ele>117.28</ele>
        <time>2017-11-26T12:33:43Z</time>
      </trkpt>
      <trkpt lat="48.53083" lon="1.97838">
        <ele>117.3</ele>
        <time>2017-11-26T12:33:47Z</time>
      </trkpt>
      <trkpt lat="48.53078" lon="1.97836">
        <ele>116.81</ele>
        <time>2017-11-26T12:33:49Z</time>
      </trkpt>
      <trkpt lat="48.53054" lon="1.97836">
        <ele>114.99</ele>
        <time>2017-11-26T12:33:51Z</time>
      </trkpt>
      <trkpt lat="48.53045" lon="1.9784">
        <ele>114.49</ele>
        <time>2017-11-26T12:33:53Z</time>
      </trkpt>
      <trkpt lat="48.53035" lon="1.97844">
        <ele>113.88</ele>
        <time>2017-11-26T12:33:55Z</time>
      </trkpt>
      <trkpt lat="48.53032" lon="1.97854">
        <ele>113.93</ele>
        <time>2017-11-26T12:33:57Z</time>
      </trkpt>
      <trkpt lat="48.53024" lon="1.97861">
        <ele>113.46</ele>
        <time>2017-11-26T12:33:59Z</time>
      </trkpt>
      <trkpt lat="48.53025" lon="1.97874">
        <ele>113.85</ele>
        <time>2017-11-26T12:34:03Z</time>
      </trkpt>
      <trkpt lat="48.53026" lon="1.97884">
        <ele>114.2</ele>
        <time>2017-11-26T12:34:05Z</time>
      </trkpt>
      <trkpt lat="48.53028" lon="1.97893">
        <ele>114.67</ele>
        <time>2017-11-26T12:34:07Z</time>
      </trkpt>
      <trkpt lat="48.5303" lon="1.97901">
        <ele>115.15</ele>
        <time>2017-11-26T12:34:09Z</time>
      </trkpt>
      <trkpt lat="48.53032" lon="1.97912">
        <ele>115.68</ele>
        <time>2017-11-26T12:34:11Z</time>
      </trkpt>
      <trkpt lat="48.53031" lon="1.97924">
        <ele>115.7</ele>
        <time>2017-11-26T12:34:13Z</time>
      </trkpt>
      <trkpt lat="48.5303" lon="1.97937">
        <ele>115.5</ele>
        <time>2017-11-26T12:34:15Z</time>
      </trkpt>
      <trkpt lat="48.53032" lon="1.97948">
        <ele>115.63</ele>
        <time>2017-11-26T12:34:17Z</time>
      </trkpt>
      <trkpt lat="48.53035" lon="1.97957">
        <ele>115.9</ele>
        <time>2017-11-26T12:34:19Z</time>
      </trkpt>
      <trkpt lat="48.53036" lon="1.97969">
        <ele>115.92</ele>
        <time>2017-11-26T12:34:21Z</time>
      </trkpt>
      <trkpt lat="48.53032" lon="1.97979">
        <ele>115.39</ele>
        <time>2017-11-26T12:34:23Z</time>
      </trkpt>
      <trkpt lat="48.53027" lon="1.97988">
        <ele>114.69</ele>
        <time>2017-11-26T12:34:25Z</time>
      </trkpt>
      <trkpt lat="48.53023" lon="1.97994">
        <ele>114.03</ele>
        <time>2017-11-26T12:34:27Z</time>
      </trkpt>
      <trkpt lat="48.53018" lon="1.98">
        <ele>113.39</ele>
        <time>2017-11-26T12:34:29Z</time>
      </trkpt>
      <trkpt lat="48.53012" lon="1.98007">
        <ele>112.46</ele>
        <time>2017-11-26T12:34:31Z</time>
      </trkpt>
      <trkpt lat="48.53005" lon="1.98015">
        <ele>111.24</ele>
        <time>2017-11-26T12:34:33Z</time>
      </trkpt>
      <trkpt lat="48.52998" lon="1.98025">
        <ele>110.31</ele>
        <time>2017-11-26T12:34:35Z</time>
      </trkpt>
      <trkpt lat="48.52992" lon="1.98044">
        <ele>109.57</ele>
        <time>2017-11-26T12:34:37Z</time>
      </trkpt>
      <trkpt lat="48.52977" lon="1.98074">
        <ele>108.35</ele>
        <time>2017-11-26T12:34:39Z</time>
      </trkpt>
      <trkpt lat="48.52973" lon="1.98089">
        <ele>107.92</ele>
        <time>2017-11-26T12:34:41Z</time>
      </trkpt>
      <trkpt lat="48.52967" lon="1.98104">
        <ele>107.36</ele>
        <time>2017-11-26T12:34:43Z</time>
      </trkpt>
      <trkpt lat="48.52967" lon="1.98114">
        <ele>107.12</ele>
        <time>2017-11-26T12:34:45Z</time>
      </trkpt>
      <trkpt lat="48.5297" lon="1.98121">
        <ele>107.15</ele>
        <time>2017-11-26T12:34:47Z</time>
      </trkpt>
      <trkpt lat="48.52975" lon="1.98128">
        <ele>107.25</ele>
        <time>2017-11-26T12:34:49Z</time>
      </trkpt>
      <trkpt lat="48.52978" lon="1.98134">
        <ele>107.3</ele>
        <time>2017-11-26T12:34:51Z</time>
      </trkpt>
      <trkpt lat="48.52981" lon="1.98141">
        <ele>107.32</ele>
        <time>2017-11-26T12:34:53Z</time>
      </trkpt>
      <trkpt lat="48.52985" lon="1.98153">
        <ele>107.31</ele>
        <time>2017-11-26T12:34:57Z</time>
      </trkpt>
      <trkpt lat="48.52987" lon="1.98159">
        <ele>107.36</ele>
        <time>2017-11-26T12:34:59Z</time>
      </trkpt>
      <trkpt lat="48.52989" lon="1.98166">
        <ele>107.38</ele>
        <time>2017-11-26T12:35:01Z</time>
      </trkpt>
      <trkpt lat="48.52992" lon="1.98172">
        <ele>107.43</ele>
        <time>2017-11-26T12:35:03Z</time>
      </trkpt>
      <trkpt lat="48.52994" lon="1.98179">
        <ele>107.49</ele>
        <time>2017-11-26T12:35:05Z</time>
      </trkpt>
      <trkpt lat="48.52996" lon="1.98187">
        <ele>107.52</ele>
        <time>2017-11-26T12:35:07Z</time>
      </trkpt>
      <trkpt lat="48.52998" lon="1.98194">
        <ele>107.52</ele>
        <time>2017-11-26T12:35:09Z</time>
      </trkpt>
      <trkpt lat="48.52999" lon="1.982">
        <ele>107.56</ele>
        <time>2017-11-26T12:35:11Z</time>
      </trkpt>
      <trkpt lat="48.53001" lon="1.98212">
        <ele>107.59</ele>
        <time>2017-11-26T12:35:15Z</time>
      </trkpt>
      <trkpt lat="48.53003" lon="1.98225">
        <ele>107.58</ele>
        <time>2017-11-26T12:35:19Z</time>
      </trkpt>
      <trkpt lat="48.53005" lon="1.98233">
        <ele>107.62</ele>
        <time>2017-11-26T12:35:21Z</time>
      </trkpt>
      <trkpt lat="48.53008" lon="1.98244">
        <ele>107.75</ele>
        <time>2017-11-26T12:35:23Z</time>
      </trkpt>
      <trkpt lat="48.53012" lon="1.98258">
        <ele>107.97</ele>
        <time>2017-11-26T12:35:25Z</time>
      </trkpt>
      <trkpt lat="48.53026" lon="1.98296">
        <ele>108.65</ele>
        <time>2017-11-26T12:35:27Z</time>
      </trkpt>
      <trkpt lat="48.53032" lon="1.98312">
        <ele>108.83</ele>
        <time>2017-11-26T12:35:29Z</time>
      </trkpt>
      <trkpt lat="48.53037" lon="1.98329">
        <ele>108.86</ele>
        <time>2017-11-26T12:35:31Z</time>
      </trkpt>
      <trkpt lat="48.53041" lon="1.98345">
        <ele>108.73</ele>
        <time>2017-11-26T12:35:33Z</time>
      </trkpt>
      <trkpt lat="48.53046" lon="1.98358">
        <ele>108.76</ele>
        <time>2017-11-26T12:35:35Z</time>
      </trkpt>
      <trkpt lat="48.5305" lon="1.98373">
        <ele>108.76</ele>
        <time>2017-11-26T12:35:37Z</time>
      </trkpt>
      <trkpt lat="48.53054" lon="1.98385">
        <ele>108.76</ele>
        <time>2017-11-26T12:35:39Z</time>
      </trkpt>
      <trkpt lat="48.53057" lon="1.984">
        <ele>108.69</ele>
        <time>2017-11-26T12:35:41Z</time>
      </trkpt>
      <trkpt lat="48.53062" lon="1.98408">
        <ele>108.82</ele>
        <time>2017-11-26T12:35:43Z</time>
      </trkpt>
      <trkpt lat="48.53065" lon="1.98421">
        <ele>108.81</ele>
        <time>2017-11-26T12:35:45Z</time>
      </trkpt>
      <trkpt lat="48.53072" lon="1.98441">
        <ele>108.72</ele>
        <time>2017-11-26T12:35:47Z</time>
      </trkpt>
      <trkpt lat="48.53068" lon="1.98458">
        <ele>108.09</ele>
        <time>2017-11-26T12:35:49Z</time>
      </trkpt>
      <trkpt lat="48.53071" lon="1.98467">
        <ele>108.04</ele>
        <time>2017-11-26T12:35:51Z</time>
      </trkpt>
      <trkpt lat="48.53073" lon="1.98478">
        <ele>107.94</ele>
        <time>2017-11-26T12:35:53Z</time>
      </trkpt>
      <trkpt lat="48.53077" lon="1.98489">
        <ele>107.86</ele>
        <time>2017-11-26T12:35:55Z</time>
      </trkpt>
      <trkpt lat="48.53081" lon="1.98501">
        <ele>107.83</ele>
        <time>2017-11-26T12:35:57Z</time>
      </trkpt>
      <trkpt lat="48.53081" lon="1.98509">
        <ele>107.77</ele>
        <time>2017-11-26T12:35:59Z</time>
      </trkpt>
      <trkpt lat="48.53081" lon="1.98517">
        <ele>107.68</ele>
        <time>2017-11-26T12:36:01Z</time>
      </trkpt>
      <trkpt lat="48.53082" lon="1.98525">
        <ele>107.6</ele>
        <time>2017-11-26T12:36:03Z</time>
      </trkpt>
      <trkpt lat="48.53083" lon="1.98533">
        <ele>107.56</ele>
        <time>2017-11-26T12:36:05Z</time>
      </trkpt>
      <trkpt lat="48.53084" lon="1.9854">
        <ele>107.54</ele>
        <time>2017-11-26T12:36:07Z</time>
      </trkpt>
      <trkpt lat="48.53085" lon="1.98547">
        <ele>107.51</ele>
        <time>2017-11-26T12:36:09Z</time>
      </trkpt>
      <trkpt lat="48.53087" lon="1.98554">
        <ele>107.49</ele>
        <time>2017-11-26T12:36:11Z</time>
      </trkpt>
      <trkpt lat="48.53089" lon="1.98561">
        <ele>107.49</ele>
        <time>2017-11-26T12:36:13Z</time>
      </trkpt>
      <trkpt lat="48.53092" lon="1.98568">
        <ele>107.51</ele>
        <time>2017-11-26T12:36:15Z</time>
      </trkpt>
      <trkpt lat="48.53092" lon="1.98576">
        <ele>107.39</ele>
        <time>2017-11-26T12:36:17Z</time>
      </trkpt>
      <trkpt lat="48.53091" lon="1.98586">
        <ele>107.18</ele>
        <time>2017-11-26T12:36:19Z</time>
      </trkpt>
      <trkpt lat="48.53089" lon="1.98594">
        <ele>106.83</ele>
        <time>2017-11-26T12:36:21Z</time>
      </trkpt>
      <trkpt lat="48.5309" lon="1.98605">
        <ele>106.49</ele>
        <time>2017-11-26T12:36:23Z</time>
      </trkpt>
      <trkpt lat="48.53095" lon="1.98617">
        <ele>106.28</ele>
        <time>2017-11-26T12:36:25Z</time>
      </trkpt>
      <trkpt lat="48.53101" lon="1.98626">
        <ele>106.19</ele>
        <time>2017-11-26T12:36:27Z</time>
      </trkpt>
      <trkpt lat="48.53106" lon="1.98635">
        <ele>106.14</ele>
        <time>2017-11-26T12:36:29Z</time>
      </trkpt>
      <trkpt lat="48.53113" lon="1.98643">
        <ele>106.17</ele>
        <time>2017-11-26T12:36:31Z</time>
      </trkpt>
      <trkpt lat="48.5312" lon="1.98647">
        <ele>106.35</ele>
        <time>2017-11-26T12:36:33Z</time>
      </trkpt>
      <trkpt lat="48.53126" lon="1.98649">
        <ele>106.58</ele>
        <time>2017-11-26T12:36:35Z</time>
      </trkpt>
      <trkpt lat="48.53132" lon="1.98648">
        <ele>106.88</ele>
        <time>2017-11-26T12:36:39Z</time>
      </trkpt>
      <trkpt lat="48.5314" lon="1.98645">
        <ele>107.34</ele>
        <time>2017-11-26T12:36:45Z</time>
      </trkpt>
      <trkpt lat="48.53149" lon="1.98645">
        <ele>107.74</ele>
        <time>2017-11-26T12:36:49Z</time>
      </trkpt>
      <trkpt lat="48.53158" lon="1.98642">
        <ele>108.2</ele>
        <time>2017-11-26T12:36:53Z</time>
      </trkpt>
      <trkpt lat="48.53162" lon="1.9864">
        <ele>108.45</ele>
        <time>2017-11-26T12:36:55Z</time>
      </trkpt>
      <trkpt lat="48.53167" lon="1.98638">
        <ele>108.69</ele>
        <time>2017-11-26T12:36:57Z</time>
      </trkpt>
      <trkpt lat="48.53172" lon="1.98636">
        <ele>108.8</ele>
        <time>2017-11-26T12:36:59Z</time>
      </trkpt>
      <trkpt lat="48.53179" lon="1.98634">
        <ele>108.93</ele>
        <time>2017-11-26T12:37:03Z</time>
      </trkpt>
      <trkpt lat="48.53186" lon="1.98636">
        <ele>108.97</ele>
        <time>2017-11-26T12:37:07Z</time>
      </trkpt>
      <trkpt lat="48.53186" lon="1.98643">
        <ele>108.81</ele>
        <time>2017-11-26T12:37:11Z</time>
      </trkpt>
      <trkpt lat="48.53194" lon="1.9864">
        <ele>108.96</ele>
        <time>2017-11-26T12:37:15Z</time>
      </trkpt>
      <trkpt lat="48.53202" lon="1.98635">
        <ele>109.17</ele>
        <time>2017-11-26T12:37:17Z</time>
      </trkpt>
      <trkpt lat="48.53209" lon="1.98632">
        <ele>109.33</ele>
        <time>2017-11-26T12:37:19Z</time>
      </trkpt>
      <trkpt lat="48.53216" lon="1.98631">
        <ele>109.45</ele>
        <time>2017-11-26T12:37:21Z</time>
      </trkpt>
      <trkpt lat="48.53224" lon="1.98632">
        <ele>109.51</ele>
        <time>2017-11-26T12:37:23Z</time>
      </trkpt>
      <trkpt lat="48.53231" lon="1.98635">
        <ele>109.54</ele>
        <time>2017-11-26T12:37:25Z</time>
      </trkpt>
      <trkpt lat="48.53239" lon="1.9864">
        <ele>109.51</ele>
        <time>2017-11-26T12:37:27Z</time>
      </trkpt>
      <trkpt lat="48.53247" lon="1.98646">
        <ele>109.46</ele>
        <time>2017-11-26T12:37:29Z</time>
      </trkpt>
      <trkpt lat="48.53254" lon="1.98652">
        <ele>109.52</ele>
        <time>2017-11-26T12:37:31Z</time>
      </trkpt>
      <trkpt lat="48.53262" lon="1.98658">
        <ele>109.65</ele>
        <time>2017-11-26T12:37:33Z</time>
      </trkpt>
      <trkpt lat="48.53269" lon="1.98664">
        <ele>109.75</ele>
        <time>2017-11-26T12:37:35Z</time>
      </trkpt>
      <trkpt lat="48.53276" lon="1.9867">
        <ele>109.85</ele>
        <time>2017-11-26T12:37:37Z</time>
      </trkpt>
      <trkpt lat="48.53281" lon="1.98676">
        <ele>109.93</ele>
        <time>2017-11-26T12:37:39Z</time>
      </trkpt>
      <trkpt lat="48.53285" lon="1.98682">
        <ele>109.99</ele>
        <time>2017-11-26T12:37:41Z</time>
      </trkpt>
      <trkpt lat="48.5329" lon="1.98687">
        <ele>110.06</ele>
        <time>2017-11-26T12:37:43Z</time>
      </trkpt>
      <trkpt lat="48.53295" lon="1.98693">
        <ele>110.14</ele>
        <time>2017-11-26T12:37:45Z</time>
      </trkpt>
      <trkpt lat="48.533" lon="1.98698">
        <ele>110.28</ele>
        <time>2017-11-26T12:37:47Z</time>
      </trkpt>
      <trkpt lat="48.53306" lon="1.98704">
        <ele>110.41</ele>
        <time>2017-11-26T12:37:49Z</time>
      </trkpt>
      <trkpt lat="48.53311" lon="1.98712">
        <ele>110.5</ele>
        <time>2017-11-26T12:37:51Z</time>
      </trkpt>
      <trkpt lat="48.53316" lon="1.98722">
        <ele>110.57</ele>
        <time>2017-11-26T12:37:53Z</time>
      </trkpt>
      <trkpt lat="48.5332" lon="1.98733">
        <ele>110.62</ele>
        <time>2017-11-26T12:37:55Z</time>
      </trkpt>
      <trkpt lat="48.53326" lon="1.98743">
        <ele>110.73</ele>
        <time>2017-11-26T12:37:57Z</time>
      </trkpt>
      <trkpt lat="48.53331" lon="1.98753">
        <ele>110.82</ele>
        <time>2017-11-26T12:37:59Z</time>
      </trkpt>
      <trkpt lat="48.53338" lon="1.98766">
        <ele>110.82</ele>
        <time>2017-11-26T12:38:01Z</time>
      </trkpt>
      <trkpt lat="48.53346" lon="1.9878">
        <ele>110.84</ele>
        <time>2017-11-26T12:38:03Z</time>
      </trkpt>
      <trkpt lat="48.53353" lon="1.98797">
        <ele>110.71</ele>
        <time>2017-11-26T12:38:05Z</time>
      </trkpt>
      <trkpt lat="48.53369" lon="1.98827">
        <ele>110.44</ele>
        <time>2017-11-26T12:38:07Z</time>
      </trkpt>
      <trkpt lat="48.53377" lon="1.98837">
        <ele>110.48</ele>
        <time>2017-11-26T12:38:09Z</time>
      </trkpt>
      <trkpt lat="48.53383" lon="1.98846">
        <ele>110.37</ele>
        <time>2017-11-26T12:38:11Z</time>
      </trkpt>
      <trkpt lat="48.53391" lon="1.98855">
        <ele>110.41</ele>
        <time>2017-11-26T12:38:13Z</time>
      </trkpt>
      <trkpt lat="48.53396" lon="1.98864">
        <ele>110.31</ele>
        <time>2017-11-26T12:38:15Z</time>
      </trkpt>
      <trkpt lat="48.53404" lon="1.98876">
        <ele>110.22</ele>
        <time>2017-11-26T12:38:18Z</time>
      </trkpt>
      <trkpt lat="48.5341" lon="1.98884">
        <ele>110.14</ele>
        <time>2017-11-26T12:38:20Z</time>
      </trkpt>
      <trkpt lat="48.53414" lon="1.98893">
        <ele>109.99</ele>
        <time>2017-11-26T12:38:22Z</time>
      </trkpt>
      <trkpt lat="48.53418" lon="1.98902">
        <ele>109.84</ele>
        <time>2017-11-26T12:38:24Z</time>
      </trkpt>
      <trkpt lat="48.53423" lon="1.98912">
        <ele>109.66</ele>
        <time>2017-11-26T12:38:28Z</time>
      </trkpt>
      <trkpt lat="48.53426" lon="1.9892">
        <ele>109.57</ele>
        <time>2017-11-26T12:38:30Z</time>
      </trkpt>
      <trkpt lat="48.53429" lon="1.98927">
        <ele>109.67</ele>
        <time>2017-11-26T12:38:32Z</time>
      </trkpt>
      <trkpt lat="48.53431" lon="1.98935">
        <ele>109.62</ele>
        <time>2017-11-26T12:38:34Z</time>
      </trkpt>
      <trkpt lat="48.53431" lon="1.98945">
        <ele>109.34</ele>
        <time>2017-11-26T12:38:36Z</time>
      </trkpt>
      <trkpt lat="48.53431" lon="1.9896">
        <ele>109.01</ele>
        <time>2017-11-26T12:38:38Z</time>
      </trkpt>
      <trkpt lat="48.53432" lon="1.98973">
        <ele>108.77</ele>
        <time>2017-11-26T12:38:40Z</time>
      </trkpt>
      <trkpt lat="48.53434" lon="1.98985">
        <ele>108.6</ele>
        <time>2017-11-26T12:38:42Z</time>
      </trkpt>
      <trkpt lat="48.53434" lon="1.98994">
        <ele>108.41</ele>
        <time>2017-11-26T12:38:44Z</time>
      </trkpt>
      <trkpt lat="48.53435" lon="1.99003">
        <ele>108.35</ele>
        <time>2017-11-26T12:38:46Z</time>
      </trkpt>
      <trkpt lat="48.53436" lon="1.99012">
        <ele>108.4</ele>
        <time>2017-11-26T12:38:48Z</time>
      </trkpt>
      <trkpt lat="48.53434" lon="1.99019">
        <ele>108.23</ele>
        <time>2017-11-26T12:38:50Z</time>
      </trkpt>
      <trkpt lat="48.53433" lon="1.99027">
        <ele>108.14</ele>
        <time>2017-11-26T12:38:52Z</time>
      </trkpt>
      <trkpt lat="48.53432" lon="1.99036">
        <ele>108.11</ele>
        <time>2017-11-26T12:38:54Z</time>
      </trkpt>
      <trkpt lat="48.53433" lon="1.99045">
        <ele>108.17</ele>
        <time>2017-11-26T12:38:56Z</time>
      </trkpt>
      <trkpt lat="48.53435" lon="1.99059">
        <ele>108.32</ele>
        <time>2017-11-26T12:38:58Z</time>
      </trkpt>
      <trkpt lat="48.53437" lon="1.99074">
        <ele>108.46</ele>
        <time>2017-11-26T12:39:00Z</time>
      </trkpt>
      <trkpt lat="48.5344" lon="1.99091">
        <ele>108.47</ele>
        <time>2017-11-26T12:39:02Z</time>
      </trkpt>
      <trkpt lat="48.53442" lon="1.99106">
        <ele>108.3</ele>
        <time>2017-11-26T12:39:04Z</time>
      </trkpt>
      <trkpt lat="48.53442" lon="1.99119">
        <ele>108.08</ele>
        <time>2017-11-26T12:39:06Z</time>
      </trkpt>
      <trkpt lat="48.53443" lon="1.9913">
        <ele>107.97</ele>
        <time>2017-11-26T12:39:08Z</time>
      </trkpt>
      <trkpt lat="48.53444" lon="1.99141">
        <ele>107.82</ele>
        <time>2017-11-26T12:39:10Z</time>
      </trkpt>
      <trkpt lat="48.53445" lon="1.99151">
        <ele>107.67</ele>
        <time>2017-11-26T12:39:12Z</time>
      </trkpt>
      <trkpt lat="48.53445" lon="1.99163">
        <ele>107.43</ele>
        <time>2017-11-26T12:39:14Z</time>
      </trkpt>
      <trkpt lat="48.53446" lon="1.99174">
        <ele>107.53</ele>
        <time>2017-11-26T12:39:16Z</time>
      </trkpt>
      <trkpt lat="48.53446" lon="1.99184">
        <ele>107.67</ele>
        <time>2017-11-26T12:39:18Z</time>
      </trkpt>
      <trkpt lat="48.53448" lon="1.99196">
        <ele>107.93</ele>
        <time>2017-11-26T12:39:20Z</time>
      </trkpt>
      <trkpt lat="48.53449" lon="1.99204">
        <ele>108.12</ele>
        <time>2017-11-26T12:39:22Z</time>
      </trkpt>
      <trkpt lat="48.53449" lon="1.99213">
        <ele>108.26</ele>
        <time>2017-11-26T12:39:24Z</time>
      </trkpt>
      <trkpt lat="48.53451" lon="1.99223">
        <ele>108.46</ele>
        <time>2017-11-26T12:39:26Z</time>
      </trkpt>
      <trkpt lat="48.53452" lon="1.99233">
        <ele>108.65</ele>
        <time>2017-11-26T12:39:28Z</time>
      </trkpt>
      <trkpt lat="48.53453" lon="1.99242">
        <ele>108.83</ele>
        <time>2017-11-26T12:39:30Z</time>
      </trkpt>
      <trkpt lat="48.53454" lon="1.99252">
        <ele>109.04</ele>
        <time>2017-11-26T12:39:32Z</time>
      </trkpt>
      <trkpt lat="48.53455" lon="1.99261">
        <ele>109.4</ele>
        <time>2017-11-26T12:39:34Z</time>
      </trkpt>
      <trkpt lat="48.53456" lon="1.99269">
        <ele>109.75</ele>
        <time>2017-11-26T12:39:36Z</time>
      </trkpt>
      <trkpt lat="48.53457" lon="1.99277">
        <ele>110.06</ele>
        <time>2017-11-26T12:39:38Z</time>
      </trkpt>
      <trkpt lat="48.53458" lon="1.99285">
        <ele>110.33</ele>
        <time>2017-11-26T12:39:40Z</time>
      </trkpt>
      <trkpt lat="48.5346" lon="1.99293">
        <ele>110.68</ele>
        <time>2017-11-26T12:39:44Z</time>
      </trkpt>
      <trkpt lat="48.53462" lon="1.99299">
        <ele>111.05</ele>
        <time>2017-11-26T12:39:48Z</time>
      </trkpt>
      <trkpt lat="48.53464" lon="1.99308">
        <ele>111.43</ele>
        <time>2017-11-26T12:39:52Z</time>
      </trkpt>
      <trkpt lat="48.53461" lon="1.99322">
        <ele>111.42</ele>
        <time>2017-11-26T12:39:54Z</time>
      </trkpt>
      <trkpt lat="48.53458" lon="1.99336">
        <ele>111.46</ele>
        <time>2017-11-26T12:39:56Z</time>
      </trkpt>
      <trkpt lat="48.53457" lon="1.99349">
        <ele>111.38</ele>
        <time>2017-11-26T12:39:58Z</time>
      </trkpt>
      <trkpt lat="48.53457" lon="1.99362">
        <ele>111.43</ele>
        <time>2017-11-26T12:40:00Z</time>
      </trkpt>
      <trkpt lat="48.53459" lon="1.99374">
        <ele>111.52</ele>
        <time>2017-11-26T12:40:02Z</time>
      </trkpt>
      <trkpt lat="48.5346" lon="1.99386">
        <ele>111.61</ele>
        <time>2017-11-26T12:40:04Z</time>
      </trkpt>
      <trkpt lat="48.53462" lon="1.99397">
        <ele>111.66</ele>
        <time>2017-11-26T12:40:06Z</time>
      </trkpt>
      <trkpt lat="48.53463" lon="1.99408">
        <ele>111.68</ele>
        <time>2017-11-26T12:40:08Z</time>
      </trkpt>
      <trkpt lat="48.53464" lon="1.99419">
        <ele>111.67</ele>
        <time>2017-11-26T12:40:10Z</time>
      </trkpt>
      <trkpt lat="48.53464" lon="1.99428">
        <ele>111.63</ele>
        <time>2017-11-26T12:40:12Z</time>
      </trkpt>
      <trkpt lat="48.53469" lon="1.99437">
        <ele>111.73</ele>
        <time>2017-11-26T12:40:16Z</time>
      </trkpt>
      <trkpt lat="48.53474" lon="1.99436">
        <ele>111.89</ele>
        <time>2017-11-26T12:40:20Z</time>
      </trkpt>
      <trkpt lat="48.53468" lon="1.99438">
        <ele>111.69</ele>
        <time>2017-11-26T12:40:24Z</time>
      </trkpt>
      <trkpt lat="48.53463" lon="1.99439">
        <ele>111.53</ele>
        <time>2017-11-26T12:40:26Z</time>
      </trkpt>
      <trkpt lat="48.53458" lon="1.99439">
        <ele>111.35</ele>
        <time>2017-11-26T12:40:28Z</time>
      </trkpt>
      <trkpt lat="48.53452" lon="1.99437">
        <ele>111.17</ele>
        <time>2017-11-26T12:40:30Z</time>
      </trkpt>
      <trkpt lat="48.53445" lon="1.99434">
        <ele>110.94</ele>
        <time>2017-11-26T12:40:32Z</time>
      </trkpt>
      <trkpt lat="48.53438" lon="1.99433">
        <ele>110.72</ele>
        <time>2017-11-26T12:40:36Z</time>
      </trkpt>
      <trkpt lat="48.53433" lon="1.99435">
        <ele>110.55</ele>
        <time>2017-11-26T12:40:46Z</time>
      </trkpt>
      <trkpt lat="48.53428" lon="1.99437">
        <ele>110.36</ele>
        <time>2017-11-26T12:41:06Z</time>
      </trkpt>
      <trkpt lat="48.53423" lon="1.9944">
        <ele>110.21</ele>
        <time>2017-11-26T12:41:14Z</time>
      </trkpt>
      <trkpt lat="48.53418" lon="1.99444">
        <ele>110.03</ele>
        <time>2017-11-26T12:41:22Z</time>
      </trkpt>
      <trkpt lat="48.53415" lon="1.99452">
        <ele>109.94</ele>
        <time>2017-11-26T12:41:30Z</time>
      </trkpt>
      <trkpt lat="48.53414" lon="1.99459">
        <ele>109.9</ele>
        <time>2017-11-26T12:42:44Z</time>
      </trkpt>
      <trkpt lat="48.5341" lon="1.99454">
        <ele>109.77</ele>
        <time>2017-11-26T12:42:52Z</time>
      </trkpt>
    </trkseg>
  </trk>
</gpx>